<?xml version="1.0" encoding="UTF-8" standalone="no" ?>
<gpx xmlns="http://www.topografix.com/GPX/1/1" xmlns:xsi="http://www.w3.org/2001/XMLSchema-instance" xsi:schemaLocation="http://www.topografix.com/GPX/1/1 http://www.topografix.com/GPX/1/1/gpx.xsd" version="1.1" creator="VisuGPX - https://www.visugpx.com">
  <metadata>
    <name>Crête de Bassia et ses 4 sommets, en boucle à partir de l'auberge du Col de Beyrède</name>
    <desc><![CDATA[Randonnée sans difficulté par beau temps clair, à éviter si brouillard ou pluie. Parcours très agréable. Les vues sur l'Aneto sont saisissantes. Qui plus est, on mange bien à l'auberge, avec une très belle vue au Sud depuis la terrasse !]]></desc>
  </metadata>
  <trk>
    <name><![CDATA[Bassia 07 07 26]]></name>
    <trkseg>
      <trkpt lat="42.96407" lon="0.30433">
        <ele>1392.3</ele>
        <time>2026-07-07T06:41:23Z</time>
      </trkpt>
      <trkpt lat="42.96408" lon="0.30432">
        <ele>1392.3</ele>
        <time>2026-07-07T06:41:24Z</time>
      </trkpt>
      <trkpt lat="42.96408" lon="0.30432">
        <ele>1392.3</ele>
        <time>2026-07-07T06:41:25Z</time>
      </trkpt>
      <trkpt lat="42.96408" lon="0.30431">
        <ele>1392.3</ele>
        <time>2026-07-07T06:41:26Z</time>
      </trkpt>
      <trkpt lat="42.96408" lon="0.30431">
        <ele>1392.3</ele>
        <time>2026-07-07T06:41:26Z</time>
      </trkpt>
      <trkpt lat="42.96408" lon="0.30432">
        <ele>1392.3</ele>
        <time>2026-07-07T06:41:27Z</time>
      </trkpt>
      <trkpt lat="42.96408" lon="0.30432">
        <ele>1392.3</ele>
        <time>2026-07-07T06:41:28Z</time>
      </trkpt>
      <trkpt lat="42.96408" lon="0.30432">
        <ele>1391.3</ele>
        <time>2026-07-07T06:41:29Z</time>
      </trkpt>
      <trkpt lat="42.96408" lon="0.30433">
        <ele>1391.3</ele>
        <time>2026-07-07T06:41:29Z</time>
      </trkpt>
      <trkpt lat="42.96408" lon="0.30434">
        <ele>1391.3</ele>
        <time>2026-07-07T06:41:30Z</time>
      </trkpt>
      <trkpt lat="42.96408" lon="0.30435">
        <ele>1390.3</ele>
        <time>2026-07-07T06:41:31Z</time>
      </trkpt>
      <trkpt lat="42.96408" lon="0.30436">
        <ele>1390.3</ele>
        <time>2026-07-07T06:41:31Z</time>
      </trkpt>
      <trkpt lat="42.96408" lon="0.30437">
        <ele>1390.3</ele>
        <time>2026-07-07T06:41:32Z</time>
      </trkpt>
      <trkpt lat="42.96408" lon="0.30438">
        <ele>1391.3</ele>
        <time>2026-07-07T06:41:33Z</time>
      </trkpt>
      <trkpt lat="42.96408" lon="0.30439">
        <ele>1391.3</ele>
        <time>2026-07-07T06:41:33Z</time>
      </trkpt>
      <trkpt lat="42.96408" lon="0.3044">
        <ele>1392.3</ele>
        <time>2026-07-07T06:41:34Z</time>
      </trkpt>
      <trkpt lat="42.96408" lon="0.3044">
        <ele>1392.3</ele>
        <time>2026-07-07T06:41:34Z</time>
      </trkpt>
      <trkpt lat="42.96408" lon="0.30442">
        <ele>1392.3</ele>
        <time>2026-07-07T06:41:35Z</time>
      </trkpt>
      <trkpt lat="42.96408" lon="0.30443">
        <ele>1392.3</ele>
        <time>2026-07-07T06:41:36Z</time>
      </trkpt>
      <trkpt lat="42.96408" lon="0.30443">
        <ele>1392.3</ele>
        <time>2026-07-07T06:41:36Z</time>
      </trkpt>
      <trkpt lat="42.96408" lon="0.30444">
        <ele>1392.3</ele>
        <time>2026-07-07T06:41:37Z</time>
      </trkpt>
      <trkpt lat="42.96408" lon="0.30445">
        <ele>1392.3</ele>
        <time>2026-07-07T06:41:38Z</time>
      </trkpt>
      <trkpt lat="42.96409" lon="0.30446">
        <ele>1392.3</ele>
        <time>2026-07-07T06:41:38Z</time>
      </trkpt>
      <trkpt lat="42.96409" lon="0.30447">
        <ele>1392.3</ele>
        <time>2026-07-07T06:41:39Z</time>
      </trkpt>
      <trkpt lat="42.96409" lon="0.30448">
        <ele>1392.3</ele>
        <time>2026-07-07T06:41:39Z</time>
      </trkpt>
      <trkpt lat="42.96409" lon="0.30448">
        <ele>1392.3</ele>
        <time>2026-07-07T06:41:40Z</time>
      </trkpt>
      <trkpt lat="42.96409" lon="0.30449">
        <ele>1392.3</ele>
        <time>2026-07-07T06:41:41Z</time>
      </trkpt>
      <trkpt lat="42.96409" lon="0.3045">
        <ele>1392.3</ele>
        <time>2026-07-07T06:41:42Z</time>
      </trkpt>
      <trkpt lat="42.96409" lon="0.30451">
        <ele>1392.3</ele>
        <time>2026-07-07T06:41:42Z</time>
      </trkpt>
      <trkpt lat="42.96408" lon="0.30452">
        <ele>1392.3</ele>
        <time>2026-07-07T06:41:43Z</time>
      </trkpt>
      <trkpt lat="42.96408" lon="0.30453">
        <ele>1392.3</ele>
        <time>2026-07-07T06:41:43Z</time>
      </trkpt>
      <trkpt lat="42.96408" lon="0.30454">
        <ele>1392.3</ele>
        <time>2026-07-07T06:41:44Z</time>
      </trkpt>
      <trkpt lat="42.96407" lon="0.30455">
        <ele>1392.3</ele>
        <time>2026-07-07T06:41:45Z</time>
      </trkpt>
      <trkpt lat="42.96407" lon="0.30455">
        <ele>1392.3</ele>
        <time>2026-07-07T06:41:45Z</time>
      </trkpt>
      <trkpt lat="42.96407" lon="0.30456">
        <ele>1392.3</ele>
        <time>2026-07-07T06:41:46Z</time>
      </trkpt>
      <trkpt lat="42.96408" lon="0.30456">
        <ele>1392.3</ele>
        <time>2026-07-07T06:41:46Z</time>
      </trkpt>
      <trkpt lat="42.96407" lon="0.30457">
        <ele>1392.3</ele>
        <time>2026-07-07T06:41:47Z</time>
      </trkpt>
      <trkpt lat="42.96408" lon="0.30458">
        <ele>1392.3</ele>
        <time>2026-07-07T06:41:48Z</time>
      </trkpt>
      <trkpt lat="42.96408" lon="0.30459">
        <ele>1392.3</ele>
        <time>2026-07-07T06:41:48Z</time>
      </trkpt>
      <trkpt lat="42.96409" lon="0.3046">
        <ele>1392.3</ele>
        <time>2026-07-07T06:41:49Z</time>
      </trkpt>
      <trkpt lat="42.9641" lon="0.30462">
        <ele>1391.3</ele>
        <time>2026-07-07T06:41:49Z</time>
      </trkpt>
      <trkpt lat="42.9641" lon="0.30463">
        <ele>1391.3</ele>
        <time>2026-07-07T06:41:50Z</time>
      </trkpt>
      <trkpt lat="42.96411" lon="0.30464">
        <ele>1391.3</ele>
        <time>2026-07-07T06:41:51Z</time>
      </trkpt>
      <trkpt lat="42.96411" lon="0.30465">
        <ele>1391.3</ele>
        <time>2026-07-07T06:41:51Z</time>
      </trkpt>
      <trkpt lat="42.96411" lon="0.30466">
        <ele>1391.3</ele>
        <time>2026-07-07T06:41:52Z</time>
      </trkpt>
      <trkpt lat="42.96412" lon="0.30467">
        <ele>1391.3</ele>
        <time>2026-07-07T06:41:52Z</time>
      </trkpt>
      <trkpt lat="42.96412" lon="0.30469">
        <ele>1391.3</ele>
        <time>2026-07-07T06:41:53Z</time>
      </trkpt>
      <trkpt lat="42.96412" lon="0.3047">
        <ele>1390.3</ele>
        <time>2026-07-07T06:41:53Z</time>
      </trkpt>
      <trkpt lat="42.96412" lon="0.30471">
        <ele>1390.3</ele>
        <time>2026-07-07T06:41:54Z</time>
      </trkpt>
      <trkpt lat="42.96413" lon="0.30472">
        <ele>1390.3</ele>
        <time>2026-07-07T06:41:55Z</time>
      </trkpt>
      <trkpt lat="42.96413" lon="0.30473">
        <ele>1390.3</ele>
        <time>2026-07-07T06:41:55Z</time>
      </trkpt>
      <trkpt lat="42.96414" lon="0.30474">
        <ele>1390.3</ele>
        <time>2026-07-07T06:41:56Z</time>
      </trkpt>
      <trkpt lat="42.96414" lon="0.30475">
        <ele>1390.3</ele>
        <time>2026-07-07T06:41:56Z</time>
      </trkpt>
      <trkpt lat="42.96415" lon="0.30476">
        <ele>1390.3</ele>
        <time>2026-07-07T06:41:57Z</time>
      </trkpt>
      <trkpt lat="42.96415" lon="0.30477">
        <ele>1391.3</ele>
        <time>2026-07-07T06:41:57Z</time>
      </trkpt>
      <trkpt lat="42.96416" lon="0.30477">
        <ele>1391.3</ele>
        <time>2026-07-07T06:41:58Z</time>
      </trkpt>
      <trkpt lat="42.96416" lon="0.30478">
        <ele>1392.3</ele>
        <time>2026-07-07T06:41:58Z</time>
      </trkpt>
      <trkpt lat="42.96416" lon="0.30479">
        <ele>1392.3</ele>
        <time>2026-07-07T06:41:59Z</time>
      </trkpt>
      <trkpt lat="42.96417" lon="0.3048">
        <ele>1392.3</ele>
        <time>2026-07-07T06:42:00Z</time>
      </trkpt>
      <trkpt lat="42.96417" lon="0.30481">
        <ele>1392.3</ele>
        <time>2026-07-07T06:42:00Z</time>
      </trkpt>
      <trkpt lat="42.96417" lon="0.30482">
        <ele>1392.3</ele>
        <time>2026-07-07T06:42:01Z</time>
      </trkpt>
      <trkpt lat="42.96417" lon="0.30482">
        <ele>1392.3</ele>
        <time>2026-07-07T06:42:01Z</time>
      </trkpt>
      <trkpt lat="42.96418" lon="0.30483">
        <ele>1392.3</ele>
        <time>2026-07-07T06:42:02Z</time>
      </trkpt>
      <trkpt lat="42.96418" lon="0.30484">
        <ele>1392.3</ele>
        <time>2026-07-07T06:42:02Z</time>
      </trkpt>
      <trkpt lat="42.96418" lon="0.30485">
        <ele>1392.3</ele>
        <time>2026-07-07T06:42:03Z</time>
      </trkpt>
      <trkpt lat="42.96418" lon="0.30486">
        <ele>1392.3</ele>
        <time>2026-07-07T06:42:04Z</time>
      </trkpt>
      <trkpt lat="42.96418" lon="0.30487">
        <ele>1392.3</ele>
        <time>2026-07-07T06:42:04Z</time>
      </trkpt>
      <trkpt lat="42.96418" lon="0.30487">
        <ele>1392.3</ele>
        <time>2026-07-07T06:42:05Z</time>
      </trkpt>
      <trkpt lat="42.96419" lon="0.30488">
        <ele>1392.3</ele>
        <time>2026-07-07T06:42:05Z</time>
      </trkpt>
      <trkpt lat="42.96419" lon="0.30489">
        <ele>1392.3</ele>
        <time>2026-07-07T06:42:06Z</time>
      </trkpt>
      <trkpt lat="42.96419" lon="0.3049">
        <ele>1392.3</ele>
        <time>2026-07-07T06:42:07Z</time>
      </trkpt>
      <trkpt lat="42.96419" lon="0.30491">
        <ele>1392.3</ele>
        <time>2026-07-07T06:42:07Z</time>
      </trkpt>
      <trkpt lat="42.96419" lon="0.30492">
        <ele>1393.3</ele>
        <time>2026-07-07T06:42:08Z</time>
      </trkpt>
      <trkpt lat="42.96419" lon="0.30492">
        <ele>1393.3</ele>
        <time>2026-07-07T06:42:08Z</time>
      </trkpt>
      <trkpt lat="42.96419" lon="0.30493">
        <ele>1393.3</ele>
        <time>2026-07-07T06:42:09Z</time>
      </trkpt>
      <trkpt lat="42.96419" lon="0.30494">
        <ele>1393.3</ele>
        <time>2026-07-07T06:42:09Z</time>
      </trkpt>
      <trkpt lat="42.9642" lon="0.30495">
        <ele>1393.3</ele>
        <time>2026-07-07T06:42:10Z</time>
      </trkpt>
      <trkpt lat="42.9642" lon="0.30496">
        <ele>1392.3</ele>
        <time>2026-07-07T06:42:10Z</time>
      </trkpt>
      <trkpt lat="42.9642" lon="0.30497">
        <ele>1392.3</ele>
        <time>2026-07-07T06:42:11Z</time>
      </trkpt>
      <trkpt lat="42.9642" lon="0.30498">
        <ele>1393.3</ele>
        <time>2026-07-07T06:42:12Z</time>
      </trkpt>
      <trkpt lat="42.9642" lon="0.30499">
        <ele>1393.3</ele>
        <time>2026-07-07T06:42:12Z</time>
      </trkpt>
      <trkpt lat="42.96421" lon="0.30499">
        <ele>1393.3</ele>
        <time>2026-07-07T06:42:13Z</time>
      </trkpt>
      <trkpt lat="42.96421" lon="0.305">
        <ele>1394.3</ele>
        <time>2026-07-07T06:42:13Z</time>
      </trkpt>
      <trkpt lat="42.96421" lon="0.30501">
        <ele>1394.3</ele>
        <time>2026-07-07T06:42:14Z</time>
      </trkpt>
      <trkpt lat="42.96421" lon="0.30502">
        <ele>1394.3</ele>
        <time>2026-07-07T06:42:14Z</time>
      </trkpt>
      <trkpt lat="42.96422" lon="0.30503">
        <ele>1394.3</ele>
        <time>2026-07-07T06:42:15Z</time>
      </trkpt>
      <trkpt lat="42.96422" lon="0.30504">
        <ele>1394.3</ele>
        <time>2026-07-07T06:42:16Z</time>
      </trkpt>
      <trkpt lat="42.96422" lon="0.30504">
        <ele>1394.3</ele>
        <time>2026-07-07T06:42:16Z</time>
      </trkpt>
      <trkpt lat="42.96422" lon="0.30505">
        <ele>1393.3</ele>
        <time>2026-07-07T06:42:17Z</time>
      </trkpt>
      <trkpt lat="42.96422" lon="0.30506">
        <ele>1393.3</ele>
        <time>2026-07-07T06:42:17Z</time>
      </trkpt>
      <trkpt lat="42.96423" lon="0.30507">
        <ele>1393.3</ele>
        <time>2026-07-07T06:42:18Z</time>
      </trkpt>
      <trkpt lat="42.96423" lon="0.30508">
        <ele>1393.3</ele>
        <time>2026-07-07T06:42:19Z</time>
      </trkpt>
      <trkpt lat="42.96423" lon="0.30509">
        <ele>1393.3</ele>
        <time>2026-07-07T06:42:19Z</time>
      </trkpt>
      <trkpt lat="42.96423" lon="0.30509">
        <ele>1393.3</ele>
        <time>2026-07-07T06:42:20Z</time>
      </trkpt>
      <trkpt lat="42.96423" lon="0.3051">
        <ele>1393.3</ele>
        <time>2026-07-07T06:42:20Z</time>
      </trkpt>
      <trkpt lat="42.96424" lon="0.30511">
        <ele>1393.3</ele>
        <time>2026-07-07T06:42:21Z</time>
      </trkpt>
      <trkpt lat="42.96424" lon="0.30511">
        <ele>1393.3</ele>
        <time>2026-07-07T06:42:21Z</time>
      </trkpt>
      <trkpt lat="42.96424" lon="0.30512">
        <ele>1393.3</ele>
        <time>2026-07-07T06:42:22Z</time>
      </trkpt>
      <trkpt lat="42.96424" lon="0.30513">
        <ele>1394.3</ele>
        <time>2026-07-07T06:42:23Z</time>
      </trkpt>
      <trkpt lat="42.96424" lon="0.30514">
        <ele>1394.3</ele>
        <time>2026-07-07T06:42:23Z</time>
      </trkpt>
      <trkpt lat="42.96424" lon="0.30515">
        <ele>1395.3</ele>
        <time>2026-07-07T06:42:24Z</time>
      </trkpt>
      <trkpt lat="42.96424" lon="0.30515">
        <ele>1395.3</ele>
        <time>2026-07-07T06:42:24Z</time>
      </trkpt>
      <trkpt lat="42.96424" lon="0.30516">
        <ele>1395.3</ele>
        <time>2026-07-07T06:42:25Z</time>
      </trkpt>
      <trkpt lat="42.96424" lon="0.30516">
        <ele>1395.3</ele>
        <time>2026-07-07T06:42:25Z</time>
      </trkpt>
      <trkpt lat="42.96424" lon="0.30517">
        <ele>1395.3</ele>
        <time>2026-07-07T06:42:26Z</time>
      </trkpt>
      <trkpt lat="42.96424" lon="0.30518">
        <ele>1395.3</ele>
        <time>2026-07-07T06:42:27Z</time>
      </trkpt>
      <trkpt lat="42.96424" lon="0.30519">
        <ele>1395.3</ele>
        <time>2026-07-07T06:42:27Z</time>
      </trkpt>
      <trkpt lat="42.96424" lon="0.3052">
        <ele>1395.3</ele>
        <time>2026-07-07T06:42:28Z</time>
      </trkpt>
      <trkpt lat="42.96423" lon="0.30521">
        <ele>1395.3</ele>
        <time>2026-07-07T06:42:28Z</time>
      </trkpt>
      <trkpt lat="42.96423" lon="0.30522">
        <ele>1395.3</ele>
        <time>2026-07-07T06:42:29Z</time>
      </trkpt>
      <trkpt lat="42.96423" lon="0.30522">
        <ele>1394.3</ele>
        <time>2026-07-07T06:42:29Z</time>
      </trkpt>
      <trkpt lat="42.96423" lon="0.30523">
        <ele>1394.3</ele>
        <time>2026-07-07T06:42:30Z</time>
      </trkpt>
      <trkpt lat="42.96423" lon="0.30524">
        <ele>1394.3</ele>
        <time>2026-07-07T06:42:31Z</time>
      </trkpt>
      <trkpt lat="42.96423" lon="0.30525">
        <ele>1394.3</ele>
        <time>2026-07-07T06:42:31Z</time>
      </trkpt>
      <trkpt lat="42.96423" lon="0.30526">
        <ele>1394.3</ele>
        <time>2026-07-07T06:42:32Z</time>
      </trkpt>
      <trkpt lat="42.96423" lon="0.30526">
        <ele>1394.3</ele>
        <time>2026-07-07T06:42:32Z</time>
      </trkpt>
      <trkpt lat="42.96423" lon="0.30527">
        <ele>1394.3</ele>
        <time>2026-07-07T06:42:33Z</time>
      </trkpt>
      <trkpt lat="42.96423" lon="0.30528">
        <ele>1394.3</ele>
        <time>2026-07-07T06:42:33Z</time>
      </trkpt>
      <trkpt lat="42.96423" lon="0.30529">
        <ele>1394.3</ele>
        <time>2026-07-07T06:42:34Z</time>
      </trkpt>
      <trkpt lat="42.96423" lon="0.3053">
        <ele>1394.3</ele>
        <time>2026-07-07T06:42:35Z</time>
      </trkpt>
      <trkpt lat="42.96423" lon="0.30531">
        <ele>1394.3</ele>
        <time>2026-07-07T06:42:35Z</time>
      </trkpt>
      <trkpt lat="42.96422" lon="0.30532">
        <ele>1395.3</ele>
        <time>2026-07-07T06:42:36Z</time>
      </trkpt>
      <trkpt lat="42.96422" lon="0.30533">
        <ele>1395.3</ele>
        <time>2026-07-07T06:42:36Z</time>
      </trkpt>
      <trkpt lat="42.96422" lon="0.30534">
        <ele>1395.3</ele>
        <time>2026-07-07T06:42:37Z</time>
      </trkpt>
      <trkpt lat="42.96422" lon="0.30535">
        <ele>1395.3</ele>
        <time>2026-07-07T06:42:37Z</time>
      </trkpt>
      <trkpt lat="42.96422" lon="0.30536">
        <ele>1395.3</ele>
        <time>2026-07-07T06:42:38Z</time>
      </trkpt>
      <trkpt lat="42.96422" lon="0.30537">
        <ele>1395.3</ele>
        <time>2026-07-07T06:42:38Z</time>
      </trkpt>
      <trkpt lat="42.96422" lon="0.30538">
        <ele>1395.3</ele>
        <time>2026-07-07T06:42:39Z</time>
      </trkpt>
      <trkpt lat="42.96422" lon="0.30539">
        <ele>1394.3</ele>
        <time>2026-07-07T06:42:40Z</time>
      </trkpt>
      <trkpt lat="42.96422" lon="0.3054">
        <ele>1394.3</ele>
        <time>2026-07-07T06:42:40Z</time>
      </trkpt>
      <trkpt lat="42.96422" lon="0.3054">
        <ele>1393.3</ele>
        <time>2026-07-07T06:42:41Z</time>
      </trkpt>
      <trkpt lat="42.96422" lon="0.30541">
        <ele>1393.3</ele>
        <time>2026-07-07T06:42:41Z</time>
      </trkpt>
      <trkpt lat="42.96421" lon="0.30542">
        <ele>1393.3</ele>
        <time>2026-07-07T06:42:42Z</time>
      </trkpt>
      <trkpt lat="42.96421" lon="0.30543">
        <ele>1394.3</ele>
        <time>2026-07-07T06:42:42Z</time>
      </trkpt>
      <trkpt lat="42.96421" lon="0.30544">
        <ele>1394.3</ele>
        <time>2026-07-07T06:42:43Z</time>
      </trkpt>
      <trkpt lat="42.96421" lon="0.30545">
        <ele>1394.3</ele>
        <time>2026-07-07T06:42:43Z</time>
      </trkpt>
      <trkpt lat="42.96421" lon="0.30546">
        <ele>1394.3</ele>
        <time>2026-07-07T06:42:44Z</time>
      </trkpt>
      <trkpt lat="42.96421" lon="0.30546">
        <ele>1394.3</ele>
        <time>2026-07-07T06:42:45Z</time>
      </trkpt>
      <trkpt lat="42.9642" lon="0.30547">
        <ele>1394.3</ele>
        <time>2026-07-07T06:42:45Z</time>
      </trkpt>
      <trkpt lat="42.9642" lon="0.30548">
        <ele>1394.3</ele>
        <time>2026-07-07T06:42:46Z</time>
      </trkpt>
      <trkpt lat="42.9642" lon="0.30549">
        <ele>1394.3</ele>
        <time>2026-07-07T06:42:46Z</time>
      </trkpt>
      <trkpt lat="42.9642" lon="0.3055">
        <ele>1394.3</ele>
        <time>2026-07-07T06:42:47Z</time>
      </trkpt>
      <trkpt lat="42.96421" lon="0.30551">
        <ele>1394.3</ele>
        <time>2026-07-07T06:42:47Z</time>
      </trkpt>
      <trkpt lat="42.96421" lon="0.30552">
        <ele>1394.3</ele>
        <time>2026-07-07T06:42:48Z</time>
      </trkpt>
      <trkpt lat="42.96421" lon="0.30553">
        <ele>1394.3</ele>
        <time>2026-07-07T06:42:49Z</time>
      </trkpt>
      <trkpt lat="42.96421" lon="0.30554">
        <ele>1394.3</ele>
        <time>2026-07-07T06:42:49Z</time>
      </trkpt>
      <trkpt lat="42.96421" lon="0.30555">
        <ele>1395.3</ele>
        <time>2026-07-07T06:42:50Z</time>
      </trkpt>
      <trkpt lat="42.96421" lon="0.30556">
        <ele>1395.3</ele>
        <time>2026-07-07T06:42:50Z</time>
      </trkpt>
      <trkpt lat="42.96421" lon="0.30557">
        <ele>1395.3</ele>
        <time>2026-07-07T06:42:51Z</time>
      </trkpt>
      <trkpt lat="42.96421" lon="0.30557">
        <ele>1395.3</ele>
        <time>2026-07-07T06:42:51Z</time>
      </trkpt>
      <trkpt lat="42.96421" lon="0.30558">
        <ele>1395.3</ele>
        <time>2026-07-07T06:42:52Z</time>
      </trkpt>
      <trkpt lat="42.96421" lon="0.30559">
        <ele>1395.3</ele>
        <time>2026-07-07T06:42:53Z</time>
      </trkpt>
      <trkpt lat="42.96421" lon="0.3056">
        <ele>1395.3</ele>
        <time>2026-07-07T06:42:53Z</time>
      </trkpt>
      <trkpt lat="42.96421" lon="0.30561">
        <ele>1395.3</ele>
        <time>2026-07-07T06:42:54Z</time>
      </trkpt>
      <trkpt lat="42.96422" lon="0.30562">
        <ele>1395.3</ele>
        <time>2026-07-07T06:42:54Z</time>
      </trkpt>
      <trkpt lat="42.96422" lon="0.30563">
        <ele>1395.3</ele>
        <time>2026-07-07T06:42:55Z</time>
      </trkpt>
      <trkpt lat="42.96422" lon="0.30564">
        <ele>1395.3</ele>
        <time>2026-07-07T06:42:55Z</time>
      </trkpt>
      <trkpt lat="42.96422" lon="0.30565">
        <ele>1395.3</ele>
        <time>2026-07-07T06:42:56Z</time>
      </trkpt>
      <trkpt lat="42.96422" lon="0.30566">
        <ele>1395.3</ele>
        <time>2026-07-07T06:42:57Z</time>
      </trkpt>
      <trkpt lat="42.96422" lon="0.30567">
        <ele>1395.3</ele>
        <time>2026-07-07T06:42:57Z</time>
      </trkpt>
      <trkpt lat="42.96422" lon="0.30568">
        <ele>1395.3</ele>
        <time>2026-07-07T06:42:58Z</time>
      </trkpt>
      <trkpt lat="42.96422" lon="0.30568">
        <ele>1395.3</ele>
        <time>2026-07-07T06:42:58Z</time>
      </trkpt>
      <trkpt lat="42.96423" lon="0.30569">
        <ele>1395.3</ele>
        <time>2026-07-07T06:42:59Z</time>
      </trkpt>
      <trkpt lat="42.96422" lon="0.3057">
        <ele>1394.3</ele>
        <time>2026-07-07T06:42:59Z</time>
      </trkpt>
      <trkpt lat="42.96422" lon="0.30571">
        <ele>1394.3</ele>
        <time>2026-07-07T06:43:00Z</time>
      </trkpt>
      <trkpt lat="42.96423" lon="0.30572">
        <ele>1394.3</ele>
        <time>2026-07-07T06:43:01Z</time>
      </trkpt>
      <trkpt lat="42.96423" lon="0.30573">
        <ele>1394.3</ele>
        <time>2026-07-07T06:43:01Z</time>
      </trkpt>
      <trkpt lat="42.96423" lon="0.30574">
        <ele>1394.3</ele>
        <time>2026-07-07T06:43:02Z</time>
      </trkpt>
      <trkpt lat="42.96423" lon="0.30575">
        <ele>1394.3</ele>
        <time>2026-07-07T06:43:02Z</time>
      </trkpt>
      <trkpt lat="42.96423" lon="0.30576">
        <ele>1394.3</ele>
        <time>2026-07-07T06:43:03Z</time>
      </trkpt>
      <trkpt lat="42.96423" lon="0.30577">
        <ele>1394.3</ele>
        <time>2026-07-07T06:43:03Z</time>
      </trkpt>
      <trkpt lat="42.96423" lon="0.30578">
        <ele>1394.3</ele>
        <time>2026-07-07T06:43:04Z</time>
      </trkpt>
      <trkpt lat="42.96424" lon="0.30578">
        <ele>1395.3</ele>
        <time>2026-07-07T06:43:05Z</time>
      </trkpt>
      <trkpt lat="42.96424" lon="0.30579">
        <ele>1395.3</ele>
        <time>2026-07-07T06:43:05Z</time>
      </trkpt>
      <trkpt lat="42.96424" lon="0.3058">
        <ele>1395.3</ele>
        <time>2026-07-07T06:43:06Z</time>
      </trkpt>
      <trkpt lat="42.96424" lon="0.30581">
        <ele>1396.3</ele>
        <time>2026-07-07T06:43:06Z</time>
      </trkpt>
      <trkpt lat="42.96424" lon="0.30582">
        <ele>1396.3</ele>
        <time>2026-07-07T06:43:07Z</time>
      </trkpt>
      <trkpt lat="42.96424" lon="0.30583">
        <ele>1396.3</ele>
        <time>2026-07-07T06:43:07Z</time>
      </trkpt>
      <trkpt lat="42.96424" lon="0.30584">
        <ele>1396.3</ele>
        <time>2026-07-07T06:43:08Z</time>
      </trkpt>
      <trkpt lat="42.96425" lon="0.30585">
        <ele>1396.3</ele>
        <time>2026-07-07T06:43:08Z</time>
      </trkpt>
      <trkpt lat="42.96425" lon="0.30586">
        <ele>1396.3</ele>
        <time>2026-07-07T06:43:09Z</time>
      </trkpt>
      <trkpt lat="42.96425" lon="0.30586">
        <ele>1396.3</ele>
        <time>2026-07-07T06:43:10Z</time>
      </trkpt>
      <trkpt lat="42.96425" lon="0.30587">
        <ele>1396.3</ele>
        <time>2026-07-07T06:43:10Z</time>
      </trkpt>
      <trkpt lat="42.96425" lon="0.30588">
        <ele>1396.3</ele>
        <time>2026-07-07T06:43:11Z</time>
      </trkpt>
      <trkpt lat="42.96425" lon="0.30589">
        <ele>1396.3</ele>
        <time>2026-07-07T06:43:11Z</time>
      </trkpt>
      <trkpt lat="42.96425" lon="0.3059">
        <ele>1396.3</ele>
        <time>2026-07-07T06:43:12Z</time>
      </trkpt>
      <trkpt lat="42.96426" lon="0.3059">
        <ele>1396.3</ele>
        <time>2026-07-07T06:43:12Z</time>
      </trkpt>
      <trkpt lat="42.96426" lon="0.30591">
        <ele>1396.3</ele>
        <time>2026-07-07T06:43:13Z</time>
      </trkpt>
      <trkpt lat="42.96426" lon="0.30592">
        <ele>1396.3</ele>
        <time>2026-07-07T06:43:13Z</time>
      </trkpt>
      <trkpt lat="42.96426" lon="0.30592">
        <ele>1396.3</ele>
        <time>2026-07-07T06:43:14Z</time>
      </trkpt>
      <trkpt lat="42.96427" lon="0.30593">
        <ele>1396.3</ele>
        <time>2026-07-07T06:43:15Z</time>
      </trkpt>
      <trkpt lat="42.96427" lon="0.30594">
        <ele>1396.3</ele>
        <time>2026-07-07T06:43:15Z</time>
      </trkpt>
      <trkpt lat="42.96427" lon="0.30595">
        <ele>1396.3</ele>
        <time>2026-07-07T06:43:16Z</time>
      </trkpt>
      <trkpt lat="42.96427" lon="0.30596">
        <ele>1396.3</ele>
        <time>2026-07-07T06:43:16Z</time>
      </trkpt>
      <trkpt lat="42.96428" lon="0.30597">
        <ele>1396.3</ele>
        <time>2026-07-07T06:43:17Z</time>
      </trkpt>
      <trkpt lat="42.96428" lon="0.30597">
        <ele>1396.3</ele>
        <time>2026-07-07T06:43:17Z</time>
      </trkpt>
      <trkpt lat="42.96428" lon="0.30598">
        <ele>1396.3</ele>
        <time>2026-07-07T06:43:18Z</time>
      </trkpt>
      <trkpt lat="42.96428" lon="0.30599">
        <ele>1396.3</ele>
        <time>2026-07-07T06:43:18Z</time>
      </trkpt>
      <trkpt lat="42.96429" lon="0.306">
        <ele>1396.3</ele>
        <time>2026-07-07T06:43:19Z</time>
      </trkpt>
      <trkpt lat="42.96429" lon="0.30601">
        <ele>1397.3</ele>
        <time>2026-07-07T06:43:20Z</time>
      </trkpt>
      <trkpt lat="42.96429" lon="0.30602">
        <ele>1397.3</ele>
        <time>2026-07-07T06:43:20Z</time>
      </trkpt>
      <trkpt lat="42.96429" lon="0.30603">
        <ele>1397.3</ele>
        <time>2026-07-07T06:43:21Z</time>
      </trkpt>
      <trkpt lat="42.96429" lon="0.30604">
        <ele>1397.3</ele>
        <time>2026-07-07T06:43:21Z</time>
      </trkpt>
      <trkpt lat="42.96429" lon="0.30605">
        <ele>1397.3</ele>
        <time>2026-07-07T06:43:22Z</time>
      </trkpt>
      <trkpt lat="42.96429" lon="0.30606">
        <ele>1397.3</ele>
        <time>2026-07-07T06:43:22Z</time>
      </trkpt>
      <trkpt lat="42.96429" lon="0.30607">
        <ele>1397.3</ele>
        <time>2026-07-07T06:43:23Z</time>
      </trkpt>
      <trkpt lat="42.9643" lon="0.30608">
        <ele>1397.3</ele>
        <time>2026-07-07T06:43:23Z</time>
      </trkpt>
      <trkpt lat="42.9643" lon="0.30609">
        <ele>1397.3</ele>
        <time>2026-07-07T06:43:24Z</time>
      </trkpt>
      <trkpt lat="42.9643" lon="0.3061">
        <ele>1397.3</ele>
        <time>2026-07-07T06:43:25Z</time>
      </trkpt>
      <trkpt lat="42.9643" lon="0.30611">
        <ele>1397.3</ele>
        <time>2026-07-07T06:43:25Z</time>
      </trkpt>
      <trkpt lat="42.9643" lon="0.30612">
        <ele>1397.3</ele>
        <time>2026-07-07T06:43:26Z</time>
      </trkpt>
      <trkpt lat="42.9643" lon="0.30612">
        <ele>1397.3</ele>
        <time>2026-07-07T06:43:26Z</time>
      </trkpt>
      <trkpt lat="42.9643" lon="0.30613">
        <ele>1397.3</ele>
        <time>2026-07-07T06:43:27Z</time>
      </trkpt>
      <trkpt lat="42.96429" lon="0.30614">
        <ele>1397.3</ele>
        <time>2026-07-07T06:43:27Z</time>
      </trkpt>
      <trkpt lat="42.96429" lon="0.30615">
        <ele>1397.3</ele>
        <time>2026-07-07T06:43:28Z</time>
      </trkpt>
      <trkpt lat="42.96429" lon="0.30616">
        <ele>1398.3</ele>
        <time>2026-07-07T06:43:28Z</time>
      </trkpt>
      <trkpt lat="42.96429" lon="0.30617">
        <ele>1398.3</ele>
        <time>2026-07-07T06:43:29Z</time>
      </trkpt>
      <trkpt lat="42.96428" lon="0.30618">
        <ele>1397.3</ele>
        <time>2026-07-07T06:43:30Z</time>
      </trkpt>
      <trkpt lat="42.96428" lon="0.30619">
        <ele>1397.3</ele>
        <time>2026-07-07T06:43:30Z</time>
      </trkpt>
      <trkpt lat="42.96428" lon="0.30619">
        <ele>1397.3</ele>
        <time>2026-07-07T06:43:31Z</time>
      </trkpt>
      <trkpt lat="42.96428" lon="0.3062">
        <ele>1397.3</ele>
        <time>2026-07-07T06:43:31Z</time>
      </trkpt>
      <trkpt lat="42.96427" lon="0.30621">
        <ele>1397.3</ele>
        <time>2026-07-07T06:43:32Z</time>
      </trkpt>
      <trkpt lat="42.96427" lon="0.30622">
        <ele>1397.3</ele>
        <time>2026-07-07T06:43:32Z</time>
      </trkpt>
      <trkpt lat="42.96427" lon="0.30623">
        <ele>1397.3</ele>
        <time>2026-07-07T06:43:33Z</time>
      </trkpt>
      <trkpt lat="42.96426" lon="0.30624">
        <ele>1398.3</ele>
        <time>2026-07-07T06:43:34Z</time>
      </trkpt>
      <trkpt lat="42.96426" lon="0.30625">
        <ele>1398.3</ele>
        <time>2026-07-07T06:43:34Z</time>
      </trkpt>
      <trkpt lat="42.96426" lon="0.30626">
        <ele>1398.3</ele>
        <time>2026-07-07T06:43:35Z</time>
      </trkpt>
      <trkpt lat="42.96425" lon="0.30627">
        <ele>1398.3</ele>
        <time>2026-07-07T06:43:35Z</time>
      </trkpt>
      <trkpt lat="42.96425" lon="0.30627">
        <ele>1398.3</ele>
        <time>2026-07-07T06:43:36Z</time>
      </trkpt>
      <trkpt lat="42.96425" lon="0.30628">
        <ele>1398.3</ele>
        <time>2026-07-07T06:43:36Z</time>
      </trkpt>
      <trkpt lat="42.96425" lon="0.30629">
        <ele>1398.3</ele>
        <time>2026-07-07T06:43:37Z</time>
      </trkpt>
      <trkpt lat="42.96425" lon="0.3063">
        <ele>1397.3</ele>
        <time>2026-07-07T06:43:37Z</time>
      </trkpt>
      <trkpt lat="42.96425" lon="0.3063">
        <ele>1397.3</ele>
        <time>2026-07-07T06:43:38Z</time>
      </trkpt>
      <trkpt lat="42.96424" lon="0.30631">
        <ele>1397.3</ele>
        <time>2026-07-07T06:43:38Z</time>
      </trkpt>
      <trkpt lat="42.96424" lon="0.30632">
        <ele>1397.3</ele>
        <time>2026-07-07T06:43:39Z</time>
      </trkpt>
      <trkpt lat="42.96424" lon="0.30633">
        <ele>1397.3</ele>
        <time>2026-07-07T06:43:40Z</time>
      </trkpt>
      <trkpt lat="42.96423" lon="0.30633">
        <ele>1397.3</ele>
        <time>2026-07-07T06:43:40Z</time>
      </trkpt>
      <trkpt lat="42.96423" lon="0.30634">
        <ele>1397.3</ele>
        <time>2026-07-07T06:43:41Z</time>
      </trkpt>
      <trkpt lat="42.96423" lon="0.30635">
        <ele>1397.3</ele>
        <time>2026-07-07T06:43:41Z</time>
      </trkpt>
      <trkpt lat="42.96422" lon="0.30636">
        <ele>1397.3</ele>
        <time>2026-07-07T06:43:42Z</time>
      </trkpt>
      <trkpt lat="42.96422" lon="0.30637">
        <ele>1397.3</ele>
        <time>2026-07-07T06:43:42Z</time>
      </trkpt>
      <trkpt lat="42.96422" lon="0.30638">
        <ele>1397.3</ele>
        <time>2026-07-07T06:43:43Z</time>
      </trkpt>
      <trkpt lat="42.96422" lon="0.30639">
        <ele>1397.3</ele>
        <time>2026-07-07T06:43:44Z</time>
      </trkpt>
      <trkpt lat="42.96421" lon="0.30639">
        <ele>1397.3</ele>
        <time>2026-07-07T06:43:44Z</time>
      </trkpt>
      <trkpt lat="42.96421" lon="0.3064">
        <ele>1398.3</ele>
        <time>2026-07-07T06:43:45Z</time>
      </trkpt>
      <trkpt lat="42.96421" lon="0.30641">
        <ele>1398.3</ele>
        <time>2026-07-07T06:43:45Z</time>
      </trkpt>
      <trkpt lat="42.96421" lon="0.30642">
        <ele>1398.3</ele>
        <time>2026-07-07T06:43:46Z</time>
      </trkpt>
      <trkpt lat="42.9642" lon="0.30643">
        <ele>1398.3</ele>
        <time>2026-07-07T06:43:46Z</time>
      </trkpt>
      <trkpt lat="42.9642" lon="0.30644">
        <ele>1398.3</ele>
        <time>2026-07-07T06:43:47Z</time>
      </trkpt>
      <trkpt lat="42.96421" lon="0.30644">
        <ele>1398.3</ele>
        <time>2026-07-07T06:43:47Z</time>
      </trkpt>
      <trkpt lat="42.9642" lon="0.30645">
        <ele>1398.3</ele>
        <time>2026-07-07T06:43:48Z</time>
      </trkpt>
      <trkpt lat="42.9642" lon="0.30646">
        <ele>1398.3</ele>
        <time>2026-07-07T06:43:48Z</time>
      </trkpt>
      <trkpt lat="42.9642" lon="0.30647">
        <ele>1398.3</ele>
        <time>2026-07-07T06:43:49Z</time>
      </trkpt>
      <trkpt lat="42.9642" lon="0.30647">
        <ele>1398.3</ele>
        <time>2026-07-07T06:43:50Z</time>
      </trkpt>
      <trkpt lat="42.9642" lon="0.30648">
        <ele>1398.3</ele>
        <time>2026-07-07T06:43:50Z</time>
      </trkpt>
      <trkpt lat="42.9642" lon="0.30649">
        <ele>1398.3</ele>
        <time>2026-07-07T06:43:51Z</time>
      </trkpt>
      <trkpt lat="42.9642" lon="0.3065">
        <ele>1398.3</ele>
        <time>2026-07-07T06:43:51Z</time>
      </trkpt>
      <trkpt lat="42.96419" lon="0.30651">
        <ele>1398.3</ele>
        <time>2026-07-07T06:43:52Z</time>
      </trkpt>
      <trkpt lat="42.96419" lon="0.30652">
        <ele>1398.3</ele>
        <time>2026-07-07T06:43:52Z</time>
      </trkpt>
      <trkpt lat="42.96419" lon="0.30653">
        <ele>1398.3</ele>
        <time>2026-07-07T06:43:53Z</time>
      </trkpt>
      <trkpt lat="42.96418" lon="0.30654">
        <ele>1398.3</ele>
        <time>2026-07-07T06:43:54Z</time>
      </trkpt>
      <trkpt lat="42.96418" lon="0.30654">
        <ele>1398.3</ele>
        <time>2026-07-07T06:43:54Z</time>
      </trkpt>
      <trkpt lat="42.96418" lon="0.30655">
        <ele>1398.3</ele>
        <time>2026-07-07T06:43:55Z</time>
      </trkpt>
      <trkpt lat="42.96418" lon="0.30656">
        <ele>1398.3</ele>
        <time>2026-07-07T06:43:55Z</time>
      </trkpt>
      <trkpt lat="42.96418" lon="0.30657">
        <ele>1398.3</ele>
        <time>2026-07-07T06:43:56Z</time>
      </trkpt>
      <trkpt lat="42.96417" lon="0.30658">
        <ele>1398.3</ele>
        <time>2026-07-07T06:43:56Z</time>
      </trkpt>
      <trkpt lat="42.96417" lon="0.30658">
        <ele>1398.3</ele>
        <time>2026-07-07T06:43:57Z</time>
      </trkpt>
      <trkpt lat="42.96417" lon="0.30659">
        <ele>1399.3</ele>
        <time>2026-07-07T06:43:57Z</time>
      </trkpt>
      <trkpt lat="42.96417" lon="0.3066">
        <ele>1399.3</ele>
        <time>2026-07-07T06:43:58Z</time>
      </trkpt>
      <trkpt lat="42.96417" lon="0.30661">
        <ele>1399.3</ele>
        <time>2026-07-07T06:43:58Z</time>
      </trkpt>
      <trkpt lat="42.96417" lon="0.30662">
        <ele>1399.3</ele>
        <time>2026-07-07T06:43:59Z</time>
      </trkpt>
      <trkpt lat="42.96417" lon="0.30663">
        <ele>1399.3</ele>
        <time>2026-07-07T06:44:00Z</time>
      </trkpt>
      <trkpt lat="42.96416" lon="0.30664">
        <ele>1399.3</ele>
        <time>2026-07-07T06:44:00Z</time>
      </trkpt>
      <trkpt lat="42.96416" lon="0.30664">
        <ele>1399.3</ele>
        <time>2026-07-07T06:44:01Z</time>
      </trkpt>
      <trkpt lat="42.96416" lon="0.30665">
        <ele>1399.3</ele>
        <time>2026-07-07T06:44:01Z</time>
      </trkpt>
      <trkpt lat="42.96416" lon="0.30666">
        <ele>1399.3</ele>
        <time>2026-07-07T06:44:02Z</time>
      </trkpt>
      <trkpt lat="42.96416" lon="0.30667">
        <ele>1400.3</ele>
        <time>2026-07-07T06:44:02Z</time>
      </trkpt>
      <trkpt lat="42.96416" lon="0.30668">
        <ele>1400.3</ele>
        <time>2026-07-07T06:44:03Z</time>
      </trkpt>
      <trkpt lat="42.96416" lon="0.30669">
        <ele>1400.3</ele>
        <time>2026-07-07T06:44:03Z</time>
      </trkpt>
      <trkpt lat="42.96416" lon="0.3067">
        <ele>1400.3</ele>
        <time>2026-07-07T06:44:04Z</time>
      </trkpt>
      <trkpt lat="42.96416" lon="0.30671">
        <ele>1400.3</ele>
        <time>2026-07-07T06:44:05Z</time>
      </trkpt>
      <trkpt lat="42.96415" lon="0.30671">
        <ele>1400.3</ele>
        <time>2026-07-07T06:44:05Z</time>
      </trkpt>
      <trkpt lat="42.96415" lon="0.30672">
        <ele>1400.3</ele>
        <time>2026-07-07T06:44:06Z</time>
      </trkpt>
      <trkpt lat="42.96415" lon="0.30673">
        <ele>1400.3</ele>
        <time>2026-07-07T06:44:06Z</time>
      </trkpt>
      <trkpt lat="42.96415" lon="0.30674">
        <ele>1401.3</ele>
        <time>2026-07-07T06:44:07Z</time>
      </trkpt>
      <trkpt lat="42.96415" lon="0.30675">
        <ele>1401.3</ele>
        <time>2026-07-07T06:44:07Z</time>
      </trkpt>
      <trkpt lat="42.96415" lon="0.30676">
        <ele>1401.3</ele>
        <time>2026-07-07T06:44:08Z</time>
      </trkpt>
      <trkpt lat="42.96415" lon="0.30677">
        <ele>1401.3</ele>
        <time>2026-07-07T06:44:08Z</time>
      </trkpt>
      <trkpt lat="42.96415" lon="0.30678">
        <ele>1401.3</ele>
        <time>2026-07-07T06:44:09Z</time>
      </trkpt>
      <trkpt lat="42.96415" lon="0.30679">
        <ele>1401.3</ele>
        <time>2026-07-07T06:44:09Z</time>
      </trkpt>
      <trkpt lat="42.96414" lon="0.3068">
        <ele>1401.3</ele>
        <time>2026-07-07T06:44:10Z</time>
      </trkpt>
      <trkpt lat="42.96414" lon="0.3068">
        <ele>1401.3</ele>
        <time>2026-07-07T06:44:11Z</time>
      </trkpt>
      <trkpt lat="42.96414" lon="0.30681">
        <ele>1401.3</ele>
        <time>2026-07-07T06:44:11Z</time>
      </trkpt>
      <trkpt lat="42.96414" lon="0.30682">
        <ele>1401.3</ele>
        <time>2026-07-07T06:44:12Z</time>
      </trkpt>
      <trkpt lat="42.96414" lon="0.30682">
        <ele>1401.3</ele>
        <time>2026-07-07T06:44:12Z</time>
      </trkpt>
      <trkpt lat="42.96414" lon="0.30683">
        <ele>1401.3</ele>
        <time>2026-07-07T06:44:13Z</time>
      </trkpt>
      <trkpt lat="42.96414" lon="0.30684">
        <ele>1401.3</ele>
        <time>2026-07-07T06:44:13Z</time>
      </trkpt>
      <trkpt lat="42.96414" lon="0.30685">
        <ele>1401.3</ele>
        <time>2026-07-07T06:44:14Z</time>
      </trkpt>
      <trkpt lat="42.96414" lon="0.30686">
        <ele>1401.3</ele>
        <time>2026-07-07T06:44:15Z</time>
      </trkpt>
      <trkpt lat="42.96414" lon="0.30687">
        <ele>1401.3</ele>
        <time>2026-07-07T06:44:15Z</time>
      </trkpt>
      <trkpt lat="42.96414" lon="0.30688">
        <ele>1400.3</ele>
        <time>2026-07-07T06:44:16Z</time>
      </trkpt>
      <trkpt lat="42.96414" lon="0.30689">
        <ele>1400.3</ele>
        <time>2026-07-07T06:44:16Z</time>
      </trkpt>
      <trkpt lat="42.96414" lon="0.3069">
        <ele>1401.3</ele>
        <time>2026-07-07T06:44:17Z</time>
      </trkpt>
      <trkpt lat="42.96414" lon="0.30691">
        <ele>1400.3</ele>
        <time>2026-07-07T06:44:17Z</time>
      </trkpt>
      <trkpt lat="42.96414" lon="0.30692">
        <ele>1400.3</ele>
        <time>2026-07-07T06:44:18Z</time>
      </trkpt>
      <trkpt lat="42.96414" lon="0.30693">
        <ele>1400.3</ele>
        <time>2026-07-07T06:44:18Z</time>
      </trkpt>
      <trkpt lat="42.96414" lon="0.30694">
        <ele>1400.3</ele>
        <time>2026-07-07T06:44:19Z</time>
      </trkpt>
      <trkpt lat="42.96414" lon="0.30695">
        <ele>1401.3</ele>
        <time>2026-07-07T06:44:20Z</time>
      </trkpt>
      <trkpt lat="42.96414" lon="0.30696">
        <ele>1401.3</ele>
        <time>2026-07-07T06:44:20Z</time>
      </trkpt>
      <trkpt lat="42.96414" lon="0.30697">
        <ele>1401.3</ele>
        <time>2026-07-07T06:44:21Z</time>
      </trkpt>
      <trkpt lat="42.96414" lon="0.30697">
        <ele>1401.3</ele>
        <time>2026-07-07T06:44:21Z</time>
      </trkpt>
      <trkpt lat="42.96414" lon="0.30699">
        <ele>1401.3</ele>
        <time>2026-07-07T06:44:22Z</time>
      </trkpt>
      <trkpt lat="42.96414" lon="0.30699">
        <ele>1402.3</ele>
        <time>2026-07-07T06:44:23Z</time>
      </trkpt>
      <trkpt lat="42.96414" lon="0.307">
        <ele>1402.3</ele>
        <time>2026-07-07T06:44:23Z</time>
      </trkpt>
      <trkpt lat="42.96414" lon="0.30701">
        <ele>1402.3</ele>
        <time>2026-07-07T06:44:24Z</time>
      </trkpt>
      <trkpt lat="42.96414" lon="0.30702">
        <ele>1402.3</ele>
        <time>2026-07-07T06:44:24Z</time>
      </trkpt>
      <trkpt lat="42.96414" lon="0.30703">
        <ele>1402.3</ele>
        <time>2026-07-07T06:44:25Z</time>
      </trkpt>
      <trkpt lat="42.96414" lon="0.30704">
        <ele>1402.3</ele>
        <time>2026-07-07T06:44:25Z</time>
      </trkpt>
      <trkpt lat="42.96414" lon="0.30705">
        <ele>1402.3</ele>
        <time>2026-07-07T06:44:26Z</time>
      </trkpt>
      <trkpt lat="42.96414" lon="0.30705">
        <ele>1402.3</ele>
        <time>2026-07-07T06:44:27Z</time>
      </trkpt>
      <trkpt lat="42.96414" lon="0.30706">
        <ele>1403.3</ele>
        <time>2026-07-07T06:44:27Z</time>
      </trkpt>
      <trkpt lat="42.96414" lon="0.30707">
        <ele>1403.3</ele>
        <time>2026-07-07T06:44:28Z</time>
      </trkpt>
      <trkpt lat="42.96414" lon="0.30708">
        <ele>1403.3</ele>
        <time>2026-07-07T06:44:28Z</time>
      </trkpt>
      <trkpt lat="42.96414" lon="0.30709">
        <ele>1403.3</ele>
        <time>2026-07-07T06:44:29Z</time>
      </trkpt>
      <trkpt lat="42.96414" lon="0.3071">
        <ele>1403.3</ele>
        <time>2026-07-07T06:44:30Z</time>
      </trkpt>
      <trkpt lat="42.96414" lon="0.30711">
        <ele>1403.3</ele>
        <time>2026-07-07T06:44:31Z</time>
      </trkpt>
      <trkpt lat="42.96415" lon="0.30711">
        <ele>1403.3</ele>
        <time>2026-07-07T06:44:31Z</time>
      </trkpt>
      <trkpt lat="42.96415" lon="0.30712">
        <ele>1402.3</ele>
        <time>2026-07-07T06:44:32Z</time>
      </trkpt>
      <trkpt lat="42.96416" lon="0.30713">
        <ele>1402.3</ele>
        <time>2026-07-07T06:44:33Z</time>
      </trkpt>
      <trkpt lat="42.96416" lon="0.30713">
        <ele>1403.3</ele>
        <time>2026-07-07T06:44:33Z</time>
      </trkpt>
      <trkpt lat="42.96416" lon="0.30713">
        <ele>1403.3</ele>
        <time>2026-07-07T06:44:34Z</time>
      </trkpt>
      <trkpt lat="42.96416" lon="0.30714">
        <ele>1403.3</ele>
        <time>2026-07-07T06:44:35Z</time>
      </trkpt>
      <trkpt lat="42.96417" lon="0.30714">
        <ele>1403.3</ele>
        <time>2026-07-07T06:44:36Z</time>
      </trkpt>
      <trkpt lat="42.96417" lon="0.30714">
        <ele>1403.3</ele>
        <time>2026-07-07T06:44:36Z</time>
      </trkpt>
      <trkpt lat="42.96417" lon="0.30714">
        <ele>1403.3</ele>
        <time>2026-07-07T06:44:37Z</time>
      </trkpt>
      <trkpt lat="42.96417" lon="0.30714">
        <ele>1403.3</ele>
        <time>2026-07-07T06:44:38Z</time>
      </trkpt>
      <trkpt lat="42.96417" lon="0.30714">
        <ele>1405.3</ele>
        <time>2026-07-07T06:44:39Z</time>
      </trkpt>
      <trkpt lat="42.96417" lon="0.30714">
        <ele>1407.3</ele>
        <time>2026-07-07T06:44:40Z</time>
      </trkpt>
      <trkpt lat="42.96417" lon="0.30715">
        <ele>1407.3</ele>
        <time>2026-07-07T06:44:41Z</time>
      </trkpt>
      <trkpt lat="42.96417" lon="0.30715">
        <ele>1407.3</ele>
        <time>2026-07-07T06:44:42Z</time>
      </trkpt>
      <trkpt lat="42.96418" lon="0.30716">
        <ele>1408.3</ele>
        <time>2026-07-07T06:44:43Z</time>
      </trkpt>
      <trkpt lat="42.96418" lon="0.30716">
        <ele>1408.3</ele>
        <time>2026-07-07T06:44:43Z</time>
      </trkpt>
      <trkpt lat="42.96418" lon="0.30718">
        <ele>1408.3</ele>
        <time>2026-07-07T06:44:44Z</time>
      </trkpt>
      <trkpt lat="42.96418" lon="0.30719">
        <ele>1408.3</ele>
        <time>2026-07-07T06:44:44Z</time>
      </trkpt>
      <trkpt lat="42.96418" lon="0.3072">
        <ele>1408.3</ele>
        <time>2026-07-07T06:44:45Z</time>
      </trkpt>
      <trkpt lat="42.96418" lon="0.30722">
        <ele>1408.3</ele>
        <time>2026-07-07T06:44:45Z</time>
      </trkpt>
      <trkpt lat="42.96418" lon="0.30722">
        <ele>1408.3</ele>
        <time>2026-07-07T06:44:46Z</time>
      </trkpt>
      <trkpt lat="42.96418" lon="0.30724">
        <ele>1408.3</ele>
        <time>2026-07-07T06:44:47Z</time>
      </trkpt>
      <trkpt lat="42.96418" lon="0.30725">
        <ele>1408.3</ele>
        <time>2026-07-07T06:44:47Z</time>
      </trkpt>
      <trkpt lat="42.96418" lon="0.30726">
        <ele>1408.3</ele>
        <time>2026-07-07T06:44:48Z</time>
      </trkpt>
      <trkpt lat="42.96418" lon="0.30727">
        <ele>1408.3</ele>
        <time>2026-07-07T06:44:48Z</time>
      </trkpt>
      <trkpt lat="42.96418" lon="0.30729">
        <ele>1408.3</ele>
        <time>2026-07-07T06:44:49Z</time>
      </trkpt>
      <trkpt lat="42.96418" lon="0.3073">
        <ele>1408.3</ele>
        <time>2026-07-07T06:44:50Z</time>
      </trkpt>
      <trkpt lat="42.96418" lon="0.30731">
        <ele>1408.3</ele>
        <time>2026-07-07T06:44:50Z</time>
      </trkpt>
      <trkpt lat="42.96418" lon="0.30732">
        <ele>1408.3</ele>
        <time>2026-07-07T06:44:51Z</time>
      </trkpt>
      <trkpt lat="42.96418" lon="0.30733">
        <ele>1408.3</ele>
        <time>2026-07-07T06:44:51Z</time>
      </trkpt>
      <trkpt lat="42.96418" lon="0.30734">
        <ele>1408.3</ele>
        <time>2026-07-07T06:44:52Z</time>
      </trkpt>
      <trkpt lat="42.96418" lon="0.30736">
        <ele>1408.3</ele>
        <time>2026-07-07T06:44:53Z</time>
      </trkpt>
      <trkpt lat="42.96417" lon="0.30737">
        <ele>1408.3</ele>
        <time>2026-07-07T06:44:53Z</time>
      </trkpt>
      <trkpt lat="42.96417" lon="0.30738">
        <ele>1408.3</ele>
        <time>2026-07-07T06:44:54Z</time>
      </trkpt>
      <trkpt lat="42.96417" lon="0.30739">
        <ele>1408.3</ele>
        <time>2026-07-07T06:44:55Z</time>
      </trkpt>
      <trkpt lat="42.96417" lon="0.3074">
        <ele>1408.3</ele>
        <time>2026-07-07T06:44:55Z</time>
      </trkpt>
      <trkpt lat="42.96417" lon="0.30741">
        <ele>1408.3</ele>
        <time>2026-07-07T06:44:56Z</time>
      </trkpt>
      <trkpt lat="42.96416" lon="0.30741">
        <ele>1408.3</ele>
        <time>2026-07-07T06:44:56Z</time>
      </trkpt>
      <trkpt lat="42.96416" lon="0.30742">
        <ele>1408.3</ele>
        <time>2026-07-07T06:44:57Z</time>
      </trkpt>
      <trkpt lat="42.96415" lon="0.30743">
        <ele>1408.3</ele>
        <time>2026-07-07T06:44:57Z</time>
      </trkpt>
      <trkpt lat="42.96415" lon="0.30744">
        <ele>1408.3</ele>
        <time>2026-07-07T06:44:58Z</time>
      </trkpt>
      <trkpt lat="42.96415" lon="0.30744">
        <ele>1408.3</ele>
        <time>2026-07-07T06:44:59Z</time>
      </trkpt>
      <trkpt lat="42.96415" lon="0.30745">
        <ele>1408.3</ele>
        <time>2026-07-07T06:44:59Z</time>
      </trkpt>
      <trkpt lat="42.96414" lon="0.30746">
        <ele>1408.3</ele>
        <time>2026-07-07T06:45:00Z</time>
      </trkpt>
      <trkpt lat="42.96414" lon="0.30747">
        <ele>1408.3</ele>
        <time>2026-07-07T06:45:01Z</time>
      </trkpt>
      <trkpt lat="42.96414" lon="0.30747">
        <ele>1408.3</ele>
        <time>2026-07-07T06:45:01Z</time>
      </trkpt>
      <trkpt lat="42.96413" lon="0.30748">
        <ele>1408.3</ele>
        <time>2026-07-07T06:45:02Z</time>
      </trkpt>
      <trkpt lat="42.96413" lon="0.30749">
        <ele>1408.3</ele>
        <time>2026-07-07T06:45:02Z</time>
      </trkpt>
      <trkpt lat="42.96413" lon="0.3075">
        <ele>1408.3</ele>
        <time>2026-07-07T06:45:03Z</time>
      </trkpt>
      <trkpt lat="42.96412" lon="0.30751">
        <ele>1408.3</ele>
        <time>2026-07-07T06:45:03Z</time>
      </trkpt>
      <trkpt lat="42.96412" lon="0.30751">
        <ele>1408.3</ele>
        <time>2026-07-07T06:45:04Z</time>
      </trkpt>
      <trkpt lat="42.96412" lon="0.30752">
        <ele>1408.3</ele>
        <time>2026-07-07T06:45:05Z</time>
      </trkpt>
      <trkpt lat="42.96411" lon="0.30753">
        <ele>1408.3</ele>
        <time>2026-07-07T06:45:05Z</time>
      </trkpt>
      <trkpt lat="42.9641" lon="0.30753">
        <ele>1408.3</ele>
        <time>2026-07-07T06:45:06Z</time>
      </trkpt>
      <trkpt lat="42.9641" lon="0.30754">
        <ele>1408.3</ele>
        <time>2026-07-07T06:45:07Z</time>
      </trkpt>
      <trkpt lat="42.96409" lon="0.30756">
        <ele>1409.3</ele>
        <time>2026-07-07T06:45:08Z</time>
      </trkpt>
      <trkpt lat="42.96408" lon="0.30756">
        <ele>1409.3</ele>
        <time>2026-07-07T06:45:09Z</time>
      </trkpt>
      <trkpt lat="42.96408" lon="0.30757">
        <ele>1409.3</ele>
        <time>2026-07-07T06:45:09Z</time>
      </trkpt>
      <trkpt lat="42.96408" lon="0.30758">
        <ele>1409.3</ele>
        <time>2026-07-07T06:45:10Z</time>
      </trkpt>
      <trkpt lat="42.96407" lon="0.30758">
        <ele>1409.3</ele>
        <time>2026-07-07T06:45:11Z</time>
      </trkpt>
      <trkpt lat="42.96407" lon="0.30759">
        <ele>1409.3</ele>
        <time>2026-07-07T06:45:11Z</time>
      </trkpt>
      <trkpt lat="42.96406" lon="0.3076">
        <ele>1409.3</ele>
        <time>2026-07-07T06:45:12Z</time>
      </trkpt>
      <trkpt lat="42.96406" lon="0.3076">
        <ele>1409.3</ele>
        <time>2026-07-07T06:45:12Z</time>
      </trkpt>
      <trkpt lat="42.96405" lon="0.30761">
        <ele>1409.3</ele>
        <time>2026-07-07T06:45:13Z</time>
      </trkpt>
      <trkpt lat="42.96404" lon="0.30762">
        <ele>1409.3</ele>
        <time>2026-07-07T06:45:14Z</time>
      </trkpt>
      <trkpt lat="42.96404" lon="0.30762">
        <ele>1409.3</ele>
        <time>2026-07-07T06:45:15Z</time>
      </trkpt>
      <trkpt lat="42.96403" lon="0.30763">
        <ele>1409.3</ele>
        <time>2026-07-07T06:45:15Z</time>
      </trkpt>
      <trkpt lat="42.96403" lon="0.30764">
        <ele>1409.3</ele>
        <time>2026-07-07T06:45:16Z</time>
      </trkpt>
      <trkpt lat="42.96402" lon="0.30764">
        <ele>1410.3</ele>
        <time>2026-07-07T06:45:16Z</time>
      </trkpt>
      <trkpt lat="42.96402" lon="0.30765">
        <ele>1410.3</ele>
        <time>2026-07-07T06:45:17Z</time>
      </trkpt>
      <trkpt lat="42.96401" lon="0.30765">
        <ele>1410.3</ele>
        <time>2026-07-07T06:45:18Z</time>
      </trkpt>
      <trkpt lat="42.96401" lon="0.30766">
        <ele>1410.3</ele>
        <time>2026-07-07T06:45:18Z</time>
      </trkpt>
      <trkpt lat="42.964" lon="0.30766">
        <ele>1410.3</ele>
        <time>2026-07-07T06:45:19Z</time>
      </trkpt>
      <trkpt lat="42.96399" lon="0.30767">
        <ele>1411.3</ele>
        <time>2026-07-07T06:45:20Z</time>
      </trkpt>
      <trkpt lat="42.96399" lon="0.30768">
        <ele>1410.3</ele>
        <time>2026-07-07T06:45:20Z</time>
      </trkpt>
      <trkpt lat="42.96398" lon="0.30768">
        <ele>1410.3</ele>
        <time>2026-07-07T06:45:21Z</time>
      </trkpt>
      <trkpt lat="42.96398" lon="0.30768">
        <ele>1410.3</ele>
        <time>2026-07-07T06:45:22Z</time>
      </trkpt>
      <trkpt lat="42.96397" lon="0.30769">
        <ele>1410.3</ele>
        <time>2026-07-07T06:45:22Z</time>
      </trkpt>
      <trkpt lat="42.96397" lon="0.30769">
        <ele>1410.3</ele>
        <time>2026-07-07T06:45:23Z</time>
      </trkpt>
      <trkpt lat="42.96396" lon="0.3077">
        <ele>1410.3</ele>
        <time>2026-07-07T06:45:24Z</time>
      </trkpt>
      <trkpt lat="42.96396" lon="0.3077">
        <ele>1410.3</ele>
        <time>2026-07-07T06:45:24Z</time>
      </trkpt>
      <trkpt lat="42.96395" lon="0.30771">
        <ele>1410.3</ele>
        <time>2026-07-07T06:45:25Z</time>
      </trkpt>
      <trkpt lat="42.96394" lon="0.30771">
        <ele>1410.3</ele>
        <time>2026-07-07T06:45:26Z</time>
      </trkpt>
      <trkpt lat="42.96394" lon="0.30772">
        <ele>1409.3</ele>
        <time>2026-07-07T06:45:26Z</time>
      </trkpt>
      <trkpt lat="42.96393" lon="0.30772">
        <ele>1409.3</ele>
        <time>2026-07-07T06:45:27Z</time>
      </trkpt>
      <trkpt lat="42.96393" lon="0.30772">
        <ele>1409.3</ele>
        <time>2026-07-07T06:45:27Z</time>
      </trkpt>
      <trkpt lat="42.96392" lon="0.30773">
        <ele>1409.3</ele>
        <time>2026-07-07T06:45:28Z</time>
      </trkpt>
      <trkpt lat="42.96391" lon="0.30773">
        <ele>1409.3</ele>
        <time>2026-07-07T06:45:29Z</time>
      </trkpt>
      <trkpt lat="42.9639" lon="0.30773">
        <ele>1409.3</ele>
        <time>2026-07-07T06:45:30Z</time>
      </trkpt>
      <trkpt lat="42.96389" lon="0.30774">
        <ele>1409.3</ele>
        <time>2026-07-07T06:45:31Z</time>
      </trkpt>
      <trkpt lat="42.96388" lon="0.30774">
        <ele>1410.3</ele>
        <time>2026-07-07T06:45:31Z</time>
      </trkpt>
      <trkpt lat="42.96388" lon="0.30775">
        <ele>1410.3</ele>
        <time>2026-07-07T06:45:32Z</time>
      </trkpt>
      <trkpt lat="42.96387" lon="0.30775">
        <ele>1410.3</ele>
        <time>2026-07-07T06:45:33Z</time>
      </trkpt>
      <trkpt lat="42.96387" lon="0.30776">
        <ele>1410.3</ele>
        <time>2026-07-07T06:45:33Z</time>
      </trkpt>
      <trkpt lat="42.96386" lon="0.30776">
        <ele>1410.3</ele>
        <time>2026-07-07T06:45:34Z</time>
      </trkpt>
      <trkpt lat="42.96385" lon="0.30776">
        <ele>1411.3</ele>
        <time>2026-07-07T06:45:34Z</time>
      </trkpt>
      <trkpt lat="42.96384" lon="0.30777">
        <ele>1411.3</ele>
        <time>2026-07-07T06:45:35Z</time>
      </trkpt>
      <trkpt lat="42.96384" lon="0.30778">
        <ele>1411.3</ele>
        <time>2026-07-07T06:45:36Z</time>
      </trkpt>
      <trkpt lat="42.96383" lon="0.30779">
        <ele>1410.3</ele>
        <time>2026-07-07T06:45:36Z</time>
      </trkpt>
      <trkpt lat="42.96383" lon="0.3078">
        <ele>1410.3</ele>
        <time>2026-07-07T06:45:37Z</time>
      </trkpt>
      <trkpt lat="42.96384" lon="0.30781">
        <ele>1410.3</ele>
        <time>2026-07-07T06:45:38Z</time>
      </trkpt>
      <trkpt lat="42.96383" lon="0.30782">
        <ele>1410.3</ele>
        <time>2026-07-07T06:45:38Z</time>
      </trkpt>
      <trkpt lat="42.96383" lon="0.30782">
        <ele>1410.3</ele>
        <time>2026-07-07T06:45:39Z</time>
      </trkpt>
      <trkpt lat="42.96382" lon="0.30784">
        <ele>1410.3</ele>
        <time>2026-07-07T06:45:40Z</time>
      </trkpt>
      <trkpt lat="42.96381" lon="0.30784">
        <ele>1410.3</ele>
        <time>2026-07-07T06:45:41Z</time>
      </trkpt>
      <trkpt lat="42.9638" lon="0.30784">
        <ele>1410.3</ele>
        <time>2026-07-07T06:45:41Z</time>
      </trkpt>
      <trkpt lat="42.96379" lon="0.30784">
        <ele>1410.3</ele>
        <time>2026-07-07T06:45:42Z</time>
      </trkpt>
      <trkpt lat="42.96378" lon="0.30784">
        <ele>1410.3</ele>
        <time>2026-07-07T06:45:42Z</time>
      </trkpt>
      <trkpt lat="42.96377" lon="0.30784">
        <ele>1410.3</ele>
        <time>2026-07-07T06:45:43Z</time>
      </trkpt>
      <trkpt lat="42.96376" lon="0.30785">
        <ele>1409.3</ele>
        <time>2026-07-07T06:45:43Z</time>
      </trkpt>
      <trkpt lat="42.96376" lon="0.30785">
        <ele>1409.3</ele>
        <time>2026-07-07T06:45:44Z</time>
      </trkpt>
      <trkpt lat="42.96375" lon="0.30785">
        <ele>1409.3</ele>
        <time>2026-07-07T06:45:44Z</time>
      </trkpt>
      <trkpt lat="42.96374" lon="0.30786">
        <ele>1410.3</ele>
        <time>2026-07-07T06:45:45Z</time>
      </trkpt>
      <trkpt lat="42.96373" lon="0.30786">
        <ele>1410.3</ele>
        <time>2026-07-07T06:45:46Z</time>
      </trkpt>
      <trkpt lat="42.96372" lon="0.30787">
        <ele>1409.3</ele>
        <time>2026-07-07T06:45:46Z</time>
      </trkpt>
      <trkpt lat="42.96371" lon="0.30787">
        <ele>1410.3</ele>
        <time>2026-07-07T06:45:47Z</time>
      </trkpt>
      <trkpt lat="42.9637" lon="0.30788">
        <ele>1410.3</ele>
        <time>2026-07-07T06:45:48Z</time>
      </trkpt>
      <trkpt lat="42.96369" lon="0.30788">
        <ele>1410.3</ele>
        <time>2026-07-07T06:45:49Z</time>
      </trkpt>
      <trkpt lat="42.96369" lon="0.30788">
        <ele>1410.3</ele>
        <time>2026-07-07T06:45:49Z</time>
      </trkpt>
      <trkpt lat="42.96368" lon="0.30788">
        <ele>1410.3</ele>
        <time>2026-07-07T06:45:50Z</time>
      </trkpt>
      <trkpt lat="42.96367" lon="0.30788">
        <ele>1410.3</ele>
        <time>2026-07-07T06:45:50Z</time>
      </trkpt>
      <trkpt lat="42.96367" lon="0.30788">
        <ele>1410.3</ele>
        <time>2026-07-07T06:45:51Z</time>
      </trkpt>
      <trkpt lat="42.96366" lon="0.30789">
        <ele>1410.3</ele>
        <time>2026-07-07T06:45:51Z</time>
      </trkpt>
      <trkpt lat="42.96365" lon="0.30789">
        <ele>1410.3</ele>
        <time>2026-07-07T06:45:52Z</time>
      </trkpt>
      <trkpt lat="42.96365" lon="0.30789">
        <ele>1410.3</ele>
        <time>2026-07-07T06:45:52Z</time>
      </trkpt>
      <trkpt lat="42.96364" lon="0.3079">
        <ele>1410.3</ele>
        <time>2026-07-07T06:45:53Z</time>
      </trkpt>
      <trkpt lat="42.96364" lon="0.3079">
        <ele>1410.3</ele>
        <time>2026-07-07T06:45:53Z</time>
      </trkpt>
      <trkpt lat="42.96363" lon="0.3079">
        <ele>1410.3</ele>
        <time>2026-07-07T06:45:54Z</time>
      </trkpt>
      <trkpt lat="42.96362" lon="0.3079">
        <ele>1409.3</ele>
        <time>2026-07-07T06:45:55Z</time>
      </trkpt>
      <trkpt lat="42.96362" lon="0.3079">
        <ele>1409.3</ele>
        <time>2026-07-07T06:45:55Z</time>
      </trkpt>
      <trkpt lat="42.96361" lon="0.3079">
        <ele>1409.3</ele>
        <time>2026-07-07T06:45:56Z</time>
      </trkpt>
      <trkpt lat="42.9636" lon="0.30791">
        <ele>1409.3</ele>
        <time>2026-07-07T06:45:56Z</time>
      </trkpt>
      <trkpt lat="42.9636" lon="0.30791">
        <ele>1409.3</ele>
        <time>2026-07-07T06:45:57Z</time>
      </trkpt>
      <trkpt lat="42.96359" lon="0.30791">
        <ele>1409.3</ele>
        <time>2026-07-07T06:45:57Z</time>
      </trkpt>
      <trkpt lat="42.96358" lon="0.30791">
        <ele>1409.3</ele>
        <time>2026-07-07T06:45:58Z</time>
      </trkpt>
      <trkpt lat="42.96357" lon="0.30791">
        <ele>1410.3</ele>
        <time>2026-07-07T06:45:59Z</time>
      </trkpt>
      <trkpt lat="42.96357" lon="0.30791">
        <ele>1410.3</ele>
        <time>2026-07-07T06:45:59Z</time>
      </trkpt>
      <trkpt lat="42.96356" lon="0.30791">
        <ele>1410.3</ele>
        <time>2026-07-07T06:46:00Z</time>
      </trkpt>
      <trkpt lat="42.96356" lon="0.30791">
        <ele>1410.3</ele>
        <time>2026-07-07T06:46:00Z</time>
      </trkpt>
      <trkpt lat="42.96355" lon="0.30791">
        <ele>1410.3</ele>
        <time>2026-07-07T06:46:01Z</time>
      </trkpt>
      <trkpt lat="42.96355" lon="0.30791">
        <ele>1410.3</ele>
        <time>2026-07-07T06:46:01Z</time>
      </trkpt>
      <trkpt lat="42.96354" lon="0.30792">
        <ele>1410.3</ele>
        <time>2026-07-07T06:46:02Z</time>
      </trkpt>
      <trkpt lat="42.96353" lon="0.30792">
        <ele>1410.3</ele>
        <time>2026-07-07T06:46:02Z</time>
      </trkpt>
      <trkpt lat="42.96353" lon="0.30792">
        <ele>1410.3</ele>
        <time>2026-07-07T06:46:03Z</time>
      </trkpt>
      <trkpt lat="42.96352" lon="0.30792">
        <ele>1410.3</ele>
        <time>2026-07-07T06:46:03Z</time>
      </trkpt>
      <trkpt lat="42.96351" lon="0.30792">
        <ele>1410.3</ele>
        <time>2026-07-07T06:46:04Z</time>
      </trkpt>
      <trkpt lat="42.96351" lon="0.30793">
        <ele>1410.3</ele>
        <time>2026-07-07T06:46:05Z</time>
      </trkpt>
      <trkpt lat="42.9635" lon="0.30793">
        <ele>1410.3</ele>
        <time>2026-07-07T06:46:05Z</time>
      </trkpt>
      <trkpt lat="42.9635" lon="0.30794">
        <ele>1411.3</ele>
        <time>2026-07-07T06:46:06Z</time>
      </trkpt>
      <trkpt lat="42.96349" lon="0.30794">
        <ele>1411.3</ele>
        <time>2026-07-07T06:46:06Z</time>
      </trkpt>
      <trkpt lat="42.96349" lon="0.30794">
        <ele>1411.3</ele>
        <time>2026-07-07T06:46:07Z</time>
      </trkpt>
      <trkpt lat="42.96348" lon="0.30795">
        <ele>1411.3</ele>
        <time>2026-07-07T06:46:07Z</time>
      </trkpt>
      <trkpt lat="42.96348" lon="0.30795">
        <ele>1411.3</ele>
        <time>2026-07-07T06:46:08Z</time>
      </trkpt>
      <trkpt lat="42.96347" lon="0.30796">
        <ele>1410.3</ele>
        <time>2026-07-07T06:46:09Z</time>
      </trkpt>
      <trkpt lat="42.96347" lon="0.30796">
        <ele>1410.3</ele>
        <time>2026-07-07T06:46:09Z</time>
      </trkpt>
      <trkpt lat="42.96346" lon="0.30796">
        <ele>1410.3</ele>
        <time>2026-07-07T06:46:10Z</time>
      </trkpt>
      <trkpt lat="42.96346" lon="0.30797">
        <ele>1410.3</ele>
        <time>2026-07-07T06:46:10Z</time>
      </trkpt>
      <trkpt lat="42.96345" lon="0.30797">
        <ele>1410.3</ele>
        <time>2026-07-07T06:46:11Z</time>
      </trkpt>
      <trkpt lat="42.96345" lon="0.30797">
        <ele>1410.3</ele>
        <time>2026-07-07T06:46:11Z</time>
      </trkpt>
      <trkpt lat="42.96344" lon="0.30798">
        <ele>1410.3</ele>
        <time>2026-07-07T06:46:12Z</time>
      </trkpt>
      <trkpt lat="42.96343" lon="0.30798">
        <ele>1409.3</ele>
        <time>2026-07-07T06:46:12Z</time>
      </trkpt>
      <trkpt lat="42.96343" lon="0.30799">
        <ele>1409.3</ele>
        <time>2026-07-07T06:46:13Z</time>
      </trkpt>
      <trkpt lat="42.96342" lon="0.30799">
        <ele>1409.3</ele>
        <time>2026-07-07T06:46:14Z</time>
      </trkpt>
      <trkpt lat="42.96341" lon="0.308">
        <ele>1409.3</ele>
        <time>2026-07-07T06:46:14Z</time>
      </trkpt>
      <trkpt lat="42.96341" lon="0.30801">
        <ele>1409.3</ele>
        <time>2026-07-07T06:46:15Z</time>
      </trkpt>
      <trkpt lat="42.9634" lon="0.30802">
        <ele>1410.3</ele>
        <time>2026-07-07T06:46:16Z</time>
      </trkpt>
      <trkpt lat="42.96339" lon="0.30803">
        <ele>1410.3</ele>
        <time>2026-07-07T06:46:16Z</time>
      </trkpt>
      <trkpt lat="42.96339" lon="0.30803">
        <ele>1410.3</ele>
        <time>2026-07-07T06:46:17Z</time>
      </trkpt>
      <trkpt lat="42.96338" lon="0.30804">
        <ele>1410.3</ele>
        <time>2026-07-07T06:46:18Z</time>
      </trkpt>
      <trkpt lat="42.96338" lon="0.30805">
        <ele>1410.3</ele>
        <time>2026-07-07T06:46:18Z</time>
      </trkpt>
      <trkpt lat="42.96337" lon="0.30805">
        <ele>1410.3</ele>
        <time>2026-07-07T06:46:19Z</time>
      </trkpt>
      <trkpt lat="42.96337" lon="0.30806">
        <ele>1410.3</ele>
        <time>2026-07-07T06:46:19Z</time>
      </trkpt>
      <trkpt lat="42.96336" lon="0.30807">
        <ele>1410.3</ele>
        <time>2026-07-07T06:46:20Z</time>
      </trkpt>
      <trkpt lat="42.96335" lon="0.30807">
        <ele>1410.3</ele>
        <time>2026-07-07T06:46:20Z</time>
      </trkpt>
      <trkpt lat="42.96335" lon="0.30808">
        <ele>1410.3</ele>
        <time>2026-07-07T06:46:21Z</time>
      </trkpt>
      <trkpt lat="42.96334" lon="0.30808">
        <ele>1410.3</ele>
        <time>2026-07-07T06:46:21Z</time>
      </trkpt>
      <trkpt lat="42.96334" lon="0.30809">
        <ele>1410.3</ele>
        <time>2026-07-07T06:46:22Z</time>
      </trkpt>
      <trkpt lat="42.96333" lon="0.30809">
        <ele>1410.3</ele>
        <time>2026-07-07T06:46:22Z</time>
      </trkpt>
      <trkpt lat="42.96332" lon="0.3081">
        <ele>1410.3</ele>
        <time>2026-07-07T06:46:23Z</time>
      </trkpt>
      <trkpt lat="42.96332" lon="0.3081">
        <ele>1410.3</ele>
        <time>2026-07-07T06:46:24Z</time>
      </trkpt>
      <trkpt lat="42.96331" lon="0.30811">
        <ele>1410.3</ele>
        <time>2026-07-07T06:46:24Z</time>
      </trkpt>
      <trkpt lat="42.96331" lon="0.30811">
        <ele>1410.3</ele>
        <time>2026-07-07T06:46:25Z</time>
      </trkpt>
      <trkpt lat="42.9633" lon="0.30812">
        <ele>1410.3</ele>
        <time>2026-07-07T06:46:25Z</time>
      </trkpt>
      <trkpt lat="42.9633" lon="0.30812">
        <ele>1410.3</ele>
        <time>2026-07-07T06:46:26Z</time>
      </trkpt>
      <trkpt lat="42.96329" lon="0.30813">
        <ele>1410.3</ele>
        <time>2026-07-07T06:46:26Z</time>
      </trkpt>
      <trkpt lat="42.96329" lon="0.30813">
        <ele>1410.3</ele>
        <time>2026-07-07T06:46:27Z</time>
      </trkpt>
      <trkpt lat="42.96328" lon="0.30814">
        <ele>1410.3</ele>
        <time>2026-07-07T06:46:28Z</time>
      </trkpt>
      <trkpt lat="42.96327" lon="0.30814">
        <ele>1410.3</ele>
        <time>2026-07-07T06:46:28Z</time>
      </trkpt>
      <trkpt lat="42.96327" lon="0.30815">
        <ele>1410.3</ele>
        <time>2026-07-07T06:46:29Z</time>
      </trkpt>
      <trkpt lat="42.96326" lon="0.30815">
        <ele>1410.3</ele>
        <time>2026-07-07T06:46:29Z</time>
      </trkpt>
      <trkpt lat="42.96326" lon="0.30816">
        <ele>1410.3</ele>
        <time>2026-07-07T06:46:30Z</time>
      </trkpt>
      <trkpt lat="42.96325" lon="0.30816">
        <ele>1410.3</ele>
        <time>2026-07-07T06:46:30Z</time>
      </trkpt>
      <trkpt lat="42.96324" lon="0.30817">
        <ele>1410.3</ele>
        <time>2026-07-07T06:46:31Z</time>
      </trkpt>
      <trkpt lat="42.96324" lon="0.30818">
        <ele>1410.3</ele>
        <time>2026-07-07T06:46:31Z</time>
      </trkpt>
      <trkpt lat="42.96323" lon="0.30818">
        <ele>1410.3</ele>
        <time>2026-07-07T06:46:32Z</time>
      </trkpt>
      <trkpt lat="42.96323" lon="0.30819">
        <ele>1410.3</ele>
        <time>2026-07-07T06:46:32Z</time>
      </trkpt>
      <trkpt lat="42.96322" lon="0.30819">
        <ele>1410.3</ele>
        <time>2026-07-07T06:46:33Z</time>
      </trkpt>
      <trkpt lat="42.96321" lon="0.3082">
        <ele>1410.3</ele>
        <time>2026-07-07T06:46:34Z</time>
      </trkpt>
      <trkpt lat="42.96321" lon="0.30821">
        <ele>1410.3</ele>
        <time>2026-07-07T06:46:34Z</time>
      </trkpt>
      <trkpt lat="42.9632" lon="0.30821">
        <ele>1410.3</ele>
        <time>2026-07-07T06:46:35Z</time>
      </trkpt>
      <trkpt lat="42.9632" lon="0.30822">
        <ele>1411.3</ele>
        <time>2026-07-07T06:46:35Z</time>
      </trkpt>
      <trkpt lat="42.96319" lon="0.30823">
        <ele>1411.3</ele>
        <time>2026-07-07T06:46:36Z</time>
      </trkpt>
      <trkpt lat="42.96319" lon="0.30823">
        <ele>1411.3</ele>
        <time>2026-07-07T06:46:36Z</time>
      </trkpt>
      <trkpt lat="42.96318" lon="0.30824">
        <ele>1411.3</ele>
        <time>2026-07-07T06:46:37Z</time>
      </trkpt>
      <trkpt lat="42.96318" lon="0.30825">
        <ele>1410.3</ele>
        <time>2026-07-07T06:46:38Z</time>
      </trkpt>
      <trkpt lat="42.96317" lon="0.30825">
        <ele>1410.3</ele>
        <time>2026-07-07T06:46:38Z</time>
      </trkpt>
      <trkpt lat="42.96317" lon="0.30826">
        <ele>1410.3</ele>
        <time>2026-07-07T06:46:39Z</time>
      </trkpt>
      <trkpt lat="42.96317" lon="0.30827">
        <ele>1410.3</ele>
        <time>2026-07-07T06:46:39Z</time>
      </trkpt>
      <trkpt lat="42.96316" lon="0.30828">
        <ele>1410.3</ele>
        <time>2026-07-07T06:46:40Z</time>
      </trkpt>
      <trkpt lat="42.96316" lon="0.30828">
        <ele>1410.3</ele>
        <time>2026-07-07T06:46:40Z</time>
      </trkpt>
      <trkpt lat="42.96315" lon="0.30829">
        <ele>1410.3</ele>
        <time>2026-07-07T06:46:41Z</time>
      </trkpt>
      <trkpt lat="42.96315" lon="0.3083">
        <ele>1410.3</ele>
        <time>2026-07-07T06:46:41Z</time>
      </trkpt>
      <trkpt lat="42.96314" lon="0.30831">
        <ele>1410.3</ele>
        <time>2026-07-07T06:46:42Z</time>
      </trkpt>
      <trkpt lat="42.96314" lon="0.30831">
        <ele>1410.3</ele>
        <time>2026-07-07T06:46:42Z</time>
      </trkpt>
      <trkpt lat="42.96313" lon="0.30832">
        <ele>1410.3</ele>
        <time>2026-07-07T06:46:43Z</time>
      </trkpt>
      <trkpt lat="42.96313" lon="0.30833">
        <ele>1410.3</ele>
        <time>2026-07-07T06:46:44Z</time>
      </trkpt>
      <trkpt lat="42.96312" lon="0.30834">
        <ele>1410.3</ele>
        <time>2026-07-07T06:46:44Z</time>
      </trkpt>
      <trkpt lat="42.96312" lon="0.30834">
        <ele>1410.3</ele>
        <time>2026-07-07T06:46:45Z</time>
      </trkpt>
      <trkpt lat="42.96311" lon="0.30835">
        <ele>1410.3</ele>
        <time>2026-07-07T06:46:45Z</time>
      </trkpt>
      <trkpt lat="42.96311" lon="0.30835">
        <ele>1410.3</ele>
        <time>2026-07-07T06:46:46Z</time>
      </trkpt>
      <trkpt lat="42.96311" lon="0.30836">
        <ele>1410.3</ele>
        <time>2026-07-07T06:46:46Z</time>
      </trkpt>
      <trkpt lat="42.9631" lon="0.30837">
        <ele>1410.3</ele>
        <time>2026-07-07T06:46:47Z</time>
      </trkpt>
      <trkpt lat="42.9631" lon="0.30838">
        <ele>1410.3</ele>
        <time>2026-07-07T06:46:47Z</time>
      </trkpt>
      <trkpt lat="42.96309" lon="0.30838">
        <ele>1410.3</ele>
        <time>2026-07-07T06:46:48Z</time>
      </trkpt>
      <trkpt lat="42.96309" lon="0.30839">
        <ele>1410.3</ele>
        <time>2026-07-07T06:46:49Z</time>
      </trkpt>
      <trkpt lat="42.96308" lon="0.3084">
        <ele>1410.3</ele>
        <time>2026-07-07T06:46:49Z</time>
      </trkpt>
      <trkpt lat="42.96308" lon="0.3084">
        <ele>1410.3</ele>
        <time>2026-07-07T06:46:50Z</time>
      </trkpt>
      <trkpt lat="42.96307" lon="0.30841">
        <ele>1410.3</ele>
        <time>2026-07-07T06:46:50Z</time>
      </trkpt>
      <trkpt lat="42.96307" lon="0.30842">
        <ele>1411.3</ele>
        <time>2026-07-07T06:46:51Z</time>
      </trkpt>
      <trkpt lat="42.96306" lon="0.30842">
        <ele>1411.3</ele>
        <time>2026-07-07T06:46:51Z</time>
      </trkpt>
      <trkpt lat="42.96306" lon="0.30843">
        <ele>1411.3</ele>
        <time>2026-07-07T06:46:52Z</time>
      </trkpt>
      <trkpt lat="42.96305" lon="0.30844">
        <ele>1410.3</ele>
        <time>2026-07-07T06:46:52Z</time>
      </trkpt>
      <trkpt lat="42.96305" lon="0.30845">
        <ele>1410.3</ele>
        <time>2026-07-07T06:46:53Z</time>
      </trkpt>
      <trkpt lat="42.96305" lon="0.30845">
        <ele>1410.3</ele>
        <time>2026-07-07T06:46:53Z</time>
      </trkpt>
      <trkpt lat="42.96304" lon="0.30846">
        <ele>1410.3</ele>
        <time>2026-07-07T06:46:54Z</time>
      </trkpt>
      <trkpt lat="42.96304" lon="0.30846">
        <ele>1410.3</ele>
        <time>2026-07-07T06:46:54Z</time>
      </trkpt>
      <trkpt lat="42.96303" lon="0.30847">
        <ele>1410.3</ele>
        <time>2026-07-07T06:46:55Z</time>
      </trkpt>
      <trkpt lat="42.96303" lon="0.30847">
        <ele>1410.3</ele>
        <time>2026-07-07T06:46:56Z</time>
      </trkpt>
      <trkpt lat="42.96303" lon="0.30848">
        <ele>1409.3</ele>
        <time>2026-07-07T06:46:56Z</time>
      </trkpt>
      <trkpt lat="42.96302" lon="0.30849">
        <ele>1409.3</ele>
        <time>2026-07-07T06:46:57Z</time>
      </trkpt>
      <trkpt lat="42.96302" lon="0.30849">
        <ele>1409.3</ele>
        <time>2026-07-07T06:46:57Z</time>
      </trkpt>
      <trkpt lat="42.96302" lon="0.3085">
        <ele>1409.3</ele>
        <time>2026-07-07T06:46:58Z</time>
      </trkpt>
      <trkpt lat="42.96301" lon="0.30851">
        <ele>1410.3</ele>
        <time>2026-07-07T06:46:59Z</time>
      </trkpt>
      <trkpt lat="42.96301" lon="0.30851">
        <ele>1410.3</ele>
        <time>2026-07-07T06:46:59Z</time>
      </trkpt>
      <trkpt lat="42.963" lon="0.30852">
        <ele>1410.3</ele>
        <time>2026-07-07T06:47:00Z</time>
      </trkpt>
      <trkpt lat="42.963" lon="0.30852">
        <ele>1410.3</ele>
        <time>2026-07-07T06:47:00Z</time>
      </trkpt>
      <trkpt lat="42.963" lon="0.30853">
        <ele>1410.3</ele>
        <time>2026-07-07T06:47:01Z</time>
      </trkpt>
      <trkpt lat="42.96299" lon="0.30854">
        <ele>1410.3</ele>
        <time>2026-07-07T06:47:01Z</time>
      </trkpt>
      <trkpt lat="42.96299" lon="0.30854">
        <ele>1410.3</ele>
        <time>2026-07-07T06:47:02Z</time>
      </trkpt>
      <trkpt lat="42.96298" lon="0.30854">
        <ele>1411.3</ele>
        <time>2026-07-07T06:47:02Z</time>
      </trkpt>
      <trkpt lat="42.96298" lon="0.30855">
        <ele>1411.3</ele>
        <time>2026-07-07T06:47:03Z</time>
      </trkpt>
      <trkpt lat="42.96297" lon="0.30856">
        <ele>1411.3</ele>
        <time>2026-07-07T06:47:03Z</time>
      </trkpt>
      <trkpt lat="42.96297" lon="0.30856">
        <ele>1411.3</ele>
        <time>2026-07-07T06:47:04Z</time>
      </trkpt>
      <trkpt lat="42.96297" lon="0.30857">
        <ele>1411.3</ele>
        <time>2026-07-07T06:47:04Z</time>
      </trkpt>
      <trkpt lat="42.96296" lon="0.30858">
        <ele>1411.3</ele>
        <time>2026-07-07T06:47:05Z</time>
      </trkpt>
      <trkpt lat="42.96296" lon="0.30858">
        <ele>1412.3</ele>
        <time>2026-07-07T06:47:06Z</time>
      </trkpt>
      <trkpt lat="42.96295" lon="0.30859">
        <ele>1412.3</ele>
        <time>2026-07-07T06:47:06Z</time>
      </trkpt>
      <trkpt lat="42.96295" lon="0.3086">
        <ele>1412.3</ele>
        <time>2026-07-07T06:47:07Z</time>
      </trkpt>
      <trkpt lat="42.96295" lon="0.30861">
        <ele>1412.3</ele>
        <time>2026-07-07T06:47:07Z</time>
      </trkpt>
      <trkpt lat="42.96294" lon="0.30861">
        <ele>1412.3</ele>
        <time>2026-07-07T06:47:08Z</time>
      </trkpt>
      <trkpt lat="42.96294" lon="0.30862">
        <ele>1412.3</ele>
        <time>2026-07-07T06:47:08Z</time>
      </trkpt>
      <trkpt lat="42.96293" lon="0.30863">
        <ele>1412.3</ele>
        <time>2026-07-07T06:47:09Z</time>
      </trkpt>
      <trkpt lat="42.96293" lon="0.30864">
        <ele>1413.3</ele>
        <time>2026-07-07T06:47:10Z</time>
      </trkpt>
      <trkpt lat="42.96293" lon="0.30865">
        <ele>1413.3</ele>
        <time>2026-07-07T06:47:10Z</time>
      </trkpt>
      <trkpt lat="42.96292" lon="0.30866">
        <ele>1413.3</ele>
        <time>2026-07-07T06:47:11Z</time>
      </trkpt>
      <trkpt lat="42.96292" lon="0.30867">
        <ele>1413.3</ele>
        <time>2026-07-07T06:47:11Z</time>
      </trkpt>
      <trkpt lat="42.96292" lon="0.30867">
        <ele>1413.3</ele>
        <time>2026-07-07T06:47:12Z</time>
      </trkpt>
      <trkpt lat="42.96291" lon="0.30868">
        <ele>1413.3</ele>
        <time>2026-07-07T06:47:12Z</time>
      </trkpt>
      <trkpt lat="42.96291" lon="0.30869">
        <ele>1413.3</ele>
        <time>2026-07-07T06:47:13Z</time>
      </trkpt>
      <trkpt lat="42.96291" lon="0.30869">
        <ele>1413.3</ele>
        <time>2026-07-07T06:47:13Z</time>
      </trkpt>
      <trkpt lat="42.9629" lon="0.3087">
        <ele>1413.3</ele>
        <time>2026-07-07T06:47:14Z</time>
      </trkpt>
      <trkpt lat="42.9629" lon="0.30871">
        <ele>1412.3</ele>
        <time>2026-07-07T06:47:14Z</time>
      </trkpt>
      <trkpt lat="42.9629" lon="0.30872">
        <ele>1412.3</ele>
        <time>2026-07-07T06:47:15Z</time>
      </trkpt>
      <trkpt lat="42.96289" lon="0.30872">
        <ele>1412.3</ele>
        <time>2026-07-07T06:47:15Z</time>
      </trkpt>
      <trkpt lat="42.96289" lon="0.30873">
        <ele>1412.3</ele>
        <time>2026-07-07T06:47:16Z</time>
      </trkpt>
      <trkpt lat="42.96289" lon="0.30875">
        <ele>1412.3</ele>
        <time>2026-07-07T06:47:17Z</time>
      </trkpt>
      <trkpt lat="42.96289" lon="0.30876">
        <ele>1412.3</ele>
        <time>2026-07-07T06:47:18Z</time>
      </trkpt>
      <trkpt lat="42.96289" lon="0.30877">
        <ele>1412.3</ele>
        <time>2026-07-07T06:47:18Z</time>
      </trkpt>
      <trkpt lat="42.96289" lon="0.30878">
        <ele>1412.3</ele>
        <time>2026-07-07T06:47:19Z</time>
      </trkpt>
      <trkpt lat="42.96289" lon="0.30878">
        <ele>1412.3</ele>
        <time>2026-07-07T06:47:19Z</time>
      </trkpt>
      <trkpt lat="42.96289" lon="0.30879">
        <ele>1412.3</ele>
        <time>2026-07-07T06:47:20Z</time>
      </trkpt>
      <trkpt lat="42.96289" lon="0.30881">
        <ele>1411.3</ele>
        <time>2026-07-07T06:47:20Z</time>
      </trkpt>
      <trkpt lat="42.96289" lon="0.30881">
        <ele>1411.3</ele>
        <time>2026-07-07T06:47:21Z</time>
      </trkpt>
      <trkpt lat="42.96289" lon="0.30882">
        <ele>1411.3</ele>
        <time>2026-07-07T06:47:22Z</time>
      </trkpt>
      <trkpt lat="42.96289" lon="0.30883">
        <ele>1411.3</ele>
        <time>2026-07-07T06:47:22Z</time>
      </trkpt>
      <trkpt lat="42.96289" lon="0.30884">
        <ele>1412.3</ele>
        <time>2026-07-07T06:47:23Z</time>
      </trkpt>
      <trkpt lat="42.96289" lon="0.30885">
        <ele>1412.3</ele>
        <time>2026-07-07T06:47:23Z</time>
      </trkpt>
      <trkpt lat="42.9629" lon="0.30886">
        <ele>1412.3</ele>
        <time>2026-07-07T06:47:24Z</time>
      </trkpt>
      <trkpt lat="42.96291" lon="0.30887">
        <ele>1412.3</ele>
        <time>2026-07-07T06:47:25Z</time>
      </trkpt>
      <trkpt lat="42.9629" lon="0.30889">
        <ele>1412.3</ele>
        <time>2026-07-07T06:47:26Z</time>
      </trkpt>
      <trkpt lat="42.9629" lon="0.3089">
        <ele>1413.3</ele>
        <time>2026-07-07T06:47:26Z</time>
      </trkpt>
      <trkpt lat="42.9629" lon="0.30891">
        <ele>1413.3</ele>
        <time>2026-07-07T06:47:27Z</time>
      </trkpt>
      <trkpt lat="42.96291" lon="0.30893">
        <ele>1413.3</ele>
        <time>2026-07-07T06:47:27Z</time>
      </trkpt>
      <trkpt lat="42.96291" lon="0.30894">
        <ele>1413.3</ele>
        <time>2026-07-07T06:47:28Z</time>
      </trkpt>
      <trkpt lat="42.96292" lon="0.30896">
        <ele>1413.3</ele>
        <time>2026-07-07T06:47:29Z</time>
      </trkpt>
      <trkpt lat="42.96292" lon="0.30898">
        <ele>1414.3</ele>
        <time>2026-07-07T06:47:30Z</time>
      </trkpt>
      <trkpt lat="42.96292" lon="0.30899">
        <ele>1415.3</ele>
        <time>2026-07-07T06:47:30Z</time>
      </trkpt>
      <trkpt lat="42.96293" lon="0.309">
        <ele>1415.3</ele>
        <time>2026-07-07T06:47:31Z</time>
      </trkpt>
      <trkpt lat="42.96293" lon="0.30901">
        <ele>1415.3</ele>
        <time>2026-07-07T06:47:31Z</time>
      </trkpt>
      <trkpt lat="42.96293" lon="0.30902">
        <ele>1415.3</ele>
        <time>2026-07-07T06:47:32Z</time>
      </trkpt>
      <trkpt lat="42.96293" lon="0.30904">
        <ele>1415.3</ele>
        <time>2026-07-07T06:47:32Z</time>
      </trkpt>
      <trkpt lat="42.96293" lon="0.30905">
        <ele>1415.3</ele>
        <time>2026-07-07T06:47:33Z</time>
      </trkpt>
      <trkpt lat="42.96293" lon="0.30906">
        <ele>1416.3</ele>
        <time>2026-07-07T06:47:34Z</time>
      </trkpt>
      <trkpt lat="42.96293" lon="0.30907">
        <ele>1416.3</ele>
        <time>2026-07-07T06:47:34Z</time>
      </trkpt>
      <trkpt lat="42.96293" lon="0.30908">
        <ele>1416.3</ele>
        <time>2026-07-07T06:47:35Z</time>
      </trkpt>
      <trkpt lat="42.96294" lon="0.30909">
        <ele>1416.3</ele>
        <time>2026-07-07T06:47:36Z</time>
      </trkpt>
      <trkpt lat="42.96294" lon="0.3091">
        <ele>1416.3</ele>
        <time>2026-07-07T06:47:36Z</time>
      </trkpt>
      <trkpt lat="42.96295" lon="0.30912">
        <ele>1416.3</ele>
        <time>2026-07-07T06:47:37Z</time>
      </trkpt>
      <trkpt lat="42.96295" lon="0.30913">
        <ele>1416.3</ele>
        <time>2026-07-07T06:47:38Z</time>
      </trkpt>
      <trkpt lat="42.96295" lon="0.30913">
        <ele>1416.3</ele>
        <time>2026-07-07T06:47:38Z</time>
      </trkpt>
      <trkpt lat="42.96296" lon="0.30915">
        <ele>1416.3</ele>
        <time>2026-07-07T06:47:39Z</time>
      </trkpt>
      <trkpt lat="42.96297" lon="0.30915">
        <ele>1416.3</ele>
        <time>2026-07-07T06:47:39Z</time>
      </trkpt>
      <trkpt lat="42.96297" lon="0.30916">
        <ele>1416.3</ele>
        <time>2026-07-07T06:47:40Z</time>
      </trkpt>
      <trkpt lat="42.96298" lon="0.30917">
        <ele>1417.3</ele>
        <time>2026-07-07T06:47:41Z</time>
      </trkpt>
      <trkpt lat="42.96298" lon="0.30917">
        <ele>1417.3</ele>
        <time>2026-07-07T06:47:41Z</time>
      </trkpt>
      <trkpt lat="42.96298" lon="0.30918">
        <ele>1418.3</ele>
        <time>2026-07-07T06:47:42Z</time>
      </trkpt>
      <trkpt lat="42.96299" lon="0.30918">
        <ele>1418.3</ele>
        <time>2026-07-07T06:47:42Z</time>
      </trkpt>
      <trkpt lat="42.963" lon="0.30919">
        <ele>1418.3</ele>
        <time>2026-07-07T06:47:43Z</time>
      </trkpt>
      <trkpt lat="42.96301" lon="0.3092">
        <ele>1418.3</ele>
        <time>2026-07-07T06:47:44Z</time>
      </trkpt>
      <trkpt lat="42.96301" lon="0.30921">
        <ele>1418.3</ele>
        <time>2026-07-07T06:47:45Z</time>
      </trkpt>
      <trkpt lat="42.96302" lon="0.30921">
        <ele>1418.3</ele>
        <time>2026-07-07T06:47:45Z</time>
      </trkpt>
      <trkpt lat="42.96302" lon="0.30922">
        <ele>1419.3</ele>
        <time>2026-07-07T06:47:46Z</time>
      </trkpt>
      <trkpt lat="42.96303" lon="0.30922">
        <ele>1419.3</ele>
        <time>2026-07-07T06:47:46Z</time>
      </trkpt>
      <trkpt lat="42.96304" lon="0.30923">
        <ele>1419.3</ele>
        <time>2026-07-07T06:47:47Z</time>
      </trkpt>
      <trkpt lat="42.96304" lon="0.30923">
        <ele>1419.3</ele>
        <time>2026-07-07T06:47:48Z</time>
      </trkpt>
      <trkpt lat="42.96304" lon="0.30924">
        <ele>1419.3</ele>
        <time>2026-07-07T06:47:48Z</time>
      </trkpt>
      <trkpt lat="42.96305" lon="0.30924">
        <ele>1419.3</ele>
        <time>2026-07-07T06:47:49Z</time>
      </trkpt>
      <trkpt lat="42.96305" lon="0.30925">
        <ele>1419.3</ele>
        <time>2026-07-07T06:47:49Z</time>
      </trkpt>
      <trkpt lat="42.96306" lon="0.30926">
        <ele>1419.3</ele>
        <time>2026-07-07T06:47:50Z</time>
      </trkpt>
      <trkpt lat="42.96307" lon="0.30926">
        <ele>1419.3</ele>
        <time>2026-07-07T06:47:51Z</time>
      </trkpt>
      <trkpt lat="42.96307" lon="0.30927">
        <ele>1419.3</ele>
        <time>2026-07-07T06:47:51Z</time>
      </trkpt>
      <trkpt lat="42.96308" lon="0.30928">
        <ele>1418.3</ele>
        <time>2026-07-07T06:47:52Z</time>
      </trkpt>
      <trkpt lat="42.96309" lon="0.30928">
        <ele>1419.3</ele>
        <time>2026-07-07T06:47:53Z</time>
      </trkpt>
      <trkpt lat="42.96309" lon="0.30929">
        <ele>1419.3</ele>
        <time>2026-07-07T06:47:54Z</time>
      </trkpt>
      <trkpt lat="42.9631" lon="0.30929">
        <ele>1419.3</ele>
        <time>2026-07-07T06:47:55Z</time>
      </trkpt>
      <trkpt lat="42.9631" lon="0.3093">
        <ele>1419.3</ele>
        <time>2026-07-07T06:47:56Z</time>
      </trkpt>
      <trkpt lat="42.9631" lon="0.3093">
        <ele>1419.3</ele>
        <time>2026-07-07T06:47:56Z</time>
      </trkpt>
      <trkpt lat="42.96311" lon="0.30931">
        <ele>1419.3</ele>
        <time>2026-07-07T06:47:57Z</time>
      </trkpt>
      <trkpt lat="42.96312" lon="0.30932">
        <ele>1419.3</ele>
        <time>2026-07-07T06:47:58Z</time>
      </trkpt>
      <trkpt lat="42.96312" lon="0.30932">
        <ele>1420.3</ele>
        <time>2026-07-07T06:47:59Z</time>
      </trkpt>
      <trkpt lat="42.96312" lon="0.30933">
        <ele>1420.3</ele>
        <time>2026-07-07T06:47:59Z</time>
      </trkpt>
      <trkpt lat="42.96313" lon="0.30934">
        <ele>1420.3</ele>
        <time>2026-07-07T06:48:00Z</time>
      </trkpt>
      <trkpt lat="42.96313" lon="0.30935">
        <ele>1420.3</ele>
        <time>2026-07-07T06:48:01Z</time>
      </trkpt>
      <trkpt lat="42.96314" lon="0.30935">
        <ele>1420.3</ele>
        <time>2026-07-07T06:48:01Z</time>
      </trkpt>
      <trkpt lat="42.96314" lon="0.30936">
        <ele>1420.3</ele>
        <time>2026-07-07T06:48:02Z</time>
      </trkpt>
      <trkpt lat="42.96314" lon="0.30937">
        <ele>1420.3</ele>
        <time>2026-07-07T06:48:02Z</time>
      </trkpt>
      <trkpt lat="42.96315" lon="0.30939">
        <ele>1421.3</ele>
        <time>2026-07-07T06:48:03Z</time>
      </trkpt>
      <trkpt lat="42.96315" lon="0.3094">
        <ele>1421.3</ele>
        <time>2026-07-07T06:48:04Z</time>
      </trkpt>
      <trkpt lat="42.96316" lon="0.30941">
        <ele>1421.3</ele>
        <time>2026-07-07T06:48:05Z</time>
      </trkpt>
      <trkpt lat="42.96316" lon="0.30942">
        <ele>1421.3</ele>
        <time>2026-07-07T06:48:05Z</time>
      </trkpt>
      <trkpt lat="42.96316" lon="0.30943">
        <ele>1422.3</ele>
        <time>2026-07-07T06:48:06Z</time>
      </trkpt>
      <trkpt lat="42.96316" lon="0.30944">
        <ele>1422.3</ele>
        <time>2026-07-07T06:48:06Z</time>
      </trkpt>
      <trkpt lat="42.96316" lon="0.30945">
        <ele>1422.3</ele>
        <time>2026-07-07T06:48:07Z</time>
      </trkpt>
      <trkpt lat="42.96316" lon="0.30946">
        <ele>1422.3</ele>
        <time>2026-07-07T06:48:08Z</time>
      </trkpt>
      <trkpt lat="42.96317" lon="0.30947">
        <ele>1422.3</ele>
        <time>2026-07-07T06:48:08Z</time>
      </trkpt>
      <trkpt lat="42.96317" lon="0.30947">
        <ele>1422.3</ele>
        <time>2026-07-07T06:48:09Z</time>
      </trkpt>
      <trkpt lat="42.96318" lon="0.30948">
        <ele>1422.3</ele>
        <time>2026-07-07T06:48:09Z</time>
      </trkpt>
      <trkpt lat="42.96319" lon="0.30948">
        <ele>1422.3</ele>
        <time>2026-07-07T06:48:10Z</time>
      </trkpt>
      <trkpt lat="42.9632" lon="0.30949">
        <ele>1422.3</ele>
        <time>2026-07-07T06:48:11Z</time>
      </trkpt>
      <trkpt lat="42.96322" lon="0.30949">
        <ele>1422.3</ele>
        <time>2026-07-07T06:48:12Z</time>
      </trkpt>
      <trkpt lat="42.96322" lon="0.3095">
        <ele>1422.3</ele>
        <time>2026-07-07T06:48:12Z</time>
      </trkpt>
      <trkpt lat="42.96323" lon="0.3095">
        <ele>1421.3</ele>
        <time>2026-07-07T06:48:13Z</time>
      </trkpt>
      <trkpt lat="42.96324" lon="0.30949">
        <ele>1421.3</ele>
        <time>2026-07-07T06:48:13Z</time>
      </trkpt>
      <trkpt lat="42.96325" lon="0.30949">
        <ele>1421.3</ele>
        <time>2026-07-07T06:48:14Z</time>
      </trkpt>
      <trkpt lat="42.96326" lon="0.30949">
        <ele>1421.3</ele>
        <time>2026-07-07T06:48:14Z</time>
      </trkpt>
      <trkpt lat="42.96327" lon="0.3095">
        <ele>1421.3</ele>
        <time>2026-07-07T06:48:15Z</time>
      </trkpt>
      <trkpt lat="42.96327" lon="0.3095">
        <ele>1421.3</ele>
        <time>2026-07-07T06:48:16Z</time>
      </trkpt>
      <trkpt lat="42.96328" lon="0.3095">
        <ele>1421.3</ele>
        <time>2026-07-07T06:48:16Z</time>
      </trkpt>
      <trkpt lat="42.96328" lon="0.3095">
        <ele>1421.3</ele>
        <time>2026-07-07T06:48:17Z</time>
      </trkpt>
      <trkpt lat="42.96329" lon="0.3095">
        <ele>1421.3</ele>
        <time>2026-07-07T06:48:17Z</time>
      </trkpt>
      <trkpt lat="42.9633" lon="0.30951">
        <ele>1421.3</ele>
        <time>2026-07-07T06:48:18Z</time>
      </trkpt>
      <trkpt lat="42.9633" lon="0.30951">
        <ele>1421.3</ele>
        <time>2026-07-07T06:48:19Z</time>
      </trkpt>
      <trkpt lat="42.96331" lon="0.30951">
        <ele>1421.3</ele>
        <time>2026-07-07T06:48:19Z</time>
      </trkpt>
      <trkpt lat="42.96332" lon="0.30952">
        <ele>1421.3</ele>
        <time>2026-07-07T06:48:20Z</time>
      </trkpt>
      <trkpt lat="42.96332" lon="0.30952">
        <ele>1421.3</ele>
        <time>2026-07-07T06:48:20Z</time>
      </trkpt>
      <trkpt lat="42.96333" lon="0.30953">
        <ele>1421.3</ele>
        <time>2026-07-07T06:48:21Z</time>
      </trkpt>
      <trkpt lat="42.96333" lon="0.30953">
        <ele>1422.3</ele>
        <time>2026-07-07T06:48:22Z</time>
      </trkpt>
      <trkpt lat="42.96334" lon="0.30954">
        <ele>1422.3</ele>
        <time>2026-07-07T06:48:22Z</time>
      </trkpt>
      <trkpt lat="42.96334" lon="0.30954">
        <ele>1421.3</ele>
        <time>2026-07-07T06:48:23Z</time>
      </trkpt>
      <trkpt lat="42.96335" lon="0.30955">
        <ele>1421.3</ele>
        <time>2026-07-07T06:48:23Z</time>
      </trkpt>
      <trkpt lat="42.96335" lon="0.30955">
        <ele>1421.3</ele>
        <time>2026-07-07T06:48:24Z</time>
      </trkpt>
      <trkpt lat="42.96336" lon="0.30956">
        <ele>1422.3</ele>
        <time>2026-07-07T06:48:24Z</time>
      </trkpt>
      <trkpt lat="42.96337" lon="0.30956">
        <ele>1422.3</ele>
        <time>2026-07-07T06:48:25Z</time>
      </trkpt>
      <trkpt lat="42.96337" lon="0.30957">
        <ele>1421.3</ele>
        <time>2026-07-07T06:48:26Z</time>
      </trkpt>
      <trkpt lat="42.96338" lon="0.30957">
        <ele>1421.3</ele>
        <time>2026-07-07T06:48:26Z</time>
      </trkpt>
      <trkpt lat="42.96339" lon="0.30957">
        <ele>1422.3</ele>
        <time>2026-07-07T06:48:27Z</time>
      </trkpt>
      <trkpt lat="42.96339" lon="0.30958">
        <ele>1422.3</ele>
        <time>2026-07-07T06:48:27Z</time>
      </trkpt>
      <trkpt lat="42.9634" lon="0.30959">
        <ele>1422.3</ele>
        <time>2026-07-07T06:48:28Z</time>
      </trkpt>
      <trkpt lat="42.9634" lon="0.30959">
        <ele>1422.3</ele>
        <time>2026-07-07T06:48:29Z</time>
      </trkpt>
      <trkpt lat="42.96341" lon="0.3096">
        <ele>1422.3</ele>
        <time>2026-07-07T06:48:29Z</time>
      </trkpt>
      <trkpt lat="42.96341" lon="0.3096">
        <ele>1422.3</ele>
        <time>2026-07-07T06:48:30Z</time>
      </trkpt>
      <trkpt lat="42.96341" lon="0.30961">
        <ele>1421.3</ele>
        <time>2026-07-07T06:48:30Z</time>
      </trkpt>
      <trkpt lat="42.96342" lon="0.30962">
        <ele>1421.3</ele>
        <time>2026-07-07T06:48:31Z</time>
      </trkpt>
      <trkpt lat="42.96342" lon="0.30962">
        <ele>1421.3</ele>
        <time>2026-07-07T06:48:31Z</time>
      </trkpt>
      <trkpt lat="42.96343" lon="0.30963">
        <ele>1421.3</ele>
        <time>2026-07-07T06:48:32Z</time>
      </trkpt>
      <trkpt lat="42.96343" lon="0.30964">
        <ele>1421.3</ele>
        <time>2026-07-07T06:48:33Z</time>
      </trkpt>
      <trkpt lat="42.96344" lon="0.30964">
        <ele>1421.3</ele>
        <time>2026-07-07T06:48:33Z</time>
      </trkpt>
      <trkpt lat="42.96344" lon="0.30965">
        <ele>1421.3</ele>
        <time>2026-07-07T06:48:34Z</time>
      </trkpt>
      <trkpt lat="42.96344" lon="0.30966">
        <ele>1421.3</ele>
        <time>2026-07-07T06:48:34Z</time>
      </trkpt>
      <trkpt lat="42.96345" lon="0.30966">
        <ele>1421.3</ele>
        <time>2026-07-07T06:48:35Z</time>
      </trkpt>
      <trkpt lat="42.96345" lon="0.30967">
        <ele>1422.3</ele>
        <time>2026-07-07T06:48:35Z</time>
      </trkpt>
      <trkpt lat="42.96346" lon="0.30968">
        <ele>1422.3</ele>
        <time>2026-07-07T06:48:36Z</time>
      </trkpt>
      <trkpt lat="42.96346" lon="0.30968">
        <ele>1421.3</ele>
        <time>2026-07-07T06:48:37Z</time>
      </trkpt>
      <trkpt lat="42.96346" lon="0.30969">
        <ele>1421.3</ele>
        <time>2026-07-07T06:48:37Z</time>
      </trkpt>
      <trkpt lat="42.96347" lon="0.3097">
        <ele>1421.3</ele>
        <time>2026-07-07T06:48:38Z</time>
      </trkpt>
      <trkpt lat="42.96347" lon="0.3097">
        <ele>1421.3</ele>
        <time>2026-07-07T06:48:38Z</time>
      </trkpt>
      <trkpt lat="42.96348" lon="0.30971">
        <ele>1421.3</ele>
        <time>2026-07-07T06:48:39Z</time>
      </trkpt>
      <trkpt lat="42.96348" lon="0.30971">
        <ele>1420.3</ele>
        <time>2026-07-07T06:48:39Z</time>
      </trkpt>
      <trkpt lat="42.96349" lon="0.30972">
        <ele>1420.3</ele>
        <time>2026-07-07T06:48:40Z</time>
      </trkpt>
      <trkpt lat="42.96349" lon="0.30972">
        <ele>1420.3</ele>
        <time>2026-07-07T06:48:41Z</time>
      </trkpt>
      <trkpt lat="42.9635" lon="0.30973">
        <ele>1420.3</ele>
        <time>2026-07-07T06:48:41Z</time>
      </trkpt>
      <trkpt lat="42.9635" lon="0.30974">
        <ele>1420.3</ele>
        <time>2026-07-07T06:48:42Z</time>
      </trkpt>
      <trkpt lat="42.96351" lon="0.30974">
        <ele>1421.3</ele>
        <time>2026-07-07T06:48:42Z</time>
      </trkpt>
      <trkpt lat="42.96351" lon="0.30974">
        <ele>1421.3</ele>
        <time>2026-07-07T06:48:43Z</time>
      </trkpt>
      <trkpt lat="42.96352" lon="0.30975">
        <ele>1421.3</ele>
        <time>2026-07-07T06:48:43Z</time>
      </trkpt>
      <trkpt lat="42.96352" lon="0.30975">
        <ele>1421.3</ele>
        <time>2026-07-07T06:48:44Z</time>
      </trkpt>
      <trkpt lat="42.96352" lon="0.30976">
        <ele>1421.3</ele>
        <time>2026-07-07T06:48:45Z</time>
      </trkpt>
      <trkpt lat="42.96353" lon="0.30976">
        <ele>1421.3</ele>
        <time>2026-07-07T06:48:45Z</time>
      </trkpt>
      <trkpt lat="42.96353" lon="0.30977">
        <ele>1421.3</ele>
        <time>2026-07-07T06:48:46Z</time>
      </trkpt>
      <trkpt lat="42.96353" lon="0.30978">
        <ele>1421.3</ele>
        <time>2026-07-07T06:48:46Z</time>
      </trkpt>
      <trkpt lat="42.96353" lon="0.30978">
        <ele>1421.3</ele>
        <time>2026-07-07T06:48:47Z</time>
      </trkpt>
      <trkpt lat="42.96353" lon="0.30979">
        <ele>1421.3</ele>
        <time>2026-07-07T06:48:48Z</time>
      </trkpt>
      <trkpt lat="42.96354" lon="0.3098">
        <ele>1421.3</ele>
        <time>2026-07-07T06:48:48Z</time>
      </trkpt>
      <trkpt lat="42.96354" lon="0.3098">
        <ele>1422.3</ele>
        <time>2026-07-07T06:48:49Z</time>
      </trkpt>
      <trkpt lat="42.96355" lon="0.3098">
        <ele>1422.3</ele>
        <time>2026-07-07T06:48:49Z</time>
      </trkpt>
      <trkpt lat="42.96355" lon="0.30981">
        <ele>1422.3</ele>
        <time>2026-07-07T06:48:50Z</time>
      </trkpt>
      <trkpt lat="42.96356" lon="0.30981">
        <ele>1422.3</ele>
        <time>2026-07-07T06:48:50Z</time>
      </trkpt>
      <trkpt lat="42.96356" lon="0.30981">
        <ele>1422.3</ele>
        <time>2026-07-07T06:48:51Z</time>
      </trkpt>
      <trkpt lat="42.96357" lon="0.30982">
        <ele>1422.3</ele>
        <time>2026-07-07T06:48:52Z</time>
      </trkpt>
      <trkpt lat="42.96357" lon="0.30982">
        <ele>1422.3</ele>
        <time>2026-07-07T06:48:52Z</time>
      </trkpt>
      <trkpt lat="42.96358" lon="0.30982">
        <ele>1423.3</ele>
        <time>2026-07-07T06:48:53Z</time>
      </trkpt>
      <trkpt lat="42.96359" lon="0.30983">
        <ele>1423.3</ele>
        <time>2026-07-07T06:48:53Z</time>
      </trkpt>
      <trkpt lat="42.96359" lon="0.30983">
        <ele>1423.3</ele>
        <time>2026-07-07T06:48:54Z</time>
      </trkpt>
      <trkpt lat="42.9636" lon="0.30983">
        <ele>1424.3</ele>
        <time>2026-07-07T06:48:55Z</time>
      </trkpt>
      <trkpt lat="42.96361" lon="0.30984">
        <ele>1424.3</ele>
        <time>2026-07-07T06:48:55Z</time>
      </trkpt>
      <trkpt lat="42.96361" lon="0.30984">
        <ele>1424.3</ele>
        <time>2026-07-07T06:48:56Z</time>
      </trkpt>
      <trkpt lat="42.96362" lon="0.30985">
        <ele>1423.3</ele>
        <time>2026-07-07T06:48:56Z</time>
      </trkpt>
      <trkpt lat="42.96362" lon="0.30985">
        <ele>1423.3</ele>
        <time>2026-07-07T06:48:57Z</time>
      </trkpt>
      <trkpt lat="42.96363" lon="0.30986">
        <ele>1423.3</ele>
        <time>2026-07-07T06:48:58Z</time>
      </trkpt>
      <trkpt lat="42.96363" lon="0.30986">
        <ele>1423.3</ele>
        <time>2026-07-07T06:48:58Z</time>
      </trkpt>
      <trkpt lat="42.96364" lon="0.30987">
        <ele>1424.3</ele>
        <time>2026-07-07T06:48:59Z</time>
      </trkpt>
      <trkpt lat="42.96364" lon="0.30987">
        <ele>1424.3</ele>
        <time>2026-07-07T06:48:59Z</time>
      </trkpt>
      <trkpt lat="42.96364" lon="0.30988">
        <ele>1424.3</ele>
        <time>2026-07-07T06:49:00Z</time>
      </trkpt>
      <trkpt lat="42.96365" lon="0.30988">
        <ele>1424.3</ele>
        <time>2026-07-07T06:49:01Z</time>
      </trkpt>
      <trkpt lat="42.96365" lon="0.30989">
        <ele>1424.3</ele>
        <time>2026-07-07T06:49:01Z</time>
      </trkpt>
      <trkpt lat="42.96366" lon="0.30989">
        <ele>1424.3</ele>
        <time>2026-07-07T06:49:02Z</time>
      </trkpt>
      <trkpt lat="42.96366" lon="0.3099">
        <ele>1425.3</ele>
        <time>2026-07-07T06:49:02Z</time>
      </trkpt>
      <trkpt lat="42.96367" lon="0.3099">
        <ele>1425.3</ele>
        <time>2026-07-07T06:49:03Z</time>
      </trkpt>
      <trkpt lat="42.96367" lon="0.30991">
        <ele>1425.3</ele>
        <time>2026-07-07T06:49:03Z</time>
      </trkpt>
      <trkpt lat="42.96368" lon="0.30991">
        <ele>1425.3</ele>
        <time>2026-07-07T06:49:04Z</time>
      </trkpt>
      <trkpt lat="42.96368" lon="0.30992">
        <ele>1425.3</ele>
        <time>2026-07-07T06:49:05Z</time>
      </trkpt>
      <trkpt lat="42.96369" lon="0.30992">
        <ele>1425.3</ele>
        <time>2026-07-07T06:49:05Z</time>
      </trkpt>
      <trkpt lat="42.96369" lon="0.30992">
        <ele>1425.3</ele>
        <time>2026-07-07T06:49:06Z</time>
      </trkpt>
      <trkpt lat="42.9637" lon="0.30993">
        <ele>1425.3</ele>
        <time>2026-07-07T06:49:07Z</time>
      </trkpt>
      <trkpt lat="42.96371" lon="0.30993">
        <ele>1425.3</ele>
        <time>2026-07-07T06:49:07Z</time>
      </trkpt>
      <trkpt lat="42.96371" lon="0.30993">
        <ele>1425.3</ele>
        <time>2026-07-07T06:49:08Z</time>
      </trkpt>
      <trkpt lat="42.96372" lon="0.30994">
        <ele>1425.3</ele>
        <time>2026-07-07T06:49:08Z</time>
      </trkpt>
      <trkpt lat="42.96372" lon="0.30994">
        <ele>1425.3</ele>
        <time>2026-07-07T06:49:09Z</time>
      </trkpt>
      <trkpt lat="42.96373" lon="0.30995">
        <ele>1425.3</ele>
        <time>2026-07-07T06:49:10Z</time>
      </trkpt>
      <trkpt lat="42.96373" lon="0.30995">
        <ele>1425.3</ele>
        <time>2026-07-07T06:49:10Z</time>
      </trkpt>
      <trkpt lat="42.96374" lon="0.30996">
        <ele>1425.3</ele>
        <time>2026-07-07T06:49:11Z</time>
      </trkpt>
      <trkpt lat="42.96374" lon="0.30996">
        <ele>1425.3</ele>
        <time>2026-07-07T06:49:11Z</time>
      </trkpt>
      <trkpt lat="42.96374" lon="0.30997">
        <ele>1425.3</ele>
        <time>2026-07-07T06:49:12Z</time>
      </trkpt>
      <trkpt lat="42.96375" lon="0.30998">
        <ele>1425.3</ele>
        <time>2026-07-07T06:49:13Z</time>
      </trkpt>
      <trkpt lat="42.96375" lon="0.30998">
        <ele>1425.3</ele>
        <time>2026-07-07T06:49:13Z</time>
      </trkpt>
      <trkpt lat="42.96375" lon="0.30999">
        <ele>1424.3</ele>
        <time>2026-07-07T06:49:14Z</time>
      </trkpt>
      <trkpt lat="42.96375" lon="0.31">
        <ele>1424.3</ele>
        <time>2026-07-07T06:49:14Z</time>
      </trkpt>
      <trkpt lat="42.96376" lon="0.31001">
        <ele>1424.3</ele>
        <time>2026-07-07T06:49:15Z</time>
      </trkpt>
      <trkpt lat="42.96376" lon="0.31001">
        <ele>1424.3</ele>
        <time>2026-07-07T06:49:16Z</time>
      </trkpt>
      <trkpt lat="42.96376" lon="0.31002">
        <ele>1424.3</ele>
        <time>2026-07-07T06:49:16Z</time>
      </trkpt>
      <trkpt lat="42.96376" lon="0.31003">
        <ele>1425.3</ele>
        <time>2026-07-07T06:49:17Z</time>
      </trkpt>
      <trkpt lat="42.96376" lon="0.31003">
        <ele>1425.3</ele>
        <time>2026-07-07T06:49:17Z</time>
      </trkpt>
      <trkpt lat="42.96377" lon="0.31004">
        <ele>1425.3</ele>
        <time>2026-07-07T06:49:18Z</time>
      </trkpt>
      <trkpt lat="42.96377" lon="0.31005">
        <ele>1425.3</ele>
        <time>2026-07-07T06:49:19Z</time>
      </trkpt>
      <trkpt lat="42.96377" lon="0.31005">
        <ele>1425.3</ele>
        <time>2026-07-07T06:49:19Z</time>
      </trkpt>
      <trkpt lat="42.96378" lon="0.31006">
        <ele>1426.3</ele>
        <time>2026-07-07T06:49:20Z</time>
      </trkpt>
      <trkpt lat="42.96378" lon="0.31006">
        <ele>1426.3</ele>
        <time>2026-07-07T06:49:20Z</time>
      </trkpt>
      <trkpt lat="42.96378" lon="0.31007">
        <ele>1426.3</ele>
        <time>2026-07-07T06:49:21Z</time>
      </trkpt>
      <trkpt lat="42.96379" lon="0.31008">
        <ele>1426.3</ele>
        <time>2026-07-07T06:49:21Z</time>
      </trkpt>
      <trkpt lat="42.96379" lon="0.31009">
        <ele>1426.3</ele>
        <time>2026-07-07T06:49:22Z</time>
      </trkpt>
      <trkpt lat="42.96379" lon="0.31009">
        <ele>1426.3</ele>
        <time>2026-07-07T06:49:23Z</time>
      </trkpt>
      <trkpt lat="42.9638" lon="0.3101">
        <ele>1426.3</ele>
        <time>2026-07-07T06:49:23Z</time>
      </trkpt>
      <trkpt lat="42.9638" lon="0.31011">
        <ele>1426.3</ele>
        <time>2026-07-07T06:49:24Z</time>
      </trkpt>
      <trkpt lat="42.9638" lon="0.31011">
        <ele>1426.3</ele>
        <time>2026-07-07T06:49:24Z</time>
      </trkpt>
      <trkpt lat="42.96381" lon="0.31012">
        <ele>1426.3</ele>
        <time>2026-07-07T06:49:25Z</time>
      </trkpt>
      <trkpt lat="42.96381" lon="0.31013">
        <ele>1427.3</ele>
        <time>2026-07-07T06:49:25Z</time>
      </trkpt>
      <trkpt lat="42.96381" lon="0.31014">
        <ele>1427.3</ele>
        <time>2026-07-07T06:49:26Z</time>
      </trkpt>
      <trkpt lat="42.96382" lon="0.31014">
        <ele>1426.3</ele>
        <time>2026-07-07T06:49:27Z</time>
      </trkpt>
      <trkpt lat="42.96382" lon="0.31015">
        <ele>1427.3</ele>
        <time>2026-07-07T06:49:27Z</time>
      </trkpt>
      <trkpt lat="42.96383" lon="0.31015">
        <ele>1427.3</ele>
        <time>2026-07-07T06:49:28Z</time>
      </trkpt>
      <trkpt lat="42.96383" lon="0.31016">
        <ele>1427.3</ele>
        <time>2026-07-07T06:49:28Z</time>
      </trkpt>
      <trkpt lat="42.96383" lon="0.31017">
        <ele>1427.3</ele>
        <time>2026-07-07T06:49:29Z</time>
      </trkpt>
      <trkpt lat="42.96384" lon="0.31018">
        <ele>1427.3</ele>
        <time>2026-07-07T06:49:30Z</time>
      </trkpt>
      <trkpt lat="42.96384" lon="0.31018">
        <ele>1427.3</ele>
        <time>2026-07-07T06:49:30Z</time>
      </trkpt>
      <trkpt lat="42.96384" lon="0.31019">
        <ele>1427.3</ele>
        <time>2026-07-07T06:49:31Z</time>
      </trkpt>
      <trkpt lat="42.96384" lon="0.3102">
        <ele>1427.3</ele>
        <time>2026-07-07T06:49:32Z</time>
      </trkpt>
      <trkpt lat="42.96385" lon="0.31021">
        <ele>1427.3</ele>
        <time>2026-07-07T06:49:32Z</time>
      </trkpt>
      <trkpt lat="42.96385" lon="0.31021">
        <ele>1427.3</ele>
        <time>2026-07-07T06:49:33Z</time>
      </trkpt>
      <trkpt lat="42.96385" lon="0.31022">
        <ele>1427.3</ele>
        <time>2026-07-07T06:49:33Z</time>
      </trkpt>
      <trkpt lat="42.96386" lon="0.31023">
        <ele>1427.3</ele>
        <time>2026-07-07T06:49:34Z</time>
      </trkpt>
      <trkpt lat="42.96386" lon="0.31023">
        <ele>1428.3</ele>
        <time>2026-07-07T06:49:35Z</time>
      </trkpt>
      <trkpt lat="42.96387" lon="0.31024">
        <ele>1428.3</ele>
        <time>2026-07-07T06:49:35Z</time>
      </trkpt>
      <trkpt lat="42.96387" lon="0.31024">
        <ele>1428.3</ele>
        <time>2026-07-07T06:49:36Z</time>
      </trkpt>
      <trkpt lat="42.96387" lon="0.31025">
        <ele>1428.3</ele>
        <time>2026-07-07T06:49:36Z</time>
      </trkpt>
      <trkpt lat="42.96388" lon="0.31026">
        <ele>1428.3</ele>
        <time>2026-07-07T06:49:37Z</time>
      </trkpt>
      <trkpt lat="42.96388" lon="0.31026">
        <ele>1427.3</ele>
        <time>2026-07-07T06:49:38Z</time>
      </trkpt>
      <trkpt lat="42.96388" lon="0.31027">
        <ele>1427.3</ele>
        <time>2026-07-07T06:49:38Z</time>
      </trkpt>
      <trkpt lat="42.96389" lon="0.31027">
        <ele>1427.3</ele>
        <time>2026-07-07T06:49:39Z</time>
      </trkpt>
      <trkpt lat="42.96389" lon="0.31028">
        <ele>1427.3</ele>
        <time>2026-07-07T06:49:39Z</time>
      </trkpt>
      <trkpt lat="42.9639" lon="0.31029">
        <ele>1428.3</ele>
        <time>2026-07-07T06:49:40Z</time>
      </trkpt>
      <trkpt lat="42.9639" lon="0.31029">
        <ele>1428.3</ele>
        <time>2026-07-07T06:49:40Z</time>
      </trkpt>
      <trkpt lat="42.96391" lon="0.31029">
        <ele>1428.3</ele>
        <time>2026-07-07T06:49:41Z</time>
      </trkpt>
      <trkpt lat="42.96391" lon="0.31029">
        <ele>1427.3</ele>
        <time>2026-07-07T06:49:42Z</time>
      </trkpt>
      <trkpt lat="42.96392" lon="0.3103">
        <ele>1427.3</ele>
        <time>2026-07-07T06:49:42Z</time>
      </trkpt>
      <trkpt lat="42.96392" lon="0.3103">
        <ele>1428.3</ele>
        <time>2026-07-07T06:49:43Z</time>
      </trkpt>
      <trkpt lat="42.96393" lon="0.3103">
        <ele>1428.3</ele>
        <time>2026-07-07T06:49:43Z</time>
      </trkpt>
      <trkpt lat="42.96393" lon="0.31031">
        <ele>1428.3</ele>
        <time>2026-07-07T06:49:44Z</time>
      </trkpt>
      <trkpt lat="42.96394" lon="0.31031">
        <ele>1428.3</ele>
        <time>2026-07-07T06:49:45Z</time>
      </trkpt>
      <trkpt lat="42.96395" lon="0.31031">
        <ele>1428.3</ele>
        <time>2026-07-07T06:49:45Z</time>
      </trkpt>
      <trkpt lat="42.96395" lon="0.31032">
        <ele>1428.3</ele>
        <time>2026-07-07T06:49:46Z</time>
      </trkpt>
      <trkpt lat="42.96396" lon="0.31032">
        <ele>1429.3</ele>
        <time>2026-07-07T06:49:46Z</time>
      </trkpt>
      <trkpt lat="42.96396" lon="0.31033">
        <ele>1429.3</ele>
        <time>2026-07-07T06:49:47Z</time>
      </trkpt>
      <trkpt lat="42.96396" lon="0.31033">
        <ele>1430.3</ele>
        <time>2026-07-07T06:49:48Z</time>
      </trkpt>
      <trkpt lat="42.96397" lon="0.31034">
        <ele>1430.3</ele>
        <time>2026-07-07T06:49:48Z</time>
      </trkpt>
      <trkpt lat="42.96397" lon="0.31034">
        <ele>1430.3</ele>
        <time>2026-07-07T06:49:49Z</time>
      </trkpt>
      <trkpt lat="42.96397" lon="0.31035">
        <ele>1430.3</ele>
        <time>2026-07-07T06:49:49Z</time>
      </trkpt>
      <trkpt lat="42.96397" lon="0.31036">
        <ele>1430.3</ele>
        <time>2026-07-07T06:49:50Z</time>
      </trkpt>
      <trkpt lat="42.96398" lon="0.31036">
        <ele>1431.3</ele>
        <time>2026-07-07T06:49:51Z</time>
      </trkpt>
      <trkpt lat="42.96398" lon="0.31037">
        <ele>1431.3</ele>
        <time>2026-07-07T06:49:51Z</time>
      </trkpt>
      <trkpt lat="42.96398" lon="0.31038">
        <ele>1431.3</ele>
        <time>2026-07-07T06:49:52Z</time>
      </trkpt>
      <trkpt lat="42.96398" lon="0.31038">
        <ele>1431.3</ele>
        <time>2026-07-07T06:49:52Z</time>
      </trkpt>
      <trkpt lat="42.96399" lon="0.31039">
        <ele>1431.3</ele>
        <time>2026-07-07T06:49:53Z</time>
      </trkpt>
      <trkpt lat="42.96399" lon="0.3104">
        <ele>1432.3</ele>
        <time>2026-07-07T06:49:54Z</time>
      </trkpt>
      <trkpt lat="42.96399" lon="0.3104">
        <ele>1432.3</ele>
        <time>2026-07-07T06:49:54Z</time>
      </trkpt>
      <trkpt lat="42.964" lon="0.31041">
        <ele>1432.3</ele>
        <time>2026-07-07T06:49:55Z</time>
      </trkpt>
      <trkpt lat="42.964" lon="0.31041">
        <ele>1432.3</ele>
        <time>2026-07-07T06:49:55Z</time>
      </trkpt>
      <trkpt lat="42.96401" lon="0.31042">
        <ele>1432.3</ele>
        <time>2026-07-07T06:49:56Z</time>
      </trkpt>
      <trkpt lat="42.96401" lon="0.31042">
        <ele>1432.3</ele>
        <time>2026-07-07T06:49:57Z</time>
      </trkpt>
      <trkpt lat="42.96402" lon="0.31042">
        <ele>1432.3</ele>
        <time>2026-07-07T06:49:57Z</time>
      </trkpt>
      <trkpt lat="42.96402" lon="0.31043">
        <ele>1432.3</ele>
        <time>2026-07-07T06:49:58Z</time>
      </trkpt>
      <trkpt lat="42.96403" lon="0.31043">
        <ele>1432.3</ele>
        <time>2026-07-07T06:49:59Z</time>
      </trkpt>
      <trkpt lat="42.96404" lon="0.31043">
        <ele>1432.3</ele>
        <time>2026-07-07T06:49:59Z</time>
      </trkpt>
      <trkpt lat="42.96404" lon="0.31044">
        <ele>1432.3</ele>
        <time>2026-07-07T06:50:00Z</time>
      </trkpt>
      <trkpt lat="42.96405" lon="0.31044">
        <ele>1431.3</ele>
        <time>2026-07-07T06:50:00Z</time>
      </trkpt>
      <trkpt lat="42.96405" lon="0.31044">
        <ele>1431.3</ele>
        <time>2026-07-07T06:50:01Z</time>
      </trkpt>
      <trkpt lat="42.96406" lon="0.31045">
        <ele>1432.3</ele>
        <time>2026-07-07T06:50:02Z</time>
      </trkpt>
      <trkpt lat="42.96407" lon="0.31045">
        <ele>1432.3</ele>
        <time>2026-07-07T06:50:03Z</time>
      </trkpt>
      <trkpt lat="42.96408" lon="0.31046">
        <ele>1433.3</ele>
        <time>2026-07-07T06:50:04Z</time>
      </trkpt>
      <trkpt lat="42.96409" lon="0.31046">
        <ele>1433.3</ele>
        <time>2026-07-07T06:50:04Z</time>
      </trkpt>
      <trkpt lat="42.96409" lon="0.31046">
        <ele>1433.3</ele>
        <time>2026-07-07T06:50:05Z</time>
      </trkpt>
      <trkpt lat="42.9641" lon="0.31047">
        <ele>1433.3</ele>
        <time>2026-07-07T06:50:05Z</time>
      </trkpt>
      <trkpt lat="42.9641" lon="0.31047">
        <ele>1433.3</ele>
        <time>2026-07-07T06:50:06Z</time>
      </trkpt>
      <trkpt lat="42.96411" lon="0.31047">
        <ele>1433.3</ele>
        <time>2026-07-07T06:50:07Z</time>
      </trkpt>
      <trkpt lat="42.96412" lon="0.31048">
        <ele>1433.3</ele>
        <time>2026-07-07T06:50:07Z</time>
      </trkpt>
      <trkpt lat="42.96412" lon="0.31049">
        <ele>1433.3</ele>
        <time>2026-07-07T06:50:08Z</time>
      </trkpt>
      <trkpt lat="42.96413" lon="0.31049">
        <ele>1434.3</ele>
        <time>2026-07-07T06:50:08Z</time>
      </trkpt>
      <trkpt lat="42.96413" lon="0.31049">
        <ele>1434.3</ele>
        <time>2026-07-07T06:50:09Z</time>
      </trkpt>
      <trkpt lat="42.96414" lon="0.3105">
        <ele>1434.3</ele>
        <time>2026-07-07T06:50:10Z</time>
      </trkpt>
      <trkpt lat="42.96414" lon="0.3105">
        <ele>1434.3</ele>
        <time>2026-07-07T06:50:10Z</time>
      </trkpt>
      <trkpt lat="42.96415" lon="0.3105">
        <ele>1434.3</ele>
        <time>2026-07-07T06:50:11Z</time>
      </trkpt>
      <trkpt lat="42.96416" lon="0.31051">
        <ele>1434.3</ele>
        <time>2026-07-07T06:50:12Z</time>
      </trkpt>
      <trkpt lat="42.96416" lon="0.31051">
        <ele>1434.3</ele>
        <time>2026-07-07T06:50:12Z</time>
      </trkpt>
      <trkpt lat="42.96417" lon="0.31052">
        <ele>1435.3</ele>
        <time>2026-07-07T06:50:13Z</time>
      </trkpt>
      <trkpt lat="42.96417" lon="0.31052">
        <ele>1435.3</ele>
        <time>2026-07-07T06:50:13Z</time>
      </trkpt>
      <trkpt lat="42.96418" lon="0.31053">
        <ele>1435.3</ele>
        <time>2026-07-07T06:50:14Z</time>
      </trkpt>
      <trkpt lat="42.96418" lon="0.31053">
        <ele>1435.3</ele>
        <time>2026-07-07T06:50:15Z</time>
      </trkpt>
      <trkpt lat="42.96418" lon="0.31054">
        <ele>1436.3</ele>
        <time>2026-07-07T06:50:15Z</time>
      </trkpt>
      <trkpt lat="42.96419" lon="0.31055">
        <ele>1436.3</ele>
        <time>2026-07-07T06:50:16Z</time>
      </trkpt>
      <trkpt lat="42.96419" lon="0.31055">
        <ele>1435.3</ele>
        <time>2026-07-07T06:50:17Z</time>
      </trkpt>
      <trkpt lat="42.96419" lon="0.31056">
        <ele>1435.3</ele>
        <time>2026-07-07T06:50:17Z</time>
      </trkpt>
      <trkpt lat="42.9642" lon="0.31057">
        <ele>1435.3</ele>
        <time>2026-07-07T06:50:18Z</time>
      </trkpt>
      <trkpt lat="42.9642" lon="0.31057">
        <ele>1436.3</ele>
        <time>2026-07-07T06:50:19Z</time>
      </trkpt>
      <trkpt lat="42.9642" lon="0.31058">
        <ele>1436.3</ele>
        <time>2026-07-07T06:50:19Z</time>
      </trkpt>
      <trkpt lat="42.9642" lon="0.31059">
        <ele>1436.3</ele>
        <time>2026-07-07T06:50:20Z</time>
      </trkpt>
      <trkpt lat="42.9642" lon="0.31059">
        <ele>1436.3</ele>
        <time>2026-07-07T06:50:20Z</time>
      </trkpt>
      <trkpt lat="42.96421" lon="0.3106">
        <ele>1436.3</ele>
        <time>2026-07-07T06:50:21Z</time>
      </trkpt>
      <trkpt lat="42.96421" lon="0.31061">
        <ele>1436.3</ele>
        <time>2026-07-07T06:50:22Z</time>
      </trkpt>
      <trkpt lat="42.96421" lon="0.31061">
        <ele>1436.3</ele>
        <time>2026-07-07T06:50:22Z</time>
      </trkpt>
      <trkpt lat="42.96422" lon="0.31062">
        <ele>1436.3</ele>
        <time>2026-07-07T06:50:23Z</time>
      </trkpt>
      <trkpt lat="42.96422" lon="0.31063">
        <ele>1436.3</ele>
        <time>2026-07-07T06:50:23Z</time>
      </trkpt>
      <trkpt lat="42.96422" lon="0.31063">
        <ele>1436.3</ele>
        <time>2026-07-07T06:50:24Z</time>
      </trkpt>
      <trkpt lat="42.96423" lon="0.31064">
        <ele>1436.3</ele>
        <time>2026-07-07T06:50:25Z</time>
      </trkpt>
      <trkpt lat="42.96423" lon="0.31064">
        <ele>1436.3</ele>
        <time>2026-07-07T06:50:25Z</time>
      </trkpt>
      <trkpt lat="42.96424" lon="0.31065">
        <ele>1436.3</ele>
        <time>2026-07-07T06:50:26Z</time>
      </trkpt>
      <trkpt lat="42.96424" lon="0.31065">
        <ele>1437.3</ele>
        <time>2026-07-07T06:50:27Z</time>
      </trkpt>
      <trkpt lat="42.96424" lon="0.31065">
        <ele>1437.3</ele>
        <time>2026-07-07T06:50:27Z</time>
      </trkpt>
      <trkpt lat="42.96424" lon="0.31066">
        <ele>1437.3</ele>
        <time>2026-07-07T06:50:28Z</time>
      </trkpt>
      <trkpt lat="42.96425" lon="0.31067">
        <ele>1437.3</ele>
        <time>2026-07-07T06:50:29Z</time>
      </trkpt>
      <trkpt lat="42.96425" lon="0.31068">
        <ele>1437.3</ele>
        <time>2026-07-07T06:50:29Z</time>
      </trkpt>
      <trkpt lat="42.96426" lon="0.31068">
        <ele>1437.3</ele>
        <time>2026-07-07T06:50:30Z</time>
      </trkpt>
      <trkpt lat="42.96426" lon="0.31069">
        <ele>1437.3</ele>
        <time>2026-07-07T06:50:30Z</time>
      </trkpt>
      <trkpt lat="42.96426" lon="0.31069">
        <ele>1437.3</ele>
        <time>2026-07-07T06:50:31Z</time>
      </trkpt>
      <trkpt lat="42.96427" lon="0.3107">
        <ele>1437.3</ele>
        <time>2026-07-07T06:50:32Z</time>
      </trkpt>
      <trkpt lat="42.96427" lon="0.31071">
        <ele>1437.3</ele>
        <time>2026-07-07T06:50:32Z</time>
      </trkpt>
      <trkpt lat="42.96428" lon="0.31071">
        <ele>1437.3</ele>
        <time>2026-07-07T06:50:33Z</time>
      </trkpt>
      <trkpt lat="42.96428" lon="0.31071">
        <ele>1438.3</ele>
        <time>2026-07-07T06:50:33Z</time>
      </trkpt>
      <trkpt lat="42.96428" lon="0.31072">
        <ele>1438.3</ele>
        <time>2026-07-07T06:50:34Z</time>
      </trkpt>
      <trkpt lat="42.96429" lon="0.31073">
        <ele>1438.3</ele>
        <time>2026-07-07T06:50:35Z</time>
      </trkpt>
      <trkpt lat="42.96429" lon="0.31073">
        <ele>1438.3</ele>
        <time>2026-07-07T06:50:35Z</time>
      </trkpt>
      <trkpt lat="42.96429" lon="0.31074">
        <ele>1438.3</ele>
        <time>2026-07-07T06:50:36Z</time>
      </trkpt>
      <trkpt lat="42.96429" lon="0.31074">
        <ele>1438.3</ele>
        <time>2026-07-07T06:50:37Z</time>
      </trkpt>
      <trkpt lat="42.9643" lon="0.31075">
        <ele>1438.3</ele>
        <time>2026-07-07T06:50:37Z</time>
      </trkpt>
      <trkpt lat="42.9643" lon="0.31076">
        <ele>1438.3</ele>
        <time>2026-07-07T06:50:38Z</time>
      </trkpt>
      <trkpt lat="42.9643" lon="0.31076">
        <ele>1438.3</ele>
        <time>2026-07-07T06:50:38Z</time>
      </trkpt>
      <trkpt lat="42.9643" lon="0.31077">
        <ele>1438.3</ele>
        <time>2026-07-07T06:50:39Z</time>
      </trkpt>
      <trkpt lat="42.96431" lon="0.31077">
        <ele>1438.3</ele>
        <time>2026-07-07T06:50:40Z</time>
      </trkpt>
      <trkpt lat="42.96431" lon="0.31078">
        <ele>1438.3</ele>
        <time>2026-07-07T06:50:40Z</time>
      </trkpt>
      <trkpt lat="42.96431" lon="0.31078">
        <ele>1438.3</ele>
        <time>2026-07-07T06:50:41Z</time>
      </trkpt>
      <trkpt lat="42.96432" lon="0.31078">
        <ele>1438.3</ele>
        <time>2026-07-07T06:50:42Z</time>
      </trkpt>
      <trkpt lat="42.96432" lon="0.31079">
        <ele>1439.3</ele>
        <time>2026-07-07T06:50:42Z</time>
      </trkpt>
      <trkpt lat="42.96432" lon="0.31079">
        <ele>1439.3</ele>
        <time>2026-07-07T06:50:43Z</time>
      </trkpt>
      <trkpt lat="42.96433" lon="0.31079">
        <ele>1439.3</ele>
        <time>2026-07-07T06:50:44Z</time>
      </trkpt>
      <trkpt lat="42.96433" lon="0.3108">
        <ele>1439.3</ele>
        <time>2026-07-07T06:50:44Z</time>
      </trkpt>
      <trkpt lat="42.96434" lon="0.3108">
        <ele>1439.3</ele>
        <time>2026-07-07T06:50:45Z</time>
      </trkpt>
      <trkpt lat="42.96434" lon="0.31081">
        <ele>1440.3</ele>
        <time>2026-07-07T06:50:46Z</time>
      </trkpt>
      <trkpt lat="42.96434" lon="0.31081">
        <ele>1440.3</ele>
        <time>2026-07-07T06:50:46Z</time>
      </trkpt>
      <trkpt lat="42.96435" lon="0.31081">
        <ele>1440.3</ele>
        <time>2026-07-07T06:50:47Z</time>
      </trkpt>
      <trkpt lat="42.96435" lon="0.31082">
        <ele>1441.3</ele>
        <time>2026-07-07T06:50:47Z</time>
      </trkpt>
      <trkpt lat="42.96436" lon="0.31082">
        <ele>1441.3</ele>
        <time>2026-07-07T06:50:48Z</time>
      </trkpt>
      <trkpt lat="42.96436" lon="0.31082">
        <ele>1441.3</ele>
        <time>2026-07-07T06:50:49Z</time>
      </trkpt>
      <trkpt lat="42.96437" lon="0.31083">
        <ele>1441.3</ele>
        <time>2026-07-07T06:50:49Z</time>
      </trkpt>
      <trkpt lat="42.96438" lon="0.31083">
        <ele>1441.3</ele>
        <time>2026-07-07T06:50:50Z</time>
      </trkpt>
      <trkpt lat="42.96438" lon="0.31083">
        <ele>1442.3</ele>
        <time>2026-07-07T06:50:50Z</time>
      </trkpt>
      <trkpt lat="42.96439" lon="0.31084">
        <ele>1442.3</ele>
        <time>2026-07-07T06:50:51Z</time>
      </trkpt>
      <trkpt lat="42.96439" lon="0.31084">
        <ele>1443.3</ele>
        <time>2026-07-07T06:50:52Z</time>
      </trkpt>
      <trkpt lat="42.96439" lon="0.31085">
        <ele>1444.3</ele>
        <time>2026-07-07T06:50:52Z</time>
      </trkpt>
      <trkpt lat="42.9644" lon="0.31085">
        <ele>1444.3</ele>
        <time>2026-07-07T06:50:53Z</time>
      </trkpt>
      <trkpt lat="42.9644" lon="0.31086">
        <ele>1444.3</ele>
        <time>2026-07-07T06:50:54Z</time>
      </trkpt>
      <trkpt lat="42.9644" lon="0.31087">
        <ele>1444.3</ele>
        <time>2026-07-07T06:50:54Z</time>
      </trkpt>
      <trkpt lat="42.9644" lon="0.31087">
        <ele>1444.3</ele>
        <time>2026-07-07T06:50:55Z</time>
      </trkpt>
      <trkpt lat="42.9644" lon="0.31088">
        <ele>1444.3</ele>
        <time>2026-07-07T06:50:55Z</time>
      </trkpt>
      <trkpt lat="42.96441" lon="0.31088">
        <ele>1444.3</ele>
        <time>2026-07-07T06:50:56Z</time>
      </trkpt>
      <trkpt lat="42.96441" lon="0.31089">
        <ele>1444.3</ele>
        <time>2026-07-07T06:50:57Z</time>
      </trkpt>
      <trkpt lat="42.96441" lon="0.31089">
        <ele>1443.3</ele>
        <time>2026-07-07T06:50:57Z</time>
      </trkpt>
      <trkpt lat="42.96441" lon="0.31089">
        <ele>1443.3</ele>
        <time>2026-07-07T06:50:58Z</time>
      </trkpt>
      <trkpt lat="42.96442" lon="0.3109">
        <ele>1444.3</ele>
        <time>2026-07-07T06:50:59Z</time>
      </trkpt>
      <trkpt lat="42.96442" lon="0.3109">
        <ele>1445.3</ele>
        <time>2026-07-07T06:50:59Z</time>
      </trkpt>
      <trkpt lat="42.96443" lon="0.3109">
        <ele>1445.3</ele>
        <time>2026-07-07T06:51:00Z</time>
      </trkpt>
      <trkpt lat="42.96443" lon="0.31091">
        <ele>1445.3</ele>
        <time>2026-07-07T06:51:01Z</time>
      </trkpt>
      <trkpt lat="42.96444" lon="0.31091">
        <ele>1445.3</ele>
        <time>2026-07-07T06:51:01Z</time>
      </trkpt>
      <trkpt lat="42.96444" lon="0.31091">
        <ele>1445.3</ele>
        <time>2026-07-07T06:51:02Z</time>
      </trkpt>
      <trkpt lat="42.96444" lon="0.31091">
        <ele>1446.3</ele>
        <time>2026-07-07T06:51:02Z</time>
      </trkpt>
      <trkpt lat="42.96445" lon="0.31092">
        <ele>1446.3</ele>
        <time>2026-07-07T06:51:03Z</time>
      </trkpt>
      <trkpt lat="42.96445" lon="0.31092">
        <ele>1445.3</ele>
        <time>2026-07-07T06:51:04Z</time>
      </trkpt>
      <trkpt lat="42.96445" lon="0.31093">
        <ele>1445.3</ele>
        <time>2026-07-07T06:51:04Z</time>
      </trkpt>
      <trkpt lat="42.96446" lon="0.31093">
        <ele>1445.3</ele>
        <time>2026-07-07T06:51:05Z</time>
      </trkpt>
      <trkpt lat="42.96446" lon="0.31094">
        <ele>1446.3</ele>
        <time>2026-07-07T06:51:06Z</time>
      </trkpt>
      <trkpt lat="42.96447" lon="0.31094">
        <ele>1446.3</ele>
        <time>2026-07-07T06:51:06Z</time>
      </trkpt>
      <trkpt lat="42.96447" lon="0.31095">
        <ele>1446.3</ele>
        <time>2026-07-07T06:51:07Z</time>
      </trkpt>
      <trkpt lat="42.96447" lon="0.31095">
        <ele>1446.3</ele>
        <time>2026-07-07T06:51:08Z</time>
      </trkpt>
      <trkpt lat="42.96448" lon="0.31095">
        <ele>1446.3</ele>
        <time>2026-07-07T06:51:08Z</time>
      </trkpt>
      <trkpt lat="42.96448" lon="0.31096">
        <ele>1446.3</ele>
        <time>2026-07-07T06:51:09Z</time>
      </trkpt>
      <trkpt lat="42.96449" lon="0.31097">
        <ele>1446.3</ele>
        <time>2026-07-07T06:51:10Z</time>
      </trkpt>
      <trkpt lat="42.96449" lon="0.31097">
        <ele>1446.3</ele>
        <time>2026-07-07T06:51:10Z</time>
      </trkpt>
      <trkpt lat="42.9645" lon="0.31098">
        <ele>1446.3</ele>
        <time>2026-07-07T06:51:11Z</time>
      </trkpt>
      <trkpt lat="42.9645" lon="0.31098">
        <ele>1447.3</ele>
        <time>2026-07-07T06:51:12Z</time>
      </trkpt>
      <trkpt lat="42.96451" lon="0.31099">
        <ele>1447.3</ele>
        <time>2026-07-07T06:51:12Z</time>
      </trkpt>
      <trkpt lat="42.96452" lon="0.31099">
        <ele>1447.3</ele>
        <time>2026-07-07T06:51:13Z</time>
      </trkpt>
      <trkpt lat="42.96452" lon="0.31099">
        <ele>1447.3</ele>
        <time>2026-07-07T06:51:13Z</time>
      </trkpt>
      <trkpt lat="42.96453" lon="0.31099">
        <ele>1447.3</ele>
        <time>2026-07-07T06:51:14Z</time>
      </trkpt>
      <trkpt lat="42.96453" lon="0.31099">
        <ele>1448.3</ele>
        <time>2026-07-07T06:51:15Z</time>
      </trkpt>
      <trkpt lat="42.96454" lon="0.31099">
        <ele>1448.3</ele>
        <time>2026-07-07T06:51:15Z</time>
      </trkpt>
      <trkpt lat="42.96455" lon="0.311">
        <ele>1448.3</ele>
        <time>2026-07-07T06:51:16Z</time>
      </trkpt>
      <trkpt lat="42.96455" lon="0.311">
        <ele>1448.3</ele>
        <time>2026-07-07T06:51:17Z</time>
      </trkpt>
      <trkpt lat="42.96455" lon="0.31101">
        <ele>1448.3</ele>
        <time>2026-07-07T06:51:17Z</time>
      </trkpt>
      <trkpt lat="42.96456" lon="0.31102">
        <ele>1448.3</ele>
        <time>2026-07-07T06:51:18Z</time>
      </trkpt>
      <trkpt lat="42.96456" lon="0.31102">
        <ele>1449.3</ele>
        <time>2026-07-07T06:51:19Z</time>
      </trkpt>
      <trkpt lat="42.96456" lon="0.31102">
        <ele>1449.3</ele>
        <time>2026-07-07T06:51:19Z</time>
      </trkpt>
      <trkpt lat="42.96457" lon="0.31103">
        <ele>1449.3</ele>
        <time>2026-07-07T06:51:20Z</time>
      </trkpt>
      <trkpt lat="42.96457" lon="0.31103">
        <ele>1449.3</ele>
        <time>2026-07-07T06:51:21Z</time>
      </trkpt>
      <trkpt lat="42.96458" lon="0.31104">
        <ele>1449.3</ele>
        <time>2026-07-07T06:51:21Z</time>
      </trkpt>
      <trkpt lat="42.96458" lon="0.31105">
        <ele>1449.3</ele>
        <time>2026-07-07T06:51:22Z</time>
      </trkpt>
      <trkpt lat="42.96458" lon="0.31106">
        <ele>1449.3</ele>
        <time>2026-07-07T06:51:23Z</time>
      </trkpt>
      <trkpt lat="42.96459" lon="0.31106">
        <ele>1449.3</ele>
        <time>2026-07-07T06:51:23Z</time>
      </trkpt>
      <trkpt lat="42.96459" lon="0.31107">
        <ele>1450.3</ele>
        <time>2026-07-07T06:51:24Z</time>
      </trkpt>
      <trkpt lat="42.96459" lon="0.31107">
        <ele>1450.3</ele>
        <time>2026-07-07T06:51:24Z</time>
      </trkpt>
      <trkpt lat="42.9646" lon="0.31108">
        <ele>1450.3</ele>
        <time>2026-07-07T06:51:25Z</time>
      </trkpt>
      <trkpt lat="42.9646" lon="0.31108">
        <ele>1450.3</ele>
        <time>2026-07-07T06:51:26Z</time>
      </trkpt>
      <trkpt lat="42.9646" lon="0.31109">
        <ele>1450.3</ele>
        <time>2026-07-07T06:51:26Z</time>
      </trkpt>
      <trkpt lat="42.96461" lon="0.3111">
        <ele>1450.3</ele>
        <time>2026-07-07T06:51:27Z</time>
      </trkpt>
      <trkpt lat="42.96461" lon="0.3111">
        <ele>1451.3</ele>
        <time>2026-07-07T06:51:28Z</time>
      </trkpt>
      <trkpt lat="42.96462" lon="0.3111">
        <ele>1451.3</ele>
        <time>2026-07-07T06:51:28Z</time>
      </trkpt>
      <trkpt lat="42.96462" lon="0.31111">
        <ele>1451.3</ele>
        <time>2026-07-07T06:51:29Z</time>
      </trkpt>
      <trkpt lat="42.96462" lon="0.31111">
        <ele>1451.3</ele>
        <time>2026-07-07T06:51:30Z</time>
      </trkpt>
      <trkpt lat="42.96463" lon="0.31112">
        <ele>1452.3</ele>
        <time>2026-07-07T06:51:30Z</time>
      </trkpt>
      <trkpt lat="42.96463" lon="0.31113">
        <ele>1452.3</ele>
        <time>2026-07-07T06:51:31Z</time>
      </trkpt>
      <trkpt lat="42.96463" lon="0.31113">
        <ele>1452.3</ele>
        <time>2026-07-07T06:51:31Z</time>
      </trkpt>
      <trkpt lat="42.96464" lon="0.31114">
        <ele>1452.3</ele>
        <time>2026-07-07T06:51:32Z</time>
      </trkpt>
      <trkpt lat="42.96464" lon="0.31114">
        <ele>1452.3</ele>
        <time>2026-07-07T06:51:33Z</time>
      </trkpt>
      <trkpt lat="42.96464" lon="0.31114">
        <ele>1453.3</ele>
        <time>2026-07-07T06:51:33Z</time>
      </trkpt>
      <trkpt lat="42.96464" lon="0.31115">
        <ele>1453.3</ele>
        <time>2026-07-07T06:51:34Z</time>
      </trkpt>
      <trkpt lat="42.96465" lon="0.31116">
        <ele>1452.3</ele>
        <time>2026-07-07T06:51:35Z</time>
      </trkpt>
      <trkpt lat="42.96465" lon="0.31116">
        <ele>1452.3</ele>
        <time>2026-07-07T06:51:35Z</time>
      </trkpt>
      <trkpt lat="42.96466" lon="0.31117">
        <ele>1452.3</ele>
        <time>2026-07-07T06:51:36Z</time>
      </trkpt>
      <trkpt lat="42.96466" lon="0.31117">
        <ele>1452.3</ele>
        <time>2026-07-07T06:51:37Z</time>
      </trkpt>
      <trkpt lat="42.96466" lon="0.31118">
        <ele>1452.3</ele>
        <time>2026-07-07T06:51:37Z</time>
      </trkpt>
      <trkpt lat="42.96466" lon="0.31119">
        <ele>1452.3</ele>
        <time>2026-07-07T06:51:38Z</time>
      </trkpt>
      <trkpt lat="42.96467" lon="0.31119">
        <ele>1452.3</ele>
        <time>2026-07-07T06:51:39Z</time>
      </trkpt>
      <trkpt lat="42.96467" lon="0.31119">
        <ele>1452.3</ele>
        <time>2026-07-07T06:51:39Z</time>
      </trkpt>
      <trkpt lat="42.96467" lon="0.3112">
        <ele>1452.3</ele>
        <time>2026-07-07T06:51:40Z</time>
      </trkpt>
      <trkpt lat="42.96468" lon="0.3112">
        <ele>1452.3</ele>
        <time>2026-07-07T06:51:41Z</time>
      </trkpt>
      <trkpt lat="42.96468" lon="0.31121">
        <ele>1452.3</ele>
        <time>2026-07-07T06:51:41Z</time>
      </trkpt>
      <trkpt lat="42.96468" lon="0.31122">
        <ele>1452.3</ele>
        <time>2026-07-07T06:51:42Z</time>
      </trkpt>
      <trkpt lat="42.96469" lon="0.31122">
        <ele>1452.3</ele>
        <time>2026-07-07T06:51:43Z</time>
      </trkpt>
      <trkpt lat="42.96469" lon="0.31122">
        <ele>1453.3</ele>
        <time>2026-07-07T06:51:43Z</time>
      </trkpt>
      <trkpt lat="42.96469" lon="0.31122">
        <ele>1453.3</ele>
        <time>2026-07-07T06:51:44Z</time>
      </trkpt>
      <trkpt lat="42.9647" lon="0.31123">
        <ele>1454.3</ele>
        <time>2026-07-07T06:51:45Z</time>
      </trkpt>
      <trkpt lat="42.9647" lon="0.31123">
        <ele>1454.3</ele>
        <time>2026-07-07T06:51:45Z</time>
      </trkpt>
      <trkpt lat="42.9647" lon="0.31124">
        <ele>1454.3</ele>
        <time>2026-07-07T06:51:46Z</time>
      </trkpt>
      <trkpt lat="42.96471" lon="0.31124">
        <ele>1454.3</ele>
        <time>2026-07-07T06:51:47Z</time>
      </trkpt>
      <trkpt lat="42.96471" lon="0.31124">
        <ele>1454.3</ele>
        <time>2026-07-07T06:51:47Z</time>
      </trkpt>
      <trkpt lat="42.96471" lon="0.31125">
        <ele>1454.3</ele>
        <time>2026-07-07T06:51:48Z</time>
      </trkpt>
      <trkpt lat="42.96472" lon="0.31125">
        <ele>1453.3</ele>
        <time>2026-07-07T06:51:49Z</time>
      </trkpt>
      <trkpt lat="42.96473" lon="0.31126">
        <ele>1454.3</ele>
        <time>2026-07-07T06:51:50Z</time>
      </trkpt>
      <trkpt lat="42.96473" lon="0.31126">
        <ele>1454.3</ele>
        <time>2026-07-07T06:51:50Z</time>
      </trkpt>
      <trkpt lat="42.96474" lon="0.31126">
        <ele>1454.3</ele>
        <time>2026-07-07T06:51:51Z</time>
      </trkpt>
      <trkpt lat="42.96474" lon="0.31127">
        <ele>1455.3</ele>
        <time>2026-07-07T06:51:52Z</time>
      </trkpt>
      <trkpt lat="42.96474" lon="0.31127">
        <ele>1455.3</ele>
        <time>2026-07-07T06:51:52Z</time>
      </trkpt>
      <trkpt lat="42.96474" lon="0.31128">
        <ele>1456.3</ele>
        <time>2026-07-07T06:51:53Z</time>
      </trkpt>
      <trkpt lat="42.96475" lon="0.31128">
        <ele>1457.3</ele>
        <time>2026-07-07T06:51:53Z</time>
      </trkpt>
      <trkpt lat="42.96475" lon="0.31128">
        <ele>1457.3</ele>
        <time>2026-07-07T06:51:54Z</time>
      </trkpt>
      <trkpt lat="42.96476" lon="0.31128">
        <ele>1457.3</ele>
        <time>2026-07-07T06:51:55Z</time>
      </trkpt>
      <trkpt lat="42.96476" lon="0.31128">
        <ele>1457.3</ele>
        <time>2026-07-07T06:51:55Z</time>
      </trkpt>
      <trkpt lat="42.96477" lon="0.31129">
        <ele>1457.3</ele>
        <time>2026-07-07T06:51:56Z</time>
      </trkpt>
      <trkpt lat="42.96478" lon="0.3113">
        <ele>1457.3</ele>
        <time>2026-07-07T06:51:57Z</time>
      </trkpt>
      <trkpt lat="42.96478" lon="0.3113">
        <ele>1456.3</ele>
        <time>2026-07-07T06:51:58Z</time>
      </trkpt>
      <trkpt lat="42.96479" lon="0.3113">
        <ele>1456.3</ele>
        <time>2026-07-07T06:51:58Z</time>
      </trkpt>
      <trkpt lat="42.96479" lon="0.31131">
        <ele>1456.3</ele>
        <time>2026-07-07T06:51:59Z</time>
      </trkpt>
      <trkpt lat="42.9648" lon="0.31131">
        <ele>1457.3</ele>
        <time>2026-07-07T06:52:00Z</time>
      </trkpt>
      <trkpt lat="42.9648" lon="0.31131">
        <ele>1457.3</ele>
        <time>2026-07-07T06:52:00Z</time>
      </trkpt>
      <trkpt lat="42.96481" lon="0.31132">
        <ele>1457.3</ele>
        <time>2026-07-07T06:52:01Z</time>
      </trkpt>
      <trkpt lat="42.96481" lon="0.31132">
        <ele>1457.3</ele>
        <time>2026-07-07T06:52:02Z</time>
      </trkpt>
      <trkpt lat="42.96482" lon="0.31132">
        <ele>1457.3</ele>
        <time>2026-07-07T06:52:03Z</time>
      </trkpt>
      <trkpt lat="42.96482" lon="0.31132">
        <ele>1458.3</ele>
        <time>2026-07-07T06:52:03Z</time>
      </trkpt>
      <trkpt lat="42.96482" lon="0.31133">
        <ele>1458.3</ele>
        <time>2026-07-07T06:52:04Z</time>
      </trkpt>
      <trkpt lat="42.96483" lon="0.31134">
        <ele>1458.3</ele>
        <time>2026-07-07T06:52:05Z</time>
      </trkpt>
      <trkpt lat="42.96483" lon="0.31134">
        <ele>1458.3</ele>
        <time>2026-07-07T06:52:06Z</time>
      </trkpt>
      <trkpt lat="42.96483" lon="0.31135">
        <ele>1458.3</ele>
        <time>2026-07-07T06:52:06Z</time>
      </trkpt>
      <trkpt lat="42.96484" lon="0.31135">
        <ele>1458.3</ele>
        <time>2026-07-07T06:52:07Z</time>
      </trkpt>
      <trkpt lat="42.96484" lon="0.31136">
        <ele>1458.3</ele>
        <time>2026-07-07T06:52:08Z</time>
      </trkpt>
      <trkpt lat="42.96484" lon="0.31136">
        <ele>1458.3</ele>
        <time>2026-07-07T06:52:09Z</time>
      </trkpt>
      <trkpt lat="42.96485" lon="0.31136">
        <ele>1459.3</ele>
        <time>2026-07-07T06:52:09Z</time>
      </trkpt>
      <trkpt lat="42.96485" lon="0.31137">
        <ele>1459.3</ele>
        <time>2026-07-07T06:52:10Z</time>
      </trkpt>
      <trkpt lat="42.96486" lon="0.31137">
        <ele>1459.3</ele>
        <time>2026-07-07T06:52:11Z</time>
      </trkpt>
      <trkpt lat="42.96486" lon="0.31137">
        <ele>1459.3</ele>
        <time>2026-07-07T06:52:12Z</time>
      </trkpt>
      <trkpt lat="42.96486" lon="0.31137">
        <ele>1460.3</ele>
        <time>2026-07-07T06:52:12Z</time>
      </trkpt>
      <trkpt lat="42.96487" lon="0.31138">
        <ele>1460.3</ele>
        <time>2026-07-07T06:52:13Z</time>
      </trkpt>
      <trkpt lat="42.96487" lon="0.31138">
        <ele>1460.3</ele>
        <time>2026-07-07T06:52:14Z</time>
      </trkpt>
      <trkpt lat="42.96488" lon="0.31139">
        <ele>1460.3</ele>
        <time>2026-07-07T06:52:15Z</time>
      </trkpt>
      <trkpt lat="42.96488" lon="0.31139">
        <ele>1460.3</ele>
        <time>2026-07-07T06:52:15Z</time>
      </trkpt>
      <trkpt lat="42.96488" lon="0.3114">
        <ele>1460.3</ele>
        <time>2026-07-07T06:52:16Z</time>
      </trkpt>
      <trkpt lat="42.96488" lon="0.3114">
        <ele>1461.3</ele>
        <time>2026-07-07T06:52:17Z</time>
      </trkpt>
      <trkpt lat="42.96489" lon="0.31141">
        <ele>1461.3</ele>
        <time>2026-07-07T06:52:17Z</time>
      </trkpt>
      <trkpt lat="42.96489" lon="0.31141">
        <ele>1461.3</ele>
        <time>2026-07-07T06:52:18Z</time>
      </trkpt>
      <trkpt lat="42.96489" lon="0.31142">
        <ele>1461.3</ele>
        <time>2026-07-07T06:52:19Z</time>
      </trkpt>
      <trkpt lat="42.9649" lon="0.31142">
        <ele>1461.3</ele>
        <time>2026-07-07T06:52:19Z</time>
      </trkpt>
      <trkpt lat="42.9649" lon="0.31143">
        <ele>1461.3</ele>
        <time>2026-07-07T06:52:20Z</time>
      </trkpt>
      <trkpt lat="42.9649" lon="0.31143">
        <ele>1461.3</ele>
        <time>2026-07-07T06:52:21Z</time>
      </trkpt>
      <trkpt lat="42.9649" lon="0.31144">
        <ele>1461.3</ele>
        <time>2026-07-07T06:52:21Z</time>
      </trkpt>
      <trkpt lat="42.96491" lon="0.31145">
        <ele>1461.3</ele>
        <time>2026-07-07T06:52:22Z</time>
      </trkpt>
      <trkpt lat="42.96491" lon="0.31145">
        <ele>1461.3</ele>
        <time>2026-07-07T06:52:23Z</time>
      </trkpt>
      <trkpt lat="42.96491" lon="0.31146">
        <ele>1461.3</ele>
        <time>2026-07-07T06:52:23Z</time>
      </trkpt>
      <trkpt lat="42.96491" lon="0.31147">
        <ele>1461.3</ele>
        <time>2026-07-07T06:52:24Z</time>
      </trkpt>
      <trkpt lat="42.96491" lon="0.31147">
        <ele>1461.3</ele>
        <time>2026-07-07T06:52:25Z</time>
      </trkpt>
      <trkpt lat="42.96492" lon="0.31148">
        <ele>1462.3</ele>
        <time>2026-07-07T06:52:26Z</time>
      </trkpt>
      <trkpt lat="42.96492" lon="0.31149">
        <ele>1463.3</ele>
        <time>2026-07-07T06:52:26Z</time>
      </trkpt>
      <trkpt lat="42.96492" lon="0.3115">
        <ele>1463.3</ele>
        <time>2026-07-07T06:52:27Z</time>
      </trkpt>
      <trkpt lat="42.96492" lon="0.3115">
        <ele>1463.3</ele>
        <time>2026-07-07T06:52:28Z</time>
      </trkpt>
      <trkpt lat="42.96492" lon="0.31151">
        <ele>1463.3</ele>
        <time>2026-07-07T06:52:28Z</time>
      </trkpt>
      <trkpt lat="42.96493" lon="0.31151">
        <ele>1463.3</ele>
        <time>2026-07-07T06:52:29Z</time>
      </trkpt>
      <trkpt lat="42.96493" lon="0.31152">
        <ele>1463.3</ele>
        <time>2026-07-07T06:52:30Z</time>
      </trkpt>
      <trkpt lat="42.96493" lon="0.31152">
        <ele>1463.3</ele>
        <time>2026-07-07T06:52:31Z</time>
      </trkpt>
      <trkpt lat="42.96494" lon="0.31153">
        <ele>1463.3</ele>
        <time>2026-07-07T06:52:31Z</time>
      </trkpt>
      <trkpt lat="42.96494" lon="0.31153">
        <ele>1463.3</ele>
        <time>2026-07-07T06:52:32Z</time>
      </trkpt>
      <trkpt lat="42.96495" lon="0.31154">
        <ele>1463.3</ele>
        <time>2026-07-07T06:52:33Z</time>
      </trkpt>
      <trkpt lat="42.96495" lon="0.31154">
        <ele>1463.3</ele>
        <time>2026-07-07T06:52:33Z</time>
      </trkpt>
      <trkpt lat="42.96496" lon="0.31154">
        <ele>1463.3</ele>
        <time>2026-07-07T06:52:34Z</time>
      </trkpt>
      <trkpt lat="42.96497" lon="0.31154">
        <ele>1463.3</ele>
        <time>2026-07-07T06:52:35Z</time>
      </trkpt>
      <trkpt lat="42.96497" lon="0.31155">
        <ele>1464.3</ele>
        <time>2026-07-07T06:52:36Z</time>
      </trkpt>
      <trkpt lat="42.96498" lon="0.31155">
        <ele>1464.3</ele>
        <time>2026-07-07T06:52:36Z</time>
      </trkpt>
      <trkpt lat="42.96498" lon="0.31155">
        <ele>1464.3</ele>
        <time>2026-07-07T06:52:37Z</time>
      </trkpt>
      <trkpt lat="42.96498" lon="0.31155">
        <ele>1464.3</ele>
        <time>2026-07-07T06:52:38Z</time>
      </trkpt>
      <trkpt lat="42.96499" lon="0.31156">
        <ele>1465.3</ele>
        <time>2026-07-07T06:52:38Z</time>
      </trkpt>
      <trkpt lat="42.96499" lon="0.31156">
        <ele>1465.3</ele>
        <time>2026-07-07T06:52:39Z</time>
      </trkpt>
      <trkpt lat="42.965" lon="0.31157">
        <ele>1464.3</ele>
        <time>2026-07-07T06:52:40Z</time>
      </trkpt>
      <trkpt lat="42.965" lon="0.31157">
        <ele>1464.3</ele>
        <time>2026-07-07T06:52:41Z</time>
      </trkpt>
      <trkpt lat="42.965" lon="0.31158">
        <ele>1464.3</ele>
        <time>2026-07-07T06:52:41Z</time>
      </trkpt>
      <trkpt lat="42.96501" lon="0.31158">
        <ele>1464.3</ele>
        <time>2026-07-07T06:52:42Z</time>
      </trkpt>
      <trkpt lat="42.96501" lon="0.31159">
        <ele>1464.3</ele>
        <time>2026-07-07T06:52:43Z</time>
      </trkpt>
      <trkpt lat="42.96501" lon="0.31159">
        <ele>1465.3</ele>
        <time>2026-07-07T06:52:43Z</time>
      </trkpt>
      <trkpt lat="42.96502" lon="0.3116">
        <ele>1465.3</ele>
        <time>2026-07-07T06:52:44Z</time>
      </trkpt>
      <trkpt lat="42.96502" lon="0.3116">
        <ele>1464.3</ele>
        <time>2026-07-07T06:52:45Z</time>
      </trkpt>
      <trkpt lat="42.96502" lon="0.31161">
        <ele>1464.3</ele>
        <time>2026-07-07T06:52:46Z</time>
      </trkpt>
      <trkpt lat="42.96502" lon="0.31161">
        <ele>1465.3</ele>
        <time>2026-07-07T06:52:46Z</time>
      </trkpt>
      <trkpt lat="42.96503" lon="0.31162">
        <ele>1465.3</ele>
        <time>2026-07-07T06:52:47Z</time>
      </trkpt>
      <trkpt lat="42.96503" lon="0.31162">
        <ele>1464.3</ele>
        <time>2026-07-07T06:52:48Z</time>
      </trkpt>
      <trkpt lat="42.96504" lon="0.31163">
        <ele>1464.3</ele>
        <time>2026-07-07T06:52:48Z</time>
      </trkpt>
      <trkpt lat="42.96504" lon="0.31164">
        <ele>1464.3</ele>
        <time>2026-07-07T06:52:49Z</time>
      </trkpt>
      <trkpt lat="42.96505" lon="0.31164">
        <ele>1465.3</ele>
        <time>2026-07-07T06:52:50Z</time>
      </trkpt>
      <trkpt lat="42.96505" lon="0.31164">
        <ele>1465.3</ele>
        <time>2026-07-07T06:52:50Z</time>
      </trkpt>
      <trkpt lat="42.96506" lon="0.31165">
        <ele>1466.3</ele>
        <time>2026-07-07T06:52:51Z</time>
      </trkpt>
      <trkpt lat="42.96506" lon="0.31165">
        <ele>1466.3</ele>
        <time>2026-07-07T06:52:52Z</time>
      </trkpt>
      <trkpt lat="42.96507" lon="0.31166">
        <ele>1465.3</ele>
        <time>2026-07-07T06:52:53Z</time>
      </trkpt>
      <trkpt lat="42.96507" lon="0.31166">
        <ele>1466.3</ele>
        <time>2026-07-07T06:52:53Z</time>
      </trkpt>
      <trkpt lat="42.96508" lon="0.31166">
        <ele>1466.3</ele>
        <time>2026-07-07T06:52:54Z</time>
      </trkpt>
      <trkpt lat="42.96509" lon="0.31166">
        <ele>1467.3</ele>
        <time>2026-07-07T06:52:55Z</time>
      </trkpt>
      <trkpt lat="42.96509" lon="0.31167">
        <ele>1468.3</ele>
        <time>2026-07-07T06:52:56Z</time>
      </trkpt>
      <trkpt lat="42.96509" lon="0.31167">
        <ele>1469.3</ele>
        <time>2026-07-07T06:52:56Z</time>
      </trkpt>
      <trkpt lat="42.9651" lon="0.31168">
        <ele>1469.3</ele>
        <time>2026-07-07T06:52:57Z</time>
      </trkpt>
      <trkpt lat="42.9651" lon="0.31168">
        <ele>1469.3</ele>
        <time>2026-07-07T06:52:58Z</time>
      </trkpt>
      <trkpt lat="42.96511" lon="0.31169">
        <ele>1469.3</ele>
        <time>2026-07-07T06:52:59Z</time>
      </trkpt>
      <trkpt lat="42.96511" lon="0.31169">
        <ele>1469.3</ele>
        <time>2026-07-07T06:52:59Z</time>
      </trkpt>
      <trkpt lat="42.96511" lon="0.3117">
        <ele>1469.3</ele>
        <time>2026-07-07T06:53:00Z</time>
      </trkpt>
      <trkpt lat="42.96512" lon="0.3117">
        <ele>1469.3</ele>
        <time>2026-07-07T06:53:01Z</time>
      </trkpt>
      <trkpt lat="42.96512" lon="0.3117">
        <ele>1469.3</ele>
        <time>2026-07-07T06:53:01Z</time>
      </trkpt>
      <trkpt lat="42.96512" lon="0.31171">
        <ele>1469.3</ele>
        <time>2026-07-07T06:53:02Z</time>
      </trkpt>
      <trkpt lat="42.96513" lon="0.31171">
        <ele>1470.3</ele>
        <time>2026-07-07T06:53:03Z</time>
      </trkpt>
      <trkpt lat="42.96513" lon="0.31171">
        <ele>1470.3</ele>
        <time>2026-07-07T06:53:04Z</time>
      </trkpt>
      <trkpt lat="42.96514" lon="0.31172">
        <ele>1470.3</ele>
        <time>2026-07-07T06:53:04Z</time>
      </trkpt>
      <trkpt lat="42.96514" lon="0.31172">
        <ele>1470.3</ele>
        <time>2026-07-07T06:53:05Z</time>
      </trkpt>
      <trkpt lat="42.96515" lon="0.31172">
        <ele>1469.3</ele>
        <time>2026-07-07T06:53:06Z</time>
      </trkpt>
      <trkpt lat="42.96515" lon="0.31172">
        <ele>1469.3</ele>
        <time>2026-07-07T06:53:07Z</time>
      </trkpt>
      <trkpt lat="42.96516" lon="0.31172">
        <ele>1469.3</ele>
        <time>2026-07-07T06:53:07Z</time>
      </trkpt>
      <trkpt lat="42.96516" lon="0.31172">
        <ele>1470.3</ele>
        <time>2026-07-07T06:53:08Z</time>
      </trkpt>
      <trkpt lat="42.96517" lon="0.31172">
        <ele>1469.3</ele>
        <time>2026-07-07T06:53:09Z</time>
      </trkpt>
      <trkpt lat="42.96517" lon="0.31172">
        <ele>1469.3</ele>
        <time>2026-07-07T06:53:09Z</time>
      </trkpt>
      <trkpt lat="42.96517" lon="0.31173">
        <ele>1469.3</ele>
        <time>2026-07-07T06:53:10Z</time>
      </trkpt>
      <trkpt lat="42.96518" lon="0.31173">
        <ele>1470.3</ele>
        <time>2026-07-07T06:53:11Z</time>
      </trkpt>
      <trkpt lat="42.96518" lon="0.31173">
        <ele>1470.3</ele>
        <time>2026-07-07T06:53:12Z</time>
      </trkpt>
      <trkpt lat="42.96519" lon="0.31174">
        <ele>1470.3</ele>
        <time>2026-07-07T06:53:12Z</time>
      </trkpt>
      <trkpt lat="42.96519" lon="0.31174">
        <ele>1470.3</ele>
        <time>2026-07-07T06:53:13Z</time>
      </trkpt>
      <trkpt lat="42.96519" lon="0.31174">
        <ele>1469.3</ele>
        <time>2026-07-07T06:53:14Z</time>
      </trkpt>
      <trkpt lat="42.9652" lon="0.31174">
        <ele>1469.3</ele>
        <time>2026-07-07T06:53:14Z</time>
      </trkpt>
      <trkpt lat="42.96521" lon="0.31175">
        <ele>1469.3</ele>
        <time>2026-07-07T06:53:15Z</time>
      </trkpt>
      <trkpt lat="42.96521" lon="0.31175">
        <ele>1470.3</ele>
        <time>2026-07-07T06:53:16Z</time>
      </trkpt>
      <trkpt lat="42.96521" lon="0.31175">
        <ele>1470.3</ele>
        <time>2026-07-07T06:53:16Z</time>
      </trkpt>
      <trkpt lat="42.96522" lon="0.31176">
        <ele>1470.3</ele>
        <time>2026-07-07T06:53:17Z</time>
      </trkpt>
      <trkpt lat="42.96522" lon="0.31176">
        <ele>1471.3</ele>
        <time>2026-07-07T06:53:18Z</time>
      </trkpt>
      <trkpt lat="42.96522" lon="0.31176">
        <ele>1472.3</ele>
        <time>2026-07-07T06:53:19Z</time>
      </trkpt>
      <trkpt lat="42.96523" lon="0.31177">
        <ele>1472.3</ele>
        <time>2026-07-07T06:53:19Z</time>
      </trkpt>
      <trkpt lat="42.96523" lon="0.31177">
        <ele>1472.3</ele>
        <time>2026-07-07T06:53:20Z</time>
      </trkpt>
      <trkpt lat="42.96523" lon="0.31178">
        <ele>1472.3</ele>
        <time>2026-07-07T06:53:21Z</time>
      </trkpt>
      <trkpt lat="42.96523" lon="0.31178">
        <ele>1472.3</ele>
        <time>2026-07-07T06:53:21Z</time>
      </trkpt>
      <trkpt lat="42.96524" lon="0.31179">
        <ele>1472.3</ele>
        <time>2026-07-07T06:53:22Z</time>
      </trkpt>
      <trkpt lat="42.96524" lon="0.31179">
        <ele>1473.3</ele>
        <time>2026-07-07T06:53:23Z</time>
      </trkpt>
      <trkpt lat="42.96525" lon="0.3118">
        <ele>1473.3</ele>
        <time>2026-07-07T06:53:24Z</time>
      </trkpt>
      <trkpt lat="42.96525" lon="0.3118">
        <ele>1473.3</ele>
        <time>2026-07-07T06:53:24Z</time>
      </trkpt>
      <trkpt lat="42.96525" lon="0.31181">
        <ele>1473.3</ele>
        <time>2026-07-07T06:53:25Z</time>
      </trkpt>
      <trkpt lat="42.96526" lon="0.31181">
        <ele>1474.3</ele>
        <time>2026-07-07T06:53:26Z</time>
      </trkpt>
      <trkpt lat="42.96526" lon="0.31182">
        <ele>1474.3</ele>
        <time>2026-07-07T06:53:27Z</time>
      </trkpt>
      <trkpt lat="42.96526" lon="0.31182">
        <ele>1474.3</ele>
        <time>2026-07-07T06:53:27Z</time>
      </trkpt>
      <trkpt lat="42.96527" lon="0.31183">
        <ele>1474.3</ele>
        <time>2026-07-07T06:53:28Z</time>
      </trkpt>
      <trkpt lat="42.96527" lon="0.31184">
        <ele>1474.3</ele>
        <time>2026-07-07T06:53:29Z</time>
      </trkpt>
      <trkpt lat="42.96527" lon="0.31184">
        <ele>1475.3</ele>
        <time>2026-07-07T06:53:29Z</time>
      </trkpt>
      <trkpt lat="42.96528" lon="0.31185">
        <ele>1475.3</ele>
        <time>2026-07-07T06:53:30Z</time>
      </trkpt>
      <trkpt lat="42.96528" lon="0.31185">
        <ele>1475.3</ele>
        <time>2026-07-07T06:53:31Z</time>
      </trkpt>
      <trkpt lat="42.96529" lon="0.31185">
        <ele>1476.3</ele>
        <time>2026-07-07T06:53:32Z</time>
      </trkpt>
      <trkpt lat="42.96529" lon="0.31186">
        <ele>1475.3</ele>
        <time>2026-07-07T06:53:32Z</time>
      </trkpt>
      <trkpt lat="42.9653" lon="0.31186">
        <ele>1475.3</ele>
        <time>2026-07-07T06:53:33Z</time>
      </trkpt>
      <trkpt lat="42.96531" lon="0.31186">
        <ele>1475.3</ele>
        <time>2026-07-07T06:53:34Z</time>
      </trkpt>
      <trkpt lat="42.96531" lon="0.31187">
        <ele>1475.3</ele>
        <time>2026-07-07T06:53:35Z</time>
      </trkpt>
      <trkpt lat="42.96532" lon="0.31187">
        <ele>1475.3</ele>
        <time>2026-07-07T06:53:36Z</time>
      </trkpt>
      <trkpt lat="42.96532" lon="0.31187">
        <ele>1476.3</ele>
        <time>2026-07-07T06:53:36Z</time>
      </trkpt>
      <trkpt lat="42.96533" lon="0.31188">
        <ele>1476.3</ele>
        <time>2026-07-07T06:53:37Z</time>
      </trkpt>
      <trkpt lat="42.96533" lon="0.31189">
        <ele>1476.3</ele>
        <time>2026-07-07T06:53:38Z</time>
      </trkpt>
      <trkpt lat="42.96534" lon="0.31189">
        <ele>1476.3</ele>
        <time>2026-07-07T06:53:39Z</time>
      </trkpt>
      <trkpt lat="42.96534" lon="0.3119">
        <ele>1476.3</ele>
        <time>2026-07-07T06:53:39Z</time>
      </trkpt>
      <trkpt lat="42.96535" lon="0.3119">
        <ele>1476.3</ele>
        <time>2026-07-07T06:53:40Z</time>
      </trkpt>
      <trkpt lat="42.96535" lon="0.31191">
        <ele>1476.3</ele>
        <time>2026-07-07T06:53:41Z</time>
      </trkpt>
      <trkpt lat="42.96535" lon="0.31191">
        <ele>1476.3</ele>
        <time>2026-07-07T06:53:41Z</time>
      </trkpt>
      <trkpt lat="42.96535" lon="0.31192">
        <ele>1476.3</ele>
        <time>2026-07-07T06:53:42Z</time>
      </trkpt>
      <trkpt lat="42.96536" lon="0.31193">
        <ele>1476.3</ele>
        <time>2026-07-07T06:53:43Z</time>
      </trkpt>
      <trkpt lat="42.96536" lon="0.31193">
        <ele>1476.3</ele>
        <time>2026-07-07T06:53:44Z</time>
      </trkpt>
      <trkpt lat="42.96537" lon="0.31193">
        <ele>1476.3</ele>
        <time>2026-07-07T06:53:44Z</time>
      </trkpt>
      <trkpt lat="42.96537" lon="0.31193">
        <ele>1476.3</ele>
        <time>2026-07-07T06:53:45Z</time>
      </trkpt>
      <trkpt lat="42.96538" lon="0.31193">
        <ele>1477.3</ele>
        <time>2026-07-07T06:53:46Z</time>
      </trkpt>
      <trkpt lat="42.96538" lon="0.31194">
        <ele>1477.3</ele>
        <time>2026-07-07T06:53:46Z</time>
      </trkpt>
      <trkpt lat="42.96539" lon="0.31194">
        <ele>1477.3</ele>
        <time>2026-07-07T06:53:47Z</time>
      </trkpt>
      <trkpt lat="42.96539" lon="0.31195">
        <ele>1477.3</ele>
        <time>2026-07-07T06:53:48Z</time>
      </trkpt>
      <trkpt lat="42.9654" lon="0.31194">
        <ele>1477.3</ele>
        <time>2026-07-07T06:53:49Z</time>
      </trkpt>
      <trkpt lat="42.9654" lon="0.31194">
        <ele>1477.3</ele>
        <time>2026-07-07T06:53:49Z</time>
      </trkpt>
      <trkpt lat="42.96541" lon="0.31195">
        <ele>1477.3</ele>
        <time>2026-07-07T06:53:50Z</time>
      </trkpt>
      <trkpt lat="42.96542" lon="0.31195">
        <ele>1477.3</ele>
        <time>2026-07-07T06:53:51Z</time>
      </trkpt>
      <trkpt lat="42.96542" lon="0.31195">
        <ele>1477.3</ele>
        <time>2026-07-07T06:53:51Z</time>
      </trkpt>
      <trkpt lat="42.96542" lon="0.31195">
        <ele>1477.3</ele>
        <time>2026-07-07T06:53:52Z</time>
      </trkpt>
      <trkpt lat="42.96543" lon="0.31195">
        <ele>1478.3</ele>
        <time>2026-07-07T06:53:53Z</time>
      </trkpt>
      <trkpt lat="42.96543" lon="0.31196">
        <ele>1478.3</ele>
        <time>2026-07-07T06:53:54Z</time>
      </trkpt>
      <trkpt lat="42.96544" lon="0.31196">
        <ele>1479.3</ele>
        <time>2026-07-07T06:53:54Z</time>
      </trkpt>
      <trkpt lat="42.96544" lon="0.31196">
        <ele>1479.3</ele>
        <time>2026-07-07T06:53:55Z</time>
      </trkpt>
      <trkpt lat="42.96544" lon="0.31196">
        <ele>1479.3</ele>
        <time>2026-07-07T06:53:56Z</time>
      </trkpt>
      <trkpt lat="42.96544" lon="0.31197">
        <ele>1479.3</ele>
        <time>2026-07-07T06:53:57Z</time>
      </trkpt>
      <trkpt lat="42.96544" lon="0.31197">
        <ele>1480.3</ele>
        <time>2026-07-07T06:53:58Z</time>
      </trkpt>
      <trkpt lat="42.96545" lon="0.31197">
        <ele>1480.3</ele>
        <time>2026-07-07T06:53:58Z</time>
      </trkpt>
      <trkpt lat="42.96545" lon="0.31198">
        <ele>1480.3</ele>
        <time>2026-07-07T06:53:59Z</time>
      </trkpt>
      <trkpt lat="42.96546" lon="0.31198">
        <ele>1480.3</ele>
        <time>2026-07-07T06:54:00Z</time>
      </trkpt>
      <trkpt lat="42.96546" lon="0.31199">
        <ele>1480.3</ele>
        <time>2026-07-07T06:54:00Z</time>
      </trkpt>
      <trkpt lat="42.96546" lon="0.31199">
        <ele>1480.3</ele>
        <time>2026-07-07T06:54:01Z</time>
      </trkpt>
      <trkpt lat="42.96547" lon="0.312">
        <ele>1480.3</ele>
        <time>2026-07-07T06:54:02Z</time>
      </trkpt>
      <trkpt lat="42.96547" lon="0.312">
        <ele>1480.3</ele>
        <time>2026-07-07T06:54:03Z</time>
      </trkpt>
      <trkpt lat="42.96547" lon="0.31201">
        <ele>1481.3</ele>
        <time>2026-07-07T06:54:03Z</time>
      </trkpt>
      <trkpt lat="42.96548" lon="0.31202">
        <ele>1481.3</ele>
        <time>2026-07-07T06:54:04Z</time>
      </trkpt>
      <trkpt lat="42.96548" lon="0.31202">
        <ele>1481.3</ele>
        <time>2026-07-07T06:54:05Z</time>
      </trkpt>
      <trkpt lat="42.96548" lon="0.31203">
        <ele>1481.3</ele>
        <time>2026-07-07T06:54:06Z</time>
      </trkpt>
      <trkpt lat="42.96549" lon="0.31203">
        <ele>1481.3</ele>
        <time>2026-07-07T06:54:06Z</time>
      </trkpt>
      <trkpt lat="42.96549" lon="0.31204">
        <ele>1481.3</ele>
        <time>2026-07-07T06:54:07Z</time>
      </trkpt>
      <trkpt lat="42.9655" lon="0.31205">
        <ele>1480.3</ele>
        <time>2026-07-07T06:54:08Z</time>
      </trkpt>
      <trkpt lat="42.9655" lon="0.31205">
        <ele>1480.3</ele>
        <time>2026-07-07T06:54:09Z</time>
      </trkpt>
      <trkpt lat="42.9655" lon="0.31206">
        <ele>1480.3</ele>
        <time>2026-07-07T06:54:09Z</time>
      </trkpt>
      <trkpt lat="42.96551" lon="0.31207">
        <ele>1480.3</ele>
        <time>2026-07-07T06:54:10Z</time>
      </trkpt>
      <trkpt lat="42.96551" lon="0.31207">
        <ele>1481.3</ele>
        <time>2026-07-07T06:54:11Z</time>
      </trkpt>
      <trkpt lat="42.96551" lon="0.31208">
        <ele>1481.3</ele>
        <time>2026-07-07T06:54:11Z</time>
      </trkpt>
      <trkpt lat="42.96552" lon="0.31209">
        <ele>1481.3</ele>
        <time>2026-07-07T06:54:12Z</time>
      </trkpt>
      <trkpt lat="42.96552" lon="0.31209">
        <ele>1481.3</ele>
        <time>2026-07-07T06:54:13Z</time>
      </trkpt>
      <trkpt lat="42.96553" lon="0.3121">
        <ele>1480.3</ele>
        <time>2026-07-07T06:54:14Z</time>
      </trkpt>
      <trkpt lat="42.96553" lon="0.31211">
        <ele>1481.3</ele>
        <time>2026-07-07T06:54:14Z</time>
      </trkpt>
      <trkpt lat="42.96553" lon="0.31212">
        <ele>1481.3</ele>
        <time>2026-07-07T06:54:15Z</time>
      </trkpt>
      <trkpt lat="42.96554" lon="0.31212">
        <ele>1481.3</ele>
        <time>2026-07-07T06:54:16Z</time>
      </trkpt>
      <trkpt lat="42.96554" lon="0.31213">
        <ele>1481.3</ele>
        <time>2026-07-07T06:54:17Z</time>
      </trkpt>
      <trkpt lat="42.96554" lon="0.31214">
        <ele>1481.3</ele>
        <time>2026-07-07T06:54:17Z</time>
      </trkpt>
      <trkpt lat="42.96555" lon="0.31214">
        <ele>1481.3</ele>
        <time>2026-07-07T06:54:18Z</time>
      </trkpt>
      <trkpt lat="42.96555" lon="0.31215">
        <ele>1481.3</ele>
        <time>2026-07-07T06:54:19Z</time>
      </trkpt>
      <trkpt lat="42.96555" lon="0.31216">
        <ele>1481.3</ele>
        <time>2026-07-07T06:54:20Z</time>
      </trkpt>
      <trkpt lat="42.96556" lon="0.31216">
        <ele>1481.3</ele>
        <time>2026-07-07T06:54:20Z</time>
      </trkpt>
      <trkpt lat="42.96556" lon="0.31217">
        <ele>1481.3</ele>
        <time>2026-07-07T06:54:21Z</time>
      </trkpt>
      <trkpt lat="42.96556" lon="0.31217">
        <ele>1481.3</ele>
        <time>2026-07-07T06:54:22Z</time>
      </trkpt>
      <trkpt lat="42.96556" lon="0.31218">
        <ele>1482.3</ele>
        <time>2026-07-07T06:54:22Z</time>
      </trkpt>
      <trkpt lat="42.96557" lon="0.31219">
        <ele>1482.3</ele>
        <time>2026-07-07T06:54:23Z</time>
      </trkpt>
      <trkpt lat="42.96557" lon="0.31219">
        <ele>1482.3</ele>
        <time>2026-07-07T06:54:24Z</time>
      </trkpt>
      <trkpt lat="42.96557" lon="0.3122">
        <ele>1483.3</ele>
        <time>2026-07-07T06:54:25Z</time>
      </trkpt>
      <trkpt lat="42.96557" lon="0.3122">
        <ele>1483.3</ele>
        <time>2026-07-07T06:54:25Z</time>
      </trkpt>
      <trkpt lat="42.96557" lon="0.31221">
        <ele>1483.3</ele>
        <time>2026-07-07T06:54:26Z</time>
      </trkpt>
      <trkpt lat="42.96558" lon="0.31221">
        <ele>1484.3</ele>
        <time>2026-07-07T06:54:27Z</time>
      </trkpt>
      <trkpt lat="42.96558" lon="0.31222">
        <ele>1484.3</ele>
        <time>2026-07-07T06:54:28Z</time>
      </trkpt>
      <trkpt lat="42.96558" lon="0.31222">
        <ele>1484.3</ele>
        <time>2026-07-07T06:54:28Z</time>
      </trkpt>
      <trkpt lat="42.96558" lon="0.31223">
        <ele>1484.3</ele>
        <time>2026-07-07T06:54:29Z</time>
      </trkpt>
      <trkpt lat="42.96559" lon="0.31223">
        <ele>1484.3</ele>
        <time>2026-07-07T06:54:30Z</time>
      </trkpt>
      <trkpt lat="42.96559" lon="0.31223">
        <ele>1484.3</ele>
        <time>2026-07-07T06:54:30Z</time>
      </trkpt>
      <trkpt lat="42.9656" lon="0.31224">
        <ele>1484.3</ele>
        <time>2026-07-07T06:54:31Z</time>
      </trkpt>
      <trkpt lat="42.9656" lon="0.31225">
        <ele>1484.3</ele>
        <time>2026-07-07T06:54:32Z</time>
      </trkpt>
      <trkpt lat="42.96561" lon="0.31225">
        <ele>1484.3</ele>
        <time>2026-07-07T06:54:33Z</time>
      </trkpt>
      <trkpt lat="42.96561" lon="0.31226">
        <ele>1484.3</ele>
        <time>2026-07-07T06:54:33Z</time>
      </trkpt>
      <trkpt lat="42.96561" lon="0.31226">
        <ele>1484.3</ele>
        <time>2026-07-07T06:54:34Z</time>
      </trkpt>
      <trkpt lat="42.96562" lon="0.31227">
        <ele>1484.3</ele>
        <time>2026-07-07T06:54:35Z</time>
      </trkpt>
      <trkpt lat="42.96562" lon="0.31227">
        <ele>1485.3</ele>
        <time>2026-07-07T06:54:35Z</time>
      </trkpt>
      <trkpt lat="42.96563" lon="0.31228">
        <ele>1485.3</ele>
        <time>2026-07-07T06:54:36Z</time>
      </trkpt>
      <trkpt lat="42.96563" lon="0.31228">
        <ele>1485.3</ele>
        <time>2026-07-07T06:54:37Z</time>
      </trkpt>
      <trkpt lat="42.96564" lon="0.31229">
        <ele>1486.3</ele>
        <time>2026-07-07T06:54:37Z</time>
      </trkpt>
      <trkpt lat="42.96564" lon="0.31229">
        <ele>1486.3</ele>
        <time>2026-07-07T06:54:38Z</time>
      </trkpt>
      <trkpt lat="42.96564" lon="0.31229">
        <ele>1486.3</ele>
        <time>2026-07-07T06:54:39Z</time>
      </trkpt>
      <trkpt lat="42.96565" lon="0.3123">
        <ele>1486.3</ele>
        <time>2026-07-07T06:54:40Z</time>
      </trkpt>
      <trkpt lat="42.96565" lon="0.3123">
        <ele>1486.3</ele>
        <time>2026-07-07T06:54:40Z</time>
      </trkpt>
      <trkpt lat="42.96566" lon="0.31231">
        <ele>1486.3</ele>
        <time>2026-07-07T06:54:41Z</time>
      </trkpt>
      <trkpt lat="42.96566" lon="0.31231">
        <ele>1487.3</ele>
        <time>2026-07-07T06:54:42Z</time>
      </trkpt>
      <trkpt lat="42.96566" lon="0.31231">
        <ele>1487.3</ele>
        <time>2026-07-07T06:54:42Z</time>
      </trkpt>
      <trkpt lat="42.96567" lon="0.31232">
        <ele>1487.3</ele>
        <time>2026-07-07T06:54:43Z</time>
      </trkpt>
      <trkpt lat="42.96568" lon="0.31232">
        <ele>1487.3</ele>
        <time>2026-07-07T06:54:44Z</time>
      </trkpt>
      <trkpt lat="42.96568" lon="0.31232">
        <ele>1487.3</ele>
        <time>2026-07-07T06:54:45Z</time>
      </trkpt>
      <trkpt lat="42.96568" lon="0.31233">
        <ele>1488.3</ele>
        <time>2026-07-07T06:54:45Z</time>
      </trkpt>
      <trkpt lat="42.96569" lon="0.31233">
        <ele>1488.3</ele>
        <time>2026-07-07T06:54:46Z</time>
      </trkpt>
      <trkpt lat="42.96569" lon="0.31233">
        <ele>1488.3</ele>
        <time>2026-07-07T06:54:47Z</time>
      </trkpt>
      <trkpt lat="42.96569" lon="0.31233">
        <ele>1488.3</ele>
        <time>2026-07-07T06:54:48Z</time>
      </trkpt>
      <trkpt lat="42.9657" lon="0.31234">
        <ele>1488.3</ele>
        <time>2026-07-07T06:54:48Z</time>
      </trkpt>
      <trkpt lat="42.9657" lon="0.31234">
        <ele>1489.3</ele>
        <time>2026-07-07T06:54:49Z</time>
      </trkpt>
      <trkpt lat="42.96571" lon="0.31234">
        <ele>1489.3</ele>
        <time>2026-07-07T06:54:50Z</time>
      </trkpt>
      <trkpt lat="42.96571" lon="0.31234">
        <ele>1488.3</ele>
        <time>2026-07-07T06:54:50Z</time>
      </trkpt>
      <trkpt lat="42.96572" lon="0.31235">
        <ele>1488.3</ele>
        <time>2026-07-07T06:54:51Z</time>
      </trkpt>
      <trkpt lat="42.96572" lon="0.31235">
        <ele>1488.3</ele>
        <time>2026-07-07T06:54:52Z</time>
      </trkpt>
      <trkpt lat="42.96573" lon="0.31235">
        <ele>1488.3</ele>
        <time>2026-07-07T06:54:52Z</time>
      </trkpt>
      <trkpt lat="42.96573" lon="0.31236">
        <ele>1488.3</ele>
        <time>2026-07-07T06:54:53Z</time>
      </trkpt>
      <trkpt lat="42.96574" lon="0.31236">
        <ele>1488.3</ele>
        <time>2026-07-07T06:54:54Z</time>
      </trkpt>
      <trkpt lat="42.96574" lon="0.31236">
        <ele>1489.3</ele>
        <time>2026-07-07T06:54:54Z</time>
      </trkpt>
      <trkpt lat="42.96575" lon="0.31237">
        <ele>1489.3</ele>
        <time>2026-07-07T06:54:55Z</time>
      </trkpt>
      <trkpt lat="42.96575" lon="0.31237">
        <ele>1488.3</ele>
        <time>2026-07-07T06:54:56Z</time>
      </trkpt>
      <trkpt lat="42.96576" lon="0.31238">
        <ele>1488.3</ele>
        <time>2026-07-07T06:54:56Z</time>
      </trkpt>
      <trkpt lat="42.96576" lon="0.31238">
        <ele>1488.3</ele>
        <time>2026-07-07T06:54:57Z</time>
      </trkpt>
      <trkpt lat="42.96577" lon="0.31238">
        <ele>1488.3</ele>
        <time>2026-07-07T06:54:58Z</time>
      </trkpt>
      <trkpt lat="42.96577" lon="0.31239">
        <ele>1488.3</ele>
        <time>2026-07-07T06:54:58Z</time>
      </trkpt>
      <trkpt lat="42.96578" lon="0.31239">
        <ele>1488.3</ele>
        <time>2026-07-07T06:54:59Z</time>
      </trkpt>
      <trkpt lat="42.96578" lon="0.31239">
        <ele>1488.3</ele>
        <time>2026-07-07T06:55:00Z</time>
      </trkpt>
      <trkpt lat="42.96578" lon="0.3124">
        <ele>1487.3</ele>
        <time>2026-07-07T06:55:01Z</time>
      </trkpt>
      <trkpt lat="42.96579" lon="0.3124">
        <ele>1488.3</ele>
        <time>2026-07-07T06:55:01Z</time>
      </trkpt>
      <trkpt lat="42.96579" lon="0.31241">
        <ele>1488.3</ele>
        <time>2026-07-07T06:55:02Z</time>
      </trkpt>
      <trkpt lat="42.96579" lon="0.31242">
        <ele>1489.3</ele>
        <time>2026-07-07T06:55:03Z</time>
      </trkpt>
      <trkpt lat="42.96579" lon="0.31242">
        <ele>1489.3</ele>
        <time>2026-07-07T06:55:03Z</time>
      </trkpt>
      <trkpt lat="42.96579" lon="0.31244">
        <ele>1489.3</ele>
        <time>2026-07-07T06:55:04Z</time>
      </trkpt>
      <trkpt lat="42.96579" lon="0.31244">
        <ele>1490.3</ele>
        <time>2026-07-07T06:55:05Z</time>
      </trkpt>
      <trkpt lat="42.96579" lon="0.31245">
        <ele>1490.3</ele>
        <time>2026-07-07T06:55:05Z</time>
      </trkpt>
      <trkpt lat="42.96579" lon="0.31246">
        <ele>1490.3</ele>
        <time>2026-07-07T06:55:06Z</time>
      </trkpt>
      <trkpt lat="42.96579" lon="0.31247">
        <ele>1490.3</ele>
        <time>2026-07-07T06:55:07Z</time>
      </trkpt>
      <trkpt lat="42.96579" lon="0.31247">
        <ele>1490.3</ele>
        <time>2026-07-07T06:55:07Z</time>
      </trkpt>
      <trkpt lat="42.9658" lon="0.31248">
        <ele>1490.3</ele>
        <time>2026-07-07T06:55:08Z</time>
      </trkpt>
      <trkpt lat="42.9658" lon="0.31248">
        <ele>1490.3</ele>
        <time>2026-07-07T06:55:09Z</time>
      </trkpt>
      <trkpt lat="42.96581" lon="0.31248">
        <ele>1491.3</ele>
        <time>2026-07-07T06:55:09Z</time>
      </trkpt>
      <trkpt lat="42.96581" lon="0.31249">
        <ele>1491.3</ele>
        <time>2026-07-07T06:55:10Z</time>
      </trkpt>
      <trkpt lat="42.96581" lon="0.31249">
        <ele>1491.3</ele>
        <time>2026-07-07T06:55:11Z</time>
      </trkpt>
      <trkpt lat="42.96582" lon="0.31249">
        <ele>1490.3</ele>
        <time>2026-07-07T06:55:12Z</time>
      </trkpt>
      <trkpt lat="42.96582" lon="0.3125">
        <ele>1491.3</ele>
        <time>2026-07-07T06:55:12Z</time>
      </trkpt>
      <trkpt lat="42.96583" lon="0.3125">
        <ele>1491.3</ele>
        <time>2026-07-07T06:55:13Z</time>
      </trkpt>
      <trkpt lat="42.96583" lon="0.3125">
        <ele>1491.3</ele>
        <time>2026-07-07T06:55:14Z</time>
      </trkpt>
      <trkpt lat="42.96584" lon="0.3125">
        <ele>1491.3</ele>
        <time>2026-07-07T06:55:14Z</time>
      </trkpt>
      <trkpt lat="42.96584" lon="0.31251">
        <ele>1491.3</ele>
        <time>2026-07-07T06:55:15Z</time>
      </trkpt>
      <trkpt lat="42.96585" lon="0.31251">
        <ele>1492.3</ele>
        <time>2026-07-07T06:55:16Z</time>
      </trkpt>
      <trkpt lat="42.96585" lon="0.31251">
        <ele>1492.3</ele>
        <time>2026-07-07T06:55:17Z</time>
      </trkpt>
      <trkpt lat="42.96585" lon="0.31252">
        <ele>1492.3</ele>
        <time>2026-07-07T06:55:17Z</time>
      </trkpt>
      <trkpt lat="42.96586" lon="0.31252">
        <ele>1492.3</ele>
        <time>2026-07-07T06:55:18Z</time>
      </trkpt>
      <trkpt lat="42.96587" lon="0.31252">
        <ele>1493.3</ele>
        <time>2026-07-07T06:55:19Z</time>
      </trkpt>
      <trkpt lat="42.96587" lon="0.31252">
        <ele>1493.3</ele>
        <time>2026-07-07T06:55:19Z</time>
      </trkpt>
      <trkpt lat="42.96588" lon="0.31253">
        <ele>1493.3</ele>
        <time>2026-07-07T06:55:20Z</time>
      </trkpt>
      <trkpt lat="42.96588" lon="0.31253">
        <ele>1493.3</ele>
        <time>2026-07-07T06:55:21Z</time>
      </trkpt>
      <trkpt lat="42.96588" lon="0.31254">
        <ele>1493.3</ele>
        <time>2026-07-07T06:55:22Z</time>
      </trkpt>
      <trkpt lat="42.96589" lon="0.31254">
        <ele>1493.3</ele>
        <time>2026-07-07T06:55:22Z</time>
      </trkpt>
      <trkpt lat="42.96589" lon="0.31255">
        <ele>1493.3</ele>
        <time>2026-07-07T06:55:23Z</time>
      </trkpt>
      <trkpt lat="42.9659" lon="0.31255">
        <ele>1494.3</ele>
        <time>2026-07-07T06:55:24Z</time>
      </trkpt>
      <trkpt lat="42.9659" lon="0.31255">
        <ele>1494.3</ele>
        <time>2026-07-07T06:55:25Z</time>
      </trkpt>
      <trkpt lat="42.96591" lon="0.31256">
        <ele>1494.3</ele>
        <time>2026-07-07T06:55:25Z</time>
      </trkpt>
      <trkpt lat="42.96591" lon="0.31256">
        <ele>1494.3</ele>
        <time>2026-07-07T06:55:26Z</time>
      </trkpt>
      <trkpt lat="42.96592" lon="0.31257">
        <ele>1494.3</ele>
        <time>2026-07-07T06:55:27Z</time>
      </trkpt>
      <trkpt lat="42.96592" lon="0.31257">
        <ele>1494.3</ele>
        <time>2026-07-07T06:55:28Z</time>
      </trkpt>
      <trkpt lat="42.96593" lon="0.31257">
        <ele>1494.3</ele>
        <time>2026-07-07T06:55:28Z</time>
      </trkpt>
      <trkpt lat="42.96593" lon="0.31258">
        <ele>1494.3</ele>
        <time>2026-07-07T06:55:29Z</time>
      </trkpt>
      <trkpt lat="42.96594" lon="0.31258">
        <ele>1495.3</ele>
        <time>2026-07-07T06:55:30Z</time>
      </trkpt>
      <trkpt lat="42.96594" lon="0.31258">
        <ele>1494.3</ele>
        <time>2026-07-07T06:55:30Z</time>
      </trkpt>
      <trkpt lat="42.96595" lon="0.31259">
        <ele>1494.3</ele>
        <time>2026-07-07T06:55:31Z</time>
      </trkpt>
      <trkpt lat="42.96595" lon="0.31259">
        <ele>1494.3</ele>
        <time>2026-07-07T06:55:32Z</time>
      </trkpt>
      <trkpt lat="42.96595" lon="0.31259">
        <ele>1494.3</ele>
        <time>2026-07-07T06:55:32Z</time>
      </trkpt>
      <trkpt lat="42.96596" lon="0.3126">
        <ele>1494.3</ele>
        <time>2026-07-07T06:55:33Z</time>
      </trkpt>
      <trkpt lat="42.96596" lon="0.3126">
        <ele>1495.3</ele>
        <time>2026-07-07T06:55:34Z</time>
      </trkpt>
      <trkpt lat="42.96597" lon="0.31261">
        <ele>1494.3</ele>
        <time>2026-07-07T06:55:35Z</time>
      </trkpt>
      <trkpt lat="42.96597" lon="0.31261">
        <ele>1495.3</ele>
        <time>2026-07-07T06:55:35Z</time>
      </trkpt>
      <trkpt lat="42.96598" lon="0.31262">
        <ele>1495.3</ele>
        <time>2026-07-07T06:55:36Z</time>
      </trkpt>
      <trkpt lat="42.96599" lon="0.31262">
        <ele>1495.3</ele>
        <time>2026-07-07T06:55:37Z</time>
      </trkpt>
      <trkpt lat="42.96599" lon="0.31262">
        <ele>1495.3</ele>
        <time>2026-07-07T06:55:37Z</time>
      </trkpt>
      <trkpt lat="42.966" lon="0.31262">
        <ele>1495.3</ele>
        <time>2026-07-07T06:55:38Z</time>
      </trkpt>
      <trkpt lat="42.966" lon="0.31262">
        <ele>1496.3</ele>
        <time>2026-07-07T06:55:39Z</time>
      </trkpt>
      <trkpt lat="42.96601" lon="0.31262">
        <ele>1496.3</ele>
        <time>2026-07-07T06:55:39Z</time>
      </trkpt>
      <trkpt lat="42.96601" lon="0.31262">
        <ele>1496.3</ele>
        <time>2026-07-07T06:55:40Z</time>
      </trkpt>
      <trkpt lat="42.96602" lon="0.31262">
        <ele>1497.3</ele>
        <time>2026-07-07T06:55:41Z</time>
      </trkpt>
      <trkpt lat="42.96602" lon="0.31263">
        <ele>1497.3</ele>
        <time>2026-07-07T06:55:42Z</time>
      </trkpt>
      <trkpt lat="42.96603" lon="0.31264">
        <ele>1497.3</ele>
        <time>2026-07-07T06:55:43Z</time>
      </trkpt>
      <trkpt lat="42.96603" lon="0.31264">
        <ele>1498.3</ele>
        <time>2026-07-07T06:55:43Z</time>
      </trkpt>
      <trkpt lat="42.96603" lon="0.31264">
        <ele>1498.3</ele>
        <time>2026-07-07T06:55:44Z</time>
      </trkpt>
      <trkpt lat="42.96603" lon="0.31265">
        <ele>1498.3</ele>
        <time>2026-07-07T06:55:45Z</time>
      </trkpt>
      <trkpt lat="42.96604" lon="0.31266">
        <ele>1499.3</ele>
        <time>2026-07-07T06:55:46Z</time>
      </trkpt>
      <trkpt lat="42.96604" lon="0.31266">
        <ele>1499.3</ele>
        <time>2026-07-07T06:55:46Z</time>
      </trkpt>
      <trkpt lat="42.96605" lon="0.31267">
        <ele>1499.3</ele>
        <time>2026-07-07T06:55:47Z</time>
      </trkpt>
      <trkpt lat="42.96605" lon="0.31267">
        <ele>1499.3</ele>
        <time>2026-07-07T06:55:48Z</time>
      </trkpt>
      <trkpt lat="42.96606" lon="0.31268">
        <ele>1499.3</ele>
        <time>2026-07-07T06:55:48Z</time>
      </trkpt>
      <trkpt lat="42.96606" lon="0.31269">
        <ele>1499.3</ele>
        <time>2026-07-07T06:55:49Z</time>
      </trkpt>
      <trkpt lat="42.96607" lon="0.3127">
        <ele>1499.3</ele>
        <time>2026-07-07T06:55:50Z</time>
      </trkpt>
      <trkpt lat="42.96607" lon="0.3127">
        <ele>1499.3</ele>
        <time>2026-07-07T06:55:50Z</time>
      </trkpt>
      <trkpt lat="42.96607" lon="0.31271">
        <ele>1499.3</ele>
        <time>2026-07-07T06:55:51Z</time>
      </trkpt>
      <trkpt lat="42.96608" lon="0.31271">
        <ele>1500.3</ele>
        <time>2026-07-07T06:55:52Z</time>
      </trkpt>
      <trkpt lat="42.96608" lon="0.31272">
        <ele>1500.3</ele>
        <time>2026-07-07T06:55:52Z</time>
      </trkpt>
      <trkpt lat="42.96608" lon="0.31272">
        <ele>1500.3</ele>
        <time>2026-07-07T06:55:53Z</time>
      </trkpt>
      <trkpt lat="42.96609" lon="0.31273">
        <ele>1500.3</ele>
        <time>2026-07-07T06:55:54Z</time>
      </trkpt>
      <trkpt lat="42.96609" lon="0.31273">
        <ele>1500.3</ele>
        <time>2026-07-07T06:55:54Z</time>
      </trkpt>
      <trkpt lat="42.9661" lon="0.31274">
        <ele>1500.3</ele>
        <time>2026-07-07T06:55:55Z</time>
      </trkpt>
      <trkpt lat="42.9661" lon="0.31274">
        <ele>1500.3</ele>
        <time>2026-07-07T06:55:56Z</time>
      </trkpt>
      <trkpt lat="42.96611" lon="0.31275">
        <ele>1500.3</ele>
        <time>2026-07-07T06:55:57Z</time>
      </trkpt>
      <trkpt lat="42.96611" lon="0.31276">
        <ele>1500.3</ele>
        <time>2026-07-07T06:55:57Z</time>
      </trkpt>
      <trkpt lat="42.96611" lon="0.31276">
        <ele>1500.3</ele>
        <time>2026-07-07T06:55:58Z</time>
      </trkpt>
      <trkpt lat="42.96612" lon="0.31277">
        <ele>1501.3</ele>
        <time>2026-07-07T06:55:59Z</time>
      </trkpt>
      <trkpt lat="42.96612" lon="0.31277">
        <ele>1501.3</ele>
        <time>2026-07-07T06:55:59Z</time>
      </trkpt>
      <trkpt lat="42.96613" lon="0.31278">
        <ele>1501.3</ele>
        <time>2026-07-07T06:56:00Z</time>
      </trkpt>
      <trkpt lat="42.96613" lon="0.31279">
        <ele>1502.3</ele>
        <time>2026-07-07T06:56:01Z</time>
      </trkpt>
      <trkpt lat="42.96614" lon="0.3128">
        <ele>1502.3</ele>
        <time>2026-07-07T06:56:01Z</time>
      </trkpt>
      <trkpt lat="42.96614" lon="0.31281">
        <ele>1502.3</ele>
        <time>2026-07-07T06:56:02Z</time>
      </trkpt>
      <trkpt lat="42.96614" lon="0.31281">
        <ele>1502.3</ele>
        <time>2026-07-07T06:56:03Z</time>
      </trkpt>
      <trkpt lat="42.96614" lon="0.31282">
        <ele>1502.3</ele>
        <time>2026-07-07T06:56:03Z</time>
      </trkpt>
      <trkpt lat="42.96614" lon="0.31283">
        <ele>1502.3</ele>
        <time>2026-07-07T06:56:04Z</time>
      </trkpt>
      <trkpt lat="42.96614" lon="0.31283">
        <ele>1503.3</ele>
        <time>2026-07-07T06:56:04Z</time>
      </trkpt>
      <trkpt lat="42.96615" lon="0.31284">
        <ele>1503.3</ele>
        <time>2026-07-07T06:56:05Z</time>
      </trkpt>
      <trkpt lat="42.96615" lon="0.31285">
        <ele>1503.3</ele>
        <time>2026-07-07T06:56:06Z</time>
      </trkpt>
      <trkpt lat="42.96615" lon="0.31286">
        <ele>1503.3</ele>
        <time>2026-07-07T06:56:07Z</time>
      </trkpt>
      <trkpt lat="42.96615" lon="0.31288">
        <ele>1503.3</ele>
        <time>2026-07-07T06:56:08Z</time>
      </trkpt>
      <trkpt lat="42.96615" lon="0.31289">
        <ele>1503.3</ele>
        <time>2026-07-07T06:56:09Z</time>
      </trkpt>
      <trkpt lat="42.96615" lon="0.31289">
        <ele>1504.3</ele>
        <time>2026-07-07T06:56:10Z</time>
      </trkpt>
      <trkpt lat="42.96615" lon="0.3129">
        <ele>1504.3</ele>
        <time>2026-07-07T06:56:10Z</time>
      </trkpt>
      <trkpt lat="42.96616" lon="0.31291">
        <ele>1504.3</ele>
        <time>2026-07-07T06:56:11Z</time>
      </trkpt>
      <trkpt lat="42.96616" lon="0.31292">
        <ele>1504.3</ele>
        <time>2026-07-07T06:56:12Z</time>
      </trkpt>
      <trkpt lat="42.96616" lon="0.31292">
        <ele>1504.3</ele>
        <time>2026-07-07T06:56:12Z</time>
      </trkpt>
      <trkpt lat="42.96617" lon="0.31293">
        <ele>1504.3</ele>
        <time>2026-07-07T06:56:13Z</time>
      </trkpt>
      <trkpt lat="42.96618" lon="0.31294">
        <ele>1504.3</ele>
        <time>2026-07-07T06:56:14Z</time>
      </trkpt>
      <trkpt lat="42.96618" lon="0.31294">
        <ele>1504.3</ele>
        <time>2026-07-07T06:56:14Z</time>
      </trkpt>
      <trkpt lat="42.96619" lon="0.31295">
        <ele>1504.3</ele>
        <time>2026-07-07T06:56:15Z</time>
      </trkpt>
      <trkpt lat="42.9662" lon="0.31295">
        <ele>1504.3</ele>
        <time>2026-07-07T06:56:16Z</time>
      </trkpt>
      <trkpt lat="42.9662" lon="0.31295">
        <ele>1504.3</ele>
        <time>2026-07-07T06:56:16Z</time>
      </trkpt>
      <trkpt lat="42.96621" lon="0.31296">
        <ele>1504.3</ele>
        <time>2026-07-07T06:56:17Z</time>
      </trkpt>
      <trkpt lat="42.96622" lon="0.31296">
        <ele>1504.3</ele>
        <time>2026-07-07T06:56:18Z</time>
      </trkpt>
      <trkpt lat="42.96622" lon="0.31296">
        <ele>1505.3</ele>
        <time>2026-07-07T06:56:18Z</time>
      </trkpt>
      <trkpt lat="42.96623" lon="0.31297">
        <ele>1505.3</ele>
        <time>2026-07-07T06:56:19Z</time>
      </trkpt>
      <trkpt lat="42.96623" lon="0.31297">
        <ele>1505.3</ele>
        <time>2026-07-07T06:56:20Z</time>
      </trkpt>
      <trkpt lat="42.96624" lon="0.31297">
        <ele>1505.3</ele>
        <time>2026-07-07T06:56:20Z</time>
      </trkpt>
      <trkpt lat="42.96625" lon="0.31298">
        <ele>1505.3</ele>
        <time>2026-07-07T06:56:21Z</time>
      </trkpt>
      <trkpt lat="42.96625" lon="0.31298">
        <ele>1505.3</ele>
        <time>2026-07-07T06:56:22Z</time>
      </trkpt>
      <trkpt lat="42.96626" lon="0.31298">
        <ele>1505.3</ele>
        <time>2026-07-07T06:56:22Z</time>
      </trkpt>
      <trkpt lat="42.96626" lon="0.31299">
        <ele>1505.3</ele>
        <time>2026-07-07T06:56:23Z</time>
      </trkpt>
      <trkpt lat="42.96627" lon="0.31299">
        <ele>1505.3</ele>
        <time>2026-07-07T06:56:23Z</time>
      </trkpt>
      <trkpt lat="42.96627" lon="0.313">
        <ele>1505.3</ele>
        <time>2026-07-07T06:56:24Z</time>
      </trkpt>
      <trkpt lat="42.96628" lon="0.31301">
        <ele>1505.3</ele>
        <time>2026-07-07T06:56:25Z</time>
      </trkpt>
      <trkpt lat="42.96628" lon="0.31301">
        <ele>1505.3</ele>
        <time>2026-07-07T06:56:25Z</time>
      </trkpt>
      <trkpt lat="42.96629" lon="0.31302">
        <ele>1505.3</ele>
        <time>2026-07-07T06:56:26Z</time>
      </trkpt>
      <trkpt lat="42.96629" lon="0.31302">
        <ele>1505.3</ele>
        <time>2026-07-07T06:56:27Z</time>
      </trkpt>
      <trkpt lat="42.96629" lon="0.31303">
        <ele>1505.3</ele>
        <time>2026-07-07T06:56:27Z</time>
      </trkpt>
      <trkpt lat="42.9663" lon="0.31304">
        <ele>1505.3</ele>
        <time>2026-07-07T06:56:28Z</time>
      </trkpt>
      <trkpt lat="42.9663" lon="0.31304">
        <ele>1504.3</ele>
        <time>2026-07-07T06:56:29Z</time>
      </trkpt>
      <trkpt lat="42.96631" lon="0.31305">
        <ele>1505.3</ele>
        <time>2026-07-07T06:56:30Z</time>
      </trkpt>
      <trkpt lat="42.96631" lon="0.31306">
        <ele>1505.3</ele>
        <time>2026-07-07T06:56:30Z</time>
      </trkpt>
      <trkpt lat="42.96632" lon="0.31307">
        <ele>1505.3</ele>
        <time>2026-07-07T06:56:31Z</time>
      </trkpt>
      <trkpt lat="42.96632" lon="0.31307">
        <ele>1505.3</ele>
        <time>2026-07-07T06:56:32Z</time>
      </trkpt>
      <trkpt lat="42.96632" lon="0.31308">
        <ele>1505.3</ele>
        <time>2026-07-07T06:56:32Z</time>
      </trkpt>
      <trkpt lat="42.96633" lon="0.31309">
        <ele>1506.3</ele>
        <time>2026-07-07T06:56:33Z</time>
      </trkpt>
      <trkpt lat="42.96633" lon="0.31309">
        <ele>1506.3</ele>
        <time>2026-07-07T06:56:33Z</time>
      </trkpt>
      <trkpt lat="42.96634" lon="0.3131">
        <ele>1506.3</ele>
        <time>2026-07-07T06:56:34Z</time>
      </trkpt>
      <trkpt lat="42.96634" lon="0.3131">
        <ele>1506.3</ele>
        <time>2026-07-07T06:56:35Z</time>
      </trkpt>
      <trkpt lat="42.96634" lon="0.31311">
        <ele>1506.3</ele>
        <time>2026-07-07T06:56:35Z</time>
      </trkpt>
      <trkpt lat="42.96635" lon="0.31312">
        <ele>1506.3</ele>
        <time>2026-07-07T06:56:36Z</time>
      </trkpt>
      <trkpt lat="42.96635" lon="0.31312">
        <ele>1507.3</ele>
        <time>2026-07-07T06:56:37Z</time>
      </trkpt>
      <trkpt lat="42.96635" lon="0.31313">
        <ele>1507.3</ele>
        <time>2026-07-07T06:56:37Z</time>
      </trkpt>
      <trkpt lat="42.96636" lon="0.31313">
        <ele>1507.3</ele>
        <time>2026-07-07T06:56:38Z</time>
      </trkpt>
      <trkpt lat="42.96636" lon="0.31314">
        <ele>1508.3</ele>
        <time>2026-07-07T06:56:39Z</time>
      </trkpt>
      <trkpt lat="42.96637" lon="0.31315">
        <ele>1508.3</ele>
        <time>2026-07-07T06:56:39Z</time>
      </trkpt>
      <trkpt lat="42.96637" lon="0.31315">
        <ele>1508.3</ele>
        <time>2026-07-07T06:56:40Z</time>
      </trkpt>
      <trkpt lat="42.96638" lon="0.31316">
        <ele>1508.3</ele>
        <time>2026-07-07T06:56:41Z</time>
      </trkpt>
      <trkpt lat="42.96638" lon="0.31316">
        <ele>1509.3</ele>
        <time>2026-07-07T06:56:42Z</time>
      </trkpt>
      <trkpt lat="42.96639" lon="0.31317">
        <ele>1509.3</ele>
        <time>2026-07-07T06:56:42Z</time>
      </trkpt>
      <trkpt lat="42.96639" lon="0.31317">
        <ele>1509.3</ele>
        <time>2026-07-07T06:56:43Z</time>
      </trkpt>
      <trkpt lat="42.9664" lon="0.31318">
        <ele>1509.3</ele>
        <time>2026-07-07T06:56:43Z</time>
      </trkpt>
      <trkpt lat="42.9664" lon="0.31318">
        <ele>1509.3</ele>
        <time>2026-07-07T06:56:44Z</time>
      </trkpt>
      <trkpt lat="42.9664" lon="0.31319">
        <ele>1509.3</ele>
        <time>2026-07-07T06:56:45Z</time>
      </trkpt>
      <trkpt lat="42.96641" lon="0.31319">
        <ele>1509.3</ele>
        <time>2026-07-07T06:56:45Z</time>
      </trkpt>
      <trkpt lat="42.96641" lon="0.3132">
        <ele>1509.3</ele>
        <time>2026-07-07T06:56:46Z</time>
      </trkpt>
      <trkpt lat="42.96642" lon="0.31321">
        <ele>1509.3</ele>
        <time>2026-07-07T06:56:47Z</time>
      </trkpt>
      <trkpt lat="42.96642" lon="0.31321">
        <ele>1510.3</ele>
        <time>2026-07-07T06:56:47Z</time>
      </trkpt>
      <trkpt lat="42.96643" lon="0.31321">
        <ele>1510.3</ele>
        <time>2026-07-07T06:56:48Z</time>
      </trkpt>
      <trkpt lat="42.96643" lon="0.31322">
        <ele>1510.3</ele>
        <time>2026-07-07T06:56:49Z</time>
      </trkpt>
      <trkpt lat="42.96644" lon="0.31322">
        <ele>1510.3</ele>
        <time>2026-07-07T06:56:49Z</time>
      </trkpt>
      <trkpt lat="42.96644" lon="0.31323">
        <ele>1510.3</ele>
        <time>2026-07-07T06:56:50Z</time>
      </trkpt>
      <trkpt lat="42.96645" lon="0.31323">
        <ele>1511.3</ele>
        <time>2026-07-07T06:56:51Z</time>
      </trkpt>
      <trkpt lat="42.96645" lon="0.31324">
        <ele>1511.3</ele>
        <time>2026-07-07T06:56:51Z</time>
      </trkpt>
      <trkpt lat="42.96646" lon="0.31324">
        <ele>1511.3</ele>
        <time>2026-07-07T06:56:52Z</time>
      </trkpt>
      <trkpt lat="42.96646" lon="0.31324">
        <ele>1510.3</ele>
        <time>2026-07-07T06:56:53Z</time>
      </trkpt>
      <trkpt lat="42.96647" lon="0.31325">
        <ele>1510.3</ele>
        <time>2026-07-07T06:56:53Z</time>
      </trkpt>
      <trkpt lat="42.96647" lon="0.31325">
        <ele>1510.3</ele>
        <time>2026-07-07T06:56:54Z</time>
      </trkpt>
      <trkpt lat="42.96647" lon="0.31325">
        <ele>1510.3</ele>
        <time>2026-07-07T06:56:55Z</time>
      </trkpt>
      <trkpt lat="42.96648" lon="0.31326">
        <ele>1510.3</ele>
        <time>2026-07-07T06:56:55Z</time>
      </trkpt>
      <trkpt lat="42.96648" lon="0.31327">
        <ele>1510.3</ele>
        <time>2026-07-07T06:56:56Z</time>
      </trkpt>
      <trkpt lat="42.96648" lon="0.31327">
        <ele>1510.3</ele>
        <time>2026-07-07T06:56:57Z</time>
      </trkpt>
      <trkpt lat="42.96649" lon="0.31328">
        <ele>1510.3</ele>
        <time>2026-07-07T06:56:57Z</time>
      </trkpt>
      <trkpt lat="42.96649" lon="0.31328">
        <ele>1510.3</ele>
        <time>2026-07-07T06:56:58Z</time>
      </trkpt>
      <trkpt lat="42.96649" lon="0.31329">
        <ele>1510.3</ele>
        <time>2026-07-07T06:56:58Z</time>
      </trkpt>
      <trkpt lat="42.9665" lon="0.31329">
        <ele>1510.3</ele>
        <time>2026-07-07T06:56:59Z</time>
      </trkpt>
      <trkpt lat="42.9665" lon="0.3133">
        <ele>1511.3</ele>
        <time>2026-07-07T06:57:00Z</time>
      </trkpt>
      <trkpt lat="42.9665" lon="0.31331">
        <ele>1511.3</ele>
        <time>2026-07-07T06:57:00Z</time>
      </trkpt>
      <trkpt lat="42.96651" lon="0.31331">
        <ele>1511.3</ele>
        <time>2026-07-07T06:57:01Z</time>
      </trkpt>
      <trkpt lat="42.96651" lon="0.31332">
        <ele>1512.3</ele>
        <time>2026-07-07T06:57:02Z</time>
      </trkpt>
      <trkpt lat="42.96652" lon="0.31332">
        <ele>1512.3</ele>
        <time>2026-07-07T06:57:02Z</time>
      </trkpt>
      <trkpt lat="42.96652" lon="0.31333">
        <ele>1512.3</ele>
        <time>2026-07-07T06:57:03Z</time>
      </trkpt>
      <trkpt lat="42.96652" lon="0.31334">
        <ele>1512.3</ele>
        <time>2026-07-07T06:57:04Z</time>
      </trkpt>
      <trkpt lat="42.96653" lon="0.31334">
        <ele>1513.3</ele>
        <time>2026-07-07T06:57:04Z</time>
      </trkpt>
      <trkpt lat="42.96653" lon="0.31335">
        <ele>1513.3</ele>
        <time>2026-07-07T06:57:05Z</time>
      </trkpt>
      <trkpt lat="42.96653" lon="0.31335">
        <ele>1513.3</ele>
        <time>2026-07-07T06:57:06Z</time>
      </trkpt>
      <trkpt lat="42.96654" lon="0.31336">
        <ele>1513.3</ele>
        <time>2026-07-07T06:57:06Z</time>
      </trkpt>
      <trkpt lat="42.96654" lon="0.31336">
        <ele>1513.3</ele>
        <time>2026-07-07T06:57:07Z</time>
      </trkpt>
      <trkpt lat="42.96654" lon="0.31336">
        <ele>1513.3</ele>
        <time>2026-07-07T06:57:07Z</time>
      </trkpt>
      <trkpt lat="42.96655" lon="0.31337">
        <ele>1513.3</ele>
        <time>2026-07-07T06:57:08Z</time>
      </trkpt>
      <trkpt lat="42.96655" lon="0.31338">
        <ele>1513.3</ele>
        <time>2026-07-07T06:57:09Z</time>
      </trkpt>
      <trkpt lat="42.96655" lon="0.31338">
        <ele>1514.3</ele>
        <time>2026-07-07T06:57:09Z</time>
      </trkpt>
      <trkpt lat="42.96656" lon="0.31339">
        <ele>1514.3</ele>
        <time>2026-07-07T06:57:10Z</time>
      </trkpt>
      <trkpt lat="42.96656" lon="0.3134">
        <ele>1514.3</ele>
        <time>2026-07-07T06:57:11Z</time>
      </trkpt>
      <trkpt lat="42.96656" lon="0.3134">
        <ele>1514.3</ele>
        <time>2026-07-07T06:57:11Z</time>
      </trkpt>
      <trkpt lat="42.96657" lon="0.31341">
        <ele>1514.3</ele>
        <time>2026-07-07T06:57:12Z</time>
      </trkpt>
      <trkpt lat="42.96657" lon="0.31342">
        <ele>1514.3</ele>
        <time>2026-07-07T06:57:13Z</time>
      </trkpt>
      <trkpt lat="42.96657" lon="0.31342">
        <ele>1513.3</ele>
        <time>2026-07-07T06:57:13Z</time>
      </trkpt>
      <trkpt lat="42.96658" lon="0.31343">
        <ele>1513.3</ele>
        <time>2026-07-07T06:57:14Z</time>
      </trkpt>
      <trkpt lat="42.96658" lon="0.31344">
        <ele>1513.3</ele>
        <time>2026-07-07T06:57:15Z</time>
      </trkpt>
      <trkpt lat="42.96658" lon="0.31344">
        <ele>1513.3</ele>
        <time>2026-07-07T06:57:15Z</time>
      </trkpt>
      <trkpt lat="42.96659" lon="0.31345">
        <ele>1514.3</ele>
        <time>2026-07-07T06:57:16Z</time>
      </trkpt>
      <trkpt lat="42.96659" lon="0.31346">
        <ele>1514.3</ele>
        <time>2026-07-07T06:57:16Z</time>
      </trkpt>
      <trkpt lat="42.96659" lon="0.31346">
        <ele>1514.3</ele>
        <time>2026-07-07T06:57:17Z</time>
      </trkpt>
      <trkpt lat="42.9666" lon="0.31346">
        <ele>1514.3</ele>
        <time>2026-07-07T06:57:18Z</time>
      </trkpt>
      <trkpt lat="42.9666" lon="0.31347">
        <ele>1514.3</ele>
        <time>2026-07-07T06:57:18Z</time>
      </trkpt>
      <trkpt lat="42.96661" lon="0.31348">
        <ele>1514.3</ele>
        <time>2026-07-07T06:57:19Z</time>
      </trkpt>
      <trkpt lat="42.96661" lon="0.31348">
        <ele>1514.3</ele>
        <time>2026-07-07T06:57:20Z</time>
      </trkpt>
      <trkpt lat="42.96662" lon="0.31349">
        <ele>1514.3</ele>
        <time>2026-07-07T06:57:20Z</time>
      </trkpt>
      <trkpt lat="42.96662" lon="0.31349">
        <ele>1515.3</ele>
        <time>2026-07-07T06:57:21Z</time>
      </trkpt>
      <trkpt lat="42.96663" lon="0.31349">
        <ele>1515.3</ele>
        <time>2026-07-07T06:57:22Z</time>
      </trkpt>
      <trkpt lat="42.96663" lon="0.3135">
        <ele>1515.3</ele>
        <time>2026-07-07T06:57:22Z</time>
      </trkpt>
      <trkpt lat="42.96663" lon="0.3135">
        <ele>1515.3</ele>
        <time>2026-07-07T06:57:23Z</time>
      </trkpt>
      <trkpt lat="42.96664" lon="0.31351">
        <ele>1515.3</ele>
        <time>2026-07-07T06:57:23Z</time>
      </trkpt>
      <trkpt lat="42.96664" lon="0.31351">
        <ele>1515.3</ele>
        <time>2026-07-07T06:57:24Z</time>
      </trkpt>
      <trkpt lat="42.96665" lon="0.31352">
        <ele>1514.3</ele>
        <time>2026-07-07T06:57:25Z</time>
      </trkpt>
      <trkpt lat="42.96665" lon="0.31352">
        <ele>1515.3</ele>
        <time>2026-07-07T06:57:25Z</time>
      </trkpt>
      <trkpt lat="42.96666" lon="0.31353">
        <ele>1515.3</ele>
        <time>2026-07-07T06:57:26Z</time>
      </trkpt>
      <trkpt lat="42.96667" lon="0.31353">
        <ele>1514.3</ele>
        <time>2026-07-07T06:57:27Z</time>
      </trkpt>
      <trkpt lat="42.96667" lon="0.31354">
        <ele>1514.3</ele>
        <time>2026-07-07T06:57:27Z</time>
      </trkpt>
      <trkpt lat="42.96668" lon="0.31354">
        <ele>1514.3</ele>
        <time>2026-07-07T06:57:28Z</time>
      </trkpt>
      <trkpt lat="42.96668" lon="0.31354">
        <ele>1514.3</ele>
        <time>2026-07-07T06:57:29Z</time>
      </trkpt>
      <trkpt lat="42.96669" lon="0.31355">
        <ele>1514.3</ele>
        <time>2026-07-07T06:57:29Z</time>
      </trkpt>
      <trkpt lat="42.96669" lon="0.31355">
        <ele>1514.3</ele>
        <time>2026-07-07T06:57:30Z</time>
      </trkpt>
      <trkpt lat="42.9667" lon="0.31355">
        <ele>1514.3</ele>
        <time>2026-07-07T06:57:31Z</time>
      </trkpt>
      <trkpt lat="42.9667" lon="0.31356">
        <ele>1514.3</ele>
        <time>2026-07-07T06:57:31Z</time>
      </trkpt>
      <trkpt lat="42.96671" lon="0.31356">
        <ele>1514.3</ele>
        <time>2026-07-07T06:57:32Z</time>
      </trkpt>
      <trkpt lat="42.96671" lon="0.31356">
        <ele>1514.3</ele>
        <time>2026-07-07T06:57:33Z</time>
      </trkpt>
      <trkpt lat="42.96672" lon="0.31357">
        <ele>1515.3</ele>
        <time>2026-07-07T06:57:33Z</time>
      </trkpt>
      <trkpt lat="42.96672" lon="0.31357">
        <ele>1515.3</ele>
        <time>2026-07-07T06:57:34Z</time>
      </trkpt>
      <trkpt lat="42.96673" lon="0.31358">
        <ele>1515.3</ele>
        <time>2026-07-07T06:57:35Z</time>
      </trkpt>
      <trkpt lat="42.96673" lon="0.31358">
        <ele>1515.3</ele>
        <time>2026-07-07T06:57:36Z</time>
      </trkpt>
      <trkpt lat="42.96674" lon="0.31359">
        <ele>1515.3</ele>
        <time>2026-07-07T06:57:36Z</time>
      </trkpt>
      <trkpt lat="42.96674" lon="0.31359">
        <ele>1516.3</ele>
        <time>2026-07-07T06:57:37Z</time>
      </trkpt>
      <trkpt lat="42.96675" lon="0.3136">
        <ele>1516.3</ele>
        <time>2026-07-07T06:57:37Z</time>
      </trkpt>
      <trkpt lat="42.96675" lon="0.3136">
        <ele>1516.3</ele>
        <time>2026-07-07T06:57:38Z</time>
      </trkpt>
      <trkpt lat="42.96675" lon="0.3136">
        <ele>1516.3</ele>
        <time>2026-07-07T06:57:39Z</time>
      </trkpt>
      <trkpt lat="42.96676" lon="0.31361">
        <ele>1516.3</ele>
        <time>2026-07-07T06:57:39Z</time>
      </trkpt>
      <trkpt lat="42.96676" lon="0.31361">
        <ele>1516.3</ele>
        <time>2026-07-07T06:57:40Z</time>
      </trkpt>
      <trkpt lat="42.96676" lon="0.31361">
        <ele>1516.3</ele>
        <time>2026-07-07T06:57:41Z</time>
      </trkpt>
      <trkpt lat="42.96677" lon="0.31361">
        <ele>1516.3</ele>
        <time>2026-07-07T06:57:41Z</time>
      </trkpt>
      <trkpt lat="42.96677" lon="0.31361">
        <ele>1516.3</ele>
        <time>2026-07-07T06:57:42Z</time>
      </trkpt>
      <trkpt lat="42.96678" lon="0.3136">
        <ele>1517.3</ele>
        <time>2026-07-07T06:57:43Z</time>
      </trkpt>
      <trkpt lat="42.96678" lon="0.3136">
        <ele>1517.3</ele>
        <time>2026-07-07T06:57:43Z</time>
      </trkpt>
      <trkpt lat="42.96679" lon="0.3136">
        <ele>1516.3</ele>
        <time>2026-07-07T06:57:44Z</time>
      </trkpt>
      <trkpt lat="42.96679" lon="0.3136">
        <ele>1516.3</ele>
        <time>2026-07-07T06:57:44Z</time>
      </trkpt>
      <trkpt lat="42.9668" lon="0.3136">
        <ele>1516.3</ele>
        <time>2026-07-07T06:57:45Z</time>
      </trkpt>
      <trkpt lat="42.9668" lon="0.3136">
        <ele>1516.3</ele>
        <time>2026-07-07T06:57:46Z</time>
      </trkpt>
      <trkpt lat="42.9668" lon="0.3136">
        <ele>1516.3</ele>
        <time>2026-07-07T06:57:46Z</time>
      </trkpt>
      <trkpt lat="42.96681" lon="0.31361">
        <ele>1515.3</ele>
        <time>2026-07-07T06:57:47Z</time>
      </trkpt>
      <trkpt lat="42.96681" lon="0.31361">
        <ele>1515.3</ele>
        <time>2026-07-07T06:57:47Z</time>
      </trkpt>
      <trkpt lat="42.96682" lon="0.31361">
        <ele>1515.3</ele>
        <time>2026-07-07T06:57:48Z</time>
      </trkpt>
      <trkpt lat="42.96682" lon="0.31362">
        <ele>1514.3</ele>
        <time>2026-07-07T06:57:48Z</time>
      </trkpt>
      <trkpt lat="42.96683" lon="0.31362">
        <ele>1514.3</ele>
        <time>2026-07-07T06:57:49Z</time>
      </trkpt>
      <trkpt lat="42.96683" lon="0.31362">
        <ele>1515.3</ele>
        <time>2026-07-07T06:57:49Z</time>
      </trkpt>
      <trkpt lat="42.96683" lon="0.31363">
        <ele>1515.3</ele>
        <time>2026-07-07T06:57:50Z</time>
      </trkpt>
      <trkpt lat="42.96684" lon="0.31363">
        <ele>1515.3</ele>
        <time>2026-07-07T06:57:50Z</time>
      </trkpt>
      <trkpt lat="42.96685" lon="0.31363">
        <ele>1515.3</ele>
        <time>2026-07-07T06:57:51Z</time>
      </trkpt>
      <trkpt lat="42.96685" lon="0.31363">
        <ele>1515.3</ele>
        <time>2026-07-07T06:57:52Z</time>
      </trkpt>
      <trkpt lat="42.96686" lon="0.31363">
        <ele>1515.3</ele>
        <time>2026-07-07T06:57:52Z</time>
      </trkpt>
      <trkpt lat="42.96686" lon="0.31363">
        <ele>1516.3</ele>
        <time>2026-07-07T06:57:53Z</time>
      </trkpt>
      <trkpt lat="42.96687" lon="0.31363">
        <ele>1516.3</ele>
        <time>2026-07-07T06:57:54Z</time>
      </trkpt>
      <trkpt lat="42.96687" lon="0.31363">
        <ele>1516.3</ele>
        <time>2026-07-07T06:57:54Z</time>
      </trkpt>
      <trkpt lat="42.96688" lon="0.31364">
        <ele>1516.3</ele>
        <time>2026-07-07T06:57:55Z</time>
      </trkpt>
      <trkpt lat="42.96688" lon="0.31364">
        <ele>1516.3</ele>
        <time>2026-07-07T06:57:55Z</time>
      </trkpt>
      <trkpt lat="42.96689" lon="0.31364">
        <ele>1516.3</ele>
        <time>2026-07-07T06:57:56Z</time>
      </trkpt>
      <trkpt lat="42.96689" lon="0.31364">
        <ele>1515.3</ele>
        <time>2026-07-07T06:57:57Z</time>
      </trkpt>
      <trkpt lat="42.9669" lon="0.31364">
        <ele>1517.3</ele>
        <time>2026-07-07T06:57:57Z</time>
      </trkpt>
      <trkpt lat="42.9669" lon="0.31364">
        <ele>1517.3</ele>
        <time>2026-07-07T06:57:58Z</time>
      </trkpt>
      <trkpt lat="42.96691" lon="0.31364">
        <ele>1517.3</ele>
        <time>2026-07-07T06:57:58Z</time>
      </trkpt>
      <trkpt lat="42.96691" lon="0.31365">
        <ele>1517.3</ele>
        <time>2026-07-07T06:57:59Z</time>
      </trkpt>
      <trkpt lat="42.96692" lon="0.31365">
        <ele>1518.3</ele>
        <time>2026-07-07T06:58:00Z</time>
      </trkpt>
      <trkpt lat="42.96692" lon="0.31365">
        <ele>1518.3</ele>
        <time>2026-07-07T06:58:00Z</time>
      </trkpt>
      <trkpt lat="42.96693" lon="0.31365">
        <ele>1518.3</ele>
        <time>2026-07-07T06:58:01Z</time>
      </trkpt>
      <trkpt lat="42.96693" lon="0.31366">
        <ele>1518.3</ele>
        <time>2026-07-07T06:58:01Z</time>
      </trkpt>
      <trkpt lat="42.96694" lon="0.31366">
        <ele>1518.3</ele>
        <time>2026-07-07T06:58:02Z</time>
      </trkpt>
      <trkpt lat="42.96694" lon="0.31366">
        <ele>1518.3</ele>
        <time>2026-07-07T06:58:02Z</time>
      </trkpt>
      <trkpt lat="42.96695" lon="0.31366">
        <ele>1518.3</ele>
        <time>2026-07-07T06:58:03Z</time>
      </trkpt>
      <trkpt lat="42.96695" lon="0.31366">
        <ele>1518.3</ele>
        <time>2026-07-07T06:58:03Z</time>
      </trkpt>
      <trkpt lat="42.96696" lon="0.31366">
        <ele>1518.3</ele>
        <time>2026-07-07T06:58:04Z</time>
      </trkpt>
      <trkpt lat="42.96696" lon="0.31366">
        <ele>1518.3</ele>
        <time>2026-07-07T06:58:04Z</time>
      </trkpt>
      <trkpt lat="42.96697" lon="0.31366">
        <ele>1518.3</ele>
        <time>2026-07-07T06:58:05Z</time>
      </trkpt>
      <trkpt lat="42.96698" lon="0.31366">
        <ele>1518.3</ele>
        <time>2026-07-07T06:58:05Z</time>
      </trkpt>
      <trkpt lat="42.96698" lon="0.31366">
        <ele>1518.3</ele>
        <time>2026-07-07T06:58:06Z</time>
      </trkpt>
      <trkpt lat="42.96699" lon="0.31366">
        <ele>1517.3</ele>
        <time>2026-07-07T06:58:07Z</time>
      </trkpt>
      <trkpt lat="42.967" lon="0.31367">
        <ele>1517.3</ele>
        <time>2026-07-07T06:58:07Z</time>
      </trkpt>
      <trkpt lat="42.96701" lon="0.31367">
        <ele>1518.3</ele>
        <time>2026-07-07T06:58:08Z</time>
      </trkpt>
      <trkpt lat="42.96701" lon="0.31367">
        <ele>1518.3</ele>
        <time>2026-07-07T06:58:08Z</time>
      </trkpt>
      <trkpt lat="42.96702" lon="0.31367">
        <ele>1518.3</ele>
        <time>2026-07-07T06:58:09Z</time>
      </trkpt>
      <trkpt lat="42.96703" lon="0.31367">
        <ele>1519.3</ele>
        <time>2026-07-07T06:58:10Z</time>
      </trkpt>
      <trkpt lat="42.96703" lon="0.31367">
        <ele>1519.3</ele>
        <time>2026-07-07T06:58:10Z</time>
      </trkpt>
      <trkpt lat="42.96704" lon="0.31367">
        <ele>1519.3</ele>
        <time>2026-07-07T06:58:11Z</time>
      </trkpt>
      <trkpt lat="42.96704" lon="0.31367">
        <ele>1519.3</ele>
        <time>2026-07-07T06:58:11Z</time>
      </trkpt>
      <trkpt lat="42.96705" lon="0.31367">
        <ele>1519.3</ele>
        <time>2026-07-07T06:58:12Z</time>
      </trkpt>
      <trkpt lat="42.96706" lon="0.31366">
        <ele>1519.3</ele>
        <time>2026-07-07T06:58:13Z</time>
      </trkpt>
      <trkpt lat="42.96706" lon="0.31366">
        <ele>1519.3</ele>
        <time>2026-07-07T06:58:13Z</time>
      </trkpt>
      <trkpt lat="42.96707" lon="0.31367">
        <ele>1519.3</ele>
        <time>2026-07-07T06:58:14Z</time>
      </trkpt>
      <trkpt lat="42.96708" lon="0.31367">
        <ele>1519.3</ele>
        <time>2026-07-07T06:58:14Z</time>
      </trkpt>
      <trkpt lat="42.96708" lon="0.31367">
        <ele>1519.3</ele>
        <time>2026-07-07T06:58:15Z</time>
      </trkpt>
      <trkpt lat="42.9671" lon="0.31368">
        <ele>1519.3</ele>
        <time>2026-07-07T06:58:16Z</time>
      </trkpt>
      <trkpt lat="42.96711" lon="0.31369">
        <ele>1519.3</ele>
        <time>2026-07-07T06:58:17Z</time>
      </trkpt>
      <trkpt lat="42.96712" lon="0.31369">
        <ele>1518.3</ele>
        <time>2026-07-07T06:58:18Z</time>
      </trkpt>
      <trkpt lat="42.96713" lon="0.31369">
        <ele>1518.3</ele>
        <time>2026-07-07T06:58:19Z</time>
      </trkpt>
      <trkpt lat="42.96713" lon="0.31369">
        <ele>1518.3</ele>
        <time>2026-07-07T06:58:19Z</time>
      </trkpt>
      <trkpt lat="42.96714" lon="0.3137">
        <ele>1518.3</ele>
        <time>2026-07-07T06:58:20Z</time>
      </trkpt>
      <trkpt lat="42.96715" lon="0.3137">
        <ele>1517.3</ele>
        <time>2026-07-07T06:58:20Z</time>
      </trkpt>
      <trkpt lat="42.96716" lon="0.3137">
        <ele>1517.3</ele>
        <time>2026-07-07T06:58:21Z</time>
      </trkpt>
      <trkpt lat="42.96717" lon="0.3137">
        <ele>1517.3</ele>
        <time>2026-07-07T06:58:22Z</time>
      </trkpt>
      <trkpt lat="42.96717" lon="0.3137">
        <ele>1517.3</ele>
        <time>2026-07-07T06:58:22Z</time>
      </trkpt>
      <trkpt lat="42.96718" lon="0.3137">
        <ele>1517.3</ele>
        <time>2026-07-07T06:58:23Z</time>
      </trkpt>
      <trkpt lat="42.96718" lon="0.31369">
        <ele>1518.3</ele>
        <time>2026-07-07T06:58:23Z</time>
      </trkpt>
      <trkpt lat="42.96719" lon="0.3137">
        <ele>1518.3</ele>
        <time>2026-07-07T06:58:24Z</time>
      </trkpt>
      <trkpt lat="42.9672" lon="0.3137">
        <ele>1518.3</ele>
        <time>2026-07-07T06:58:25Z</time>
      </trkpt>
      <trkpt lat="42.9672" lon="0.3137">
        <ele>1518.3</ele>
        <time>2026-07-07T06:58:25Z</time>
      </trkpt>
      <trkpt lat="42.96721" lon="0.3137">
        <ele>1519.3</ele>
        <time>2026-07-07T06:58:26Z</time>
      </trkpt>
      <trkpt lat="42.96722" lon="0.3137">
        <ele>1519.3</ele>
        <time>2026-07-07T06:58:26Z</time>
      </trkpt>
      <trkpt lat="42.96722" lon="0.3137">
        <ele>1519.3</ele>
        <time>2026-07-07T06:58:27Z</time>
      </trkpt>
      <trkpt lat="42.96722" lon="0.3137">
        <ele>1519.3</ele>
        <time>2026-07-07T06:58:27Z</time>
      </trkpt>
      <trkpt lat="42.96723" lon="0.3137">
        <ele>1519.3</ele>
        <time>2026-07-07T06:58:28Z</time>
      </trkpt>
      <trkpt lat="42.96724" lon="0.31371">
        <ele>1519.3</ele>
        <time>2026-07-07T06:58:29Z</time>
      </trkpt>
      <trkpt lat="42.96724" lon="0.31371">
        <ele>1518.3</ele>
        <time>2026-07-07T06:58:30Z</time>
      </trkpt>
      <trkpt lat="42.96725" lon="0.31372">
        <ele>1518.3</ele>
        <time>2026-07-07T06:58:30Z</time>
      </trkpt>
      <trkpt lat="42.96725" lon="0.31373">
        <ele>1518.3</ele>
        <time>2026-07-07T06:58:31Z</time>
      </trkpt>
      <trkpt lat="42.96726" lon="0.31373">
        <ele>1518.3</ele>
        <time>2026-07-07T06:58:32Z</time>
      </trkpt>
      <trkpt lat="42.96726" lon="0.31374">
        <ele>1518.3</ele>
        <time>2026-07-07T06:58:32Z</time>
      </trkpt>
      <trkpt lat="42.96727" lon="0.31374">
        <ele>1518.3</ele>
        <time>2026-07-07T06:58:33Z</time>
      </trkpt>
      <trkpt lat="42.96727" lon="0.31375">
        <ele>1518.3</ele>
        <time>2026-07-07T06:58:34Z</time>
      </trkpt>
      <trkpt lat="42.96728" lon="0.31375">
        <ele>1518.3</ele>
        <time>2026-07-07T06:58:34Z</time>
      </trkpt>
      <trkpt lat="42.96728" lon="0.31376">
        <ele>1518.3</ele>
        <time>2026-07-07T06:58:35Z</time>
      </trkpt>
      <trkpt lat="42.96729" lon="0.31376">
        <ele>1518.3</ele>
        <time>2026-07-07T06:58:35Z</time>
      </trkpt>
      <trkpt lat="42.96729" lon="0.31377">
        <ele>1518.3</ele>
        <time>2026-07-07T06:58:36Z</time>
      </trkpt>
      <trkpt lat="42.96729" lon="0.31377">
        <ele>1518.3</ele>
        <time>2026-07-07T06:58:36Z</time>
      </trkpt>
      <trkpt lat="42.9673" lon="0.31378">
        <ele>1518.3</ele>
        <time>2026-07-07T06:58:37Z</time>
      </trkpt>
      <trkpt lat="42.9673" lon="0.31378">
        <ele>1518.3</ele>
        <time>2026-07-07T06:58:37Z</time>
      </trkpt>
      <trkpt lat="42.9673" lon="0.31379">
        <ele>1518.3</ele>
        <time>2026-07-07T06:58:38Z</time>
      </trkpt>
      <trkpt lat="42.96731" lon="0.31379">
        <ele>1518.3</ele>
        <time>2026-07-07T06:58:38Z</time>
      </trkpt>
      <trkpt lat="42.96731" lon="0.3138">
        <ele>1518.3</ele>
        <time>2026-07-07T06:58:39Z</time>
      </trkpt>
      <trkpt lat="42.96732" lon="0.3138">
        <ele>1518.3</ele>
        <time>2026-07-07T06:58:40Z</time>
      </trkpt>
      <trkpt lat="42.96733" lon="0.31381">
        <ele>1518.3</ele>
        <time>2026-07-07T06:58:40Z</time>
      </trkpt>
      <trkpt lat="42.96733" lon="0.31381">
        <ele>1517.3</ele>
        <time>2026-07-07T06:58:41Z</time>
      </trkpt>
      <trkpt lat="42.96734" lon="0.31382">
        <ele>1517.3</ele>
        <time>2026-07-07T06:58:41Z</time>
      </trkpt>
      <trkpt lat="42.96734" lon="0.31382">
        <ele>1517.3</ele>
        <time>2026-07-07T06:58:42Z</time>
      </trkpt>
      <trkpt lat="42.96735" lon="0.31382">
        <ele>1517.3</ele>
        <time>2026-07-07T06:58:42Z</time>
      </trkpt>
      <trkpt lat="42.96736" lon="0.31383">
        <ele>1517.3</ele>
        <time>2026-07-07T06:58:43Z</time>
      </trkpt>
      <trkpt lat="42.96736" lon="0.31383">
        <ele>1516.3</ele>
        <time>2026-07-07T06:58:43Z</time>
      </trkpt>
      <trkpt lat="42.96737" lon="0.31383">
        <ele>1516.3</ele>
        <time>2026-07-07T06:58:44Z</time>
      </trkpt>
      <trkpt lat="42.96738" lon="0.31383">
        <ele>1516.3</ele>
        <time>2026-07-07T06:58:45Z</time>
      </trkpt>
      <trkpt lat="42.96738" lon="0.31383">
        <ele>1516.3</ele>
        <time>2026-07-07T06:58:45Z</time>
      </trkpt>
      <trkpt lat="42.96739" lon="0.31383">
        <ele>1516.3</ele>
        <time>2026-07-07T06:58:46Z</time>
      </trkpt>
      <trkpt lat="42.96739" lon="0.31383">
        <ele>1516.3</ele>
        <time>2026-07-07T06:58:46Z</time>
      </trkpt>
      <trkpt lat="42.9674" lon="0.31384">
        <ele>1516.3</ele>
        <time>2026-07-07T06:58:47Z</time>
      </trkpt>
      <trkpt lat="42.9674" lon="0.31383">
        <ele>1517.3</ele>
        <time>2026-07-07T06:58:48Z</time>
      </trkpt>
      <trkpt lat="42.96741" lon="0.31384">
        <ele>1517.3</ele>
        <time>2026-07-07T06:58:48Z</time>
      </trkpt>
      <trkpt lat="42.96742" lon="0.31384">
        <ele>1517.3</ele>
        <time>2026-07-07T06:58:49Z</time>
      </trkpt>
      <trkpt lat="42.96742" lon="0.31384">
        <ele>1517.3</ele>
        <time>2026-07-07T06:58:49Z</time>
      </trkpt>
      <trkpt lat="42.96743" lon="0.31385">
        <ele>1517.3</ele>
        <time>2026-07-07T06:58:50Z</time>
      </trkpt>
      <trkpt lat="42.96743" lon="0.31385">
        <ele>1517.3</ele>
        <time>2026-07-07T06:58:51Z</time>
      </trkpt>
      <trkpt lat="42.96744" lon="0.31385">
        <ele>1517.3</ele>
        <time>2026-07-07T06:58:51Z</time>
      </trkpt>
      <trkpt lat="42.96745" lon="0.31385">
        <ele>1517.3</ele>
        <time>2026-07-07T06:58:52Z</time>
      </trkpt>
      <trkpt lat="42.96745" lon="0.31385">
        <ele>1518.3</ele>
        <time>2026-07-07T06:58:52Z</time>
      </trkpt>
      <trkpt lat="42.96746" lon="0.31385">
        <ele>1518.3</ele>
        <time>2026-07-07T06:58:53Z</time>
      </trkpt>
      <trkpt lat="42.96747" lon="0.31385">
        <ele>1518.3</ele>
        <time>2026-07-07T06:58:54Z</time>
      </trkpt>
      <trkpt lat="42.96747" lon="0.31385">
        <ele>1518.3</ele>
        <time>2026-07-07T06:58:54Z</time>
      </trkpt>
      <trkpt lat="42.96748" lon="0.31385">
        <ele>1517.3</ele>
        <time>2026-07-07T06:58:55Z</time>
      </trkpt>
      <trkpt lat="42.96749" lon="0.31385">
        <ele>1517.3</ele>
        <time>2026-07-07T06:58:56Z</time>
      </trkpt>
      <trkpt lat="42.96749" lon="0.31386">
        <ele>1517.3</ele>
        <time>2026-07-07T06:58:56Z</time>
      </trkpt>
      <trkpt lat="42.9675" lon="0.31386">
        <ele>1517.3</ele>
        <time>2026-07-07T06:58:57Z</time>
      </trkpt>
      <trkpt lat="42.9675" lon="0.31387">
        <ele>1517.3</ele>
        <time>2026-07-07T06:58:58Z</time>
      </trkpt>
      <trkpt lat="42.9675" lon="0.31388">
        <ele>1517.3</ele>
        <time>2026-07-07T06:58:58Z</time>
      </trkpt>
      <trkpt lat="42.9675" lon="0.31389">
        <ele>1517.3</ele>
        <time>2026-07-07T06:58:59Z</time>
      </trkpt>
      <trkpt lat="42.96751" lon="0.31389">
        <ele>1516.3</ele>
        <time>2026-07-07T06:58:59Z</time>
      </trkpt>
      <trkpt lat="42.96751" lon="0.3139">
        <ele>1516.3</ele>
        <time>2026-07-07T06:59:00Z</time>
      </trkpt>
      <trkpt lat="42.96751" lon="0.31391">
        <ele>1516.3</ele>
        <time>2026-07-07T06:59:01Z</time>
      </trkpt>
      <trkpt lat="42.96752" lon="0.31392">
        <ele>1516.3</ele>
        <time>2026-07-07T06:59:01Z</time>
      </trkpt>
      <trkpt lat="42.96752" lon="0.31393">
        <ele>1515.3</ele>
        <time>2026-07-07T06:59:02Z</time>
      </trkpt>
      <trkpt lat="42.96752" lon="0.31393">
        <ele>1514.3</ele>
        <time>2026-07-07T06:59:02Z</time>
      </trkpt>
      <trkpt lat="42.96753" lon="0.31394">
        <ele>1514.3</ele>
        <time>2026-07-07T06:59:03Z</time>
      </trkpt>
      <trkpt lat="42.96753" lon="0.31394">
        <ele>1513.3</ele>
        <time>2026-07-07T06:59:04Z</time>
      </trkpt>
      <trkpt lat="42.96754" lon="0.31395">
        <ele>1513.3</ele>
        <time>2026-07-07T06:59:04Z</time>
      </trkpt>
      <trkpt lat="42.96754" lon="0.31395">
        <ele>1513.3</ele>
        <time>2026-07-07T06:59:05Z</time>
      </trkpt>
      <trkpt lat="42.96755" lon="0.31396">
        <ele>1513.3</ele>
        <time>2026-07-07T06:59:05Z</time>
      </trkpt>
      <trkpt lat="42.96756" lon="0.31396">
        <ele>1513.3</ele>
        <time>2026-07-07T06:59:06Z</time>
      </trkpt>
      <trkpt lat="42.96756" lon="0.31396">
        <ele>1513.3</ele>
        <time>2026-07-07T06:59:06Z</time>
      </trkpt>
      <trkpt lat="42.96757" lon="0.31397">
        <ele>1513.3</ele>
        <time>2026-07-07T06:59:07Z</time>
      </trkpt>
      <trkpt lat="42.96757" lon="0.31397">
        <ele>1513.3</ele>
        <time>2026-07-07T06:59:07Z</time>
      </trkpt>
      <trkpt lat="42.96757" lon="0.31398">
        <ele>1513.3</ele>
        <time>2026-07-07T06:59:08Z</time>
      </trkpt>
      <trkpt lat="42.96757" lon="0.31399">
        <ele>1513.3</ele>
        <time>2026-07-07T06:59:09Z</time>
      </trkpt>
      <trkpt lat="42.96757" lon="0.31399">
        <ele>1513.3</ele>
        <time>2026-07-07T06:59:09Z</time>
      </trkpt>
      <trkpt lat="42.96757" lon="0.314">
        <ele>1513.3</ele>
        <time>2026-07-07T06:59:10Z</time>
      </trkpt>
      <trkpt lat="42.96757" lon="0.314">
        <ele>1514.3</ele>
        <time>2026-07-07T06:59:10Z</time>
      </trkpt>
      <trkpt lat="42.96758" lon="0.31401">
        <ele>1514.3</ele>
        <time>2026-07-07T06:59:11Z</time>
      </trkpt>
      <trkpt lat="42.96758" lon="0.31402">
        <ele>1514.3</ele>
        <time>2026-07-07T06:59:12Z</time>
      </trkpt>
      <trkpt lat="42.96759" lon="0.31403">
        <ele>1514.3</ele>
        <time>2026-07-07T06:59:13Z</time>
      </trkpt>
      <trkpt lat="42.96759" lon="0.31403">
        <ele>1514.3</ele>
        <time>2026-07-07T06:59:13Z</time>
      </trkpt>
      <trkpt lat="42.9676" lon="0.31404">
        <ele>1514.3</ele>
        <time>2026-07-07T06:59:14Z</time>
      </trkpt>
      <trkpt lat="42.9676" lon="0.31404">
        <ele>1514.3</ele>
        <time>2026-07-07T06:59:14Z</time>
      </trkpt>
      <trkpt lat="42.96761" lon="0.31405">
        <ele>1513.3</ele>
        <time>2026-07-07T06:59:15Z</time>
      </trkpt>
      <trkpt lat="42.96761" lon="0.31405">
        <ele>1513.3</ele>
        <time>2026-07-07T06:59:15Z</time>
      </trkpt>
      <trkpt lat="42.96762" lon="0.31406">
        <ele>1513.3</ele>
        <time>2026-07-07T06:59:16Z</time>
      </trkpt>
      <trkpt lat="42.96763" lon="0.31406">
        <ele>1513.3</ele>
        <time>2026-07-07T06:59:17Z</time>
      </trkpt>
      <trkpt lat="42.96763" lon="0.31407">
        <ele>1513.3</ele>
        <time>2026-07-07T06:59:17Z</time>
      </trkpt>
      <trkpt lat="42.96764" lon="0.31407">
        <ele>1513.3</ele>
        <time>2026-07-07T06:59:18Z</time>
      </trkpt>
      <trkpt lat="42.96764" lon="0.31408">
        <ele>1513.3</ele>
        <time>2026-07-07T06:59:18Z</time>
      </trkpt>
      <trkpt lat="42.96765" lon="0.31409">
        <ele>1513.3</ele>
        <time>2026-07-07T06:59:19Z</time>
      </trkpt>
      <trkpt lat="42.96765" lon="0.31409">
        <ele>1513.3</ele>
        <time>2026-07-07T06:59:19Z</time>
      </trkpt>
      <trkpt lat="42.96765" lon="0.3141">
        <ele>1513.3</ele>
        <time>2026-07-07T06:59:20Z</time>
      </trkpt>
      <trkpt lat="42.96766" lon="0.31411">
        <ele>1513.3</ele>
        <time>2026-07-07T06:59:21Z</time>
      </trkpt>
      <trkpt lat="42.96767" lon="0.31411">
        <ele>1513.3</ele>
        <time>2026-07-07T06:59:21Z</time>
      </trkpt>
      <trkpt lat="42.96767" lon="0.31411">
        <ele>1513.3</ele>
        <time>2026-07-07T06:59:22Z</time>
      </trkpt>
      <trkpt lat="42.96768" lon="0.31412">
        <ele>1513.3</ele>
        <time>2026-07-07T06:59:23Z</time>
      </trkpt>
      <trkpt lat="42.96768" lon="0.31412">
        <ele>1513.3</ele>
        <time>2026-07-07T06:59:23Z</time>
      </trkpt>
      <trkpt lat="42.96769" lon="0.31413">
        <ele>1513.3</ele>
        <time>2026-07-07T06:59:24Z</time>
      </trkpt>
      <trkpt lat="42.96769" lon="0.31413">
        <ele>1513.3</ele>
        <time>2026-07-07T06:59:25Z</time>
      </trkpt>
      <trkpt lat="42.96769" lon="0.31414">
        <ele>1513.3</ele>
        <time>2026-07-07T06:59:25Z</time>
      </trkpt>
      <trkpt lat="42.9677" lon="0.31414">
        <ele>1512.3</ele>
        <time>2026-07-07T06:59:26Z</time>
      </trkpt>
      <trkpt lat="42.9677" lon="0.31414">
        <ele>1512.3</ele>
        <time>2026-07-07T06:59:27Z</time>
      </trkpt>
      <trkpt lat="42.96771" lon="0.31415">
        <ele>1512.3</ele>
        <time>2026-07-07T06:59:27Z</time>
      </trkpt>
      <trkpt lat="42.96772" lon="0.31415">
        <ele>1511.3</ele>
        <time>2026-07-07T06:59:28Z</time>
      </trkpt>
      <trkpt lat="42.96772" lon="0.31415">
        <ele>1512.3</ele>
        <time>2026-07-07T06:59:29Z</time>
      </trkpt>
      <trkpt lat="42.96773" lon="0.31415">
        <ele>1511.3</ele>
        <time>2026-07-07T06:59:29Z</time>
      </trkpt>
      <trkpt lat="42.96773" lon="0.31415">
        <ele>1511.3</ele>
        <time>2026-07-07T06:59:30Z</time>
      </trkpt>
      <trkpt lat="42.96774" lon="0.31415">
        <ele>1511.3</ele>
        <time>2026-07-07T06:59:31Z</time>
      </trkpt>
      <trkpt lat="42.96774" lon="0.31415">
        <ele>1511.3</ele>
        <time>2026-07-07T06:59:31Z</time>
      </trkpt>
      <trkpt lat="42.96775" lon="0.31415">
        <ele>1511.3</ele>
        <time>2026-07-07T06:59:32Z</time>
      </trkpt>
      <trkpt lat="42.96776" lon="0.31415">
        <ele>1511.3</ele>
        <time>2026-07-07T06:59:33Z</time>
      </trkpt>
      <trkpt lat="42.96776" lon="0.31415">
        <ele>1511.3</ele>
        <time>2026-07-07T06:59:34Z</time>
      </trkpt>
      <trkpt lat="42.96776" lon="0.31415">
        <ele>1511.3</ele>
        <time>2026-07-07T06:59:34Z</time>
      </trkpt>
      <trkpt lat="42.96777" lon="0.31416">
        <ele>1511.3</ele>
        <time>2026-07-07T06:59:35Z</time>
      </trkpt>
      <trkpt lat="42.96777" lon="0.31416">
        <ele>1511.3</ele>
        <time>2026-07-07T06:59:36Z</time>
      </trkpt>
      <trkpt lat="42.96777" lon="0.31417">
        <ele>1511.3</ele>
        <time>2026-07-07T06:59:37Z</time>
      </trkpt>
      <trkpt lat="42.96778" lon="0.31417">
        <ele>1511.3</ele>
        <time>2026-07-07T06:59:37Z</time>
      </trkpt>
      <trkpt lat="42.96778" lon="0.31418">
        <ele>1511.3</ele>
        <time>2026-07-07T06:59:38Z</time>
      </trkpt>
      <trkpt lat="42.96778" lon="0.31418">
        <ele>1511.3</ele>
        <time>2026-07-07T06:59:39Z</time>
      </trkpt>
      <trkpt lat="42.96778" lon="0.31419">
        <ele>1511.3</ele>
        <time>2026-07-07T06:59:39Z</time>
      </trkpt>
      <trkpt lat="42.96778" lon="0.3142">
        <ele>1511.3</ele>
        <time>2026-07-07T06:59:40Z</time>
      </trkpt>
      <trkpt lat="42.96778" lon="0.3142">
        <ele>1511.3</ele>
        <time>2026-07-07T06:59:41Z</time>
      </trkpt>
      <trkpt lat="42.96778" lon="0.31421">
        <ele>1511.3</ele>
        <time>2026-07-07T06:59:41Z</time>
      </trkpt>
      <trkpt lat="42.96778" lon="0.31422">
        <ele>1511.3</ele>
        <time>2026-07-07T06:59:42Z</time>
      </trkpt>
      <trkpt lat="42.96778" lon="0.31422">
        <ele>1512.3</ele>
        <time>2026-07-07T06:59:43Z</time>
      </trkpt>
      <trkpt lat="42.96779" lon="0.31423">
        <ele>1512.3</ele>
        <time>2026-07-07T06:59:43Z</time>
      </trkpt>
      <trkpt lat="42.96779" lon="0.31423">
        <ele>1511.3</ele>
        <time>2026-07-07T06:59:44Z</time>
      </trkpt>
      <trkpt lat="42.9678" lon="0.31423">
        <ele>1511.3</ele>
        <time>2026-07-07T06:59:44Z</time>
      </trkpt>
      <trkpt lat="42.9678" lon="0.31423">
        <ele>1511.3</ele>
        <time>2026-07-07T06:59:45Z</time>
      </trkpt>
      <trkpt lat="42.96781" lon="0.31423">
        <ele>1512.3</ele>
        <time>2026-07-07T06:59:46Z</time>
      </trkpt>
      <trkpt lat="42.96782" lon="0.31423">
        <ele>1512.3</ele>
        <time>2026-07-07T06:59:46Z</time>
      </trkpt>
      <trkpt lat="42.96782" lon="0.31424">
        <ele>1511.3</ele>
        <time>2026-07-07T06:59:47Z</time>
      </trkpt>
      <trkpt lat="42.96783" lon="0.31424">
        <ele>1511.3</ele>
        <time>2026-07-07T06:59:48Z</time>
      </trkpt>
      <trkpt lat="42.96783" lon="0.31425">
        <ele>1511.3</ele>
        <time>2026-07-07T06:59:48Z</time>
      </trkpt>
      <trkpt lat="42.96784" lon="0.31425">
        <ele>1511.3</ele>
        <time>2026-07-07T06:59:49Z</time>
      </trkpt>
      <trkpt lat="42.96784" lon="0.31426">
        <ele>1511.3</ele>
        <time>2026-07-07T06:59:50Z</time>
      </trkpt>
      <trkpt lat="42.96785" lon="0.31426">
        <ele>1511.3</ele>
        <time>2026-07-07T06:59:50Z</time>
      </trkpt>
      <trkpt lat="42.96786" lon="0.31427">
        <ele>1511.3</ele>
        <time>2026-07-07T06:59:51Z</time>
      </trkpt>
      <trkpt lat="42.96786" lon="0.31427">
        <ele>1512.3</ele>
        <time>2026-07-07T06:59:51Z</time>
      </trkpt>
      <trkpt lat="42.96786" lon="0.31427">
        <ele>1512.3</ele>
        <time>2026-07-07T06:59:52Z</time>
      </trkpt>
      <trkpt lat="42.96786" lon="0.31426">
        <ele>1512.3</ele>
        <time>2026-07-07T06:59:53Z</time>
      </trkpt>
      <trkpt lat="42.96786" lon="0.31426">
        <ele>1512.3</ele>
        <time>2026-07-07T06:59:54Z</time>
      </trkpt>
      <trkpt lat="42.96787" lon="0.31425">
        <ele>1512.3</ele>
        <time>2026-07-07T06:59:54Z</time>
      </trkpt>
      <trkpt lat="42.96787" lon="0.31425">
        <ele>1512.3</ele>
        <time>2026-07-07T06:59:55Z</time>
      </trkpt>
      <trkpt lat="42.96788" lon="0.31425">
        <ele>1512.3</ele>
        <time>2026-07-07T06:59:56Z</time>
      </trkpt>
      <trkpt lat="42.96788" lon="0.31425">
        <ele>1512.3</ele>
        <time>2026-07-07T06:59:57Z</time>
      </trkpt>
      <trkpt lat="42.96789" lon="0.31426">
        <ele>1512.3</ele>
        <time>2026-07-07T06:59:57Z</time>
      </trkpt>
      <trkpt lat="42.96789" lon="0.31426">
        <ele>1513.3</ele>
        <time>2026-07-07T06:59:58Z</time>
      </trkpt>
      <trkpt lat="42.9679" lon="0.31426">
        <ele>1513.3</ele>
        <time>2026-07-07T06:59:58Z</time>
      </trkpt>
      <trkpt lat="42.9679" lon="0.31427">
        <ele>1513.3</ele>
        <time>2026-07-07T06:59:59Z</time>
      </trkpt>
      <trkpt lat="42.9679" lon="0.31426">
        <ele>1513.3</ele>
        <time>2026-07-07T07:00:00Z</time>
      </trkpt>
      <trkpt lat="42.9679" lon="0.31427">
        <ele>1513.3</ele>
        <time>2026-07-07T07:00:00Z</time>
      </trkpt>
      <trkpt lat="42.9679" lon="0.31426">
        <ele>1513.3</ele>
        <time>2026-07-07T07:00:01Z</time>
      </trkpt>
      <trkpt lat="42.96791" lon="0.31427">
        <ele>1513.3</ele>
        <time>2026-07-07T07:00:02Z</time>
      </trkpt>
      <trkpt lat="42.96791" lon="0.31427">
        <ele>1512.3</ele>
        <time>2026-07-07T07:00:02Z</time>
      </trkpt>
      <trkpt lat="42.96791" lon="0.31428">
        <ele>1512.3</ele>
        <time>2026-07-07T07:00:03Z</time>
      </trkpt>
      <trkpt lat="42.96791" lon="0.31428">
        <ele>1512.3</ele>
        <time>2026-07-07T07:00:04Z</time>
      </trkpt>
      <trkpt lat="42.96791" lon="0.31429">
        <ele>1512.3</ele>
        <time>2026-07-07T07:00:04Z</time>
      </trkpt>
      <trkpt lat="42.96791" lon="0.3143">
        <ele>1511.3</ele>
        <time>2026-07-07T07:00:05Z</time>
      </trkpt>
      <trkpt lat="42.9679" lon="0.3143">
        <ele>1511.3</ele>
        <time>2026-07-07T07:00:05Z</time>
      </trkpt>
      <trkpt lat="42.9679" lon="0.31431">
        <ele>1511.3</ele>
        <time>2026-07-07T07:00:06Z</time>
      </trkpt>
      <trkpt lat="42.9679" lon="0.31431">
        <ele>1511.3</ele>
        <time>2026-07-07T07:00:06Z</time>
      </trkpt>
      <trkpt lat="42.9679" lon="0.31432">
        <ele>1511.3</ele>
        <time>2026-07-07T07:00:07Z</time>
      </trkpt>
      <trkpt lat="42.9679" lon="0.31432">
        <ele>1511.3</ele>
        <time>2026-07-07T07:00:08Z</time>
      </trkpt>
      <trkpt lat="42.96791" lon="0.31433">
        <ele>1511.3</ele>
        <time>2026-07-07T07:00:08Z</time>
      </trkpt>
      <trkpt lat="42.9679" lon="0.31433">
        <ele>1511.3</ele>
        <time>2026-07-07T07:00:09Z</time>
      </trkpt>
      <trkpt lat="42.9679" lon="0.31433">
        <ele>1511.3</ele>
        <time>2026-07-07T07:00:10Z</time>
      </trkpt>
      <trkpt lat="42.96791" lon="0.31434">
        <ele>1511.3</ele>
        <time>2026-07-07T07:00:10Z</time>
      </trkpt>
      <trkpt lat="42.96791" lon="0.31435">
        <ele>1511.3</ele>
        <time>2026-07-07T07:00:11Z</time>
      </trkpt>
      <trkpt lat="42.96791" lon="0.31435">
        <ele>1511.3</ele>
        <time>2026-07-07T07:00:12Z</time>
      </trkpt>
      <trkpt lat="42.96792" lon="0.31436">
        <ele>1511.3</ele>
        <time>2026-07-07T07:00:12Z</time>
      </trkpt>
      <trkpt lat="42.96792" lon="0.31436">
        <ele>1511.3</ele>
        <time>2026-07-07T07:00:13Z</time>
      </trkpt>
      <trkpt lat="42.96792" lon="0.31437">
        <ele>1511.3</ele>
        <time>2026-07-07T07:00:14Z</time>
      </trkpt>
      <trkpt lat="42.96792" lon="0.31437">
        <ele>1512.3</ele>
        <time>2026-07-07T07:00:14Z</time>
      </trkpt>
      <trkpt lat="42.96793" lon="0.31438">
        <ele>1512.3</ele>
        <time>2026-07-07T07:00:15Z</time>
      </trkpt>
      <trkpt lat="42.96793" lon="0.31438">
        <ele>1512.3</ele>
        <time>2026-07-07T07:00:16Z</time>
      </trkpt>
      <trkpt lat="42.96793" lon="0.31439">
        <ele>1512.3</ele>
        <time>2026-07-07T07:00:17Z</time>
      </trkpt>
      <trkpt lat="42.96794" lon="0.31439">
        <ele>1512.3</ele>
        <time>2026-07-07T07:00:17Z</time>
      </trkpt>
      <trkpt lat="42.96794" lon="0.3144">
        <ele>1512.3</ele>
        <time>2026-07-07T07:00:18Z</time>
      </trkpt>
      <trkpt lat="42.96794" lon="0.31441">
        <ele>1512.3</ele>
        <time>2026-07-07T07:00:19Z</time>
      </trkpt>
      <trkpt lat="42.96794" lon="0.31442">
        <ele>1513.3</ele>
        <time>2026-07-07T07:00:20Z</time>
      </trkpt>
      <trkpt lat="42.96794" lon="0.31442">
        <ele>1513.3</ele>
        <time>2026-07-07T07:00:20Z</time>
      </trkpt>
      <trkpt lat="42.96795" lon="0.31443">
        <ele>1513.3</ele>
        <time>2026-07-07T07:00:21Z</time>
      </trkpt>
      <trkpt lat="42.96795" lon="0.31444">
        <ele>1513.3</ele>
        <time>2026-07-07T07:00:22Z</time>
      </trkpt>
      <trkpt lat="42.96795" lon="0.31444">
        <ele>1514.3</ele>
        <time>2026-07-07T07:00:23Z</time>
      </trkpt>
      <trkpt lat="42.96795" lon="0.31445">
        <ele>1514.3</ele>
        <time>2026-07-07T07:00:23Z</time>
      </trkpt>
      <trkpt lat="42.96795" lon="0.31446">
        <ele>1514.3</ele>
        <time>2026-07-07T07:00:24Z</time>
      </trkpt>
      <trkpt lat="42.96795" lon="0.31446">
        <ele>1514.3</ele>
        <time>2026-07-07T07:00:25Z</time>
      </trkpt>
      <trkpt lat="42.96795" lon="0.31447">
        <ele>1514.3</ele>
        <time>2026-07-07T07:00:25Z</time>
      </trkpt>
      <trkpt lat="42.96795" lon="0.31448">
        <ele>1514.3</ele>
        <time>2026-07-07T07:00:26Z</time>
      </trkpt>
      <trkpt lat="42.96795" lon="0.31448">
        <ele>1514.3</ele>
        <time>2026-07-07T07:00:27Z</time>
      </trkpt>
      <trkpt lat="42.96796" lon="0.31449">
        <ele>1514.3</ele>
        <time>2026-07-07T07:00:27Z</time>
      </trkpt>
      <trkpt lat="42.96796" lon="0.3145">
        <ele>1514.3</ele>
        <time>2026-07-07T07:00:28Z</time>
      </trkpt>
      <trkpt lat="42.96796" lon="0.3145">
        <ele>1514.3</ele>
        <time>2026-07-07T07:00:29Z</time>
      </trkpt>
      <trkpt lat="42.96797" lon="0.31451">
        <ele>1514.3</ele>
        <time>2026-07-07T07:00:30Z</time>
      </trkpt>
      <trkpt lat="42.96797" lon="0.31452">
        <ele>1514.3</ele>
        <time>2026-07-07T07:00:30Z</time>
      </trkpt>
      <trkpt lat="42.96797" lon="0.31453">
        <ele>1514.3</ele>
        <time>2026-07-07T07:00:31Z</time>
      </trkpt>
      <trkpt lat="42.96797" lon="0.31453">
        <ele>1514.3</ele>
        <time>2026-07-07T07:00:32Z</time>
      </trkpt>
      <trkpt lat="42.96797" lon="0.31454">
        <ele>1515.3</ele>
        <time>2026-07-07T07:00:32Z</time>
      </trkpt>
      <trkpt lat="42.96798" lon="0.31454">
        <ele>1515.3</ele>
        <time>2026-07-07T07:00:33Z</time>
      </trkpt>
      <trkpt lat="42.96799" lon="0.31455">
        <ele>1515.3</ele>
        <time>2026-07-07T07:00:34Z</time>
      </trkpt>
      <trkpt lat="42.96799" lon="0.31455">
        <ele>1515.3</ele>
        <time>2026-07-07T07:00:34Z</time>
      </trkpt>
      <trkpt lat="42.968" lon="0.31456">
        <ele>1515.3</ele>
        <time>2026-07-07T07:00:35Z</time>
      </trkpt>
      <trkpt lat="42.968" lon="0.31457">
        <ele>1515.3</ele>
        <time>2026-07-07T07:00:36Z</time>
      </trkpt>
      <trkpt lat="42.968" lon="0.31457">
        <ele>1515.3</ele>
        <time>2026-07-07T07:00:36Z</time>
      </trkpt>
      <trkpt lat="42.96801" lon="0.31458">
        <ele>1515.3</ele>
        <time>2026-07-07T07:00:37Z</time>
      </trkpt>
      <trkpt lat="42.96801" lon="0.31459">
        <ele>1515.3</ele>
        <time>2026-07-07T07:00:38Z</time>
      </trkpt>
      <trkpt lat="42.96802" lon="0.31459">
        <ele>1515.3</ele>
        <time>2026-07-07T07:00:38Z</time>
      </trkpt>
      <trkpt lat="42.96802" lon="0.3146">
        <ele>1515.3</ele>
        <time>2026-07-07T07:00:39Z</time>
      </trkpt>
      <trkpt lat="42.96803" lon="0.31461">
        <ele>1515.3</ele>
        <time>2026-07-07T07:00:40Z</time>
      </trkpt>
      <trkpt lat="42.96803" lon="0.31461">
        <ele>1515.3</ele>
        <time>2026-07-07T07:00:40Z</time>
      </trkpt>
      <trkpt lat="42.96803" lon="0.31463">
        <ele>1515.3</ele>
        <time>2026-07-07T07:00:41Z</time>
      </trkpt>
      <trkpt lat="42.96803" lon="0.31464">
        <ele>1516.3</ele>
        <time>2026-07-07T07:00:42Z</time>
      </trkpt>
      <trkpt lat="42.96803" lon="0.31465">
        <ele>1516.3</ele>
        <time>2026-07-07T07:00:42Z</time>
      </trkpt>
      <trkpt lat="42.96803" lon="0.31466">
        <ele>1516.3</ele>
        <time>2026-07-07T07:00:43Z</time>
      </trkpt>
      <trkpt lat="42.96803" lon="0.31467">
        <ele>1516.3</ele>
        <time>2026-07-07T07:00:44Z</time>
      </trkpt>
      <trkpt lat="42.96803" lon="0.31468">
        <ele>1516.3</ele>
        <time>2026-07-07T07:00:44Z</time>
      </trkpt>
      <trkpt lat="42.96803" lon="0.31469">
        <ele>1515.3</ele>
        <time>2026-07-07T07:00:45Z</time>
      </trkpt>
      <trkpt lat="42.96803" lon="0.3147">
        <ele>1515.3</ele>
        <time>2026-07-07T07:00:45Z</time>
      </trkpt>
      <trkpt lat="42.96803" lon="0.31471">
        <ele>1516.3</ele>
        <time>2026-07-07T07:00:46Z</time>
      </trkpt>
      <trkpt lat="42.96803" lon="0.31472">
        <ele>1516.3</ele>
        <time>2026-07-07T07:00:47Z</time>
      </trkpt>
      <trkpt lat="42.96803" lon="0.31473">
        <ele>1516.3</ele>
        <time>2026-07-07T07:00:47Z</time>
      </trkpt>
      <trkpt lat="42.96803" lon="0.31474">
        <ele>1516.3</ele>
        <time>2026-07-07T07:00:48Z</time>
      </trkpt>
      <trkpt lat="42.96803" lon="0.31475">
        <ele>1517.3</ele>
        <time>2026-07-07T07:00:48Z</time>
      </trkpt>
      <trkpt lat="42.96803" lon="0.31476">
        <ele>1517.3</ele>
        <time>2026-07-07T07:00:49Z</time>
      </trkpt>
      <trkpt lat="42.96804" lon="0.31477">
        <ele>1518.3</ele>
        <time>2026-07-07T07:00:50Z</time>
      </trkpt>
      <trkpt lat="42.96804" lon="0.31477">
        <ele>1518.3</ele>
        <time>2026-07-07T07:00:50Z</time>
      </trkpt>
      <trkpt lat="42.96804" lon="0.31478">
        <ele>1518.3</ele>
        <time>2026-07-07T07:00:51Z</time>
      </trkpt>
      <trkpt lat="42.96805" lon="0.31479">
        <ele>1518.3</ele>
        <time>2026-07-07T07:00:52Z</time>
      </trkpt>
      <trkpt lat="42.96805" lon="0.3148">
        <ele>1519.3</ele>
        <time>2026-07-07T07:00:52Z</time>
      </trkpt>
      <trkpt lat="42.96805" lon="0.3148">
        <ele>1519.3</ele>
        <time>2026-07-07T07:00:53Z</time>
      </trkpt>
      <trkpt lat="42.96806" lon="0.31481">
        <ele>1519.3</ele>
        <time>2026-07-07T07:00:54Z</time>
      </trkpt>
      <trkpt lat="42.96806" lon="0.31482">
        <ele>1519.3</ele>
        <time>2026-07-07T07:00:54Z</time>
      </trkpt>
      <trkpt lat="42.96806" lon="0.31483">
        <ele>1519.3</ele>
        <time>2026-07-07T07:00:55Z</time>
      </trkpt>
      <trkpt lat="42.96807" lon="0.31484">
        <ele>1520.3</ele>
        <time>2026-07-07T07:00:56Z</time>
      </trkpt>
      <trkpt lat="42.96807" lon="0.31484">
        <ele>1520.3</ele>
        <time>2026-07-07T07:00:56Z</time>
      </trkpt>
      <trkpt lat="42.96807" lon="0.31485">
        <ele>1520.3</ele>
        <time>2026-07-07T07:00:57Z</time>
      </trkpt>
      <trkpt lat="42.96807" lon="0.31486">
        <ele>1520.3</ele>
        <time>2026-07-07T07:00:57Z</time>
      </trkpt>
      <trkpt lat="42.96807" lon="0.31487">
        <ele>1520.3</ele>
        <time>2026-07-07T07:00:58Z</time>
      </trkpt>
      <trkpt lat="42.96808" lon="0.31488">
        <ele>1520.3</ele>
        <time>2026-07-07T07:00:59Z</time>
      </trkpt>
      <trkpt lat="42.96808" lon="0.31488">
        <ele>1520.3</ele>
        <time>2026-07-07T07:00:59Z</time>
      </trkpt>
      <trkpt lat="42.96808" lon="0.31489">
        <ele>1520.3</ele>
        <time>2026-07-07T07:01:00Z</time>
      </trkpt>
      <trkpt lat="42.96808" lon="0.3149">
        <ele>1520.3</ele>
        <time>2026-07-07T07:01:00Z</time>
      </trkpt>
      <trkpt lat="42.96808" lon="0.31491">
        <ele>1520.3</ele>
        <time>2026-07-07T07:01:01Z</time>
      </trkpt>
      <trkpt lat="42.96808" lon="0.31492">
        <ele>1521.3</ele>
        <time>2026-07-07T07:01:01Z</time>
      </trkpt>
      <trkpt lat="42.96808" lon="0.31493">
        <ele>1521.3</ele>
        <time>2026-07-07T07:01:02Z</time>
      </trkpt>
      <trkpt lat="42.96808" lon="0.31494">
        <ele>1521.3</ele>
        <time>2026-07-07T07:01:03Z</time>
      </trkpt>
      <trkpt lat="42.96808" lon="0.31494">
        <ele>1521.3</ele>
        <time>2026-07-07T07:01:03Z</time>
      </trkpt>
      <trkpt lat="42.96808" lon="0.31495">
        <ele>1521.3</ele>
        <time>2026-07-07T07:01:04Z</time>
      </trkpt>
      <trkpt lat="42.96809" lon="0.31496">
        <ele>1522.3</ele>
        <time>2026-07-07T07:01:05Z</time>
      </trkpt>
      <trkpt lat="42.96809" lon="0.31497">
        <ele>1523.3</ele>
        <time>2026-07-07T07:01:06Z</time>
      </trkpt>
      <trkpt lat="42.96809" lon="0.31498">
        <ele>1523.3</ele>
        <time>2026-07-07T07:01:06Z</time>
      </trkpt>
      <trkpt lat="42.96809" lon="0.31499">
        <ele>1523.3</ele>
        <time>2026-07-07T07:01:07Z</time>
      </trkpt>
      <trkpt lat="42.96809" lon="0.31499">
        <ele>1523.3</ele>
        <time>2026-07-07T07:01:08Z</time>
      </trkpt>
      <trkpt lat="42.96809" lon="0.315">
        <ele>1523.3</ele>
        <time>2026-07-07T07:01:08Z</time>
      </trkpt>
      <trkpt lat="42.9681" lon="0.31501">
        <ele>1523.3</ele>
        <time>2026-07-07T07:01:09Z</time>
      </trkpt>
      <trkpt lat="42.9681" lon="0.31502">
        <ele>1523.3</ele>
        <time>2026-07-07T07:01:10Z</time>
      </trkpt>
      <trkpt lat="42.9681" lon="0.31503">
        <ele>1523.3</ele>
        <time>2026-07-07T07:01:10Z</time>
      </trkpt>
      <trkpt lat="42.9681" lon="0.31504">
        <ele>1524.3</ele>
        <time>2026-07-07T07:01:11Z</time>
      </trkpt>
      <trkpt lat="42.96811" lon="0.31504">
        <ele>1524.3</ele>
        <time>2026-07-07T07:01:12Z</time>
      </trkpt>
      <trkpt lat="42.96811" lon="0.31505">
        <ele>1524.3</ele>
        <time>2026-07-07T07:01:12Z</time>
      </trkpt>
      <trkpt lat="42.96811" lon="0.31506">
        <ele>1524.3</ele>
        <time>2026-07-07T07:01:13Z</time>
      </trkpt>
      <trkpt lat="42.96812" lon="0.31506">
        <ele>1525.3</ele>
        <time>2026-07-07T07:01:14Z</time>
      </trkpt>
      <trkpt lat="42.96812" lon="0.31507">
        <ele>1525.3</ele>
        <time>2026-07-07T07:01:14Z</time>
      </trkpt>
      <trkpt lat="42.96812" lon="0.31508">
        <ele>1525.3</ele>
        <time>2026-07-07T07:01:15Z</time>
      </trkpt>
      <trkpt lat="42.96813" lon="0.31509">
        <ele>1525.3</ele>
        <time>2026-07-07T07:01:16Z</time>
      </trkpt>
      <trkpt lat="42.96813" lon="0.31509">
        <ele>1525.3</ele>
        <time>2026-07-07T07:01:16Z</time>
      </trkpt>
      <trkpt lat="42.96814" lon="0.31511">
        <ele>1525.3</ele>
        <time>2026-07-07T07:01:17Z</time>
      </trkpt>
      <trkpt lat="42.96815" lon="0.31511">
        <ele>1525.3</ele>
        <time>2026-07-07T07:01:18Z</time>
      </trkpt>
      <trkpt lat="42.96815" lon="0.31512">
        <ele>1525.3</ele>
        <time>2026-07-07T07:01:18Z</time>
      </trkpt>
      <trkpt lat="42.96815" lon="0.31513">
        <ele>1525.3</ele>
        <time>2026-07-07T07:01:19Z</time>
      </trkpt>
      <trkpt lat="42.96816" lon="0.31514">
        <ele>1525.3</ele>
        <time>2026-07-07T07:01:20Z</time>
      </trkpt>
      <trkpt lat="42.96816" lon="0.31514">
        <ele>1525.3</ele>
        <time>2026-07-07T07:01:20Z</time>
      </trkpt>
      <trkpt lat="42.96816" lon="0.31515">
        <ele>1525.3</ele>
        <time>2026-07-07T07:01:21Z</time>
      </trkpt>
      <trkpt lat="42.96817" lon="0.31516">
        <ele>1525.3</ele>
        <time>2026-07-07T07:01:22Z</time>
      </trkpt>
      <trkpt lat="42.96817" lon="0.31517">
        <ele>1525.3</ele>
        <time>2026-07-07T07:01:22Z</time>
      </trkpt>
      <trkpt lat="42.96817" lon="0.31518">
        <ele>1525.3</ele>
        <time>2026-07-07T07:01:23Z</time>
      </trkpt>
      <trkpt lat="42.96817" lon="0.31519">
        <ele>1525.3</ele>
        <time>2026-07-07T07:01:24Z</time>
      </trkpt>
      <trkpt lat="42.96817" lon="0.3152">
        <ele>1524.3</ele>
        <time>2026-07-07T07:01:24Z</time>
      </trkpt>
      <trkpt lat="42.96817" lon="0.31521">
        <ele>1524.3</ele>
        <time>2026-07-07T07:01:25Z</time>
      </trkpt>
      <trkpt lat="42.96818" lon="0.31522">
        <ele>1524.3</ele>
        <time>2026-07-07T07:01:26Z</time>
      </trkpt>
      <trkpt lat="42.96818" lon="0.31523">
        <ele>1523.3</ele>
        <time>2026-07-07T07:01:27Z</time>
      </trkpt>
      <trkpt lat="42.96818" lon="0.31523">
        <ele>1523.3</ele>
        <time>2026-07-07T07:01:27Z</time>
      </trkpt>
      <trkpt lat="42.96818" lon="0.31524">
        <ele>1523.3</ele>
        <time>2026-07-07T07:01:28Z</time>
      </trkpt>
      <trkpt lat="42.96818" lon="0.31524">
        <ele>1523.3</ele>
        <time>2026-07-07T07:01:28Z</time>
      </trkpt>
      <trkpt lat="42.96818" lon="0.31525">
        <ele>1523.3</ele>
        <time>2026-07-07T07:01:29Z</time>
      </trkpt>
      <trkpt lat="42.96818" lon="0.31526">
        <ele>1522.3</ele>
        <time>2026-07-07T07:01:30Z</time>
      </trkpt>
      <trkpt lat="42.96818" lon="0.31527">
        <ele>1522.3</ele>
        <time>2026-07-07T07:01:30Z</time>
      </trkpt>
      <trkpt lat="42.96819" lon="0.31528">
        <ele>1521.3</ele>
        <time>2026-07-07T07:01:31Z</time>
      </trkpt>
      <trkpt lat="42.96819" lon="0.31529">
        <ele>1521.3</ele>
        <time>2026-07-07T07:01:31Z</time>
      </trkpt>
      <trkpt lat="42.96819" lon="0.3153">
        <ele>1521.3</ele>
        <time>2026-07-07T07:01:32Z</time>
      </trkpt>
      <trkpt lat="42.9682" lon="0.31531">
        <ele>1522.3</ele>
        <time>2026-07-07T07:01:33Z</time>
      </trkpt>
      <trkpt lat="42.9682" lon="0.31531">
        <ele>1522.3</ele>
        <time>2026-07-07T07:01:33Z</time>
      </trkpt>
      <trkpt lat="42.9682" lon="0.31532">
        <ele>1522.3</ele>
        <time>2026-07-07T07:01:34Z</time>
      </trkpt>
      <trkpt lat="42.9682" lon="0.31533">
        <ele>1523.3</ele>
        <time>2026-07-07T07:01:35Z</time>
      </trkpt>
      <trkpt lat="42.96821" lon="0.31533">
        <ele>1522.3</ele>
        <time>2026-07-07T07:01:35Z</time>
      </trkpt>
      <trkpt lat="42.96821" lon="0.31534">
        <ele>1522.3</ele>
        <time>2026-07-07T07:01:36Z</time>
      </trkpt>
      <trkpt lat="42.96821" lon="0.31534">
        <ele>1522.3</ele>
        <time>2026-07-07T07:01:37Z</time>
      </trkpt>
      <trkpt lat="42.96822" lon="0.31535">
        <ele>1522.3</ele>
        <time>2026-07-07T07:01:37Z</time>
      </trkpt>
      <trkpt lat="42.96822" lon="0.31536">
        <ele>1522.3</ele>
        <time>2026-07-07T07:01:38Z</time>
      </trkpt>
      <trkpt lat="42.96823" lon="0.31536">
        <ele>1522.3</ele>
        <time>2026-07-07T07:01:39Z</time>
      </trkpt>
      <trkpt lat="42.96823" lon="0.31537">
        <ele>1522.3</ele>
        <time>2026-07-07T07:01:39Z</time>
      </trkpt>
      <trkpt lat="42.96824" lon="0.31538">
        <ele>1522.3</ele>
        <time>2026-07-07T07:01:40Z</time>
      </trkpt>
      <trkpt lat="42.96824" lon="0.31538">
        <ele>1522.3</ele>
        <time>2026-07-07T07:01:41Z</time>
      </trkpt>
      <trkpt lat="42.96824" lon="0.31539">
        <ele>1523.3</ele>
        <time>2026-07-07T07:01:41Z</time>
      </trkpt>
      <trkpt lat="42.96824" lon="0.31539">
        <ele>1523.3</ele>
        <time>2026-07-07T07:01:42Z</time>
      </trkpt>
      <trkpt lat="42.96824" lon="0.3154">
        <ele>1523.3</ele>
        <time>2026-07-07T07:01:42Z</time>
      </trkpt>
      <trkpt lat="42.96824" lon="0.31541">
        <ele>1523.3</ele>
        <time>2026-07-07T07:01:43Z</time>
      </trkpt>
      <trkpt lat="42.96824" lon="0.31542">
        <ele>1522.3</ele>
        <time>2026-07-07T07:01:43Z</time>
      </trkpt>
      <trkpt lat="42.96825" lon="0.31543">
        <ele>1522.3</ele>
        <time>2026-07-07T07:01:44Z</time>
      </trkpt>
      <trkpt lat="42.96825" lon="0.31543">
        <ele>1522.3</ele>
        <time>2026-07-07T07:01:45Z</time>
      </trkpt>
      <trkpt lat="42.96825" lon="0.31544">
        <ele>1522.3</ele>
        <time>2026-07-07T07:01:45Z</time>
      </trkpt>
      <trkpt lat="42.96826" lon="0.31545">
        <ele>1522.3</ele>
        <time>2026-07-07T07:01:46Z</time>
      </trkpt>
      <trkpt lat="42.96826" lon="0.31545">
        <ele>1522.3</ele>
        <time>2026-07-07T07:01:47Z</time>
      </trkpt>
      <trkpt lat="42.96826" lon="0.31546">
        <ele>1522.3</ele>
        <time>2026-07-07T07:01:47Z</time>
      </trkpt>
      <trkpt lat="42.96826" lon="0.31547">
        <ele>1522.3</ele>
        <time>2026-07-07T07:01:48Z</time>
      </trkpt>
      <trkpt lat="42.96826" lon="0.31548">
        <ele>1522.3</ele>
        <time>2026-07-07T07:01:48Z</time>
      </trkpt>
      <trkpt lat="42.96826" lon="0.31549">
        <ele>1522.3</ele>
        <time>2026-07-07T07:01:49Z</time>
      </trkpt>
      <trkpt lat="42.96826" lon="0.31549">
        <ele>1522.3</ele>
        <time>2026-07-07T07:01:50Z</time>
      </trkpt>
      <trkpt lat="42.96826" lon="0.31549">
        <ele>1521.3</ele>
        <time>2026-07-07T07:01:50Z</time>
      </trkpt>
      <trkpt lat="42.96826" lon="0.3155">
        <ele>1521.3</ele>
        <time>2026-07-07T07:01:51Z</time>
      </trkpt>
      <trkpt lat="42.96826" lon="0.3155">
        <ele>1521.3</ele>
        <time>2026-07-07T07:01:52Z</time>
      </trkpt>
      <trkpt lat="42.96827" lon="0.3155">
        <ele>1521.3</ele>
        <time>2026-07-07T07:01:52Z</time>
      </trkpt>
      <trkpt lat="42.96827" lon="0.31551">
        <ele>1521.3</ele>
        <time>2026-07-07T07:01:53Z</time>
      </trkpt>
      <trkpt lat="42.96827" lon="0.31552">
        <ele>1521.3</ele>
        <time>2026-07-07T07:01:54Z</time>
      </trkpt>
      <trkpt lat="42.96827" lon="0.31552">
        <ele>1521.3</ele>
        <time>2026-07-07T07:01:54Z</time>
      </trkpt>
      <trkpt lat="42.96827" lon="0.31553">
        <ele>1521.3</ele>
        <time>2026-07-07T07:01:55Z</time>
      </trkpt>
      <trkpt lat="42.96827" lon="0.31553">
        <ele>1522.3</ele>
        <time>2026-07-07T07:01:56Z</time>
      </trkpt>
      <trkpt lat="42.96828" lon="0.31553">
        <ele>1522.3</ele>
        <time>2026-07-07T07:01:56Z</time>
      </trkpt>
      <trkpt lat="42.96828" lon="0.31554">
        <ele>1522.3</ele>
        <time>2026-07-07T07:01:57Z</time>
      </trkpt>
      <trkpt lat="42.96828" lon="0.31554">
        <ele>1522.3</ele>
        <time>2026-07-07T07:01:58Z</time>
      </trkpt>
      <trkpt lat="42.96828" lon="0.31555">
        <ele>1521.3</ele>
        <time>2026-07-07T07:01:58Z</time>
      </trkpt>
      <trkpt lat="42.96828" lon="0.31555">
        <ele>1521.3</ele>
        <time>2026-07-07T07:01:59Z</time>
      </trkpt>
      <trkpt lat="42.96828" lon="0.31556">
        <ele>1521.3</ele>
        <time>2026-07-07T07:02:00Z</time>
      </trkpt>
      <trkpt lat="42.96828" lon="0.31556">
        <ele>1521.3</ele>
        <time>2026-07-07T07:02:01Z</time>
      </trkpt>
      <trkpt lat="42.96828" lon="0.31557">
        <ele>1521.3</ele>
        <time>2026-07-07T07:02:01Z</time>
      </trkpt>
      <trkpt lat="42.96828" lon="0.31558">
        <ele>1521.3</ele>
        <time>2026-07-07T07:02:02Z</time>
      </trkpt>
      <trkpt lat="42.96828" lon="0.31558">
        <ele>1520.3</ele>
        <time>2026-07-07T07:02:02Z</time>
      </trkpt>
      <trkpt lat="42.96827" lon="0.31559">
        <ele>1520.3</ele>
        <time>2026-07-07T07:02:03Z</time>
      </trkpt>
      <trkpt lat="42.96828" lon="0.3156">
        <ele>1520.3</ele>
        <time>2026-07-07T07:02:04Z</time>
      </trkpt>
      <trkpt lat="42.96828" lon="0.31561">
        <ele>1520.3</ele>
        <time>2026-07-07T07:02:04Z</time>
      </trkpt>
      <trkpt lat="42.96828" lon="0.31562">
        <ele>1520.3</ele>
        <time>2026-07-07T07:02:05Z</time>
      </trkpt>
      <trkpt lat="42.96828" lon="0.31563">
        <ele>1521.3</ele>
        <time>2026-07-07T07:02:05Z</time>
      </trkpt>
      <trkpt lat="42.96828" lon="0.31563">
        <ele>1521.3</ele>
        <time>2026-07-07T07:02:06Z</time>
      </trkpt>
      <trkpt lat="42.96828" lon="0.31564">
        <ele>1521.3</ele>
        <time>2026-07-07T07:02:07Z</time>
      </trkpt>
      <trkpt lat="42.96828" lon="0.31565">
        <ele>1521.3</ele>
        <time>2026-07-07T07:02:07Z</time>
      </trkpt>
      <trkpt lat="42.96828" lon="0.31566">
        <ele>1521.3</ele>
        <time>2026-07-07T07:02:08Z</time>
      </trkpt>
      <trkpt lat="42.96828" lon="0.31566">
        <ele>1521.3</ele>
        <time>2026-07-07T07:02:08Z</time>
      </trkpt>
      <trkpt lat="42.96829" lon="0.31568">
        <ele>1521.3</ele>
        <time>2026-07-07T07:02:09Z</time>
      </trkpt>
      <trkpt lat="42.96829" lon="0.31569">
        <ele>1521.3</ele>
        <time>2026-07-07T07:02:10Z</time>
      </trkpt>
      <trkpt lat="42.96829" lon="0.3157">
        <ele>1521.3</ele>
        <time>2026-07-07T07:02:10Z</time>
      </trkpt>
      <trkpt lat="42.96829" lon="0.31571">
        <ele>1521.3</ele>
        <time>2026-07-07T07:02:11Z</time>
      </trkpt>
      <trkpt lat="42.96829" lon="0.31571">
        <ele>1520.3</ele>
        <time>2026-07-07T07:02:11Z</time>
      </trkpt>
      <trkpt lat="42.96829" lon="0.31572">
        <ele>1520.3</ele>
        <time>2026-07-07T07:02:12Z</time>
      </trkpt>
      <trkpt lat="42.96829" lon="0.31573">
        <ele>1521.3</ele>
        <time>2026-07-07T07:02:13Z</time>
      </trkpt>
      <trkpt lat="42.96829" lon="0.31574">
        <ele>1521.3</ele>
        <time>2026-07-07T07:02:13Z</time>
      </trkpt>
      <trkpt lat="42.96829" lon="0.31575">
        <ele>1521.3</ele>
        <time>2026-07-07T07:02:14Z</time>
      </trkpt>
      <trkpt lat="42.9683" lon="0.31575">
        <ele>1521.3</ele>
        <time>2026-07-07T07:02:14Z</time>
      </trkpt>
      <trkpt lat="42.9683" lon="0.31576">
        <ele>1521.3</ele>
        <time>2026-07-07T07:02:15Z</time>
      </trkpt>
      <trkpt lat="42.9683" lon="0.31577">
        <ele>1521.3</ele>
        <time>2026-07-07T07:02:16Z</time>
      </trkpt>
      <trkpt lat="42.96831" lon="0.31578">
        <ele>1521.3</ele>
        <time>2026-07-07T07:02:16Z</time>
      </trkpt>
      <trkpt lat="42.96831" lon="0.31579">
        <ele>1521.3</ele>
        <time>2026-07-07T07:02:17Z</time>
      </trkpt>
      <trkpt lat="42.96831" lon="0.31579">
        <ele>1522.3</ele>
        <time>2026-07-07T07:02:18Z</time>
      </trkpt>
      <trkpt lat="42.96832" lon="0.3158">
        <ele>1523.3</ele>
        <time>2026-07-07T07:02:19Z</time>
      </trkpt>
      <trkpt lat="42.96832" lon="0.31581">
        <ele>1523.3</ele>
        <time>2026-07-07T07:02:19Z</time>
      </trkpt>
      <trkpt lat="42.96832" lon="0.31582">
        <ele>1523.3</ele>
        <time>2026-07-07T07:02:20Z</time>
      </trkpt>
      <trkpt lat="42.96833" lon="0.31582">
        <ele>1523.3</ele>
        <time>2026-07-07T07:02:21Z</time>
      </trkpt>
      <trkpt lat="42.96833" lon="0.31583">
        <ele>1523.3</ele>
        <time>2026-07-07T07:02:21Z</time>
      </trkpt>
      <trkpt lat="42.96832" lon="0.31584">
        <ele>1523.3</ele>
        <time>2026-07-07T07:02:22Z</time>
      </trkpt>
      <trkpt lat="42.96832" lon="0.31584">
        <ele>1523.3</ele>
        <time>2026-07-07T07:02:23Z</time>
      </trkpt>
      <trkpt lat="42.96832" lon="0.31585">
        <ele>1523.3</ele>
        <time>2026-07-07T07:02:23Z</time>
      </trkpt>
      <trkpt lat="42.96832" lon="0.31586">
        <ele>1523.3</ele>
        <time>2026-07-07T07:02:24Z</time>
      </trkpt>
      <trkpt lat="42.96832" lon="0.31586">
        <ele>1523.3</ele>
        <time>2026-07-07T07:02:25Z</time>
      </trkpt>
      <trkpt lat="42.96831" lon="0.31587">
        <ele>1523.3</ele>
        <time>2026-07-07T07:02:25Z</time>
      </trkpt>
      <trkpt lat="42.96831" lon="0.31588">
        <ele>1524.3</ele>
        <time>2026-07-07T07:02:26Z</time>
      </trkpt>
      <trkpt lat="42.96831" lon="0.31588">
        <ele>1524.3</ele>
        <time>2026-07-07T07:02:26Z</time>
      </trkpt>
      <trkpt lat="42.96831" lon="0.31589">
        <ele>1524.3</ele>
        <time>2026-07-07T07:02:27Z</time>
      </trkpt>
      <trkpt lat="42.96831" lon="0.3159">
        <ele>1524.3</ele>
        <time>2026-07-07T07:02:28Z</time>
      </trkpt>
      <trkpt lat="42.9683" lon="0.3159">
        <ele>1524.3</ele>
        <time>2026-07-07T07:02:28Z</time>
      </trkpt>
      <trkpt lat="42.9683" lon="0.31591">
        <ele>1524.3</ele>
        <time>2026-07-07T07:02:29Z</time>
      </trkpt>
      <trkpt lat="42.9683" lon="0.31592">
        <ele>1524.3</ele>
        <time>2026-07-07T07:02:29Z</time>
      </trkpt>
      <trkpt lat="42.9683" lon="0.31593">
        <ele>1524.3</ele>
        <time>2026-07-07T07:02:30Z</time>
      </trkpt>
      <trkpt lat="42.9683" lon="0.31593">
        <ele>1524.3</ele>
        <time>2026-07-07T07:02:31Z</time>
      </trkpt>
      <trkpt lat="42.9683" lon="0.31594">
        <ele>1524.3</ele>
        <time>2026-07-07T07:02:31Z</time>
      </trkpt>
      <trkpt lat="42.96831" lon="0.31594">
        <ele>1524.3</ele>
        <time>2026-07-07T07:02:32Z</time>
      </trkpt>
      <trkpt lat="42.96831" lon="0.31595">
        <ele>1524.3</ele>
        <time>2026-07-07T07:02:33Z</time>
      </trkpt>
      <trkpt lat="42.96832" lon="0.31596">
        <ele>1524.3</ele>
        <time>2026-07-07T07:02:33Z</time>
      </trkpt>
      <trkpt lat="42.96832" lon="0.31597">
        <ele>1524.3</ele>
        <time>2026-07-07T07:02:34Z</time>
      </trkpt>
      <trkpt lat="42.96833" lon="0.31597">
        <ele>1524.3</ele>
        <time>2026-07-07T07:02:35Z</time>
      </trkpt>
      <trkpt lat="42.96833" lon="0.31598">
        <ele>1524.3</ele>
        <time>2026-07-07T07:02:35Z</time>
      </trkpt>
      <trkpt lat="42.96833" lon="0.31599">
        <ele>1524.3</ele>
        <time>2026-07-07T07:02:36Z</time>
      </trkpt>
      <trkpt lat="42.96834" lon="0.316">
        <ele>1524.3</ele>
        <time>2026-07-07T07:02:37Z</time>
      </trkpt>
      <trkpt lat="42.96834" lon="0.316">
        <ele>1524.3</ele>
        <time>2026-07-07T07:02:38Z</time>
      </trkpt>
      <trkpt lat="42.96834" lon="0.31601">
        <ele>1524.3</ele>
        <time>2026-07-07T07:02:38Z</time>
      </trkpt>
      <trkpt lat="42.96834" lon="0.31602">
        <ele>1524.3</ele>
        <time>2026-07-07T07:02:39Z</time>
      </trkpt>
      <trkpt lat="42.96835" lon="0.31602">
        <ele>1524.3</ele>
        <time>2026-07-07T07:02:39Z</time>
      </trkpt>
      <trkpt lat="42.96835" lon="0.31603">
        <ele>1524.3</ele>
        <time>2026-07-07T07:02:40Z</time>
      </trkpt>
      <trkpt lat="42.96835" lon="0.31604">
        <ele>1524.3</ele>
        <time>2026-07-07T07:02:41Z</time>
      </trkpt>
      <trkpt lat="42.96836" lon="0.31604">
        <ele>1524.3</ele>
        <time>2026-07-07T07:02:42Z</time>
      </trkpt>
      <trkpt lat="42.96836" lon="0.31604">
        <ele>1524.3</ele>
        <time>2026-07-07T07:02:42Z</time>
      </trkpt>
      <trkpt lat="42.96837" lon="0.31605">
        <ele>1524.3</ele>
        <time>2026-07-07T07:02:43Z</time>
      </trkpt>
      <trkpt lat="42.96838" lon="0.31605">
        <ele>1524.3</ele>
        <time>2026-07-07T07:02:44Z</time>
      </trkpt>
      <trkpt lat="42.96838" lon="0.31606">
        <ele>1524.3</ele>
        <time>2026-07-07T07:02:44Z</time>
      </trkpt>
      <trkpt lat="42.96839" lon="0.31606">
        <ele>1524.3</ele>
        <time>2026-07-07T07:02:45Z</time>
      </trkpt>
      <trkpt lat="42.96839" lon="0.31607">
        <ele>1524.3</ele>
        <time>2026-07-07T07:02:46Z</time>
      </trkpt>
      <trkpt lat="42.96839" lon="0.31607">
        <ele>1525.3</ele>
        <time>2026-07-07T07:02:46Z</time>
      </trkpt>
      <trkpt lat="42.9684" lon="0.31608">
        <ele>1525.3</ele>
        <time>2026-07-07T07:02:47Z</time>
      </trkpt>
      <trkpt lat="42.9684" lon="0.31609">
        <ele>1525.3</ele>
        <time>2026-07-07T07:02:48Z</time>
      </trkpt>
      <trkpt lat="42.9684" lon="0.3161">
        <ele>1525.3</ele>
        <time>2026-07-07T07:02:49Z</time>
      </trkpt>
      <trkpt lat="42.9684" lon="0.31611">
        <ele>1525.3</ele>
        <time>2026-07-07T07:02:50Z</time>
      </trkpt>
      <trkpt lat="42.9684" lon="0.31611">
        <ele>1526.3</ele>
        <time>2026-07-07T07:02:50Z</time>
      </trkpt>
      <trkpt lat="42.9684" lon="0.31612">
        <ele>1526.3</ele>
        <time>2026-07-07T07:02:51Z</time>
      </trkpt>
      <trkpt lat="42.9684" lon="0.31613">
        <ele>1526.3</ele>
        <time>2026-07-07T07:02:52Z</time>
      </trkpt>
      <trkpt lat="42.96841" lon="0.31614">
        <ele>1527.3</ele>
        <time>2026-07-07T07:02:52Z</time>
      </trkpt>
      <trkpt lat="42.96841" lon="0.31615">
        <ele>1527.3</ele>
        <time>2026-07-07T07:02:53Z</time>
      </trkpt>
      <trkpt lat="42.96841" lon="0.31616">
        <ele>1528.3</ele>
        <time>2026-07-07T07:02:54Z</time>
      </trkpt>
      <trkpt lat="42.96841" lon="0.31617">
        <ele>1528.3</ele>
        <time>2026-07-07T07:02:55Z</time>
      </trkpt>
      <trkpt lat="42.96841" lon="0.31617">
        <ele>1528.3</ele>
        <time>2026-07-07T07:02:55Z</time>
      </trkpt>
      <trkpt lat="42.96841" lon="0.31618">
        <ele>1527.3</ele>
        <time>2026-07-07T07:02:56Z</time>
      </trkpt>
      <trkpt lat="42.96842" lon="0.31619">
        <ele>1527.3</ele>
        <time>2026-07-07T07:02:57Z</time>
      </trkpt>
      <trkpt lat="42.96842" lon="0.3162">
        <ele>1527.3</ele>
        <time>2026-07-07T07:02:58Z</time>
      </trkpt>
      <trkpt lat="42.96842" lon="0.3162">
        <ele>1527.3</ele>
        <time>2026-07-07T07:02:58Z</time>
      </trkpt>
      <trkpt lat="42.96843" lon="0.31621">
        <ele>1527.3</ele>
        <time>2026-07-07T07:02:59Z</time>
      </trkpt>
      <trkpt lat="42.96843" lon="0.31622">
        <ele>1527.3</ele>
        <time>2026-07-07T07:03:00Z</time>
      </trkpt>
      <trkpt lat="42.96843" lon="0.31623">
        <ele>1527.3</ele>
        <time>2026-07-07T07:03:01Z</time>
      </trkpt>
      <trkpt lat="42.96843" lon="0.31623">
        <ele>1527.3</ele>
        <time>2026-07-07T07:03:01Z</time>
      </trkpt>
      <trkpt lat="42.96843" lon="0.31625">
        <ele>1527.3</ele>
        <time>2026-07-07T07:03:02Z</time>
      </trkpt>
      <trkpt lat="42.96843" lon="0.31625">
        <ele>1527.3</ele>
        <time>2026-07-07T07:03:03Z</time>
      </trkpt>
      <trkpt lat="42.96843" lon="0.31626">
        <ele>1528.3</ele>
        <time>2026-07-07T07:03:04Z</time>
      </trkpt>
      <trkpt lat="42.96842" lon="0.31626">
        <ele>1528.3</ele>
        <time>2026-07-07T07:03:04Z</time>
      </trkpt>
      <trkpt lat="42.96842" lon="0.31626">
        <ele>1528.3</ele>
        <time>2026-07-07T07:03:05Z</time>
      </trkpt>
      <trkpt lat="42.96842" lon="0.31627">
        <ele>1528.3</ele>
        <time>2026-07-07T07:03:06Z</time>
      </trkpt>
      <trkpt lat="42.96841" lon="0.31628">
        <ele>1528.3</ele>
        <time>2026-07-07T07:03:06Z</time>
      </trkpt>
      <trkpt lat="42.96841" lon="0.31628">
        <ele>1528.3</ele>
        <time>2026-07-07T07:03:07Z</time>
      </trkpt>
      <trkpt lat="42.96841" lon="0.31629">
        <ele>1528.3</ele>
        <time>2026-07-07T07:03:07Z</time>
      </trkpt>
      <trkpt lat="42.96841" lon="0.3163">
        <ele>1528.3</ele>
        <time>2026-07-07T07:03:08Z</time>
      </trkpt>
      <trkpt lat="42.96841" lon="0.3163">
        <ele>1528.3</ele>
        <time>2026-07-07T07:03:09Z</time>
      </trkpt>
      <trkpt lat="42.96841" lon="0.31631">
        <ele>1527.3</ele>
        <time>2026-07-07T07:03:10Z</time>
      </trkpt>
      <trkpt lat="42.96841" lon="0.31632">
        <ele>1527.3</ele>
        <time>2026-07-07T07:03:10Z</time>
      </trkpt>
      <trkpt lat="42.96841" lon="0.31633">
        <ele>1527.3</ele>
        <time>2026-07-07T07:03:11Z</time>
      </trkpt>
      <trkpt lat="42.9684" lon="0.31633">
        <ele>1527.3</ele>
        <time>2026-07-07T07:03:12Z</time>
      </trkpt>
      <trkpt lat="42.9684" lon="0.31634">
        <ele>1527.3</ele>
        <time>2026-07-07T07:03:12Z</time>
      </trkpt>
      <trkpt lat="42.9684" lon="0.31635">
        <ele>1527.3</ele>
        <time>2026-07-07T07:03:13Z</time>
      </trkpt>
      <trkpt lat="42.9684" lon="0.31636">
        <ele>1528.3</ele>
        <time>2026-07-07T07:03:14Z</time>
      </trkpt>
      <trkpt lat="42.9684" lon="0.31636">
        <ele>1528.3</ele>
        <time>2026-07-07T07:03:15Z</time>
      </trkpt>
      <trkpt lat="42.96839" lon="0.31637">
        <ele>1528.3</ele>
        <time>2026-07-07T07:03:15Z</time>
      </trkpt>
      <trkpt lat="42.96839" lon="0.31638">
        <ele>1529.3</ele>
        <time>2026-07-07T07:03:16Z</time>
      </trkpt>
      <trkpt lat="42.96839" lon="0.31639">
        <ele>1529.3</ele>
        <time>2026-07-07T07:03:17Z</time>
      </trkpt>
      <trkpt lat="42.96838" lon="0.3164">
        <ele>1529.3</ele>
        <time>2026-07-07T07:03:17Z</time>
      </trkpt>
      <trkpt lat="42.96838" lon="0.3164">
        <ele>1529.3</ele>
        <time>2026-07-07T07:03:18Z</time>
      </trkpt>
      <trkpt lat="42.96838" lon="0.31641">
        <ele>1530.3</ele>
        <time>2026-07-07T07:03:19Z</time>
      </trkpt>
      <trkpt lat="42.96838" lon="0.31641">
        <ele>1530.3</ele>
        <time>2026-07-07T07:03:20Z</time>
      </trkpt>
      <trkpt lat="42.96838" lon="0.31641">
        <ele>1530.3</ele>
        <time>2026-07-07T07:03:20Z</time>
      </trkpt>
      <trkpt lat="42.96837" lon="0.31642">
        <ele>1530.3</ele>
        <time>2026-07-07T07:03:21Z</time>
      </trkpt>
      <trkpt lat="42.96837" lon="0.31643">
        <ele>1530.3</ele>
        <time>2026-07-07T07:03:22Z</time>
      </trkpt>
      <trkpt lat="42.96837" lon="0.31643">
        <ele>1530.3</ele>
        <time>2026-07-07T07:03:23Z</time>
      </trkpt>
      <trkpt lat="42.96837" lon="0.31644">
        <ele>1530.3</ele>
        <time>2026-07-07T07:03:23Z</time>
      </trkpt>
      <trkpt lat="42.96837" lon="0.31645">
        <ele>1530.3</ele>
        <time>2026-07-07T07:03:24Z</time>
      </trkpt>
      <trkpt lat="42.96837" lon="0.31645">
        <ele>1531.3</ele>
        <time>2026-07-07T07:03:25Z</time>
      </trkpt>
      <trkpt lat="42.96837" lon="0.31645">
        <ele>1531.3</ele>
        <time>2026-07-07T07:03:25Z</time>
      </trkpt>
      <trkpt lat="42.96837" lon="0.31646">
        <ele>1531.3</ele>
        <time>2026-07-07T07:03:26Z</time>
      </trkpt>
      <trkpt lat="42.96837" lon="0.31646">
        <ele>1531.3</ele>
        <time>2026-07-07T07:03:27Z</time>
      </trkpt>
      <trkpt lat="42.96836" lon="0.31646">
        <ele>1531.3</ele>
        <time>2026-07-07T07:03:28Z</time>
      </trkpt>
      <trkpt lat="42.96836" lon="0.31647">
        <ele>1531.3</ele>
        <time>2026-07-07T07:03:28Z</time>
      </trkpt>
      <trkpt lat="42.96835" lon="0.31648">
        <ele>1531.3</ele>
        <time>2026-07-07T07:03:29Z</time>
      </trkpt>
      <trkpt lat="42.96835" lon="0.31649">
        <ele>1532.3</ele>
        <time>2026-07-07T07:03:30Z</time>
      </trkpt>
      <trkpt lat="42.96835" lon="0.3165">
        <ele>1532.3</ele>
        <time>2026-07-07T07:03:31Z</time>
      </trkpt>
      <trkpt lat="42.96835" lon="0.3165">
        <ele>1532.3</ele>
        <time>2026-07-07T07:03:31Z</time>
      </trkpt>
      <trkpt lat="42.96835" lon="0.31651">
        <ele>1532.3</ele>
        <time>2026-07-07T07:03:32Z</time>
      </trkpt>
      <trkpt lat="42.96835" lon="0.31652">
        <ele>1532.3</ele>
        <time>2026-07-07T07:03:33Z</time>
      </trkpt>
      <trkpt lat="42.96834" lon="0.31653">
        <ele>1532.3</ele>
        <time>2026-07-07T07:03:33Z</time>
      </trkpt>
      <trkpt lat="42.96834" lon="0.31654">
        <ele>1532.3</ele>
        <time>2026-07-07T07:03:34Z</time>
      </trkpt>
      <trkpt lat="42.96834" lon="0.31655">
        <ele>1532.3</ele>
        <time>2026-07-07T07:03:35Z</time>
      </trkpt>
      <trkpt lat="42.96834" lon="0.31656">
        <ele>1532.3</ele>
        <time>2026-07-07T07:03:35Z</time>
      </trkpt>
      <trkpt lat="42.96834" lon="0.31657">
        <ele>1532.3</ele>
        <time>2026-07-07T07:03:36Z</time>
      </trkpt>
      <trkpt lat="42.96834" lon="0.31657">
        <ele>1532.3</ele>
        <time>2026-07-07T07:03:37Z</time>
      </trkpt>
      <trkpt lat="42.96834" lon="0.31658">
        <ele>1532.3</ele>
        <time>2026-07-07T07:03:37Z</time>
      </trkpt>
      <trkpt lat="42.96834" lon="0.31659">
        <ele>1532.3</ele>
        <time>2026-07-07T07:03:38Z</time>
      </trkpt>
      <trkpt lat="42.96834" lon="0.3166">
        <ele>1531.3</ele>
        <time>2026-07-07T07:03:39Z</time>
      </trkpt>
      <trkpt lat="42.96834" lon="0.31661">
        <ele>1532.3</ele>
        <time>2026-07-07T07:03:39Z</time>
      </trkpt>
      <trkpt lat="42.96834" lon="0.31662">
        <ele>1532.3</ele>
        <time>2026-07-07T07:03:40Z</time>
      </trkpt>
      <trkpt lat="42.96834" lon="0.31664">
        <ele>1531.3</ele>
        <time>2026-07-07T07:03:41Z</time>
      </trkpt>
      <trkpt lat="42.96834" lon="0.31664">
        <ele>1532.3</ele>
        <time>2026-07-07T07:03:41Z</time>
      </trkpt>
      <trkpt lat="42.96834" lon="0.31665">
        <ele>1532.3</ele>
        <time>2026-07-07T07:03:42Z</time>
      </trkpt>
      <trkpt lat="42.96834" lon="0.31666">
        <ele>1532.3</ele>
        <time>2026-07-07T07:03:43Z</time>
      </trkpt>
      <trkpt lat="42.96835" lon="0.31667">
        <ele>1532.3</ele>
        <time>2026-07-07T07:03:43Z</time>
      </trkpt>
      <trkpt lat="42.96835" lon="0.31668">
        <ele>1532.3</ele>
        <time>2026-07-07T07:03:44Z</time>
      </trkpt>
      <trkpt lat="42.96835" lon="0.31668">
        <ele>1533.3</ele>
        <time>2026-07-07T07:03:45Z</time>
      </trkpt>
      <trkpt lat="42.96835" lon="0.31669">
        <ele>1533.3</ele>
        <time>2026-07-07T07:03:46Z</time>
      </trkpt>
      <trkpt lat="42.96835" lon="0.3167">
        <ele>1533.3</ele>
        <time>2026-07-07T07:03:46Z</time>
      </trkpt>
      <trkpt lat="42.96835" lon="0.3167">
        <ele>1533.3</ele>
        <time>2026-07-07T07:03:47Z</time>
      </trkpt>
      <trkpt lat="42.96835" lon="0.31671">
        <ele>1533.3</ele>
        <time>2026-07-07T07:03:48Z</time>
      </trkpt>
      <trkpt lat="42.96835" lon="0.31671">
        <ele>1533.3</ele>
        <time>2026-07-07T07:03:48Z</time>
      </trkpt>
      <trkpt lat="42.96835" lon="0.31672">
        <ele>1533.3</ele>
        <time>2026-07-07T07:03:49Z</time>
      </trkpt>
      <trkpt lat="42.96835" lon="0.31673">
        <ele>1534.3</ele>
        <time>2026-07-07T07:03:50Z</time>
      </trkpt>
      <trkpt lat="42.96835" lon="0.31673">
        <ele>1534.3</ele>
        <time>2026-07-07T07:03:50Z</time>
      </trkpt>
      <trkpt lat="42.96835" lon="0.31674">
        <ele>1534.3</ele>
        <time>2026-07-07T07:03:51Z</time>
      </trkpt>
      <trkpt lat="42.96835" lon="0.31674">
        <ele>1534.3</ele>
        <time>2026-07-07T07:03:52Z</time>
      </trkpt>
      <trkpt lat="42.96835" lon="0.31675">
        <ele>1535.3</ele>
        <time>2026-07-07T07:03:52Z</time>
      </trkpt>
      <trkpt lat="42.96835" lon="0.31676">
        <ele>1535.3</ele>
        <time>2026-07-07T07:03:53Z</time>
      </trkpt>
      <trkpt lat="42.96835" lon="0.31676">
        <ele>1535.3</ele>
        <time>2026-07-07T07:03:54Z</time>
      </trkpt>
      <trkpt lat="42.96835" lon="0.31677">
        <ele>1535.3</ele>
        <time>2026-07-07T07:03:55Z</time>
      </trkpt>
      <trkpt lat="42.96835" lon="0.31678">
        <ele>1536.3</ele>
        <time>2026-07-07T07:03:55Z</time>
      </trkpt>
      <trkpt lat="42.96835" lon="0.31679">
        <ele>1536.3</ele>
        <time>2026-07-07T07:03:56Z</time>
      </trkpt>
      <trkpt lat="42.96835" lon="0.31679">
        <ele>1536.3</ele>
        <time>2026-07-07T07:03:57Z</time>
      </trkpt>
      <trkpt lat="42.96835" lon="0.3168">
        <ele>1536.3</ele>
        <time>2026-07-07T07:03:57Z</time>
      </trkpt>
      <trkpt lat="42.96835" lon="0.31681">
        <ele>1536.3</ele>
        <time>2026-07-07T07:03:58Z</time>
      </trkpt>
      <trkpt lat="42.96835" lon="0.31682">
        <ele>1536.3</ele>
        <time>2026-07-07T07:03:59Z</time>
      </trkpt>
      <trkpt lat="42.96835" lon="0.31683">
        <ele>1536.3</ele>
        <time>2026-07-07T07:04:00Z</time>
      </trkpt>
      <trkpt lat="42.96835" lon="0.31683">
        <ele>1536.3</ele>
        <time>2026-07-07T07:04:00Z</time>
      </trkpt>
      <trkpt lat="42.96835" lon="0.31684">
        <ele>1536.3</ele>
        <time>2026-07-07T07:04:01Z</time>
      </trkpt>
      <trkpt lat="42.96835" lon="0.31685">
        <ele>1536.3</ele>
        <time>2026-07-07T07:04:02Z</time>
      </trkpt>
      <trkpt lat="42.96835" lon="0.31686">
        <ele>1536.3</ele>
        <time>2026-07-07T07:04:03Z</time>
      </trkpt>
      <trkpt lat="42.96835" lon="0.31686">
        <ele>1536.3</ele>
        <time>2026-07-07T07:04:03Z</time>
      </trkpt>
      <trkpt lat="42.96835" lon="0.31687">
        <ele>1537.3</ele>
        <time>2026-07-07T07:04:04Z</time>
      </trkpt>
      <trkpt lat="42.96835" lon="0.31688">
        <ele>1537.3</ele>
        <time>2026-07-07T07:04:05Z</time>
      </trkpt>
      <trkpt lat="42.96834" lon="0.31689">
        <ele>1537.3</ele>
        <time>2026-07-07T07:04:06Z</time>
      </trkpt>
      <trkpt lat="42.96834" lon="0.3169">
        <ele>1537.3</ele>
        <time>2026-07-07T07:04:06Z</time>
      </trkpt>
      <trkpt lat="42.96834" lon="0.31691">
        <ele>1537.3</ele>
        <time>2026-07-07T07:04:07Z</time>
      </trkpt>
      <trkpt lat="42.96834" lon="0.31692">
        <ele>1538.3</ele>
        <time>2026-07-07T07:04:08Z</time>
      </trkpt>
      <trkpt lat="42.96834" lon="0.31693">
        <ele>1538.3</ele>
        <time>2026-07-07T07:04:08Z</time>
      </trkpt>
      <trkpt lat="42.96833" lon="0.31693">
        <ele>1538.3</ele>
        <time>2026-07-07T07:04:09Z</time>
      </trkpt>
      <trkpt lat="42.96833" lon="0.31694">
        <ele>1538.3</ele>
        <time>2026-07-07T07:04:10Z</time>
      </trkpt>
      <trkpt lat="42.96832" lon="0.31695">
        <ele>1539.3</ele>
        <time>2026-07-07T07:04:11Z</time>
      </trkpt>
      <trkpt lat="42.96832" lon="0.31695">
        <ele>1540.3</ele>
        <time>2026-07-07T07:04:11Z</time>
      </trkpt>
      <trkpt lat="42.96831" lon="0.31696">
        <ele>1540.3</ele>
        <time>2026-07-07T07:04:12Z</time>
      </trkpt>
      <trkpt lat="42.96831" lon="0.31696">
        <ele>1540.3</ele>
        <time>2026-07-07T07:04:13Z</time>
      </trkpt>
      <trkpt lat="42.9683" lon="0.31697">
        <ele>1540.3</ele>
        <time>2026-07-07T07:04:13Z</time>
      </trkpt>
      <trkpt lat="42.9683" lon="0.31698">
        <ele>1540.3</ele>
        <time>2026-07-07T07:04:14Z</time>
      </trkpt>
      <trkpt lat="42.96829" lon="0.31699">
        <ele>1539.3</ele>
        <time>2026-07-07T07:04:15Z</time>
      </trkpt>
      <trkpt lat="42.96829" lon="0.31699">
        <ele>1540.3</ele>
        <time>2026-07-07T07:04:16Z</time>
      </trkpt>
      <trkpt lat="42.96829" lon="0.317">
        <ele>1540.3</ele>
        <time>2026-07-07T07:04:16Z</time>
      </trkpt>
      <trkpt lat="42.96828" lon="0.31701">
        <ele>1540.3</ele>
        <time>2026-07-07T07:04:17Z</time>
      </trkpt>
      <trkpt lat="42.96828" lon="0.31701">
        <ele>1540.3</ele>
        <time>2026-07-07T07:04:18Z</time>
      </trkpt>
      <trkpt lat="42.96828" lon="0.31702">
        <ele>1539.3</ele>
        <time>2026-07-07T07:04:18Z</time>
      </trkpt>
      <trkpt lat="42.96827" lon="0.31703">
        <ele>1539.3</ele>
        <time>2026-07-07T07:04:19Z</time>
      </trkpt>
      <trkpt lat="42.96827" lon="0.31704">
        <ele>1539.3</ele>
        <time>2026-07-07T07:04:20Z</time>
      </trkpt>
      <trkpt lat="42.96827" lon="0.31705">
        <ele>1539.3</ele>
        <time>2026-07-07T07:04:20Z</time>
      </trkpt>
      <trkpt lat="42.96826" lon="0.31705">
        <ele>1539.3</ele>
        <time>2026-07-07T07:04:21Z</time>
      </trkpt>
      <trkpt lat="42.96826" lon="0.31706">
        <ele>1539.3</ele>
        <time>2026-07-07T07:04:22Z</time>
      </trkpt>
      <trkpt lat="42.96826" lon="0.31706">
        <ele>1539.3</ele>
        <time>2026-07-07T07:04:22Z</time>
      </trkpt>
      <trkpt lat="42.96826" lon="0.31707">
        <ele>1539.3</ele>
        <time>2026-07-07T07:04:23Z</time>
      </trkpt>
      <trkpt lat="42.96825" lon="0.31708">
        <ele>1540.3</ele>
        <time>2026-07-07T07:04:24Z</time>
      </trkpt>
      <trkpt lat="42.96825" lon="0.31709">
        <ele>1540.3</ele>
        <time>2026-07-07T07:04:25Z</time>
      </trkpt>
      <trkpt lat="42.96826" lon="0.31709">
        <ele>1540.3</ele>
        <time>2026-07-07T07:04:25Z</time>
      </trkpt>
      <trkpt lat="42.96825" lon="0.3171">
        <ele>1540.3</ele>
        <time>2026-07-07T07:04:26Z</time>
      </trkpt>
      <trkpt lat="42.96826" lon="0.31711">
        <ele>1540.3</ele>
        <time>2026-07-07T07:04:27Z</time>
      </trkpt>
      <trkpt lat="42.96826" lon="0.31711">
        <ele>1540.3</ele>
        <time>2026-07-07T07:04:27Z</time>
      </trkpt>
      <trkpt lat="42.96826" lon="0.31713">
        <ele>1540.3</ele>
        <time>2026-07-07T07:04:28Z</time>
      </trkpt>
      <trkpt lat="42.96826" lon="0.31714">
        <ele>1541.3</ele>
        <time>2026-07-07T07:04:29Z</time>
      </trkpt>
      <trkpt lat="42.96826" lon="0.31714">
        <ele>1541.3</ele>
        <time>2026-07-07T07:04:30Z</time>
      </trkpt>
      <trkpt lat="42.96826" lon="0.31715">
        <ele>1541.3</ele>
        <time>2026-07-07T07:04:30Z</time>
      </trkpt>
      <trkpt lat="42.96826" lon="0.31716">
        <ele>1541.3</ele>
        <time>2026-07-07T07:04:31Z</time>
      </trkpt>
      <trkpt lat="42.96825" lon="0.31717">
        <ele>1541.3</ele>
        <time>2026-07-07T07:04:32Z</time>
      </trkpt>
      <trkpt lat="42.96825" lon="0.31718">
        <ele>1541.3</ele>
        <time>2026-07-07T07:04:33Z</time>
      </trkpt>
      <trkpt lat="42.96825" lon="0.31718">
        <ele>1539.3</ele>
        <time>2026-07-07T07:04:33Z</time>
      </trkpt>
      <trkpt lat="42.96826" lon="0.31719">
        <ele>1539.3</ele>
        <time>2026-07-07T07:04:34Z</time>
      </trkpt>
      <trkpt lat="42.96826" lon="0.3172">
        <ele>1539.3</ele>
        <time>2026-07-07T07:04:35Z</time>
      </trkpt>
      <trkpt lat="42.96826" lon="0.3172">
        <ele>1539.3</ele>
        <time>2026-07-07T07:04:35Z</time>
      </trkpt>
      <trkpt lat="42.96827" lon="0.31721">
        <ele>1539.3</ele>
        <time>2026-07-07T07:04:36Z</time>
      </trkpt>
      <trkpt lat="42.96827" lon="0.31722">
        <ele>1539.3</ele>
        <time>2026-07-07T07:04:37Z</time>
      </trkpt>
      <trkpt lat="42.96827" lon="0.31723">
        <ele>1539.3</ele>
        <time>2026-07-07T07:04:38Z</time>
      </trkpt>
      <trkpt lat="42.96827" lon="0.31724">
        <ele>1539.3</ele>
        <time>2026-07-07T07:04:38Z</time>
      </trkpt>
      <trkpt lat="42.96827" lon="0.31725">
        <ele>1539.3</ele>
        <time>2026-07-07T07:04:39Z</time>
      </trkpt>
      <trkpt lat="42.96827" lon="0.31726">
        <ele>1540.3</ele>
        <time>2026-07-07T07:04:40Z</time>
      </trkpt>
      <trkpt lat="42.96827" lon="0.31727">
        <ele>1541.3</ele>
        <time>2026-07-07T07:04:41Z</time>
      </trkpt>
      <trkpt lat="42.96828" lon="0.31727">
        <ele>1541.3</ele>
        <time>2026-07-07T07:04:41Z</time>
      </trkpt>
      <trkpt lat="42.96827" lon="0.31728">
        <ele>1541.3</ele>
        <time>2026-07-07T07:04:42Z</time>
      </trkpt>
      <trkpt lat="42.96827" lon="0.31729">
        <ele>1541.3</ele>
        <time>2026-07-07T07:04:43Z</time>
      </trkpt>
      <trkpt lat="42.96827" lon="0.31729">
        <ele>1541.3</ele>
        <time>2026-07-07T07:04:43Z</time>
      </trkpt>
      <trkpt lat="42.96827" lon="0.3173">
        <ele>1541.3</ele>
        <time>2026-07-07T07:04:44Z</time>
      </trkpt>
      <trkpt lat="42.96827" lon="0.31731">
        <ele>1541.3</ele>
        <time>2026-07-07T07:04:45Z</time>
      </trkpt>
      <trkpt lat="42.96827" lon="0.31731">
        <ele>1541.3</ele>
        <time>2026-07-07T07:04:45Z</time>
      </trkpt>
      <trkpt lat="42.96827" lon="0.31732">
        <ele>1541.3</ele>
        <time>2026-07-07T07:04:46Z</time>
      </trkpt>
      <trkpt lat="42.96827" lon="0.31733">
        <ele>1541.3</ele>
        <time>2026-07-07T07:04:47Z</time>
      </trkpt>
      <trkpt lat="42.96827" lon="0.31733">
        <ele>1541.3</ele>
        <time>2026-07-07T07:04:47Z</time>
      </trkpt>
      <trkpt lat="42.96827" lon="0.31734">
        <ele>1541.3</ele>
        <time>2026-07-07T07:04:48Z</time>
      </trkpt>
      <trkpt lat="42.96826" lon="0.31735">
        <ele>1541.3</ele>
        <time>2026-07-07T07:04:49Z</time>
      </trkpt>
      <trkpt lat="42.96826" lon="0.31736">
        <ele>1540.3</ele>
        <time>2026-07-07T07:04:50Z</time>
      </trkpt>
      <trkpt lat="42.96826" lon="0.31737">
        <ele>1540.3</ele>
        <time>2026-07-07T07:04:51Z</time>
      </trkpt>
      <trkpt lat="42.96826" lon="0.31737">
        <ele>1540.3</ele>
        <time>2026-07-07T07:04:51Z</time>
      </trkpt>
      <trkpt lat="42.96826" lon="0.31738">
        <ele>1540.3</ele>
        <time>2026-07-07T07:04:52Z</time>
      </trkpt>
      <trkpt lat="42.96826" lon="0.31739">
        <ele>1540.3</ele>
        <time>2026-07-07T07:04:53Z</time>
      </trkpt>
      <trkpt lat="42.96826" lon="0.3174">
        <ele>1540.3</ele>
        <time>2026-07-07T07:04:53Z</time>
      </trkpt>
      <trkpt lat="42.96826" lon="0.31741">
        <ele>1540.3</ele>
        <time>2026-07-07T07:04:54Z</time>
      </trkpt>
      <trkpt lat="42.96826" lon="0.31741">
        <ele>1541.3</ele>
        <time>2026-07-07T07:04:55Z</time>
      </trkpt>
      <trkpt lat="42.96826" lon="0.31742">
        <ele>1541.3</ele>
        <time>2026-07-07T07:04:56Z</time>
      </trkpt>
      <trkpt lat="42.96826" lon="0.31743">
        <ele>1541.3</ele>
        <time>2026-07-07T07:04:56Z</time>
      </trkpt>
      <trkpt lat="42.96826" lon="0.31744">
        <ele>1541.3</ele>
        <time>2026-07-07T07:04:57Z</time>
      </trkpt>
      <trkpt lat="42.96827" lon="0.31745">
        <ele>1541.3</ele>
        <time>2026-07-07T07:04:58Z</time>
      </trkpt>
      <trkpt lat="42.96827" lon="0.31746">
        <ele>1541.3</ele>
        <time>2026-07-07T07:04:59Z</time>
      </trkpt>
      <trkpt lat="42.96827" lon="0.31746">
        <ele>1541.3</ele>
        <time>2026-07-07T07:04:59Z</time>
      </trkpt>
      <trkpt lat="42.96827" lon="0.31747">
        <ele>1542.3</ele>
        <time>2026-07-07T07:05:00Z</time>
      </trkpt>
      <trkpt lat="42.96827" lon="0.31748">
        <ele>1542.3</ele>
        <time>2026-07-07T07:05:01Z</time>
      </trkpt>
      <trkpt lat="42.96826" lon="0.31749">
        <ele>1543.3</ele>
        <time>2026-07-07T07:05:02Z</time>
      </trkpt>
      <trkpt lat="42.96826" lon="0.31749">
        <ele>1543.3</ele>
        <time>2026-07-07T07:05:02Z</time>
      </trkpt>
      <trkpt lat="42.96826" lon="0.3175">
        <ele>1543.3</ele>
        <time>2026-07-07T07:05:03Z</time>
      </trkpt>
      <trkpt lat="42.96826" lon="0.31751">
        <ele>1543.3</ele>
        <time>2026-07-07T07:05:04Z</time>
      </trkpt>
      <trkpt lat="42.96826" lon="0.31752">
        <ele>1543.3</ele>
        <time>2026-07-07T07:05:04Z</time>
      </trkpt>
      <trkpt lat="42.96825" lon="0.31753">
        <ele>1543.3</ele>
        <time>2026-07-07T07:05:05Z</time>
      </trkpt>
      <trkpt lat="42.96825" lon="0.31754">
        <ele>1542.3</ele>
        <time>2026-07-07T07:05:06Z</time>
      </trkpt>
      <trkpt lat="42.96825" lon="0.31754">
        <ele>1542.3</ele>
        <time>2026-07-07T07:05:07Z</time>
      </trkpt>
      <trkpt lat="42.96825" lon="0.31755">
        <ele>1542.3</ele>
        <time>2026-07-07T07:05:07Z</time>
      </trkpt>
      <trkpt lat="42.96825" lon="0.31756">
        <ele>1542.3</ele>
        <time>2026-07-07T07:05:08Z</time>
      </trkpt>
      <trkpt lat="42.96824" lon="0.31756">
        <ele>1542.3</ele>
        <time>2026-07-07T07:05:08Z</time>
      </trkpt>
      <trkpt lat="42.96824" lon="0.31757">
        <ele>1542.3</ele>
        <time>2026-07-07T07:05:09Z</time>
      </trkpt>
      <trkpt lat="42.96824" lon="0.31758">
        <ele>1542.3</ele>
        <time>2026-07-07T07:05:10Z</time>
      </trkpt>
      <trkpt lat="42.96824" lon="0.31759">
        <ele>1543.3</ele>
        <time>2026-07-07T07:05:10Z</time>
      </trkpt>
      <trkpt lat="42.96824" lon="0.3176">
        <ele>1543.3</ele>
        <time>2026-07-07T07:05:11Z</time>
      </trkpt>
      <trkpt lat="42.96824" lon="0.31761">
        <ele>1543.3</ele>
        <time>2026-07-07T07:05:12Z</time>
      </trkpt>
      <trkpt lat="42.96823" lon="0.31761">
        <ele>1543.3</ele>
        <time>2026-07-07T07:05:13Z</time>
      </trkpt>
      <trkpt lat="42.96823" lon="0.31762">
        <ele>1543.3</ele>
        <time>2026-07-07T07:05:13Z</time>
      </trkpt>
      <trkpt lat="42.96823" lon="0.31763">
        <ele>1543.3</ele>
        <time>2026-07-07T07:05:14Z</time>
      </trkpt>
      <trkpt lat="42.96823" lon="0.31764">
        <ele>1543.3</ele>
        <time>2026-07-07T07:05:15Z</time>
      </trkpt>
      <trkpt lat="42.96822" lon="0.31765">
        <ele>1543.3</ele>
        <time>2026-07-07T07:05:15Z</time>
      </trkpt>
      <trkpt lat="42.96822" lon="0.31766">
        <ele>1543.3</ele>
        <time>2026-07-07T07:05:16Z</time>
      </trkpt>
      <trkpt lat="42.96822" lon="0.31766">
        <ele>1542.3</ele>
        <time>2026-07-07T07:05:17Z</time>
      </trkpt>
      <trkpt lat="42.96822" lon="0.31766">
        <ele>1543.3</ele>
        <time>2026-07-07T07:05:17Z</time>
      </trkpt>
      <trkpt lat="42.96822" lon="0.31767">
        <ele>1543.3</ele>
        <time>2026-07-07T07:05:18Z</time>
      </trkpt>
      <trkpt lat="42.96822" lon="0.31768">
        <ele>1543.3</ele>
        <time>2026-07-07T07:05:19Z</time>
      </trkpt>
      <trkpt lat="42.96821" lon="0.31769">
        <ele>1544.3</ele>
        <time>2026-07-07T07:05:20Z</time>
      </trkpt>
      <trkpt lat="42.96821" lon="0.31769">
        <ele>1544.3</ele>
        <time>2026-07-07T07:05:20Z</time>
      </trkpt>
      <trkpt lat="42.96821" lon="0.3177">
        <ele>1544.3</ele>
        <time>2026-07-07T07:05:21Z</time>
      </trkpt>
      <trkpt lat="42.96821" lon="0.3177">
        <ele>1544.3</ele>
        <time>2026-07-07T07:05:22Z</time>
      </trkpt>
      <trkpt lat="42.96821" lon="0.3177">
        <ele>1544.3</ele>
        <time>2026-07-07T07:05:22Z</time>
      </trkpt>
      <trkpt lat="42.96821" lon="0.31771">
        <ele>1544.3</ele>
        <time>2026-07-07T07:05:23Z</time>
      </trkpt>
      <trkpt lat="42.9682" lon="0.31772">
        <ele>1544.3</ele>
        <time>2026-07-07T07:05:24Z</time>
      </trkpt>
      <trkpt lat="42.9682" lon="0.31773">
        <ele>1544.3</ele>
        <time>2026-07-07T07:05:25Z</time>
      </trkpt>
      <trkpt lat="42.9682" lon="0.31773">
        <ele>1544.3</ele>
        <time>2026-07-07T07:05:25Z</time>
      </trkpt>
      <trkpt lat="42.9682" lon="0.31774">
        <ele>1544.3</ele>
        <time>2026-07-07T07:05:26Z</time>
      </trkpt>
      <trkpt lat="42.9682" lon="0.31775">
        <ele>1544.3</ele>
        <time>2026-07-07T07:05:27Z</time>
      </trkpt>
      <trkpt lat="42.9682" lon="0.31775">
        <ele>1544.3</ele>
        <time>2026-07-07T07:05:27Z</time>
      </trkpt>
      <trkpt lat="42.9682" lon="0.31776">
        <ele>1544.3</ele>
        <time>2026-07-07T07:05:28Z</time>
      </trkpt>
      <trkpt lat="42.9682" lon="0.31777">
        <ele>1544.3</ele>
        <time>2026-07-07T07:05:29Z</time>
      </trkpt>
      <trkpt lat="42.96821" lon="0.31778">
        <ele>1545.3</ele>
        <time>2026-07-07T07:05:30Z</time>
      </trkpt>
      <trkpt lat="42.96821" lon="0.31778">
        <ele>1545.3</ele>
        <time>2026-07-07T07:05:30Z</time>
      </trkpt>
      <trkpt lat="42.96821" lon="0.31779">
        <ele>1545.3</ele>
        <time>2026-07-07T07:05:31Z</time>
      </trkpt>
      <trkpt lat="42.9682" lon="0.3178">
        <ele>1545.3</ele>
        <time>2026-07-07T07:05:32Z</time>
      </trkpt>
      <trkpt lat="42.9682" lon="0.31781">
        <ele>1545.3</ele>
        <time>2026-07-07T07:05:33Z</time>
      </trkpt>
      <trkpt lat="42.9682" lon="0.31781">
        <ele>1545.3</ele>
        <time>2026-07-07T07:05:34Z</time>
      </trkpt>
      <trkpt lat="42.9682" lon="0.31782">
        <ele>1546.3</ele>
        <time>2026-07-07T07:05:34Z</time>
      </trkpt>
      <trkpt lat="42.9682" lon="0.31782">
        <ele>1547.3</ele>
        <time>2026-07-07T07:05:35Z</time>
      </trkpt>
      <trkpt lat="42.9682" lon="0.31783">
        <ele>1547.3</ele>
        <time>2026-07-07T07:05:36Z</time>
      </trkpt>
      <trkpt lat="42.9682" lon="0.31784">
        <ele>1547.3</ele>
        <time>2026-07-07T07:05:37Z</time>
      </trkpt>
      <trkpt lat="42.9682" lon="0.31784">
        <ele>1547.3</ele>
        <time>2026-07-07T07:05:38Z</time>
      </trkpt>
      <trkpt lat="42.9682" lon="0.31784">
        <ele>1548.3</ele>
        <time>2026-07-07T07:05:39Z</time>
      </trkpt>
      <trkpt lat="42.9682" lon="0.31785">
        <ele>1548.3</ele>
        <time>2026-07-07T07:05:39Z</time>
      </trkpt>
      <trkpt lat="42.9682" lon="0.31785">
        <ele>1549.3</ele>
        <time>2026-07-07T07:05:40Z</time>
      </trkpt>
      <trkpt lat="42.9682" lon="0.31786">
        <ele>1549.3</ele>
        <time>2026-07-07T07:05:41Z</time>
      </trkpt>
      <trkpt lat="42.9682" lon="0.31787">
        <ele>1549.3</ele>
        <time>2026-07-07T07:05:42Z</time>
      </trkpt>
      <trkpt lat="42.9682" lon="0.31787">
        <ele>1549.3</ele>
        <time>2026-07-07T07:05:43Z</time>
      </trkpt>
      <trkpt lat="42.9682" lon="0.31787">
        <ele>1549.3</ele>
        <time>2026-07-07T07:05:43Z</time>
      </trkpt>
      <trkpt lat="42.96821" lon="0.31788">
        <ele>1550.3</ele>
        <time>2026-07-07T07:05:44Z</time>
      </trkpt>
      <trkpt lat="42.96821" lon="0.31788">
        <ele>1550.3</ele>
        <time>2026-07-07T07:05:45Z</time>
      </trkpt>
      <trkpt lat="42.96821" lon="0.31789">
        <ele>1550.3</ele>
        <time>2026-07-07T07:05:46Z</time>
      </trkpt>
      <trkpt lat="42.96821" lon="0.3179">
        <ele>1551.3</ele>
        <time>2026-07-07T07:05:47Z</time>
      </trkpt>
      <trkpt lat="42.96821" lon="0.31791">
        <ele>1552.3</ele>
        <time>2026-07-07T07:05:48Z</time>
      </trkpt>
      <trkpt lat="42.96822" lon="0.31792">
        <ele>1552.3</ele>
        <time>2026-07-07T07:05:49Z</time>
      </trkpt>
      <trkpt lat="42.96822" lon="0.31793">
        <ele>1552.3</ele>
        <time>2026-07-07T07:05:50Z</time>
      </trkpt>
      <trkpt lat="42.96822" lon="0.31793">
        <ele>1552.3</ele>
        <time>2026-07-07T07:05:50Z</time>
      </trkpt>
      <trkpt lat="42.96822" lon="0.31794">
        <ele>1552.3</ele>
        <time>2026-07-07T07:05:51Z</time>
      </trkpt>
      <trkpt lat="42.96822" lon="0.31794">
        <ele>1551.3</ele>
        <time>2026-07-07T07:05:52Z</time>
      </trkpt>
      <trkpt lat="42.96822" lon="0.31795">
        <ele>1552.3</ele>
        <time>2026-07-07T07:05:53Z</time>
      </trkpt>
      <trkpt lat="42.96822" lon="0.31796">
        <ele>1551.3</ele>
        <time>2026-07-07T07:05:53Z</time>
      </trkpt>
      <trkpt lat="42.96821" lon="0.31796">
        <ele>1551.3</ele>
        <time>2026-07-07T07:05:54Z</time>
      </trkpt>
      <trkpt lat="42.96821" lon="0.31796">
        <ele>1550.3</ele>
        <time>2026-07-07T07:05:54Z</time>
      </trkpt>
      <trkpt lat="42.96821" lon="0.31797">
        <ele>1551.3</ele>
        <time>2026-07-07T07:05:55Z</time>
      </trkpt>
      <trkpt lat="42.9682" lon="0.31798">
        <ele>1551.3</ele>
        <time>2026-07-07T07:05:56Z</time>
      </trkpt>
      <trkpt lat="42.9682" lon="0.31798">
        <ele>1551.3</ele>
        <time>2026-07-07T07:05:56Z</time>
      </trkpt>
      <trkpt lat="42.9682" lon="0.31799">
        <ele>1551.3</ele>
        <time>2026-07-07T07:05:57Z</time>
      </trkpt>
      <trkpt lat="42.9682" lon="0.318">
        <ele>1552.3</ele>
        <time>2026-07-07T07:05:58Z</time>
      </trkpt>
      <trkpt lat="42.96819" lon="0.31801">
        <ele>1552.3</ele>
        <time>2026-07-07T07:05:59Z</time>
      </trkpt>
      <trkpt lat="42.96819" lon="0.31802">
        <ele>1552.3</ele>
        <time>2026-07-07T07:05:59Z</time>
      </trkpt>
      <trkpt lat="42.96819" lon="0.31803">
        <ele>1552.3</ele>
        <time>2026-07-07T07:06:00Z</time>
      </trkpt>
      <trkpt lat="42.96819" lon="0.31803">
        <ele>1552.3</ele>
        <time>2026-07-07T07:06:01Z</time>
      </trkpt>
      <trkpt lat="42.96819" lon="0.31803">
        <ele>1552.3</ele>
        <time>2026-07-07T07:06:01Z</time>
      </trkpt>
      <trkpt lat="42.96819" lon="0.31804">
        <ele>1552.3</ele>
        <time>2026-07-07T07:06:02Z</time>
      </trkpt>
      <trkpt lat="42.96819" lon="0.31805">
        <ele>1552.3</ele>
        <time>2026-07-07T07:06:03Z</time>
      </trkpt>
      <trkpt lat="42.96818" lon="0.31806">
        <ele>1552.3</ele>
        <time>2026-07-07T07:06:03Z</time>
      </trkpt>
      <trkpt lat="42.96818" lon="0.31806">
        <ele>1552.3</ele>
        <time>2026-07-07T07:06:04Z</time>
      </trkpt>
      <trkpt lat="42.96818" lon="0.31807">
        <ele>1552.3</ele>
        <time>2026-07-07T07:06:05Z</time>
      </trkpt>
      <trkpt lat="42.96818" lon="0.31807">
        <ele>1552.3</ele>
        <time>2026-07-07T07:06:05Z</time>
      </trkpt>
      <trkpt lat="42.96818" lon="0.31808">
        <ele>1552.3</ele>
        <time>2026-07-07T07:06:06Z</time>
      </trkpt>
      <trkpt lat="42.96817" lon="0.31808">
        <ele>1553.3</ele>
        <time>2026-07-07T07:06:07Z</time>
      </trkpt>
      <trkpt lat="42.96817" lon="0.31809">
        <ele>1553.3</ele>
        <time>2026-07-07T07:06:07Z</time>
      </trkpt>
      <trkpt lat="42.96817" lon="0.3181">
        <ele>1553.3</ele>
        <time>2026-07-07T07:06:08Z</time>
      </trkpt>
      <trkpt lat="42.96817" lon="0.3181">
        <ele>1552.3</ele>
        <time>2026-07-07T07:06:08Z</time>
      </trkpt>
      <trkpt lat="42.96816" lon="0.31811">
        <ele>1552.3</ele>
        <time>2026-07-07T07:06:09Z</time>
      </trkpt>
      <trkpt lat="42.96816" lon="0.31812">
        <ele>1552.3</ele>
        <time>2026-07-07T07:06:10Z</time>
      </trkpt>
      <trkpt lat="42.96816" lon="0.31813">
        <ele>1552.3</ele>
        <time>2026-07-07T07:06:10Z</time>
      </trkpt>
      <trkpt lat="42.96816" lon="0.31814">
        <ele>1552.3</ele>
        <time>2026-07-07T07:06:11Z</time>
      </trkpt>
      <trkpt lat="42.96815" lon="0.31814">
        <ele>1553.3</ele>
        <time>2026-07-07T07:06:12Z</time>
      </trkpt>
      <trkpt lat="42.96815" lon="0.31815">
        <ele>1552.3</ele>
        <time>2026-07-07T07:06:13Z</time>
      </trkpt>
      <trkpt lat="42.96815" lon="0.31815">
        <ele>1552.3</ele>
        <time>2026-07-07T07:06:13Z</time>
      </trkpt>
      <trkpt lat="42.96814" lon="0.31816">
        <ele>1552.3</ele>
        <time>2026-07-07T07:06:14Z</time>
      </trkpt>
      <trkpt lat="42.96814" lon="0.31817">
        <ele>1553.3</ele>
        <time>2026-07-07T07:06:15Z</time>
      </trkpt>
      <trkpt lat="42.96814" lon="0.31817">
        <ele>1553.3</ele>
        <time>2026-07-07T07:06:15Z</time>
      </trkpt>
      <trkpt lat="42.96814" lon="0.31818">
        <ele>1553.3</ele>
        <time>2026-07-07T07:06:16Z</time>
      </trkpt>
      <trkpt lat="42.96814" lon="0.31819">
        <ele>1553.3</ele>
        <time>2026-07-07T07:06:17Z</time>
      </trkpt>
      <trkpt lat="42.96814" lon="0.3182">
        <ele>1553.3</ele>
        <time>2026-07-07T07:06:18Z</time>
      </trkpt>
      <trkpt lat="42.96814" lon="0.31821">
        <ele>1553.3</ele>
        <time>2026-07-07T07:06:18Z</time>
      </trkpt>
      <trkpt lat="42.96813" lon="0.31822">
        <ele>1553.3</ele>
        <time>2026-07-07T07:06:19Z</time>
      </trkpt>
      <trkpt lat="42.96813" lon="0.31822">
        <ele>1553.3</ele>
        <time>2026-07-07T07:06:20Z</time>
      </trkpt>
      <trkpt lat="42.96813" lon="0.31823">
        <ele>1553.3</ele>
        <time>2026-07-07T07:06:21Z</time>
      </trkpt>
      <trkpt lat="42.96812" lon="0.31823">
        <ele>1553.3</ele>
        <time>2026-07-07T07:06:21Z</time>
      </trkpt>
      <trkpt lat="42.96812" lon="0.31824">
        <ele>1553.3</ele>
        <time>2026-07-07T07:06:22Z</time>
      </trkpt>
      <trkpt lat="42.96812" lon="0.31825">
        <ele>1553.3</ele>
        <time>2026-07-07T07:06:23Z</time>
      </trkpt>
      <trkpt lat="42.96811" lon="0.31825">
        <ele>1553.3</ele>
        <time>2026-07-07T07:06:23Z</time>
      </trkpt>
      <trkpt lat="42.96811" lon="0.31826">
        <ele>1553.3</ele>
        <time>2026-07-07T07:06:24Z</time>
      </trkpt>
      <trkpt lat="42.96811" lon="0.31827">
        <ele>1553.3</ele>
        <time>2026-07-07T07:06:25Z</time>
      </trkpt>
      <trkpt lat="42.96811" lon="0.31827">
        <ele>1553.3</ele>
        <time>2026-07-07T07:06:25Z</time>
      </trkpt>
      <trkpt lat="42.9681" lon="0.31828">
        <ele>1553.3</ele>
        <time>2026-07-07T07:06:26Z</time>
      </trkpt>
      <trkpt lat="42.9681" lon="0.31829">
        <ele>1553.3</ele>
        <time>2026-07-07T07:06:27Z</time>
      </trkpt>
      <trkpt lat="42.9681" lon="0.31829">
        <ele>1553.3</ele>
        <time>2026-07-07T07:06:28Z</time>
      </trkpt>
      <trkpt lat="42.9681" lon="0.3183">
        <ele>1553.3</ele>
        <time>2026-07-07T07:06:28Z</time>
      </trkpt>
      <trkpt lat="42.9681" lon="0.31831">
        <ele>1553.3</ele>
        <time>2026-07-07T07:06:29Z</time>
      </trkpt>
      <trkpt lat="42.9681" lon="0.31831">
        <ele>1553.3</ele>
        <time>2026-07-07T07:06:30Z</time>
      </trkpt>
      <trkpt lat="42.9681" lon="0.31832">
        <ele>1552.3</ele>
        <time>2026-07-07T07:06:31Z</time>
      </trkpt>
      <trkpt lat="42.9681" lon="0.31833">
        <ele>1552.3</ele>
        <time>2026-07-07T07:06:31Z</time>
      </trkpt>
      <trkpt lat="42.9681" lon="0.31833">
        <ele>1552.3</ele>
        <time>2026-07-07T07:06:32Z</time>
      </trkpt>
      <trkpt lat="42.9681" lon="0.31834">
        <ele>1552.3</ele>
        <time>2026-07-07T07:06:33Z</time>
      </trkpt>
      <trkpt lat="42.9681" lon="0.31835">
        <ele>1552.3</ele>
        <time>2026-07-07T07:06:33Z</time>
      </trkpt>
      <trkpt lat="42.96809" lon="0.31836">
        <ele>1552.3</ele>
        <time>2026-07-07T07:06:34Z</time>
      </trkpt>
      <trkpt lat="42.96809" lon="0.31837">
        <ele>1552.3</ele>
        <time>2026-07-07T07:06:35Z</time>
      </trkpt>
      <trkpt lat="42.9681" lon="0.31838">
        <ele>1552.3</ele>
        <time>2026-07-07T07:06:35Z</time>
      </trkpt>
      <trkpt lat="42.9681" lon="0.31838">
        <ele>1552.3</ele>
        <time>2026-07-07T07:06:36Z</time>
      </trkpt>
      <trkpt lat="42.9681" lon="0.31839">
        <ele>1552.3</ele>
        <time>2026-07-07T07:06:37Z</time>
      </trkpt>
      <trkpt lat="42.9681" lon="0.31839">
        <ele>1552.3</ele>
        <time>2026-07-07T07:06:38Z</time>
      </trkpt>
      <trkpt lat="42.9681" lon="0.31839">
        <ele>1551.3</ele>
        <time>2026-07-07T07:06:38Z</time>
      </trkpt>
      <trkpt lat="42.9681" lon="0.3184">
        <ele>1551.3</ele>
        <time>2026-07-07T07:06:39Z</time>
      </trkpt>
      <trkpt lat="42.9681" lon="0.31841">
        <ele>1551.3</ele>
        <time>2026-07-07T07:06:40Z</time>
      </trkpt>
      <trkpt lat="42.9681" lon="0.31841">
        <ele>1551.3</ele>
        <time>2026-07-07T07:06:41Z</time>
      </trkpt>
      <trkpt lat="42.9681" lon="0.31842">
        <ele>1551.3</ele>
        <time>2026-07-07T07:06:41Z</time>
      </trkpt>
      <trkpt lat="42.9681" lon="0.31843">
        <ele>1551.3</ele>
        <time>2026-07-07T07:06:42Z</time>
      </trkpt>
      <trkpt lat="42.9681" lon="0.31843">
        <ele>1551.3</ele>
        <time>2026-07-07T07:06:43Z</time>
      </trkpt>
      <trkpt lat="42.9681" lon="0.31844">
        <ele>1551.3</ele>
        <time>2026-07-07T07:06:44Z</time>
      </trkpt>
      <trkpt lat="42.9681" lon="0.31845">
        <ele>1551.3</ele>
        <time>2026-07-07T07:06:44Z</time>
      </trkpt>
      <trkpt lat="42.9681" lon="0.31846">
        <ele>1551.3</ele>
        <time>2026-07-07T07:06:45Z</time>
      </trkpt>
      <trkpt lat="42.96809" lon="0.31847">
        <ele>1553.3</ele>
        <time>2026-07-07T07:06:46Z</time>
      </trkpt>
      <trkpt lat="42.96809" lon="0.31847">
        <ele>1553.3</ele>
        <time>2026-07-07T07:06:47Z</time>
      </trkpt>
      <trkpt lat="42.96809" lon="0.31848">
        <ele>1553.3</ele>
        <time>2026-07-07T07:06:47Z</time>
      </trkpt>
      <trkpt lat="42.96809" lon="0.31849">
        <ele>1553.3</ele>
        <time>2026-07-07T07:06:48Z</time>
      </trkpt>
      <trkpt lat="42.96808" lon="0.31849">
        <ele>1554.3</ele>
        <time>2026-07-07T07:06:49Z</time>
      </trkpt>
      <trkpt lat="42.96808" lon="0.3185">
        <ele>1553.3</ele>
        <time>2026-07-07T07:06:50Z</time>
      </trkpt>
      <trkpt lat="42.96808" lon="0.3185">
        <ele>1554.3</ele>
        <time>2026-07-07T07:06:50Z</time>
      </trkpt>
      <trkpt lat="42.96807" lon="0.3185">
        <ele>1554.3</ele>
        <time>2026-07-07T07:06:51Z</time>
      </trkpt>
      <trkpt lat="42.96807" lon="0.31851">
        <ele>1554.3</ele>
        <time>2026-07-07T07:06:52Z</time>
      </trkpt>
      <trkpt lat="42.96807" lon="0.31851">
        <ele>1554.3</ele>
        <time>2026-07-07T07:06:52Z</time>
      </trkpt>
      <trkpt lat="42.96807" lon="0.31851">
        <ele>1555.3</ele>
        <time>2026-07-07T07:06:53Z</time>
      </trkpt>
      <trkpt lat="42.96806" lon="0.31852">
        <ele>1555.3</ele>
        <time>2026-07-07T07:06:54Z</time>
      </trkpt>
      <trkpt lat="42.96806" lon="0.31852">
        <ele>1555.3</ele>
        <time>2026-07-07T07:06:55Z</time>
      </trkpt>
      <trkpt lat="42.96807" lon="0.31852">
        <ele>1555.3</ele>
        <time>2026-07-07T07:06:56Z</time>
      </trkpt>
      <trkpt lat="42.96807" lon="0.31853">
        <ele>1555.3</ele>
        <time>2026-07-07T07:06:56Z</time>
      </trkpt>
      <trkpt lat="42.96807" lon="0.31853">
        <ele>1555.3</ele>
        <time>2026-07-07T07:06:57Z</time>
      </trkpt>
      <trkpt lat="42.96808" lon="0.31854">
        <ele>1555.3</ele>
        <time>2026-07-07T07:06:58Z</time>
      </trkpt>
      <trkpt lat="42.96808" lon="0.31854">
        <ele>1555.3</ele>
        <time>2026-07-07T07:06:59Z</time>
      </trkpt>
      <trkpt lat="42.96808" lon="0.31855">
        <ele>1556.3</ele>
        <time>2026-07-07T07:07:00Z</time>
      </trkpt>
      <trkpt lat="42.96808" lon="0.31856">
        <ele>1555.3</ele>
        <time>2026-07-07T07:07:00Z</time>
      </trkpt>
      <trkpt lat="42.96808" lon="0.31857">
        <ele>1555.3</ele>
        <time>2026-07-07T07:07:01Z</time>
      </trkpt>
      <trkpt lat="42.96808" lon="0.31857">
        <ele>1555.3</ele>
        <time>2026-07-07T07:07:02Z</time>
      </trkpt>
      <trkpt lat="42.96809" lon="0.31858">
        <ele>1555.3</ele>
        <time>2026-07-07T07:07:03Z</time>
      </trkpt>
      <trkpt lat="42.96808" lon="0.31858">
        <ele>1556.3</ele>
        <time>2026-07-07T07:07:03Z</time>
      </trkpt>
      <trkpt lat="42.96808" lon="0.31859">
        <ele>1556.3</ele>
        <time>2026-07-07T07:07:04Z</time>
      </trkpt>
      <trkpt lat="42.96808" lon="0.3186">
        <ele>1556.3</ele>
        <time>2026-07-07T07:07:05Z</time>
      </trkpt>
      <trkpt lat="42.96809" lon="0.31861">
        <ele>1557.3</ele>
        <time>2026-07-07T07:07:06Z</time>
      </trkpt>
      <trkpt lat="42.96809" lon="0.31861">
        <ele>1557.3</ele>
        <time>2026-07-07T07:07:06Z</time>
      </trkpt>
      <trkpt lat="42.96809" lon="0.31863">
        <ele>1557.3</ele>
        <time>2026-07-07T07:07:07Z</time>
      </trkpt>
      <trkpt lat="42.96809" lon="0.31863">
        <ele>1557.3</ele>
        <time>2026-07-07T07:07:08Z</time>
      </trkpt>
      <trkpt lat="42.96809" lon="0.31864">
        <ele>1557.3</ele>
        <time>2026-07-07T07:07:09Z</time>
      </trkpt>
      <trkpt lat="42.96809" lon="0.31864">
        <ele>1557.3</ele>
        <time>2026-07-07T07:07:09Z</time>
      </trkpt>
      <trkpt lat="42.96809" lon="0.31865">
        <ele>1557.3</ele>
        <time>2026-07-07T07:07:10Z</time>
      </trkpt>
      <trkpt lat="42.96809" lon="0.31866">
        <ele>1556.3</ele>
        <time>2026-07-07T07:07:11Z</time>
      </trkpt>
      <trkpt lat="42.96808" lon="0.31866">
        <ele>1556.3</ele>
        <time>2026-07-07T07:07:12Z</time>
      </trkpt>
      <trkpt lat="42.96808" lon="0.31866">
        <ele>1556.3</ele>
        <time>2026-07-07T07:07:12Z</time>
      </trkpt>
      <trkpt lat="42.96808" lon="0.31866">
        <ele>1556.3</ele>
        <time>2026-07-07T07:07:13Z</time>
      </trkpt>
      <trkpt lat="42.96807" lon="0.31867">
        <ele>1556.3</ele>
        <time>2026-07-07T07:07:14Z</time>
      </trkpt>
      <trkpt lat="42.96807" lon="0.31867">
        <ele>1556.3</ele>
        <time>2026-07-07T07:07:14Z</time>
      </trkpt>
      <trkpt lat="42.96807" lon="0.31867">
        <ele>1556.3</ele>
        <time>2026-07-07T07:07:15Z</time>
      </trkpt>
      <trkpt lat="42.96807" lon="0.31868">
        <ele>1556.3</ele>
        <time>2026-07-07T07:07:15Z</time>
      </trkpt>
      <trkpt lat="42.96807" lon="0.31869">
        <ele>1556.3</ele>
        <time>2026-07-07T07:07:16Z</time>
      </trkpt>
      <trkpt lat="42.96806" lon="0.3187">
        <ele>1556.3</ele>
        <time>2026-07-07T07:07:17Z</time>
      </trkpt>
      <trkpt lat="42.96806" lon="0.31871">
        <ele>1556.3</ele>
        <time>2026-07-07T07:07:17Z</time>
      </trkpt>
      <trkpt lat="42.96806" lon="0.31872">
        <ele>1556.3</ele>
        <time>2026-07-07T07:07:18Z</time>
      </trkpt>
      <trkpt lat="42.96806" lon="0.31872">
        <ele>1556.3</ele>
        <time>2026-07-07T07:07:19Z</time>
      </trkpt>
      <trkpt lat="42.96806" lon="0.31873">
        <ele>1555.3</ele>
        <time>2026-07-07T07:07:20Z</time>
      </trkpt>
      <trkpt lat="42.96806" lon="0.31874">
        <ele>1555.3</ele>
        <time>2026-07-07T07:07:20Z</time>
      </trkpt>
      <trkpt lat="42.96806" lon="0.31874">
        <ele>1556.3</ele>
        <time>2026-07-07T07:07:21Z</time>
      </trkpt>
      <trkpt lat="42.96806" lon="0.31875">
        <ele>1556.3</ele>
        <time>2026-07-07T07:07:22Z</time>
      </trkpt>
      <trkpt lat="42.96806" lon="0.31875">
        <ele>1556.3</ele>
        <time>2026-07-07T07:07:22Z</time>
      </trkpt>
      <trkpt lat="42.96806" lon="0.31877">
        <ele>1556.3</ele>
        <time>2026-07-07T07:07:23Z</time>
      </trkpt>
      <trkpt lat="42.96805" lon="0.31877">
        <ele>1556.3</ele>
        <time>2026-07-07T07:07:24Z</time>
      </trkpt>
      <trkpt lat="42.96805" lon="0.31878">
        <ele>1557.3</ele>
        <time>2026-07-07T07:07:25Z</time>
      </trkpt>
      <trkpt lat="42.96805" lon="0.31879">
        <ele>1557.3</ele>
        <time>2026-07-07T07:07:25Z</time>
      </trkpt>
      <trkpt lat="42.96805" lon="0.31879">
        <ele>1557.3</ele>
        <time>2026-07-07T07:07:26Z</time>
      </trkpt>
      <trkpt lat="42.96805" lon="0.3188">
        <ele>1558.3</ele>
        <time>2026-07-07T07:07:27Z</time>
      </trkpt>
      <trkpt lat="42.96805" lon="0.31881">
        <ele>1558.3</ele>
        <time>2026-07-07T07:07:28Z</time>
      </trkpt>
      <trkpt lat="42.96805" lon="0.31882">
        <ele>1558.3</ele>
        <time>2026-07-07T07:07:28Z</time>
      </trkpt>
      <trkpt lat="42.96805" lon="0.31883">
        <ele>1558.3</ele>
        <time>2026-07-07T07:07:29Z</time>
      </trkpt>
      <trkpt lat="42.96806" lon="0.31884">
        <ele>1558.3</ele>
        <time>2026-07-07T07:07:30Z</time>
      </trkpt>
      <trkpt lat="42.96806" lon="0.31884">
        <ele>1558.3</ele>
        <time>2026-07-07T07:07:30Z</time>
      </trkpt>
      <trkpt lat="42.96806" lon="0.31885">
        <ele>1558.3</ele>
        <time>2026-07-07T07:07:31Z</time>
      </trkpt>
      <trkpt lat="42.96806" lon="0.31886">
        <ele>1559.3</ele>
        <time>2026-07-07T07:07:32Z</time>
      </trkpt>
      <trkpt lat="42.96806" lon="0.31887">
        <ele>1559.3</ele>
        <time>2026-07-07T07:07:33Z</time>
      </trkpt>
      <trkpt lat="42.96806" lon="0.31887">
        <ele>1560.3</ele>
        <time>2026-07-07T07:07:33Z</time>
      </trkpt>
      <trkpt lat="42.96806" lon="0.31888">
        <ele>1560.3</ele>
        <time>2026-07-07T07:07:34Z</time>
      </trkpt>
      <trkpt lat="42.96806" lon="0.31889">
        <ele>1560.3</ele>
        <time>2026-07-07T07:07:35Z</time>
      </trkpt>
      <trkpt lat="42.96806" lon="0.3189">
        <ele>1560.3</ele>
        <time>2026-07-07T07:07:35Z</time>
      </trkpt>
      <trkpt lat="42.96805" lon="0.31891">
        <ele>1560.3</ele>
        <time>2026-07-07T07:07:36Z</time>
      </trkpt>
      <trkpt lat="42.96805" lon="0.31892">
        <ele>1561.3</ele>
        <time>2026-07-07T07:07:37Z</time>
      </trkpt>
      <trkpt lat="42.96805" lon="0.31892">
        <ele>1561.3</ele>
        <time>2026-07-07T07:07:38Z</time>
      </trkpt>
      <trkpt lat="42.96804" lon="0.31893">
        <ele>1562.3</ele>
        <time>2026-07-07T07:07:38Z</time>
      </trkpt>
      <trkpt lat="42.96804" lon="0.31893">
        <ele>1562.3</ele>
        <time>2026-07-07T07:07:39Z</time>
      </trkpt>
      <trkpt lat="42.96804" lon="0.31894">
        <ele>1562.3</ele>
        <time>2026-07-07T07:07:40Z</time>
      </trkpt>
      <trkpt lat="42.96804" lon="0.31895">
        <ele>1562.3</ele>
        <time>2026-07-07T07:07:40Z</time>
      </trkpt>
      <trkpt lat="42.96803" lon="0.31895">
        <ele>1561.3</ele>
        <time>2026-07-07T07:07:41Z</time>
      </trkpt>
      <trkpt lat="42.96803" lon="0.31896">
        <ele>1562.3</ele>
        <time>2026-07-07T07:07:41Z</time>
      </trkpt>
      <trkpt lat="42.96802" lon="0.31897">
        <ele>1562.3</ele>
        <time>2026-07-07T07:07:42Z</time>
      </trkpt>
      <trkpt lat="42.96802" lon="0.31898">
        <ele>1561.3</ele>
        <time>2026-07-07T07:07:42Z</time>
      </trkpt>
      <trkpt lat="42.96801" lon="0.31898">
        <ele>1561.3</ele>
        <time>2026-07-07T07:07:43Z</time>
      </trkpt>
      <trkpt lat="42.96801" lon="0.31899">
        <ele>1561.3</ele>
        <time>2026-07-07T07:07:44Z</time>
      </trkpt>
      <trkpt lat="42.96801" lon="0.319">
        <ele>1561.3</ele>
        <time>2026-07-07T07:07:44Z</time>
      </trkpt>
      <trkpt lat="42.96801" lon="0.319">
        <ele>1561.3</ele>
        <time>2026-07-07T07:07:45Z</time>
      </trkpt>
      <trkpt lat="42.96801" lon="0.319">
        <ele>1561.3</ele>
        <time>2026-07-07T07:07:46Z</time>
      </trkpt>
      <trkpt lat="42.968" lon="0.31901">
        <ele>1561.3</ele>
        <time>2026-07-07T07:07:46Z</time>
      </trkpt>
      <trkpt lat="42.968" lon="0.31902">
        <ele>1561.3</ele>
        <time>2026-07-07T07:07:47Z</time>
      </trkpt>
      <trkpt lat="42.968" lon="0.31902">
        <ele>1561.3</ele>
        <time>2026-07-07T07:07:48Z</time>
      </trkpt>
      <trkpt lat="42.968" lon="0.31903">
        <ele>1561.3</ele>
        <time>2026-07-07T07:07:48Z</time>
      </trkpt>
      <trkpt lat="42.968" lon="0.31904">
        <ele>1561.3</ele>
        <time>2026-07-07T07:07:49Z</time>
      </trkpt>
      <trkpt lat="42.968" lon="0.31905">
        <ele>1561.3</ele>
        <time>2026-07-07T07:07:50Z</time>
      </trkpt>
      <trkpt lat="42.96799" lon="0.31905">
        <ele>1561.3</ele>
        <time>2026-07-07T07:07:50Z</time>
      </trkpt>
      <trkpt lat="42.96799" lon="0.31906">
        <ele>1561.3</ele>
        <time>2026-07-07T07:07:51Z</time>
      </trkpt>
      <trkpt lat="42.96799" lon="0.31907">
        <ele>1561.3</ele>
        <time>2026-07-07T07:07:52Z</time>
      </trkpt>
      <trkpt lat="42.96799" lon="0.31908">
        <ele>1561.3</ele>
        <time>2026-07-07T07:07:53Z</time>
      </trkpt>
      <trkpt lat="42.96799" lon="0.31909">
        <ele>1561.3</ele>
        <time>2026-07-07T07:07:53Z</time>
      </trkpt>
      <trkpt lat="42.96799" lon="0.3191">
        <ele>1561.3</ele>
        <time>2026-07-07T07:07:54Z</time>
      </trkpt>
      <trkpt lat="42.96799" lon="0.3191">
        <ele>1562.3</ele>
        <time>2026-07-07T07:07:55Z</time>
      </trkpt>
      <trkpt lat="42.96799" lon="0.31911">
        <ele>1562.3</ele>
        <time>2026-07-07T07:07:55Z</time>
      </trkpt>
      <trkpt lat="42.96798" lon="0.31912">
        <ele>1562.3</ele>
        <time>2026-07-07T07:07:56Z</time>
      </trkpt>
      <trkpt lat="42.96798" lon="0.31913">
        <ele>1563.3</ele>
        <time>2026-07-07T07:07:57Z</time>
      </trkpt>
      <trkpt lat="42.96798" lon="0.31914">
        <ele>1563.3</ele>
        <time>2026-07-07T07:07:57Z</time>
      </trkpt>
      <trkpt lat="42.96798" lon="0.31915">
        <ele>1563.3</ele>
        <time>2026-07-07T07:07:58Z</time>
      </trkpt>
      <trkpt lat="42.96798" lon="0.31915">
        <ele>1563.3</ele>
        <time>2026-07-07T07:07:59Z</time>
      </trkpt>
      <trkpt lat="42.96798" lon="0.31916">
        <ele>1563.3</ele>
        <time>2026-07-07T07:08:00Z</time>
      </trkpt>
      <trkpt lat="42.96798" lon="0.31917">
        <ele>1563.3</ele>
        <time>2026-07-07T07:08:00Z</time>
      </trkpt>
      <trkpt lat="42.96798" lon="0.31918">
        <ele>1563.3</ele>
        <time>2026-07-07T07:08:01Z</time>
      </trkpt>
      <trkpt lat="42.96798" lon="0.31918">
        <ele>1563.3</ele>
        <time>2026-07-07T07:08:02Z</time>
      </trkpt>
      <trkpt lat="42.96798" lon="0.31918">
        <ele>1563.3</ele>
        <time>2026-07-07T07:08:02Z</time>
      </trkpt>
      <trkpt lat="42.96798" lon="0.31919">
        <ele>1564.3</ele>
        <time>2026-07-07T07:08:03Z</time>
      </trkpt>
      <trkpt lat="42.96798" lon="0.3192">
        <ele>1564.3</ele>
        <time>2026-07-07T07:08:04Z</time>
      </trkpt>
      <trkpt lat="42.96797" lon="0.31921">
        <ele>1565.3</ele>
        <time>2026-07-07T07:08:05Z</time>
      </trkpt>
      <trkpt lat="42.96797" lon="0.31921">
        <ele>1565.3</ele>
        <time>2026-07-07T07:08:05Z</time>
      </trkpt>
      <trkpt lat="42.96797" lon="0.31922">
        <ele>1565.3</ele>
        <time>2026-07-07T07:08:06Z</time>
      </trkpt>
      <trkpt lat="42.96797" lon="0.31923">
        <ele>1564.3</ele>
        <time>2026-07-07T07:08:07Z</time>
      </trkpt>
      <trkpt lat="42.96797" lon="0.31924">
        <ele>1565.3</ele>
        <time>2026-07-07T07:08:08Z</time>
      </trkpt>
      <trkpt lat="42.96798" lon="0.31924">
        <ele>1565.3</ele>
        <time>2026-07-07T07:08:08Z</time>
      </trkpt>
      <trkpt lat="42.96798" lon="0.31926">
        <ele>1565.3</ele>
        <time>2026-07-07T07:08:09Z</time>
      </trkpt>
      <trkpt lat="42.96798" lon="0.31927">
        <ele>1565.3</ele>
        <time>2026-07-07T07:08:10Z</time>
      </trkpt>
      <trkpt lat="42.96798" lon="0.31928">
        <ele>1566.3</ele>
        <time>2026-07-07T07:08:11Z</time>
      </trkpt>
      <trkpt lat="42.96798" lon="0.31928">
        <ele>1567.3</ele>
        <time>2026-07-07T07:08:11Z</time>
      </trkpt>
      <trkpt lat="42.96798" lon="0.31929">
        <ele>1567.3</ele>
        <time>2026-07-07T07:08:12Z</time>
      </trkpt>
      <trkpt lat="42.96797" lon="0.3193">
        <ele>1567.3</ele>
        <time>2026-07-07T07:08:13Z</time>
      </trkpt>
      <trkpt lat="42.96797" lon="0.31931">
        <ele>1568.3</ele>
        <time>2026-07-07T07:08:14Z</time>
      </trkpt>
      <trkpt lat="42.96797" lon="0.31932">
        <ele>1568.3</ele>
        <time>2026-07-07T07:08:14Z</time>
      </trkpt>
      <trkpt lat="42.96797" lon="0.31933">
        <ele>1568.3</ele>
        <time>2026-07-07T07:08:15Z</time>
      </trkpt>
      <trkpt lat="42.96797" lon="0.31934">
        <ele>1568.3</ele>
        <time>2026-07-07T07:08:16Z</time>
      </trkpt>
      <trkpt lat="42.96797" lon="0.31935">
        <ele>1568.3</ele>
        <time>2026-07-07T07:08:17Z</time>
      </trkpt>
      <trkpt lat="42.96797" lon="0.31936">
        <ele>1569.3</ele>
        <time>2026-07-07T07:08:17Z</time>
      </trkpt>
      <trkpt lat="42.96797" lon="0.31937">
        <ele>1569.3</ele>
        <time>2026-07-07T07:08:18Z</time>
      </trkpt>
      <trkpt lat="42.96797" lon="0.31938">
        <ele>1569.3</ele>
        <time>2026-07-07T07:08:19Z</time>
      </trkpt>
      <trkpt lat="42.96797" lon="0.31939">
        <ele>1569.3</ele>
        <time>2026-07-07T07:08:20Z</time>
      </trkpt>
      <trkpt lat="42.96797" lon="0.31939">
        <ele>1570.3</ele>
        <time>2026-07-07T07:08:20Z</time>
      </trkpt>
      <trkpt lat="42.96797" lon="0.3194">
        <ele>1570.3</ele>
        <time>2026-07-07T07:08:21Z</time>
      </trkpt>
      <trkpt lat="42.96797" lon="0.31941">
        <ele>1571.3</ele>
        <time>2026-07-07T07:08:22Z</time>
      </trkpt>
      <trkpt lat="42.96797" lon="0.31941">
        <ele>1571.3</ele>
        <time>2026-07-07T07:08:23Z</time>
      </trkpt>
      <trkpt lat="42.96797" lon="0.31942">
        <ele>1571.3</ele>
        <time>2026-07-07T07:08:23Z</time>
      </trkpt>
      <trkpt lat="42.96797" lon="0.31943">
        <ele>1571.3</ele>
        <time>2026-07-07T07:08:24Z</time>
      </trkpt>
      <trkpt lat="42.96797" lon="0.31944">
        <ele>1570.3</ele>
        <time>2026-07-07T07:08:25Z</time>
      </trkpt>
      <trkpt lat="42.96797" lon="0.31944">
        <ele>1570.3</ele>
        <time>2026-07-07T07:08:25Z</time>
      </trkpt>
      <trkpt lat="42.96797" lon="0.31945">
        <ele>1570.3</ele>
        <time>2026-07-07T07:08:26Z</time>
      </trkpt>
      <trkpt lat="42.96797" lon="0.31945">
        <ele>1570.3</ele>
        <time>2026-07-07T07:08:27Z</time>
      </trkpt>
      <trkpt lat="42.96796" lon="0.31946">
        <ele>1570.3</ele>
        <time>2026-07-07T07:08:27Z</time>
      </trkpt>
      <trkpt lat="42.96796" lon="0.31947">
        <ele>1570.3</ele>
        <time>2026-07-07T07:08:28Z</time>
      </trkpt>
      <trkpt lat="42.96796" lon="0.31948">
        <ele>1570.3</ele>
        <time>2026-07-07T07:08:29Z</time>
      </trkpt>
      <trkpt lat="42.96796" lon="0.31949">
        <ele>1570.3</ele>
        <time>2026-07-07T07:08:29Z</time>
      </trkpt>
      <trkpt lat="42.96796" lon="0.3195">
        <ele>1570.3</ele>
        <time>2026-07-07T07:08:30Z</time>
      </trkpt>
      <trkpt lat="42.96795" lon="0.31951">
        <ele>1570.3</ele>
        <time>2026-07-07T07:08:31Z</time>
      </trkpt>
      <trkpt lat="42.96795" lon="0.31951">
        <ele>1570.3</ele>
        <time>2026-07-07T07:08:31Z</time>
      </trkpt>
      <trkpt lat="42.96795" lon="0.31952">
        <ele>1570.3</ele>
        <time>2026-07-07T07:08:32Z</time>
      </trkpt>
      <trkpt lat="42.96795" lon="0.31953">
        <ele>1570.3</ele>
        <time>2026-07-07T07:08:33Z</time>
      </trkpt>
      <trkpt lat="42.96795" lon="0.31954">
        <ele>1571.3</ele>
        <time>2026-07-07T07:08:34Z</time>
      </trkpt>
      <trkpt lat="42.96795" lon="0.31955">
        <ele>1571.3</ele>
        <time>2026-07-07T07:08:34Z</time>
      </trkpt>
      <trkpt lat="42.96795" lon="0.31956">
        <ele>1571.3</ele>
        <time>2026-07-07T07:08:35Z</time>
      </trkpt>
      <trkpt lat="42.96796" lon="0.31957">
        <ele>1571.3</ele>
        <time>2026-07-07T07:08:36Z</time>
      </trkpt>
      <trkpt lat="42.96795" lon="0.31958">
        <ele>1571.3</ele>
        <time>2026-07-07T07:08:37Z</time>
      </trkpt>
      <trkpt lat="42.96795" lon="0.31958">
        <ele>1571.3</ele>
        <time>2026-07-07T07:08:37Z</time>
      </trkpt>
      <trkpt lat="42.96795" lon="0.3196">
        <ele>1571.3</ele>
        <time>2026-07-07T07:08:38Z</time>
      </trkpt>
      <trkpt lat="42.96795" lon="0.3196">
        <ele>1571.3</ele>
        <time>2026-07-07T07:08:39Z</time>
      </trkpt>
      <trkpt lat="42.96796" lon="0.31961">
        <ele>1570.3</ele>
        <time>2026-07-07T07:08:39Z</time>
      </trkpt>
      <trkpt lat="42.96795" lon="0.31962">
        <ele>1570.3</ele>
        <time>2026-07-07T07:08:40Z</time>
      </trkpt>
      <trkpt lat="42.96796" lon="0.31963">
        <ele>1570.3</ele>
        <time>2026-07-07T07:08:41Z</time>
      </trkpt>
      <trkpt lat="42.96796" lon="0.31963">
        <ele>1570.3</ele>
        <time>2026-07-07T07:08:42Z</time>
      </trkpt>
      <trkpt lat="42.96796" lon="0.31964">
        <ele>1570.3</ele>
        <time>2026-07-07T07:08:42Z</time>
      </trkpt>
      <trkpt lat="42.96796" lon="0.31965">
        <ele>1570.3</ele>
        <time>2026-07-07T07:08:43Z</time>
      </trkpt>
      <trkpt lat="42.96796" lon="0.31966">
        <ele>1570.3</ele>
        <time>2026-07-07T07:08:44Z</time>
      </trkpt>
      <trkpt lat="42.96796" lon="0.31966">
        <ele>1570.3</ele>
        <time>2026-07-07T07:08:44Z</time>
      </trkpt>
      <trkpt lat="42.96796" lon="0.31967">
        <ele>1570.3</ele>
        <time>2026-07-07T07:08:45Z</time>
      </trkpt>
      <trkpt lat="42.96796" lon="0.31968">
        <ele>1570.3</ele>
        <time>2026-07-07T07:08:46Z</time>
      </trkpt>
      <trkpt lat="42.96796" lon="0.31969">
        <ele>1570.3</ele>
        <time>2026-07-07T07:08:47Z</time>
      </trkpt>
      <trkpt lat="42.96796" lon="0.3197">
        <ele>1570.3</ele>
        <time>2026-07-07T07:08:47Z</time>
      </trkpt>
      <trkpt lat="42.96796" lon="0.31971">
        <ele>1570.3</ele>
        <time>2026-07-07T07:08:48Z</time>
      </trkpt>
      <trkpt lat="42.96797" lon="0.31972">
        <ele>1571.3</ele>
        <time>2026-07-07T07:08:49Z</time>
      </trkpt>
      <trkpt lat="42.96797" lon="0.31972">
        <ele>1570.3</ele>
        <time>2026-07-07T07:08:49Z</time>
      </trkpt>
      <trkpt lat="42.96797" lon="0.31973">
        <ele>1570.3</ele>
        <time>2026-07-07T07:08:50Z</time>
      </trkpt>
      <trkpt lat="42.96797" lon="0.31974">
        <ele>1570.3</ele>
        <time>2026-07-07T07:08:51Z</time>
      </trkpt>
      <trkpt lat="42.96797" lon="0.31975">
        <ele>1570.3</ele>
        <time>2026-07-07T07:08:52Z</time>
      </trkpt>
      <trkpt lat="42.96797" lon="0.31975">
        <ele>1570.3</ele>
        <time>2026-07-07T07:08:52Z</time>
      </trkpt>
      <trkpt lat="42.96797" lon="0.31976">
        <ele>1571.3</ele>
        <time>2026-07-07T07:08:53Z</time>
      </trkpt>
      <trkpt lat="42.96797" lon="0.31977">
        <ele>1572.3</ele>
        <time>2026-07-07T07:08:54Z</time>
      </trkpt>
      <trkpt lat="42.96797" lon="0.31978">
        <ele>1572.3</ele>
        <time>2026-07-07T07:08:54Z</time>
      </trkpt>
      <trkpt lat="42.96797" lon="0.31979">
        <ele>1572.3</ele>
        <time>2026-07-07T07:08:55Z</time>
      </trkpt>
      <trkpt lat="42.96797" lon="0.31979">
        <ele>1572.3</ele>
        <time>2026-07-07T07:08:56Z</time>
      </trkpt>
      <trkpt lat="42.96797" lon="0.3198">
        <ele>1572.3</ele>
        <time>2026-07-07T07:08:56Z</time>
      </trkpt>
      <trkpt lat="42.96797" lon="0.31981">
        <ele>1572.3</ele>
        <time>2026-07-07T07:08:57Z</time>
      </trkpt>
      <trkpt lat="42.96797" lon="0.31981">
        <ele>1572.3</ele>
        <time>2026-07-07T07:08:58Z</time>
      </trkpt>
      <trkpt lat="42.96796" lon="0.31982">
        <ele>1573.3</ele>
        <time>2026-07-07T07:08:59Z</time>
      </trkpt>
      <trkpt lat="42.96796" lon="0.31982">
        <ele>1574.3</ele>
        <time>2026-07-07T07:08:59Z</time>
      </trkpt>
      <trkpt lat="42.96796" lon="0.31983">
        <ele>1574.3</ele>
        <time>2026-07-07T07:09:00Z</time>
      </trkpt>
      <trkpt lat="42.96796" lon="0.31984">
        <ele>1574.3</ele>
        <time>2026-07-07T07:09:00Z</time>
      </trkpt>
      <trkpt lat="42.96795" lon="0.31985">
        <ele>1574.3</ele>
        <time>2026-07-07T07:09:01Z</time>
      </trkpt>
      <trkpt lat="42.96795" lon="0.31986">
        <ele>1573.3</ele>
        <time>2026-07-07T07:09:02Z</time>
      </trkpt>
      <trkpt lat="42.96795" lon="0.31986">
        <ele>1574.3</ele>
        <time>2026-07-07T07:09:02Z</time>
      </trkpt>
      <trkpt lat="42.96795" lon="0.31987">
        <ele>1574.3</ele>
        <time>2026-07-07T07:09:03Z</time>
      </trkpt>
      <trkpt lat="42.96795" lon="0.31988">
        <ele>1574.3</ele>
        <time>2026-07-07T07:09:04Z</time>
      </trkpt>
      <trkpt lat="42.96795" lon="0.31988">
        <ele>1575.3</ele>
        <time>2026-07-07T07:09:04Z</time>
      </trkpt>
      <trkpt lat="42.96795" lon="0.31989">
        <ele>1575.3</ele>
        <time>2026-07-07T07:09:05Z</time>
      </trkpt>
      <trkpt lat="42.96795" lon="0.3199">
        <ele>1575.3</ele>
        <time>2026-07-07T07:09:06Z</time>
      </trkpt>
      <trkpt lat="42.96795" lon="0.31991">
        <ele>1576.3</ele>
        <time>2026-07-07T07:09:07Z</time>
      </trkpt>
      <trkpt lat="42.96794" lon="0.31991">
        <ele>1577.3</ele>
        <time>2026-07-07T07:09:07Z</time>
      </trkpt>
      <trkpt lat="42.96794" lon="0.31992">
        <ele>1577.3</ele>
        <time>2026-07-07T07:09:08Z</time>
      </trkpt>
      <trkpt lat="42.96794" lon="0.31993">
        <ele>1577.3</ele>
        <time>2026-07-07T07:09:09Z</time>
      </trkpt>
      <trkpt lat="42.96794" lon="0.31993">
        <ele>1577.3</ele>
        <time>2026-07-07T07:09:10Z</time>
      </trkpt>
      <trkpt lat="42.96794" lon="0.31994">
        <ele>1577.3</ele>
        <time>2026-07-07T07:09:10Z</time>
      </trkpt>
      <trkpt lat="42.96794" lon="0.31995">
        <ele>1577.3</ele>
        <time>2026-07-07T07:09:11Z</time>
      </trkpt>
      <trkpt lat="42.96795" lon="0.31996">
        <ele>1577.3</ele>
        <time>2026-07-07T07:09:12Z</time>
      </trkpt>
      <trkpt lat="42.96795" lon="0.31997">
        <ele>1577.3</ele>
        <time>2026-07-07T07:09:13Z</time>
      </trkpt>
      <trkpt lat="42.96795" lon="0.31997">
        <ele>1577.3</ele>
        <time>2026-07-07T07:09:13Z</time>
      </trkpt>
      <trkpt lat="42.96795" lon="0.31999">
        <ele>1577.3</ele>
        <time>2026-07-07T07:09:14Z</time>
      </trkpt>
      <trkpt lat="42.96795" lon="0.32">
        <ele>1576.3</ele>
        <time>2026-07-07T07:09:15Z</time>
      </trkpt>
      <trkpt lat="42.96795" lon="0.32001">
        <ele>1577.3</ele>
        <time>2026-07-07T07:09:15Z</time>
      </trkpt>
      <trkpt lat="42.96795" lon="0.32001">
        <ele>1577.3</ele>
        <time>2026-07-07T07:09:16Z</time>
      </trkpt>
      <trkpt lat="42.96795" lon="0.32002">
        <ele>1577.3</ele>
        <time>2026-07-07T07:09:17Z</time>
      </trkpt>
      <trkpt lat="42.96795" lon="0.32003">
        <ele>1577.3</ele>
        <time>2026-07-07T07:09:17Z</time>
      </trkpt>
      <trkpt lat="42.96795" lon="0.32004">
        <ele>1577.3</ele>
        <time>2026-07-07T07:09:18Z</time>
      </trkpt>
      <trkpt lat="42.96796" lon="0.32005">
        <ele>1577.3</ele>
        <time>2026-07-07T07:09:19Z</time>
      </trkpt>
      <trkpt lat="42.96796" lon="0.32006">
        <ele>1577.3</ele>
        <time>2026-07-07T07:09:19Z</time>
      </trkpt>
      <trkpt lat="42.96796" lon="0.32007">
        <ele>1577.3</ele>
        <time>2026-07-07T07:09:20Z</time>
      </trkpt>
      <trkpt lat="42.96796" lon="0.32008">
        <ele>1577.3</ele>
        <time>2026-07-07T07:09:21Z</time>
      </trkpt>
      <trkpt lat="42.96796" lon="0.32009">
        <ele>1577.3</ele>
        <time>2026-07-07T07:09:21Z</time>
      </trkpt>
      <trkpt lat="42.96796" lon="0.3201">
        <ele>1578.3</ele>
        <time>2026-07-07T07:09:22Z</time>
      </trkpt>
      <trkpt lat="42.96796" lon="0.32011">
        <ele>1577.3</ele>
        <time>2026-07-07T07:09:22Z</time>
      </trkpt>
      <trkpt lat="42.96796" lon="0.32012">
        <ele>1577.3</ele>
        <time>2026-07-07T07:09:23Z</time>
      </trkpt>
      <trkpt lat="42.96796" lon="0.32013">
        <ele>1577.3</ele>
        <time>2026-07-07T07:09:24Z</time>
      </trkpt>
      <trkpt lat="42.96796" lon="0.32014">
        <ele>1577.3</ele>
        <time>2026-07-07T07:09:24Z</time>
      </trkpt>
      <trkpt lat="42.96796" lon="0.32014">
        <ele>1577.3</ele>
        <time>2026-07-07T07:09:25Z</time>
      </trkpt>
      <trkpt lat="42.96797" lon="0.32015">
        <ele>1577.3</ele>
        <time>2026-07-07T07:09:25Z</time>
      </trkpt>
      <trkpt lat="42.96797" lon="0.32016">
        <ele>1577.3</ele>
        <time>2026-07-07T07:09:26Z</time>
      </trkpt>
      <trkpt lat="42.96798" lon="0.32017">
        <ele>1577.3</ele>
        <time>2026-07-07T07:09:27Z</time>
      </trkpt>
      <trkpt lat="42.96798" lon="0.32017">
        <ele>1577.3</ele>
        <time>2026-07-07T07:09:27Z</time>
      </trkpt>
      <trkpt lat="42.96799" lon="0.32018">
        <ele>1577.3</ele>
        <time>2026-07-07T07:09:28Z</time>
      </trkpt>
      <trkpt lat="42.96799" lon="0.32018">
        <ele>1577.3</ele>
        <time>2026-07-07T07:09:29Z</time>
      </trkpt>
      <trkpt lat="42.96799" lon="0.32019">
        <ele>1577.3</ele>
        <time>2026-07-07T07:09:29Z</time>
      </trkpt>
      <trkpt lat="42.96799" lon="0.3202">
        <ele>1577.3</ele>
        <time>2026-07-07T07:09:30Z</time>
      </trkpt>
      <trkpt lat="42.96799" lon="0.32021">
        <ele>1577.3</ele>
        <time>2026-07-07T07:09:31Z</time>
      </trkpt>
      <trkpt lat="42.96799" lon="0.32021">
        <ele>1577.3</ele>
        <time>2026-07-07T07:09:31Z</time>
      </trkpt>
      <trkpt lat="42.968" lon="0.32022">
        <ele>1577.3</ele>
        <time>2026-07-07T07:09:32Z</time>
      </trkpt>
      <trkpt lat="42.968" lon="0.32023">
        <ele>1577.3</ele>
        <time>2026-07-07T07:09:33Z</time>
      </trkpt>
      <trkpt lat="42.968" lon="0.32023">
        <ele>1576.3</ele>
        <time>2026-07-07T07:09:33Z</time>
      </trkpt>
      <trkpt lat="42.968" lon="0.32024">
        <ele>1576.3</ele>
        <time>2026-07-07T07:09:34Z</time>
      </trkpt>
      <trkpt lat="42.968" lon="0.32025">
        <ele>1576.3</ele>
        <time>2026-07-07T07:09:35Z</time>
      </trkpt>
      <trkpt lat="42.968" lon="0.32026">
        <ele>1576.3</ele>
        <time>2026-07-07T07:09:36Z</time>
      </trkpt>
      <trkpt lat="42.968" lon="0.32026">
        <ele>1576.3</ele>
        <time>2026-07-07T07:09:36Z</time>
      </trkpt>
      <trkpt lat="42.968" lon="0.32027">
        <ele>1576.3</ele>
        <time>2026-07-07T07:09:37Z</time>
      </trkpt>
      <trkpt lat="42.968" lon="0.32027">
        <ele>1576.3</ele>
        <time>2026-07-07T07:09:38Z</time>
      </trkpt>
      <trkpt lat="42.968" lon="0.32028">
        <ele>1576.3</ele>
        <time>2026-07-07T07:09:38Z</time>
      </trkpt>
      <trkpt lat="42.968" lon="0.32029">
        <ele>1576.3</ele>
        <time>2026-07-07T07:09:39Z</time>
      </trkpt>
      <trkpt lat="42.968" lon="0.32029">
        <ele>1576.3</ele>
        <time>2026-07-07T07:09:40Z</time>
      </trkpt>
      <trkpt lat="42.968" lon="0.3203">
        <ele>1576.3</ele>
        <time>2026-07-07T07:09:40Z</time>
      </trkpt>
      <trkpt lat="42.968" lon="0.32031">
        <ele>1576.3</ele>
        <time>2026-07-07T07:09:41Z</time>
      </trkpt>
      <trkpt lat="42.968" lon="0.32031">
        <ele>1576.3</ele>
        <time>2026-07-07T07:09:42Z</time>
      </trkpt>
      <trkpt lat="42.968" lon="0.32032">
        <ele>1576.3</ele>
        <time>2026-07-07T07:09:43Z</time>
      </trkpt>
      <trkpt lat="42.96801" lon="0.32032">
        <ele>1577.3</ele>
        <time>2026-07-07T07:09:43Z</time>
      </trkpt>
      <trkpt lat="42.96801" lon="0.32033">
        <ele>1577.3</ele>
        <time>2026-07-07T07:09:44Z</time>
      </trkpt>
      <trkpt lat="42.96801" lon="0.32034">
        <ele>1577.3</ele>
        <time>2026-07-07T07:09:45Z</time>
      </trkpt>
      <trkpt lat="42.96801" lon="0.32034">
        <ele>1577.3</ele>
        <time>2026-07-07T07:09:45Z</time>
      </trkpt>
      <trkpt lat="42.96802" lon="0.32035">
        <ele>1577.3</ele>
        <time>2026-07-07T07:09:46Z</time>
      </trkpt>
      <trkpt lat="42.96802" lon="0.32035">
        <ele>1577.3</ele>
        <time>2026-07-07T07:09:47Z</time>
      </trkpt>
      <trkpt lat="42.96803" lon="0.32036">
        <ele>1577.3</ele>
        <time>2026-07-07T07:09:47Z</time>
      </trkpt>
      <trkpt lat="42.96803" lon="0.32036">
        <ele>1577.3</ele>
        <time>2026-07-07T07:09:48Z</time>
      </trkpt>
      <trkpt lat="42.96804" lon="0.32037">
        <ele>1577.3</ele>
        <time>2026-07-07T07:09:49Z</time>
      </trkpt>
      <trkpt lat="42.96804" lon="0.32038">
        <ele>1577.3</ele>
        <time>2026-07-07T07:09:50Z</time>
      </trkpt>
      <trkpt lat="42.96804" lon="0.32038">
        <ele>1577.3</ele>
        <time>2026-07-07T07:09:51Z</time>
      </trkpt>
      <trkpt lat="42.96804" lon="0.32039">
        <ele>1577.3</ele>
        <time>2026-07-07T07:09:51Z</time>
      </trkpt>
      <trkpt lat="42.96805" lon="0.32039">
        <ele>1577.3</ele>
        <time>2026-07-07T07:09:52Z</time>
      </trkpt>
      <trkpt lat="42.96805" lon="0.3204">
        <ele>1578.3</ele>
        <time>2026-07-07T07:09:53Z</time>
      </trkpt>
      <trkpt lat="42.96805" lon="0.3204">
        <ele>1577.3</ele>
        <time>2026-07-07T07:09:53Z</time>
      </trkpt>
      <trkpt lat="42.96805" lon="0.32041">
        <ele>1577.3</ele>
        <time>2026-07-07T07:09:54Z</time>
      </trkpt>
      <trkpt lat="42.96805" lon="0.32042">
        <ele>1577.3</ele>
        <time>2026-07-07T07:09:55Z</time>
      </trkpt>
      <trkpt lat="42.96805" lon="0.32043">
        <ele>1577.3</ele>
        <time>2026-07-07T07:09:55Z</time>
      </trkpt>
      <trkpt lat="42.96805" lon="0.32044">
        <ele>1577.3</ele>
        <time>2026-07-07T07:09:56Z</time>
      </trkpt>
      <trkpt lat="42.96805" lon="0.32045">
        <ele>1578.3</ele>
        <time>2026-07-07T07:09:57Z</time>
      </trkpt>
      <trkpt lat="42.96805" lon="0.32046">
        <ele>1578.3</ele>
        <time>2026-07-07T07:09:57Z</time>
      </trkpt>
      <trkpt lat="42.96805" lon="0.32047">
        <ele>1577.3</ele>
        <time>2026-07-07T07:09:58Z</time>
      </trkpt>
      <trkpt lat="42.96805" lon="0.32047">
        <ele>1577.3</ele>
        <time>2026-07-07T07:09:58Z</time>
      </trkpt>
      <trkpt lat="42.96805" lon="0.32048">
        <ele>1577.3</ele>
        <time>2026-07-07T07:09:59Z</time>
      </trkpt>
      <trkpt lat="42.96805" lon="0.32049">
        <ele>1577.3</ele>
        <time>2026-07-07T07:10:00Z</time>
      </trkpt>
      <trkpt lat="42.96805" lon="0.32049">
        <ele>1577.3</ele>
        <time>2026-07-07T07:10:01Z</time>
      </trkpt>
      <trkpt lat="42.96805" lon="0.3205">
        <ele>1577.3</ele>
        <time>2026-07-07T07:10:01Z</time>
      </trkpt>
      <trkpt lat="42.96805" lon="0.3205">
        <ele>1577.3</ele>
        <time>2026-07-07T07:10:02Z</time>
      </trkpt>
      <trkpt lat="42.96805" lon="0.32051">
        <ele>1577.3</ele>
        <time>2026-07-07T07:10:02Z</time>
      </trkpt>
      <trkpt lat="42.96805" lon="0.32052">
        <ele>1577.3</ele>
        <time>2026-07-07T07:10:03Z</time>
      </trkpt>
      <trkpt lat="42.96806" lon="0.32053">
        <ele>1578.3</ele>
        <time>2026-07-07T07:10:04Z</time>
      </trkpt>
      <trkpt lat="42.96806" lon="0.32053">
        <ele>1578.3</ele>
        <time>2026-07-07T07:10:05Z</time>
      </trkpt>
      <trkpt lat="42.96806" lon="0.32054">
        <ele>1578.3</ele>
        <time>2026-07-07T07:10:05Z</time>
      </trkpt>
      <trkpt lat="42.96806" lon="0.32055">
        <ele>1578.3</ele>
        <time>2026-07-07T07:10:06Z</time>
      </trkpt>
      <trkpt lat="42.96806" lon="0.32055">
        <ele>1578.3</ele>
        <time>2026-07-07T07:10:07Z</time>
      </trkpt>
      <trkpt lat="42.96806" lon="0.32056">
        <ele>1577.3</ele>
        <time>2026-07-07T07:10:08Z</time>
      </trkpt>
      <trkpt lat="42.96806" lon="0.32056">
        <ele>1577.3</ele>
        <time>2026-07-07T07:10:08Z</time>
      </trkpt>
      <trkpt lat="42.96806" lon="0.32057">
        <ele>1577.3</ele>
        <time>2026-07-07T07:10:09Z</time>
      </trkpt>
      <trkpt lat="42.96806" lon="0.32058">
        <ele>1577.3</ele>
        <time>2026-07-07T07:10:09Z</time>
      </trkpt>
      <trkpt lat="42.96806" lon="0.32059">
        <ele>1577.3</ele>
        <time>2026-07-07T07:10:10Z</time>
      </trkpt>
      <trkpt lat="42.96806" lon="0.3206">
        <ele>1577.3</ele>
        <time>2026-07-07T07:10:11Z</time>
      </trkpt>
      <trkpt lat="42.96806" lon="0.3206">
        <ele>1577.3</ele>
        <time>2026-07-07T07:10:11Z</time>
      </trkpt>
      <trkpt lat="42.96806" lon="0.32061">
        <ele>1577.3</ele>
        <time>2026-07-07T07:10:12Z</time>
      </trkpt>
      <trkpt lat="42.96805" lon="0.32062">
        <ele>1578.3</ele>
        <time>2026-07-07T07:10:13Z</time>
      </trkpt>
      <trkpt lat="42.96805" lon="0.32063">
        <ele>1578.3</ele>
        <time>2026-07-07T07:10:13Z</time>
      </trkpt>
      <trkpt lat="42.96805" lon="0.32063">
        <ele>1578.3</ele>
        <time>2026-07-07T07:10:14Z</time>
      </trkpt>
      <trkpt lat="42.96805" lon="0.32064">
        <ele>1578.3</ele>
        <time>2026-07-07T07:10:15Z</time>
      </trkpt>
      <trkpt lat="42.96806" lon="0.32065">
        <ele>1578.3</ele>
        <time>2026-07-07T07:10:16Z</time>
      </trkpt>
      <trkpt lat="42.96806" lon="0.32065">
        <ele>1579.3</ele>
        <time>2026-07-07T07:10:16Z</time>
      </trkpt>
      <trkpt lat="42.96806" lon="0.32066">
        <ele>1579.3</ele>
        <time>2026-07-07T07:10:17Z</time>
      </trkpt>
      <trkpt lat="42.96806" lon="0.32067">
        <ele>1580.3</ele>
        <time>2026-07-07T07:10:18Z</time>
      </trkpt>
      <trkpt lat="42.96806" lon="0.32068">
        <ele>1580.3</ele>
        <time>2026-07-07T07:10:18Z</time>
      </trkpt>
      <trkpt lat="42.96806" lon="0.32069">
        <ele>1580.3</ele>
        <time>2026-07-07T07:10:19Z</time>
      </trkpt>
      <trkpt lat="42.96806" lon="0.3207">
        <ele>1580.3</ele>
        <time>2026-07-07T07:10:20Z</time>
      </trkpt>
      <trkpt lat="42.96805" lon="0.3207">
        <ele>1580.3</ele>
        <time>2026-07-07T07:10:21Z</time>
      </trkpt>
      <trkpt lat="42.96805" lon="0.32071">
        <ele>1580.3</ele>
        <time>2026-07-07T07:10:21Z</time>
      </trkpt>
      <trkpt lat="42.96805" lon="0.32072">
        <ele>1580.3</ele>
        <time>2026-07-07T07:10:22Z</time>
      </trkpt>
      <trkpt lat="42.96805" lon="0.32073">
        <ele>1580.3</ele>
        <time>2026-07-07T07:10:22Z</time>
      </trkpt>
      <trkpt lat="42.96805" lon="0.32074">
        <ele>1580.3</ele>
        <time>2026-07-07T07:10:23Z</time>
      </trkpt>
      <trkpt lat="42.96806" lon="0.32075">
        <ele>1579.3</ele>
        <time>2026-07-07T07:10:24Z</time>
      </trkpt>
      <trkpt lat="42.96806" lon="0.32076">
        <ele>1580.3</ele>
        <time>2026-07-07T07:10:25Z</time>
      </trkpt>
      <trkpt lat="42.96806" lon="0.32077">
        <ele>1580.3</ele>
        <time>2026-07-07T07:10:25Z</time>
      </trkpt>
      <trkpt lat="42.96807" lon="0.32078">
        <ele>1580.3</ele>
        <time>2026-07-07T07:10:26Z</time>
      </trkpt>
      <trkpt lat="42.96807" lon="0.32079">
        <ele>1581.3</ele>
        <time>2026-07-07T07:10:27Z</time>
      </trkpt>
      <trkpt lat="42.96807" lon="0.32079">
        <ele>1581.3</ele>
        <time>2026-07-07T07:10:27Z</time>
      </trkpt>
      <trkpt lat="42.96807" lon="0.32081">
        <ele>1581.3</ele>
        <time>2026-07-07T07:10:28Z</time>
      </trkpt>
      <trkpt lat="42.96807" lon="0.32081">
        <ele>1581.3</ele>
        <time>2026-07-07T07:10:29Z</time>
      </trkpt>
      <trkpt lat="42.96807" lon="0.32082">
        <ele>1581.3</ele>
        <time>2026-07-07T07:10:29Z</time>
      </trkpt>
      <trkpt lat="42.96807" lon="0.32083">
        <ele>1581.3</ele>
        <time>2026-07-07T07:10:30Z</time>
      </trkpt>
      <trkpt lat="42.96807" lon="0.32083">
        <ele>1581.3</ele>
        <time>2026-07-07T07:10:31Z</time>
      </trkpt>
      <trkpt lat="42.96807" lon="0.32084">
        <ele>1582.3</ele>
        <time>2026-07-07T07:10:31Z</time>
      </trkpt>
      <trkpt lat="42.96807" lon="0.32085">
        <ele>1582.3</ele>
        <time>2026-07-07T07:10:32Z</time>
      </trkpt>
      <trkpt lat="42.96807" lon="0.32086">
        <ele>1582.3</ele>
        <time>2026-07-07T07:10:33Z</time>
      </trkpt>
      <trkpt lat="42.96807" lon="0.32087">
        <ele>1582.3</ele>
        <time>2026-07-07T07:10:34Z</time>
      </trkpt>
      <trkpt lat="42.96807" lon="0.32088">
        <ele>1582.3</ele>
        <time>2026-07-07T07:10:34Z</time>
      </trkpt>
      <trkpt lat="42.96807" lon="0.32088">
        <ele>1582.3</ele>
        <time>2026-07-07T07:10:35Z</time>
      </trkpt>
      <trkpt lat="42.96807" lon="0.32088">
        <ele>1583.3</ele>
        <time>2026-07-07T07:10:36Z</time>
      </trkpt>
      <trkpt lat="42.96807" lon="0.32088">
        <ele>1583.3</ele>
        <time>2026-07-07T07:10:36Z</time>
      </trkpt>
      <trkpt lat="42.96807" lon="0.32089">
        <ele>1583.3</ele>
        <time>2026-07-07T07:10:37Z</time>
      </trkpt>
      <trkpt lat="42.96807" lon="0.3209">
        <ele>1582.3</ele>
        <time>2026-07-07T07:10:38Z</time>
      </trkpt>
      <trkpt lat="42.96807" lon="0.3209">
        <ele>1582.3</ele>
        <time>2026-07-07T07:10:38Z</time>
      </trkpt>
      <trkpt lat="42.96807" lon="0.32091">
        <ele>1582.3</ele>
        <time>2026-07-07T07:10:39Z</time>
      </trkpt>
      <trkpt lat="42.96807" lon="0.32092">
        <ele>1582.3</ele>
        <time>2026-07-07T07:10:40Z</time>
      </trkpt>
      <trkpt lat="42.96807" lon="0.32093">
        <ele>1582.3</ele>
        <time>2026-07-07T07:10:41Z</time>
      </trkpt>
      <trkpt lat="42.96807" lon="0.32094">
        <ele>1582.3</ele>
        <time>2026-07-07T07:10:41Z</time>
      </trkpt>
      <trkpt lat="42.96807" lon="0.32095">
        <ele>1582.3</ele>
        <time>2026-07-07T07:10:42Z</time>
      </trkpt>
      <trkpt lat="42.96807" lon="0.32095">
        <ele>1582.3</ele>
        <time>2026-07-07T07:10:43Z</time>
      </trkpt>
      <trkpt lat="42.96807" lon="0.32096">
        <ele>1582.3</ele>
        <time>2026-07-07T07:10:43Z</time>
      </trkpt>
      <trkpt lat="42.96807" lon="0.32097">
        <ele>1582.3</ele>
        <time>2026-07-07T07:10:44Z</time>
      </trkpt>
      <trkpt lat="42.96807" lon="0.32098">
        <ele>1582.3</ele>
        <time>2026-07-07T07:10:44Z</time>
      </trkpt>
      <trkpt lat="42.96807" lon="0.32099">
        <ele>1582.3</ele>
        <time>2026-07-07T07:10:45Z</time>
      </trkpt>
      <trkpt lat="42.96808" lon="0.32099">
        <ele>1582.3</ele>
        <time>2026-07-07T07:10:46Z</time>
      </trkpt>
      <trkpt lat="42.96808" lon="0.321">
        <ele>1583.3</ele>
        <time>2026-07-07T07:10:46Z</time>
      </trkpt>
      <trkpt lat="42.96808" lon="0.32101">
        <ele>1583.3</ele>
        <time>2026-07-07T07:10:47Z</time>
      </trkpt>
      <trkpt lat="42.96808" lon="0.32101">
        <ele>1582.3</ele>
        <time>2026-07-07T07:10:48Z</time>
      </trkpt>
      <trkpt lat="42.96808" lon="0.32102">
        <ele>1583.3</ele>
        <time>2026-07-07T07:10:48Z</time>
      </trkpt>
      <trkpt lat="42.96809" lon="0.32103">
        <ele>1583.3</ele>
        <time>2026-07-07T07:10:49Z</time>
      </trkpt>
      <trkpt lat="42.96809" lon="0.32104">
        <ele>1583.3</ele>
        <time>2026-07-07T07:10:50Z</time>
      </trkpt>
      <trkpt lat="42.96809" lon="0.32104">
        <ele>1583.3</ele>
        <time>2026-07-07T07:10:51Z</time>
      </trkpt>
      <trkpt lat="42.96809" lon="0.32104">
        <ele>1582.3</ele>
        <time>2026-07-07T07:10:51Z</time>
      </trkpt>
      <trkpt lat="42.9681" lon="0.32105">
        <ele>1582.3</ele>
        <time>2026-07-07T07:10:52Z</time>
      </trkpt>
      <trkpt lat="42.9681" lon="0.32106">
        <ele>1583.3</ele>
        <time>2026-07-07T07:10:53Z</time>
      </trkpt>
      <trkpt lat="42.9681" lon="0.32107">
        <ele>1583.3</ele>
        <time>2026-07-07T07:10:53Z</time>
      </trkpt>
      <trkpt lat="42.9681" lon="0.32108">
        <ele>1582.3</ele>
        <time>2026-07-07T07:10:54Z</time>
      </trkpt>
      <trkpt lat="42.9681" lon="0.32108">
        <ele>1582.3</ele>
        <time>2026-07-07T07:10:54Z</time>
      </trkpt>
      <trkpt lat="42.9681" lon="0.32109">
        <ele>1582.3</ele>
        <time>2026-07-07T07:10:55Z</time>
      </trkpt>
      <trkpt lat="42.9681" lon="0.3211">
        <ele>1583.3</ele>
        <time>2026-07-07T07:10:56Z</time>
      </trkpt>
      <trkpt lat="42.9681" lon="0.3211">
        <ele>1583.3</ele>
        <time>2026-07-07T07:10:56Z</time>
      </trkpt>
      <trkpt lat="42.9681" lon="0.32111">
        <ele>1583.3</ele>
        <time>2026-07-07T07:10:57Z</time>
      </trkpt>
      <trkpt lat="42.96811" lon="0.32112">
        <ele>1584.3</ele>
        <time>2026-07-07T07:10:58Z</time>
      </trkpt>
      <trkpt lat="42.96811" lon="0.32112">
        <ele>1584.3</ele>
        <time>2026-07-07T07:10:58Z</time>
      </trkpt>
      <trkpt lat="42.96811" lon="0.32113">
        <ele>1584.3</ele>
        <time>2026-07-07T07:10:59Z</time>
      </trkpt>
      <trkpt lat="42.96811" lon="0.32114">
        <ele>1584.3</ele>
        <time>2026-07-07T07:11:00Z</time>
      </trkpt>
      <trkpt lat="42.96811" lon="0.32114">
        <ele>1584.3</ele>
        <time>2026-07-07T07:11:00Z</time>
      </trkpt>
      <trkpt lat="42.96811" lon="0.32115">
        <ele>1584.3</ele>
        <time>2026-07-07T07:11:01Z</time>
      </trkpt>
      <trkpt lat="42.96812" lon="0.32116">
        <ele>1584.3</ele>
        <time>2026-07-07T07:11:02Z</time>
      </trkpt>
      <trkpt lat="42.96812" lon="0.32116">
        <ele>1585.3</ele>
        <time>2026-07-07T07:11:02Z</time>
      </trkpt>
      <trkpt lat="42.96812" lon="0.32117">
        <ele>1585.3</ele>
        <time>2026-07-07T07:11:03Z</time>
      </trkpt>
      <trkpt lat="42.96812" lon="0.32117">
        <ele>1585.3</ele>
        <time>2026-07-07T07:11:04Z</time>
      </trkpt>
      <trkpt lat="42.96812" lon="0.32118">
        <ele>1585.3</ele>
        <time>2026-07-07T07:11:05Z</time>
      </trkpt>
      <trkpt lat="42.96812" lon="0.32119">
        <ele>1585.3</ele>
        <time>2026-07-07T07:11:06Z</time>
      </trkpt>
      <trkpt lat="42.96812" lon="0.32119">
        <ele>1585.3</ele>
        <time>2026-07-07T07:11:06Z</time>
      </trkpt>
      <trkpt lat="42.96813" lon="0.3212">
        <ele>1585.3</ele>
        <time>2026-07-07T07:11:07Z</time>
      </trkpt>
      <trkpt lat="42.96813" lon="0.32121">
        <ele>1584.3</ele>
        <time>2026-07-07T07:11:08Z</time>
      </trkpt>
      <trkpt lat="42.96813" lon="0.32122">
        <ele>1584.3</ele>
        <time>2026-07-07T07:11:08Z</time>
      </trkpt>
      <trkpt lat="42.96814" lon="0.32123">
        <ele>1584.3</ele>
        <time>2026-07-07T07:11:09Z</time>
      </trkpt>
      <trkpt lat="42.96814" lon="0.32123">
        <ele>1585.3</ele>
        <time>2026-07-07T07:11:09Z</time>
      </trkpt>
      <trkpt lat="42.96814" lon="0.32124">
        <ele>1585.3</ele>
        <time>2026-07-07T07:11:10Z</time>
      </trkpt>
      <trkpt lat="42.96815" lon="0.32125">
        <ele>1586.3</ele>
        <time>2026-07-07T07:11:11Z</time>
      </trkpt>
      <trkpt lat="42.96815" lon="0.32126">
        <ele>1586.3</ele>
        <time>2026-07-07T07:11:11Z</time>
      </trkpt>
      <trkpt lat="42.96815" lon="0.32127">
        <ele>1586.3</ele>
        <time>2026-07-07T07:11:12Z</time>
      </trkpt>
      <trkpt lat="42.96815" lon="0.32128">
        <ele>1586.3</ele>
        <time>2026-07-07T07:11:13Z</time>
      </trkpt>
      <trkpt lat="42.96815" lon="0.32129">
        <ele>1586.3</ele>
        <time>2026-07-07T07:11:14Z</time>
      </trkpt>
      <trkpt lat="42.96815" lon="0.32129">
        <ele>1586.3</ele>
        <time>2026-07-07T07:11:14Z</time>
      </trkpt>
      <trkpt lat="42.96815" lon="0.3213">
        <ele>1586.3</ele>
        <time>2026-07-07T07:11:15Z</time>
      </trkpt>
      <trkpt lat="42.96815" lon="0.32131">
        <ele>1586.3</ele>
        <time>2026-07-07T07:11:16Z</time>
      </trkpt>
      <trkpt lat="42.96814" lon="0.32131">
        <ele>1586.3</ele>
        <time>2026-07-07T07:11:17Z</time>
      </trkpt>
      <trkpt lat="42.96814" lon="0.32131">
        <ele>1585.3</ele>
        <time>2026-07-07T07:11:17Z</time>
      </trkpt>
      <trkpt lat="42.96814" lon="0.32132">
        <ele>1585.3</ele>
        <time>2026-07-07T07:11:18Z</time>
      </trkpt>
      <trkpt lat="42.96814" lon="0.32133">
        <ele>1585.3</ele>
        <time>2026-07-07T07:11:18Z</time>
      </trkpt>
      <trkpt lat="42.96814" lon="0.32134">
        <ele>1585.3</ele>
        <time>2026-07-07T07:11:19Z</time>
      </trkpt>
      <trkpt lat="42.96814" lon="0.32134">
        <ele>1584.3</ele>
        <time>2026-07-07T07:11:19Z</time>
      </trkpt>
      <trkpt lat="42.96814" lon="0.32135">
        <ele>1584.3</ele>
        <time>2026-07-07T07:11:20Z</time>
      </trkpt>
      <trkpt lat="42.96814" lon="0.32136">
        <ele>1584.3</ele>
        <time>2026-07-07T07:11:21Z</time>
      </trkpt>
      <trkpt lat="42.96814" lon="0.32137">
        <ele>1584.3</ele>
        <time>2026-07-07T07:11:22Z</time>
      </trkpt>
      <trkpt lat="42.96815" lon="0.32137">
        <ele>1584.3</ele>
        <time>2026-07-07T07:11:22Z</time>
      </trkpt>
      <trkpt lat="42.96815" lon="0.32138">
        <ele>1584.3</ele>
        <time>2026-07-07T07:11:23Z</time>
      </trkpt>
      <trkpt lat="42.96815" lon="0.32139">
        <ele>1585.3</ele>
        <time>2026-07-07T07:11:24Z</time>
      </trkpt>
      <trkpt lat="42.96815" lon="0.32139">
        <ele>1584.3</ele>
        <time>2026-07-07T07:11:24Z</time>
      </trkpt>
      <trkpt lat="42.96815" lon="0.3214">
        <ele>1584.3</ele>
        <time>2026-07-07T07:11:25Z</time>
      </trkpt>
      <trkpt lat="42.96816" lon="0.32141">
        <ele>1584.3</ele>
        <time>2026-07-07T07:11:26Z</time>
      </trkpt>
      <trkpt lat="42.96816" lon="0.32141">
        <ele>1584.3</ele>
        <time>2026-07-07T07:11:26Z</time>
      </trkpt>
      <trkpt lat="42.96816" lon="0.32142">
        <ele>1584.3</ele>
        <time>2026-07-07T07:11:27Z</time>
      </trkpt>
      <trkpt lat="42.96816" lon="0.32143">
        <ele>1584.3</ele>
        <time>2026-07-07T07:11:28Z</time>
      </trkpt>
      <trkpt lat="42.96816" lon="0.32143">
        <ele>1584.3</ele>
        <time>2026-07-07T07:11:28Z</time>
      </trkpt>
      <trkpt lat="42.96817" lon="0.32144">
        <ele>1584.3</ele>
        <time>2026-07-07T07:11:29Z</time>
      </trkpt>
      <trkpt lat="42.96817" lon="0.32145">
        <ele>1584.3</ele>
        <time>2026-07-07T07:11:30Z</time>
      </trkpt>
      <trkpt lat="42.96817" lon="0.32145">
        <ele>1584.3</ele>
        <time>2026-07-07T07:11:30Z</time>
      </trkpt>
      <trkpt lat="42.96817" lon="0.32146">
        <ele>1583.3</ele>
        <time>2026-07-07T07:11:31Z</time>
      </trkpt>
      <trkpt lat="42.96817" lon="0.32147">
        <ele>1583.3</ele>
        <time>2026-07-07T07:11:31Z</time>
      </trkpt>
      <trkpt lat="42.96817" lon="0.32148">
        <ele>1583.3</ele>
        <time>2026-07-07T07:11:32Z</time>
      </trkpt>
      <trkpt lat="42.96817" lon="0.32148">
        <ele>1583.3</ele>
        <time>2026-07-07T07:11:33Z</time>
      </trkpt>
      <trkpt lat="42.96817" lon="0.32149">
        <ele>1584.3</ele>
        <time>2026-07-07T07:11:33Z</time>
      </trkpt>
      <trkpt lat="42.96817" lon="0.3215">
        <ele>1584.3</ele>
        <time>2026-07-07T07:11:34Z</time>
      </trkpt>
      <trkpt lat="42.96817" lon="0.3215">
        <ele>1584.3</ele>
        <time>2026-07-07T07:11:35Z</time>
      </trkpt>
      <trkpt lat="42.96818" lon="0.32151">
        <ele>1584.3</ele>
        <time>2026-07-07T07:11:35Z</time>
      </trkpt>
      <trkpt lat="42.96818" lon="0.32152">
        <ele>1583.3</ele>
        <time>2026-07-07T07:11:36Z</time>
      </trkpt>
      <trkpt lat="42.96818" lon="0.32152">
        <ele>1583.3</ele>
        <time>2026-07-07T07:11:37Z</time>
      </trkpt>
      <trkpt lat="42.96818" lon="0.32153">
        <ele>1582.3</ele>
        <time>2026-07-07T07:11:38Z</time>
      </trkpt>
      <trkpt lat="42.96819" lon="0.32153">
        <ele>1582.3</ele>
        <time>2026-07-07T07:11:38Z</time>
      </trkpt>
      <trkpt lat="42.96819" lon="0.32153">
        <ele>1583.3</ele>
        <time>2026-07-07T07:11:39Z</time>
      </trkpt>
      <trkpt lat="42.9682" lon="0.32154">
        <ele>1583.3</ele>
        <time>2026-07-07T07:11:40Z</time>
      </trkpt>
      <trkpt lat="42.9682" lon="0.32154">
        <ele>1583.3</ele>
        <time>2026-07-07T07:11:41Z</time>
      </trkpt>
      <trkpt lat="42.9682" lon="0.32154">
        <ele>1582.3</ele>
        <time>2026-07-07T07:11:42Z</time>
      </trkpt>
      <trkpt lat="42.9682" lon="0.32155">
        <ele>1582.3</ele>
        <time>2026-07-07T07:11:42Z</time>
      </trkpt>
      <trkpt lat="42.9682" lon="0.32155">
        <ele>1582.3</ele>
        <time>2026-07-07T07:11:43Z</time>
      </trkpt>
      <trkpt lat="42.9682" lon="0.32155">
        <ele>1582.3</ele>
        <time>2026-07-07T07:11:43Z</time>
      </trkpt>
      <trkpt lat="42.9682" lon="0.32156">
        <ele>1582.3</ele>
        <time>2026-07-07T07:11:44Z</time>
      </trkpt>
      <trkpt lat="42.96821" lon="0.32156">
        <ele>1584.3</ele>
        <time>2026-07-07T07:11:45Z</time>
      </trkpt>
      <trkpt lat="42.96821" lon="0.32157">
        <ele>1584.3</ele>
        <time>2026-07-07T07:11:45Z</time>
      </trkpt>
      <trkpt lat="42.96821" lon="0.32158">
        <ele>1584.3</ele>
        <time>2026-07-07T07:11:46Z</time>
      </trkpt>
      <trkpt lat="42.96821" lon="0.32159">
        <ele>1584.3</ele>
        <time>2026-07-07T07:11:46Z</time>
      </trkpt>
      <trkpt lat="42.96821" lon="0.32159">
        <ele>1584.3</ele>
        <time>2026-07-07T07:11:47Z</time>
      </trkpt>
      <trkpt lat="42.96821" lon="0.3216">
        <ele>1584.3</ele>
        <time>2026-07-07T07:11:48Z</time>
      </trkpt>
      <trkpt lat="42.96821" lon="0.32161">
        <ele>1584.3</ele>
        <time>2026-07-07T07:11:48Z</time>
      </trkpt>
      <trkpt lat="42.96821" lon="0.32161">
        <ele>1584.3</ele>
        <time>2026-07-07T07:11:49Z</time>
      </trkpt>
      <trkpt lat="42.96821" lon="0.32162">
        <ele>1584.3</ele>
        <time>2026-07-07T07:11:50Z</time>
      </trkpt>
      <trkpt lat="42.96822" lon="0.32162">
        <ele>1584.3</ele>
        <time>2026-07-07T07:11:50Z</time>
      </trkpt>
      <trkpt lat="42.96822" lon="0.32163">
        <ele>1584.3</ele>
        <time>2026-07-07T07:11:51Z</time>
      </trkpt>
      <trkpt lat="42.96822" lon="0.32164">
        <ele>1584.3</ele>
        <time>2026-07-07T07:11:52Z</time>
      </trkpt>
      <trkpt lat="42.96822" lon="0.32164">
        <ele>1585.3</ele>
        <time>2026-07-07T07:11:53Z</time>
      </trkpt>
      <trkpt lat="42.96822" lon="0.32165">
        <ele>1585.3</ele>
        <time>2026-07-07T07:11:53Z</time>
      </trkpt>
      <trkpt lat="42.96823" lon="0.32166">
        <ele>1585.3</ele>
        <time>2026-07-07T07:11:54Z</time>
      </trkpt>
      <trkpt lat="42.96823" lon="0.32166">
        <ele>1585.3</ele>
        <time>2026-07-07T07:11:55Z</time>
      </trkpt>
      <trkpt lat="42.96823" lon="0.32167">
        <ele>1584.3</ele>
        <time>2026-07-07T07:11:55Z</time>
      </trkpt>
      <trkpt lat="42.96824" lon="0.32168">
        <ele>1584.3</ele>
        <time>2026-07-07T07:11:56Z</time>
      </trkpt>
      <trkpt lat="42.96825" lon="0.32168">
        <ele>1585.3</ele>
        <time>2026-07-07T07:11:57Z</time>
      </trkpt>
      <trkpt lat="42.96825" lon="0.32169">
        <ele>1585.3</ele>
        <time>2026-07-07T07:11:58Z</time>
      </trkpt>
      <trkpt lat="42.96825" lon="0.32169">
        <ele>1585.3</ele>
        <time>2026-07-07T07:11:59Z</time>
      </trkpt>
      <trkpt lat="42.96825" lon="0.32169">
        <ele>1585.3</ele>
        <time>2026-07-07T07:12:00Z</time>
      </trkpt>
      <trkpt lat="42.96825" lon="0.32169">
        <ele>1584.3</ele>
        <time>2026-07-07T07:12:01Z</time>
      </trkpt>
      <trkpt lat="42.96825" lon="0.32168">
        <ele>1584.3</ele>
        <time>2026-07-07T07:12:02Z</time>
      </trkpt>
      <trkpt lat="42.96824" lon="0.32168">
        <ele>1584.3</ele>
        <time>2026-07-07T07:12:03Z</time>
      </trkpt>
      <trkpt lat="42.96824" lon="0.32168">
        <ele>1583.3</ele>
        <time>2026-07-07T07:12:04Z</time>
      </trkpt>
      <trkpt lat="42.96824" lon="0.32168">
        <ele>1583.3</ele>
        <time>2026-07-07T07:12:05Z</time>
      </trkpt>
      <trkpt lat="42.96824" lon="0.32168">
        <ele>1583.3</ele>
        <time>2026-07-07T07:12:06Z</time>
      </trkpt>
      <trkpt lat="42.96824" lon="0.32168">
        <ele>1583.3</ele>
        <time>2026-07-07T07:12:07Z</time>
      </trkpt>
      <trkpt lat="42.96824" lon="0.32168">
        <ele>1583.3</ele>
        <time>2026-07-07T07:12:08Z</time>
      </trkpt>
      <trkpt lat="42.96824" lon="0.32168">
        <ele>1583.3</ele>
        <time>2026-07-07T07:12:08Z</time>
      </trkpt>
      <trkpt lat="42.96824" lon="0.32168">
        <ele>1583.3</ele>
        <time>2026-07-07T07:12:09Z</time>
      </trkpt>
      <trkpt lat="42.96824" lon="0.32168">
        <ele>1583.3</ele>
        <time>2026-07-07T07:12:09Z</time>
      </trkpt>
      <trkpt lat="42.96824" lon="0.32168">
        <ele>1583.3</ele>
        <time>2026-07-07T07:12:10Z</time>
      </trkpt>
      <trkpt lat="42.96824" lon="0.32168">
        <ele>1583.3</ele>
        <time>2026-07-07T07:12:11Z</time>
      </trkpt>
      <trkpt lat="42.96824" lon="0.32168">
        <ele>1583.3</ele>
        <time>2026-07-07T07:12:11Z</time>
      </trkpt>
      <trkpt lat="42.96824" lon="0.32168">
        <ele>1583.3</ele>
        <time>2026-07-07T07:12:12Z</time>
      </trkpt>
      <trkpt lat="42.96824" lon="0.32168">
        <ele>1584.3</ele>
        <time>2026-07-07T07:12:13Z</time>
      </trkpt>
      <trkpt lat="42.96825" lon="0.32168">
        <ele>1584.3</ele>
        <time>2026-07-07T07:12:14Z</time>
      </trkpt>
      <trkpt lat="42.96825" lon="0.32169">
        <ele>1585.3</ele>
        <time>2026-07-07T07:12:15Z</time>
      </trkpt>
      <trkpt lat="42.96825" lon="0.32169">
        <ele>1585.3</ele>
        <time>2026-07-07T07:12:16Z</time>
      </trkpt>
      <trkpt lat="42.96825" lon="0.32169">
        <ele>1584.3</ele>
        <time>2026-07-07T07:12:17Z</time>
      </trkpt>
      <trkpt lat="42.96825" lon="0.32169">
        <ele>1585.3</ele>
        <time>2026-07-07T07:12:18Z</time>
      </trkpt>
      <trkpt lat="42.96825" lon="0.3217">
        <ele>1585.3</ele>
        <time>2026-07-07T07:12:19Z</time>
      </trkpt>
      <trkpt lat="42.96825" lon="0.3217">
        <ele>1585.3</ele>
        <time>2026-07-07T07:12:20Z</time>
      </trkpt>
      <trkpt lat="42.96825" lon="0.3217">
        <ele>1585.3</ele>
        <time>2026-07-07T07:12:21Z</time>
      </trkpt>
      <trkpt lat="42.96825" lon="0.3217">
        <ele>1585.3</ele>
        <time>2026-07-07T07:12:22Z</time>
      </trkpt>
      <trkpt lat="42.96825" lon="0.3217">
        <ele>1585.3</ele>
        <time>2026-07-07T07:12:23Z</time>
      </trkpt>
      <trkpt lat="42.96825" lon="0.32171">
        <ele>1585.3</ele>
        <time>2026-07-07T07:12:24Z</time>
      </trkpt>
      <trkpt lat="42.96825" lon="0.32171">
        <ele>1585.3</ele>
        <time>2026-07-07T07:12:25Z</time>
      </trkpt>
      <trkpt lat="42.96826" lon="0.32171">
        <ele>1585.3</ele>
        <time>2026-07-07T07:12:26Z</time>
      </trkpt>
      <trkpt lat="42.96826" lon="0.32171">
        <ele>1585.3</ele>
        <time>2026-07-07T07:12:27Z</time>
      </trkpt>
      <trkpt lat="42.96826" lon="0.32172">
        <ele>1585.3</ele>
        <time>2026-07-07T07:12:28Z</time>
      </trkpt>
      <trkpt lat="42.96826" lon="0.32172">
        <ele>1585.3</ele>
        <time>2026-07-07T07:12:29Z</time>
      </trkpt>
      <trkpt lat="42.96826" lon="0.32172">
        <ele>1585.3</ele>
        <time>2026-07-07T07:12:30Z</time>
      </trkpt>
      <trkpt lat="42.96826" lon="0.32173">
        <ele>1585.3</ele>
        <time>2026-07-07T07:12:31Z</time>
      </trkpt>
      <trkpt lat="42.96826" lon="0.32173">
        <ele>1585.3</ele>
        <time>2026-07-07T07:12:32Z</time>
      </trkpt>
      <trkpt lat="42.96826" lon="0.32173">
        <ele>1585.3</ele>
        <time>2026-07-07T07:12:33Z</time>
      </trkpt>
      <trkpt lat="42.96826" lon="0.32173">
        <ele>1585.3</ele>
        <time>2026-07-07T07:12:34Z</time>
      </trkpt>
      <trkpt lat="42.96826" lon="0.32173">
        <ele>1585.3</ele>
        <time>2026-07-07T07:12:35Z</time>
      </trkpt>
      <trkpt lat="42.96826" lon="0.32174">
        <ele>1585.3</ele>
        <time>2026-07-07T07:12:36Z</time>
      </trkpt>
      <trkpt lat="42.96826" lon="0.32174">
        <ele>1585.3</ele>
        <time>2026-07-07T07:12:37Z</time>
      </trkpt>
      <trkpt lat="42.96826" lon="0.32174">
        <ele>1585.3</ele>
        <time>2026-07-07T07:12:38Z</time>
      </trkpt>
      <trkpt lat="42.96826" lon="0.32174">
        <ele>1585.3</ele>
        <time>2026-07-07T07:12:39Z</time>
      </trkpt>
      <trkpt lat="42.96826" lon="0.32174">
        <ele>1585.3</ele>
        <time>2026-07-07T07:12:40Z</time>
      </trkpt>
      <trkpt lat="42.96826" lon="0.32174">
        <ele>1585.3</ele>
        <time>2026-07-07T07:12:41Z</time>
      </trkpt>
      <trkpt lat="42.96826" lon="0.32174">
        <ele>1585.3</ele>
        <time>2026-07-07T07:12:42Z</time>
      </trkpt>
      <trkpt lat="42.96826" lon="0.32174">
        <ele>1585.3</ele>
        <time>2026-07-07T07:12:43Z</time>
      </trkpt>
      <trkpt lat="42.96826" lon="0.32174">
        <ele>1585.3</ele>
        <time>2026-07-07T07:12:44Z</time>
      </trkpt>
      <trkpt lat="42.96826" lon="0.32175">
        <ele>1585.3</ele>
        <time>2026-07-07T07:12:45Z</time>
      </trkpt>
      <trkpt lat="42.96826" lon="0.32175">
        <ele>1585.3</ele>
        <time>2026-07-07T07:12:46Z</time>
      </trkpt>
      <trkpt lat="42.96826" lon="0.32175">
        <ele>1585.3</ele>
        <time>2026-07-07T07:12:47Z</time>
      </trkpt>
      <trkpt lat="42.96826" lon="0.32175">
        <ele>1585.3</ele>
        <time>2026-07-07T07:12:48Z</time>
      </trkpt>
      <trkpt lat="42.96826" lon="0.32175">
        <ele>1585.3</ele>
        <time>2026-07-07T07:12:49Z</time>
      </trkpt>
      <trkpt lat="42.96826" lon="0.32175">
        <ele>1585.3</ele>
        <time>2026-07-07T07:12:50Z</time>
      </trkpt>
      <trkpt lat="42.96826" lon="0.32175">
        <ele>1585.3</ele>
        <time>2026-07-07T07:12:51Z</time>
      </trkpt>
      <trkpt lat="42.96826" lon="0.32175">
        <ele>1585.3</ele>
        <time>2026-07-07T07:12:52Z</time>
      </trkpt>
      <trkpt lat="42.96826" lon="0.32175">
        <ele>1585.3</ele>
        <time>2026-07-07T07:12:53Z</time>
      </trkpt>
      <trkpt lat="42.96826" lon="0.32175">
        <ele>1585.3</ele>
        <time>2026-07-07T07:12:54Z</time>
      </trkpt>
      <trkpt lat="42.96826" lon="0.32175">
        <ele>1585.3</ele>
        <time>2026-07-07T07:12:55Z</time>
      </trkpt>
      <trkpt lat="42.96826" lon="0.32175">
        <ele>1585.3</ele>
        <time>2026-07-07T07:12:56Z</time>
      </trkpt>
      <trkpt lat="42.96826" lon="0.32175">
        <ele>1585.3</ele>
        <time>2026-07-07T07:12:57Z</time>
      </trkpt>
      <trkpt lat="42.96826" lon="0.32175">
        <ele>1585.3</ele>
        <time>2026-07-07T07:12:58Z</time>
      </trkpt>
      <trkpt lat="42.96826" lon="0.32175">
        <ele>1585.3</ele>
        <time>2026-07-07T07:12:59Z</time>
      </trkpt>
      <trkpt lat="42.96826" lon="0.32175">
        <ele>1585.3</ele>
        <time>2026-07-07T07:13:00Z</time>
      </trkpt>
      <trkpt lat="42.96826" lon="0.32175">
        <ele>1586.3</ele>
        <time>2026-07-07T07:13:01Z</time>
      </trkpt>
      <trkpt lat="42.96826" lon="0.32176">
        <ele>1586.3</ele>
        <time>2026-07-07T07:13:02Z</time>
      </trkpt>
      <trkpt lat="42.96826" lon="0.32176">
        <ele>1586.3</ele>
        <time>2026-07-07T07:13:03Z</time>
      </trkpt>
      <trkpt lat="42.96826" lon="0.32176">
        <ele>1586.3</ele>
        <time>2026-07-07T07:13:04Z</time>
      </trkpt>
      <trkpt lat="42.96826" lon="0.32176">
        <ele>1586.3</ele>
        <time>2026-07-07T07:13:05Z</time>
      </trkpt>
      <trkpt lat="42.96826" lon="0.32176">
        <ele>1586.3</ele>
        <time>2026-07-07T07:13:06Z</time>
      </trkpt>
      <trkpt lat="42.96827" lon="0.32176">
        <ele>1586.3</ele>
        <time>2026-07-07T07:13:07Z</time>
      </trkpt>
      <trkpt lat="42.96827" lon="0.32176">
        <ele>1586.3</ele>
        <time>2026-07-07T07:13:08Z</time>
      </trkpt>
      <trkpt lat="42.96827" lon="0.32176">
        <ele>1586.3</ele>
        <time>2026-07-07T07:13:09Z</time>
      </trkpt>
      <trkpt lat="42.96827" lon="0.32176">
        <ele>1586.3</ele>
        <time>2026-07-07T07:13:10Z</time>
      </trkpt>
      <trkpt lat="42.96827" lon="0.32176">
        <ele>1586.3</ele>
        <time>2026-07-07T07:13:11Z</time>
      </trkpt>
      <trkpt lat="42.96827" lon="0.32176">
        <ele>1586.3</ele>
        <time>2026-07-07T07:13:12Z</time>
      </trkpt>
      <trkpt lat="42.96827" lon="0.32176">
        <ele>1588.3</ele>
        <time>2026-07-07T07:13:13Z</time>
      </trkpt>
      <trkpt lat="42.96827" lon="0.32177">
        <ele>1589.3</ele>
        <time>2026-07-07T07:13:14Z</time>
      </trkpt>
      <trkpt lat="42.96827" lon="0.32177">
        <ele>1589.3</ele>
        <time>2026-07-07T07:13:15Z</time>
      </trkpt>
      <trkpt lat="42.96827" lon="0.32177">
        <ele>1589.3</ele>
        <time>2026-07-07T07:13:16Z</time>
      </trkpt>
      <trkpt lat="42.96827" lon="0.32178">
        <ele>1590.3</ele>
        <time>2026-07-07T07:13:17Z</time>
      </trkpt>
      <trkpt lat="42.96827" lon="0.32178">
        <ele>1590.3</ele>
        <time>2026-07-07T07:13:17Z</time>
      </trkpt>
      <trkpt lat="42.96827" lon="0.32178">
        <ele>1590.3</ele>
        <time>2026-07-07T07:13:18Z</time>
      </trkpt>
      <trkpt lat="42.96827" lon="0.32178">
        <ele>1590.3</ele>
        <time>2026-07-07T07:13:19Z</time>
      </trkpt>
      <trkpt lat="42.96827" lon="0.32179">
        <ele>1591.3</ele>
        <time>2026-07-07T07:13:19Z</time>
      </trkpt>
      <trkpt lat="42.96827" lon="0.3218">
        <ele>1591.3</ele>
        <time>2026-07-07T07:13:20Z</time>
      </trkpt>
      <trkpt lat="42.96827" lon="0.32182">
        <ele>1592.3</ele>
        <time>2026-07-07T07:13:21Z</time>
      </trkpt>
      <trkpt lat="42.96827" lon="0.32182">
        <ele>1592.3</ele>
        <time>2026-07-07T07:13:22Z</time>
      </trkpt>
      <trkpt lat="42.96827" lon="0.32182">
        <ele>1592.3</ele>
        <time>2026-07-07T07:13:23Z</time>
      </trkpt>
      <trkpt lat="42.96828" lon="0.32181">
        <ele>1592.3</ele>
        <time>2026-07-07T07:13:24Z</time>
      </trkpt>
      <trkpt lat="42.96828" lon="0.32182">
        <ele>1592.3</ele>
        <time>2026-07-07T07:13:25Z</time>
      </trkpt>
      <trkpt lat="42.96828" lon="0.32182">
        <ele>1592.3</ele>
        <time>2026-07-07T07:13:26Z</time>
      </trkpt>
      <trkpt lat="42.96828" lon="0.32182">
        <ele>1593.3</ele>
        <time>2026-07-07T07:13:26Z</time>
      </trkpt>
      <trkpt lat="42.96828" lon="0.32182">
        <ele>1593.3</ele>
        <time>2026-07-07T07:13:27Z</time>
      </trkpt>
      <trkpt lat="42.96828" lon="0.32182">
        <ele>1593.3</ele>
        <time>2026-07-07T07:13:28Z</time>
      </trkpt>
      <trkpt lat="42.96828" lon="0.32182">
        <ele>1593.3</ele>
        <time>2026-07-07T07:13:29Z</time>
      </trkpt>
      <trkpt lat="42.96828" lon="0.32183">
        <ele>1593.3</ele>
        <time>2026-07-07T07:13:29Z</time>
      </trkpt>
      <trkpt lat="42.96829" lon="0.32184">
        <ele>1593.3</ele>
        <time>2026-07-07T07:13:30Z</time>
      </trkpt>
      <trkpt lat="42.9683" lon="0.32185">
        <ele>1594.3</ele>
        <time>2026-07-07T07:13:31Z</time>
      </trkpt>
      <trkpt lat="42.9683" lon="0.32186">
        <ele>1594.3</ele>
        <time>2026-07-07T07:13:31Z</time>
      </trkpt>
      <trkpt lat="42.96831" lon="0.32187">
        <ele>1594.3</ele>
        <time>2026-07-07T07:13:32Z</time>
      </trkpt>
      <trkpt lat="42.96831" lon="0.32188">
        <ele>1594.3</ele>
        <time>2026-07-07T07:13:33Z</time>
      </trkpt>
      <trkpt lat="42.96831" lon="0.32189">
        <ele>1594.3</ele>
        <time>2026-07-07T07:13:34Z</time>
      </trkpt>
      <trkpt lat="42.96831" lon="0.3219">
        <ele>1594.3</ele>
        <time>2026-07-07T07:13:34Z</time>
      </trkpt>
      <trkpt lat="42.96832" lon="0.32191">
        <ele>1595.3</ele>
        <time>2026-07-07T07:13:35Z</time>
      </trkpt>
      <trkpt lat="42.96832" lon="0.32192">
        <ele>1595.3</ele>
        <time>2026-07-07T07:13:36Z</time>
      </trkpt>
      <trkpt lat="42.96832" lon="0.32192">
        <ele>1596.3</ele>
        <time>2026-07-07T07:13:36Z</time>
      </trkpt>
      <trkpt lat="42.96832" lon="0.32193">
        <ele>1596.3</ele>
        <time>2026-07-07T07:13:37Z</time>
      </trkpt>
      <trkpt lat="42.96833" lon="0.32194">
        <ele>1596.3</ele>
        <time>2026-07-07T07:13:38Z</time>
      </trkpt>
      <trkpt lat="42.96833" lon="0.32194">
        <ele>1596.3</ele>
        <time>2026-07-07T07:13:39Z</time>
      </trkpt>
      <trkpt lat="42.96833" lon="0.32195">
        <ele>1596.3</ele>
        <time>2026-07-07T07:13:39Z</time>
      </trkpt>
      <trkpt lat="42.96834" lon="0.32196">
        <ele>1596.3</ele>
        <time>2026-07-07T07:13:40Z</time>
      </trkpt>
      <trkpt lat="42.96834" lon="0.32196">
        <ele>1597.3</ele>
        <time>2026-07-07T07:13:41Z</time>
      </trkpt>
      <trkpt lat="42.96835" lon="0.32197">
        <ele>1596.3</ele>
        <time>2026-07-07T07:13:42Z</time>
      </trkpt>
      <trkpt lat="42.96835" lon="0.32197">
        <ele>1596.3</ele>
        <time>2026-07-07T07:13:42Z</time>
      </trkpt>
      <trkpt lat="42.96835" lon="0.32197">
        <ele>1597.3</ele>
        <time>2026-07-07T07:13:43Z</time>
      </trkpt>
      <trkpt lat="42.96836" lon="0.32198">
        <ele>1597.3</ele>
        <time>2026-07-07T07:13:44Z</time>
      </trkpt>
      <trkpt lat="42.96836" lon="0.32198">
        <ele>1596.3</ele>
        <time>2026-07-07T07:13:45Z</time>
      </trkpt>
      <trkpt lat="42.96837" lon="0.32199">
        <ele>1596.3</ele>
        <time>2026-07-07T07:13:45Z</time>
      </trkpt>
      <trkpt lat="42.96837" lon="0.32199">
        <ele>1596.3</ele>
        <time>2026-07-07T07:13:46Z</time>
      </trkpt>
      <trkpt lat="42.96838" lon="0.322">
        <ele>1597.3</ele>
        <time>2026-07-07T07:13:47Z</time>
      </trkpt>
      <trkpt lat="42.96838" lon="0.322">
        <ele>1597.3</ele>
        <time>2026-07-07T07:13:47Z</time>
      </trkpt>
      <trkpt lat="42.96838" lon="0.32201">
        <ele>1597.3</ele>
        <time>2026-07-07T07:13:48Z</time>
      </trkpt>
      <trkpt lat="42.96839" lon="0.32202">
        <ele>1597.3</ele>
        <time>2026-07-07T07:13:49Z</time>
      </trkpt>
      <trkpt lat="42.96839" lon="0.32202">
        <ele>1598.3</ele>
        <time>2026-07-07T07:13:50Z</time>
      </trkpt>
      <trkpt lat="42.96839" lon="0.32202">
        <ele>1598.3</ele>
        <time>2026-07-07T07:13:51Z</time>
      </trkpt>
      <trkpt lat="42.96839" lon="0.32203">
        <ele>1598.3</ele>
        <time>2026-07-07T07:13:51Z</time>
      </trkpt>
      <trkpt lat="42.96839" lon="0.32204">
        <ele>1598.3</ele>
        <time>2026-07-07T07:13:52Z</time>
      </trkpt>
      <trkpt lat="42.96839" lon="0.32204">
        <ele>1598.3</ele>
        <time>2026-07-07T07:13:53Z</time>
      </trkpt>
      <trkpt lat="42.96839" lon="0.32204">
        <ele>1598.3</ele>
        <time>2026-07-07T07:13:53Z</time>
      </trkpt>
      <trkpt lat="42.96839" lon="0.32204">
        <ele>1599.3</ele>
        <time>2026-07-07T07:13:54Z</time>
      </trkpt>
      <trkpt lat="42.9684" lon="0.32205">
        <ele>1599.3</ele>
        <time>2026-07-07T07:13:55Z</time>
      </trkpt>
      <trkpt lat="42.9684" lon="0.32206">
        <ele>1599.3</ele>
        <time>2026-07-07T07:13:56Z</time>
      </trkpt>
      <trkpt lat="42.9684" lon="0.32206">
        <ele>1600.3</ele>
        <time>2026-07-07T07:13:57Z</time>
      </trkpt>
      <trkpt lat="42.9684" lon="0.32207">
        <ele>1601.3</ele>
        <time>2026-07-07T07:13:57Z</time>
      </trkpt>
      <trkpt lat="42.96841" lon="0.32207">
        <ele>1601.3</ele>
        <time>2026-07-07T07:13:58Z</time>
      </trkpt>
      <trkpt lat="42.96841" lon="0.32208">
        <ele>1601.3</ele>
        <time>2026-07-07T07:13:59Z</time>
      </trkpt>
      <trkpt lat="42.96841" lon="0.32209">
        <ele>1601.3</ele>
        <time>2026-07-07T07:14:00Z</time>
      </trkpt>
      <trkpt lat="42.96842" lon="0.32209">
        <ele>1601.3</ele>
        <time>2026-07-07T07:14:01Z</time>
      </trkpt>
      <trkpt lat="42.96842" lon="0.3221">
        <ele>1601.3</ele>
        <time>2026-07-07T07:14:01Z</time>
      </trkpt>
      <trkpt lat="42.96842" lon="0.32211">
        <ele>1601.3</ele>
        <time>2026-07-07T07:14:02Z</time>
      </trkpt>
      <trkpt lat="42.96842" lon="0.32211">
        <ele>1602.3</ele>
        <time>2026-07-07T07:14:03Z</time>
      </trkpt>
      <trkpt lat="42.96843" lon="0.32211">
        <ele>1602.3</ele>
        <time>2026-07-07T07:14:03Z</time>
      </trkpt>
      <trkpt lat="42.96843" lon="0.32212">
        <ele>1602.3</ele>
        <time>2026-07-07T07:14:04Z</time>
      </trkpt>
      <trkpt lat="42.96843" lon="0.32213">
        <ele>1602.3</ele>
        <time>2026-07-07T07:14:05Z</time>
      </trkpt>
      <trkpt lat="42.96844" lon="0.32213">
        <ele>1602.3</ele>
        <time>2026-07-07T07:14:06Z</time>
      </trkpt>
      <trkpt lat="42.96844" lon="0.32214">
        <ele>1602.3</ele>
        <time>2026-07-07T07:14:07Z</time>
      </trkpt>
      <trkpt lat="42.96844" lon="0.32214">
        <ele>1602.3</ele>
        <time>2026-07-07T07:14:07Z</time>
      </trkpt>
      <trkpt lat="42.96845" lon="0.32215">
        <ele>1602.3</ele>
        <time>2026-07-07T07:14:08Z</time>
      </trkpt>
      <trkpt lat="42.96845" lon="0.32216">
        <ele>1603.3</ele>
        <time>2026-07-07T07:14:09Z</time>
      </trkpt>
      <trkpt lat="42.96846" lon="0.32216">
        <ele>1603.3</ele>
        <time>2026-07-07T07:14:10Z</time>
      </trkpt>
      <trkpt lat="42.96846" lon="0.32216">
        <ele>1603.3</ele>
        <time>2026-07-07T07:14:10Z</time>
      </trkpt>
      <trkpt lat="42.96846" lon="0.32217">
        <ele>1603.3</ele>
        <time>2026-07-07T07:14:11Z</time>
      </trkpt>
      <trkpt lat="42.96846" lon="0.32217">
        <ele>1603.3</ele>
        <time>2026-07-07T07:14:12Z</time>
      </trkpt>
      <trkpt lat="42.96846" lon="0.32218">
        <ele>1602.3</ele>
        <time>2026-07-07T07:14:12Z</time>
      </trkpt>
      <trkpt lat="42.96846" lon="0.32218">
        <ele>1602.3</ele>
        <time>2026-07-07T07:14:13Z</time>
      </trkpt>
      <trkpt lat="42.96847" lon="0.32219">
        <ele>1603.3</ele>
        <time>2026-07-07T07:14:14Z</time>
      </trkpt>
      <trkpt lat="42.96847" lon="0.32219">
        <ele>1603.3</ele>
        <time>2026-07-07T07:14:15Z</time>
      </trkpt>
      <trkpt lat="42.96847" lon="0.3222">
        <ele>1603.3</ele>
        <time>2026-07-07T07:14:16Z</time>
      </trkpt>
      <trkpt lat="42.96848" lon="0.32219">
        <ele>1603.3</ele>
        <time>2026-07-07T07:14:16Z</time>
      </trkpt>
      <trkpt lat="42.96848" lon="0.32219">
        <ele>1603.3</ele>
        <time>2026-07-07T07:14:17Z</time>
      </trkpt>
      <trkpt lat="42.96849" lon="0.32219">
        <ele>1603.3</ele>
        <time>2026-07-07T07:14:18Z</time>
      </trkpt>
      <trkpt lat="42.96849" lon="0.3222">
        <ele>1603.3</ele>
        <time>2026-07-07T07:14:19Z</time>
      </trkpt>
      <trkpt lat="42.9685" lon="0.3222">
        <ele>1603.3</ele>
        <time>2026-07-07T07:14:20Z</time>
      </trkpt>
      <trkpt lat="42.9685" lon="0.3222">
        <ele>1604.3</ele>
        <time>2026-07-07T07:14:21Z</time>
      </trkpt>
      <trkpt lat="42.9685" lon="0.3222">
        <ele>1604.3</ele>
        <time>2026-07-07T07:14:21Z</time>
      </trkpt>
      <trkpt lat="42.96851" lon="0.32221">
        <ele>1604.3</ele>
        <time>2026-07-07T07:14:22Z</time>
      </trkpt>
      <trkpt lat="42.96851" lon="0.32221">
        <ele>1604.3</ele>
        <time>2026-07-07T07:14:23Z</time>
      </trkpt>
      <trkpt lat="42.96852" lon="0.32222">
        <ele>1605.3</ele>
        <time>2026-07-07T07:14:24Z</time>
      </trkpt>
      <trkpt lat="42.96852" lon="0.32222">
        <ele>1605.3</ele>
        <time>2026-07-07T07:14:25Z</time>
      </trkpt>
      <trkpt lat="42.96852" lon="0.32222">
        <ele>1605.3</ele>
        <time>2026-07-07T07:14:26Z</time>
      </trkpt>
      <trkpt lat="42.96852" lon="0.32221">
        <ele>1605.3</ele>
        <time>2026-07-07T07:14:26Z</time>
      </trkpt>
      <trkpt lat="42.96852" lon="0.32222">
        <ele>1607.3</ele>
        <time>2026-07-07T07:14:27Z</time>
      </trkpt>
      <trkpt lat="42.96853" lon="0.32222">
        <ele>1607.3</ele>
        <time>2026-07-07T07:14:28Z</time>
      </trkpt>
      <trkpt lat="42.96853" lon="0.32223">
        <ele>1607.3</ele>
        <time>2026-07-07T07:14:29Z</time>
      </trkpt>
      <trkpt lat="42.96854" lon="0.32223">
        <ele>1607.3</ele>
        <time>2026-07-07T07:14:30Z</time>
      </trkpt>
      <trkpt lat="42.96854" lon="0.32223">
        <ele>1608.3</ele>
        <time>2026-07-07T07:14:31Z</time>
      </trkpt>
      <trkpt lat="42.96855" lon="0.32223">
        <ele>1608.3</ele>
        <time>2026-07-07T07:14:31Z</time>
      </trkpt>
      <trkpt lat="42.96855" lon="0.32223">
        <ele>1608.3</ele>
        <time>2026-07-07T07:14:32Z</time>
      </trkpt>
      <trkpt lat="42.96856" lon="0.32224">
        <ele>1607.3</ele>
        <time>2026-07-07T07:14:32Z</time>
      </trkpt>
      <trkpt lat="42.96856" lon="0.32224">
        <ele>1608.3</ele>
        <time>2026-07-07T07:14:33Z</time>
      </trkpt>
      <trkpt lat="42.96857" lon="0.32224">
        <ele>1608.3</ele>
        <time>2026-07-07T07:14:34Z</time>
      </trkpt>
      <trkpt lat="42.96857" lon="0.32225">
        <ele>1607.3</ele>
        <time>2026-07-07T07:14:35Z</time>
      </trkpt>
      <trkpt lat="42.96858" lon="0.32225">
        <ele>1607.3</ele>
        <time>2026-07-07T07:14:36Z</time>
      </trkpt>
      <trkpt lat="42.96858" lon="0.32225">
        <ele>1608.3</ele>
        <time>2026-07-07T07:14:37Z</time>
      </trkpt>
      <trkpt lat="42.96859" lon="0.32225">
        <ele>1608.3</ele>
        <time>2026-07-07T07:14:37Z</time>
      </trkpt>
      <trkpt lat="42.96859" lon="0.32225">
        <ele>1608.3</ele>
        <time>2026-07-07T07:14:38Z</time>
      </trkpt>
      <trkpt lat="42.9686" lon="0.32225">
        <ele>1608.3</ele>
        <time>2026-07-07T07:14:39Z</time>
      </trkpt>
      <trkpt lat="42.96861" lon="0.32225">
        <ele>1608.3</ele>
        <time>2026-07-07T07:14:40Z</time>
      </trkpt>
      <trkpt lat="42.96861" lon="0.32225">
        <ele>1607.3</ele>
        <time>2026-07-07T07:14:41Z</time>
      </trkpt>
      <trkpt lat="42.96862" lon="0.32225">
        <ele>1607.3</ele>
        <time>2026-07-07T07:14:42Z</time>
      </trkpt>
      <trkpt lat="42.96862" lon="0.32225">
        <ele>1608.3</ele>
        <time>2026-07-07T07:14:43Z</time>
      </trkpt>
      <trkpt lat="42.96863" lon="0.32225">
        <ele>1608.3</ele>
        <time>2026-07-07T07:14:43Z</time>
      </trkpt>
      <trkpt lat="42.96863" lon="0.32226">
        <ele>1608.3</ele>
        <time>2026-07-07T07:14:44Z</time>
      </trkpt>
      <trkpt lat="42.96863" lon="0.32226">
        <ele>1608.3</ele>
        <time>2026-07-07T07:14:45Z</time>
      </trkpt>
      <trkpt lat="42.96864" lon="0.32227">
        <ele>1608.3</ele>
        <time>2026-07-07T07:14:46Z</time>
      </trkpt>
      <trkpt lat="42.96864" lon="0.32227">
        <ele>1608.3</ele>
        <time>2026-07-07T07:14:47Z</time>
      </trkpt>
      <trkpt lat="42.96864" lon="0.32227">
        <ele>1608.3</ele>
        <time>2026-07-07T07:14:47Z</time>
      </trkpt>
      <trkpt lat="42.96865" lon="0.32227">
        <ele>1608.3</ele>
        <time>2026-07-07T07:14:48Z</time>
      </trkpt>
      <trkpt lat="42.96865" lon="0.32227">
        <ele>1608.3</ele>
        <time>2026-07-07T07:14:49Z</time>
      </trkpt>
      <trkpt lat="42.96866" lon="0.32227">
        <ele>1609.3</ele>
        <time>2026-07-07T07:14:50Z</time>
      </trkpt>
      <trkpt lat="42.96866" lon="0.32226">
        <ele>1608.3</ele>
        <time>2026-07-07T07:14:51Z</time>
      </trkpt>
      <trkpt lat="42.96865" lon="0.32226">
        <ele>1608.3</ele>
        <time>2026-07-07T07:14:52Z</time>
      </trkpt>
      <trkpt lat="42.96865" lon="0.32226">
        <ele>1608.3</ele>
        <time>2026-07-07T07:14:52Z</time>
      </trkpt>
      <trkpt lat="42.96865" lon="0.32226">
        <ele>1608.3</ele>
        <time>2026-07-07T07:14:53Z</time>
      </trkpt>
      <trkpt lat="42.96864" lon="0.32226">
        <ele>1608.3</ele>
        <time>2026-07-07T07:14:54Z</time>
      </trkpt>
      <trkpt lat="42.96864" lon="0.32226">
        <ele>1608.3</ele>
        <time>2026-07-07T07:14:55Z</time>
      </trkpt>
      <trkpt lat="42.96864" lon="0.32226">
        <ele>1608.3</ele>
        <time>2026-07-07T07:14:56Z</time>
      </trkpt>
      <trkpt lat="42.96864" lon="0.32226">
        <ele>1607.3</ele>
        <time>2026-07-07T07:14:57Z</time>
      </trkpt>
      <trkpt lat="42.96864" lon="0.32226">
        <ele>1607.3</ele>
        <time>2026-07-07T07:14:58Z</time>
      </trkpt>
      <trkpt lat="42.96864" lon="0.32226">
        <ele>1607.3</ele>
        <time>2026-07-07T07:14:59Z</time>
      </trkpt>
      <trkpt lat="42.96864" lon="0.32226">
        <ele>1607.3</ele>
        <time>2026-07-07T07:15:00Z</time>
      </trkpt>
      <trkpt lat="42.96864" lon="0.32226">
        <ele>1607.3</ele>
        <time>2026-07-07T07:15:01Z</time>
      </trkpt>
      <trkpt lat="42.96864" lon="0.32226">
        <ele>1607.3</ele>
        <time>2026-07-07T07:15:02Z</time>
      </trkpt>
      <trkpt lat="42.96864" lon="0.32227">
        <ele>1608.3</ele>
        <time>2026-07-07T07:15:03Z</time>
      </trkpt>
      <trkpt lat="42.96864" lon="0.32227">
        <ele>1608.3</ele>
        <time>2026-07-07T07:15:04Z</time>
      </trkpt>
      <trkpt lat="42.96864" lon="0.32227">
        <ele>1608.3</ele>
        <time>2026-07-07T07:15:05Z</time>
      </trkpt>
      <trkpt lat="42.96865" lon="0.32227">
        <ele>1607.3</ele>
        <time>2026-07-07T07:15:06Z</time>
      </trkpt>
      <trkpt lat="42.96865" lon="0.32227">
        <ele>1607.3</ele>
        <time>2026-07-07T07:15:07Z</time>
      </trkpt>
      <trkpt lat="42.96865" lon="0.32226">
        <ele>1607.3</ele>
        <time>2026-07-07T07:15:08Z</time>
      </trkpt>
      <trkpt lat="42.96865" lon="0.32226">
        <ele>1607.3</ele>
        <time>2026-07-07T07:15:09Z</time>
      </trkpt>
      <trkpt lat="42.96865" lon="0.32225">
        <ele>1606.3</ele>
        <time>2026-07-07T07:15:10Z</time>
      </trkpt>
      <trkpt lat="42.96865" lon="0.32225">
        <ele>1606.3</ele>
        <time>2026-07-07T07:15:10Z</time>
      </trkpt>
      <trkpt lat="42.96865" lon="0.32225">
        <ele>1606.3</ele>
        <time>2026-07-07T07:15:11Z</time>
      </trkpt>
      <trkpt lat="42.96865" lon="0.32224">
        <ele>1607.3</ele>
        <time>2026-07-07T07:15:12Z</time>
      </trkpt>
      <trkpt lat="42.96865" lon="0.32224">
        <ele>1606.3</ele>
        <time>2026-07-07T07:15:13Z</time>
      </trkpt>
      <trkpt lat="42.96866" lon="0.32223">
        <ele>1606.3</ele>
        <time>2026-07-07T07:15:14Z</time>
      </trkpt>
      <trkpt lat="42.96866" lon="0.32222">
        <ele>1607.3</ele>
        <time>2026-07-07T07:15:15Z</time>
      </trkpt>
      <trkpt lat="42.96866" lon="0.32222">
        <ele>1607.3</ele>
        <time>2026-07-07T07:15:16Z</time>
      </trkpt>
      <trkpt lat="42.96866" lon="0.32221">
        <ele>1607.3</ele>
        <time>2026-07-07T07:15:17Z</time>
      </trkpt>
      <trkpt lat="42.96866" lon="0.32221">
        <ele>1608.3</ele>
        <time>2026-07-07T07:15:18Z</time>
      </trkpt>
      <trkpt lat="42.96867" lon="0.32221">
        <ele>1609.3</ele>
        <time>2026-07-07T07:15:19Z</time>
      </trkpt>
      <trkpt lat="42.96867" lon="0.3222">
        <ele>1609.3</ele>
        <time>2026-07-07T07:15:20Z</time>
      </trkpt>
      <trkpt lat="42.96867" lon="0.32221">
        <ele>1608.3</ele>
        <time>2026-07-07T07:15:20Z</time>
      </trkpt>
      <trkpt lat="42.96868" lon="0.32221">
        <ele>1609.3</ele>
        <time>2026-07-07T07:15:21Z</time>
      </trkpt>
      <trkpt lat="42.96869" lon="0.32222">
        <ele>1609.3</ele>
        <time>2026-07-07T07:15:22Z</time>
      </trkpt>
      <trkpt lat="42.96869" lon="0.32223">
        <ele>1609.3</ele>
        <time>2026-07-07T07:15:23Z</time>
      </trkpt>
      <trkpt lat="42.96869" lon="0.32223">
        <ele>1609.3</ele>
        <time>2026-07-07T07:15:24Z</time>
      </trkpt>
      <trkpt lat="42.9687" lon="0.32224">
        <ele>1609.3</ele>
        <time>2026-07-07T07:15:25Z</time>
      </trkpt>
      <trkpt lat="42.9687" lon="0.32225">
        <ele>1609.3</ele>
        <time>2026-07-07T07:15:26Z</time>
      </trkpt>
      <trkpt lat="42.9687" lon="0.32225">
        <ele>1609.3</ele>
        <time>2026-07-07T07:15:27Z</time>
      </trkpt>
      <trkpt lat="42.9687" lon="0.32226">
        <ele>1609.3</ele>
        <time>2026-07-07T07:15:28Z</time>
      </trkpt>
      <trkpt lat="42.9687" lon="0.32226">
        <ele>1609.3</ele>
        <time>2026-07-07T07:15:28Z</time>
      </trkpt>
      <trkpt lat="42.9687" lon="0.32226">
        <ele>1609.3</ele>
        <time>2026-07-07T07:15:29Z</time>
      </trkpt>
      <trkpt lat="42.9687" lon="0.32226">
        <ele>1609.3</ele>
        <time>2026-07-07T07:15:30Z</time>
      </trkpt>
      <trkpt lat="42.9687" lon="0.32227">
        <ele>1610.3</ele>
        <time>2026-07-07T07:15:31Z</time>
      </trkpt>
      <trkpt lat="42.9687" lon="0.32228">
        <ele>1610.3</ele>
        <time>2026-07-07T07:15:32Z</time>
      </trkpt>
      <trkpt lat="42.9687" lon="0.32228">
        <ele>1611.3</ele>
        <time>2026-07-07T07:15:33Z</time>
      </trkpt>
      <trkpt lat="42.9687" lon="0.32228">
        <ele>1611.3</ele>
        <time>2026-07-07T07:15:34Z</time>
      </trkpt>
      <trkpt lat="42.9687" lon="0.32228">
        <ele>1610.3</ele>
        <time>2026-07-07T07:15:34Z</time>
      </trkpt>
      <trkpt lat="42.9687" lon="0.32228">
        <ele>1610.3</ele>
        <time>2026-07-07T07:15:35Z</time>
      </trkpt>
      <trkpt lat="42.96871" lon="0.32229">
        <ele>1611.3</ele>
        <time>2026-07-07T07:15:36Z</time>
      </trkpt>
      <trkpt lat="42.96871" lon="0.32229">
        <ele>1611.3</ele>
        <time>2026-07-07T07:15:37Z</time>
      </trkpt>
      <trkpt lat="42.96871" lon="0.3223">
        <ele>1611.3</ele>
        <time>2026-07-07T07:15:38Z</time>
      </trkpt>
      <trkpt lat="42.96871" lon="0.3223">
        <ele>1611.3</ele>
        <time>2026-07-07T07:15:38Z</time>
      </trkpt>
      <trkpt lat="42.96871" lon="0.32231">
        <ele>1611.3</ele>
        <time>2026-07-07T07:15:39Z</time>
      </trkpt>
      <trkpt lat="42.96871" lon="0.32231">
        <ele>1611.3</ele>
        <time>2026-07-07T07:15:40Z</time>
      </trkpt>
      <trkpt lat="42.96871" lon="0.32231">
        <ele>1611.3</ele>
        <time>2026-07-07T07:15:41Z</time>
      </trkpt>
      <trkpt lat="42.96871" lon="0.32232">
        <ele>1612.3</ele>
        <time>2026-07-07T07:15:41Z</time>
      </trkpt>
      <trkpt lat="42.96871" lon="0.32233">
        <ele>1612.3</ele>
        <time>2026-07-07T07:15:42Z</time>
      </trkpt>
      <trkpt lat="42.96872" lon="0.32233">
        <ele>1613.3</ele>
        <time>2026-07-07T07:15:43Z</time>
      </trkpt>
      <trkpt lat="42.96872" lon="0.32234">
        <ele>1613.3</ele>
        <time>2026-07-07T07:15:44Z</time>
      </trkpt>
      <trkpt lat="42.96872" lon="0.32234">
        <ele>1613.3</ele>
        <time>2026-07-07T07:15:45Z</time>
      </trkpt>
      <trkpt lat="42.96873" lon="0.32234">
        <ele>1614.3</ele>
        <time>2026-07-07T07:15:46Z</time>
      </trkpt>
      <trkpt lat="42.96873" lon="0.32234">
        <ele>1614.3</ele>
        <time>2026-07-07T07:15:46Z</time>
      </trkpt>
      <trkpt lat="42.96873" lon="0.32235">
        <ele>1614.3</ele>
        <time>2026-07-07T07:15:47Z</time>
      </trkpt>
      <trkpt lat="42.96873" lon="0.32236">
        <ele>1614.3</ele>
        <time>2026-07-07T07:15:48Z</time>
      </trkpt>
      <trkpt lat="42.96874" lon="0.32236">
        <ele>1614.3</ele>
        <time>2026-07-07T07:15:49Z</time>
      </trkpt>
      <trkpt lat="42.96874" lon="0.32237">
        <ele>1615.3</ele>
        <time>2026-07-07T07:15:50Z</time>
      </trkpt>
      <trkpt lat="42.96874" lon="0.32237">
        <ele>1615.3</ele>
        <time>2026-07-07T07:15:51Z</time>
      </trkpt>
      <trkpt lat="42.96875" lon="0.32238">
        <ele>1615.3</ele>
        <time>2026-07-07T07:15:52Z</time>
      </trkpt>
      <trkpt lat="42.96875" lon="0.32238">
        <ele>1615.3</ele>
        <time>2026-07-07T07:15:52Z</time>
      </trkpt>
      <trkpt lat="42.96875" lon="0.32238">
        <ele>1615.3</ele>
        <time>2026-07-07T07:15:53Z</time>
      </trkpt>
      <trkpt lat="42.96875" lon="0.32238">
        <ele>1615.3</ele>
        <time>2026-07-07T07:15:54Z</time>
      </trkpt>
      <trkpt lat="42.96876" lon="0.32238">
        <ele>1616.3</ele>
        <time>2026-07-07T07:15:55Z</time>
      </trkpt>
      <trkpt lat="42.96876" lon="0.32238">
        <ele>1617.3</ele>
        <time>2026-07-07T07:15:56Z</time>
      </trkpt>
      <trkpt lat="42.96877" lon="0.32238">
        <ele>1616.3</ele>
        <time>2026-07-07T07:15:56Z</time>
      </trkpt>
      <trkpt lat="42.96877" lon="0.32238">
        <ele>1616.3</ele>
        <time>2026-07-07T07:15:57Z</time>
      </trkpt>
      <trkpt lat="42.96878" lon="0.32238">
        <ele>1616.3</ele>
        <time>2026-07-07T07:15:58Z</time>
      </trkpt>
      <trkpt lat="42.96879" lon="0.32238">
        <ele>1617.3</ele>
        <time>2026-07-07T07:15:59Z</time>
      </trkpt>
      <trkpt lat="42.96879" lon="0.32239">
        <ele>1617.3</ele>
        <time>2026-07-07T07:16:00Z</time>
      </trkpt>
      <trkpt lat="42.9688" lon="0.32239">
        <ele>1618.3</ele>
        <time>2026-07-07T07:16:01Z</time>
      </trkpt>
      <trkpt lat="42.9688" lon="0.3224">
        <ele>1618.3</ele>
        <time>2026-07-07T07:16:01Z</time>
      </trkpt>
      <trkpt lat="42.9688" lon="0.3224">
        <ele>1618.3</ele>
        <time>2026-07-07T07:16:02Z</time>
      </trkpt>
      <trkpt lat="42.96881" lon="0.3224">
        <ele>1618.3</ele>
        <time>2026-07-07T07:16:03Z</time>
      </trkpt>
      <trkpt lat="42.96881" lon="0.3224">
        <ele>1618.3</ele>
        <time>2026-07-07T07:16:04Z</time>
      </trkpt>
      <trkpt lat="42.96881" lon="0.3224">
        <ele>1619.3</ele>
        <time>2026-07-07T07:16:05Z</time>
      </trkpt>
      <trkpt lat="42.96881" lon="0.3224">
        <ele>1619.3</ele>
        <time>2026-07-07T07:16:06Z</time>
      </trkpt>
      <trkpt lat="42.96882" lon="0.32241">
        <ele>1620.3</ele>
        <time>2026-07-07T07:16:07Z</time>
      </trkpt>
      <trkpt lat="42.96882" lon="0.32241">
        <ele>1620.3</ele>
        <time>2026-07-07T07:16:08Z</time>
      </trkpt>
      <trkpt lat="42.96882" lon="0.32241">
        <ele>1620.3</ele>
        <time>2026-07-07T07:16:08Z</time>
      </trkpt>
      <trkpt lat="42.96883" lon="0.32241">
        <ele>1620.3</ele>
        <time>2026-07-07T07:16:09Z</time>
      </trkpt>
      <trkpt lat="42.96883" lon="0.32242">
        <ele>1620.3</ele>
        <time>2026-07-07T07:16:10Z</time>
      </trkpt>
      <trkpt lat="42.96883" lon="0.32242">
        <ele>1620.3</ele>
        <time>2026-07-07T07:16:11Z</time>
      </trkpt>
      <trkpt lat="42.96883" lon="0.32242">
        <ele>1620.3</ele>
        <time>2026-07-07T07:16:11Z</time>
      </trkpt>
      <trkpt lat="42.96882" lon="0.32242">
        <ele>1620.3</ele>
        <time>2026-07-07T07:16:12Z</time>
      </trkpt>
      <trkpt lat="42.96883" lon="0.32242">
        <ele>1620.3</ele>
        <time>2026-07-07T07:16:13Z</time>
      </trkpt>
      <trkpt lat="42.96883" lon="0.32242">
        <ele>1620.3</ele>
        <time>2026-07-07T07:16:14Z</time>
      </trkpt>
      <trkpt lat="42.96883" lon="0.32243">
        <ele>1621.3</ele>
        <time>2026-07-07T07:16:15Z</time>
      </trkpt>
      <trkpt lat="42.96883" lon="0.32243">
        <ele>1622.3</ele>
        <time>2026-07-07T07:16:16Z</time>
      </trkpt>
      <trkpt lat="42.96883" lon="0.32243">
        <ele>1623.3</ele>
        <time>2026-07-07T07:16:16Z</time>
      </trkpt>
      <trkpt lat="42.96884" lon="0.32244">
        <ele>1623.3</ele>
        <time>2026-07-07T07:16:17Z</time>
      </trkpt>
      <trkpt lat="42.96884" lon="0.32244">
        <ele>1624.3</ele>
        <time>2026-07-07T07:16:18Z</time>
      </trkpt>
      <trkpt lat="42.96884" lon="0.32244">
        <ele>1624.3</ele>
        <time>2026-07-07T07:16:19Z</time>
      </trkpt>
      <trkpt lat="42.96885" lon="0.32244">
        <ele>1624.3</ele>
        <time>2026-07-07T07:16:19Z</time>
      </trkpt>
      <trkpt lat="42.96885" lon="0.32245">
        <ele>1624.3</ele>
        <time>2026-07-07T07:16:20Z</time>
      </trkpt>
      <trkpt lat="42.96885" lon="0.32245">
        <ele>1624.3</ele>
        <time>2026-07-07T07:16:21Z</time>
      </trkpt>
      <trkpt lat="42.96885" lon="0.32246">
        <ele>1624.3</ele>
        <time>2026-07-07T07:16:22Z</time>
      </trkpt>
      <trkpt lat="42.96885" lon="0.32247">
        <ele>1624.3</ele>
        <time>2026-07-07T07:16:23Z</time>
      </trkpt>
      <trkpt lat="42.96885" lon="0.32247">
        <ele>1624.3</ele>
        <time>2026-07-07T07:16:23Z</time>
      </trkpt>
      <trkpt lat="42.96886" lon="0.32248">
        <ele>1623.3</ele>
        <time>2026-07-07T07:16:24Z</time>
      </trkpt>
      <trkpt lat="42.96886" lon="0.32249">
        <ele>1624.3</ele>
        <time>2026-07-07T07:16:25Z</time>
      </trkpt>
      <trkpt lat="42.96886" lon="0.32249">
        <ele>1624.3</ele>
        <time>2026-07-07T07:16:26Z</time>
      </trkpt>
      <trkpt lat="42.96887" lon="0.3225">
        <ele>1623.3</ele>
        <time>2026-07-07T07:16:27Z</time>
      </trkpt>
      <trkpt lat="42.96887" lon="0.3225">
        <ele>1624.3</ele>
        <time>2026-07-07T07:16:27Z</time>
      </trkpt>
      <trkpt lat="42.96887" lon="0.3225">
        <ele>1624.3</ele>
        <time>2026-07-07T07:16:28Z</time>
      </trkpt>
      <trkpt lat="42.96888" lon="0.3225">
        <ele>1624.3</ele>
        <time>2026-07-07T07:16:29Z</time>
      </trkpt>
      <trkpt lat="42.96888" lon="0.3225">
        <ele>1624.3</ele>
        <time>2026-07-07T07:16:30Z</time>
      </trkpt>
      <trkpt lat="42.96889" lon="0.3225">
        <ele>1624.3</ele>
        <time>2026-07-07T07:16:31Z</time>
      </trkpt>
      <trkpt lat="42.96889" lon="0.3225">
        <ele>1625.3</ele>
        <time>2026-07-07T07:16:31Z</time>
      </trkpt>
      <trkpt lat="42.9689" lon="0.32251">
        <ele>1625.3</ele>
        <time>2026-07-07T07:16:32Z</time>
      </trkpt>
      <trkpt lat="42.96891" lon="0.32251">
        <ele>1625.3</ele>
        <time>2026-07-07T07:16:33Z</time>
      </trkpt>
      <trkpt lat="42.96891" lon="0.32252">
        <ele>1625.3</ele>
        <time>2026-07-07T07:16:34Z</time>
      </trkpt>
      <trkpt lat="42.96891" lon="0.32252">
        <ele>1625.3</ele>
        <time>2026-07-07T07:16:35Z</time>
      </trkpt>
      <trkpt lat="42.96892" lon="0.32253">
        <ele>1625.3</ele>
        <time>2026-07-07T07:16:36Z</time>
      </trkpt>
      <trkpt lat="42.96892" lon="0.32253">
        <ele>1625.3</ele>
        <time>2026-07-07T07:16:36Z</time>
      </trkpt>
      <trkpt lat="42.96892" lon="0.32253">
        <ele>1625.3</ele>
        <time>2026-07-07T07:16:37Z</time>
      </trkpt>
      <trkpt lat="42.96893" lon="0.32253">
        <ele>1625.3</ele>
        <time>2026-07-07T07:16:38Z</time>
      </trkpt>
      <trkpt lat="42.96893" lon="0.32254">
        <ele>1625.3</ele>
        <time>2026-07-07T07:16:39Z</time>
      </trkpt>
      <trkpt lat="42.96893" lon="0.32254">
        <ele>1625.3</ele>
        <time>2026-07-07T07:16:40Z</time>
      </trkpt>
      <trkpt lat="42.96893" lon="0.32254">
        <ele>1625.3</ele>
        <time>2026-07-07T07:16:40Z</time>
      </trkpt>
      <trkpt lat="42.96893" lon="0.32254">
        <ele>1625.3</ele>
        <time>2026-07-07T07:16:41Z</time>
      </trkpt>
      <trkpt lat="42.96892" lon="0.32254">
        <ele>1626.3</ele>
        <time>2026-07-07T07:16:42Z</time>
      </trkpt>
      <trkpt lat="42.96892" lon="0.32253">
        <ele>1626.3</ele>
        <time>2026-07-07T07:16:43Z</time>
      </trkpt>
      <trkpt lat="42.96892" lon="0.32253">
        <ele>1625.3</ele>
        <time>2026-07-07T07:16:44Z</time>
      </trkpt>
      <trkpt lat="42.96893" lon="0.32253">
        <ele>1625.3</ele>
        <time>2026-07-07T07:16:45Z</time>
      </trkpt>
      <trkpt lat="42.96893" lon="0.32253">
        <ele>1625.3</ele>
        <time>2026-07-07T07:16:46Z</time>
      </trkpt>
      <trkpt lat="42.96893" lon="0.32253">
        <ele>1625.3</ele>
        <time>2026-07-07T07:16:47Z</time>
      </trkpt>
      <trkpt lat="42.96893" lon="0.32253">
        <ele>1625.3</ele>
        <time>2026-07-07T07:16:48Z</time>
      </trkpt>
      <trkpt lat="42.96893" lon="0.32253">
        <ele>1625.3</ele>
        <time>2026-07-07T07:16:49Z</time>
      </trkpt>
      <trkpt lat="42.96893" lon="0.32253">
        <ele>1625.3</ele>
        <time>2026-07-07T07:16:50Z</time>
      </trkpt>
      <trkpt lat="42.96893" lon="0.32253">
        <ele>1625.3</ele>
        <time>2026-07-07T07:16:51Z</time>
      </trkpt>
      <trkpt lat="42.96893" lon="0.32253">
        <ele>1625.3</ele>
        <time>2026-07-07T07:16:52Z</time>
      </trkpt>
      <trkpt lat="42.96893" lon="0.32253">
        <ele>1625.3</ele>
        <time>2026-07-07T07:16:53Z</time>
      </trkpt>
      <trkpt lat="42.96893" lon="0.32253">
        <ele>1625.3</ele>
        <time>2026-07-07T07:16:54Z</time>
      </trkpt>
      <trkpt lat="42.96893" lon="0.32253">
        <ele>1625.3</ele>
        <time>2026-07-07T07:16:55Z</time>
      </trkpt>
      <trkpt lat="42.96893" lon="0.32253">
        <ele>1625.3</ele>
        <time>2026-07-07T07:16:56Z</time>
      </trkpt>
      <trkpt lat="42.96893" lon="0.32252">
        <ele>1625.3</ele>
        <time>2026-07-07T07:16:57Z</time>
      </trkpt>
      <trkpt lat="42.96893" lon="0.32252">
        <ele>1625.3</ele>
        <time>2026-07-07T07:16:58Z</time>
      </trkpt>
      <trkpt lat="42.96893" lon="0.32253">
        <ele>1625.3</ele>
        <time>2026-07-07T07:16:59Z</time>
      </trkpt>
      <trkpt lat="42.96893" lon="0.32253">
        <ele>1625.3</ele>
        <time>2026-07-07T07:17:00Z</time>
      </trkpt>
      <trkpt lat="42.96893" lon="0.32253">
        <ele>1625.3</ele>
        <time>2026-07-07T07:17:01Z</time>
      </trkpt>
      <trkpt lat="42.96893" lon="0.32253">
        <ele>1625.3</ele>
        <time>2026-07-07T07:17:02Z</time>
      </trkpt>
      <trkpt lat="42.96893" lon="0.32253">
        <ele>1625.3</ele>
        <time>2026-07-07T07:17:03Z</time>
      </trkpt>
      <trkpt lat="42.96893" lon="0.32253">
        <ele>1625.3</ele>
        <time>2026-07-07T07:17:04Z</time>
      </trkpt>
      <trkpt lat="42.96893" lon="0.32253">
        <ele>1625.3</ele>
        <time>2026-07-07T07:17:05Z</time>
      </trkpt>
      <trkpt lat="42.96894" lon="0.32254">
        <ele>1626.3</ele>
        <time>2026-07-07T07:17:06Z</time>
      </trkpt>
      <trkpt lat="42.96894" lon="0.32254">
        <ele>1626.3</ele>
        <time>2026-07-07T07:17:06Z</time>
      </trkpt>
      <trkpt lat="42.96894" lon="0.32255">
        <ele>1626.3</ele>
        <time>2026-07-07T07:17:07Z</time>
      </trkpt>
      <trkpt lat="42.96895" lon="0.32255">
        <ele>1626.3</ele>
        <time>2026-07-07T07:17:08Z</time>
      </trkpt>
      <trkpt lat="42.96896" lon="0.32256">
        <ele>1625.3</ele>
        <time>2026-07-07T07:17:09Z</time>
      </trkpt>
      <trkpt lat="42.96897" lon="0.32256">
        <ele>1624.3</ele>
        <time>2026-07-07T07:17:10Z</time>
      </trkpt>
      <trkpt lat="42.96897" lon="0.32256">
        <ele>1624.3</ele>
        <time>2026-07-07T07:17:10Z</time>
      </trkpt>
      <trkpt lat="42.96897" lon="0.32256">
        <ele>1625.3</ele>
        <time>2026-07-07T07:17:11Z</time>
      </trkpt>
      <trkpt lat="42.96898" lon="0.32256">
        <ele>1625.3</ele>
        <time>2026-07-07T07:17:12Z</time>
      </trkpt>
      <trkpt lat="42.96898" lon="0.32256">
        <ele>1625.3</ele>
        <time>2026-07-07T07:17:13Z</time>
      </trkpt>
      <trkpt lat="42.96898" lon="0.32256">
        <ele>1625.3</ele>
        <time>2026-07-07T07:17:13Z</time>
      </trkpt>
      <trkpt lat="42.96898" lon="0.32256">
        <ele>1625.3</ele>
        <time>2026-07-07T07:17:14Z</time>
      </trkpt>
      <trkpt lat="42.96898" lon="0.32256">
        <ele>1625.3</ele>
        <time>2026-07-07T07:17:14Z</time>
      </trkpt>
      <trkpt lat="42.96898" lon="0.32257">
        <ele>1625.3</ele>
        <time>2026-07-07T07:17:15Z</time>
      </trkpt>
      <trkpt lat="42.96899" lon="0.32257">
        <ele>1625.3</ele>
        <time>2026-07-07T07:17:16Z</time>
      </trkpt>
      <trkpt lat="42.969" lon="0.32257">
        <ele>1624.3</ele>
        <time>2026-07-07T07:17:17Z</time>
      </trkpt>
      <trkpt lat="42.96901" lon="0.32258">
        <ele>1624.3</ele>
        <time>2026-07-07T07:17:18Z</time>
      </trkpt>
      <trkpt lat="42.96902" lon="0.32258">
        <ele>1624.3</ele>
        <time>2026-07-07T07:17:19Z</time>
      </trkpt>
      <trkpt lat="42.96902" lon="0.32258">
        <ele>1624.3</ele>
        <time>2026-07-07T07:17:20Z</time>
      </trkpt>
      <trkpt lat="42.96903" lon="0.32258">
        <ele>1625.3</ele>
        <time>2026-07-07T07:17:21Z</time>
      </trkpt>
      <trkpt lat="42.96903" lon="0.32258">
        <ele>1625.3</ele>
        <time>2026-07-07T07:17:21Z</time>
      </trkpt>
      <trkpt lat="42.96904" lon="0.32258">
        <ele>1625.3</ele>
        <time>2026-07-07T07:17:22Z</time>
      </trkpt>
      <trkpt lat="42.96904" lon="0.32259">
        <ele>1625.3</ele>
        <time>2026-07-07T07:17:23Z</time>
      </trkpt>
      <trkpt lat="42.96904" lon="0.32259">
        <ele>1625.3</ele>
        <time>2026-07-07T07:17:24Z</time>
      </trkpt>
      <trkpt lat="42.96904" lon="0.3226">
        <ele>1625.3</ele>
        <time>2026-07-07T07:17:25Z</time>
      </trkpt>
      <trkpt lat="42.96904" lon="0.3226">
        <ele>1625.3</ele>
        <time>2026-07-07T07:17:26Z</time>
      </trkpt>
      <trkpt lat="42.96905" lon="0.3226">
        <ele>1625.3</ele>
        <time>2026-07-07T07:17:27Z</time>
      </trkpt>
      <trkpt lat="42.96905" lon="0.32261">
        <ele>1625.3</ele>
        <time>2026-07-07T07:17:28Z</time>
      </trkpt>
      <trkpt lat="42.96905" lon="0.32261">
        <ele>1626.3</ele>
        <time>2026-07-07T07:17:29Z</time>
      </trkpt>
      <trkpt lat="42.96906" lon="0.32261">
        <ele>1626.3</ele>
        <time>2026-07-07T07:17:29Z</time>
      </trkpt>
      <trkpt lat="42.96906" lon="0.32261">
        <ele>1627.3</ele>
        <time>2026-07-07T07:17:30Z</time>
      </trkpt>
      <trkpt lat="42.96907" lon="0.32261">
        <ele>1626.3</ele>
        <time>2026-07-07T07:17:31Z</time>
      </trkpt>
      <trkpt lat="42.96907" lon="0.32261">
        <ele>1626.3</ele>
        <time>2026-07-07T07:17:32Z</time>
      </trkpt>
      <trkpt lat="42.96908" lon="0.3226">
        <ele>1626.3</ele>
        <time>2026-07-07T07:17:33Z</time>
      </trkpt>
      <trkpt lat="42.96908" lon="0.32259">
        <ele>1626.3</ele>
        <time>2026-07-07T07:17:34Z</time>
      </trkpt>
      <trkpt lat="42.96908" lon="0.32259">
        <ele>1627.3</ele>
        <time>2026-07-07T07:17:35Z</time>
      </trkpt>
      <trkpt lat="42.96908" lon="0.32259">
        <ele>1628.3</ele>
        <time>2026-07-07T07:17:36Z</time>
      </trkpt>
      <trkpt lat="42.96909" lon="0.32258">
        <ele>1628.3</ele>
        <time>2026-07-07T07:17:37Z</time>
      </trkpt>
      <trkpt lat="42.9691" lon="0.32259">
        <ele>1629.3</ele>
        <time>2026-07-07T07:17:37Z</time>
      </trkpt>
      <trkpt lat="42.9691" lon="0.32259">
        <ele>1629.3</ele>
        <time>2026-07-07T07:17:38Z</time>
      </trkpt>
      <trkpt lat="42.96911" lon="0.32259">
        <ele>1629.3</ele>
        <time>2026-07-07T07:17:39Z</time>
      </trkpt>
      <trkpt lat="42.96911" lon="0.32259">
        <ele>1629.3</ele>
        <time>2026-07-07T07:17:40Z</time>
      </trkpt>
      <trkpt lat="42.96911" lon="0.3226">
        <ele>1629.3</ele>
        <time>2026-07-07T07:17:41Z</time>
      </trkpt>
      <trkpt lat="42.96912" lon="0.3226">
        <ele>1629.3</ele>
        <time>2026-07-07T07:17:41Z</time>
      </trkpt>
      <trkpt lat="42.96912" lon="0.3226">
        <ele>1631.3</ele>
        <time>2026-07-07T07:17:42Z</time>
      </trkpt>
      <trkpt lat="42.96913" lon="0.32261">
        <ele>1631.3</ele>
        <time>2026-07-07T07:17:43Z</time>
      </trkpt>
      <trkpt lat="42.96914" lon="0.32261">
        <ele>1631.3</ele>
        <time>2026-07-07T07:17:44Z</time>
      </trkpt>
      <trkpt lat="42.96914" lon="0.32261">
        <ele>1632.3</ele>
        <time>2026-07-07T07:17:45Z</time>
      </trkpt>
      <trkpt lat="42.96914" lon="0.32262">
        <ele>1631.3</ele>
        <time>2026-07-07T07:17:46Z</time>
      </trkpt>
      <trkpt lat="42.96915" lon="0.32262">
        <ele>1632.3</ele>
        <time>2026-07-07T07:17:46Z</time>
      </trkpt>
      <trkpt lat="42.96915" lon="0.32263">
        <ele>1632.3</ele>
        <time>2026-07-07T07:17:47Z</time>
      </trkpt>
      <trkpt lat="42.96916" lon="0.32263">
        <ele>1632.3</ele>
        <time>2026-07-07T07:17:48Z</time>
      </trkpt>
      <trkpt lat="42.96917" lon="0.32263">
        <ele>1632.3</ele>
        <time>2026-07-07T07:17:49Z</time>
      </trkpt>
      <trkpt lat="42.96917" lon="0.32264">
        <ele>1632.3</ele>
        <time>2026-07-07T07:17:50Z</time>
      </trkpt>
      <trkpt lat="42.96917" lon="0.32264">
        <ele>1632.3</ele>
        <time>2026-07-07T07:17:51Z</time>
      </trkpt>
      <trkpt lat="42.96918" lon="0.32264">
        <ele>1632.3</ele>
        <time>2026-07-07T07:17:51Z</time>
      </trkpt>
      <trkpt lat="42.96918" lon="0.32265">
        <ele>1632.3</ele>
        <time>2026-07-07T07:17:52Z</time>
      </trkpt>
      <trkpt lat="42.96919" lon="0.32265">
        <ele>1632.3</ele>
        <time>2026-07-07T07:17:53Z</time>
      </trkpt>
      <trkpt lat="42.96919" lon="0.32265">
        <ele>1632.3</ele>
        <time>2026-07-07T07:17:54Z</time>
      </trkpt>
      <trkpt lat="42.96919" lon="0.32265">
        <ele>1633.3</ele>
        <time>2026-07-07T07:17:55Z</time>
      </trkpt>
      <trkpt lat="42.9692" lon="0.32265">
        <ele>1633.3</ele>
        <time>2026-07-07T07:17:55Z</time>
      </trkpt>
      <trkpt lat="42.9692" lon="0.32265">
        <ele>1633.3</ele>
        <time>2026-07-07T07:17:56Z</time>
      </trkpt>
      <trkpt lat="42.96921" lon="0.32266">
        <ele>1633.3</ele>
        <time>2026-07-07T07:17:57Z</time>
      </trkpt>
      <trkpt lat="42.96921" lon="0.32265">
        <ele>1633.3</ele>
        <time>2026-07-07T07:17:58Z</time>
      </trkpt>
      <trkpt lat="42.96922" lon="0.32264">
        <ele>1633.3</ele>
        <time>2026-07-07T07:17:59Z</time>
      </trkpt>
      <trkpt lat="42.96922" lon="0.32263">
        <ele>1633.3</ele>
        <time>2026-07-07T07:18:00Z</time>
      </trkpt>
      <trkpt lat="42.96922" lon="0.32263">
        <ele>1633.3</ele>
        <time>2026-07-07T07:18:00Z</time>
      </trkpt>
      <trkpt lat="42.96922" lon="0.32263">
        <ele>1633.3</ele>
        <time>2026-07-07T07:18:01Z</time>
      </trkpt>
      <trkpt lat="42.96922" lon="0.32263">
        <ele>1634.3</ele>
        <time>2026-07-07T07:18:02Z</time>
      </trkpt>
      <trkpt lat="42.96922" lon="0.32262">
        <ele>1634.3</ele>
        <time>2026-07-07T07:18:03Z</time>
      </trkpt>
      <trkpt lat="42.96923" lon="0.32262">
        <ele>1635.3</ele>
        <time>2026-07-07T07:18:04Z</time>
      </trkpt>
      <trkpt lat="42.96923" lon="0.32262">
        <ele>1635.3</ele>
        <time>2026-07-07T07:18:05Z</time>
      </trkpt>
      <trkpt lat="42.96924" lon="0.32262">
        <ele>1635.3</ele>
        <time>2026-07-07T07:18:06Z</time>
      </trkpt>
      <trkpt lat="42.96924" lon="0.32263">
        <ele>1635.3</ele>
        <time>2026-07-07T07:18:07Z</time>
      </trkpt>
      <trkpt lat="42.96924" lon="0.32263">
        <ele>1635.3</ele>
        <time>2026-07-07T07:18:08Z</time>
      </trkpt>
      <trkpt lat="42.96924" lon="0.32263">
        <ele>1635.3</ele>
        <time>2026-07-07T07:18:09Z</time>
      </trkpt>
      <trkpt lat="42.96925" lon="0.32263">
        <ele>1635.3</ele>
        <time>2026-07-07T07:18:09Z</time>
      </trkpt>
      <trkpt lat="42.96925" lon="0.32263">
        <ele>1636.3</ele>
        <time>2026-07-07T07:18:10Z</time>
      </trkpt>
      <trkpt lat="42.96926" lon="0.32263">
        <ele>1636.3</ele>
        <time>2026-07-07T07:18:11Z</time>
      </trkpt>
      <trkpt lat="42.96926" lon="0.32263">
        <ele>1636.3</ele>
        <time>2026-07-07T07:18:12Z</time>
      </trkpt>
      <trkpt lat="42.96927" lon="0.32263">
        <ele>1636.3</ele>
        <time>2026-07-07T07:18:13Z</time>
      </trkpt>
      <trkpt lat="42.96927" lon="0.32264">
        <ele>1636.3</ele>
        <time>2026-07-07T07:18:14Z</time>
      </trkpt>
      <trkpt lat="42.96928" lon="0.32264">
        <ele>1635.3</ele>
        <time>2026-07-07T07:18:15Z</time>
      </trkpt>
      <trkpt lat="42.96928" lon="0.32264">
        <ele>1635.3</ele>
        <time>2026-07-07T07:18:16Z</time>
      </trkpt>
      <trkpt lat="42.96928" lon="0.32264">
        <ele>1635.3</ele>
        <time>2026-07-07T07:18:16Z</time>
      </trkpt>
      <trkpt lat="42.96929" lon="0.32264">
        <ele>1635.3</ele>
        <time>2026-07-07T07:18:17Z</time>
      </trkpt>
      <trkpt lat="42.96929" lon="0.32264">
        <ele>1635.3</ele>
        <time>2026-07-07T07:18:18Z</time>
      </trkpt>
      <trkpt lat="42.96929" lon="0.32264">
        <ele>1635.3</ele>
        <time>2026-07-07T07:18:19Z</time>
      </trkpt>
      <trkpt lat="42.9693" lon="0.32265">
        <ele>1635.3</ele>
        <time>2026-07-07T07:18:20Z</time>
      </trkpt>
      <trkpt lat="42.96931" lon="0.32265">
        <ele>1634.3</ele>
        <time>2026-07-07T07:18:21Z</time>
      </trkpt>
      <trkpt lat="42.96931" lon="0.32266">
        <ele>1634.3</ele>
        <time>2026-07-07T07:18:22Z</time>
      </trkpt>
      <trkpt lat="42.96932" lon="0.32267">
        <ele>1635.3</ele>
        <time>2026-07-07T07:18:23Z</time>
      </trkpt>
      <trkpt lat="42.96932" lon="0.32267">
        <ele>1635.3</ele>
        <time>2026-07-07T07:18:24Z</time>
      </trkpt>
      <trkpt lat="42.96932" lon="0.32268">
        <ele>1635.3</ele>
        <time>2026-07-07T07:18:25Z</time>
      </trkpt>
      <trkpt lat="42.96932" lon="0.32268">
        <ele>1636.3</ele>
        <time>2026-07-07T07:18:25Z</time>
      </trkpt>
      <trkpt lat="42.96932" lon="0.32269">
        <ele>1636.3</ele>
        <time>2026-07-07T07:18:26Z</time>
      </trkpt>
      <trkpt lat="42.96933" lon="0.32269">
        <ele>1637.3</ele>
        <time>2026-07-07T07:18:27Z</time>
      </trkpt>
      <trkpt lat="42.96933" lon="0.3227">
        <ele>1637.3</ele>
        <time>2026-07-07T07:18:27Z</time>
      </trkpt>
      <trkpt lat="42.96934" lon="0.3227">
        <ele>1637.3</ele>
        <time>2026-07-07T07:18:28Z</time>
      </trkpt>
      <trkpt lat="42.96934" lon="0.32271">
        <ele>1637.3</ele>
        <time>2026-07-07T07:18:29Z</time>
      </trkpt>
      <trkpt lat="42.96935" lon="0.32271">
        <ele>1638.3</ele>
        <time>2026-07-07T07:18:30Z</time>
      </trkpt>
      <trkpt lat="42.96935" lon="0.32271">
        <ele>1638.3</ele>
        <time>2026-07-07T07:18:30Z</time>
      </trkpt>
      <trkpt lat="42.96936" lon="0.32272">
        <ele>1638.3</ele>
        <time>2026-07-07T07:18:31Z</time>
      </trkpt>
      <trkpt lat="42.96936" lon="0.32272">
        <ele>1638.3</ele>
        <time>2026-07-07T07:18:32Z</time>
      </trkpt>
      <trkpt lat="42.96937" lon="0.32272">
        <ele>1639.3</ele>
        <time>2026-07-07T07:18:32Z</time>
      </trkpt>
      <trkpt lat="42.96937" lon="0.32272">
        <ele>1639.3</ele>
        <time>2026-07-07T07:18:33Z</time>
      </trkpt>
      <trkpt lat="42.96937" lon="0.32273">
        <ele>1639.3</ele>
        <time>2026-07-07T07:18:34Z</time>
      </trkpt>
      <trkpt lat="42.96937" lon="0.32273">
        <ele>1639.3</ele>
        <time>2026-07-07T07:18:35Z</time>
      </trkpt>
      <trkpt lat="42.96938" lon="0.32273">
        <ele>1639.3</ele>
        <time>2026-07-07T07:18:35Z</time>
      </trkpt>
      <trkpt lat="42.96938" lon="0.32273">
        <ele>1639.3</ele>
        <time>2026-07-07T07:18:36Z</time>
      </trkpt>
      <trkpt lat="42.96939" lon="0.32273">
        <ele>1639.3</ele>
        <time>2026-07-07T07:18:37Z</time>
      </trkpt>
      <trkpt lat="42.96939" lon="0.32273">
        <ele>1639.3</ele>
        <time>2026-07-07T07:18:38Z</time>
      </trkpt>
      <trkpt lat="42.9694" lon="0.32273">
        <ele>1639.3</ele>
        <time>2026-07-07T07:18:39Z</time>
      </trkpt>
      <trkpt lat="42.9694" lon="0.32273">
        <ele>1640.3</ele>
        <time>2026-07-07T07:18:40Z</time>
      </trkpt>
      <trkpt lat="42.96941" lon="0.32273">
        <ele>1641.3</ele>
        <time>2026-07-07T07:18:40Z</time>
      </trkpt>
      <trkpt lat="42.96941" lon="0.32273">
        <ele>1641.3</ele>
        <time>2026-07-07T07:18:41Z</time>
      </trkpt>
      <trkpt lat="42.96942" lon="0.32273">
        <ele>1641.3</ele>
        <time>2026-07-07T07:18:42Z</time>
      </trkpt>
      <trkpt lat="42.96942" lon="0.32274">
        <ele>1641.3</ele>
        <time>2026-07-07T07:18:43Z</time>
      </trkpt>
      <trkpt lat="42.96943" lon="0.32274">
        <ele>1641.3</ele>
        <time>2026-07-07T07:18:44Z</time>
      </trkpt>
      <trkpt lat="42.96943" lon="0.32274">
        <ele>1641.3</ele>
        <time>2026-07-07T07:18:45Z</time>
      </trkpt>
      <trkpt lat="42.96944" lon="0.32274">
        <ele>1641.3</ele>
        <time>2026-07-07T07:18:45Z</time>
      </trkpt>
      <trkpt lat="42.96944" lon="0.32274">
        <ele>1641.3</ele>
        <time>2026-07-07T07:18:46Z</time>
      </trkpt>
      <trkpt lat="42.96945" lon="0.32275">
        <ele>1642.3</ele>
        <time>2026-07-07T07:18:47Z</time>
      </trkpt>
      <trkpt lat="42.96946" lon="0.32275">
        <ele>1642.3</ele>
        <time>2026-07-07T07:18:48Z</time>
      </trkpt>
      <trkpt lat="42.96946" lon="0.32275">
        <ele>1641.3</ele>
        <time>2026-07-07T07:18:49Z</time>
      </trkpt>
      <trkpt lat="42.96946" lon="0.32275">
        <ele>1642.3</ele>
        <time>2026-07-07T07:18:50Z</time>
      </trkpt>
      <trkpt lat="42.96947" lon="0.32275">
        <ele>1642.3</ele>
        <time>2026-07-07T07:18:50Z</time>
      </trkpt>
      <trkpt lat="42.96948" lon="0.32275">
        <ele>1642.3</ele>
        <time>2026-07-07T07:18:51Z</time>
      </trkpt>
      <trkpt lat="42.96948" lon="0.32275">
        <ele>1642.3</ele>
        <time>2026-07-07T07:18:52Z</time>
      </trkpt>
      <trkpt lat="42.96949" lon="0.32276">
        <ele>1643.3</ele>
        <time>2026-07-07T07:18:53Z</time>
      </trkpt>
      <trkpt lat="42.96949" lon="0.32276">
        <ele>1643.3</ele>
        <time>2026-07-07T07:18:53Z</time>
      </trkpt>
      <trkpt lat="42.96949" lon="0.32277">
        <ele>1643.3</ele>
        <time>2026-07-07T07:18:54Z</time>
      </trkpt>
      <trkpt lat="42.9695" lon="0.32278">
        <ele>1643.3</ele>
        <time>2026-07-07T07:18:55Z</time>
      </trkpt>
      <trkpt lat="42.9695" lon="0.32278">
        <ele>1642.3</ele>
        <time>2026-07-07T07:18:56Z</time>
      </trkpt>
      <trkpt lat="42.9695" lon="0.32279">
        <ele>1641.3</ele>
        <time>2026-07-07T07:18:57Z</time>
      </trkpt>
      <trkpt lat="42.96951" lon="0.32279">
        <ele>1642.3</ele>
        <time>2026-07-07T07:18:57Z</time>
      </trkpt>
      <trkpt lat="42.96951" lon="0.32279">
        <ele>1642.3</ele>
        <time>2026-07-07T07:18:58Z</time>
      </trkpt>
      <trkpt lat="42.96952" lon="0.3228">
        <ele>1642.3</ele>
        <time>2026-07-07T07:18:59Z</time>
      </trkpt>
      <trkpt lat="42.96953" lon="0.3228">
        <ele>1642.3</ele>
        <time>2026-07-07T07:19:00Z</time>
      </trkpt>
      <trkpt lat="42.96953" lon="0.3228">
        <ele>1642.3</ele>
        <time>2026-07-07T07:19:01Z</time>
      </trkpt>
      <trkpt lat="42.96953" lon="0.3228">
        <ele>1642.3</ele>
        <time>2026-07-07T07:19:02Z</time>
      </trkpt>
      <trkpt lat="42.96954" lon="0.32281">
        <ele>1642.3</ele>
        <time>2026-07-07T07:19:02Z</time>
      </trkpt>
      <trkpt lat="42.96954" lon="0.32281">
        <ele>1642.3</ele>
        <time>2026-07-07T07:19:03Z</time>
      </trkpt>
      <trkpt lat="42.96955" lon="0.32282">
        <ele>1642.3</ele>
        <time>2026-07-07T07:19:04Z</time>
      </trkpt>
      <trkpt lat="42.96955" lon="0.32282">
        <ele>1643.3</ele>
        <time>2026-07-07T07:19:05Z</time>
      </trkpt>
      <trkpt lat="42.96956" lon="0.32282">
        <ele>1643.3</ele>
        <time>2026-07-07T07:19:06Z</time>
      </trkpt>
      <trkpt lat="42.96956" lon="0.32282">
        <ele>1643.3</ele>
        <time>2026-07-07T07:19:06Z</time>
      </trkpt>
      <trkpt lat="42.96957" lon="0.32281">
        <ele>1643.3</ele>
        <time>2026-07-07T07:19:07Z</time>
      </trkpt>
      <trkpt lat="42.96957" lon="0.32281">
        <ele>1643.3</ele>
        <time>2026-07-07T07:19:08Z</time>
      </trkpt>
      <trkpt lat="42.96957" lon="0.32281">
        <ele>1643.3</ele>
        <time>2026-07-07T07:19:09Z</time>
      </trkpt>
      <trkpt lat="42.96957" lon="0.3228">
        <ele>1643.3</ele>
        <time>2026-07-07T07:19:10Z</time>
      </trkpt>
      <trkpt lat="42.96957" lon="0.3228">
        <ele>1643.3</ele>
        <time>2026-07-07T07:19:11Z</time>
      </trkpt>
      <trkpt lat="42.96957" lon="0.3228">
        <ele>1643.3</ele>
        <time>2026-07-07T07:19:12Z</time>
      </trkpt>
      <trkpt lat="42.96957" lon="0.3228">
        <ele>1642.3</ele>
        <time>2026-07-07T07:19:13Z</time>
      </trkpt>
      <trkpt lat="42.96957" lon="0.3228">
        <ele>1643.3</ele>
        <time>2026-07-07T07:19:14Z</time>
      </trkpt>
      <trkpt lat="42.96957" lon="0.3228">
        <ele>1642.3</ele>
        <time>2026-07-07T07:19:14Z</time>
      </trkpt>
      <trkpt lat="42.96958" lon="0.3228">
        <ele>1642.3</ele>
        <time>2026-07-07T07:19:15Z</time>
      </trkpt>
      <trkpt lat="42.96958" lon="0.3228">
        <ele>1642.3</ele>
        <time>2026-07-07T07:19:16Z</time>
      </trkpt>
      <trkpt lat="42.96959" lon="0.3228">
        <ele>1642.3</ele>
        <time>2026-07-07T07:19:17Z</time>
      </trkpt>
      <trkpt lat="42.96959" lon="0.3228">
        <ele>1642.3</ele>
        <time>2026-07-07T07:19:18Z</time>
      </trkpt>
      <trkpt lat="42.9696" lon="0.3228">
        <ele>1642.3</ele>
        <time>2026-07-07T07:19:18Z</time>
      </trkpt>
      <trkpt lat="42.9696" lon="0.32281">
        <ele>1642.3</ele>
        <time>2026-07-07T07:19:19Z</time>
      </trkpt>
      <trkpt lat="42.9696" lon="0.32281">
        <ele>1642.3</ele>
        <time>2026-07-07T07:19:19Z</time>
      </trkpt>
      <trkpt lat="42.96961" lon="0.3228">
        <ele>1642.3</ele>
        <time>2026-07-07T07:19:20Z</time>
      </trkpt>
      <trkpt lat="42.96961" lon="0.3228">
        <ele>1642.3</ele>
        <time>2026-07-07T07:19:21Z</time>
      </trkpt>
      <trkpt lat="42.96962" lon="0.3228">
        <ele>1642.3</ele>
        <time>2026-07-07T07:19:22Z</time>
      </trkpt>
      <trkpt lat="42.96962" lon="0.32281">
        <ele>1643.3</ele>
        <time>2026-07-07T07:19:23Z</time>
      </trkpt>
      <trkpt lat="42.96963" lon="0.32281">
        <ele>1644.3</ele>
        <time>2026-07-07T07:19:24Z</time>
      </trkpt>
      <trkpt lat="42.96963" lon="0.32282">
        <ele>1644.3</ele>
        <time>2026-07-07T07:19:25Z</time>
      </trkpt>
      <trkpt lat="42.96963" lon="0.32282">
        <ele>1644.3</ele>
        <time>2026-07-07T07:19:25Z</time>
      </trkpt>
      <trkpt lat="42.96964" lon="0.32283">
        <ele>1644.3</ele>
        <time>2026-07-07T07:19:26Z</time>
      </trkpt>
      <trkpt lat="42.96964" lon="0.32283">
        <ele>1644.3</ele>
        <time>2026-07-07T07:19:27Z</time>
      </trkpt>
      <trkpt lat="42.96965" lon="0.32283">
        <ele>1644.3</ele>
        <time>2026-07-07T07:19:27Z</time>
      </trkpt>
      <trkpt lat="42.96966" lon="0.32284">
        <ele>1644.3</ele>
        <time>2026-07-07T07:19:28Z</time>
      </trkpt>
      <trkpt lat="42.96966" lon="0.32285">
        <ele>1644.3</ele>
        <time>2026-07-07T07:19:29Z</time>
      </trkpt>
      <trkpt lat="42.96966" lon="0.32285">
        <ele>1644.3</ele>
        <time>2026-07-07T07:19:30Z</time>
      </trkpt>
      <trkpt lat="42.96966" lon="0.32285">
        <ele>1644.3</ele>
        <time>2026-07-07T07:19:30Z</time>
      </trkpt>
      <trkpt lat="42.96967" lon="0.32286">
        <ele>1644.3</ele>
        <time>2026-07-07T07:19:31Z</time>
      </trkpt>
      <trkpt lat="42.96967" lon="0.32287">
        <ele>1644.3</ele>
        <time>2026-07-07T07:19:32Z</time>
      </trkpt>
      <trkpt lat="42.96968" lon="0.32287">
        <ele>1645.3</ele>
        <time>2026-07-07T07:19:33Z</time>
      </trkpt>
      <trkpt lat="42.96968" lon="0.32287">
        <ele>1644.3</ele>
        <time>2026-07-07T07:19:33Z</time>
      </trkpt>
      <trkpt lat="42.96969" lon="0.32287">
        <ele>1644.3</ele>
        <time>2026-07-07T07:19:34Z</time>
      </trkpt>
      <trkpt lat="42.96969" lon="0.32288">
        <ele>1645.3</ele>
        <time>2026-07-07T07:19:35Z</time>
      </trkpt>
      <trkpt lat="42.9697" lon="0.32288">
        <ele>1644.3</ele>
        <time>2026-07-07T07:19:36Z</time>
      </trkpt>
      <trkpt lat="42.9697" lon="0.32289">
        <ele>1644.3</ele>
        <time>2026-07-07T07:19:37Z</time>
      </trkpt>
      <trkpt lat="42.96971" lon="0.32289">
        <ele>1644.3</ele>
        <time>2026-07-07T07:19:37Z</time>
      </trkpt>
      <trkpt lat="42.96971" lon="0.3229">
        <ele>1644.3</ele>
        <time>2026-07-07T07:19:38Z</time>
      </trkpt>
      <trkpt lat="42.96971" lon="0.3229">
        <ele>1644.3</ele>
        <time>2026-07-07T07:19:39Z</time>
      </trkpt>
      <trkpt lat="42.96971" lon="0.3229">
        <ele>1644.3</ele>
        <time>2026-07-07T07:19:40Z</time>
      </trkpt>
      <trkpt lat="42.96971" lon="0.3229">
        <ele>1644.3</ele>
        <time>2026-07-07T07:19:41Z</time>
      </trkpt>
      <trkpt lat="42.96971" lon="0.3229">
        <ele>1644.3</ele>
        <time>2026-07-07T07:19:41Z</time>
      </trkpt>
      <trkpt lat="42.96972" lon="0.32291">
        <ele>1644.3</ele>
        <time>2026-07-07T07:19:42Z</time>
      </trkpt>
      <trkpt lat="42.96972" lon="0.32292">
        <ele>1644.3</ele>
        <time>2026-07-07T07:19:43Z</time>
      </trkpt>
      <trkpt lat="42.96973" lon="0.32292">
        <ele>1645.3</ele>
        <time>2026-07-07T07:19:44Z</time>
      </trkpt>
      <trkpt lat="42.96973" lon="0.32292">
        <ele>1645.3</ele>
        <time>2026-07-07T07:19:44Z</time>
      </trkpt>
      <trkpt lat="42.96974" lon="0.32292">
        <ele>1645.3</ele>
        <time>2026-07-07T07:19:45Z</time>
      </trkpt>
      <trkpt lat="42.96974" lon="0.32292">
        <ele>1645.3</ele>
        <time>2026-07-07T07:19:46Z</time>
      </trkpt>
      <trkpt lat="42.96975" lon="0.32292">
        <ele>1645.3</ele>
        <time>2026-07-07T07:19:47Z</time>
      </trkpt>
      <trkpt lat="42.96975" lon="0.32292">
        <ele>1645.3</ele>
        <time>2026-07-07T07:19:47Z</time>
      </trkpt>
      <trkpt lat="42.96976" lon="0.32292">
        <ele>1646.3</ele>
        <time>2026-07-07T07:19:48Z</time>
      </trkpt>
      <trkpt lat="42.96977" lon="0.32292">
        <ele>1646.3</ele>
        <time>2026-07-07T07:19:49Z</time>
      </trkpt>
      <trkpt lat="42.96978" lon="0.32292">
        <ele>1646.3</ele>
        <time>2026-07-07T07:19:50Z</time>
      </trkpt>
      <trkpt lat="42.96978" lon="0.32293">
        <ele>1647.3</ele>
        <time>2026-07-07T07:19:51Z</time>
      </trkpt>
      <trkpt lat="42.96979" lon="0.32293">
        <ele>1647.3</ele>
        <time>2026-07-07T07:19:52Z</time>
      </trkpt>
      <trkpt lat="42.96979" lon="0.32293">
        <ele>1647.3</ele>
        <time>2026-07-07T07:19:52Z</time>
      </trkpt>
      <trkpt lat="42.9698" lon="0.32294">
        <ele>1647.3</ele>
        <time>2026-07-07T07:19:53Z</time>
      </trkpt>
      <trkpt lat="42.9698" lon="0.32295">
        <ele>1647.3</ele>
        <time>2026-07-07T07:19:54Z</time>
      </trkpt>
      <trkpt lat="42.9698" lon="0.32295">
        <ele>1648.3</ele>
        <time>2026-07-07T07:19:54Z</time>
      </trkpt>
      <trkpt lat="42.9698" lon="0.32295">
        <ele>1648.3</ele>
        <time>2026-07-07T07:19:55Z</time>
      </trkpt>
      <trkpt lat="42.96981" lon="0.32296">
        <ele>1648.3</ele>
        <time>2026-07-07T07:19:56Z</time>
      </trkpt>
      <trkpt lat="42.96981" lon="0.32297">
        <ele>1648.3</ele>
        <time>2026-07-07T07:19:56Z</time>
      </trkpt>
      <trkpt lat="42.96981" lon="0.32298">
        <ele>1648.3</ele>
        <time>2026-07-07T07:19:57Z</time>
      </trkpt>
      <trkpt lat="42.96982" lon="0.32298">
        <ele>1649.3</ele>
        <time>2026-07-07T07:19:58Z</time>
      </trkpt>
      <trkpt lat="42.96982" lon="0.32298">
        <ele>1648.3</ele>
        <time>2026-07-07T07:19:59Z</time>
      </trkpt>
      <trkpt lat="42.96983" lon="0.32298">
        <ele>1648.3</ele>
        <time>2026-07-07T07:19:59Z</time>
      </trkpt>
      <trkpt lat="42.96983" lon="0.32299">
        <ele>1647.3</ele>
        <time>2026-07-07T07:20:00Z</time>
      </trkpt>
      <trkpt lat="42.96984" lon="0.32299">
        <ele>1647.3</ele>
        <time>2026-07-07T07:20:01Z</time>
      </trkpt>
      <trkpt lat="42.96984" lon="0.32299">
        <ele>1648.3</ele>
        <time>2026-07-07T07:20:02Z</time>
      </trkpt>
      <trkpt lat="42.96985" lon="0.32299">
        <ele>1649.3</ele>
        <time>2026-07-07T07:20:03Z</time>
      </trkpt>
      <trkpt lat="42.96985" lon="0.32299">
        <ele>1649.3</ele>
        <time>2026-07-07T07:20:04Z</time>
      </trkpt>
      <trkpt lat="42.96985" lon="0.32299">
        <ele>1649.3</ele>
        <time>2026-07-07T07:20:04Z</time>
      </trkpt>
      <trkpt lat="42.96985" lon="0.32299">
        <ele>1649.3</ele>
        <time>2026-07-07T07:20:05Z</time>
      </trkpt>
      <trkpt lat="42.96985" lon="0.32298">
        <ele>1649.3</ele>
        <time>2026-07-07T07:20:06Z</time>
      </trkpt>
      <trkpt lat="42.96985" lon="0.32298">
        <ele>1649.3</ele>
        <time>2026-07-07T07:20:07Z</time>
      </trkpt>
      <trkpt lat="42.96985" lon="0.32297">
        <ele>1649.3</ele>
        <time>2026-07-07T07:20:08Z</time>
      </trkpt>
      <trkpt lat="42.96985" lon="0.32297">
        <ele>1649.3</ele>
        <time>2026-07-07T07:20:09Z</time>
      </trkpt>
      <trkpt lat="42.96985" lon="0.32297">
        <ele>1649.3</ele>
        <time>2026-07-07T07:20:10Z</time>
      </trkpt>
      <trkpt lat="42.96985" lon="0.32298">
        <ele>1649.3</ele>
        <time>2026-07-07T07:20:11Z</time>
      </trkpt>
      <trkpt lat="42.96985" lon="0.32298">
        <ele>1649.3</ele>
        <time>2026-07-07T07:20:11Z</time>
      </trkpt>
      <trkpt lat="42.96985" lon="0.32298">
        <ele>1649.3</ele>
        <time>2026-07-07T07:20:12Z</time>
      </trkpt>
      <trkpt lat="42.96985" lon="0.32298">
        <ele>1649.3</ele>
        <time>2026-07-07T07:20:13Z</time>
      </trkpt>
      <trkpt lat="42.96985" lon="0.32298">
        <ele>1649.3</ele>
        <time>2026-07-07T07:20:14Z</time>
      </trkpt>
      <trkpt lat="42.96985" lon="0.32298">
        <ele>1649.3</ele>
        <time>2026-07-07T07:20:15Z</time>
      </trkpt>
      <trkpt lat="42.96986" lon="0.32299">
        <ele>1649.3</ele>
        <time>2026-07-07T07:20:16Z</time>
      </trkpt>
      <trkpt lat="42.96986" lon="0.32299">
        <ele>1649.3</ele>
        <time>2026-07-07T07:20:16Z</time>
      </trkpt>
      <trkpt lat="42.96986" lon="0.32299">
        <ele>1649.3</ele>
        <time>2026-07-07T07:20:17Z</time>
      </trkpt>
      <trkpt lat="42.96987" lon="0.323">
        <ele>1649.3</ele>
        <time>2026-07-07T07:20:18Z</time>
      </trkpt>
      <trkpt lat="42.96987" lon="0.323">
        <ele>1649.3</ele>
        <time>2026-07-07T07:20:19Z</time>
      </trkpt>
      <trkpt lat="42.96987" lon="0.323">
        <ele>1650.3</ele>
        <time>2026-07-07T07:20:20Z</time>
      </trkpt>
      <trkpt lat="42.96987" lon="0.323">
        <ele>1650.3</ele>
        <time>2026-07-07T07:20:21Z</time>
      </trkpt>
      <trkpt lat="42.96987" lon="0.323">
        <ele>1649.3</ele>
        <time>2026-07-07T07:20:22Z</time>
      </trkpt>
      <trkpt lat="42.96987" lon="0.323">
        <ele>1649.3</ele>
        <time>2026-07-07T07:20:23Z</time>
      </trkpt>
      <trkpt lat="42.96987" lon="0.323">
        <ele>1649.3</ele>
        <time>2026-07-07T07:20:23Z</time>
      </trkpt>
      <trkpt lat="42.96988" lon="0.32301">
        <ele>1649.3</ele>
        <time>2026-07-07T07:20:24Z</time>
      </trkpt>
      <trkpt lat="42.96988" lon="0.32301">
        <ele>1649.3</ele>
        <time>2026-07-07T07:20:25Z</time>
      </trkpt>
      <trkpt lat="42.96989" lon="0.32302">
        <ele>1649.3</ele>
        <time>2026-07-07T07:20:26Z</time>
      </trkpt>
      <trkpt lat="42.96989" lon="0.32302">
        <ele>1650.3</ele>
        <time>2026-07-07T07:20:26Z</time>
      </trkpt>
      <trkpt lat="42.96989" lon="0.32303">
        <ele>1650.3</ele>
        <time>2026-07-07T07:20:27Z</time>
      </trkpt>
      <trkpt lat="42.9699" lon="0.32304">
        <ele>1650.3</ele>
        <time>2026-07-07T07:20:28Z</time>
      </trkpt>
      <trkpt lat="42.9699" lon="0.32304">
        <ele>1650.3</ele>
        <time>2026-07-07T07:20:29Z</time>
      </trkpt>
      <trkpt lat="42.96991" lon="0.32304">
        <ele>1651.3</ele>
        <time>2026-07-07T07:20:30Z</time>
      </trkpt>
      <trkpt lat="42.96991" lon="0.32305">
        <ele>1651.3</ele>
        <time>2026-07-07T07:20:30Z</time>
      </trkpt>
      <trkpt lat="42.96992" lon="0.32305">
        <ele>1652.3</ele>
        <time>2026-07-07T07:20:31Z</time>
      </trkpt>
      <trkpt lat="42.96992" lon="0.32306">
        <ele>1652.3</ele>
        <time>2026-07-07T07:20:32Z</time>
      </trkpt>
      <trkpt lat="42.96993" lon="0.32306">
        <ele>1652.3</ele>
        <time>2026-07-07T07:20:33Z</time>
      </trkpt>
      <trkpt lat="42.96993" lon="0.32307">
        <ele>1652.3</ele>
        <time>2026-07-07T07:20:34Z</time>
      </trkpt>
      <trkpt lat="42.96994" lon="0.32307">
        <ele>1652.3</ele>
        <time>2026-07-07T07:20:35Z</time>
      </trkpt>
      <trkpt lat="42.96994" lon="0.32307">
        <ele>1653.3</ele>
        <time>2026-07-07T07:20:36Z</time>
      </trkpt>
      <trkpt lat="42.96994" lon="0.32308">
        <ele>1653.3</ele>
        <time>2026-07-07T07:20:36Z</time>
      </trkpt>
      <trkpt lat="42.96994" lon="0.32308">
        <ele>1653.3</ele>
        <time>2026-07-07T07:20:37Z</time>
      </trkpt>
      <trkpt lat="42.96994" lon="0.32309">
        <ele>1654.3</ele>
        <time>2026-07-07T07:20:38Z</time>
      </trkpt>
      <trkpt lat="42.96995" lon="0.32309">
        <ele>1653.3</ele>
        <time>2026-07-07T07:20:39Z</time>
      </trkpt>
      <trkpt lat="42.96995" lon="0.32309">
        <ele>1653.3</ele>
        <time>2026-07-07T07:20:40Z</time>
      </trkpt>
      <trkpt lat="42.96995" lon="0.32308">
        <ele>1653.3</ele>
        <time>2026-07-07T07:20:41Z</time>
      </trkpt>
      <trkpt lat="42.96995" lon="0.32308">
        <ele>1653.3</ele>
        <time>2026-07-07T07:20:42Z</time>
      </trkpt>
      <trkpt lat="42.96995" lon="0.32308">
        <ele>1653.3</ele>
        <time>2026-07-07T07:20:43Z</time>
      </trkpt>
      <trkpt lat="42.96995" lon="0.32308">
        <ele>1653.3</ele>
        <time>2026-07-07T07:20:44Z</time>
      </trkpt>
      <trkpt lat="42.96995" lon="0.32308">
        <ele>1653.3</ele>
        <time>2026-07-07T07:20:45Z</time>
      </trkpt>
      <trkpt lat="42.96995" lon="0.32308">
        <ele>1653.3</ele>
        <time>2026-07-07T07:20:46Z</time>
      </trkpt>
      <trkpt lat="42.96995" lon="0.32308">
        <ele>1653.3</ele>
        <time>2026-07-07T07:20:47Z</time>
      </trkpt>
      <trkpt lat="42.96995" lon="0.32308">
        <ele>1653.3</ele>
        <time>2026-07-07T07:20:48Z</time>
      </trkpt>
      <trkpt lat="42.96995" lon="0.32309">
        <ele>1654.3</ele>
        <time>2026-07-07T07:20:48Z</time>
      </trkpt>
      <trkpt lat="42.96995" lon="0.32309">
        <ele>1654.3</ele>
        <time>2026-07-07T07:20:49Z</time>
      </trkpt>
      <trkpt lat="42.96996" lon="0.3231">
        <ele>1654.3</ele>
        <time>2026-07-07T07:20:50Z</time>
      </trkpt>
      <trkpt lat="42.96996" lon="0.3231">
        <ele>1654.3</ele>
        <time>2026-07-07T07:20:50Z</time>
      </trkpt>
      <trkpt lat="42.96997" lon="0.32311">
        <ele>1654.3</ele>
        <time>2026-07-07T07:20:51Z</time>
      </trkpt>
      <trkpt lat="42.96997" lon="0.32313">
        <ele>1655.3</ele>
        <time>2026-07-07T07:20:51Z</time>
      </trkpt>
      <trkpt lat="42.96998" lon="0.32314">
        <ele>1655.3</ele>
        <time>2026-07-07T07:20:52Z</time>
      </trkpt>
      <trkpt lat="42.96998" lon="0.32315">
        <ele>1655.3</ele>
        <time>2026-07-07T07:20:53Z</time>
      </trkpt>
      <trkpt lat="42.96998" lon="0.32315">
        <ele>1655.3</ele>
        <time>2026-07-07T07:20:53Z</time>
      </trkpt>
      <trkpt lat="42.96999" lon="0.32316">
        <ele>1655.3</ele>
        <time>2026-07-07T07:20:54Z</time>
      </trkpt>
      <trkpt lat="42.97" lon="0.32317">
        <ele>1655.3</ele>
        <time>2026-07-07T07:20:55Z</time>
      </trkpt>
      <trkpt lat="42.97" lon="0.32318">
        <ele>1654.3</ele>
        <time>2026-07-07T07:20:56Z</time>
      </trkpt>
      <trkpt lat="42.97" lon="0.32319">
        <ele>1655.3</ele>
        <time>2026-07-07T07:20:57Z</time>
      </trkpt>
      <trkpt lat="42.97" lon="0.3232">
        <ele>1655.3</ele>
        <time>2026-07-07T07:20:58Z</time>
      </trkpt>
      <trkpt lat="42.97001" lon="0.3232">
        <ele>1655.3</ele>
        <time>2026-07-07T07:20:58Z</time>
      </trkpt>
      <trkpt lat="42.97001" lon="0.32321">
        <ele>1655.3</ele>
        <time>2026-07-07T07:20:59Z</time>
      </trkpt>
      <trkpt lat="42.97001" lon="0.32322">
        <ele>1655.3</ele>
        <time>2026-07-07T07:21:00Z</time>
      </trkpt>
      <trkpt lat="42.97001" lon="0.32322">
        <ele>1656.3</ele>
        <time>2026-07-07T07:21:01Z</time>
      </trkpt>
      <trkpt lat="42.97001" lon="0.32322">
        <ele>1656.3</ele>
        <time>2026-07-07T07:21:01Z</time>
      </trkpt>
      <trkpt lat="42.97002" lon="0.32323">
        <ele>1656.3</ele>
        <time>2026-07-07T07:21:02Z</time>
      </trkpt>
      <trkpt lat="42.97002" lon="0.32323">
        <ele>1656.3</ele>
        <time>2026-07-07T07:21:03Z</time>
      </trkpt>
      <trkpt lat="42.97002" lon="0.32323">
        <ele>1657.3</ele>
        <time>2026-07-07T07:21:04Z</time>
      </trkpt>
      <trkpt lat="42.97003" lon="0.32323">
        <ele>1657.3</ele>
        <time>2026-07-07T07:21:04Z</time>
      </trkpt>
      <trkpt lat="42.97004" lon="0.32323">
        <ele>1658.3</ele>
        <time>2026-07-07T07:21:05Z</time>
      </trkpt>
      <trkpt lat="42.97004" lon="0.32323">
        <ele>1658.3</ele>
        <time>2026-07-07T07:21:06Z</time>
      </trkpt>
      <trkpt lat="42.97005" lon="0.32323">
        <ele>1658.3</ele>
        <time>2026-07-07T07:21:07Z</time>
      </trkpt>
      <trkpt lat="42.97005" lon="0.32322">
        <ele>1659.3</ele>
        <time>2026-07-07T07:21:08Z</time>
      </trkpt>
      <trkpt lat="42.97005" lon="0.32322">
        <ele>1658.3</ele>
        <time>2026-07-07T07:21:09Z</time>
      </trkpt>
      <trkpt lat="42.97005" lon="0.32321">
        <ele>1658.3</ele>
        <time>2026-07-07T07:21:10Z</time>
      </trkpt>
      <trkpt lat="42.97005" lon="0.32321">
        <ele>1658.3</ele>
        <time>2026-07-07T07:21:10Z</time>
      </trkpt>
      <trkpt lat="42.97005" lon="0.32321">
        <ele>1658.3</ele>
        <time>2026-07-07T07:21:11Z</time>
      </trkpt>
      <trkpt lat="42.97005" lon="0.3232">
        <ele>1658.3</ele>
        <time>2026-07-07T07:21:12Z</time>
      </trkpt>
      <trkpt lat="42.97005" lon="0.3232">
        <ele>1658.3</ele>
        <time>2026-07-07T07:21:13Z</time>
      </trkpt>
      <trkpt lat="42.97006" lon="0.3232">
        <ele>1658.3</ele>
        <time>2026-07-07T07:21:13Z</time>
      </trkpt>
      <trkpt lat="42.97006" lon="0.3232">
        <ele>1658.3</ele>
        <time>2026-07-07T07:21:14Z</time>
      </trkpt>
      <trkpt lat="42.97006" lon="0.32319">
        <ele>1659.3</ele>
        <time>2026-07-07T07:21:14Z</time>
      </trkpt>
      <trkpt lat="42.97006" lon="0.32319">
        <ele>1659.3</ele>
        <time>2026-07-07T07:21:15Z</time>
      </trkpt>
      <trkpt lat="42.97006" lon="0.32319">
        <ele>1659.3</ele>
        <time>2026-07-07T07:21:16Z</time>
      </trkpt>
      <trkpt lat="42.97007" lon="0.32319">
        <ele>1659.3</ele>
        <time>2026-07-07T07:21:17Z</time>
      </trkpt>
      <trkpt lat="42.97007" lon="0.3232">
        <ele>1659.3</ele>
        <time>2026-07-07T07:21:18Z</time>
      </trkpt>
      <trkpt lat="42.97008" lon="0.3232">
        <ele>1659.3</ele>
        <time>2026-07-07T07:21:19Z</time>
      </trkpt>
      <trkpt lat="42.97009" lon="0.3232">
        <ele>1660.3</ele>
        <time>2026-07-07T07:21:20Z</time>
      </trkpt>
      <trkpt lat="42.97009" lon="0.3232">
        <ele>1660.3</ele>
        <time>2026-07-07T07:21:21Z</time>
      </trkpt>
      <trkpt lat="42.97009" lon="0.3232">
        <ele>1660.3</ele>
        <time>2026-07-07T07:21:22Z</time>
      </trkpt>
      <trkpt lat="42.9701" lon="0.3232">
        <ele>1659.3</ele>
        <time>2026-07-07T07:21:23Z</time>
      </trkpt>
      <trkpt lat="42.9701" lon="0.3232">
        <ele>1660.3</ele>
        <time>2026-07-07T07:21:23Z</time>
      </trkpt>
      <trkpt lat="42.9701" lon="0.32319">
        <ele>1660.3</ele>
        <time>2026-07-07T07:21:24Z</time>
      </trkpt>
      <trkpt lat="42.97011" lon="0.32319">
        <ele>1659.3</ele>
        <time>2026-07-07T07:21:25Z</time>
      </trkpt>
      <trkpt lat="42.97011" lon="0.32318">
        <ele>1660.3</ele>
        <time>2026-07-07T07:21:26Z</time>
      </trkpt>
      <trkpt lat="42.97011" lon="0.32318">
        <ele>1660.3</ele>
        <time>2026-07-07T07:21:27Z</time>
      </trkpt>
      <trkpt lat="42.97011" lon="0.32317">
        <ele>1660.3</ele>
        <time>2026-07-07T07:21:28Z</time>
      </trkpt>
      <trkpt lat="42.97011" lon="0.32317">
        <ele>1660.3</ele>
        <time>2026-07-07T07:21:29Z</time>
      </trkpt>
      <trkpt lat="42.97011" lon="0.32316">
        <ele>1661.3</ele>
        <time>2026-07-07T07:21:30Z</time>
      </trkpt>
      <trkpt lat="42.97011" lon="0.32315">
        <ele>1660.3</ele>
        <time>2026-07-07T07:21:31Z</time>
      </trkpt>
      <trkpt lat="42.97011" lon="0.32315">
        <ele>1660.3</ele>
        <time>2026-07-07T07:21:31Z</time>
      </trkpt>
      <trkpt lat="42.97011" lon="0.32314">
        <ele>1660.3</ele>
        <time>2026-07-07T07:21:32Z</time>
      </trkpt>
      <trkpt lat="42.9701" lon="0.32313">
        <ele>1661.3</ele>
        <time>2026-07-07T07:21:33Z</time>
      </trkpt>
      <trkpt lat="42.9701" lon="0.32312">
        <ele>1661.3</ele>
        <time>2026-07-07T07:21:34Z</time>
      </trkpt>
      <trkpt lat="42.9701" lon="0.32312">
        <ele>1661.3</ele>
        <time>2026-07-07T07:21:35Z</time>
      </trkpt>
      <trkpt lat="42.97011" lon="0.32311">
        <ele>1660.3</ele>
        <time>2026-07-07T07:21:36Z</time>
      </trkpt>
      <trkpt lat="42.97011" lon="0.32311">
        <ele>1660.3</ele>
        <time>2026-07-07T07:21:37Z</time>
      </trkpt>
      <trkpt lat="42.97012" lon="0.32312">
        <ele>1660.3</ele>
        <time>2026-07-07T07:21:38Z</time>
      </trkpt>
      <trkpt lat="42.97013" lon="0.32312">
        <ele>1661.3</ele>
        <time>2026-07-07T07:21:39Z</time>
      </trkpt>
      <trkpt lat="42.97013" lon="0.32312">
        <ele>1661.3</ele>
        <time>2026-07-07T07:21:40Z</time>
      </trkpt>
      <trkpt lat="42.97013" lon="0.32312">
        <ele>1662.3</ele>
        <time>2026-07-07T07:21:41Z</time>
      </trkpt>
      <trkpt lat="42.97014" lon="0.32313">
        <ele>1662.3</ele>
        <time>2026-07-07T07:21:42Z</time>
      </trkpt>
      <trkpt lat="42.97014" lon="0.32313">
        <ele>1662.3</ele>
        <time>2026-07-07T07:21:43Z</time>
      </trkpt>
      <trkpt lat="42.97015" lon="0.32313">
        <ele>1663.3</ele>
        <time>2026-07-07T07:21:44Z</time>
      </trkpt>
      <trkpt lat="42.97015" lon="0.32313">
        <ele>1663.3</ele>
        <time>2026-07-07T07:21:45Z</time>
      </trkpt>
      <trkpt lat="42.97015" lon="0.32312">
        <ele>1663.3</ele>
        <time>2026-07-07T07:21:46Z</time>
      </trkpt>
      <trkpt lat="42.97015" lon="0.32312">
        <ele>1662.3</ele>
        <time>2026-07-07T07:21:47Z</time>
      </trkpt>
      <trkpt lat="42.97015" lon="0.32311">
        <ele>1662.3</ele>
        <time>2026-07-07T07:21:48Z</time>
      </trkpt>
      <trkpt lat="42.97015" lon="0.3231">
        <ele>1662.3</ele>
        <time>2026-07-07T07:21:49Z</time>
      </trkpt>
      <trkpt lat="42.97015" lon="0.3231">
        <ele>1663.3</ele>
        <time>2026-07-07T07:21:50Z</time>
      </trkpt>
      <trkpt lat="42.97016" lon="0.32309">
        <ele>1663.3</ele>
        <time>2026-07-07T07:21:51Z</time>
      </trkpt>
      <trkpt lat="42.97016" lon="0.32309">
        <ele>1663.3</ele>
        <time>2026-07-07T07:21:52Z</time>
      </trkpt>
      <trkpt lat="42.97016" lon="0.32309">
        <ele>1663.3</ele>
        <time>2026-07-07T07:21:53Z</time>
      </trkpt>
      <trkpt lat="42.97016" lon="0.32309">
        <ele>1663.3</ele>
        <time>2026-07-07T07:21:54Z</time>
      </trkpt>
      <trkpt lat="42.97017" lon="0.32308">
        <ele>1664.3</ele>
        <time>2026-07-07T07:21:55Z</time>
      </trkpt>
      <trkpt lat="42.97017" lon="0.32308">
        <ele>1664.3</ele>
        <time>2026-07-07T07:21:56Z</time>
      </trkpt>
      <trkpt lat="42.97017" lon="0.32308">
        <ele>1664.3</ele>
        <time>2026-07-07T07:21:57Z</time>
      </trkpt>
      <trkpt lat="42.97017" lon="0.32308">
        <ele>1664.3</ele>
        <time>2026-07-07T07:21:58Z</time>
      </trkpt>
      <trkpt lat="42.97018" lon="0.32308">
        <ele>1665.3</ele>
        <time>2026-07-07T07:21:59Z</time>
      </trkpt>
      <trkpt lat="42.97018" lon="0.32308">
        <ele>1665.3</ele>
        <time>2026-07-07T07:22:00Z</time>
      </trkpt>
      <trkpt lat="42.97018" lon="0.32307">
        <ele>1665.3</ele>
        <time>2026-07-07T07:22:01Z</time>
      </trkpt>
      <trkpt lat="42.97018" lon="0.32307">
        <ele>1665.3</ele>
        <time>2026-07-07T07:22:02Z</time>
      </trkpt>
      <trkpt lat="42.97018" lon="0.32307">
        <ele>1665.3</ele>
        <time>2026-07-07T07:22:03Z</time>
      </trkpt>
      <trkpt lat="42.97019" lon="0.32307">
        <ele>1666.3</ele>
        <time>2026-07-07T07:22:04Z</time>
      </trkpt>
      <trkpt lat="42.97019" lon="0.32306">
        <ele>1666.3</ele>
        <time>2026-07-07T07:22:04Z</time>
      </trkpt>
      <trkpt lat="42.97019" lon="0.32306">
        <ele>1666.3</ele>
        <time>2026-07-07T07:22:05Z</time>
      </trkpt>
      <trkpt lat="42.9702" lon="0.32306">
        <ele>1666.3</ele>
        <time>2026-07-07T07:22:06Z</time>
      </trkpt>
      <trkpt lat="42.9702" lon="0.32305">
        <ele>1667.3</ele>
        <time>2026-07-07T07:22:07Z</time>
      </trkpt>
      <trkpt lat="42.9702" lon="0.32305">
        <ele>1667.3</ele>
        <time>2026-07-07T07:22:08Z</time>
      </trkpt>
      <trkpt lat="42.97021" lon="0.32304">
        <ele>1667.3</ele>
        <time>2026-07-07T07:22:09Z</time>
      </trkpt>
      <trkpt lat="42.97021" lon="0.32304">
        <ele>1667.3</ele>
        <time>2026-07-07T07:22:10Z</time>
      </trkpt>
      <trkpt lat="42.97021" lon="0.32303">
        <ele>1668.3</ele>
        <time>2026-07-07T07:22:10Z</time>
      </trkpt>
      <trkpt lat="42.97021" lon="0.32303">
        <ele>1668.3</ele>
        <time>2026-07-07T07:22:11Z</time>
      </trkpt>
      <trkpt lat="42.97021" lon="0.32303">
        <ele>1668.3</ele>
        <time>2026-07-07T07:22:11Z</time>
      </trkpt>
      <trkpt lat="42.97021" lon="0.32303">
        <ele>1669.3</ele>
        <time>2026-07-07T07:22:12Z</time>
      </trkpt>
      <trkpt lat="42.97021" lon="0.32303">
        <ele>1669.3</ele>
        <time>2026-07-07T07:22:13Z</time>
      </trkpt>
      <trkpt lat="42.97022" lon="0.32303">
        <ele>1669.3</ele>
        <time>2026-07-07T07:22:14Z</time>
      </trkpt>
      <trkpt lat="42.97022" lon="0.32303">
        <ele>1669.3</ele>
        <time>2026-07-07T07:22:15Z</time>
      </trkpt>
      <trkpt lat="42.97023" lon="0.32303">
        <ele>1670.3</ele>
        <time>2026-07-07T07:22:16Z</time>
      </trkpt>
      <trkpt lat="42.97023" lon="0.32304">
        <ele>1670.3</ele>
        <time>2026-07-07T07:22:17Z</time>
      </trkpt>
      <trkpt lat="42.97023" lon="0.32305">
        <ele>1670.3</ele>
        <time>2026-07-07T07:22:17Z</time>
      </trkpt>
      <trkpt lat="42.97022" lon="0.32306">
        <ele>1670.3</ele>
        <time>2026-07-07T07:22:18Z</time>
      </trkpt>
      <trkpt lat="42.97022" lon="0.32307">
        <ele>1670.3</ele>
        <time>2026-07-07T07:22:19Z</time>
      </trkpt>
      <trkpt lat="42.97022" lon="0.32308">
        <ele>1670.3</ele>
        <time>2026-07-07T07:22:19Z</time>
      </trkpt>
      <trkpt lat="42.97021" lon="0.32309">
        <ele>1670.3</ele>
        <time>2026-07-07T07:22:20Z</time>
      </trkpt>
      <trkpt lat="42.97021" lon="0.3231">
        <ele>1670.3</ele>
        <time>2026-07-07T07:22:21Z</time>
      </trkpt>
      <trkpt lat="42.97021" lon="0.3231">
        <ele>1670.3</ele>
        <time>2026-07-07T07:22:22Z</time>
      </trkpt>
      <trkpt lat="42.97021" lon="0.32311">
        <ele>1671.3</ele>
        <time>2026-07-07T07:22:22Z</time>
      </trkpt>
      <trkpt lat="42.9702" lon="0.32312">
        <ele>1671.3</ele>
        <time>2026-07-07T07:22:23Z</time>
      </trkpt>
      <trkpt lat="42.9702" lon="0.32312">
        <ele>1671.3</ele>
        <time>2026-07-07T07:22:24Z</time>
      </trkpt>
      <trkpt lat="42.97019" lon="0.32313">
        <ele>1671.3</ele>
        <time>2026-07-07T07:22:25Z</time>
      </trkpt>
      <trkpt lat="42.97019" lon="0.32313">
        <ele>1671.3</ele>
        <time>2026-07-07T07:22:25Z</time>
      </trkpt>
      <trkpt lat="42.97019" lon="0.32314">
        <ele>1671.3</ele>
        <time>2026-07-07T07:22:26Z</time>
      </trkpt>
      <trkpt lat="42.97019" lon="0.32315">
        <ele>1671.3</ele>
        <time>2026-07-07T07:22:27Z</time>
      </trkpt>
      <trkpt lat="42.97018" lon="0.32315">
        <ele>1671.3</ele>
        <time>2026-07-07T07:22:28Z</time>
      </trkpt>
      <trkpt lat="42.97018" lon="0.32316">
        <ele>1671.3</ele>
        <time>2026-07-07T07:22:29Z</time>
      </trkpt>
      <trkpt lat="42.97018" lon="0.32317">
        <ele>1670.3</ele>
        <time>2026-07-07T07:22:30Z</time>
      </trkpt>
      <trkpt lat="42.97018" lon="0.32317">
        <ele>1670.3</ele>
        <time>2026-07-07T07:22:31Z</time>
      </trkpt>
      <trkpt lat="42.97018" lon="0.32318">
        <ele>1669.3</ele>
        <time>2026-07-07T07:22:32Z</time>
      </trkpt>
      <trkpt lat="42.97019" lon="0.32318">
        <ele>1669.3</ele>
        <time>2026-07-07T07:22:32Z</time>
      </trkpt>
      <trkpt lat="42.97019" lon="0.32319">
        <ele>1669.3</ele>
        <time>2026-07-07T07:22:33Z</time>
      </trkpt>
      <trkpt lat="42.9702" lon="0.3232">
        <ele>1669.3</ele>
        <time>2026-07-07T07:22:34Z</time>
      </trkpt>
      <trkpt lat="42.9702" lon="0.3232">
        <ele>1669.3</ele>
        <time>2026-07-07T07:22:34Z</time>
      </trkpt>
      <trkpt lat="42.97021" lon="0.32321">
        <ele>1669.3</ele>
        <time>2026-07-07T07:22:35Z</time>
      </trkpt>
      <trkpt lat="42.97021" lon="0.32321">
        <ele>1669.3</ele>
        <time>2026-07-07T07:22:35Z</time>
      </trkpt>
      <trkpt lat="42.97021" lon="0.32322">
        <ele>1669.3</ele>
        <time>2026-07-07T07:22:36Z</time>
      </trkpt>
      <trkpt lat="42.97022" lon="0.32323">
        <ele>1670.3</ele>
        <time>2026-07-07T07:22:37Z</time>
      </trkpt>
      <trkpt lat="42.97022" lon="0.32323">
        <ele>1670.3</ele>
        <time>2026-07-07T07:22:37Z</time>
      </trkpt>
      <trkpt lat="42.97022" lon="0.32324">
        <ele>1670.3</ele>
        <time>2026-07-07T07:22:38Z</time>
      </trkpt>
      <trkpt lat="42.97022" lon="0.32325">
        <ele>1670.3</ele>
        <time>2026-07-07T07:22:39Z</time>
      </trkpt>
      <trkpt lat="42.97022" lon="0.32325">
        <ele>1670.3</ele>
        <time>2026-07-07T07:22:39Z</time>
      </trkpt>
      <trkpt lat="42.97022" lon="0.32326">
        <ele>1670.3</ele>
        <time>2026-07-07T07:22:40Z</time>
      </trkpt>
      <trkpt lat="42.97023" lon="0.32326">
        <ele>1669.3</ele>
        <time>2026-07-07T07:22:41Z</time>
      </trkpt>
      <trkpt lat="42.97023" lon="0.32327">
        <ele>1669.3</ele>
        <time>2026-07-07T07:22:41Z</time>
      </trkpt>
      <trkpt lat="42.97023" lon="0.32327">
        <ele>1669.3</ele>
        <time>2026-07-07T07:22:42Z</time>
      </trkpt>
      <trkpt lat="42.97023" lon="0.32328">
        <ele>1669.3</ele>
        <time>2026-07-07T07:22:43Z</time>
      </trkpt>
      <trkpt lat="42.97023" lon="0.32328">
        <ele>1669.3</ele>
        <time>2026-07-07T07:22:44Z</time>
      </trkpt>
      <trkpt lat="42.97023" lon="0.32327">
        <ele>1669.3</ele>
        <time>2026-07-07T07:22:44Z</time>
      </trkpt>
      <trkpt lat="42.97023" lon="0.32328">
        <ele>1669.3</ele>
        <time>2026-07-07T07:22:45Z</time>
      </trkpt>
      <trkpt lat="42.97023" lon="0.32329">
        <ele>1669.3</ele>
        <time>2026-07-07T07:22:46Z</time>
      </trkpt>
      <trkpt lat="42.97023" lon="0.3233">
        <ele>1668.3</ele>
        <time>2026-07-07T07:22:47Z</time>
      </trkpt>
      <trkpt lat="42.97023" lon="0.3233">
        <ele>1668.3</ele>
        <time>2026-07-07T07:22:47Z</time>
      </trkpt>
      <trkpt lat="42.97023" lon="0.32331">
        <ele>1668.3</ele>
        <time>2026-07-07T07:22:48Z</time>
      </trkpt>
      <trkpt lat="42.97023" lon="0.32332">
        <ele>1668.3</ele>
        <time>2026-07-07T07:22:49Z</time>
      </trkpt>
      <trkpt lat="42.97023" lon="0.32333">
        <ele>1668.3</ele>
        <time>2026-07-07T07:22:49Z</time>
      </trkpt>
      <trkpt lat="42.97023" lon="0.32334">
        <ele>1668.3</ele>
        <time>2026-07-07T07:22:50Z</time>
      </trkpt>
      <trkpt lat="42.97022" lon="0.32335">
        <ele>1668.3</ele>
        <time>2026-07-07T07:22:51Z</time>
      </trkpt>
      <trkpt lat="42.97022" lon="0.32336">
        <ele>1668.3</ele>
        <time>2026-07-07T07:22:51Z</time>
      </trkpt>
      <trkpt lat="42.97022" lon="0.32337">
        <ele>1668.3</ele>
        <time>2026-07-07T07:22:52Z</time>
      </trkpt>
      <trkpt lat="42.97022" lon="0.32338">
        <ele>1668.3</ele>
        <time>2026-07-07T07:22:53Z</time>
      </trkpt>
      <trkpt lat="42.97021" lon="0.32339">
        <ele>1668.3</ele>
        <time>2026-07-07T07:22:53Z</time>
      </trkpt>
      <trkpt lat="42.97021" lon="0.3234">
        <ele>1668.3</ele>
        <time>2026-07-07T07:22:54Z</time>
      </trkpt>
      <trkpt lat="42.97021" lon="0.32341">
        <ele>1667.3</ele>
        <time>2026-07-07T07:22:55Z</time>
      </trkpt>
      <trkpt lat="42.97021" lon="0.32342">
        <ele>1668.3</ele>
        <time>2026-07-07T07:22:55Z</time>
      </trkpt>
      <trkpt lat="42.97021" lon="0.32342">
        <ele>1668.3</ele>
        <time>2026-07-07T07:22:56Z</time>
      </trkpt>
      <trkpt lat="42.97021" lon="0.32343">
        <ele>1667.3</ele>
        <time>2026-07-07T07:22:57Z</time>
      </trkpt>
      <trkpt lat="42.97021" lon="0.32344">
        <ele>1667.3</ele>
        <time>2026-07-07T07:22:57Z</time>
      </trkpt>
      <trkpt lat="42.97021" lon="0.32345">
        <ele>1667.3</ele>
        <time>2026-07-07T07:22:58Z</time>
      </trkpt>
      <trkpt lat="42.97022" lon="0.32345">
        <ele>1667.3</ele>
        <time>2026-07-07T07:22:58Z</time>
      </trkpt>
      <trkpt lat="42.97022" lon="0.32347">
        <ele>1667.3</ele>
        <time>2026-07-07T07:22:59Z</time>
      </trkpt>
      <trkpt lat="42.97022" lon="0.32348">
        <ele>1667.3</ele>
        <time>2026-07-07T07:23:00Z</time>
      </trkpt>
      <trkpt lat="42.97022" lon="0.32348">
        <ele>1668.3</ele>
        <time>2026-07-07T07:23:01Z</time>
      </trkpt>
      <trkpt lat="42.97022" lon="0.32349">
        <ele>1668.3</ele>
        <time>2026-07-07T07:23:01Z</time>
      </trkpt>
      <trkpt lat="42.97022" lon="0.3235">
        <ele>1668.3</ele>
        <time>2026-07-07T07:23:02Z</time>
      </trkpt>
      <trkpt lat="42.97023" lon="0.32351">
        <ele>1668.3</ele>
        <time>2026-07-07T07:23:03Z</time>
      </trkpt>
      <trkpt lat="42.97023" lon="0.32352">
        <ele>1667.3</ele>
        <time>2026-07-07T07:23:03Z</time>
      </trkpt>
      <trkpt lat="42.97023" lon="0.32353">
        <ele>1667.3</ele>
        <time>2026-07-07T07:23:04Z</time>
      </trkpt>
      <trkpt lat="42.97023" lon="0.32354">
        <ele>1667.3</ele>
        <time>2026-07-07T07:23:05Z</time>
      </trkpt>
      <trkpt lat="42.97023" lon="0.32355">
        <ele>1667.3</ele>
        <time>2026-07-07T07:23:05Z</time>
      </trkpt>
      <trkpt lat="42.97023" lon="0.32356">
        <ele>1667.3</ele>
        <time>2026-07-07T07:23:06Z</time>
      </trkpt>
      <trkpt lat="42.97023" lon="0.32357">
        <ele>1667.3</ele>
        <time>2026-07-07T07:23:07Z</time>
      </trkpt>
      <trkpt lat="42.97023" lon="0.32358">
        <ele>1667.3</ele>
        <time>2026-07-07T07:23:07Z</time>
      </trkpt>
      <trkpt lat="42.97023" lon="0.32359">
        <ele>1667.3</ele>
        <time>2026-07-07T07:23:08Z</time>
      </trkpt>
      <trkpt lat="42.97023" lon="0.3236">
        <ele>1667.3</ele>
        <time>2026-07-07T07:23:09Z</time>
      </trkpt>
      <trkpt lat="42.97024" lon="0.32361">
        <ele>1666.3</ele>
        <time>2026-07-07T07:23:10Z</time>
      </trkpt>
      <trkpt lat="42.97024" lon="0.32361">
        <ele>1666.3</ele>
        <time>2026-07-07T07:23:10Z</time>
      </trkpt>
      <trkpt lat="42.97024" lon="0.32362">
        <ele>1666.3</ele>
        <time>2026-07-07T07:23:11Z</time>
      </trkpt>
      <trkpt lat="42.97024" lon="0.32363">
        <ele>1666.3</ele>
        <time>2026-07-07T07:23:12Z</time>
      </trkpt>
      <trkpt lat="42.97024" lon="0.32364">
        <ele>1666.3</ele>
        <time>2026-07-07T07:23:12Z</time>
      </trkpt>
      <trkpt lat="42.97024" lon="0.32365">
        <ele>1666.3</ele>
        <time>2026-07-07T07:23:13Z</time>
      </trkpt>
      <trkpt lat="42.97025" lon="0.32366">
        <ele>1666.3</ele>
        <time>2026-07-07T07:23:14Z</time>
      </trkpt>
      <trkpt lat="42.97025" lon="0.32366">
        <ele>1666.3</ele>
        <time>2026-07-07T07:23:14Z</time>
      </trkpt>
      <trkpt lat="42.97025" lon="0.32367">
        <ele>1666.3</ele>
        <time>2026-07-07T07:23:15Z</time>
      </trkpt>
      <trkpt lat="42.97025" lon="0.32368">
        <ele>1666.3</ele>
        <time>2026-07-07T07:23:15Z</time>
      </trkpt>
      <trkpt lat="42.97026" lon="0.32369">
        <ele>1666.3</ele>
        <time>2026-07-07T07:23:16Z</time>
      </trkpt>
      <trkpt lat="42.97026" lon="0.3237">
        <ele>1666.3</ele>
        <time>2026-07-07T07:23:17Z</time>
      </trkpt>
      <trkpt lat="42.97026" lon="0.32371">
        <ele>1666.3</ele>
        <time>2026-07-07T07:23:17Z</time>
      </trkpt>
      <trkpt lat="42.97027" lon="0.32373">
        <ele>1665.3</ele>
        <time>2026-07-07T07:23:18Z</time>
      </trkpt>
      <trkpt lat="42.97027" lon="0.32373">
        <ele>1665.3</ele>
        <time>2026-07-07T07:23:19Z</time>
      </trkpt>
      <trkpt lat="42.97028" lon="0.32374">
        <ele>1665.3</ele>
        <time>2026-07-07T07:23:19Z</time>
      </trkpt>
      <trkpt lat="42.97028" lon="0.32375">
        <ele>1665.3</ele>
        <time>2026-07-07T07:23:20Z</time>
      </trkpt>
      <trkpt lat="42.97029" lon="0.32376">
        <ele>1665.3</ele>
        <time>2026-07-07T07:23:21Z</time>
      </trkpt>
      <trkpt lat="42.97029" lon="0.32377">
        <ele>1665.3</ele>
        <time>2026-07-07T07:23:21Z</time>
      </trkpt>
      <trkpt lat="42.97029" lon="0.32377">
        <ele>1665.3</ele>
        <time>2026-07-07T07:23:22Z</time>
      </trkpt>
      <trkpt lat="42.9703" lon="0.32378">
        <ele>1665.3</ele>
        <time>2026-07-07T07:23:22Z</time>
      </trkpt>
      <trkpt lat="42.9703" lon="0.32378">
        <ele>1665.3</ele>
        <time>2026-07-07T07:23:23Z</time>
      </trkpt>
      <trkpt lat="42.97031" lon="0.32379">
        <ele>1665.3</ele>
        <time>2026-07-07T07:23:24Z</time>
      </trkpt>
      <trkpt lat="42.97031" lon="0.3238">
        <ele>1665.3</ele>
        <time>2026-07-07T07:23:24Z</time>
      </trkpt>
      <trkpt lat="42.97031" lon="0.3238">
        <ele>1664.3</ele>
        <time>2026-07-07T07:23:25Z</time>
      </trkpt>
      <trkpt lat="42.97031" lon="0.32381">
        <ele>1664.3</ele>
        <time>2026-07-07T07:23:25Z</time>
      </trkpt>
      <trkpt lat="42.97031" lon="0.32382">
        <ele>1664.3</ele>
        <time>2026-07-07T07:23:26Z</time>
      </trkpt>
      <trkpt lat="42.97031" lon="0.32383">
        <ele>1664.3</ele>
        <time>2026-07-07T07:23:27Z</time>
      </trkpt>
      <trkpt lat="42.97031" lon="0.32384">
        <ele>1664.3</ele>
        <time>2026-07-07T07:23:27Z</time>
      </trkpt>
      <trkpt lat="42.97031" lon="0.32385">
        <ele>1663.3</ele>
        <time>2026-07-07T07:23:28Z</time>
      </trkpt>
      <trkpt lat="42.97031" lon="0.32386">
        <ele>1663.3</ele>
        <time>2026-07-07T07:23:29Z</time>
      </trkpt>
      <trkpt lat="42.97031" lon="0.32386">
        <ele>1664.3</ele>
        <time>2026-07-07T07:23:30Z</time>
      </trkpt>
      <trkpt lat="42.9703" lon="0.32387">
        <ele>1664.3</ele>
        <time>2026-07-07T07:23:30Z</time>
      </trkpt>
      <trkpt lat="42.97031" lon="0.32387">
        <ele>1663.3</ele>
        <time>2026-07-07T07:23:31Z</time>
      </trkpt>
      <trkpt lat="42.97031" lon="0.32388">
        <ele>1664.3</ele>
        <time>2026-07-07T07:23:32Z</time>
      </trkpt>
      <trkpt lat="42.97031" lon="0.32389">
        <ele>1663.3</ele>
        <time>2026-07-07T07:23:33Z</time>
      </trkpt>
      <trkpt lat="42.97031" lon="0.3239">
        <ele>1663.3</ele>
        <time>2026-07-07T07:23:33Z</time>
      </trkpt>
      <trkpt lat="42.97032" lon="0.32391">
        <ele>1663.3</ele>
        <time>2026-07-07T07:23:34Z</time>
      </trkpt>
      <trkpt lat="42.97032" lon="0.32391">
        <ele>1663.3</ele>
        <time>2026-07-07T07:23:34Z</time>
      </trkpt>
      <trkpt lat="42.97033" lon="0.32392">
        <ele>1663.3</ele>
        <time>2026-07-07T07:23:35Z</time>
      </trkpt>
      <trkpt lat="42.97033" lon="0.32393">
        <ele>1663.3</ele>
        <time>2026-07-07T07:23:35Z</time>
      </trkpt>
      <trkpt lat="42.97033" lon="0.32393">
        <ele>1663.3</ele>
        <time>2026-07-07T07:23:36Z</time>
      </trkpt>
      <trkpt lat="42.97034" lon="0.32394">
        <ele>1663.3</ele>
        <time>2026-07-07T07:23:36Z</time>
      </trkpt>
      <trkpt lat="42.97034" lon="0.32395">
        <ele>1663.3</ele>
        <time>2026-07-07T07:23:37Z</time>
      </trkpt>
      <trkpt lat="42.97034" lon="0.32396">
        <ele>1663.3</ele>
        <time>2026-07-07T07:23:38Z</time>
      </trkpt>
      <trkpt lat="42.97034" lon="0.32397">
        <ele>1663.3</ele>
        <time>2026-07-07T07:23:38Z</time>
      </trkpt>
      <trkpt lat="42.97034" lon="0.32399">
        <ele>1663.3</ele>
        <time>2026-07-07T07:23:39Z</time>
      </trkpt>
      <trkpt lat="42.97034" lon="0.32401">
        <ele>1663.3</ele>
        <time>2026-07-07T07:23:40Z</time>
      </trkpt>
      <trkpt lat="42.97034" lon="0.32401">
        <ele>1663.3</ele>
        <time>2026-07-07T07:23:41Z</time>
      </trkpt>
      <trkpt lat="42.97035" lon="0.32402">
        <ele>1663.3</ele>
        <time>2026-07-07T07:23:41Z</time>
      </trkpt>
      <trkpt lat="42.97035" lon="0.32403">
        <ele>1663.3</ele>
        <time>2026-07-07T07:23:42Z</time>
      </trkpt>
      <trkpt lat="42.97035" lon="0.32404">
        <ele>1662.3</ele>
        <time>2026-07-07T07:23:42Z</time>
      </trkpt>
      <trkpt lat="42.97035" lon="0.32405">
        <ele>1662.3</ele>
        <time>2026-07-07T07:23:43Z</time>
      </trkpt>
      <trkpt lat="42.97036" lon="0.32407">
        <ele>1663.3</ele>
        <time>2026-07-07T07:23:44Z</time>
      </trkpt>
      <trkpt lat="42.97036" lon="0.32408">
        <ele>1662.3</ele>
        <time>2026-07-07T07:23:45Z</time>
      </trkpt>
      <trkpt lat="42.97036" lon="0.32408">
        <ele>1663.3</ele>
        <time>2026-07-07T07:23:45Z</time>
      </trkpt>
      <trkpt lat="42.97036" lon="0.32409">
        <ele>1663.3</ele>
        <time>2026-07-07T07:23:46Z</time>
      </trkpt>
      <trkpt lat="42.97036" lon="0.3241">
        <ele>1664.3</ele>
        <time>2026-07-07T07:23:46Z</time>
      </trkpt>
      <trkpt lat="42.97036" lon="0.32411">
        <ele>1664.3</ele>
        <time>2026-07-07T07:23:47Z</time>
      </trkpt>
      <trkpt lat="42.97036" lon="0.32412">
        <ele>1663.3</ele>
        <time>2026-07-07T07:23:47Z</time>
      </trkpt>
      <trkpt lat="42.97036" lon="0.32413">
        <ele>1663.3</ele>
        <time>2026-07-07T07:23:48Z</time>
      </trkpt>
      <trkpt lat="42.97036" lon="0.32414">
        <ele>1663.3</ele>
        <time>2026-07-07T07:23:49Z</time>
      </trkpt>
      <trkpt lat="42.97036" lon="0.32415">
        <ele>1663.3</ele>
        <time>2026-07-07T07:23:49Z</time>
      </trkpt>
      <trkpt lat="42.97037" lon="0.32416">
        <ele>1663.3</ele>
        <time>2026-07-07T07:23:50Z</time>
      </trkpt>
      <trkpt lat="42.97037" lon="0.32417">
        <ele>1663.3</ele>
        <time>2026-07-07T07:23:50Z</time>
      </trkpt>
      <trkpt lat="42.97037" lon="0.32418">
        <ele>1663.3</ele>
        <time>2026-07-07T07:23:51Z</time>
      </trkpt>
      <trkpt lat="42.97037" lon="0.32419">
        <ele>1663.3</ele>
        <time>2026-07-07T07:23:51Z</time>
      </trkpt>
      <trkpt lat="42.97037" lon="0.3242">
        <ele>1663.3</ele>
        <time>2026-07-07T07:23:52Z</time>
      </trkpt>
      <trkpt lat="42.97037" lon="0.3242">
        <ele>1663.3</ele>
        <time>2026-07-07T07:23:53Z</time>
      </trkpt>
      <trkpt lat="42.97038" lon="0.32421">
        <ele>1663.3</ele>
        <time>2026-07-07T07:23:53Z</time>
      </trkpt>
      <trkpt lat="42.97038" lon="0.32422">
        <ele>1663.3</ele>
        <time>2026-07-07T07:23:54Z</time>
      </trkpt>
      <trkpt lat="42.97038" lon="0.32423">
        <ele>1663.3</ele>
        <time>2026-07-07T07:23:55Z</time>
      </trkpt>
      <trkpt lat="42.97038" lon="0.32424">
        <ele>1663.3</ele>
        <time>2026-07-07T07:23:55Z</time>
      </trkpt>
      <trkpt lat="42.97038" lon="0.32425">
        <ele>1662.3</ele>
        <time>2026-07-07T07:23:56Z</time>
      </trkpt>
      <trkpt lat="42.97038" lon="0.32425">
        <ele>1663.3</ele>
        <time>2026-07-07T07:23:56Z</time>
      </trkpt>
      <trkpt lat="42.97038" lon="0.32426">
        <ele>1663.3</ele>
        <time>2026-07-07T07:23:57Z</time>
      </trkpt>
      <trkpt lat="42.97038" lon="0.32427">
        <ele>1663.3</ele>
        <time>2026-07-07T07:23:57Z</time>
      </trkpt>
      <trkpt lat="42.97039" lon="0.32428">
        <ele>1663.3</ele>
        <time>2026-07-07T07:23:58Z</time>
      </trkpt>
      <trkpt lat="42.97039" lon="0.32429">
        <ele>1663.3</ele>
        <time>2026-07-07T07:23:59Z</time>
      </trkpt>
      <trkpt lat="42.97039" lon="0.3243">
        <ele>1663.3</ele>
        <time>2026-07-07T07:23:59Z</time>
      </trkpt>
      <trkpt lat="42.97039" lon="0.32431">
        <ele>1663.3</ele>
        <time>2026-07-07T07:24:00Z</time>
      </trkpt>
      <trkpt lat="42.9704" lon="0.32432">
        <ele>1662.3</ele>
        <time>2026-07-07T07:24:00Z</time>
      </trkpt>
      <trkpt lat="42.9704" lon="0.32432">
        <ele>1662.3</ele>
        <time>2026-07-07T07:24:01Z</time>
      </trkpt>
      <trkpt lat="42.9704" lon="0.32433">
        <ele>1662.3</ele>
        <time>2026-07-07T07:24:02Z</time>
      </trkpt>
      <trkpt lat="42.97041" lon="0.32433">
        <ele>1662.3</ele>
        <time>2026-07-07T07:24:02Z</time>
      </trkpt>
      <trkpt lat="42.97041" lon="0.32434">
        <ele>1662.3</ele>
        <time>2026-07-07T07:24:03Z</time>
      </trkpt>
      <trkpt lat="42.97042" lon="0.32435">
        <ele>1662.3</ele>
        <time>2026-07-07T07:24:04Z</time>
      </trkpt>
      <trkpt lat="42.97042" lon="0.32436">
        <ele>1662.3</ele>
        <time>2026-07-07T07:24:04Z</time>
      </trkpt>
      <trkpt lat="42.97043" lon="0.32436">
        <ele>1663.3</ele>
        <time>2026-07-07T07:24:05Z</time>
      </trkpt>
      <trkpt lat="42.97043" lon="0.32437">
        <ele>1663.3</ele>
        <time>2026-07-07T07:24:05Z</time>
      </trkpt>
      <trkpt lat="42.97044" lon="0.32438">
        <ele>1663.3</ele>
        <time>2026-07-07T07:24:06Z</time>
      </trkpt>
      <trkpt lat="42.97044" lon="0.32439">
        <ele>1664.3</ele>
        <time>2026-07-07T07:24:06Z</time>
      </trkpt>
      <trkpt lat="42.97045" lon="0.3244">
        <ele>1664.3</ele>
        <time>2026-07-07T07:24:07Z</time>
      </trkpt>
      <trkpt lat="42.97046" lon="0.32442">
        <ele>1664.3</ele>
        <time>2026-07-07T07:24:08Z</time>
      </trkpt>
      <trkpt lat="42.97046" lon="0.32443">
        <ele>1664.3</ele>
        <time>2026-07-07T07:24:09Z</time>
      </trkpt>
      <trkpt lat="42.97047" lon="0.32444">
        <ele>1664.3</ele>
        <time>2026-07-07T07:24:10Z</time>
      </trkpt>
      <trkpt lat="42.97048" lon="0.32445">
        <ele>1664.3</ele>
        <time>2026-07-07T07:24:11Z</time>
      </trkpt>
      <trkpt lat="42.97048" lon="0.32446">
        <ele>1664.3</ele>
        <time>2026-07-07T07:24:11Z</time>
      </trkpt>
      <trkpt lat="42.97048" lon="0.32447">
        <ele>1663.3</ele>
        <time>2026-07-07T07:24:12Z</time>
      </trkpt>
      <trkpt lat="42.97048" lon="0.32448">
        <ele>1663.3</ele>
        <time>2026-07-07T07:24:12Z</time>
      </trkpt>
      <trkpt lat="42.97049" lon="0.32448">
        <ele>1663.3</ele>
        <time>2026-07-07T07:24:13Z</time>
      </trkpt>
      <trkpt lat="42.97049" lon="0.32449">
        <ele>1663.3</ele>
        <time>2026-07-07T07:24:13Z</time>
      </trkpt>
      <trkpt lat="42.97049" lon="0.3245">
        <ele>1663.3</ele>
        <time>2026-07-07T07:24:14Z</time>
      </trkpt>
      <trkpt lat="42.97049" lon="0.32451">
        <ele>1663.3</ele>
        <time>2026-07-07T07:24:15Z</time>
      </trkpt>
      <trkpt lat="42.97049" lon="0.32452">
        <ele>1663.3</ele>
        <time>2026-07-07T07:24:15Z</time>
      </trkpt>
      <trkpt lat="42.9705" lon="0.32453">
        <ele>1663.3</ele>
        <time>2026-07-07T07:24:16Z</time>
      </trkpt>
      <trkpt lat="42.9705" lon="0.32454">
        <ele>1663.3</ele>
        <time>2026-07-07T07:24:16Z</time>
      </trkpt>
      <trkpt lat="42.9705" lon="0.32455">
        <ele>1664.3</ele>
        <time>2026-07-07T07:24:17Z</time>
      </trkpt>
      <trkpt lat="42.9705" lon="0.32455">
        <ele>1664.3</ele>
        <time>2026-07-07T07:24:17Z</time>
      </trkpt>
      <trkpt lat="42.97051" lon="0.32456">
        <ele>1663.3</ele>
        <time>2026-07-07T07:24:18Z</time>
      </trkpt>
      <trkpt lat="42.97051" lon="0.32457">
        <ele>1663.3</ele>
        <time>2026-07-07T07:24:18Z</time>
      </trkpt>
      <trkpt lat="42.97051" lon="0.32458">
        <ele>1663.3</ele>
        <time>2026-07-07T07:24:19Z</time>
      </trkpt>
      <trkpt lat="42.97051" lon="0.32458">
        <ele>1663.3</ele>
        <time>2026-07-07T07:24:20Z</time>
      </trkpt>
      <trkpt lat="42.97052" lon="0.32459">
        <ele>1663.3</ele>
        <time>2026-07-07T07:24:20Z</time>
      </trkpt>
      <trkpt lat="42.97052" lon="0.3246">
        <ele>1663.3</ele>
        <time>2026-07-07T07:24:21Z</time>
      </trkpt>
      <trkpt lat="42.97052" lon="0.32461">
        <ele>1663.3</ele>
        <time>2026-07-07T07:24:21Z</time>
      </trkpt>
      <trkpt lat="42.97052" lon="0.32461">
        <ele>1663.3</ele>
        <time>2026-07-07T07:24:22Z</time>
      </trkpt>
      <trkpt lat="42.97053" lon="0.32462">
        <ele>1663.3</ele>
        <time>2026-07-07T07:24:22Z</time>
      </trkpt>
      <trkpt lat="42.97053" lon="0.32463">
        <ele>1663.3</ele>
        <time>2026-07-07T07:24:23Z</time>
      </trkpt>
      <trkpt lat="42.97053" lon="0.32464">
        <ele>1663.3</ele>
        <time>2026-07-07T07:24:23Z</time>
      </trkpt>
      <trkpt lat="42.97053" lon="0.32465">
        <ele>1663.3</ele>
        <time>2026-07-07T07:24:24Z</time>
      </trkpt>
      <trkpt lat="42.97054" lon="0.32465">
        <ele>1663.3</ele>
        <time>2026-07-07T07:24:25Z</time>
      </trkpt>
      <trkpt lat="42.97054" lon="0.32466">
        <ele>1662.3</ele>
        <time>2026-07-07T07:24:25Z</time>
      </trkpt>
      <trkpt lat="42.97054" lon="0.32467">
        <ele>1662.3</ele>
        <time>2026-07-07T07:24:26Z</time>
      </trkpt>
      <trkpt lat="42.97054" lon="0.32467">
        <ele>1662.3</ele>
        <time>2026-07-07T07:24:27Z</time>
      </trkpt>
      <trkpt lat="42.97055" lon="0.32468">
        <ele>1662.3</ele>
        <time>2026-07-07T07:24:27Z</time>
      </trkpt>
      <trkpt lat="42.97055" lon="0.32469">
        <ele>1662.3</ele>
        <time>2026-07-07T07:24:28Z</time>
      </trkpt>
      <trkpt lat="42.97055" lon="0.32469">
        <ele>1662.3</ele>
        <time>2026-07-07T07:24:29Z</time>
      </trkpt>
      <trkpt lat="42.97055" lon="0.3247">
        <ele>1662.3</ele>
        <time>2026-07-07T07:24:29Z</time>
      </trkpt>
      <trkpt lat="42.97056" lon="0.32471">
        <ele>1662.3</ele>
        <time>2026-07-07T07:24:30Z</time>
      </trkpt>
      <trkpt lat="42.97056" lon="0.32471">
        <ele>1663.3</ele>
        <time>2026-07-07T07:24:31Z</time>
      </trkpt>
      <trkpt lat="42.97056" lon="0.32472">
        <ele>1663.3</ele>
        <time>2026-07-07T07:24:31Z</time>
      </trkpt>
      <trkpt lat="42.97057" lon="0.32473">
        <ele>1663.3</ele>
        <time>2026-07-07T07:24:32Z</time>
      </trkpt>
      <trkpt lat="42.97057" lon="0.32474">
        <ele>1663.3</ele>
        <time>2026-07-07T07:24:32Z</time>
      </trkpt>
      <trkpt lat="42.97057" lon="0.32475">
        <ele>1663.3</ele>
        <time>2026-07-07T07:24:33Z</time>
      </trkpt>
      <trkpt lat="42.97058" lon="0.32476">
        <ele>1663.3</ele>
        <time>2026-07-07T07:24:34Z</time>
      </trkpt>
      <trkpt lat="42.97058" lon="0.32477">
        <ele>1663.3</ele>
        <time>2026-07-07T07:24:34Z</time>
      </trkpt>
      <trkpt lat="42.97058" lon="0.32478">
        <ele>1663.3</ele>
        <time>2026-07-07T07:24:35Z</time>
      </trkpt>
      <trkpt lat="42.97058" lon="0.32479">
        <ele>1663.3</ele>
        <time>2026-07-07T07:24:35Z</time>
      </trkpt>
      <trkpt lat="42.97059" lon="0.3248">
        <ele>1662.3</ele>
        <time>2026-07-07T07:24:36Z</time>
      </trkpt>
      <trkpt lat="42.97059" lon="0.3248">
        <ele>1663.3</ele>
        <time>2026-07-07T07:24:36Z</time>
      </trkpt>
      <trkpt lat="42.97059" lon="0.32482">
        <ele>1663.3</ele>
        <time>2026-07-07T07:24:37Z</time>
      </trkpt>
      <trkpt lat="42.97059" lon="0.32482">
        <ele>1662.3</ele>
        <time>2026-07-07T07:24:37Z</time>
      </trkpt>
      <trkpt lat="42.9706" lon="0.32483">
        <ele>1662.3</ele>
        <time>2026-07-07T07:24:38Z</time>
      </trkpt>
      <trkpt lat="42.9706" lon="0.32484">
        <ele>1662.3</ele>
        <time>2026-07-07T07:24:39Z</time>
      </trkpt>
      <trkpt lat="42.9706" lon="0.32485">
        <ele>1663.3</ele>
        <time>2026-07-07T07:24:39Z</time>
      </trkpt>
      <trkpt lat="42.9706" lon="0.32486">
        <ele>1663.3</ele>
        <time>2026-07-07T07:24:40Z</time>
      </trkpt>
      <trkpt lat="42.9706" lon="0.32487">
        <ele>1662.3</ele>
        <time>2026-07-07T07:24:40Z</time>
      </trkpt>
      <trkpt lat="42.9706" lon="0.32488">
        <ele>1662.3</ele>
        <time>2026-07-07T07:24:41Z</time>
      </trkpt>
      <trkpt lat="42.97061" lon="0.32489">
        <ele>1662.3</ele>
        <time>2026-07-07T07:24:42Z</time>
      </trkpt>
      <trkpt lat="42.97061" lon="0.3249">
        <ele>1662.3</ele>
        <time>2026-07-07T07:24:42Z</time>
      </trkpt>
      <trkpt lat="42.97061" lon="0.32491">
        <ele>1662.3</ele>
        <time>2026-07-07T07:24:43Z</time>
      </trkpt>
      <trkpt lat="42.97061" lon="0.32492">
        <ele>1662.3</ele>
        <time>2026-07-07T07:24:43Z</time>
      </trkpt>
      <trkpt lat="42.97061" lon="0.32493">
        <ele>1662.3</ele>
        <time>2026-07-07T07:24:44Z</time>
      </trkpt>
      <trkpt lat="42.97062" lon="0.32494">
        <ele>1663.3</ele>
        <time>2026-07-07T07:24:44Z</time>
      </trkpt>
      <trkpt lat="42.97062" lon="0.32495">
        <ele>1663.3</ele>
        <time>2026-07-07T07:24:45Z</time>
      </trkpt>
      <trkpt lat="42.97062" lon="0.32496">
        <ele>1663.3</ele>
        <time>2026-07-07T07:24:45Z</time>
      </trkpt>
      <trkpt lat="42.97063" lon="0.32497">
        <ele>1663.3</ele>
        <time>2026-07-07T07:24:46Z</time>
      </trkpt>
      <trkpt lat="42.97063" lon="0.32498">
        <ele>1663.3</ele>
        <time>2026-07-07T07:24:47Z</time>
      </trkpt>
      <trkpt lat="42.97063" lon="0.32499">
        <ele>1663.3</ele>
        <time>2026-07-07T07:24:47Z</time>
      </trkpt>
      <trkpt lat="42.97063" lon="0.325">
        <ele>1663.3</ele>
        <time>2026-07-07T07:24:48Z</time>
      </trkpt>
      <trkpt lat="42.97064" lon="0.32501">
        <ele>1663.3</ele>
        <time>2026-07-07T07:24:49Z</time>
      </trkpt>
      <trkpt lat="42.97064" lon="0.32502">
        <ele>1664.3</ele>
        <time>2026-07-07T07:24:49Z</time>
      </trkpt>
      <trkpt lat="42.97064" lon="0.32502">
        <ele>1664.3</ele>
        <time>2026-07-07T07:24:50Z</time>
      </trkpt>
      <trkpt lat="42.97065" lon="0.32503">
        <ele>1663.3</ele>
        <time>2026-07-07T07:24:51Z</time>
      </trkpt>
      <trkpt lat="42.97065" lon="0.32504">
        <ele>1663.3</ele>
        <time>2026-07-07T07:24:51Z</time>
      </trkpt>
      <trkpt lat="42.97065" lon="0.32504">
        <ele>1664.3</ele>
        <time>2026-07-07T07:24:52Z</time>
      </trkpt>
      <trkpt lat="42.97066" lon="0.32504">
        <ele>1664.3</ele>
        <time>2026-07-07T07:24:53Z</time>
      </trkpt>
      <trkpt lat="42.97067" lon="0.32505">
        <ele>1664.3</ele>
        <time>2026-07-07T07:24:53Z</time>
      </trkpt>
      <trkpt lat="42.97067" lon="0.32505">
        <ele>1664.3</ele>
        <time>2026-07-07T07:24:54Z</time>
      </trkpt>
      <trkpt lat="42.97068" lon="0.32506">
        <ele>1664.3</ele>
        <time>2026-07-07T07:24:55Z</time>
      </trkpt>
      <trkpt lat="42.97068" lon="0.32506">
        <ele>1664.3</ele>
        <time>2026-07-07T07:24:55Z</time>
      </trkpt>
      <trkpt lat="42.97069" lon="0.32507">
        <ele>1664.3</ele>
        <time>2026-07-07T07:24:56Z</time>
      </trkpt>
      <trkpt lat="42.97069" lon="0.32508">
        <ele>1664.3</ele>
        <time>2026-07-07T07:24:56Z</time>
      </trkpt>
      <trkpt lat="42.97069" lon="0.32508">
        <ele>1663.3</ele>
        <time>2026-07-07T07:24:57Z</time>
      </trkpt>
      <trkpt lat="42.97069" lon="0.32509">
        <ele>1663.3</ele>
        <time>2026-07-07T07:24:57Z</time>
      </trkpt>
      <trkpt lat="42.9707" lon="0.32511">
        <ele>1663.3</ele>
        <time>2026-07-07T07:24:58Z</time>
      </trkpt>
      <trkpt lat="42.9707" lon="0.32511">
        <ele>1663.3</ele>
        <time>2026-07-07T07:24:59Z</time>
      </trkpt>
      <trkpt lat="42.9707" lon="0.32512">
        <ele>1663.3</ele>
        <time>2026-07-07T07:24:59Z</time>
      </trkpt>
      <trkpt lat="42.9707" lon="0.32513">
        <ele>1663.3</ele>
        <time>2026-07-07T07:25:00Z</time>
      </trkpt>
      <trkpt lat="42.97071" lon="0.32514">
        <ele>1663.3</ele>
        <time>2026-07-07T07:25:01Z</time>
      </trkpt>
      <trkpt lat="42.97071" lon="0.32515">
        <ele>1663.3</ele>
        <time>2026-07-07T07:25:01Z</time>
      </trkpt>
      <trkpt lat="42.97071" lon="0.32516">
        <ele>1663.3</ele>
        <time>2026-07-07T07:25:02Z</time>
      </trkpt>
      <trkpt lat="42.97071" lon="0.32517">
        <ele>1663.3</ele>
        <time>2026-07-07T07:25:03Z</time>
      </trkpt>
      <trkpt lat="42.97072" lon="0.32517">
        <ele>1663.3</ele>
        <time>2026-07-07T07:25:03Z</time>
      </trkpt>
      <trkpt lat="42.97072" lon="0.32518">
        <ele>1663.3</ele>
        <time>2026-07-07T07:25:04Z</time>
      </trkpt>
      <trkpt lat="42.97073" lon="0.32519">
        <ele>1663.3</ele>
        <time>2026-07-07T07:25:05Z</time>
      </trkpt>
      <trkpt lat="42.97073" lon="0.32519">
        <ele>1664.3</ele>
        <time>2026-07-07T07:25:05Z</time>
      </trkpt>
      <trkpt lat="42.97073" lon="0.3252">
        <ele>1664.3</ele>
        <time>2026-07-07T07:25:06Z</time>
      </trkpt>
      <trkpt lat="42.97074" lon="0.32521">
        <ele>1664.3</ele>
        <time>2026-07-07T07:25:07Z</time>
      </trkpt>
      <trkpt lat="42.97074" lon="0.32521">
        <ele>1664.3</ele>
        <time>2026-07-07T07:25:07Z</time>
      </trkpt>
      <trkpt lat="42.97074" lon="0.32522">
        <ele>1664.3</ele>
        <time>2026-07-07T07:25:08Z</time>
      </trkpt>
      <trkpt lat="42.97075" lon="0.32522">
        <ele>1665.3</ele>
        <time>2026-07-07T07:25:09Z</time>
      </trkpt>
      <trkpt lat="42.97075" lon="0.32523">
        <ele>1664.3</ele>
        <time>2026-07-07T07:25:09Z</time>
      </trkpt>
      <trkpt lat="42.97076" lon="0.32523">
        <ele>1664.3</ele>
        <time>2026-07-07T07:25:10Z</time>
      </trkpt>
      <trkpt lat="42.97076" lon="0.32524">
        <ele>1665.3</ele>
        <time>2026-07-07T07:25:11Z</time>
      </trkpt>
      <trkpt lat="42.97077" lon="0.32525">
        <ele>1665.3</ele>
        <time>2026-07-07T07:25:11Z</time>
      </trkpt>
      <trkpt lat="42.97077" lon="0.32525">
        <ele>1665.3</ele>
        <time>2026-07-07T07:25:12Z</time>
      </trkpt>
      <trkpt lat="42.97078" lon="0.32526">
        <ele>1664.3</ele>
        <time>2026-07-07T07:25:12Z</time>
      </trkpt>
      <trkpt lat="42.97078" lon="0.32526">
        <ele>1664.3</ele>
        <time>2026-07-07T07:25:13Z</time>
      </trkpt>
      <trkpt lat="42.97079" lon="0.32527">
        <ele>1664.3</ele>
        <time>2026-07-07T07:25:14Z</time>
      </trkpt>
      <trkpt lat="42.97079" lon="0.32528">
        <ele>1664.3</ele>
        <time>2026-07-07T07:25:14Z</time>
      </trkpt>
      <trkpt lat="42.9708" lon="0.32528">
        <ele>1664.3</ele>
        <time>2026-07-07T07:25:15Z</time>
      </trkpt>
      <trkpt lat="42.9708" lon="0.32529">
        <ele>1664.3</ele>
        <time>2026-07-07T07:25:16Z</time>
      </trkpt>
      <trkpt lat="42.9708" lon="0.3253">
        <ele>1664.3</ele>
        <time>2026-07-07T07:25:16Z</time>
      </trkpt>
      <trkpt lat="42.97081" lon="0.32531">
        <ele>1664.3</ele>
        <time>2026-07-07T07:25:17Z</time>
      </trkpt>
      <trkpt lat="42.97081" lon="0.32532">
        <ele>1664.3</ele>
        <time>2026-07-07T07:25:18Z</time>
      </trkpt>
      <trkpt lat="42.97081" lon="0.32533">
        <ele>1664.3</ele>
        <time>2026-07-07T07:25:18Z</time>
      </trkpt>
      <trkpt lat="42.97081" lon="0.32534">
        <ele>1664.3</ele>
        <time>2026-07-07T07:25:19Z</time>
      </trkpt>
      <trkpt lat="42.97081" lon="0.32535">
        <ele>1663.3</ele>
        <time>2026-07-07T07:25:20Z</time>
      </trkpt>
      <trkpt lat="42.97082" lon="0.32536">
        <ele>1663.3</ele>
        <time>2026-07-07T07:25:20Z</time>
      </trkpt>
      <trkpt lat="42.97082" lon="0.32537">
        <ele>1663.3</ele>
        <time>2026-07-07T07:25:21Z</time>
      </trkpt>
      <trkpt lat="42.97083" lon="0.32538">
        <ele>1664.3</ele>
        <time>2026-07-07T07:25:22Z</time>
      </trkpt>
      <trkpt lat="42.97083" lon="0.32538">
        <ele>1665.3</ele>
        <time>2026-07-07T07:25:22Z</time>
      </trkpt>
      <trkpt lat="42.97083" lon="0.32539">
        <ele>1665.3</ele>
        <time>2026-07-07T07:25:23Z</time>
      </trkpt>
      <trkpt lat="42.97084" lon="0.3254">
        <ele>1666.3</ele>
        <time>2026-07-07T07:25:24Z</time>
      </trkpt>
      <trkpt lat="42.97084" lon="0.3254">
        <ele>1666.3</ele>
        <time>2026-07-07T07:25:24Z</time>
      </trkpt>
      <trkpt lat="42.97084" lon="0.32542">
        <ele>1666.3</ele>
        <time>2026-07-07T07:25:25Z</time>
      </trkpt>
      <trkpt lat="42.97084" lon="0.32542">
        <ele>1666.3</ele>
        <time>2026-07-07T07:25:26Z</time>
      </trkpt>
      <trkpt lat="42.97084" lon="0.32542">
        <ele>1667.3</ele>
        <time>2026-07-07T07:25:26Z</time>
      </trkpt>
      <trkpt lat="42.97084" lon="0.32543">
        <ele>1667.3</ele>
        <time>2026-07-07T07:25:27Z</time>
      </trkpt>
      <trkpt lat="42.97084" lon="0.32543">
        <ele>1667.3</ele>
        <time>2026-07-07T07:25:28Z</time>
      </trkpt>
      <trkpt lat="42.97084" lon="0.32543">
        <ele>1667.3</ele>
        <time>2026-07-07T07:25:29Z</time>
      </trkpt>
      <trkpt lat="42.97084" lon="0.32543">
        <ele>1667.3</ele>
        <time>2026-07-07T07:25:30Z</time>
      </trkpt>
      <trkpt lat="42.97085" lon="0.32543">
        <ele>1667.3</ele>
        <time>2026-07-07T07:25:31Z</time>
      </trkpt>
      <trkpt lat="42.97085" lon="0.32543">
        <ele>1667.3</ele>
        <time>2026-07-07T07:25:31Z</time>
      </trkpt>
      <trkpt lat="42.97086" lon="0.32543">
        <ele>1667.3</ele>
        <time>2026-07-07T07:25:32Z</time>
      </trkpt>
      <trkpt lat="42.97086" lon="0.32544">
        <ele>1667.3</ele>
        <time>2026-07-07T07:25:33Z</time>
      </trkpt>
      <trkpt lat="42.97087" lon="0.32545">
        <ele>1668.3</ele>
        <time>2026-07-07T07:25:33Z</time>
      </trkpt>
      <trkpt lat="42.97087" lon="0.32546">
        <ele>1668.3</ele>
        <time>2026-07-07T07:25:34Z</time>
      </trkpt>
      <trkpt lat="42.97087" lon="0.32547">
        <ele>1667.3</ele>
        <time>2026-07-07T07:25:35Z</time>
      </trkpt>
      <trkpt lat="42.97088" lon="0.32547">
        <ele>1667.3</ele>
        <time>2026-07-07T07:25:36Z</time>
      </trkpt>
      <trkpt lat="42.97088" lon="0.32548">
        <ele>1667.3</ele>
        <time>2026-07-07T07:25:36Z</time>
      </trkpt>
      <trkpt lat="42.97088" lon="0.32548">
        <ele>1667.3</ele>
        <time>2026-07-07T07:25:37Z</time>
      </trkpt>
      <trkpt lat="42.97089" lon="0.32549">
        <ele>1667.3</ele>
        <time>2026-07-07T07:25:38Z</time>
      </trkpt>
      <trkpt lat="42.97089" lon="0.3255">
        <ele>1667.3</ele>
        <time>2026-07-07T07:25:38Z</time>
      </trkpt>
      <trkpt lat="42.97089" lon="0.3255">
        <ele>1667.3</ele>
        <time>2026-07-07T07:25:39Z</time>
      </trkpt>
      <trkpt lat="42.9709" lon="0.32551">
        <ele>1667.3</ele>
        <time>2026-07-07T07:25:40Z</time>
      </trkpt>
      <trkpt lat="42.9709" lon="0.32551">
        <ele>1667.3</ele>
        <time>2026-07-07T07:25:40Z</time>
      </trkpt>
      <trkpt lat="42.9709" lon="0.32553">
        <ele>1667.3</ele>
        <time>2026-07-07T07:25:41Z</time>
      </trkpt>
      <trkpt lat="42.97091" lon="0.32554">
        <ele>1668.3</ele>
        <time>2026-07-07T07:25:42Z</time>
      </trkpt>
      <trkpt lat="42.97091" lon="0.32554">
        <ele>1668.3</ele>
        <time>2026-07-07T07:25:43Z</time>
      </trkpt>
      <trkpt lat="42.97091" lon="0.32555">
        <ele>1668.3</ele>
        <time>2026-07-07T07:25:43Z</time>
      </trkpt>
      <trkpt lat="42.97092" lon="0.32556">
        <ele>1668.3</ele>
        <time>2026-07-07T07:25:44Z</time>
      </trkpt>
      <trkpt lat="42.97092" lon="0.32557">
        <ele>1668.3</ele>
        <time>2026-07-07T07:25:45Z</time>
      </trkpt>
      <trkpt lat="42.97092" lon="0.32558">
        <ele>1667.3</ele>
        <time>2026-07-07T07:25:46Z</time>
      </trkpt>
      <trkpt lat="42.97092" lon="0.32559">
        <ele>1667.3</ele>
        <time>2026-07-07T07:25:46Z</time>
      </trkpt>
      <trkpt lat="42.97093" lon="0.32559">
        <ele>1667.3</ele>
        <time>2026-07-07T07:25:47Z</time>
      </trkpt>
      <trkpt lat="42.97093" lon="0.3256">
        <ele>1667.3</ele>
        <time>2026-07-07T07:25:48Z</time>
      </trkpt>
      <trkpt lat="42.97093" lon="0.3256">
        <ele>1667.3</ele>
        <time>2026-07-07T07:25:49Z</time>
      </trkpt>
      <trkpt lat="42.97093" lon="0.3256">
        <ele>1667.3</ele>
        <time>2026-07-07T07:25:49Z</time>
      </trkpt>
      <trkpt lat="42.97094" lon="0.32561">
        <ele>1667.3</ele>
        <time>2026-07-07T07:25:50Z</time>
      </trkpt>
      <trkpt lat="42.97094" lon="0.32561">
        <ele>1667.3</ele>
        <time>2026-07-07T07:25:51Z</time>
      </trkpt>
      <trkpt lat="42.97095" lon="0.32562">
        <ele>1666.3</ele>
        <time>2026-07-07T07:25:51Z</time>
      </trkpt>
      <trkpt lat="42.97095" lon="0.32563">
        <ele>1666.3</ele>
        <time>2026-07-07T07:25:52Z</time>
      </trkpt>
      <trkpt lat="42.97095" lon="0.32563">
        <ele>1666.3</ele>
        <time>2026-07-07T07:25:53Z</time>
      </trkpt>
      <trkpt lat="42.97095" lon="0.32564">
        <ele>1667.3</ele>
        <time>2026-07-07T07:25:54Z</time>
      </trkpt>
      <trkpt lat="42.97096" lon="0.32565">
        <ele>1667.3</ele>
        <time>2026-07-07T07:25:54Z</time>
      </trkpt>
      <trkpt lat="42.97096" lon="0.32566">
        <ele>1667.3</ele>
        <time>2026-07-07T07:25:55Z</time>
      </trkpt>
      <trkpt lat="42.97096" lon="0.32567">
        <ele>1667.3</ele>
        <time>2026-07-07T07:25:56Z</time>
      </trkpt>
      <trkpt lat="42.97096" lon="0.32567">
        <ele>1668.3</ele>
        <time>2026-07-07T07:25:56Z</time>
      </trkpt>
      <trkpt lat="42.97097" lon="0.32568">
        <ele>1668.3</ele>
        <time>2026-07-07T07:25:57Z</time>
      </trkpt>
      <trkpt lat="42.97097" lon="0.32568">
        <ele>1668.3</ele>
        <time>2026-07-07T07:25:58Z</time>
      </trkpt>
      <trkpt lat="42.97098" lon="0.32568">
        <ele>1669.3</ele>
        <time>2026-07-07T07:25:58Z</time>
      </trkpt>
      <trkpt lat="42.97098" lon="0.32569">
        <ele>1669.3</ele>
        <time>2026-07-07T07:25:59Z</time>
      </trkpt>
      <trkpt lat="42.97098" lon="0.32569">
        <ele>1669.3</ele>
        <time>2026-07-07T07:26:00Z</time>
      </trkpt>
      <trkpt lat="42.97099" lon="0.32569">
        <ele>1669.3</ele>
        <time>2026-07-07T07:26:00Z</time>
      </trkpt>
      <trkpt lat="42.97099" lon="0.3257">
        <ele>1669.3</ele>
        <time>2026-07-07T07:26:01Z</time>
      </trkpt>
      <trkpt lat="42.97099" lon="0.32571">
        <ele>1669.3</ele>
        <time>2026-07-07T07:26:02Z</time>
      </trkpt>
      <trkpt lat="42.971" lon="0.32571">
        <ele>1670.3</ele>
        <time>2026-07-07T07:26:02Z</time>
      </trkpt>
      <trkpt lat="42.971" lon="0.32572">
        <ele>1670.3</ele>
        <time>2026-07-07T07:26:03Z</time>
      </trkpt>
      <trkpt lat="42.971" lon="0.32573">
        <ele>1670.3</ele>
        <time>2026-07-07T07:26:04Z</time>
      </trkpt>
      <trkpt lat="42.97101" lon="0.32574">
        <ele>1670.3</ele>
        <time>2026-07-07T07:26:05Z</time>
      </trkpt>
      <trkpt lat="42.97101" lon="0.32574">
        <ele>1670.3</ele>
        <time>2026-07-07T07:26:05Z</time>
      </trkpt>
      <trkpt lat="42.97101" lon="0.32575">
        <ele>1670.3</ele>
        <time>2026-07-07T07:26:06Z</time>
      </trkpt>
      <trkpt lat="42.97101" lon="0.32576">
        <ele>1670.3</ele>
        <time>2026-07-07T07:26:06Z</time>
      </trkpt>
      <trkpt lat="42.97101" lon="0.32577">
        <ele>1670.3</ele>
        <time>2026-07-07T07:26:07Z</time>
      </trkpt>
      <trkpt lat="42.97102" lon="0.32578">
        <ele>1670.3</ele>
        <time>2026-07-07T07:26:08Z</time>
      </trkpt>
      <trkpt lat="42.97102" lon="0.32579">
        <ele>1670.3</ele>
        <time>2026-07-07T07:26:08Z</time>
      </trkpt>
      <trkpt lat="42.97102" lon="0.3258">
        <ele>1670.3</ele>
        <time>2026-07-07T07:26:09Z</time>
      </trkpt>
      <trkpt lat="42.97103" lon="0.3258">
        <ele>1670.3</ele>
        <time>2026-07-07T07:26:10Z</time>
      </trkpt>
      <trkpt lat="42.97103" lon="0.32581">
        <ele>1670.3</ele>
        <time>2026-07-07T07:26:11Z</time>
      </trkpt>
      <trkpt lat="42.97103" lon="0.32582">
        <ele>1670.3</ele>
        <time>2026-07-07T07:26:11Z</time>
      </trkpt>
      <trkpt lat="42.97103" lon="0.32583">
        <ele>1670.3</ele>
        <time>2026-07-07T07:26:12Z</time>
      </trkpt>
      <trkpt lat="42.97104" lon="0.32584">
        <ele>1669.3</ele>
        <time>2026-07-07T07:26:13Z</time>
      </trkpt>
      <trkpt lat="42.97104" lon="0.32584">
        <ele>1670.3</ele>
        <time>2026-07-07T07:26:13Z</time>
      </trkpt>
      <trkpt lat="42.97105" lon="0.32585">
        <ele>1670.3</ele>
        <time>2026-07-07T07:26:14Z</time>
      </trkpt>
      <trkpt lat="42.97105" lon="0.32586">
        <ele>1670.3</ele>
        <time>2026-07-07T07:26:15Z</time>
      </trkpt>
      <trkpt lat="42.97105" lon="0.32587">
        <ele>1670.3</ele>
        <time>2026-07-07T07:26:15Z</time>
      </trkpt>
      <trkpt lat="42.97105" lon="0.32588">
        <ele>1670.3</ele>
        <time>2026-07-07T07:26:16Z</time>
      </trkpt>
      <trkpt lat="42.97106" lon="0.32589">
        <ele>1670.3</ele>
        <time>2026-07-07T07:26:17Z</time>
      </trkpt>
      <trkpt lat="42.97106" lon="0.3259">
        <ele>1670.3</ele>
        <time>2026-07-07T07:26:17Z</time>
      </trkpt>
      <trkpt lat="42.97106" lon="0.32591">
        <ele>1670.3</ele>
        <time>2026-07-07T07:26:18Z</time>
      </trkpt>
      <trkpt lat="42.97107" lon="0.32591">
        <ele>1671.3</ele>
        <time>2026-07-07T07:26:19Z</time>
      </trkpt>
      <trkpt lat="42.97107" lon="0.32592">
        <ele>1671.3</ele>
        <time>2026-07-07T07:26:19Z</time>
      </trkpt>
      <trkpt lat="42.97107" lon="0.32592">
        <ele>1671.3</ele>
        <time>2026-07-07T07:26:20Z</time>
      </trkpt>
      <trkpt lat="42.97108" lon="0.32593">
        <ele>1671.3</ele>
        <time>2026-07-07T07:26:20Z</time>
      </trkpt>
      <trkpt lat="42.97108" lon="0.32594">
        <ele>1671.3</ele>
        <time>2026-07-07T07:26:21Z</time>
      </trkpt>
      <trkpt lat="42.97109" lon="0.32595">
        <ele>1670.3</ele>
        <time>2026-07-07T07:26:22Z</time>
      </trkpt>
      <trkpt lat="42.97109" lon="0.32595">
        <ele>1671.3</ele>
        <time>2026-07-07T07:26:22Z</time>
      </trkpt>
      <trkpt lat="42.97109" lon="0.32596">
        <ele>1671.3</ele>
        <time>2026-07-07T07:26:23Z</time>
      </trkpt>
      <trkpt lat="42.9711" lon="0.32597">
        <ele>1671.3</ele>
        <time>2026-07-07T07:26:24Z</time>
      </trkpt>
      <trkpt lat="42.9711" lon="0.32598">
        <ele>1671.3</ele>
        <time>2026-07-07T07:26:24Z</time>
      </trkpt>
      <trkpt lat="42.97111" lon="0.32599">
        <ele>1671.3</ele>
        <time>2026-07-07T07:26:25Z</time>
      </trkpt>
      <trkpt lat="42.97111" lon="0.32599">
        <ele>1672.3</ele>
        <time>2026-07-07T07:26:25Z</time>
      </trkpt>
      <trkpt lat="42.97111" lon="0.326">
        <ele>1672.3</ele>
        <time>2026-07-07T07:26:26Z</time>
      </trkpt>
      <trkpt lat="42.97112" lon="0.32601">
        <ele>1672.3</ele>
        <time>2026-07-07T07:26:27Z</time>
      </trkpt>
      <trkpt lat="42.97112" lon="0.32602">
        <ele>1673.3</ele>
        <time>2026-07-07T07:26:27Z</time>
      </trkpt>
      <trkpt lat="42.97112" lon="0.32603">
        <ele>1673.3</ele>
        <time>2026-07-07T07:26:28Z</time>
      </trkpt>
      <trkpt lat="42.97113" lon="0.32604">
        <ele>1673.3</ele>
        <time>2026-07-07T07:26:29Z</time>
      </trkpt>
      <trkpt lat="42.97113" lon="0.32604">
        <ele>1673.3</ele>
        <time>2026-07-07T07:26:29Z</time>
      </trkpt>
      <trkpt lat="42.97114" lon="0.32605">
        <ele>1673.3</ele>
        <time>2026-07-07T07:26:30Z</time>
      </trkpt>
      <trkpt lat="42.97114" lon="0.32606">
        <ele>1673.3</ele>
        <time>2026-07-07T07:26:31Z</time>
      </trkpt>
      <trkpt lat="42.97114" lon="0.32607">
        <ele>1673.3</ele>
        <time>2026-07-07T07:26:31Z</time>
      </trkpt>
      <trkpt lat="42.97115" lon="0.32608">
        <ele>1673.3</ele>
        <time>2026-07-07T07:26:32Z</time>
      </trkpt>
      <trkpt lat="42.97115" lon="0.32608">
        <ele>1672.3</ele>
        <time>2026-07-07T07:26:33Z</time>
      </trkpt>
      <trkpt lat="42.97116" lon="0.32609">
        <ele>1672.3</ele>
        <time>2026-07-07T07:26:33Z</time>
      </trkpt>
      <trkpt lat="42.97116" lon="0.3261">
        <ele>1672.3</ele>
        <time>2026-07-07T07:26:34Z</time>
      </trkpt>
      <trkpt lat="42.97117" lon="0.32611">
        <ele>1673.3</ele>
        <time>2026-07-07T07:26:35Z</time>
      </trkpt>
      <trkpt lat="42.97117" lon="0.32611">
        <ele>1674.3</ele>
        <time>2026-07-07T07:26:35Z</time>
      </trkpt>
      <trkpt lat="42.97117" lon="0.32612">
        <ele>1674.3</ele>
        <time>2026-07-07T07:26:36Z</time>
      </trkpt>
      <trkpt lat="42.97118" lon="0.32613">
        <ele>1674.3</ele>
        <time>2026-07-07T07:26:37Z</time>
      </trkpt>
      <trkpt lat="42.97118" lon="0.32614">
        <ele>1674.3</ele>
        <time>2026-07-07T07:26:37Z</time>
      </trkpt>
      <trkpt lat="42.97118" lon="0.32615">
        <ele>1674.3</ele>
        <time>2026-07-07T07:26:38Z</time>
      </trkpt>
      <trkpt lat="42.97119" lon="0.32616">
        <ele>1674.3</ele>
        <time>2026-07-07T07:26:39Z</time>
      </trkpt>
      <trkpt lat="42.97119" lon="0.32616">
        <ele>1674.3</ele>
        <time>2026-07-07T07:26:40Z</time>
      </trkpt>
      <trkpt lat="42.97119" lon="0.32617">
        <ele>1674.3</ele>
        <time>2026-07-07T07:26:41Z</time>
      </trkpt>
      <trkpt lat="42.97119" lon="0.32618">
        <ele>1674.3</ele>
        <time>2026-07-07T07:26:41Z</time>
      </trkpt>
      <trkpt lat="42.9712" lon="0.32619">
        <ele>1674.3</ele>
        <time>2026-07-07T07:26:42Z</time>
      </trkpt>
      <trkpt lat="42.9712" lon="0.3262">
        <ele>1674.3</ele>
        <time>2026-07-07T07:26:43Z</time>
      </trkpt>
      <trkpt lat="42.9712" lon="0.3262">
        <ele>1674.3</ele>
        <time>2026-07-07T07:26:43Z</time>
      </trkpt>
      <trkpt lat="42.97121" lon="0.32621">
        <ele>1674.3</ele>
        <time>2026-07-07T07:26:44Z</time>
      </trkpt>
      <trkpt lat="42.97121" lon="0.32622">
        <ele>1674.3</ele>
        <time>2026-07-07T07:26:45Z</time>
      </trkpt>
      <trkpt lat="42.97121" lon="0.32623">
        <ele>1675.3</ele>
        <time>2026-07-07T07:26:46Z</time>
      </trkpt>
      <trkpt lat="42.97122" lon="0.32623">
        <ele>1675.3</ele>
        <time>2026-07-07T07:26:46Z</time>
      </trkpt>
      <trkpt lat="42.97122" lon="0.32624">
        <ele>1675.3</ele>
        <time>2026-07-07T07:26:47Z</time>
      </trkpt>
      <trkpt lat="42.97122" lon="0.32625">
        <ele>1675.3</ele>
        <time>2026-07-07T07:26:48Z</time>
      </trkpt>
      <trkpt lat="42.97123" lon="0.32625">
        <ele>1676.3</ele>
        <time>2026-07-07T07:26:49Z</time>
      </trkpt>
      <trkpt lat="42.97123" lon="0.32625">
        <ele>1676.3</ele>
        <time>2026-07-07T07:26:49Z</time>
      </trkpt>
      <trkpt lat="42.97123" lon="0.32626">
        <ele>1676.3</ele>
        <time>2026-07-07T07:26:50Z</time>
      </trkpt>
      <trkpt lat="42.97124" lon="0.32626">
        <ele>1676.3</ele>
        <time>2026-07-07T07:26:51Z</time>
      </trkpt>
      <trkpt lat="42.97124" lon="0.32627">
        <ele>1676.3</ele>
        <time>2026-07-07T07:26:52Z</time>
      </trkpt>
      <trkpt lat="42.97123" lon="0.32627">
        <ele>1675.3</ele>
        <time>2026-07-07T07:26:52Z</time>
      </trkpt>
      <trkpt lat="42.97123" lon="0.32628">
        <ele>1675.3</ele>
        <time>2026-07-07T07:26:53Z</time>
      </trkpt>
      <trkpt lat="42.97123" lon="0.32628">
        <ele>1675.3</ele>
        <time>2026-07-07T07:26:54Z</time>
      </trkpt>
      <trkpt lat="42.97123" lon="0.32629">
        <ele>1675.3</ele>
        <time>2026-07-07T07:26:55Z</time>
      </trkpt>
      <trkpt lat="42.97124" lon="0.32629">
        <ele>1675.3</ele>
        <time>2026-07-07T07:26:55Z</time>
      </trkpt>
      <trkpt lat="42.97124" lon="0.3263">
        <ele>1675.3</ele>
        <time>2026-07-07T07:26:56Z</time>
      </trkpt>
      <trkpt lat="42.97125" lon="0.3263">
        <ele>1676.3</ele>
        <time>2026-07-07T07:26:57Z</time>
      </trkpt>
      <trkpt lat="42.97125" lon="0.32631">
        <ele>1677.3</ele>
        <time>2026-07-07T07:26:58Z</time>
      </trkpt>
      <trkpt lat="42.97125" lon="0.32631">
        <ele>1677.3</ele>
        <time>2026-07-07T07:26:58Z</time>
      </trkpt>
      <trkpt lat="42.97126" lon="0.32632">
        <ele>1677.3</ele>
        <time>2026-07-07T07:26:59Z</time>
      </trkpt>
      <trkpt lat="42.97126" lon="0.32633">
        <ele>1678.3</ele>
        <time>2026-07-07T07:27:00Z</time>
      </trkpt>
      <trkpt lat="42.97126" lon="0.32634">
        <ele>1678.3</ele>
        <time>2026-07-07T07:27:00Z</time>
      </trkpt>
      <trkpt lat="42.97127" lon="0.32634">
        <ele>1678.3</ele>
        <time>2026-07-07T07:27:01Z</time>
      </trkpt>
      <trkpt lat="42.97127" lon="0.32635">
        <ele>1678.3</ele>
        <time>2026-07-07T07:27:02Z</time>
      </trkpt>
      <trkpt lat="42.97127" lon="0.32636">
        <ele>1679.3</ele>
        <time>2026-07-07T07:27:03Z</time>
      </trkpt>
      <trkpt lat="42.97127" lon="0.32636">
        <ele>1679.3</ele>
        <time>2026-07-07T07:27:04Z</time>
      </trkpt>
      <trkpt lat="42.97128" lon="0.32637">
        <ele>1680.3</ele>
        <time>2026-07-07T07:27:05Z</time>
      </trkpt>
      <trkpt lat="42.97128" lon="0.32637">
        <ele>1679.3</ele>
        <time>2026-07-07T07:27:05Z</time>
      </trkpt>
      <trkpt lat="42.97128" lon="0.32638">
        <ele>1679.3</ele>
        <time>2026-07-07T07:27:06Z</time>
      </trkpt>
      <trkpt lat="42.97128" lon="0.32639">
        <ele>1679.3</ele>
        <time>2026-07-07T07:27:07Z</time>
      </trkpt>
      <trkpt lat="42.97128" lon="0.32639">
        <ele>1680.3</ele>
        <time>2026-07-07T07:27:08Z</time>
      </trkpt>
      <trkpt lat="42.97129" lon="0.3264">
        <ele>1680.3</ele>
        <time>2026-07-07T07:27:09Z</time>
      </trkpt>
      <trkpt lat="42.97129" lon="0.3264">
        <ele>1680.3</ele>
        <time>2026-07-07T07:27:09Z</time>
      </trkpt>
      <trkpt lat="42.97129" lon="0.3264">
        <ele>1680.3</ele>
        <time>2026-07-07T07:27:10Z</time>
      </trkpt>
      <trkpt lat="42.97129" lon="0.32641">
        <ele>1680.3</ele>
        <time>2026-07-07T07:27:11Z</time>
      </trkpt>
      <trkpt lat="42.9713" lon="0.32642">
        <ele>1680.3</ele>
        <time>2026-07-07T07:27:12Z</time>
      </trkpt>
      <trkpt lat="42.9713" lon="0.32642">
        <ele>1680.3</ele>
        <time>2026-07-07T07:27:12Z</time>
      </trkpt>
      <trkpt lat="42.9713" lon="0.32642">
        <ele>1680.3</ele>
        <time>2026-07-07T07:27:13Z</time>
      </trkpt>
      <trkpt lat="42.9713" lon="0.32643">
        <ele>1680.3</ele>
        <time>2026-07-07T07:27:14Z</time>
      </trkpt>
      <trkpt lat="42.9713" lon="0.32643">
        <ele>1680.3</ele>
        <time>2026-07-07T07:27:15Z</time>
      </trkpt>
      <trkpt lat="42.9713" lon="0.32643">
        <ele>1680.3</ele>
        <time>2026-07-07T07:27:16Z</time>
      </trkpt>
      <trkpt lat="42.9713" lon="0.32643">
        <ele>1680.3</ele>
        <time>2026-07-07T07:27:16Z</time>
      </trkpt>
      <trkpt lat="42.9713" lon="0.32643">
        <ele>1680.3</ele>
        <time>2026-07-07T07:27:17Z</time>
      </trkpt>
      <trkpt lat="42.9713" lon="0.32643">
        <ele>1680.3</ele>
        <time>2026-07-07T07:27:18Z</time>
      </trkpt>
      <trkpt lat="42.97131" lon="0.32644">
        <ele>1680.3</ele>
        <time>2026-07-07T07:27:19Z</time>
      </trkpt>
      <trkpt lat="42.97131" lon="0.32645">
        <ele>1680.3</ele>
        <time>2026-07-07T07:27:20Z</time>
      </trkpt>
      <trkpt lat="42.97132" lon="0.32645">
        <ele>1681.3</ele>
        <time>2026-07-07T07:27:21Z</time>
      </trkpt>
      <trkpt lat="42.97132" lon="0.32646">
        <ele>1681.3</ele>
        <time>2026-07-07T07:27:21Z</time>
      </trkpt>
      <trkpt lat="42.97132" lon="0.32646">
        <ele>1682.3</ele>
        <time>2026-07-07T07:27:22Z</time>
      </trkpt>
      <trkpt lat="42.97133" lon="0.32647">
        <ele>1682.3</ele>
        <time>2026-07-07T07:27:23Z</time>
      </trkpt>
      <trkpt lat="42.97133" lon="0.32648">
        <ele>1682.3</ele>
        <time>2026-07-07T07:27:24Z</time>
      </trkpt>
      <trkpt lat="42.97133" lon="0.32648">
        <ele>1682.3</ele>
        <time>2026-07-07T07:27:25Z</time>
      </trkpt>
      <trkpt lat="42.97134" lon="0.32649">
        <ele>1682.3</ele>
        <time>2026-07-07T07:27:26Z</time>
      </trkpt>
      <trkpt lat="42.97134" lon="0.3265">
        <ele>1681.3</ele>
        <time>2026-07-07T07:27:26Z</time>
      </trkpt>
      <trkpt lat="42.97134" lon="0.32651">
        <ele>1682.3</ele>
        <time>2026-07-07T07:27:27Z</time>
      </trkpt>
      <trkpt lat="42.97135" lon="0.32651">
        <ele>1682.3</ele>
        <time>2026-07-07T07:27:28Z</time>
      </trkpt>
      <trkpt lat="42.97135" lon="0.32652">
        <ele>1682.3</ele>
        <time>2026-07-07T07:27:29Z</time>
      </trkpt>
      <trkpt lat="42.97135" lon="0.32653">
        <ele>1681.3</ele>
        <time>2026-07-07T07:27:30Z</time>
      </trkpt>
      <trkpt lat="42.97136" lon="0.32653">
        <ele>1681.3</ele>
        <time>2026-07-07T07:27:31Z</time>
      </trkpt>
      <trkpt lat="42.97136" lon="0.32654">
        <ele>1681.3</ele>
        <time>2026-07-07T07:27:32Z</time>
      </trkpt>
      <trkpt lat="42.97136" lon="0.32655">
        <ele>1681.3</ele>
        <time>2026-07-07T07:27:33Z</time>
      </trkpt>
      <trkpt lat="42.97136" lon="0.32656">
        <ele>1682.3</ele>
        <time>2026-07-07T07:27:34Z</time>
      </trkpt>
      <trkpt lat="42.97137" lon="0.32656">
        <ele>1681.3</ele>
        <time>2026-07-07T07:27:35Z</time>
      </trkpt>
      <trkpt lat="42.97137" lon="0.32657">
        <ele>1682.3</ele>
        <time>2026-07-07T07:27:35Z</time>
      </trkpt>
      <trkpt lat="42.97137" lon="0.32658">
        <ele>1682.3</ele>
        <time>2026-07-07T07:27:36Z</time>
      </trkpt>
      <trkpt lat="42.97138" lon="0.32658">
        <ele>1682.3</ele>
        <time>2026-07-07T07:27:37Z</time>
      </trkpt>
      <trkpt lat="42.97138" lon="0.32659">
        <ele>1683.3</ele>
        <time>2026-07-07T07:27:38Z</time>
      </trkpt>
      <trkpt lat="42.97138" lon="0.32659">
        <ele>1684.3</ele>
        <time>2026-07-07T07:27:39Z</time>
      </trkpt>
      <trkpt lat="42.97138" lon="0.3266">
        <ele>1684.3</ele>
        <time>2026-07-07T07:27:40Z</time>
      </trkpt>
      <trkpt lat="42.97139" lon="0.3266">
        <ele>1685.3</ele>
        <time>2026-07-07T07:27:41Z</time>
      </trkpt>
      <trkpt lat="42.97139" lon="0.32661">
        <ele>1685.3</ele>
        <time>2026-07-07T07:27:41Z</time>
      </trkpt>
      <trkpt lat="42.97139" lon="0.32661">
        <ele>1685.3</ele>
        <time>2026-07-07T07:27:42Z</time>
      </trkpt>
      <trkpt lat="42.97139" lon="0.32661">
        <ele>1685.3</ele>
        <time>2026-07-07T07:27:43Z</time>
      </trkpt>
      <trkpt lat="42.97139" lon="0.32661">
        <ele>1685.3</ele>
        <time>2026-07-07T07:27:44Z</time>
      </trkpt>
      <trkpt lat="42.9714" lon="0.32662">
        <ele>1685.3</ele>
        <time>2026-07-07T07:27:45Z</time>
      </trkpt>
      <trkpt lat="42.9714" lon="0.32662">
        <ele>1685.3</ele>
        <time>2026-07-07T07:27:46Z</time>
      </trkpt>
      <trkpt lat="42.9714" lon="0.32663">
        <ele>1685.3</ele>
        <time>2026-07-07T07:27:47Z</time>
      </trkpt>
      <trkpt lat="42.97141" lon="0.32663">
        <ele>1685.3</ele>
        <time>2026-07-07T07:27:48Z</time>
      </trkpt>
      <trkpt lat="42.97141" lon="0.32664">
        <ele>1686.3</ele>
        <time>2026-07-07T07:27:48Z</time>
      </trkpt>
      <trkpt lat="42.97141" lon="0.32664">
        <ele>1686.3</ele>
        <time>2026-07-07T07:27:49Z</time>
      </trkpt>
      <trkpt lat="42.97142" lon="0.32665">
        <ele>1686.3</ele>
        <time>2026-07-07T07:27:50Z</time>
      </trkpt>
      <trkpt lat="42.97142" lon="0.32665">
        <ele>1685.3</ele>
        <time>2026-07-07T07:27:51Z</time>
      </trkpt>
      <trkpt lat="42.97142" lon="0.32665">
        <ele>1685.3</ele>
        <time>2026-07-07T07:27:52Z</time>
      </trkpt>
      <trkpt lat="42.97143" lon="0.32665">
        <ele>1685.3</ele>
        <time>2026-07-07T07:27:53Z</time>
      </trkpt>
      <trkpt lat="42.97143" lon="0.32665">
        <ele>1685.3</ele>
        <time>2026-07-07T07:27:54Z</time>
      </trkpt>
      <trkpt lat="42.97143" lon="0.32666">
        <ele>1686.3</ele>
        <time>2026-07-07T07:27:55Z</time>
      </trkpt>
      <trkpt lat="42.97143" lon="0.32666">
        <ele>1686.3</ele>
        <time>2026-07-07T07:27:55Z</time>
      </trkpt>
      <trkpt lat="42.97143" lon="0.32667">
        <ele>1686.3</ele>
        <time>2026-07-07T07:27:56Z</time>
      </trkpt>
      <trkpt lat="42.97143" lon="0.32668">
        <ele>1687.3</ele>
        <time>2026-07-07T07:27:57Z</time>
      </trkpt>
      <trkpt lat="42.97143" lon="0.32669">
        <ele>1687.3</ele>
        <time>2026-07-07T07:27:58Z</time>
      </trkpt>
      <trkpt lat="42.97144" lon="0.3267">
        <ele>1688.3</ele>
        <time>2026-07-07T07:27:59Z</time>
      </trkpt>
      <trkpt lat="42.97144" lon="0.32671">
        <ele>1688.3</ele>
        <time>2026-07-07T07:28:00Z</time>
      </trkpt>
      <trkpt lat="42.97144" lon="0.32671">
        <ele>1687.3</ele>
        <time>2026-07-07T07:28:01Z</time>
      </trkpt>
      <trkpt lat="42.97144" lon="0.32672">
        <ele>1688.3</ele>
        <time>2026-07-07T07:28:02Z</time>
      </trkpt>
      <trkpt lat="42.97144" lon="0.32673">
        <ele>1689.3</ele>
        <time>2026-07-07T07:28:03Z</time>
      </trkpt>
      <trkpt lat="42.97145" lon="0.32673">
        <ele>1689.3</ele>
        <time>2026-07-07T07:28:04Z</time>
      </trkpt>
      <trkpt lat="42.97145" lon="0.32674">
        <ele>1689.3</ele>
        <time>2026-07-07T07:28:05Z</time>
      </trkpt>
      <trkpt lat="42.97145" lon="0.32674">
        <ele>1689.3</ele>
        <time>2026-07-07T07:28:06Z</time>
      </trkpt>
      <trkpt lat="42.97145" lon="0.32674">
        <ele>1689.3</ele>
        <time>2026-07-07T07:28:07Z</time>
      </trkpt>
      <trkpt lat="42.97145" lon="0.32675">
        <ele>1689.3</ele>
        <time>2026-07-07T07:28:07Z</time>
      </trkpt>
      <trkpt lat="42.97145" lon="0.32676">
        <ele>1689.3</ele>
        <time>2026-07-07T07:28:08Z</time>
      </trkpt>
      <trkpt lat="42.97145" lon="0.32677">
        <ele>1689.3</ele>
        <time>2026-07-07T07:28:09Z</time>
      </trkpt>
      <trkpt lat="42.97146" lon="0.32677">
        <ele>1690.3</ele>
        <time>2026-07-07T07:28:10Z</time>
      </trkpt>
      <trkpt lat="42.97146" lon="0.32677">
        <ele>1690.3</ele>
        <time>2026-07-07T07:28:11Z</time>
      </trkpt>
      <trkpt lat="42.97146" lon="0.32677">
        <ele>1690.3</ele>
        <time>2026-07-07T07:28:12Z</time>
      </trkpt>
      <trkpt lat="42.97146" lon="0.32677">
        <ele>1690.3</ele>
        <time>2026-07-07T07:28:13Z</time>
      </trkpt>
      <trkpt lat="42.97146" lon="0.32678">
        <ele>1690.3</ele>
        <time>2026-07-07T07:28:14Z</time>
      </trkpt>
      <trkpt lat="42.97146" lon="0.32678">
        <ele>1690.3</ele>
        <time>2026-07-07T07:28:15Z</time>
      </trkpt>
      <trkpt lat="42.97146" lon="0.32678">
        <ele>1690.3</ele>
        <time>2026-07-07T07:28:16Z</time>
      </trkpt>
      <trkpt lat="42.97146" lon="0.32679">
        <ele>1691.3</ele>
        <time>2026-07-07T07:28:16Z</time>
      </trkpt>
      <trkpt lat="42.97146" lon="0.32679">
        <ele>1690.3</ele>
        <time>2026-07-07T07:28:17Z</time>
      </trkpt>
      <trkpt lat="42.97147" lon="0.3268">
        <ele>1691.3</ele>
        <time>2026-07-07T07:28:18Z</time>
      </trkpt>
      <trkpt lat="42.97147" lon="0.3268">
        <ele>1691.3</ele>
        <time>2026-07-07T07:28:19Z</time>
      </trkpt>
      <trkpt lat="42.97147" lon="0.3268">
        <ele>1690.3</ele>
        <time>2026-07-07T07:28:19Z</time>
      </trkpt>
      <trkpt lat="42.97148" lon="0.32681">
        <ele>1690.3</ele>
        <time>2026-07-07T07:28:20Z</time>
      </trkpt>
      <trkpt lat="42.97148" lon="0.32681">
        <ele>1690.3</ele>
        <time>2026-07-07T07:28:21Z</time>
      </trkpt>
      <trkpt lat="42.97148" lon="0.32681">
        <ele>1690.3</ele>
        <time>2026-07-07T07:28:22Z</time>
      </trkpt>
      <trkpt lat="42.97149" lon="0.32682">
        <ele>1691.3</ele>
        <time>2026-07-07T07:28:23Z</time>
      </trkpt>
      <trkpt lat="42.97149" lon="0.32682">
        <ele>1691.3</ele>
        <time>2026-07-07T07:28:24Z</time>
      </trkpt>
      <trkpt lat="42.9715" lon="0.32683">
        <ele>1692.3</ele>
        <time>2026-07-07T07:28:25Z</time>
      </trkpt>
      <trkpt lat="42.9715" lon="0.32683">
        <ele>1691.3</ele>
        <time>2026-07-07T07:28:26Z</time>
      </trkpt>
      <trkpt lat="42.97151" lon="0.32683">
        <ele>1692.3</ele>
        <time>2026-07-07T07:28:27Z</time>
      </trkpt>
      <trkpt lat="42.97151" lon="0.32684">
        <ele>1692.3</ele>
        <time>2026-07-07T07:28:28Z</time>
      </trkpt>
      <trkpt lat="42.97152" lon="0.32684">
        <ele>1693.3</ele>
        <time>2026-07-07T07:28:29Z</time>
      </trkpt>
      <trkpt lat="42.97152" lon="0.32685">
        <ele>1693.3</ele>
        <time>2026-07-07T07:28:30Z</time>
      </trkpt>
      <trkpt lat="42.97152" lon="0.32685">
        <ele>1693.3</ele>
        <time>2026-07-07T07:28:31Z</time>
      </trkpt>
      <trkpt lat="42.97152" lon="0.32685">
        <ele>1694.3</ele>
        <time>2026-07-07T07:28:31Z</time>
      </trkpt>
      <trkpt lat="42.97152" lon="0.32686">
        <ele>1694.3</ele>
        <time>2026-07-07T07:28:32Z</time>
      </trkpt>
      <trkpt lat="42.97152" lon="0.32686">
        <ele>1694.3</ele>
        <time>2026-07-07T07:28:32Z</time>
      </trkpt>
      <trkpt lat="42.97153" lon="0.32687">
        <ele>1695.3</ele>
        <time>2026-07-07T07:28:33Z</time>
      </trkpt>
      <trkpt lat="42.97153" lon="0.32687">
        <ele>1695.3</ele>
        <time>2026-07-07T07:28:34Z</time>
      </trkpt>
      <trkpt lat="42.97152" lon="0.32688">
        <ele>1695.3</ele>
        <time>2026-07-07T07:28:35Z</time>
      </trkpt>
      <trkpt lat="42.97153" lon="0.32688">
        <ele>1695.3</ele>
        <time>2026-07-07T07:28:36Z</time>
      </trkpt>
      <trkpt lat="42.97153" lon="0.32688">
        <ele>1695.3</ele>
        <time>2026-07-07T07:28:37Z</time>
      </trkpt>
      <trkpt lat="42.97153" lon="0.32688">
        <ele>1695.3</ele>
        <time>2026-07-07T07:28:38Z</time>
      </trkpt>
      <trkpt lat="42.97153" lon="0.32688">
        <ele>1695.3</ele>
        <time>2026-07-07T07:28:39Z</time>
      </trkpt>
      <trkpt lat="42.97152" lon="0.32688">
        <ele>1694.3</ele>
        <time>2026-07-07T07:28:40Z</time>
      </trkpt>
      <trkpt lat="42.97152" lon="0.32688">
        <ele>1694.3</ele>
        <time>2026-07-07T07:28:41Z</time>
      </trkpt>
      <trkpt lat="42.97152" lon="0.32689">
        <ele>1694.3</ele>
        <time>2026-07-07T07:28:42Z</time>
      </trkpt>
      <trkpt lat="42.97152" lon="0.32689">
        <ele>1694.3</ele>
        <time>2026-07-07T07:28:43Z</time>
      </trkpt>
      <trkpt lat="42.97152" lon="0.32689">
        <ele>1694.3</ele>
        <time>2026-07-07T07:28:44Z</time>
      </trkpt>
      <trkpt lat="42.97152" lon="0.32689">
        <ele>1694.3</ele>
        <time>2026-07-07T07:28:45Z</time>
      </trkpt>
      <trkpt lat="42.97152" lon="0.32689">
        <ele>1693.3</ele>
        <time>2026-07-07T07:28:45Z</time>
      </trkpt>
      <trkpt lat="42.97152" lon="0.3269">
        <ele>1693.3</ele>
        <time>2026-07-07T07:28:46Z</time>
      </trkpt>
      <trkpt lat="42.97152" lon="0.32691">
        <ele>1693.3</ele>
        <time>2026-07-07T07:28:47Z</time>
      </trkpt>
      <trkpt lat="42.97152" lon="0.32692">
        <ele>1693.3</ele>
        <time>2026-07-07T07:28:48Z</time>
      </trkpt>
      <trkpt lat="42.97152" lon="0.32693">
        <ele>1693.3</ele>
        <time>2026-07-07T07:28:49Z</time>
      </trkpt>
      <trkpt lat="42.97152" lon="0.32693">
        <ele>1693.3</ele>
        <time>2026-07-07T07:28:50Z</time>
      </trkpt>
      <trkpt lat="42.97152" lon="0.32694">
        <ele>1693.3</ele>
        <time>2026-07-07T07:28:50Z</time>
      </trkpt>
      <trkpt lat="42.97152" lon="0.32694">
        <ele>1693.3</ele>
        <time>2026-07-07T07:28:51Z</time>
      </trkpt>
      <trkpt lat="42.97152" lon="0.32694">
        <ele>1693.3</ele>
        <time>2026-07-07T07:28:52Z</time>
      </trkpt>
      <trkpt lat="42.97152" lon="0.32695">
        <ele>1694.3</ele>
        <time>2026-07-07T07:28:53Z</time>
      </trkpt>
      <trkpt lat="42.97152" lon="0.32696">
        <ele>1694.3</ele>
        <time>2026-07-07T07:28:54Z</time>
      </trkpt>
      <trkpt lat="42.97152" lon="0.32697">
        <ele>1694.3</ele>
        <time>2026-07-07T07:28:55Z</time>
      </trkpt>
      <trkpt lat="42.97152" lon="0.32698">
        <ele>1695.3</ele>
        <time>2026-07-07T07:28:56Z</time>
      </trkpt>
      <trkpt lat="42.97152" lon="0.32699">
        <ele>1695.3</ele>
        <time>2026-07-07T07:28:57Z</time>
      </trkpt>
      <trkpt lat="42.97152" lon="0.32699">
        <ele>1695.3</ele>
        <time>2026-07-07T07:28:58Z</time>
      </trkpt>
      <trkpt lat="42.97152" lon="0.32699">
        <ele>1695.3</ele>
        <time>2026-07-07T07:28:58Z</time>
      </trkpt>
      <trkpt lat="42.97152" lon="0.32699">
        <ele>1695.3</ele>
        <time>2026-07-07T07:28:59Z</time>
      </trkpt>
      <trkpt lat="42.97152" lon="0.327">
        <ele>1696.3</ele>
        <time>2026-07-07T07:29:00Z</time>
      </trkpt>
      <trkpt lat="42.97152" lon="0.327">
        <ele>1696.3</ele>
        <time>2026-07-07T07:29:01Z</time>
      </trkpt>
      <trkpt lat="42.97152" lon="0.32701">
        <ele>1696.3</ele>
        <time>2026-07-07T07:29:02Z</time>
      </trkpt>
      <trkpt lat="42.97152" lon="0.32702">
        <ele>1696.3</ele>
        <time>2026-07-07T07:29:03Z</time>
      </trkpt>
      <trkpt lat="42.97152" lon="0.32703">
        <ele>1696.3</ele>
        <time>2026-07-07T07:29:04Z</time>
      </trkpt>
      <trkpt lat="42.97152" lon="0.32704">
        <ele>1697.3</ele>
        <time>2026-07-07T07:29:05Z</time>
      </trkpt>
      <trkpt lat="42.97153" lon="0.32704">
        <ele>1697.3</ele>
        <time>2026-07-07T07:29:06Z</time>
      </trkpt>
      <trkpt lat="42.97154" lon="0.32704">
        <ele>1697.3</ele>
        <time>2026-07-07T07:29:07Z</time>
      </trkpt>
      <trkpt lat="42.97154" lon="0.32705">
        <ele>1698.3</ele>
        <time>2026-07-07T07:29:07Z</time>
      </trkpt>
      <trkpt lat="42.97155" lon="0.32705">
        <ele>1698.3</ele>
        <time>2026-07-07T07:29:08Z</time>
      </trkpt>
      <trkpt lat="42.97155" lon="0.32706">
        <ele>1698.3</ele>
        <time>2026-07-07T07:29:09Z</time>
      </trkpt>
      <trkpt lat="42.97155" lon="0.32707">
        <ele>1698.3</ele>
        <time>2026-07-07T07:29:10Z</time>
      </trkpt>
      <trkpt lat="42.97155" lon="0.32707">
        <ele>1699.3</ele>
        <time>2026-07-07T07:29:11Z</time>
      </trkpt>
      <trkpt lat="42.97155" lon="0.32708">
        <ele>1699.3</ele>
        <time>2026-07-07T07:29:12Z</time>
      </trkpt>
      <trkpt lat="42.97155" lon="0.32709">
        <ele>1699.3</ele>
        <time>2026-07-07T07:29:13Z</time>
      </trkpt>
      <trkpt lat="42.97155" lon="0.3271">
        <ele>1699.3</ele>
        <time>2026-07-07T07:29:14Z</time>
      </trkpt>
      <trkpt lat="42.97155" lon="0.32711">
        <ele>1699.3</ele>
        <time>2026-07-07T07:29:15Z</time>
      </trkpt>
      <trkpt lat="42.97155" lon="0.32711">
        <ele>1699.3</ele>
        <time>2026-07-07T07:29:16Z</time>
      </trkpt>
      <trkpt lat="42.97155" lon="0.32711">
        <ele>1699.3</ele>
        <time>2026-07-07T07:29:16Z</time>
      </trkpt>
      <trkpt lat="42.97155" lon="0.32711">
        <ele>1699.3</ele>
        <time>2026-07-07T07:29:17Z</time>
      </trkpt>
      <trkpt lat="42.97155" lon="0.32711">
        <ele>1699.3</ele>
        <time>2026-07-07T07:29:18Z</time>
      </trkpt>
      <trkpt lat="42.97156" lon="0.32711">
        <ele>1700.3</ele>
        <time>2026-07-07T07:29:19Z</time>
      </trkpt>
      <trkpt lat="42.97156" lon="0.32711">
        <ele>1700.3</ele>
        <time>2026-07-07T07:29:20Z</time>
      </trkpt>
      <trkpt lat="42.97157" lon="0.32712">
        <ele>1700.3</ele>
        <time>2026-07-07T07:29:21Z</time>
      </trkpt>
      <trkpt lat="42.97157" lon="0.32712">
        <ele>1700.3</ele>
        <time>2026-07-07T07:29:22Z</time>
      </trkpt>
      <trkpt lat="42.97157" lon="0.32713">
        <ele>1701.3</ele>
        <time>2026-07-07T07:29:23Z</time>
      </trkpt>
      <trkpt lat="42.97158" lon="0.32714">
        <ele>1700.3</ele>
        <time>2026-07-07T07:29:24Z</time>
      </trkpt>
      <trkpt lat="42.97158" lon="0.32715">
        <ele>1700.3</ele>
        <time>2026-07-07T07:29:25Z</time>
      </trkpt>
      <trkpt lat="42.97158" lon="0.32716">
        <ele>1701.3</ele>
        <time>2026-07-07T07:29:25Z</time>
      </trkpt>
      <trkpt lat="42.97158" lon="0.32717">
        <ele>1701.3</ele>
        <time>2026-07-07T07:29:26Z</time>
      </trkpt>
      <trkpt lat="42.97158" lon="0.32717">
        <ele>1701.3</ele>
        <time>2026-07-07T07:29:27Z</time>
      </trkpt>
      <trkpt lat="42.97158" lon="0.32718">
        <ele>1701.3</ele>
        <time>2026-07-07T07:29:28Z</time>
      </trkpt>
      <trkpt lat="42.97159" lon="0.32718">
        <ele>1702.3</ele>
        <time>2026-07-07T07:29:29Z</time>
      </trkpt>
      <trkpt lat="42.97159" lon="0.32719">
        <ele>1702.3</ele>
        <time>2026-07-07T07:29:30Z</time>
      </trkpt>
      <trkpt lat="42.97159" lon="0.32719">
        <ele>1702.3</ele>
        <time>2026-07-07T07:29:30Z</time>
      </trkpt>
      <trkpt lat="42.97159" lon="0.32719">
        <ele>1702.3</ele>
        <time>2026-07-07T07:29:31Z</time>
      </trkpt>
      <trkpt lat="42.97159" lon="0.3272">
        <ele>1702.3</ele>
        <time>2026-07-07T07:29:32Z</time>
      </trkpt>
      <trkpt lat="42.97159" lon="0.3272">
        <ele>1702.3</ele>
        <time>2026-07-07T07:29:33Z</time>
      </trkpt>
      <trkpt lat="42.97159" lon="0.3272">
        <ele>1702.3</ele>
        <time>2026-07-07T07:29:34Z</time>
      </trkpt>
      <trkpt lat="42.97159" lon="0.3272">
        <ele>1702.3</ele>
        <time>2026-07-07T07:29:34Z</time>
      </trkpt>
      <trkpt lat="42.9716" lon="0.32721">
        <ele>1702.3</ele>
        <time>2026-07-07T07:29:35Z</time>
      </trkpt>
      <trkpt lat="42.9716" lon="0.32721">
        <ele>1702.3</ele>
        <time>2026-07-07T07:29:36Z</time>
      </trkpt>
      <trkpt lat="42.9716" lon="0.32722">
        <ele>1703.3</ele>
        <time>2026-07-07T07:29:37Z</time>
      </trkpt>
      <trkpt lat="42.97161" lon="0.32722">
        <ele>1702.3</ele>
        <time>2026-07-07T07:29:38Z</time>
      </trkpt>
      <trkpt lat="42.97161" lon="0.32723">
        <ele>1702.3</ele>
        <time>2026-07-07T07:29:39Z</time>
      </trkpt>
      <trkpt lat="42.97161" lon="0.32723">
        <ele>1702.3</ele>
        <time>2026-07-07T07:29:39Z</time>
      </trkpt>
      <trkpt lat="42.97161" lon="0.32724">
        <ele>1702.3</ele>
        <time>2026-07-07T07:29:40Z</time>
      </trkpt>
      <trkpt lat="42.97162" lon="0.32725">
        <ele>1702.3</ele>
        <time>2026-07-07T07:29:41Z</time>
      </trkpt>
      <trkpt lat="42.97162" lon="0.32726">
        <ele>1703.3</ele>
        <time>2026-07-07T07:29:42Z</time>
      </trkpt>
      <trkpt lat="42.97162" lon="0.32726">
        <ele>1703.3</ele>
        <time>2026-07-07T07:29:43Z</time>
      </trkpt>
      <trkpt lat="42.97162" lon="0.32726">
        <ele>1703.3</ele>
        <time>2026-07-07T07:29:43Z</time>
      </trkpt>
      <trkpt lat="42.97163" lon="0.32727">
        <ele>1704.3</ele>
        <time>2026-07-07T07:29:44Z</time>
      </trkpt>
      <trkpt lat="42.97163" lon="0.32728">
        <ele>1704.3</ele>
        <time>2026-07-07T07:29:45Z</time>
      </trkpt>
      <trkpt lat="42.97164" lon="0.32728">
        <ele>1704.3</ele>
        <time>2026-07-07T07:29:46Z</time>
      </trkpt>
      <trkpt lat="42.97164" lon="0.32729">
        <ele>1703.3</ele>
        <time>2026-07-07T07:29:47Z</time>
      </trkpt>
      <trkpt lat="42.97165" lon="0.3273">
        <ele>1703.3</ele>
        <time>2026-07-07T07:29:48Z</time>
      </trkpt>
      <trkpt lat="42.97165" lon="0.3273">
        <ele>1703.3</ele>
        <time>2026-07-07T07:29:49Z</time>
      </trkpt>
      <trkpt lat="42.97165" lon="0.32731">
        <ele>1703.3</ele>
        <time>2026-07-07T07:29:50Z</time>
      </trkpt>
      <trkpt lat="42.97166" lon="0.32731">
        <ele>1703.3</ele>
        <time>2026-07-07T07:29:51Z</time>
      </trkpt>
      <trkpt lat="42.97166" lon="0.32731">
        <ele>1703.3</ele>
        <time>2026-07-07T07:29:51Z</time>
      </trkpt>
      <trkpt lat="42.97166" lon="0.32732">
        <ele>1703.3</ele>
        <time>2026-07-07T07:29:52Z</time>
      </trkpt>
      <trkpt lat="42.97167" lon="0.32732">
        <ele>1703.3</ele>
        <time>2026-07-07T07:29:53Z</time>
      </trkpt>
      <trkpt lat="42.97167" lon="0.32732">
        <ele>1703.3</ele>
        <time>2026-07-07T07:29:54Z</time>
      </trkpt>
      <trkpt lat="42.97167" lon="0.32731">
        <ele>1703.3</ele>
        <time>2026-07-07T07:29:55Z</time>
      </trkpt>
      <trkpt lat="42.97167" lon="0.32731">
        <ele>1703.3</ele>
        <time>2026-07-07T07:29:56Z</time>
      </trkpt>
      <trkpt lat="42.97167" lon="0.32731">
        <ele>1703.3</ele>
        <time>2026-07-07T07:29:57Z</time>
      </trkpt>
      <trkpt lat="42.97167" lon="0.32732">
        <ele>1704.3</ele>
        <time>2026-07-07T07:29:58Z</time>
      </trkpt>
      <trkpt lat="42.97167" lon="0.32732">
        <ele>1704.3</ele>
        <time>2026-07-07T07:29:59Z</time>
      </trkpt>
      <trkpt lat="42.97167" lon="0.32733">
        <ele>1705.3</ele>
        <time>2026-07-07T07:29:59Z</time>
      </trkpt>
      <trkpt lat="42.97167" lon="0.32733">
        <ele>1706.3</ele>
        <time>2026-07-07T07:30:00Z</time>
      </trkpt>
      <trkpt lat="42.97167" lon="0.32734">
        <ele>1706.3</ele>
        <time>2026-07-07T07:30:01Z</time>
      </trkpt>
      <trkpt lat="42.97167" lon="0.32734">
        <ele>1706.3</ele>
        <time>2026-07-07T07:30:02Z</time>
      </trkpt>
      <trkpt lat="42.97168" lon="0.32734">
        <ele>1706.3</ele>
        <time>2026-07-07T07:30:03Z</time>
      </trkpt>
      <trkpt lat="42.97167" lon="0.32734">
        <ele>1706.3</ele>
        <time>2026-07-07T07:30:04Z</time>
      </trkpt>
      <trkpt lat="42.97167" lon="0.32734">
        <ele>1706.3</ele>
        <time>2026-07-07T07:30:05Z</time>
      </trkpt>
      <trkpt lat="42.97167" lon="0.32735">
        <ele>1706.3</ele>
        <time>2026-07-07T07:30:06Z</time>
      </trkpt>
      <trkpt lat="42.97168" lon="0.32735">
        <ele>1707.3</ele>
        <time>2026-07-07T07:30:07Z</time>
      </trkpt>
      <trkpt lat="42.97168" lon="0.32736">
        <ele>1707.3</ele>
        <time>2026-07-07T07:30:08Z</time>
      </trkpt>
      <trkpt lat="42.97169" lon="0.32737">
        <ele>1707.3</ele>
        <time>2026-07-07T07:30:09Z</time>
      </trkpt>
      <trkpt lat="42.97169" lon="0.32738">
        <ele>1707.3</ele>
        <time>2026-07-07T07:30:10Z</time>
      </trkpt>
      <trkpt lat="42.97169" lon="0.32738">
        <ele>1707.3</ele>
        <time>2026-07-07T07:30:10Z</time>
      </trkpt>
      <trkpt lat="42.97169" lon="0.3274">
        <ele>1706.3</ele>
        <time>2026-07-07T07:30:11Z</time>
      </trkpt>
      <trkpt lat="42.97169" lon="0.32741">
        <ele>1706.3</ele>
        <time>2026-07-07T07:30:12Z</time>
      </trkpt>
      <trkpt lat="42.97169" lon="0.32741">
        <ele>1707.3</ele>
        <time>2026-07-07T07:30:13Z</time>
      </trkpt>
      <trkpt lat="42.9717" lon="0.32742">
        <ele>1707.3</ele>
        <time>2026-07-07T07:30:14Z</time>
      </trkpt>
      <trkpt lat="42.9717" lon="0.32742">
        <ele>1709.3</ele>
        <time>2026-07-07T07:30:15Z</time>
      </trkpt>
      <trkpt lat="42.9717" lon="0.32742">
        <ele>1709.3</ele>
        <time>2026-07-07T07:30:16Z</time>
      </trkpt>
      <trkpt lat="42.9717" lon="0.32742">
        <ele>1709.3</ele>
        <time>2026-07-07T07:30:16Z</time>
      </trkpt>
      <trkpt lat="42.9717" lon="0.32742">
        <ele>1709.3</ele>
        <time>2026-07-07T07:30:17Z</time>
      </trkpt>
      <trkpt lat="42.97171" lon="0.32743">
        <ele>1709.3</ele>
        <time>2026-07-07T07:30:17Z</time>
      </trkpt>
      <trkpt lat="42.97171" lon="0.32743">
        <ele>1709.3</ele>
        <time>2026-07-07T07:30:18Z</time>
      </trkpt>
      <trkpt lat="42.97171" lon="0.32743">
        <ele>1709.3</ele>
        <time>2026-07-07T07:30:18Z</time>
      </trkpt>
      <trkpt lat="42.97172" lon="0.32744">
        <ele>1709.3</ele>
        <time>2026-07-07T07:30:19Z</time>
      </trkpt>
      <trkpt lat="42.97172" lon="0.32744">
        <ele>1709.3</ele>
        <time>2026-07-07T07:30:20Z</time>
      </trkpt>
      <trkpt lat="42.97172" lon="0.32744">
        <ele>1709.3</ele>
        <time>2026-07-07T07:30:21Z</time>
      </trkpt>
      <trkpt lat="42.97172" lon="0.32745">
        <ele>1709.3</ele>
        <time>2026-07-07T07:30:22Z</time>
      </trkpt>
      <trkpt lat="42.97173" lon="0.32745">
        <ele>1709.3</ele>
        <time>2026-07-07T07:30:23Z</time>
      </trkpt>
      <trkpt lat="42.97173" lon="0.32745">
        <ele>1710.3</ele>
        <time>2026-07-07T07:30:24Z</time>
      </trkpt>
      <trkpt lat="42.97174" lon="0.32746">
        <ele>1709.3</ele>
        <time>2026-07-07T07:30:25Z</time>
      </trkpt>
      <trkpt lat="42.97174" lon="0.32746">
        <ele>1709.3</ele>
        <time>2026-07-07T07:30:26Z</time>
      </trkpt>
      <trkpt lat="42.97174" lon="0.32747">
        <ele>1709.3</ele>
        <time>2026-07-07T07:30:27Z</time>
      </trkpt>
      <trkpt lat="42.97174" lon="0.32747">
        <ele>1709.3</ele>
        <time>2026-07-07T07:30:28Z</time>
      </trkpt>
      <trkpt lat="42.97174" lon="0.32748">
        <ele>1709.3</ele>
        <time>2026-07-07T07:30:28Z</time>
      </trkpt>
      <trkpt lat="42.97174" lon="0.32748">
        <ele>1709.3</ele>
        <time>2026-07-07T07:30:29Z</time>
      </trkpt>
      <trkpt lat="42.97174" lon="0.32748">
        <ele>1709.3</ele>
        <time>2026-07-07T07:30:29Z</time>
      </trkpt>
      <trkpt lat="42.97174" lon="0.32749">
        <ele>1709.3</ele>
        <time>2026-07-07T07:30:30Z</time>
      </trkpt>
      <trkpt lat="42.97174" lon="0.32749">
        <ele>1710.3</ele>
        <time>2026-07-07T07:30:30Z</time>
      </trkpt>
      <trkpt lat="42.97174" lon="0.3275">
        <ele>1710.3</ele>
        <time>2026-07-07T07:30:31Z</time>
      </trkpt>
      <trkpt lat="42.97174" lon="0.3275">
        <ele>1711.3</ele>
        <time>2026-07-07T07:30:32Z</time>
      </trkpt>
      <trkpt lat="42.97174" lon="0.32751">
        <ele>1711.3</ele>
        <time>2026-07-07T07:30:33Z</time>
      </trkpt>
      <trkpt lat="42.97174" lon="0.32751">
        <ele>1711.3</ele>
        <time>2026-07-07T07:30:34Z</time>
      </trkpt>
      <trkpt lat="42.97174" lon="0.32752">
        <ele>1710.3</ele>
        <time>2026-07-07T07:30:35Z</time>
      </trkpt>
      <trkpt lat="42.97174" lon="0.32752">
        <ele>1710.3</ele>
        <time>2026-07-07T07:30:36Z</time>
      </trkpt>
      <trkpt lat="42.97174" lon="0.32752">
        <ele>1710.3</ele>
        <time>2026-07-07T07:30:37Z</time>
      </trkpt>
      <trkpt lat="42.97174" lon="0.32752">
        <ele>1710.3</ele>
        <time>2026-07-07T07:30:37Z</time>
      </trkpt>
      <trkpt lat="42.97174" lon="0.32753">
        <ele>1710.3</ele>
        <time>2026-07-07T07:30:38Z</time>
      </trkpt>
      <trkpt lat="42.97175" lon="0.32754">
        <ele>1711.3</ele>
        <time>2026-07-07T07:30:39Z</time>
      </trkpt>
      <trkpt lat="42.97175" lon="0.32755">
        <ele>1712.3</ele>
        <time>2026-07-07T07:30:40Z</time>
      </trkpt>
      <trkpt lat="42.97175" lon="0.32756">
        <ele>1712.3</ele>
        <time>2026-07-07T07:30:41Z</time>
      </trkpt>
      <trkpt lat="42.97175" lon="0.32757">
        <ele>1713.3</ele>
        <time>2026-07-07T07:30:42Z</time>
      </trkpt>
      <trkpt lat="42.97175" lon="0.32758">
        <ele>1713.3</ele>
        <time>2026-07-07T07:30:43Z</time>
      </trkpt>
      <trkpt lat="42.97175" lon="0.32758">
        <ele>1713.3</ele>
        <time>2026-07-07T07:30:44Z</time>
      </trkpt>
      <trkpt lat="42.97175" lon="0.32758">
        <ele>1713.3</ele>
        <time>2026-07-07T07:30:45Z</time>
      </trkpt>
      <trkpt lat="42.97175" lon="0.32758">
        <ele>1713.3</ele>
        <time>2026-07-07T07:30:45Z</time>
      </trkpt>
      <trkpt lat="42.97175" lon="0.32758">
        <ele>1713.3</ele>
        <time>2026-07-07T07:30:46Z</time>
      </trkpt>
      <trkpt lat="42.97175" lon="0.32758">
        <ele>1713.3</ele>
        <time>2026-07-07T07:30:47Z</time>
      </trkpt>
      <trkpt lat="42.97175" lon="0.32758">
        <ele>1715.3</ele>
        <time>2026-07-07T07:30:47Z</time>
      </trkpt>
      <trkpt lat="42.97176" lon="0.32759">
        <ele>1716.3</ele>
        <time>2026-07-07T07:30:48Z</time>
      </trkpt>
      <trkpt lat="42.97176" lon="0.32759">
        <ele>1716.3</ele>
        <time>2026-07-07T07:30:49Z</time>
      </trkpt>
      <trkpt lat="42.97176" lon="0.3276">
        <ele>1715.3</ele>
        <time>2026-07-07T07:30:50Z</time>
      </trkpt>
      <trkpt lat="42.97175" lon="0.32761">
        <ele>1715.3</ele>
        <time>2026-07-07T07:30:51Z</time>
      </trkpt>
      <trkpt lat="42.97175" lon="0.32761">
        <ele>1716.3</ele>
        <time>2026-07-07T07:30:52Z</time>
      </trkpt>
      <trkpt lat="42.97175" lon="0.32762">
        <ele>1716.3</ele>
        <time>2026-07-07T07:30:53Z</time>
      </trkpt>
      <trkpt lat="42.97175" lon="0.32762">
        <ele>1716.3</ele>
        <time>2026-07-07T07:30:54Z</time>
      </trkpt>
      <trkpt lat="42.97175" lon="0.32763">
        <ele>1716.3</ele>
        <time>2026-07-07T07:30:55Z</time>
      </trkpt>
      <trkpt lat="42.97176" lon="0.32763">
        <ele>1716.3</ele>
        <time>2026-07-07T07:30:56Z</time>
      </trkpt>
      <trkpt lat="42.97176" lon="0.32763">
        <ele>1716.3</ele>
        <time>2026-07-07T07:30:57Z</time>
      </trkpt>
      <trkpt lat="42.97176" lon="0.32764">
        <ele>1716.3</ele>
        <time>2026-07-07T07:30:58Z</time>
      </trkpt>
      <trkpt lat="42.97177" lon="0.32765">
        <ele>1716.3</ele>
        <time>2026-07-07T07:30:59Z</time>
      </trkpt>
      <trkpt lat="42.97177" lon="0.32765">
        <ele>1716.3</ele>
        <time>2026-07-07T07:31:00Z</time>
      </trkpt>
      <trkpt lat="42.97177" lon="0.32765">
        <ele>1717.3</ele>
        <time>2026-07-07T07:31:00Z</time>
      </trkpt>
      <trkpt lat="42.97178" lon="0.32765">
        <ele>1718.3</ele>
        <time>2026-07-07T07:31:01Z</time>
      </trkpt>
      <trkpt lat="42.97178" lon="0.32765">
        <ele>1718.3</ele>
        <time>2026-07-07T07:31:02Z</time>
      </trkpt>
      <trkpt lat="42.97178" lon="0.32765">
        <ele>1718.3</ele>
        <time>2026-07-07T07:31:03Z</time>
      </trkpt>
      <trkpt lat="42.97178" lon="0.32765">
        <ele>1718.3</ele>
        <time>2026-07-07T07:31:04Z</time>
      </trkpt>
      <trkpt lat="42.97179" lon="0.32766">
        <ele>1718.3</ele>
        <time>2026-07-07T07:31:05Z</time>
      </trkpt>
      <trkpt lat="42.97179" lon="0.32766">
        <ele>1718.3</ele>
        <time>2026-07-07T07:31:06Z</time>
      </trkpt>
      <trkpt lat="42.9718" lon="0.32766">
        <ele>1717.3</ele>
        <time>2026-07-07T07:31:07Z</time>
      </trkpt>
      <trkpt lat="42.9718" lon="0.32766">
        <ele>1717.3</ele>
        <time>2026-07-07T07:31:08Z</time>
      </trkpt>
      <trkpt lat="42.97181" lon="0.32766">
        <ele>1717.3</ele>
        <time>2026-07-07T07:31:09Z</time>
      </trkpt>
      <trkpt lat="42.97181" lon="0.32766">
        <ele>1718.3</ele>
        <time>2026-07-07T07:31:10Z</time>
      </trkpt>
      <trkpt lat="42.97181" lon="0.32766">
        <ele>1718.3</ele>
        <time>2026-07-07T07:31:11Z</time>
      </trkpt>
      <trkpt lat="42.97181" lon="0.32766">
        <ele>1718.3</ele>
        <time>2026-07-07T07:31:12Z</time>
      </trkpt>
      <trkpt lat="42.97182" lon="0.32767">
        <ele>1719.3</ele>
        <time>2026-07-07T07:31:13Z</time>
      </trkpt>
      <trkpt lat="42.97182" lon="0.32767">
        <ele>1719.3</ele>
        <time>2026-07-07T07:31:14Z</time>
      </trkpt>
      <trkpt lat="42.97182" lon="0.32767">
        <ele>1719.3</ele>
        <time>2026-07-07T07:31:15Z</time>
      </trkpt>
      <trkpt lat="42.97183" lon="0.32768">
        <ele>1719.3</ele>
        <time>2026-07-07T07:31:16Z</time>
      </trkpt>
      <trkpt lat="42.97183" lon="0.32768">
        <ele>1720.3</ele>
        <time>2026-07-07T07:31:17Z</time>
      </trkpt>
      <trkpt lat="42.97183" lon="0.32769">
        <ele>1720.3</ele>
        <time>2026-07-07T07:31:18Z</time>
      </trkpt>
      <trkpt lat="42.97184" lon="0.32769">
        <ele>1720.3</ele>
        <time>2026-07-07T07:31:19Z</time>
      </trkpt>
      <trkpt lat="42.97184" lon="0.3277">
        <ele>1720.3</ele>
        <time>2026-07-07T07:31:20Z</time>
      </trkpt>
      <trkpt lat="42.97185" lon="0.3277">
        <ele>1720.3</ele>
        <time>2026-07-07T07:31:21Z</time>
      </trkpt>
      <trkpt lat="42.97186" lon="0.3277">
        <ele>1721.3</ele>
        <time>2026-07-07T07:31:22Z</time>
      </trkpt>
      <trkpt lat="42.97186" lon="0.3277">
        <ele>1721.3</ele>
        <time>2026-07-07T07:31:23Z</time>
      </trkpt>
      <trkpt lat="42.97187" lon="0.32771">
        <ele>1721.3</ele>
        <time>2026-07-07T07:31:24Z</time>
      </trkpt>
      <trkpt lat="42.97187" lon="0.32771">
        <ele>1721.3</ele>
        <time>2026-07-07T07:31:25Z</time>
      </trkpt>
      <trkpt lat="42.97188" lon="0.32771">
        <ele>1721.3</ele>
        <time>2026-07-07T07:31:26Z</time>
      </trkpt>
      <trkpt lat="42.97188" lon="0.32771">
        <ele>1721.3</ele>
        <time>2026-07-07T07:31:27Z</time>
      </trkpt>
      <trkpt lat="42.97188" lon="0.32772">
        <ele>1721.3</ele>
        <time>2026-07-07T07:31:28Z</time>
      </trkpt>
      <trkpt lat="42.97189" lon="0.32772">
        <ele>1721.3</ele>
        <time>2026-07-07T07:31:29Z</time>
      </trkpt>
      <trkpt lat="42.97188" lon="0.32773">
        <ele>1721.3</ele>
        <time>2026-07-07T07:31:30Z</time>
      </trkpt>
      <trkpt lat="42.97189" lon="0.32773">
        <ele>1722.3</ele>
        <time>2026-07-07T07:31:31Z</time>
      </trkpt>
      <trkpt lat="42.97189" lon="0.32773">
        <ele>1721.3</ele>
        <time>2026-07-07T07:31:32Z</time>
      </trkpt>
      <trkpt lat="42.9719" lon="0.32773">
        <ele>1720.3</ele>
        <time>2026-07-07T07:31:33Z</time>
      </trkpt>
      <trkpt lat="42.9719" lon="0.32773">
        <ele>1720.3</ele>
        <time>2026-07-07T07:31:34Z</time>
      </trkpt>
      <trkpt lat="42.97191" lon="0.32773">
        <ele>1720.3</ele>
        <time>2026-07-07T07:31:35Z</time>
      </trkpt>
      <trkpt lat="42.97191" lon="0.32773">
        <ele>1720.3</ele>
        <time>2026-07-07T07:31:36Z</time>
      </trkpt>
      <trkpt lat="42.97192" lon="0.32773">
        <ele>1721.3</ele>
        <time>2026-07-07T07:31:37Z</time>
      </trkpt>
      <trkpt lat="42.97193" lon="0.32773">
        <ele>1721.3</ele>
        <time>2026-07-07T07:31:38Z</time>
      </trkpt>
      <trkpt lat="42.97193" lon="0.32773">
        <ele>1721.3</ele>
        <time>2026-07-07T07:31:39Z</time>
      </trkpt>
      <trkpt lat="42.97194" lon="0.32774">
        <ele>1722.3</ele>
        <time>2026-07-07T07:31:40Z</time>
      </trkpt>
      <trkpt lat="42.97194" lon="0.32774">
        <ele>1722.3</ele>
        <time>2026-07-07T07:31:41Z</time>
      </trkpt>
      <trkpt lat="42.97195" lon="0.32774">
        <ele>1722.3</ele>
        <time>2026-07-07T07:31:41Z</time>
      </trkpt>
      <trkpt lat="42.97195" lon="0.32774">
        <ele>1722.3</ele>
        <time>2026-07-07T07:31:42Z</time>
      </trkpt>
      <trkpt lat="42.97195" lon="0.32775">
        <ele>1722.3</ele>
        <time>2026-07-07T07:31:43Z</time>
      </trkpt>
      <trkpt lat="42.97195" lon="0.32775">
        <ele>1722.3</ele>
        <time>2026-07-07T07:31:44Z</time>
      </trkpt>
      <trkpt lat="42.97196" lon="0.32775">
        <ele>1722.3</ele>
        <time>2026-07-07T07:31:45Z</time>
      </trkpt>
      <trkpt lat="42.97196" lon="0.32776">
        <ele>1722.3</ele>
        <time>2026-07-07T07:31:46Z</time>
      </trkpt>
      <trkpt lat="42.97196" lon="0.32776">
        <ele>1722.3</ele>
        <time>2026-07-07T07:31:46Z</time>
      </trkpt>
      <trkpt lat="42.97197" lon="0.32776">
        <ele>1722.3</ele>
        <time>2026-07-07T07:31:47Z</time>
      </trkpt>
      <trkpt lat="42.97197" lon="0.32776">
        <ele>1722.3</ele>
        <time>2026-07-07T07:31:48Z</time>
      </trkpt>
      <trkpt lat="42.97198" lon="0.32776">
        <ele>1722.3</ele>
        <time>2026-07-07T07:31:49Z</time>
      </trkpt>
      <trkpt lat="42.97199" lon="0.32777">
        <ele>1721.3</ele>
        <time>2026-07-07T07:31:50Z</time>
      </trkpt>
      <trkpt lat="42.97199" lon="0.32777">
        <ele>1721.3</ele>
        <time>2026-07-07T07:31:51Z</time>
      </trkpt>
      <trkpt lat="42.97199" lon="0.32777">
        <ele>1721.3</ele>
        <time>2026-07-07T07:31:52Z</time>
      </trkpt>
      <trkpt lat="42.97199" lon="0.32777">
        <ele>1723.3</ele>
        <time>2026-07-07T07:31:52Z</time>
      </trkpt>
      <trkpt lat="42.97199" lon="0.32778">
        <ele>1723.3</ele>
        <time>2026-07-07T07:31:53Z</time>
      </trkpt>
      <trkpt lat="42.972" lon="0.32778">
        <ele>1724.3</ele>
        <time>2026-07-07T07:31:54Z</time>
      </trkpt>
      <trkpt lat="42.972" lon="0.32779">
        <ele>1724.3</ele>
        <time>2026-07-07T07:31:55Z</time>
      </trkpt>
      <trkpt lat="42.97201" lon="0.32779">
        <ele>1724.3</ele>
        <time>2026-07-07T07:31:56Z</time>
      </trkpt>
      <trkpt lat="42.97201" lon="0.32779">
        <ele>1724.3</ele>
        <time>2026-07-07T07:31:57Z</time>
      </trkpt>
      <trkpt lat="42.97201" lon="0.3278">
        <ele>1724.3</ele>
        <time>2026-07-07T07:31:58Z</time>
      </trkpt>
      <trkpt lat="42.97202" lon="0.32781">
        <ele>1724.3</ele>
        <time>2026-07-07T07:31:59Z</time>
      </trkpt>
      <trkpt lat="42.97202" lon="0.32781">
        <ele>1724.3</ele>
        <time>2026-07-07T07:32:00Z</time>
      </trkpt>
      <trkpt lat="42.97203" lon="0.32782">
        <ele>1724.3</ele>
        <time>2026-07-07T07:32:01Z</time>
      </trkpt>
      <trkpt lat="42.97203" lon="0.32782">
        <ele>1725.3</ele>
        <time>2026-07-07T07:32:02Z</time>
      </trkpt>
      <trkpt lat="42.97203" lon="0.32783">
        <ele>1725.3</ele>
        <time>2026-07-07T07:32:03Z</time>
      </trkpt>
      <trkpt lat="42.97204" lon="0.32783">
        <ele>1725.3</ele>
        <time>2026-07-07T07:32:04Z</time>
      </trkpt>
      <trkpt lat="42.97204" lon="0.32783">
        <ele>1725.3</ele>
        <time>2026-07-07T07:32:04Z</time>
      </trkpt>
      <trkpt lat="42.97204" lon="0.32783">
        <ele>1725.3</ele>
        <time>2026-07-07T07:32:05Z</time>
      </trkpt>
      <trkpt lat="42.97204" lon="0.32783">
        <ele>1725.3</ele>
        <time>2026-07-07T07:32:05Z</time>
      </trkpt>
      <trkpt lat="42.97204" lon="0.32783">
        <ele>1725.3</ele>
        <time>2026-07-07T07:32:06Z</time>
      </trkpt>
      <trkpt lat="42.97205" lon="0.32783">
        <ele>1726.3</ele>
        <time>2026-07-07T07:32:06Z</time>
      </trkpt>
      <trkpt lat="42.97205" lon="0.32783">
        <ele>1726.3</ele>
        <time>2026-07-07T07:32:07Z</time>
      </trkpt>
      <trkpt lat="42.97205" lon="0.32783">
        <ele>1725.3</ele>
        <time>2026-07-07T07:32:07Z</time>
      </trkpt>
      <trkpt lat="42.97205" lon="0.32784">
        <ele>1725.3</ele>
        <time>2026-07-07T07:32:08Z</time>
      </trkpt>
      <trkpt lat="42.97206" lon="0.32784">
        <ele>1725.3</ele>
        <time>2026-07-07T07:32:09Z</time>
      </trkpt>
      <trkpt lat="42.97206" lon="0.32784">
        <ele>1725.3</ele>
        <time>2026-07-07T07:32:09Z</time>
      </trkpt>
      <trkpt lat="42.97206" lon="0.32784">
        <ele>1725.3</ele>
        <time>2026-07-07T07:32:10Z</time>
      </trkpt>
      <trkpt lat="42.97206" lon="0.32785">
        <ele>1725.3</ele>
        <time>2026-07-07T07:32:11Z</time>
      </trkpt>
      <trkpt lat="42.97207" lon="0.32785">
        <ele>1726.3</ele>
        <time>2026-07-07T07:32:12Z</time>
      </trkpt>
      <trkpt lat="42.97207" lon="0.32786">
        <ele>1727.3</ele>
        <time>2026-07-07T07:32:13Z</time>
      </trkpt>
      <trkpt lat="42.97207" lon="0.32786">
        <ele>1726.3</ele>
        <time>2026-07-07T07:32:14Z</time>
      </trkpt>
      <trkpt lat="42.97207" lon="0.32787">
        <ele>1727.3</ele>
        <time>2026-07-07T07:32:15Z</time>
      </trkpt>
      <trkpt lat="42.97208" lon="0.32788">
        <ele>1728.3</ele>
        <time>2026-07-07T07:32:16Z</time>
      </trkpt>
      <trkpt lat="42.97208" lon="0.32788">
        <ele>1728.3</ele>
        <time>2026-07-07T07:32:17Z</time>
      </trkpt>
      <trkpt lat="42.97208" lon="0.32788">
        <ele>1728.3</ele>
        <time>2026-07-07T07:32:18Z</time>
      </trkpt>
      <trkpt lat="42.97207" lon="0.32788">
        <ele>1728.3</ele>
        <time>2026-07-07T07:32:18Z</time>
      </trkpt>
      <trkpt lat="42.97207" lon="0.32788">
        <ele>1728.3</ele>
        <time>2026-07-07T07:32:19Z</time>
      </trkpt>
      <trkpt lat="42.97208" lon="0.32788">
        <ele>1728.3</ele>
        <time>2026-07-07T07:32:20Z</time>
      </trkpt>
      <trkpt lat="42.97208" lon="0.32788">
        <ele>1729.3</ele>
        <time>2026-07-07T07:32:21Z</time>
      </trkpt>
      <trkpt lat="42.97208" lon="0.32788">
        <ele>1729.3</ele>
        <time>2026-07-07T07:32:22Z</time>
      </trkpt>
      <trkpt lat="42.97209" lon="0.32789">
        <ele>1728.3</ele>
        <time>2026-07-07T07:32:23Z</time>
      </trkpt>
      <trkpt lat="42.97209" lon="0.3279">
        <ele>1728.3</ele>
        <time>2026-07-07T07:32:24Z</time>
      </trkpt>
      <trkpt lat="42.97209" lon="0.3279">
        <ele>1728.3</ele>
        <time>2026-07-07T07:32:25Z</time>
      </trkpt>
      <trkpt lat="42.97209" lon="0.32791">
        <ele>1729.3</ele>
        <time>2026-07-07T07:32:26Z</time>
      </trkpt>
      <trkpt lat="42.9721" lon="0.32791">
        <ele>1729.3</ele>
        <time>2026-07-07T07:32:27Z</time>
      </trkpt>
      <trkpt lat="42.9721" lon="0.32792">
        <ele>1729.3</ele>
        <time>2026-07-07T07:32:28Z</time>
      </trkpt>
      <trkpt lat="42.9721" lon="0.32792">
        <ele>1729.3</ele>
        <time>2026-07-07T07:32:29Z</time>
      </trkpt>
      <trkpt lat="42.9721" lon="0.32792">
        <ele>1729.3</ele>
        <time>2026-07-07T07:32:29Z</time>
      </trkpt>
      <trkpt lat="42.97211" lon="0.32792">
        <ele>1729.3</ele>
        <time>2026-07-07T07:32:30Z</time>
      </trkpt>
      <trkpt lat="42.97211" lon="0.32793">
        <ele>1729.3</ele>
        <time>2026-07-07T07:32:31Z</time>
      </trkpt>
      <trkpt lat="42.97212" lon="0.32794">
        <ele>1729.3</ele>
        <time>2026-07-07T07:32:32Z</time>
      </trkpt>
      <trkpt lat="42.97212" lon="0.32794">
        <ele>1729.3</ele>
        <time>2026-07-07T07:32:33Z</time>
      </trkpt>
      <trkpt lat="42.97212" lon="0.32795">
        <ele>1729.3</ele>
        <time>2026-07-07T07:32:34Z</time>
      </trkpt>
      <trkpt lat="42.97213" lon="0.32795">
        <ele>1729.3</ele>
        <time>2026-07-07T07:32:35Z</time>
      </trkpt>
      <trkpt lat="42.97213" lon="0.32796">
        <ele>1729.3</ele>
        <time>2026-07-07T07:32:36Z</time>
      </trkpt>
      <trkpt lat="42.97213" lon="0.32795">
        <ele>1729.3</ele>
        <time>2026-07-07T07:32:37Z</time>
      </trkpt>
      <trkpt lat="42.97213" lon="0.32795">
        <ele>1730.3</ele>
        <time>2026-07-07T07:32:37Z</time>
      </trkpt>
      <trkpt lat="42.97213" lon="0.32796">
        <ele>1730.3</ele>
        <time>2026-07-07T07:32:38Z</time>
      </trkpt>
      <trkpt lat="42.97214" lon="0.32796">
        <ele>1730.3</ele>
        <time>2026-07-07T07:32:39Z</time>
      </trkpt>
      <trkpt lat="42.97215" lon="0.32797">
        <ele>1730.3</ele>
        <time>2026-07-07T07:32:40Z</time>
      </trkpt>
      <trkpt lat="42.97215" lon="0.32798">
        <ele>1730.3</ele>
        <time>2026-07-07T07:32:41Z</time>
      </trkpt>
      <trkpt lat="42.97216" lon="0.32798">
        <ele>1730.3</ele>
        <time>2026-07-07T07:32:42Z</time>
      </trkpt>
      <trkpt lat="42.97216" lon="0.32799">
        <ele>1730.3</ele>
        <time>2026-07-07T07:32:43Z</time>
      </trkpt>
      <trkpt lat="42.97217" lon="0.328">
        <ele>1730.3</ele>
        <time>2026-07-07T07:32:44Z</time>
      </trkpt>
      <trkpt lat="42.97218" lon="0.328">
        <ele>1729.3</ele>
        <time>2026-07-07T07:32:45Z</time>
      </trkpt>
      <trkpt lat="42.97218" lon="0.32801">
        <ele>1729.3</ele>
        <time>2026-07-07T07:32:46Z</time>
      </trkpt>
      <trkpt lat="42.97218" lon="0.32801">
        <ele>1730.3</ele>
        <time>2026-07-07T07:32:47Z</time>
      </trkpt>
      <trkpt lat="42.97218" lon="0.32801">
        <ele>1730.3</ele>
        <time>2026-07-07T07:32:47Z</time>
      </trkpt>
      <trkpt lat="42.97219" lon="0.32801">
        <ele>1730.3</ele>
        <time>2026-07-07T07:32:48Z</time>
      </trkpt>
      <trkpt lat="42.97219" lon="0.32802">
        <ele>1731.3</ele>
        <time>2026-07-07T07:32:48Z</time>
      </trkpt>
      <trkpt lat="42.97219" lon="0.32802">
        <ele>1731.3</ele>
        <time>2026-07-07T07:32:49Z</time>
      </trkpt>
      <trkpt lat="42.97219" lon="0.32803">
        <ele>1732.3</ele>
        <time>2026-07-07T07:32:49Z</time>
      </trkpt>
      <trkpt lat="42.9722" lon="0.32803">
        <ele>1732.3</ele>
        <time>2026-07-07T07:32:50Z</time>
      </trkpt>
      <trkpt lat="42.97221" lon="0.32804">
        <ele>1732.3</ele>
        <time>2026-07-07T07:32:51Z</time>
      </trkpt>
      <trkpt lat="42.97221" lon="0.32805">
        <ele>1732.3</ele>
        <time>2026-07-07T07:32:52Z</time>
      </trkpt>
      <trkpt lat="42.97221" lon="0.32805">
        <ele>1732.3</ele>
        <time>2026-07-07T07:32:53Z</time>
      </trkpt>
      <trkpt lat="42.97222" lon="0.32806">
        <ele>1732.3</ele>
        <time>2026-07-07T07:32:54Z</time>
      </trkpt>
      <trkpt lat="42.97222" lon="0.32807">
        <ele>1733.3</ele>
        <time>2026-07-07T07:32:55Z</time>
      </trkpt>
      <trkpt lat="42.97223" lon="0.32808">
        <ele>1733.3</ele>
        <time>2026-07-07T07:32:56Z</time>
      </trkpt>
      <trkpt lat="42.97223" lon="0.32808">
        <ele>1733.3</ele>
        <time>2026-07-07T07:32:56Z</time>
      </trkpt>
      <trkpt lat="42.97223" lon="0.32809">
        <ele>1733.3</ele>
        <time>2026-07-07T07:32:57Z</time>
      </trkpt>
      <trkpt lat="42.97223" lon="0.32809">
        <ele>1734.3</ele>
        <time>2026-07-07T07:32:58Z</time>
      </trkpt>
      <trkpt lat="42.97223" lon="0.3281">
        <ele>1733.3</ele>
        <time>2026-07-07T07:32:59Z</time>
      </trkpt>
      <trkpt lat="42.97224" lon="0.3281">
        <ele>1734.3</ele>
        <time>2026-07-07T07:33:00Z</time>
      </trkpt>
      <trkpt lat="42.97224" lon="0.3281">
        <ele>1733.3</ele>
        <time>2026-07-07T07:33:00Z</time>
      </trkpt>
      <trkpt lat="42.97224" lon="0.32811">
        <ele>1733.3</ele>
        <time>2026-07-07T07:33:01Z</time>
      </trkpt>
      <trkpt lat="42.97225" lon="0.32811">
        <ele>1733.3</ele>
        <time>2026-07-07T07:33:02Z</time>
      </trkpt>
      <trkpt lat="42.97225" lon="0.32812">
        <ele>1734.3</ele>
        <time>2026-07-07T07:33:03Z</time>
      </trkpt>
      <trkpt lat="42.97225" lon="0.32813">
        <ele>1734.3</ele>
        <time>2026-07-07T07:33:03Z</time>
      </trkpt>
      <trkpt lat="42.97225" lon="0.32813">
        <ele>1735.3</ele>
        <time>2026-07-07T07:33:04Z</time>
      </trkpt>
      <trkpt lat="42.97225" lon="0.32814">
        <ele>1735.3</ele>
        <time>2026-07-07T07:33:05Z</time>
      </trkpt>
      <trkpt lat="42.97226" lon="0.32815">
        <ele>1735.3</ele>
        <time>2026-07-07T07:33:06Z</time>
      </trkpt>
      <trkpt lat="42.97226" lon="0.32816">
        <ele>1736.3</ele>
        <time>2026-07-07T07:33:07Z</time>
      </trkpt>
      <trkpt lat="42.97226" lon="0.32816">
        <ele>1736.3</ele>
        <time>2026-07-07T07:33:08Z</time>
      </trkpt>
      <trkpt lat="42.97226" lon="0.32816">
        <ele>1736.3</ele>
        <time>2026-07-07T07:33:08Z</time>
      </trkpt>
      <trkpt lat="42.97226" lon="0.32817">
        <ele>1737.3</ele>
        <time>2026-07-07T07:33:09Z</time>
      </trkpt>
      <trkpt lat="42.97226" lon="0.32817">
        <ele>1737.3</ele>
        <time>2026-07-07T07:33:10Z</time>
      </trkpt>
      <trkpt lat="42.97225" lon="0.32817">
        <ele>1737.3</ele>
        <time>2026-07-07T07:33:11Z</time>
      </trkpt>
      <trkpt lat="42.97225" lon="0.32817">
        <ele>1737.3</ele>
        <time>2026-07-07T07:33:12Z</time>
      </trkpt>
      <trkpt lat="42.97224" lon="0.32817">
        <ele>1736.3</ele>
        <time>2026-07-07T07:33:13Z</time>
      </trkpt>
      <trkpt lat="42.97223" lon="0.32816">
        <ele>1736.3</ele>
        <time>2026-07-07T07:33:14Z</time>
      </trkpt>
      <trkpt lat="42.97223" lon="0.32816">
        <ele>1736.3</ele>
        <time>2026-07-07T07:33:14Z</time>
      </trkpt>
      <trkpt lat="42.97222" lon="0.32816">
        <ele>1736.3</ele>
        <time>2026-07-07T07:33:15Z</time>
      </trkpt>
      <trkpt lat="42.97222" lon="0.32817">
        <ele>1737.3</ele>
        <time>2026-07-07T07:33:16Z</time>
      </trkpt>
      <trkpt lat="42.97222" lon="0.32817">
        <ele>1737.3</ele>
        <time>2026-07-07T07:33:17Z</time>
      </trkpt>
      <trkpt lat="42.97222" lon="0.32818">
        <ele>1737.3</ele>
        <time>2026-07-07T07:33:18Z</time>
      </trkpt>
      <trkpt lat="42.97222" lon="0.32818">
        <ele>1737.3</ele>
        <time>2026-07-07T07:33:19Z</time>
      </trkpt>
      <trkpt lat="42.97222" lon="0.32819">
        <ele>1737.3</ele>
        <time>2026-07-07T07:33:20Z</time>
      </trkpt>
      <trkpt lat="42.97222" lon="0.32819">
        <ele>1737.3</ele>
        <time>2026-07-07T07:33:21Z</time>
      </trkpt>
      <trkpt lat="42.97222" lon="0.32819">
        <ele>1737.3</ele>
        <time>2026-07-07T07:33:22Z</time>
      </trkpt>
      <trkpt lat="42.97222" lon="0.3282">
        <ele>1737.3</ele>
        <time>2026-07-07T07:33:23Z</time>
      </trkpt>
      <trkpt lat="42.97222" lon="0.3282">
        <ele>1737.3</ele>
        <time>2026-07-07T07:33:24Z</time>
      </trkpt>
      <trkpt lat="42.97222" lon="0.3282">
        <ele>1737.3</ele>
        <time>2026-07-07T07:33:25Z</time>
      </trkpt>
      <trkpt lat="42.97222" lon="0.32821">
        <ele>1738.3</ele>
        <time>2026-07-07T07:33:26Z</time>
      </trkpt>
      <trkpt lat="42.97222" lon="0.32821">
        <ele>1737.3</ele>
        <time>2026-07-07T07:33:27Z</time>
      </trkpt>
      <trkpt lat="42.97222" lon="0.32821">
        <ele>1737.3</ele>
        <time>2026-07-07T07:33:28Z</time>
      </trkpt>
      <trkpt lat="42.97222" lon="0.32822">
        <ele>1737.3</ele>
        <time>2026-07-07T07:33:29Z</time>
      </trkpt>
      <trkpt lat="42.97222" lon="0.32822">
        <ele>1737.3</ele>
        <time>2026-07-07T07:33:30Z</time>
      </trkpt>
      <trkpt lat="42.97222" lon="0.32823">
        <ele>1737.3</ele>
        <time>2026-07-07T07:33:31Z</time>
      </trkpt>
      <trkpt lat="42.97223" lon="0.32823">
        <ele>1737.3</ele>
        <time>2026-07-07T07:33:31Z</time>
      </trkpt>
      <trkpt lat="42.97223" lon="0.32824">
        <ele>1737.3</ele>
        <time>2026-07-07T07:33:32Z</time>
      </trkpt>
      <trkpt lat="42.97222" lon="0.32824">
        <ele>1737.3</ele>
        <time>2026-07-07T07:33:33Z</time>
      </trkpt>
      <trkpt lat="42.97222" lon="0.32824">
        <ele>1737.3</ele>
        <time>2026-07-07T07:33:33Z</time>
      </trkpt>
      <trkpt lat="42.97222" lon="0.32825">
        <ele>1737.3</ele>
        <time>2026-07-07T07:33:34Z</time>
      </trkpt>
      <trkpt lat="42.97221" lon="0.32825">
        <ele>1737.3</ele>
        <time>2026-07-07T07:33:35Z</time>
      </trkpt>
      <trkpt lat="42.97221" lon="0.32825">
        <ele>1737.3</ele>
        <time>2026-07-07T07:33:36Z</time>
      </trkpt>
      <trkpt lat="42.97221" lon="0.32826">
        <ele>1737.3</ele>
        <time>2026-07-07T07:33:37Z</time>
      </trkpt>
      <trkpt lat="42.97221" lon="0.32826">
        <ele>1737.3</ele>
        <time>2026-07-07T07:33:38Z</time>
      </trkpt>
      <trkpt lat="42.97221" lon="0.32827">
        <ele>1738.3</ele>
        <time>2026-07-07T07:33:39Z</time>
      </trkpt>
      <trkpt lat="42.97221" lon="0.32827">
        <ele>1737.3</ele>
        <time>2026-07-07T07:33:40Z</time>
      </trkpt>
      <trkpt lat="42.97221" lon="0.32827">
        <ele>1737.3</ele>
        <time>2026-07-07T07:33:41Z</time>
      </trkpt>
      <trkpt lat="42.97221" lon="0.32828">
        <ele>1737.3</ele>
        <time>2026-07-07T07:33:41Z</time>
      </trkpt>
      <trkpt lat="42.97221" lon="0.32828">
        <ele>1738.3</ele>
        <time>2026-07-07T07:33:42Z</time>
      </trkpt>
      <trkpt lat="42.97221" lon="0.32829">
        <ele>1738.3</ele>
        <time>2026-07-07T07:33:43Z</time>
      </trkpt>
      <trkpt lat="42.97222" lon="0.3283">
        <ele>1738.3</ele>
        <time>2026-07-07T07:33:44Z</time>
      </trkpt>
      <trkpt lat="42.97222" lon="0.32831">
        <ele>1738.3</ele>
        <time>2026-07-07T07:33:45Z</time>
      </trkpt>
      <trkpt lat="42.97222" lon="0.32832">
        <ele>1739.3</ele>
        <time>2026-07-07T07:33:46Z</time>
      </trkpt>
      <trkpt lat="42.97223" lon="0.32833">
        <ele>1739.3</ele>
        <time>2026-07-07T07:33:47Z</time>
      </trkpt>
      <trkpt lat="42.97223" lon="0.32834">
        <ele>1740.3</ele>
        <time>2026-07-07T07:33:47Z</time>
      </trkpt>
      <trkpt lat="42.97223" lon="0.32835">
        <ele>1740.3</ele>
        <time>2026-07-07T07:33:48Z</time>
      </trkpt>
      <trkpt lat="42.97224" lon="0.32835">
        <ele>1740.3</ele>
        <time>2026-07-07T07:33:49Z</time>
      </trkpt>
      <trkpt lat="42.97224" lon="0.32836">
        <ele>1739.3</ele>
        <time>2026-07-07T07:33:49Z</time>
      </trkpt>
      <trkpt lat="42.97224" lon="0.32837">
        <ele>1739.3</ele>
        <time>2026-07-07T07:33:50Z</time>
      </trkpt>
      <trkpt lat="42.97224" lon="0.32838">
        <ele>1740.3</ele>
        <time>2026-07-07T07:33:51Z</time>
      </trkpt>
      <trkpt lat="42.97224" lon="0.32839">
        <ele>1740.3</ele>
        <time>2026-07-07T07:33:52Z</time>
      </trkpt>
      <trkpt lat="42.97225" lon="0.32839">
        <ele>1740.3</ele>
        <time>2026-07-07T07:33:52Z</time>
      </trkpt>
      <trkpt lat="42.97224" lon="0.32841">
        <ele>1740.3</ele>
        <time>2026-07-07T07:33:53Z</time>
      </trkpt>
      <trkpt lat="42.97224" lon="0.32841">
        <ele>1741.3</ele>
        <time>2026-07-07T07:33:54Z</time>
      </trkpt>
      <trkpt lat="42.97224" lon="0.32842">
        <ele>1741.3</ele>
        <time>2026-07-07T07:33:55Z</time>
      </trkpt>
      <trkpt lat="42.97223" lon="0.32842">
        <ele>1741.3</ele>
        <time>2026-07-07T07:33:56Z</time>
      </trkpt>
      <trkpt lat="42.97223" lon="0.32841">
        <ele>1741.3</ele>
        <time>2026-07-07T07:33:56Z</time>
      </trkpt>
      <trkpt lat="42.97223" lon="0.32841">
        <ele>1741.3</ele>
        <time>2026-07-07T07:33:57Z</time>
      </trkpt>
      <trkpt lat="42.97223" lon="0.32841">
        <ele>1741.3</ele>
        <time>2026-07-07T07:33:58Z</time>
      </trkpt>
      <trkpt lat="42.97223" lon="0.32841">
        <ele>1741.3</ele>
        <time>2026-07-07T07:33:59Z</time>
      </trkpt>
      <trkpt lat="42.97223" lon="0.32841">
        <ele>1741.3</ele>
        <time>2026-07-07T07:34:00Z</time>
      </trkpt>
      <trkpt lat="42.97222" lon="0.32842">
        <ele>1741.3</ele>
        <time>2026-07-07T07:34:00Z</time>
      </trkpt>
      <trkpt lat="42.97222" lon="0.32843">
        <ele>1741.3</ele>
        <time>2026-07-07T07:34:01Z</time>
      </trkpt>
      <trkpt lat="42.97222" lon="0.32843">
        <ele>1741.3</ele>
        <time>2026-07-07T07:34:02Z</time>
      </trkpt>
      <trkpt lat="42.97221" lon="0.32843">
        <ele>1740.3</ele>
        <time>2026-07-07T07:34:03Z</time>
      </trkpt>
      <trkpt lat="42.9722" lon="0.32843">
        <ele>1740.3</ele>
        <time>2026-07-07T07:34:04Z</time>
      </trkpt>
      <trkpt lat="42.9722" lon="0.32843">
        <ele>1741.3</ele>
        <time>2026-07-07T07:34:05Z</time>
      </trkpt>
      <trkpt lat="42.97219" lon="0.32843">
        <ele>1742.3</ele>
        <time>2026-07-07T07:34:06Z</time>
      </trkpt>
      <trkpt lat="42.97219" lon="0.32842">
        <ele>1743.3</ele>
        <time>2026-07-07T07:34:06Z</time>
      </trkpt>
      <trkpt lat="42.97219" lon="0.32842">
        <ele>1743.3</ele>
        <time>2026-07-07T07:34:07Z</time>
      </trkpt>
      <trkpt lat="42.97218" lon="0.32842">
        <ele>1743.3</ele>
        <time>2026-07-07T07:34:07Z</time>
      </trkpt>
      <trkpt lat="42.97218" lon="0.32842">
        <ele>1743.3</ele>
        <time>2026-07-07T07:34:08Z</time>
      </trkpt>
      <trkpt lat="42.97218" lon="0.32842">
        <ele>1743.3</ele>
        <time>2026-07-07T07:34:09Z</time>
      </trkpt>
      <trkpt lat="42.97218" lon="0.32843">
        <ele>1743.3</ele>
        <time>2026-07-07T07:34:10Z</time>
      </trkpt>
      <trkpt lat="42.97218" lon="0.32844">
        <ele>1743.3</ele>
        <time>2026-07-07T07:34:11Z</time>
      </trkpt>
      <trkpt lat="42.97218" lon="0.32845">
        <ele>1744.3</ele>
        <time>2026-07-07T07:34:12Z</time>
      </trkpt>
      <trkpt lat="42.97218" lon="0.32845">
        <ele>1744.3</ele>
        <time>2026-07-07T07:34:13Z</time>
      </trkpt>
      <trkpt lat="42.97218" lon="0.32846">
        <ele>1744.3</ele>
        <time>2026-07-07T07:34:13Z</time>
      </trkpt>
      <trkpt lat="42.97217" lon="0.32846">
        <ele>1744.3</ele>
        <time>2026-07-07T07:34:14Z</time>
      </trkpt>
      <trkpt lat="42.97217" lon="0.32847">
        <ele>1744.3</ele>
        <time>2026-07-07T07:34:15Z</time>
      </trkpt>
      <trkpt lat="42.97217" lon="0.32848">
        <ele>1744.3</ele>
        <time>2026-07-07T07:34:16Z</time>
      </trkpt>
      <trkpt lat="42.97217" lon="0.32848">
        <ele>1744.3</ele>
        <time>2026-07-07T07:34:17Z</time>
      </trkpt>
      <trkpt lat="42.97217" lon="0.32849">
        <ele>1745.3</ele>
        <time>2026-07-07T07:34:18Z</time>
      </trkpt>
      <trkpt lat="42.97216" lon="0.3285">
        <ele>1745.3</ele>
        <time>2026-07-07T07:34:19Z</time>
      </trkpt>
      <trkpt lat="42.97216" lon="0.3285">
        <ele>1744.3</ele>
        <time>2026-07-07T07:34:19Z</time>
      </trkpt>
      <trkpt lat="42.97216" lon="0.32851">
        <ele>1744.3</ele>
        <time>2026-07-07T07:34:20Z</time>
      </trkpt>
      <trkpt lat="42.97216" lon="0.32852">
        <ele>1744.3</ele>
        <time>2026-07-07T07:34:21Z</time>
      </trkpt>
      <trkpt lat="42.97216" lon="0.32853">
        <ele>1744.3</ele>
        <time>2026-07-07T07:34:22Z</time>
      </trkpt>
      <trkpt lat="42.97216" lon="0.32854">
        <ele>1745.3</ele>
        <time>2026-07-07T07:34:23Z</time>
      </trkpt>
      <trkpt lat="42.97216" lon="0.32854">
        <ele>1745.3</ele>
        <time>2026-07-07T07:34:23Z</time>
      </trkpt>
      <trkpt lat="42.97216" lon="0.32855">
        <ele>1746.3</ele>
        <time>2026-07-07T07:34:24Z</time>
      </trkpt>
      <trkpt lat="42.97216" lon="0.32856">
        <ele>1746.3</ele>
        <time>2026-07-07T07:34:25Z</time>
      </trkpt>
      <trkpt lat="42.97216" lon="0.32856">
        <ele>1746.3</ele>
        <time>2026-07-07T07:34:26Z</time>
      </trkpt>
      <trkpt lat="42.97216" lon="0.32857">
        <ele>1746.3</ele>
        <time>2026-07-07T07:34:27Z</time>
      </trkpt>
      <trkpt lat="42.97216" lon="0.32858">
        <ele>1747.3</ele>
        <time>2026-07-07T07:34:28Z</time>
      </trkpt>
      <trkpt lat="42.97216" lon="0.32859">
        <ele>1747.3</ele>
        <time>2026-07-07T07:34:29Z</time>
      </trkpt>
      <trkpt lat="42.97215" lon="0.3286">
        <ele>1748.3</ele>
        <time>2026-07-07T07:34:29Z</time>
      </trkpt>
      <trkpt lat="42.97215" lon="0.32861">
        <ele>1748.3</ele>
        <time>2026-07-07T07:34:30Z</time>
      </trkpt>
      <trkpt lat="42.97215" lon="0.32862">
        <ele>1748.3</ele>
        <time>2026-07-07T07:34:31Z</time>
      </trkpt>
      <trkpt lat="42.97215" lon="0.32863">
        <ele>1748.3</ele>
        <time>2026-07-07T07:34:32Z</time>
      </trkpt>
      <trkpt lat="42.97215" lon="0.32864">
        <ele>1748.3</ele>
        <time>2026-07-07T07:34:33Z</time>
      </trkpt>
      <trkpt lat="42.97215" lon="0.32864">
        <ele>1748.3</ele>
        <time>2026-07-07T07:34:33Z</time>
      </trkpt>
      <trkpt lat="42.97214" lon="0.32865">
        <ele>1748.3</ele>
        <time>2026-07-07T07:34:34Z</time>
      </trkpt>
      <trkpt lat="42.97214" lon="0.32865">
        <ele>1748.3</ele>
        <time>2026-07-07T07:34:35Z</time>
      </trkpt>
      <trkpt lat="42.97213" lon="0.32866">
        <ele>1748.3</ele>
        <time>2026-07-07T07:34:36Z</time>
      </trkpt>
      <trkpt lat="42.97213" lon="0.32866">
        <ele>1748.3</ele>
        <time>2026-07-07T07:34:36Z</time>
      </trkpt>
      <trkpt lat="42.97213" lon="0.32866">
        <ele>1748.3</ele>
        <time>2026-07-07T07:34:37Z</time>
      </trkpt>
      <trkpt lat="42.97212" lon="0.32867">
        <ele>1748.3</ele>
        <time>2026-07-07T07:34:38Z</time>
      </trkpt>
      <trkpt lat="42.97211" lon="0.32867">
        <ele>1747.3</ele>
        <time>2026-07-07T07:34:39Z</time>
      </trkpt>
      <trkpt lat="42.97211" lon="0.32867">
        <ele>1748.3</ele>
        <time>2026-07-07T07:34:40Z</time>
      </trkpt>
      <trkpt lat="42.9721" lon="0.32866">
        <ele>1748.3</ele>
        <time>2026-07-07T07:34:41Z</time>
      </trkpt>
      <trkpt lat="42.9721" lon="0.32866">
        <ele>1748.3</ele>
        <time>2026-07-07T07:34:42Z</time>
      </trkpt>
      <trkpt lat="42.9721" lon="0.32866">
        <ele>1748.3</ele>
        <time>2026-07-07T07:34:42Z</time>
      </trkpt>
      <trkpt lat="42.9721" lon="0.32865">
        <ele>1748.3</ele>
        <time>2026-07-07T07:34:43Z</time>
      </trkpt>
      <trkpt lat="42.97209" lon="0.32865">
        <ele>1749.3</ele>
        <time>2026-07-07T07:34:44Z</time>
      </trkpt>
      <trkpt lat="42.97208" lon="0.32865">
        <ele>1749.3</ele>
        <time>2026-07-07T07:34:45Z</time>
      </trkpt>
      <trkpt lat="42.97208" lon="0.32865">
        <ele>1749.3</ele>
        <time>2026-07-07T07:34:46Z</time>
      </trkpt>
      <trkpt lat="42.97207" lon="0.32865">
        <ele>1749.3</ele>
        <time>2026-07-07T07:34:47Z</time>
      </trkpt>
      <trkpt lat="42.97207" lon="0.32865">
        <ele>1749.3</ele>
        <time>2026-07-07T07:34:48Z</time>
      </trkpt>
      <trkpt lat="42.97207" lon="0.32865">
        <ele>1749.3</ele>
        <time>2026-07-07T07:34:48Z</time>
      </trkpt>
      <trkpt lat="42.97206" lon="0.32865">
        <ele>1749.3</ele>
        <time>2026-07-07T07:34:49Z</time>
      </trkpt>
      <trkpt lat="42.97205" lon="0.32865">
        <ele>1749.3</ele>
        <time>2026-07-07T07:34:50Z</time>
      </trkpt>
      <trkpt lat="42.97205" lon="0.32865">
        <ele>1749.3</ele>
        <time>2026-07-07T07:34:51Z</time>
      </trkpt>
      <trkpt lat="42.97204" lon="0.32866">
        <ele>1749.3</ele>
        <time>2026-07-07T07:34:52Z</time>
      </trkpt>
      <trkpt lat="42.97204" lon="0.32866">
        <ele>1750.3</ele>
        <time>2026-07-07T07:34:53Z</time>
      </trkpt>
      <trkpt lat="42.97203" lon="0.32867">
        <ele>1750.3</ele>
        <time>2026-07-07T07:34:54Z</time>
      </trkpt>
      <trkpt lat="42.97203" lon="0.32867">
        <ele>1750.3</ele>
        <time>2026-07-07T07:34:54Z</time>
      </trkpt>
      <trkpt lat="42.97202" lon="0.32867">
        <ele>1750.3</ele>
        <time>2026-07-07T07:34:55Z</time>
      </trkpt>
      <trkpt lat="42.97202" lon="0.32867">
        <ele>1751.3</ele>
        <time>2026-07-07T07:34:56Z</time>
      </trkpt>
      <trkpt lat="42.97201" lon="0.32867">
        <ele>1751.3</ele>
        <time>2026-07-07T07:34:57Z</time>
      </trkpt>
      <trkpt lat="42.97201" lon="0.32867">
        <ele>1751.3</ele>
        <time>2026-07-07T07:34:58Z</time>
      </trkpt>
      <trkpt lat="42.972" lon="0.32867">
        <ele>1751.3</ele>
        <time>2026-07-07T07:34:59Z</time>
      </trkpt>
      <trkpt lat="42.972" lon="0.32867">
        <ele>1751.3</ele>
        <time>2026-07-07T07:34:59Z</time>
      </trkpt>
      <trkpt lat="42.97199" lon="0.32867">
        <ele>1751.3</ele>
        <time>2026-07-07T07:35:00Z</time>
      </trkpt>
      <trkpt lat="42.97199" lon="0.32867">
        <ele>1751.3</ele>
        <time>2026-07-07T07:35:01Z</time>
      </trkpt>
      <trkpt lat="42.97198" lon="0.32867">
        <ele>1751.3</ele>
        <time>2026-07-07T07:35:02Z</time>
      </trkpt>
      <trkpt lat="42.97198" lon="0.32867">
        <ele>1752.3</ele>
        <time>2026-07-07T07:35:03Z</time>
      </trkpt>
      <trkpt lat="42.97197" lon="0.32866">
        <ele>1752.3</ele>
        <time>2026-07-07T07:35:03Z</time>
      </trkpt>
      <trkpt lat="42.97196" lon="0.32866">
        <ele>1752.3</ele>
        <time>2026-07-07T07:35:04Z</time>
      </trkpt>
      <trkpt lat="42.97196" lon="0.32866">
        <ele>1753.3</ele>
        <time>2026-07-07T07:35:05Z</time>
      </trkpt>
      <trkpt lat="42.97195" lon="0.32866">
        <ele>1753.3</ele>
        <time>2026-07-07T07:35:06Z</time>
      </trkpt>
      <trkpt lat="42.97195" lon="0.32866">
        <ele>1753.3</ele>
        <time>2026-07-07T07:35:07Z</time>
      </trkpt>
      <trkpt lat="42.97194" lon="0.32866">
        <ele>1753.3</ele>
        <time>2026-07-07T07:35:08Z</time>
      </trkpt>
      <trkpt lat="42.97194" lon="0.32866">
        <ele>1753.3</ele>
        <time>2026-07-07T07:35:08Z</time>
      </trkpt>
      <trkpt lat="42.97194" lon="0.32866">
        <ele>1753.3</ele>
        <time>2026-07-07T07:35:09Z</time>
      </trkpt>
      <trkpt lat="42.97194" lon="0.32866">
        <ele>1753.3</ele>
        <time>2026-07-07T07:35:10Z</time>
      </trkpt>
      <trkpt lat="42.97194" lon="0.32866">
        <ele>1753.3</ele>
        <time>2026-07-07T07:35:11Z</time>
      </trkpt>
      <trkpt lat="42.97195" lon="0.32866">
        <ele>1753.3</ele>
        <time>2026-07-07T07:35:12Z</time>
      </trkpt>
      <trkpt lat="42.97195" lon="0.32866">
        <ele>1753.3</ele>
        <time>2026-07-07T07:35:13Z</time>
      </trkpt>
      <trkpt lat="42.97195" lon="0.32866">
        <ele>1753.3</ele>
        <time>2026-07-07T07:35:14Z</time>
      </trkpt>
      <trkpt lat="42.97195" lon="0.32866">
        <ele>1753.3</ele>
        <time>2026-07-07T07:35:15Z</time>
      </trkpt>
      <trkpt lat="42.97195" lon="0.32866">
        <ele>1753.3</ele>
        <time>2026-07-07T07:35:16Z</time>
      </trkpt>
      <trkpt lat="42.97195" lon="0.32866">
        <ele>1754.3</ele>
        <time>2026-07-07T07:35:17Z</time>
      </trkpt>
      <trkpt lat="42.97195" lon="0.32866">
        <ele>1754.3</ele>
        <time>2026-07-07T07:35:18Z</time>
      </trkpt>
      <trkpt lat="42.97195" lon="0.32866">
        <ele>1755.3</ele>
        <time>2026-07-07T07:35:19Z</time>
      </trkpt>
      <trkpt lat="42.97195" lon="0.32866">
        <ele>1755.3</ele>
        <time>2026-07-07T07:35:20Z</time>
      </trkpt>
      <trkpt lat="42.97195" lon="0.32866">
        <ele>1755.3</ele>
        <time>2026-07-07T07:35:21Z</time>
      </trkpt>
      <trkpt lat="42.97195" lon="0.32866">
        <ele>1755.3</ele>
        <time>2026-07-07T07:35:22Z</time>
      </trkpt>
      <trkpt lat="42.97195" lon="0.32866">
        <ele>1755.3</ele>
        <time>2026-07-07T07:35:23Z</time>
      </trkpt>
      <trkpt lat="42.97195" lon="0.32866">
        <ele>1755.3</ele>
        <time>2026-07-07T07:35:24Z</time>
      </trkpt>
      <trkpt lat="42.97195" lon="0.32866">
        <ele>1755.3</ele>
        <time>2026-07-07T07:35:25Z</time>
      </trkpt>
      <trkpt lat="42.97195" lon="0.32866">
        <ele>1755.3</ele>
        <time>2026-07-07T07:35:26Z</time>
      </trkpt>
      <trkpt lat="42.97195" lon="0.32866">
        <ele>1755.3</ele>
        <time>2026-07-07T07:35:27Z</time>
      </trkpt>
      <trkpt lat="42.97195" lon="0.32866">
        <ele>1755.3</ele>
        <time>2026-07-07T07:35:28Z</time>
      </trkpt>
      <trkpt lat="42.97195" lon="0.32866">
        <ele>1755.3</ele>
        <time>2026-07-07T07:35:29Z</time>
      </trkpt>
      <trkpt lat="42.97195" lon="0.32866">
        <ele>1755.3</ele>
        <time>2026-07-07T07:35:30Z</time>
      </trkpt>
      <trkpt lat="42.97195" lon="0.32866">
        <ele>1755.3</ele>
        <time>2026-07-07T07:35:31Z</time>
      </trkpt>
      <trkpt lat="42.97195" lon="0.32866">
        <ele>1755.3</ele>
        <time>2026-07-07T07:35:32Z</time>
      </trkpt>
      <trkpt lat="42.97195" lon="0.32866">
        <ele>1755.3</ele>
        <time>2026-07-07T07:35:33Z</time>
      </trkpt>
      <trkpt lat="42.97195" lon="0.32866">
        <ele>1755.3</ele>
        <time>2026-07-07T07:35:34Z</time>
      </trkpt>
      <trkpt lat="42.97195" lon="0.32866">
        <ele>1755.3</ele>
        <time>2026-07-07T07:35:35Z</time>
      </trkpt>
      <trkpt lat="42.97195" lon="0.32866">
        <ele>1755.3</ele>
        <time>2026-07-07T07:35:36Z</time>
      </trkpt>
      <trkpt lat="42.97195" lon="0.32866">
        <ele>1755.3</ele>
        <time>2026-07-07T07:35:37Z</time>
      </trkpt>
      <trkpt lat="42.97195" lon="0.32866">
        <ele>1755.3</ele>
        <time>2026-07-07T07:35:38Z</time>
      </trkpt>
      <trkpt lat="42.97195" lon="0.32866">
        <ele>1755.3</ele>
        <time>2026-07-07T07:35:39Z</time>
      </trkpt>
      <trkpt lat="42.97195" lon="0.32866">
        <ele>1755.3</ele>
        <time>2026-07-07T07:35:40Z</time>
      </trkpt>
      <trkpt lat="42.97195" lon="0.32866">
        <ele>1755.3</ele>
        <time>2026-07-07T07:35:41Z</time>
      </trkpt>
      <trkpt lat="42.97195" lon="0.32866">
        <ele>1755.3</ele>
        <time>2026-07-07T07:35:42Z</time>
      </trkpt>
      <trkpt lat="42.97195" lon="0.32866">
        <ele>1755.3</ele>
        <time>2026-07-07T07:35:43Z</time>
      </trkpt>
      <trkpt lat="42.97195" lon="0.32866">
        <ele>1755.3</ele>
        <time>2026-07-07T07:35:44Z</time>
      </trkpt>
      <trkpt lat="42.97195" lon="0.32866">
        <ele>1755.3</ele>
        <time>2026-07-07T07:35:45Z</time>
      </trkpt>
      <trkpt lat="42.97195" lon="0.32866">
        <ele>1755.3</ele>
        <time>2026-07-07T07:35:47Z</time>
      </trkpt>
      <trkpt lat="42.97195" lon="0.32866">
        <ele>1755.3</ele>
        <time>2026-07-07T07:35:50Z</time>
      </trkpt>
      <trkpt lat="42.97195" lon="0.32866">
        <ele>1767.3</ele>
        <time>2026-07-07T07:35:50Z</time>
      </trkpt>
      <trkpt lat="42.97195" lon="0.32866">
        <ele>1767.3</ele>
        <time>2026-07-07T07:35:51Z</time>
      </trkpt>
      <trkpt lat="42.97195" lon="0.32866">
        <ele>1766.3</ele>
        <time>2026-07-07T07:35:52Z</time>
      </trkpt>
      <trkpt lat="42.97195" lon="0.32866">
        <ele>1762.3</ele>
        <time>2026-07-07T07:35:52Z</time>
      </trkpt>
      <trkpt lat="42.97195" lon="0.32866">
        <ele>1762.3</ele>
        <time>2026-07-07T07:35:53Z</time>
      </trkpt>
      <trkpt lat="42.97194" lon="0.32867">
        <ele>1762.3</ele>
        <time>2026-07-07T07:35:54Z</time>
      </trkpt>
      <trkpt lat="42.97194" lon="0.32867">
        <ele>1761.3</ele>
        <time>2026-07-07T07:35:54Z</time>
      </trkpt>
      <trkpt lat="42.97194" lon="0.32868">
        <ele>1760.3</ele>
        <time>2026-07-07T07:35:55Z</time>
      </trkpt>
      <trkpt lat="42.97193" lon="0.32869">
        <ele>1760.3</ele>
        <time>2026-07-07T07:35:56Z</time>
      </trkpt>
      <trkpt lat="42.97193" lon="0.3287">
        <ele>1760.3</ele>
        <time>2026-07-07T07:35:57Z</time>
      </trkpt>
      <trkpt lat="42.97192" lon="0.32871">
        <ele>1760.3</ele>
        <time>2026-07-07T07:35:57Z</time>
      </trkpt>
      <trkpt lat="42.97191" lon="0.32874">
        <ele>1761.3</ele>
        <time>2026-07-07T07:35:58Z</time>
      </trkpt>
      <trkpt lat="42.9719" lon="0.32876">
        <ele>1761.3</ele>
        <time>2026-07-07T07:35:59Z</time>
      </trkpt>
      <trkpt lat="42.9719" lon="0.32877">
        <ele>1761.3</ele>
        <time>2026-07-07T07:35:59Z</time>
      </trkpt>
      <trkpt lat="42.97189" lon="0.32878">
        <ele>1761.3</ele>
        <time>2026-07-07T07:36:00Z</time>
      </trkpt>
      <trkpt lat="42.97189" lon="0.3288">
        <ele>1762.3</ele>
        <time>2026-07-07T07:36:00Z</time>
      </trkpt>
      <trkpt lat="42.97188" lon="0.32881">
        <ele>1762.3</ele>
        <time>2026-07-07T07:36:01Z</time>
      </trkpt>
      <trkpt lat="42.97188" lon="0.32883">
        <ele>1762.3</ele>
        <time>2026-07-07T07:36:02Z</time>
      </trkpt>
      <trkpt lat="42.97187" lon="0.32884">
        <ele>1762.3</ele>
        <time>2026-07-07T07:36:02Z</time>
      </trkpt>
      <trkpt lat="42.97187" lon="0.32886">
        <ele>1762.3</ele>
        <time>2026-07-07T07:36:03Z</time>
      </trkpt>
      <trkpt lat="42.97187" lon="0.32886">
        <ele>1761.3</ele>
        <time>2026-07-07T07:36:03Z</time>
      </trkpt>
      <trkpt lat="42.97186" lon="0.32888">
        <ele>1761.3</ele>
        <time>2026-07-07T07:36:04Z</time>
      </trkpt>
      <trkpt lat="42.97185" lon="0.3289">
        <ele>1762.3</ele>
        <time>2026-07-07T07:36:05Z</time>
      </trkpt>
      <trkpt lat="42.97184" lon="0.32891">
        <ele>1763.3</ele>
        <time>2026-07-07T07:36:06Z</time>
      </trkpt>
      <trkpt lat="42.97184" lon="0.32892">
        <ele>1763.3</ele>
        <time>2026-07-07T07:36:06Z</time>
      </trkpt>
      <trkpt lat="42.97184" lon="0.32893">
        <ele>1763.3</ele>
        <time>2026-07-07T07:36:07Z</time>
      </trkpt>
      <trkpt lat="42.97183" lon="0.32895">
        <ele>1762.3</ele>
        <time>2026-07-07T07:36:08Z</time>
      </trkpt>
      <trkpt lat="42.97182" lon="0.32896">
        <ele>1762.3</ele>
        <time>2026-07-07T07:36:09Z</time>
      </trkpt>
      <trkpt lat="42.97182" lon="0.32897">
        <ele>1762.3</ele>
        <time>2026-07-07T07:36:10Z</time>
      </trkpt>
      <trkpt lat="42.97182" lon="0.32898">
        <ele>1761.3</ele>
        <time>2026-07-07T07:36:11Z</time>
      </trkpt>
      <trkpt lat="42.97182" lon="0.32899">
        <ele>1760.3</ele>
        <time>2026-07-07T07:36:11Z</time>
      </trkpt>
      <trkpt lat="42.97182" lon="0.329">
        <ele>1760.3</ele>
        <time>2026-07-07T07:36:12Z</time>
      </trkpt>
      <trkpt lat="42.97182" lon="0.329">
        <ele>1759.3</ele>
        <time>2026-07-07T07:36:12Z</time>
      </trkpt>
      <trkpt lat="42.97182" lon="0.32901">
        <ele>1759.3</ele>
        <time>2026-07-07T07:36:13Z</time>
      </trkpt>
      <trkpt lat="42.97182" lon="0.32902">
        <ele>1759.3</ele>
        <time>2026-07-07T07:36:14Z</time>
      </trkpt>
      <trkpt lat="42.97182" lon="0.32903">
        <ele>1759.3</ele>
        <time>2026-07-07T07:36:14Z</time>
      </trkpt>
      <trkpt lat="42.97182" lon="0.32904">
        <ele>1760.3</ele>
        <time>2026-07-07T07:36:15Z</time>
      </trkpt>
      <trkpt lat="42.97181" lon="0.32905">
        <ele>1761.3</ele>
        <time>2026-07-07T07:36:15Z</time>
      </trkpt>
      <trkpt lat="42.97181" lon="0.32906">
        <ele>1761.3</ele>
        <time>2026-07-07T07:36:16Z</time>
      </trkpt>
      <trkpt lat="42.97181" lon="0.32907">
        <ele>1760.3</ele>
        <time>2026-07-07T07:36:17Z</time>
      </trkpt>
      <trkpt lat="42.97181" lon="0.32908">
        <ele>1760.3</ele>
        <time>2026-07-07T07:36:17Z</time>
      </trkpt>
      <trkpt lat="42.97181" lon="0.32909">
        <ele>1760.3</ele>
        <time>2026-07-07T07:36:18Z</time>
      </trkpt>
      <trkpt lat="42.9718" lon="0.32909">
        <ele>1760.3</ele>
        <time>2026-07-07T07:36:18Z</time>
      </trkpt>
      <trkpt lat="42.9718" lon="0.3291">
        <ele>1760.3</ele>
        <time>2026-07-07T07:36:19Z</time>
      </trkpt>
      <trkpt lat="42.9718" lon="0.32911">
        <ele>1760.3</ele>
        <time>2026-07-07T07:36:20Z</time>
      </trkpt>
      <trkpt lat="42.97179" lon="0.32912">
        <ele>1760.3</ele>
        <time>2026-07-07T07:36:20Z</time>
      </trkpt>
      <trkpt lat="42.97179" lon="0.32913">
        <ele>1760.3</ele>
        <time>2026-07-07T07:36:21Z</time>
      </trkpt>
      <trkpt lat="42.97179" lon="0.32914">
        <ele>1760.3</ele>
        <time>2026-07-07T07:36:22Z</time>
      </trkpt>
      <trkpt lat="42.97179" lon="0.32914">
        <ele>1760.3</ele>
        <time>2026-07-07T07:36:22Z</time>
      </trkpt>
      <trkpt lat="42.97178" lon="0.32916">
        <ele>1759.3</ele>
        <time>2026-07-07T07:36:23Z</time>
      </trkpt>
      <trkpt lat="42.97178" lon="0.32917">
        <ele>1759.3</ele>
        <time>2026-07-07T07:36:24Z</time>
      </trkpt>
      <trkpt lat="42.97178" lon="0.32917">
        <ele>1759.3</ele>
        <time>2026-07-07T07:36:24Z</time>
      </trkpt>
      <trkpt lat="42.97178" lon="0.32918">
        <ele>1759.3</ele>
        <time>2026-07-07T07:36:25Z</time>
      </trkpt>
      <trkpt lat="42.97178" lon="0.32919">
        <ele>1759.3</ele>
        <time>2026-07-07T07:36:26Z</time>
      </trkpt>
      <trkpt lat="42.97178" lon="0.32919">
        <ele>1759.3</ele>
        <time>2026-07-07T07:36:26Z</time>
      </trkpt>
      <trkpt lat="42.97177" lon="0.3292">
        <ele>1759.3</ele>
        <time>2026-07-07T07:36:27Z</time>
      </trkpt>
      <trkpt lat="42.97177" lon="0.32921">
        <ele>1759.3</ele>
        <time>2026-07-07T07:36:27Z</time>
      </trkpt>
      <trkpt lat="42.97177" lon="0.32922">
        <ele>1759.3</ele>
        <time>2026-07-07T07:36:28Z</time>
      </trkpt>
      <trkpt lat="42.97177" lon="0.32923">
        <ele>1759.3</ele>
        <time>2026-07-07T07:36:29Z</time>
      </trkpt>
      <trkpt lat="42.97176" lon="0.32923">
        <ele>1759.3</ele>
        <time>2026-07-07T07:36:29Z</time>
      </trkpt>
      <trkpt lat="42.97176" lon="0.32925">
        <ele>1759.3</ele>
        <time>2026-07-07T07:36:30Z</time>
      </trkpt>
      <trkpt lat="42.97176" lon="0.32926">
        <ele>1759.3</ele>
        <time>2026-07-07T07:36:31Z</time>
      </trkpt>
      <trkpt lat="42.97175" lon="0.32926">
        <ele>1759.3</ele>
        <time>2026-07-07T07:36:31Z</time>
      </trkpt>
      <trkpt lat="42.97175" lon="0.32927">
        <ele>1759.3</ele>
        <time>2026-07-07T07:36:32Z</time>
      </trkpt>
      <trkpt lat="42.97175" lon="0.32928">
        <ele>1759.3</ele>
        <time>2026-07-07T07:36:33Z</time>
      </trkpt>
      <trkpt lat="42.97175" lon="0.32929">
        <ele>1759.3</ele>
        <time>2026-07-07T07:36:33Z</time>
      </trkpt>
      <trkpt lat="42.97174" lon="0.3293">
        <ele>1759.3</ele>
        <time>2026-07-07T07:36:34Z</time>
      </trkpt>
      <trkpt lat="42.97174" lon="0.32931">
        <ele>1758.3</ele>
        <time>2026-07-07T07:36:35Z</time>
      </trkpt>
      <trkpt lat="42.97174" lon="0.32932">
        <ele>1758.3</ele>
        <time>2026-07-07T07:36:36Z</time>
      </trkpt>
      <trkpt lat="42.97174" lon="0.32933">
        <ele>1758.3</ele>
        <time>2026-07-07T07:36:36Z</time>
      </trkpt>
      <trkpt lat="42.97174" lon="0.32934">
        <ele>1758.3</ele>
        <time>2026-07-07T07:36:37Z</time>
      </trkpt>
      <trkpt lat="42.97173" lon="0.32935">
        <ele>1758.3</ele>
        <time>2026-07-07T07:36:38Z</time>
      </trkpt>
      <trkpt lat="42.97173" lon="0.32935">
        <ele>1758.3</ele>
        <time>2026-07-07T07:36:38Z</time>
      </trkpt>
      <trkpt lat="42.97173" lon="0.32936">
        <ele>1758.3</ele>
        <time>2026-07-07T07:36:39Z</time>
      </trkpt>
      <trkpt lat="42.97173" lon="0.32936">
        <ele>1758.3</ele>
        <time>2026-07-07T07:36:40Z</time>
      </trkpt>
      <trkpt lat="42.97172" lon="0.32937">
        <ele>1758.3</ele>
        <time>2026-07-07T07:36:40Z</time>
      </trkpt>
      <trkpt lat="42.97172" lon="0.32938">
        <ele>1758.3</ele>
        <time>2026-07-07T07:36:41Z</time>
      </trkpt>
      <trkpt lat="42.97171" lon="0.32938">
        <ele>1758.3</ele>
        <time>2026-07-07T07:36:42Z</time>
      </trkpt>
      <trkpt lat="42.97171" lon="0.32939">
        <ele>1759.3</ele>
        <time>2026-07-07T07:36:43Z</time>
      </trkpt>
      <trkpt lat="42.97171" lon="0.32939">
        <ele>1759.3</ele>
        <time>2026-07-07T07:36:43Z</time>
      </trkpt>
      <trkpt lat="42.97171" lon="0.3294">
        <ele>1759.3</ele>
        <time>2026-07-07T07:36:44Z</time>
      </trkpt>
      <trkpt lat="42.9717" lon="0.32941">
        <ele>1759.3</ele>
        <time>2026-07-07T07:36:45Z</time>
      </trkpt>
      <trkpt lat="42.9717" lon="0.32942">
        <ele>1759.3</ele>
        <time>2026-07-07T07:36:45Z</time>
      </trkpt>
      <trkpt lat="42.9717" lon="0.32942">
        <ele>1759.3</ele>
        <time>2026-07-07T07:36:46Z</time>
      </trkpt>
      <trkpt lat="42.97169" lon="0.32943">
        <ele>1759.3</ele>
        <time>2026-07-07T07:36:47Z</time>
      </trkpt>
      <trkpt lat="42.97169" lon="0.32943">
        <ele>1760.3</ele>
        <time>2026-07-07T07:36:47Z</time>
      </trkpt>
      <trkpt lat="42.97169" lon="0.32945">
        <ele>1760.3</ele>
        <time>2026-07-07T07:36:48Z</time>
      </trkpt>
      <trkpt lat="42.97168" lon="0.32945">
        <ele>1759.3</ele>
        <time>2026-07-07T07:36:49Z</time>
      </trkpt>
      <trkpt lat="42.97168" lon="0.32946">
        <ele>1759.3</ele>
        <time>2026-07-07T07:36:49Z</time>
      </trkpt>
      <trkpt lat="42.97168" lon="0.32946">
        <ele>1759.3</ele>
        <time>2026-07-07T07:36:50Z</time>
      </trkpt>
      <trkpt lat="42.97168" lon="0.32947">
        <ele>1760.3</ele>
        <time>2026-07-07T07:36:51Z</time>
      </trkpt>
      <trkpt lat="42.97168" lon="0.32947">
        <ele>1759.3</ele>
        <time>2026-07-07T07:36:52Z</time>
      </trkpt>
      <trkpt lat="42.97168" lon="0.32948">
        <ele>1760.3</ele>
        <time>2026-07-07T07:36:52Z</time>
      </trkpt>
      <trkpt lat="42.97167" lon="0.32949">
        <ele>1760.3</ele>
        <time>2026-07-07T07:36:53Z</time>
      </trkpt>
      <trkpt lat="42.97167" lon="0.32949">
        <ele>1760.3</ele>
        <time>2026-07-07T07:36:54Z</time>
      </trkpt>
      <trkpt lat="42.97167" lon="0.3295">
        <ele>1760.3</ele>
        <time>2026-07-07T07:36:55Z</time>
      </trkpt>
      <trkpt lat="42.97167" lon="0.32951">
        <ele>1760.3</ele>
        <time>2026-07-07T07:36:55Z</time>
      </trkpt>
      <trkpt lat="42.97167" lon="0.32951">
        <ele>1761.3</ele>
        <time>2026-07-07T07:36:56Z</time>
      </trkpt>
      <trkpt lat="42.97166" lon="0.32952">
        <ele>1760.3</ele>
        <time>2026-07-07T07:36:57Z</time>
      </trkpt>
      <trkpt lat="42.97166" lon="0.32952">
        <ele>1760.3</ele>
        <time>2026-07-07T07:36:57Z</time>
      </trkpt>
      <trkpt lat="42.97166" lon="0.32953">
        <ele>1760.3</ele>
        <time>2026-07-07T07:36:58Z</time>
      </trkpt>
      <trkpt lat="42.97166" lon="0.32954">
        <ele>1760.3</ele>
        <time>2026-07-07T07:36:59Z</time>
      </trkpt>
      <trkpt lat="42.97165" lon="0.32954">
        <ele>1761.3</ele>
        <time>2026-07-07T07:37:00Z</time>
      </trkpt>
      <trkpt lat="42.97165" lon="0.32954">
        <ele>1761.3</ele>
        <time>2026-07-07T07:37:00Z</time>
      </trkpt>
      <trkpt lat="42.97164" lon="0.32955">
        <ele>1761.3</ele>
        <time>2026-07-07T07:37:01Z</time>
      </trkpt>
      <trkpt lat="42.97164" lon="0.32955">
        <ele>1761.3</ele>
        <time>2026-07-07T07:37:02Z</time>
      </trkpt>
      <trkpt lat="42.97163" lon="0.32956">
        <ele>1762.3</ele>
        <time>2026-07-07T07:37:03Z</time>
      </trkpt>
      <trkpt lat="42.97163" lon="0.32957">
        <ele>1762.3</ele>
        <time>2026-07-07T07:37:04Z</time>
      </trkpt>
      <trkpt lat="42.97163" lon="0.32957">
        <ele>1762.3</ele>
        <time>2026-07-07T07:37:04Z</time>
      </trkpt>
      <trkpt lat="42.97162" lon="0.32958">
        <ele>1762.3</ele>
        <time>2026-07-07T07:37:05Z</time>
      </trkpt>
      <trkpt lat="42.97162" lon="0.32959">
        <ele>1762.3</ele>
        <time>2026-07-07T07:37:06Z</time>
      </trkpt>
      <trkpt lat="42.97162" lon="0.32959">
        <ele>1762.3</ele>
        <time>2026-07-07T07:37:07Z</time>
      </trkpt>
      <trkpt lat="42.97162" lon="0.3296">
        <ele>1762.3</ele>
        <time>2026-07-07T07:37:07Z</time>
      </trkpt>
      <trkpt lat="42.97161" lon="0.32961">
        <ele>1763.3</ele>
        <time>2026-07-07T07:37:08Z</time>
      </trkpt>
      <trkpt lat="42.97161" lon="0.32961">
        <ele>1763.3</ele>
        <time>2026-07-07T07:37:09Z</time>
      </trkpt>
      <trkpt lat="42.97161" lon="0.32962">
        <ele>1763.3</ele>
        <time>2026-07-07T07:37:10Z</time>
      </trkpt>
      <trkpt lat="42.97161" lon="0.32963">
        <ele>1763.3</ele>
        <time>2026-07-07T07:37:11Z</time>
      </trkpt>
      <trkpt lat="42.97161" lon="0.32964">
        <ele>1762.3</ele>
        <time>2026-07-07T07:37:12Z</time>
      </trkpt>
      <trkpt lat="42.97161" lon="0.32964">
        <ele>1761.3</ele>
        <time>2026-07-07T07:37:12Z</time>
      </trkpt>
      <trkpt lat="42.97161" lon="0.32965">
        <ele>1761.3</ele>
        <time>2026-07-07T07:37:13Z</time>
      </trkpt>
      <trkpt lat="42.97161" lon="0.32966">
        <ele>1761.3</ele>
        <time>2026-07-07T07:37:14Z</time>
      </trkpt>
      <trkpt lat="42.97161" lon="0.32966">
        <ele>1762.3</ele>
        <time>2026-07-07T07:37:14Z</time>
      </trkpt>
      <trkpt lat="42.97161" lon="0.32966">
        <ele>1762.3</ele>
        <time>2026-07-07T07:37:15Z</time>
      </trkpt>
      <trkpt lat="42.97161" lon="0.32967">
        <ele>1762.3</ele>
        <time>2026-07-07T07:37:16Z</time>
      </trkpt>
      <trkpt lat="42.97162" lon="0.32967">
        <ele>1762.3</ele>
        <time>2026-07-07T07:37:16Z</time>
      </trkpt>
      <trkpt lat="42.97162" lon="0.32968">
        <ele>1762.3</ele>
        <time>2026-07-07T07:37:17Z</time>
      </trkpt>
      <trkpt lat="42.97162" lon="0.32968">
        <ele>1762.3</ele>
        <time>2026-07-07T07:37:18Z</time>
      </trkpt>
      <trkpt lat="42.97162" lon="0.32968">
        <ele>1761.3</ele>
        <time>2026-07-07T07:37:19Z</time>
      </trkpt>
      <trkpt lat="42.97162" lon="0.32968">
        <ele>1761.3</ele>
        <time>2026-07-07T07:37:19Z</time>
      </trkpt>
      <trkpt lat="42.97162" lon="0.32968">
        <ele>1761.3</ele>
        <time>2026-07-07T07:37:20Z</time>
      </trkpt>
      <trkpt lat="42.97162" lon="0.32969">
        <ele>1761.3</ele>
        <time>2026-07-07T07:37:21Z</time>
      </trkpt>
      <trkpt lat="42.97162" lon="0.32969">
        <ele>1762.3</ele>
        <time>2026-07-07T07:37:21Z</time>
      </trkpt>
      <trkpt lat="42.97161" lon="0.3297">
        <ele>1762.3</ele>
        <time>2026-07-07T07:37:22Z</time>
      </trkpt>
      <trkpt lat="42.97161" lon="0.3297">
        <ele>1762.3</ele>
        <time>2026-07-07T07:37:23Z</time>
      </trkpt>
      <trkpt lat="42.97161" lon="0.32971">
        <ele>1762.3</ele>
        <time>2026-07-07T07:37:23Z</time>
      </trkpt>
      <trkpt lat="42.97161" lon="0.32971">
        <ele>1762.3</ele>
        <time>2026-07-07T07:37:24Z</time>
      </trkpt>
      <trkpt lat="42.97161" lon="0.32972">
        <ele>1762.3</ele>
        <time>2026-07-07T07:37:25Z</time>
      </trkpt>
      <trkpt lat="42.97161" lon="0.32971">
        <ele>1762.3</ele>
        <time>2026-07-07T07:37:26Z</time>
      </trkpt>
      <trkpt lat="42.9716" lon="0.32972">
        <ele>1761.3</ele>
        <time>2026-07-07T07:37:26Z</time>
      </trkpt>
      <trkpt lat="42.9716" lon="0.32972">
        <ele>1761.3</ele>
        <time>2026-07-07T07:37:27Z</time>
      </trkpt>
      <trkpt lat="42.9716" lon="0.32973">
        <ele>1761.3</ele>
        <time>2026-07-07T07:37:28Z</time>
      </trkpt>
      <trkpt lat="42.9716" lon="0.32973">
        <ele>1761.3</ele>
        <time>2026-07-07T07:37:28Z</time>
      </trkpt>
      <trkpt lat="42.9716" lon="0.32974">
        <ele>1761.3</ele>
        <time>2026-07-07T07:37:29Z</time>
      </trkpt>
      <trkpt lat="42.9716" lon="0.32974">
        <ele>1761.3</ele>
        <time>2026-07-07T07:37:30Z</time>
      </trkpt>
      <trkpt lat="42.9716" lon="0.32974">
        <ele>1761.3</ele>
        <time>2026-07-07T07:37:30Z</time>
      </trkpt>
      <trkpt lat="42.9716" lon="0.32975">
        <ele>1761.3</ele>
        <time>2026-07-07T07:37:31Z</time>
      </trkpt>
      <trkpt lat="42.9716" lon="0.32976">
        <ele>1761.3</ele>
        <time>2026-07-07T07:37:32Z</time>
      </trkpt>
      <trkpt lat="42.9716" lon="0.32977">
        <ele>1761.3</ele>
        <time>2026-07-07T07:37:32Z</time>
      </trkpt>
      <trkpt lat="42.97159" lon="0.32978">
        <ele>1761.3</ele>
        <time>2026-07-07T07:37:33Z</time>
      </trkpt>
      <trkpt lat="42.97159" lon="0.32979">
        <ele>1761.3</ele>
        <time>2026-07-07T07:37:34Z</time>
      </trkpt>
      <trkpt lat="42.97159" lon="0.32979">
        <ele>1761.3</ele>
        <time>2026-07-07T07:37:35Z</time>
      </trkpt>
      <trkpt lat="42.97159" lon="0.3298">
        <ele>1762.3</ele>
        <time>2026-07-07T07:37:35Z</time>
      </trkpt>
      <trkpt lat="42.97158" lon="0.32981">
        <ele>1762.3</ele>
        <time>2026-07-07T07:37:36Z</time>
      </trkpt>
      <trkpt lat="42.97158" lon="0.32982">
        <ele>1761.3</ele>
        <time>2026-07-07T07:37:37Z</time>
      </trkpt>
      <trkpt lat="42.97157" lon="0.32983">
        <ele>1761.3</ele>
        <time>2026-07-07T07:37:38Z</time>
      </trkpt>
      <trkpt lat="42.97157" lon="0.32983">
        <ele>1761.3</ele>
        <time>2026-07-07T07:37:38Z</time>
      </trkpt>
      <trkpt lat="42.97157" lon="0.32984">
        <ele>1761.3</ele>
        <time>2026-07-07T07:37:39Z</time>
      </trkpt>
      <trkpt lat="42.97157" lon="0.32985">
        <ele>1761.3</ele>
        <time>2026-07-07T07:37:40Z</time>
      </trkpt>
      <trkpt lat="42.97156" lon="0.32986">
        <ele>1762.3</ele>
        <time>2026-07-07T07:37:41Z</time>
      </trkpt>
      <trkpt lat="42.97156" lon="0.32986">
        <ele>1762.3</ele>
        <time>2026-07-07T07:37:41Z</time>
      </trkpt>
      <trkpt lat="42.97156" lon="0.32988">
        <ele>1762.3</ele>
        <time>2026-07-07T07:37:42Z</time>
      </trkpt>
      <trkpt lat="42.97155" lon="0.32988">
        <ele>1762.3</ele>
        <time>2026-07-07T07:37:43Z</time>
      </trkpt>
      <trkpt lat="42.97155" lon="0.32989">
        <ele>1762.3</ele>
        <time>2026-07-07T07:37:44Z</time>
      </trkpt>
      <trkpt lat="42.97155" lon="0.3299">
        <ele>1762.3</ele>
        <time>2026-07-07T07:37:44Z</time>
      </trkpt>
      <trkpt lat="42.97154" lon="0.32991">
        <ele>1762.3</ele>
        <time>2026-07-07T07:37:45Z</time>
      </trkpt>
      <trkpt lat="42.97154" lon="0.32991">
        <ele>1762.3</ele>
        <time>2026-07-07T07:37:46Z</time>
      </trkpt>
      <trkpt lat="42.97154" lon="0.32992">
        <ele>1762.3</ele>
        <time>2026-07-07T07:37:46Z</time>
      </trkpt>
      <trkpt lat="42.97153" lon="0.32992">
        <ele>1762.3</ele>
        <time>2026-07-07T07:37:47Z</time>
      </trkpt>
      <trkpt lat="42.97153" lon="0.32993">
        <ele>1762.3</ele>
        <time>2026-07-07T07:37:48Z</time>
      </trkpt>
      <trkpt lat="42.97152" lon="0.32993">
        <ele>1763.3</ele>
        <time>2026-07-07T07:37:48Z</time>
      </trkpt>
      <trkpt lat="42.97152" lon="0.32994">
        <ele>1763.3</ele>
        <time>2026-07-07T07:37:49Z</time>
      </trkpt>
      <trkpt lat="42.97151" lon="0.32995">
        <ele>1763.3</ele>
        <time>2026-07-07T07:37:50Z</time>
      </trkpt>
      <trkpt lat="42.97151" lon="0.32995">
        <ele>1763.3</ele>
        <time>2026-07-07T07:37:51Z</time>
      </trkpt>
      <trkpt lat="42.97151" lon="0.32995">
        <ele>1763.3</ele>
        <time>2026-07-07T07:37:51Z</time>
      </trkpt>
      <trkpt lat="42.9715" lon="0.32996">
        <ele>1763.3</ele>
        <time>2026-07-07T07:37:52Z</time>
      </trkpt>
      <trkpt lat="42.9715" lon="0.32997">
        <ele>1763.3</ele>
        <time>2026-07-07T07:37:53Z</time>
      </trkpt>
      <trkpt lat="42.9715" lon="0.32997">
        <ele>1763.3</ele>
        <time>2026-07-07T07:37:54Z</time>
      </trkpt>
      <trkpt lat="42.97149" lon="0.32998">
        <ele>1763.3</ele>
        <time>2026-07-07T07:37:55Z</time>
      </trkpt>
      <trkpt lat="42.97149" lon="0.32998">
        <ele>1765.3</ele>
        <time>2026-07-07T07:37:56Z</time>
      </trkpt>
      <trkpt lat="42.97149" lon="0.32998">
        <ele>1766.3</ele>
        <time>2026-07-07T07:37:56Z</time>
      </trkpt>
      <trkpt lat="42.97148" lon="0.32998">
        <ele>1766.3</ele>
        <time>2026-07-07T07:37:57Z</time>
      </trkpt>
      <trkpt lat="42.97148" lon="0.32998">
        <ele>1766.3</ele>
        <time>2026-07-07T07:37:58Z</time>
      </trkpt>
      <trkpt lat="42.97147" lon="0.32998">
        <ele>1766.3</ele>
        <time>2026-07-07T07:37:59Z</time>
      </trkpt>
      <trkpt lat="42.97147" lon="0.32998">
        <ele>1766.3</ele>
        <time>2026-07-07T07:38:00Z</time>
      </trkpt>
      <trkpt lat="42.97147" lon="0.32998">
        <ele>1766.3</ele>
        <time>2026-07-07T07:38:01Z</time>
      </trkpt>
      <trkpt lat="42.97146" lon="0.32999">
        <ele>1766.3</ele>
        <time>2026-07-07T07:38:01Z</time>
      </trkpt>
      <trkpt lat="42.97146" lon="0.32999">
        <ele>1766.3</ele>
        <time>2026-07-07T07:38:02Z</time>
      </trkpt>
      <trkpt lat="42.97147" lon="0.32998">
        <ele>1766.3</ele>
        <time>2026-07-07T07:38:03Z</time>
      </trkpt>
      <trkpt lat="42.97147" lon="0.32998">
        <ele>1766.3</ele>
        <time>2026-07-07T07:38:04Z</time>
      </trkpt>
      <trkpt lat="42.97148" lon="0.32998">
        <ele>1767.3</ele>
        <time>2026-07-07T07:38:05Z</time>
      </trkpt>
      <trkpt lat="42.97148" lon="0.32998">
        <ele>1766.3</ele>
        <time>2026-07-07T07:38:06Z</time>
      </trkpt>
      <trkpt lat="42.97148" lon="0.32998">
        <ele>1767.3</ele>
        <time>2026-07-07T07:38:07Z</time>
      </trkpt>
      <trkpt lat="42.97148" lon="0.32998">
        <ele>1767.3</ele>
        <time>2026-07-07T07:38:08Z</time>
      </trkpt>
      <trkpt lat="42.97148" lon="0.32998">
        <ele>1767.3</ele>
        <time>2026-07-07T07:38:09Z</time>
      </trkpt>
      <trkpt lat="42.97148" lon="0.32998">
        <ele>1767.3</ele>
        <time>2026-07-07T07:38:10Z</time>
      </trkpt>
      <trkpt lat="42.97148" lon="0.32998">
        <ele>1767.3</ele>
        <time>2026-07-07T07:38:11Z</time>
      </trkpt>
      <trkpt lat="42.97148" lon="0.32998">
        <ele>1767.3</ele>
        <time>2026-07-07T07:38:12Z</time>
      </trkpt>
      <trkpt lat="42.97148" lon="0.32998">
        <ele>1767.3</ele>
        <time>2026-07-07T07:38:13Z</time>
      </trkpt>
      <trkpt lat="42.97148" lon="0.32998">
        <ele>1767.3</ele>
        <time>2026-07-07T07:38:14Z</time>
      </trkpt>
      <trkpt lat="42.97148" lon="0.32998">
        <ele>1767.3</ele>
        <time>2026-07-07T07:38:15Z</time>
      </trkpt>
      <trkpt lat="42.97148" lon="0.32998">
        <ele>1766.3</ele>
        <time>2026-07-07T07:38:16Z</time>
      </trkpt>
      <trkpt lat="42.97149" lon="0.32998">
        <ele>1766.3</ele>
        <time>2026-07-07T07:38:17Z</time>
      </trkpt>
      <trkpt lat="42.97149" lon="0.32998">
        <ele>1766.3</ele>
        <time>2026-07-07T07:38:18Z</time>
      </trkpt>
      <trkpt lat="42.97148" lon="0.32997">
        <ele>1767.3</ele>
        <time>2026-07-07T07:38:19Z</time>
      </trkpt>
      <trkpt lat="42.97148" lon="0.32997">
        <ele>1767.3</ele>
        <time>2026-07-07T07:38:20Z</time>
      </trkpt>
      <trkpt lat="42.97148" lon="0.32997">
        <ele>1767.3</ele>
        <time>2026-07-07T07:38:21Z</time>
      </trkpt>
      <trkpt lat="42.97148" lon="0.32997">
        <ele>1767.3</ele>
        <time>2026-07-07T07:38:22Z</time>
      </trkpt>
      <trkpt lat="42.97148" lon="0.32997">
        <ele>1767.3</ele>
        <time>2026-07-07T07:38:23Z</time>
      </trkpt>
      <trkpt lat="42.97148" lon="0.32997">
        <ele>1767.3</ele>
        <time>2026-07-07T07:38:24Z</time>
      </trkpt>
      <trkpt lat="42.97148" lon="0.32997">
        <ele>1767.3</ele>
        <time>2026-07-07T07:38:25Z</time>
      </trkpt>
      <trkpt lat="42.97148" lon="0.32997">
        <ele>1767.3</ele>
        <time>2026-07-07T07:38:26Z</time>
      </trkpt>
      <trkpt lat="42.97148" lon="0.32997">
        <ele>1767.3</ele>
        <time>2026-07-07T07:38:27Z</time>
      </trkpt>
      <trkpt lat="42.97148" lon="0.32997">
        <ele>1767.3</ele>
        <time>2026-07-07T07:38:28Z</time>
      </trkpt>
      <trkpt lat="42.97148" lon="0.32997">
        <ele>1767.3</ele>
        <time>2026-07-07T07:38:29Z</time>
      </trkpt>
      <trkpt lat="42.97148" lon="0.32997">
        <ele>1767.3</ele>
        <time>2026-07-07T07:38:30Z</time>
      </trkpt>
      <trkpt lat="42.97148" lon="0.32997">
        <ele>1767.3</ele>
        <time>2026-07-07T07:38:31Z</time>
      </trkpt>
      <trkpt lat="42.97148" lon="0.32997">
        <ele>1767.3</ele>
        <time>2026-07-07T07:38:32Z</time>
      </trkpt>
      <trkpt lat="42.97148" lon="0.32997">
        <ele>1767.3</ele>
        <time>2026-07-07T07:38:33Z</time>
      </trkpt>
      <trkpt lat="42.97148" lon="0.32997">
        <ele>1767.3</ele>
        <time>2026-07-07T07:38:34Z</time>
      </trkpt>
      <trkpt lat="42.97148" lon="0.32997">
        <ele>1767.3</ele>
        <time>2026-07-07T07:38:35Z</time>
      </trkpt>
      <trkpt lat="42.97148" lon="0.32997">
        <ele>1767.3</ele>
        <time>2026-07-07T07:38:36Z</time>
      </trkpt>
      <trkpt lat="42.97148" lon="0.32997">
        <ele>1767.3</ele>
        <time>2026-07-07T07:38:37Z</time>
      </trkpt>
      <trkpt lat="42.97148" lon="0.32997">
        <ele>1767.3</ele>
        <time>2026-07-07T07:38:38Z</time>
      </trkpt>
      <trkpt lat="42.97148" lon="0.32997">
        <ele>1767.3</ele>
        <time>2026-07-07T07:38:39Z</time>
      </trkpt>
      <trkpt lat="42.97148" lon="0.32997">
        <ele>1767.3</ele>
        <time>2026-07-07T07:38:40Z</time>
      </trkpt>
      <trkpt lat="42.97148" lon="0.32997">
        <ele>1767.3</ele>
        <time>2026-07-07T07:38:41Z</time>
      </trkpt>
      <trkpt lat="42.97148" lon="0.32997">
        <ele>1767.3</ele>
        <time>2026-07-07T07:38:42Z</time>
      </trkpt>
      <trkpt lat="42.97148" lon="0.32997">
        <ele>1767.3</ele>
        <time>2026-07-07T07:38:43Z</time>
      </trkpt>
      <trkpt lat="42.97148" lon="0.32997">
        <ele>1767.3</ele>
        <time>2026-07-07T07:38:44Z</time>
      </trkpt>
      <trkpt lat="42.97148" lon="0.32997">
        <ele>1767.3</ele>
        <time>2026-07-07T07:38:45Z</time>
      </trkpt>
      <trkpt lat="42.97148" lon="0.32997">
        <ele>1767.3</ele>
        <time>2026-07-07T07:38:46Z</time>
      </trkpt>
      <trkpt lat="42.97148" lon="0.32997">
        <ele>1767.3</ele>
        <time>2026-07-07T07:38:47Z</time>
      </trkpt>
      <trkpt lat="42.97148" lon="0.32997">
        <ele>1767.3</ele>
        <time>2026-07-07T07:38:48Z</time>
      </trkpt>
      <trkpt lat="42.97148" lon="0.32997">
        <ele>1766.3</ele>
        <time>2026-07-07T07:38:49Z</time>
      </trkpt>
      <trkpt lat="42.97147" lon="0.32996">
        <ele>1765.3</ele>
        <time>2026-07-07T07:38:50Z</time>
      </trkpt>
      <trkpt lat="42.97146" lon="0.32996">
        <ele>1765.3</ele>
        <time>2026-07-07T07:38:51Z</time>
      </trkpt>
      <trkpt lat="42.97146" lon="0.32995">
        <ele>1766.3</ele>
        <time>2026-07-07T07:38:52Z</time>
      </trkpt>
      <trkpt lat="42.97146" lon="0.32994">
        <ele>1766.3</ele>
        <time>2026-07-07T07:38:53Z</time>
      </trkpt>
      <trkpt lat="42.97146" lon="0.32995">
        <ele>1766.3</ele>
        <time>2026-07-07T07:38:54Z</time>
      </trkpt>
      <trkpt lat="42.97146" lon="0.32995">
        <ele>1766.3</ele>
        <time>2026-07-07T07:38:55Z</time>
      </trkpt>
      <trkpt lat="42.97146" lon="0.32995">
        <ele>1766.3</ele>
        <time>2026-07-07T07:38:56Z</time>
      </trkpt>
      <trkpt lat="42.97146" lon="0.32995">
        <ele>1766.3</ele>
        <time>2026-07-07T07:38:57Z</time>
      </trkpt>
      <trkpt lat="42.97146" lon="0.32995">
        <ele>1766.3</ele>
        <time>2026-07-07T07:38:58Z</time>
      </trkpt>
      <trkpt lat="42.97146" lon="0.32995">
        <ele>1766.3</ele>
        <time>2026-07-07T07:38:59Z</time>
      </trkpt>
      <trkpt lat="42.97146" lon="0.32995">
        <ele>1766.3</ele>
        <time>2026-07-07T07:39:00Z</time>
      </trkpt>
      <trkpt lat="42.97146" lon="0.32995">
        <ele>1766.3</ele>
        <time>2026-07-07T07:39:01Z</time>
      </trkpt>
      <trkpt lat="42.97146" lon="0.32995">
        <ele>1766.3</ele>
        <time>2026-07-07T07:39:02Z</time>
      </trkpt>
      <trkpt lat="42.97146" lon="0.32995">
        <ele>1766.3</ele>
        <time>2026-07-07T07:39:03Z</time>
      </trkpt>
      <trkpt lat="42.97146" lon="0.32995">
        <ele>1766.3</ele>
        <time>2026-07-07T07:39:04Z</time>
      </trkpt>
      <trkpt lat="42.97146" lon="0.32995">
        <ele>1766.3</ele>
        <time>2026-07-07T07:39:05Z</time>
      </trkpt>
      <trkpt lat="42.97146" lon="0.32995">
        <ele>1766.3</ele>
        <time>2026-07-07T07:39:06Z</time>
      </trkpt>
      <trkpt lat="42.97146" lon="0.32995">
        <ele>1766.3</ele>
        <time>2026-07-07T07:39:07Z</time>
      </trkpt>
      <trkpt lat="42.97146" lon="0.32995">
        <ele>1766.3</ele>
        <time>2026-07-07T07:39:08Z</time>
      </trkpt>
      <trkpt lat="42.97146" lon="0.32995">
        <ele>1766.3</ele>
        <time>2026-07-07T07:39:09Z</time>
      </trkpt>
      <trkpt lat="42.97146" lon="0.32995">
        <ele>1766.3</ele>
        <time>2026-07-07T07:39:10Z</time>
      </trkpt>
      <trkpt lat="42.97146" lon="0.32996">
        <ele>1766.3</ele>
        <time>2026-07-07T07:39:11Z</time>
      </trkpt>
      <trkpt lat="42.97147" lon="0.32996">
        <ele>1766.3</ele>
        <time>2026-07-07T07:39:12Z</time>
      </trkpt>
      <trkpt lat="42.97147" lon="0.32997">
        <ele>1766.3</ele>
        <time>2026-07-07T07:39:13Z</time>
      </trkpt>
      <trkpt lat="42.97148" lon="0.32998">
        <ele>1766.3</ele>
        <time>2026-07-07T07:39:14Z</time>
      </trkpt>
      <trkpt lat="42.97148" lon="0.32999">
        <ele>1766.3</ele>
        <time>2026-07-07T07:39:15Z</time>
      </trkpt>
      <trkpt lat="42.97149" lon="0.33">
        <ele>1766.3</ele>
        <time>2026-07-07T07:39:16Z</time>
      </trkpt>
      <trkpt lat="42.9715" lon="0.33">
        <ele>1766.3</ele>
        <time>2026-07-07T07:39:17Z</time>
      </trkpt>
      <trkpt lat="42.97151" lon="0.33">
        <ele>1766.3</ele>
        <time>2026-07-07T07:39:18Z</time>
      </trkpt>
      <trkpt lat="42.97152" lon="0.33002">
        <ele>1766.3</ele>
        <time>2026-07-07T07:39:19Z</time>
      </trkpt>
      <trkpt lat="42.97152" lon="0.33003">
        <ele>1766.3</ele>
        <time>2026-07-07T07:39:20Z</time>
      </trkpt>
      <trkpt lat="42.97153" lon="0.33004">
        <ele>1766.3</ele>
        <time>2026-07-07T07:39:21Z</time>
      </trkpt>
      <trkpt lat="42.97154" lon="0.33006">
        <ele>1766.3</ele>
        <time>2026-07-07T07:39:22Z</time>
      </trkpt>
      <trkpt lat="42.97155" lon="0.33007">
        <ele>1766.3</ele>
        <time>2026-07-07T07:39:23Z</time>
      </trkpt>
      <trkpt lat="42.97155" lon="0.33008">
        <ele>1766.3</ele>
        <time>2026-07-07T07:39:24Z</time>
      </trkpt>
      <trkpt lat="42.97156" lon="0.33009">
        <ele>1766.3</ele>
        <time>2026-07-07T07:39:25Z</time>
      </trkpt>
      <trkpt lat="42.97157" lon="0.33009">
        <ele>1766.3</ele>
        <time>2026-07-07T07:39:26Z</time>
      </trkpt>
      <trkpt lat="42.97158" lon="0.3301">
        <ele>1766.3</ele>
        <time>2026-07-07T07:39:27Z</time>
      </trkpt>
      <trkpt lat="42.97159" lon="0.3301">
        <ele>1767.3</ele>
        <time>2026-07-07T07:39:28Z</time>
      </trkpt>
      <trkpt lat="42.97162" lon="0.33009">
        <ele>1766.3</ele>
        <time>2026-07-07T07:39:29Z</time>
      </trkpt>
      <trkpt lat="42.97162" lon="0.3301">
        <ele>1766.3</ele>
        <time>2026-07-07T07:39:30Z</time>
      </trkpt>
      <trkpt lat="42.97163" lon="0.3301">
        <ele>1766.3</ele>
        <time>2026-07-07T07:39:30Z</time>
      </trkpt>
      <trkpt lat="42.97163" lon="0.33011">
        <ele>1766.3</ele>
        <time>2026-07-07T07:39:31Z</time>
      </trkpt>
      <trkpt lat="42.97164" lon="0.33013">
        <ele>1765.3</ele>
        <time>2026-07-07T07:39:32Z</time>
      </trkpt>
      <trkpt lat="42.97165" lon="0.33014">
        <ele>1766.3</ele>
        <time>2026-07-07T07:39:33Z</time>
      </trkpt>
      <trkpt lat="42.97165" lon="0.33015">
        <ele>1765.3</ele>
        <time>2026-07-07T07:39:34Z</time>
      </trkpt>
      <trkpt lat="42.97165" lon="0.33016">
        <ele>1765.3</ele>
        <time>2026-07-07T07:39:34Z</time>
      </trkpt>
      <trkpt lat="42.97166" lon="0.33017">
        <ele>1764.3</ele>
        <time>2026-07-07T07:39:35Z</time>
      </trkpt>
      <trkpt lat="42.97166" lon="0.33017">
        <ele>1764.3</ele>
        <time>2026-07-07T07:39:35Z</time>
      </trkpt>
      <trkpt lat="42.97167" lon="0.33018">
        <ele>1764.3</ele>
        <time>2026-07-07T07:39:36Z</time>
      </trkpt>
      <trkpt lat="42.97167" lon="0.33019">
        <ele>1764.3</ele>
        <time>2026-07-07T07:39:36Z</time>
      </trkpt>
      <trkpt lat="42.97168" lon="0.3302">
        <ele>1764.3</ele>
        <time>2026-07-07T07:39:37Z</time>
      </trkpt>
      <trkpt lat="42.97168" lon="0.3302">
        <ele>1764.3</ele>
        <time>2026-07-07T07:39:37Z</time>
      </trkpt>
      <trkpt lat="42.97169" lon="0.33021">
        <ele>1764.3</ele>
        <time>2026-07-07T07:39:38Z</time>
      </trkpt>
      <trkpt lat="42.97169" lon="0.33022">
        <ele>1764.3</ele>
        <time>2026-07-07T07:39:39Z</time>
      </trkpt>
      <trkpt lat="42.97169" lon="0.33023">
        <ele>1764.3</ele>
        <time>2026-07-07T07:39:39Z</time>
      </trkpt>
      <trkpt lat="42.9717" lon="0.33024">
        <ele>1763.3</ele>
        <time>2026-07-07T07:39:40Z</time>
      </trkpt>
      <trkpt lat="42.9717" lon="0.33024">
        <ele>1763.3</ele>
        <time>2026-07-07T07:39:40Z</time>
      </trkpt>
      <trkpt lat="42.9717" lon="0.33026">
        <ele>1763.3</ele>
        <time>2026-07-07T07:39:41Z</time>
      </trkpt>
      <trkpt lat="42.9717" lon="0.33027">
        <ele>1764.3</ele>
        <time>2026-07-07T07:39:41Z</time>
      </trkpt>
      <trkpt lat="42.9717" lon="0.33028">
        <ele>1764.3</ele>
        <time>2026-07-07T07:39:42Z</time>
      </trkpt>
      <trkpt lat="42.9717" lon="0.33029">
        <ele>1764.3</ele>
        <time>2026-07-07T07:39:42Z</time>
      </trkpt>
      <trkpt lat="42.9717" lon="0.3303">
        <ele>1764.3</ele>
        <time>2026-07-07T07:39:43Z</time>
      </trkpt>
      <trkpt lat="42.97171" lon="0.33032">
        <ele>1764.3</ele>
        <time>2026-07-07T07:39:44Z</time>
      </trkpt>
      <trkpt lat="42.97171" lon="0.33032">
        <ele>1764.3</ele>
        <time>2026-07-07T07:39:45Z</time>
      </trkpt>
      <trkpt lat="42.97172" lon="0.33033">
        <ele>1764.3</ele>
        <time>2026-07-07T07:39:45Z</time>
      </trkpt>
      <trkpt lat="42.97172" lon="0.33034">
        <ele>1764.3</ele>
        <time>2026-07-07T07:39:46Z</time>
      </trkpt>
      <trkpt lat="42.97172" lon="0.33034">
        <ele>1763.3</ele>
        <time>2026-07-07T07:39:46Z</time>
      </trkpt>
      <trkpt lat="42.97172" lon="0.33035">
        <ele>1763.3</ele>
        <time>2026-07-07T07:39:47Z</time>
      </trkpt>
      <trkpt lat="42.97173" lon="0.33036">
        <ele>1763.3</ele>
        <time>2026-07-07T07:39:47Z</time>
      </trkpt>
      <trkpt lat="42.97173" lon="0.33037">
        <ele>1762.3</ele>
        <time>2026-07-07T07:39:48Z</time>
      </trkpt>
      <trkpt lat="42.97174" lon="0.33038">
        <ele>1762.3</ele>
        <time>2026-07-07T07:39:49Z</time>
      </trkpt>
      <trkpt lat="42.97174" lon="0.33039">
        <ele>1763.3</ele>
        <time>2026-07-07T07:39:49Z</time>
      </trkpt>
      <trkpt lat="42.97174" lon="0.33039">
        <ele>1763.3</ele>
        <time>2026-07-07T07:39:50Z</time>
      </trkpt>
      <trkpt lat="42.97175" lon="0.33041">
        <ele>1762.3</ele>
        <time>2026-07-07T07:39:51Z</time>
      </trkpt>
      <trkpt lat="42.97175" lon="0.33042">
        <ele>1762.3</ele>
        <time>2026-07-07T07:39:52Z</time>
      </trkpt>
      <trkpt lat="42.97175" lon="0.33043">
        <ele>1762.3</ele>
        <time>2026-07-07T07:39:52Z</time>
      </trkpt>
      <trkpt lat="42.97175" lon="0.33044">
        <ele>1762.3</ele>
        <time>2026-07-07T07:39:53Z</time>
      </trkpt>
      <trkpt lat="42.97175" lon="0.33044">
        <ele>1763.3</ele>
        <time>2026-07-07T07:39:54Z</time>
      </trkpt>
      <trkpt lat="42.97174" lon="0.33045">
        <ele>1763.3</ele>
        <time>2026-07-07T07:39:54Z</time>
      </trkpt>
      <trkpt lat="42.97175" lon="0.33046">
        <ele>1762.3</ele>
        <time>2026-07-07T07:39:55Z</time>
      </trkpt>
      <trkpt lat="42.97175" lon="0.33046">
        <ele>1763.3</ele>
        <time>2026-07-07T07:39:55Z</time>
      </trkpt>
      <trkpt lat="42.97175" lon="0.33047">
        <ele>1763.3</ele>
        <time>2026-07-07T07:39:56Z</time>
      </trkpt>
      <trkpt lat="42.97175" lon="0.33048">
        <ele>1763.3</ele>
        <time>2026-07-07T07:39:57Z</time>
      </trkpt>
      <trkpt lat="42.97175" lon="0.33049">
        <ele>1763.3</ele>
        <time>2026-07-07T07:39:57Z</time>
      </trkpt>
      <trkpt lat="42.97175" lon="0.33049">
        <ele>1763.3</ele>
        <time>2026-07-07T07:39:58Z</time>
      </trkpt>
      <trkpt lat="42.97176" lon="0.3305">
        <ele>1763.3</ele>
        <time>2026-07-07T07:39:58Z</time>
      </trkpt>
      <trkpt lat="42.97176" lon="0.33051">
        <ele>1763.3</ele>
        <time>2026-07-07T07:39:59Z</time>
      </trkpt>
      <trkpt lat="42.97176" lon="0.33051">
        <ele>1762.3</ele>
        <time>2026-07-07T07:39:59Z</time>
      </trkpt>
      <trkpt lat="42.97177" lon="0.33052">
        <ele>1762.3</ele>
        <time>2026-07-07T07:40:00Z</time>
      </trkpt>
      <trkpt lat="42.97178" lon="0.33053">
        <ele>1762.3</ele>
        <time>2026-07-07T07:40:01Z</time>
      </trkpt>
      <trkpt lat="42.97178" lon="0.33053">
        <ele>1762.3</ele>
        <time>2026-07-07T07:40:02Z</time>
      </trkpt>
      <trkpt lat="42.97179" lon="0.33053">
        <ele>1762.3</ele>
        <time>2026-07-07T07:40:02Z</time>
      </trkpt>
      <trkpt lat="42.97179" lon="0.33054">
        <ele>1762.3</ele>
        <time>2026-07-07T07:40:03Z</time>
      </trkpt>
      <trkpt lat="42.9718" lon="0.33055">
        <ele>1761.3</ele>
        <time>2026-07-07T07:40:03Z</time>
      </trkpt>
      <trkpt lat="42.9718" lon="0.33055">
        <ele>1761.3</ele>
        <time>2026-07-07T07:40:04Z</time>
      </trkpt>
      <trkpt lat="42.97181" lon="0.33056">
        <ele>1761.3</ele>
        <time>2026-07-07T07:40:05Z</time>
      </trkpt>
      <trkpt lat="42.97181" lon="0.33057">
        <ele>1761.3</ele>
        <time>2026-07-07T07:40:05Z</time>
      </trkpt>
      <trkpt lat="42.97181" lon="0.33057">
        <ele>1760.3</ele>
        <time>2026-07-07T07:40:06Z</time>
      </trkpt>
      <trkpt lat="42.97182" lon="0.33058">
        <ele>1760.3</ele>
        <time>2026-07-07T07:40:06Z</time>
      </trkpt>
      <trkpt lat="42.97182" lon="0.33059">
        <ele>1759.3</ele>
        <time>2026-07-07T07:40:07Z</time>
      </trkpt>
      <trkpt lat="42.97183" lon="0.3306">
        <ele>1759.3</ele>
        <time>2026-07-07T07:40:07Z</time>
      </trkpt>
      <trkpt lat="42.97183" lon="0.3306">
        <ele>1759.3</ele>
        <time>2026-07-07T07:40:08Z</time>
      </trkpt>
      <trkpt lat="42.97183" lon="0.33061">
        <ele>1760.3</ele>
        <time>2026-07-07T07:40:08Z</time>
      </trkpt>
      <trkpt lat="42.97184" lon="0.33062">
        <ele>1760.3</ele>
        <time>2026-07-07T07:40:09Z</time>
      </trkpt>
      <trkpt lat="42.97184" lon="0.33062">
        <ele>1759.3</ele>
        <time>2026-07-07T07:40:09Z</time>
      </trkpt>
      <trkpt lat="42.97185" lon="0.33063">
        <ele>1759.3</ele>
        <time>2026-07-07T07:40:10Z</time>
      </trkpt>
      <trkpt lat="42.97185" lon="0.33064">
        <ele>1759.3</ele>
        <time>2026-07-07T07:40:10Z</time>
      </trkpt>
      <trkpt lat="42.97186" lon="0.33065">
        <ele>1759.3</ele>
        <time>2026-07-07T07:40:11Z</time>
      </trkpt>
      <trkpt lat="42.97186" lon="0.33066">
        <ele>1759.3</ele>
        <time>2026-07-07T07:40:12Z</time>
      </trkpt>
      <trkpt lat="42.97186" lon="0.33068">
        <ele>1759.3</ele>
        <time>2026-07-07T07:40:13Z</time>
      </trkpt>
      <trkpt lat="42.97186" lon="0.33069">
        <ele>1758.3</ele>
        <time>2026-07-07T07:40:14Z</time>
      </trkpt>
      <trkpt lat="42.97186" lon="0.3307">
        <ele>1758.3</ele>
        <time>2026-07-07T07:40:14Z</time>
      </trkpt>
      <trkpt lat="42.97186" lon="0.33071">
        <ele>1758.3</ele>
        <time>2026-07-07T07:40:15Z</time>
      </trkpt>
      <trkpt lat="42.97186" lon="0.33071">
        <ele>1758.3</ele>
        <time>2026-07-07T07:40:15Z</time>
      </trkpt>
      <trkpt lat="42.97187" lon="0.33072">
        <ele>1758.3</ele>
        <time>2026-07-07T07:40:16Z</time>
      </trkpt>
      <trkpt lat="42.97187" lon="0.33073">
        <ele>1758.3</ele>
        <time>2026-07-07T07:40:16Z</time>
      </trkpt>
      <trkpt lat="42.97187" lon="0.33074">
        <ele>1758.3</ele>
        <time>2026-07-07T07:40:17Z</time>
      </trkpt>
      <trkpt lat="42.97187" lon="0.33075">
        <ele>1758.3</ele>
        <time>2026-07-07T07:40:17Z</time>
      </trkpt>
      <trkpt lat="42.97187" lon="0.33075">
        <ele>1758.3</ele>
        <time>2026-07-07T07:40:18Z</time>
      </trkpt>
      <trkpt lat="42.97187" lon="0.33076">
        <ele>1758.3</ele>
        <time>2026-07-07T07:40:19Z</time>
      </trkpt>
      <trkpt lat="42.97188" lon="0.33077">
        <ele>1758.3</ele>
        <time>2026-07-07T07:40:19Z</time>
      </trkpt>
      <trkpt lat="42.97188" lon="0.33078">
        <ele>1758.3</ele>
        <time>2026-07-07T07:40:20Z</time>
      </trkpt>
      <trkpt lat="42.97188" lon="0.33078">
        <ele>1758.3</ele>
        <time>2026-07-07T07:40:20Z</time>
      </trkpt>
      <trkpt lat="42.97188" lon="0.33079">
        <ele>1758.3</ele>
        <time>2026-07-07T07:40:21Z</time>
      </trkpt>
      <trkpt lat="42.97188" lon="0.3308">
        <ele>1758.3</ele>
        <time>2026-07-07T07:40:21Z</time>
      </trkpt>
      <trkpt lat="42.97189" lon="0.33081">
        <ele>1758.3</ele>
        <time>2026-07-07T07:40:22Z</time>
      </trkpt>
      <trkpt lat="42.97189" lon="0.33082">
        <ele>1758.3</ele>
        <time>2026-07-07T07:40:23Z</time>
      </trkpt>
      <trkpt lat="42.97189" lon="0.33083">
        <ele>1758.3</ele>
        <time>2026-07-07T07:40:23Z</time>
      </trkpt>
      <trkpt lat="42.97189" lon="0.33084">
        <ele>1758.3</ele>
        <time>2026-07-07T07:40:24Z</time>
      </trkpt>
      <trkpt lat="42.97189" lon="0.33084">
        <ele>1758.3</ele>
        <time>2026-07-07T07:40:24Z</time>
      </trkpt>
      <trkpt lat="42.97189" lon="0.33085">
        <ele>1758.3</ele>
        <time>2026-07-07T07:40:25Z</time>
      </trkpt>
      <trkpt lat="42.97189" lon="0.33086">
        <ele>1758.3</ele>
        <time>2026-07-07T07:40:25Z</time>
      </trkpt>
      <trkpt lat="42.97189" lon="0.33086">
        <ele>1758.3</ele>
        <time>2026-07-07T07:40:26Z</time>
      </trkpt>
      <trkpt lat="42.97189" lon="0.33087">
        <ele>1758.3</ele>
        <time>2026-07-07T07:40:27Z</time>
      </trkpt>
      <trkpt lat="42.9719" lon="0.33088">
        <ele>1758.3</ele>
        <time>2026-07-07T07:40:27Z</time>
      </trkpt>
      <trkpt lat="42.9719" lon="0.33088">
        <ele>1758.3</ele>
        <time>2026-07-07T07:40:28Z</time>
      </trkpt>
      <trkpt lat="42.9719" lon="0.33089">
        <ele>1758.3</ele>
        <time>2026-07-07T07:40:28Z</time>
      </trkpt>
      <trkpt lat="42.97191" lon="0.33089">
        <ele>1758.3</ele>
        <time>2026-07-07T07:40:29Z</time>
      </trkpt>
      <trkpt lat="42.97191" lon="0.3309">
        <ele>1758.3</ele>
        <time>2026-07-07T07:40:29Z</time>
      </trkpt>
      <trkpt lat="42.97191" lon="0.3309">
        <ele>1758.3</ele>
        <time>2026-07-07T07:40:30Z</time>
      </trkpt>
      <trkpt lat="42.97192" lon="0.33091">
        <ele>1758.3</ele>
        <time>2026-07-07T07:40:31Z</time>
      </trkpt>
      <trkpt lat="42.97192" lon="0.33092">
        <ele>1758.3</ele>
        <time>2026-07-07T07:40:31Z</time>
      </trkpt>
      <trkpt lat="42.97192" lon="0.33092">
        <ele>1757.3</ele>
        <time>2026-07-07T07:40:32Z</time>
      </trkpt>
      <trkpt lat="42.97193" lon="0.33093">
        <ele>1757.3</ele>
        <time>2026-07-07T07:40:32Z</time>
      </trkpt>
      <trkpt lat="42.97193" lon="0.33094">
        <ele>1757.3</ele>
        <time>2026-07-07T07:40:33Z</time>
      </trkpt>
      <trkpt lat="42.97193" lon="0.33094">
        <ele>1757.3</ele>
        <time>2026-07-07T07:40:33Z</time>
      </trkpt>
      <trkpt lat="42.97194" lon="0.33095">
        <ele>1757.3</ele>
        <time>2026-07-07T07:40:34Z</time>
      </trkpt>
      <trkpt lat="42.97194" lon="0.33096">
        <ele>1757.3</ele>
        <time>2026-07-07T07:40:35Z</time>
      </trkpt>
      <trkpt lat="42.97194" lon="0.33096">
        <ele>1758.3</ele>
        <time>2026-07-07T07:40:35Z</time>
      </trkpt>
      <trkpt lat="42.97195" lon="0.33097">
        <ele>1758.3</ele>
        <time>2026-07-07T07:40:36Z</time>
      </trkpt>
      <trkpt lat="42.97195" lon="0.33098">
        <ele>1757.3</ele>
        <time>2026-07-07T07:40:37Z</time>
      </trkpt>
      <trkpt lat="42.97195" lon="0.33098">
        <ele>1758.3</ele>
        <time>2026-07-07T07:40:37Z</time>
      </trkpt>
      <trkpt lat="42.97195" lon="0.33099">
        <ele>1758.3</ele>
        <time>2026-07-07T07:40:38Z</time>
      </trkpt>
      <trkpt lat="42.97196" lon="0.331">
        <ele>1758.3</ele>
        <time>2026-07-07T07:40:39Z</time>
      </trkpt>
      <trkpt lat="42.97195" lon="0.331">
        <ele>1758.3</ele>
        <time>2026-07-07T07:40:39Z</time>
      </trkpt>
      <trkpt lat="42.97196" lon="0.33101">
        <ele>1758.3</ele>
        <time>2026-07-07T07:40:40Z</time>
      </trkpt>
      <trkpt lat="42.97196" lon="0.33102">
        <ele>1757.3</ele>
        <time>2026-07-07T07:40:40Z</time>
      </trkpt>
      <trkpt lat="42.97196" lon="0.33103">
        <ele>1757.3</ele>
        <time>2026-07-07T07:40:41Z</time>
      </trkpt>
      <trkpt lat="42.97196" lon="0.33103">
        <ele>1757.3</ele>
        <time>2026-07-07T07:40:42Z</time>
      </trkpt>
      <trkpt lat="42.97196" lon="0.33104">
        <ele>1757.3</ele>
        <time>2026-07-07T07:40:43Z</time>
      </trkpt>
      <trkpt lat="42.97196" lon="0.33105">
        <ele>1757.3</ele>
        <time>2026-07-07T07:40:43Z</time>
      </trkpt>
      <trkpt lat="42.97196" lon="0.33105">
        <ele>1757.3</ele>
        <time>2026-07-07T07:40:44Z</time>
      </trkpt>
      <trkpt lat="42.97196" lon="0.33106">
        <ele>1757.3</ele>
        <time>2026-07-07T07:40:44Z</time>
      </trkpt>
      <trkpt lat="42.97196" lon="0.33107">
        <ele>1757.3</ele>
        <time>2026-07-07T07:40:45Z</time>
      </trkpt>
      <trkpt lat="42.97196" lon="0.33108">
        <ele>1758.3</ele>
        <time>2026-07-07T07:40:45Z</time>
      </trkpt>
      <trkpt lat="42.97196" lon="0.33109">
        <ele>1758.3</ele>
        <time>2026-07-07T07:40:46Z</time>
      </trkpt>
      <trkpt lat="42.97196" lon="0.3311">
        <ele>1757.3</ele>
        <time>2026-07-07T07:40:47Z</time>
      </trkpt>
      <trkpt lat="42.97196" lon="0.3311">
        <ele>1757.3</ele>
        <time>2026-07-07T07:40:47Z</time>
      </trkpt>
      <trkpt lat="42.97196" lon="0.33111">
        <ele>1757.3</ele>
        <time>2026-07-07T07:40:48Z</time>
      </trkpt>
      <trkpt lat="42.97196" lon="0.33112">
        <ele>1758.3</ele>
        <time>2026-07-07T07:40:49Z</time>
      </trkpt>
      <trkpt lat="42.97196" lon="0.33113">
        <ele>1758.3</ele>
        <time>2026-07-07T07:40:49Z</time>
      </trkpt>
      <trkpt lat="42.97197" lon="0.33114">
        <ele>1757.3</ele>
        <time>2026-07-07T07:40:50Z</time>
      </trkpt>
      <trkpt lat="42.97197" lon="0.33114">
        <ele>1757.3</ele>
        <time>2026-07-07T07:40:50Z</time>
      </trkpt>
      <trkpt lat="42.97197" lon="0.33115">
        <ele>1757.3</ele>
        <time>2026-07-07T07:40:51Z</time>
      </trkpt>
      <trkpt lat="42.97198" lon="0.33116">
        <ele>1756.3</ele>
        <time>2026-07-07T07:40:51Z</time>
      </trkpt>
      <trkpt lat="42.97198" lon="0.33117">
        <ele>1756.3</ele>
        <time>2026-07-07T07:40:52Z</time>
      </trkpt>
      <trkpt lat="42.97198" lon="0.33117">
        <ele>1756.3</ele>
        <time>2026-07-07T07:40:52Z</time>
      </trkpt>
      <trkpt lat="42.97198" lon="0.33118">
        <ele>1756.3</ele>
        <time>2026-07-07T07:40:53Z</time>
      </trkpt>
      <trkpt lat="42.97199" lon="0.33119">
        <ele>1756.3</ele>
        <time>2026-07-07T07:40:53Z</time>
      </trkpt>
      <trkpt lat="42.97199" lon="0.3312">
        <ele>1756.3</ele>
        <time>2026-07-07T07:40:54Z</time>
      </trkpt>
      <trkpt lat="42.972" lon="0.33122">
        <ele>1757.3</ele>
        <time>2026-07-07T07:40:55Z</time>
      </trkpt>
      <trkpt lat="42.972" lon="0.33122">
        <ele>1757.3</ele>
        <time>2026-07-07T07:40:55Z</time>
      </trkpt>
      <trkpt lat="42.97201" lon="0.33123">
        <ele>1757.3</ele>
        <time>2026-07-07T07:40:56Z</time>
      </trkpt>
      <trkpt lat="42.97201" lon="0.33124">
        <ele>1756.3</ele>
        <time>2026-07-07T07:40:57Z</time>
      </trkpt>
      <trkpt lat="42.97202" lon="0.33125">
        <ele>1756.3</ele>
        <time>2026-07-07T07:40:57Z</time>
      </trkpt>
      <trkpt lat="42.97202" lon="0.33126">
        <ele>1756.3</ele>
        <time>2026-07-07T07:40:58Z</time>
      </trkpt>
      <trkpt lat="42.97203" lon="0.33127">
        <ele>1756.3</ele>
        <time>2026-07-07T07:40:58Z</time>
      </trkpt>
      <trkpt lat="42.97203" lon="0.33127">
        <ele>1756.3</ele>
        <time>2026-07-07T07:40:59Z</time>
      </trkpt>
      <trkpt lat="42.97203" lon="0.33128">
        <ele>1756.3</ele>
        <time>2026-07-07T07:40:59Z</time>
      </trkpt>
      <trkpt lat="42.97203" lon="0.33129">
        <ele>1756.3</ele>
        <time>2026-07-07T07:41:00Z</time>
      </trkpt>
      <trkpt lat="42.97203" lon="0.3313">
        <ele>1755.3</ele>
        <time>2026-07-07T07:41:00Z</time>
      </trkpt>
      <trkpt lat="42.97203" lon="0.33131">
        <ele>1755.3</ele>
        <time>2026-07-07T07:41:01Z</time>
      </trkpt>
      <trkpt lat="42.97203" lon="0.33132">
        <ele>1755.3</ele>
        <time>2026-07-07T07:41:01Z</time>
      </trkpt>
      <trkpt lat="42.97203" lon="0.33133">
        <ele>1755.3</ele>
        <time>2026-07-07T07:41:02Z</time>
      </trkpt>
      <trkpt lat="42.97203" lon="0.33134">
        <ele>1755.3</ele>
        <time>2026-07-07T07:41:03Z</time>
      </trkpt>
      <trkpt lat="42.97203" lon="0.33135">
        <ele>1755.3</ele>
        <time>2026-07-07T07:41:03Z</time>
      </trkpt>
      <trkpt lat="42.97202" lon="0.33136">
        <ele>1755.3</ele>
        <time>2026-07-07T07:41:04Z</time>
      </trkpt>
      <trkpt lat="42.97202" lon="0.33138">
        <ele>1755.3</ele>
        <time>2026-07-07T07:41:04Z</time>
      </trkpt>
      <trkpt lat="42.97202" lon="0.33139">
        <ele>1755.3</ele>
        <time>2026-07-07T07:41:05Z</time>
      </trkpt>
      <trkpt lat="42.97202" lon="0.3314">
        <ele>1755.3</ele>
        <time>2026-07-07T07:41:06Z</time>
      </trkpt>
      <trkpt lat="42.97201" lon="0.33141">
        <ele>1755.3</ele>
        <time>2026-07-07T07:41:07Z</time>
      </trkpt>
      <trkpt lat="42.97201" lon="0.33141">
        <ele>1755.3</ele>
        <time>2026-07-07T07:41:07Z</time>
      </trkpt>
      <trkpt lat="42.97201" lon="0.33142">
        <ele>1755.3</ele>
        <time>2026-07-07T07:41:08Z</time>
      </trkpt>
      <trkpt lat="42.97201" lon="0.33142">
        <ele>1754.3</ele>
        <time>2026-07-07T07:41:09Z</time>
      </trkpt>
      <trkpt lat="42.97201" lon="0.33143">
        <ele>1754.3</ele>
        <time>2026-07-07T07:41:09Z</time>
      </trkpt>
      <trkpt lat="42.97201" lon="0.33144">
        <ele>1754.3</ele>
        <time>2026-07-07T07:41:10Z</time>
      </trkpt>
      <trkpt lat="42.97201" lon="0.33144">
        <ele>1753.3</ele>
        <time>2026-07-07T07:41:10Z</time>
      </trkpt>
      <trkpt lat="42.97201" lon="0.33145">
        <ele>1753.3</ele>
        <time>2026-07-07T07:41:11Z</time>
      </trkpt>
      <trkpt lat="42.97202" lon="0.33146">
        <ele>1753.3</ele>
        <time>2026-07-07T07:41:11Z</time>
      </trkpt>
      <trkpt lat="42.97202" lon="0.33147">
        <ele>1753.3</ele>
        <time>2026-07-07T07:41:12Z</time>
      </trkpt>
      <trkpt lat="42.97202" lon="0.33148">
        <ele>1753.3</ele>
        <time>2026-07-07T07:41:13Z</time>
      </trkpt>
      <trkpt lat="42.97202" lon="0.33149">
        <ele>1752.3</ele>
        <time>2026-07-07T07:41:14Z</time>
      </trkpt>
      <trkpt lat="42.97202" lon="0.3315">
        <ele>1752.3</ele>
        <time>2026-07-07T07:41:14Z</time>
      </trkpt>
      <trkpt lat="42.97201" lon="0.33151">
        <ele>1752.3</ele>
        <time>2026-07-07T07:41:15Z</time>
      </trkpt>
      <trkpt lat="42.97201" lon="0.33152">
        <ele>1752.3</ele>
        <time>2026-07-07T07:41:15Z</time>
      </trkpt>
      <trkpt lat="42.97201" lon="0.33153">
        <ele>1752.3</ele>
        <time>2026-07-07T07:41:16Z</time>
      </trkpt>
      <trkpt lat="42.97201" lon="0.33154">
        <ele>1752.3</ele>
        <time>2026-07-07T07:41:16Z</time>
      </trkpt>
      <trkpt lat="42.97201" lon="0.33155">
        <ele>1752.3</ele>
        <time>2026-07-07T07:41:17Z</time>
      </trkpt>
      <trkpt lat="42.97201" lon="0.33155">
        <ele>1752.3</ele>
        <time>2026-07-07T07:41:17Z</time>
      </trkpt>
      <trkpt lat="42.97201" lon="0.33157">
        <ele>1752.3</ele>
        <time>2026-07-07T07:41:18Z</time>
      </trkpt>
      <trkpt lat="42.97201" lon="0.33158">
        <ele>1752.3</ele>
        <time>2026-07-07T07:41:19Z</time>
      </trkpt>
      <trkpt lat="42.97201" lon="0.33159">
        <ele>1752.3</ele>
        <time>2026-07-07T07:41:19Z</time>
      </trkpt>
      <trkpt lat="42.97201" lon="0.3316">
        <ele>1752.3</ele>
        <time>2026-07-07T07:41:20Z</time>
      </trkpt>
      <trkpt lat="42.97201" lon="0.33162">
        <ele>1751.3</ele>
        <time>2026-07-07T07:41:21Z</time>
      </trkpt>
      <trkpt lat="42.97201" lon="0.33163">
        <ele>1751.3</ele>
        <time>2026-07-07T07:41:21Z</time>
      </trkpt>
      <trkpt lat="42.97202" lon="0.33164">
        <ele>1751.3</ele>
        <time>2026-07-07T07:41:22Z</time>
      </trkpt>
      <trkpt lat="42.97202" lon="0.33165">
        <ele>1751.3</ele>
        <time>2026-07-07T07:41:22Z</time>
      </trkpt>
      <trkpt lat="42.97202" lon="0.33166">
        <ele>1751.3</ele>
        <time>2026-07-07T07:41:23Z</time>
      </trkpt>
      <trkpt lat="42.97202" lon="0.33167">
        <ele>1751.3</ele>
        <time>2026-07-07T07:41:24Z</time>
      </trkpt>
      <trkpt lat="42.97202" lon="0.33168">
        <ele>1751.3</ele>
        <time>2026-07-07T07:41:24Z</time>
      </trkpt>
      <trkpt lat="42.97202" lon="0.33169">
        <ele>1751.3</ele>
        <time>2026-07-07T07:41:25Z</time>
      </trkpt>
      <trkpt lat="42.97202" lon="0.33169">
        <ele>1751.3</ele>
        <time>2026-07-07T07:41:25Z</time>
      </trkpt>
      <trkpt lat="42.97202" lon="0.3317">
        <ele>1751.3</ele>
        <time>2026-07-07T07:41:26Z</time>
      </trkpt>
      <trkpt lat="42.97203" lon="0.33171">
        <ele>1752.3</ele>
        <time>2026-07-07T07:41:26Z</time>
      </trkpt>
      <trkpt lat="42.97203" lon="0.33172">
        <ele>1752.3</ele>
        <time>2026-07-07T07:41:27Z</time>
      </trkpt>
      <trkpt lat="42.97203" lon="0.33173">
        <ele>1752.3</ele>
        <time>2026-07-07T07:41:28Z</time>
      </trkpt>
      <trkpt lat="42.97203" lon="0.33174">
        <ele>1752.3</ele>
        <time>2026-07-07T07:41:28Z</time>
      </trkpt>
      <trkpt lat="42.97203" lon="0.33175">
        <ele>1751.3</ele>
        <time>2026-07-07T07:41:29Z</time>
      </trkpt>
      <trkpt lat="42.97204" lon="0.33176">
        <ele>1751.3</ele>
        <time>2026-07-07T07:41:29Z</time>
      </trkpt>
      <trkpt lat="42.97204" lon="0.33177">
        <ele>1752.3</ele>
        <time>2026-07-07T07:41:30Z</time>
      </trkpt>
      <trkpt lat="42.97204" lon="0.33177">
        <ele>1752.3</ele>
        <time>2026-07-07T07:41:30Z</time>
      </trkpt>
      <trkpt lat="42.97205" lon="0.33178">
        <ele>1752.3</ele>
        <time>2026-07-07T07:41:31Z</time>
      </trkpt>
      <trkpt lat="42.97205" lon="0.33179">
        <ele>1752.3</ele>
        <time>2026-07-07T07:41:32Z</time>
      </trkpt>
      <trkpt lat="42.97205" lon="0.3318">
        <ele>1752.3</ele>
        <time>2026-07-07T07:41:32Z</time>
      </trkpt>
      <trkpt lat="42.97206" lon="0.33181">
        <ele>1752.3</ele>
        <time>2026-07-07T07:41:33Z</time>
      </trkpt>
      <trkpt lat="42.97206" lon="0.33182">
        <ele>1752.3</ele>
        <time>2026-07-07T07:41:33Z</time>
      </trkpt>
      <trkpt lat="42.97206" lon="0.33183">
        <ele>1752.3</ele>
        <time>2026-07-07T07:41:34Z</time>
      </trkpt>
      <trkpt lat="42.97206" lon="0.33183">
        <ele>1752.3</ele>
        <time>2026-07-07T07:41:35Z</time>
      </trkpt>
      <trkpt lat="42.97206" lon="0.33184">
        <ele>1752.3</ele>
        <time>2026-07-07T07:41:35Z</time>
      </trkpt>
      <trkpt lat="42.97206" lon="0.33185">
        <ele>1752.3</ele>
        <time>2026-07-07T07:41:36Z</time>
      </trkpt>
      <trkpt lat="42.97206" lon="0.33186">
        <ele>1752.3</ele>
        <time>2026-07-07T07:41:36Z</time>
      </trkpt>
      <trkpt lat="42.97206" lon="0.33186">
        <ele>1752.3</ele>
        <time>2026-07-07T07:41:37Z</time>
      </trkpt>
      <trkpt lat="42.97206" lon="0.33187">
        <ele>1751.3</ele>
        <time>2026-07-07T07:41:38Z</time>
      </trkpt>
      <trkpt lat="42.97206" lon="0.33188">
        <ele>1751.3</ele>
        <time>2026-07-07T07:41:38Z</time>
      </trkpt>
      <trkpt lat="42.97206" lon="0.33188">
        <ele>1751.3</ele>
        <time>2026-07-07T07:41:39Z</time>
      </trkpt>
      <trkpt lat="42.97206" lon="0.33188">
        <ele>1751.3</ele>
        <time>2026-07-07T07:41:39Z</time>
      </trkpt>
      <trkpt lat="42.97207" lon="0.33189">
        <ele>1751.3</ele>
        <time>2026-07-07T07:41:40Z</time>
      </trkpt>
      <trkpt lat="42.97207" lon="0.3319">
        <ele>1751.3</ele>
        <time>2026-07-07T07:41:41Z</time>
      </trkpt>
      <trkpt lat="42.97207" lon="0.3319">
        <ele>1751.3</ele>
        <time>2026-07-07T07:41:41Z</time>
      </trkpt>
      <trkpt lat="42.97207" lon="0.33191">
        <ele>1751.3</ele>
        <time>2026-07-07T07:41:42Z</time>
      </trkpt>
      <trkpt lat="42.97207" lon="0.33191">
        <ele>1750.3</ele>
        <time>2026-07-07T07:41:43Z</time>
      </trkpt>
      <trkpt lat="42.97207" lon="0.33192">
        <ele>1750.3</ele>
        <time>2026-07-07T07:41:43Z</time>
      </trkpt>
      <trkpt lat="42.97207" lon="0.33193">
        <ele>1750.3</ele>
        <time>2026-07-07T07:41:44Z</time>
      </trkpt>
      <trkpt lat="42.97207" lon="0.33193">
        <ele>1750.3</ele>
        <time>2026-07-07T07:41:44Z</time>
      </trkpt>
      <trkpt lat="42.97207" lon="0.33194">
        <ele>1750.3</ele>
        <time>2026-07-07T07:41:45Z</time>
      </trkpt>
      <trkpt lat="42.97208" lon="0.33195">
        <ele>1750.3</ele>
        <time>2026-07-07T07:41:46Z</time>
      </trkpt>
      <trkpt lat="42.97208" lon="0.33195">
        <ele>1750.3</ele>
        <time>2026-07-07T07:41:46Z</time>
      </trkpt>
      <trkpt lat="42.97208" lon="0.33196">
        <ele>1750.3</ele>
        <time>2026-07-07T07:41:47Z</time>
      </trkpt>
      <trkpt lat="42.97208" lon="0.33197">
        <ele>1750.3</ele>
        <time>2026-07-07T07:41:47Z</time>
      </trkpt>
      <trkpt lat="42.97208" lon="0.33198">
        <ele>1750.3</ele>
        <time>2026-07-07T07:41:48Z</time>
      </trkpt>
      <trkpt lat="42.97208" lon="0.332">
        <ele>1750.3</ele>
        <time>2026-07-07T07:41:49Z</time>
      </trkpt>
      <trkpt lat="42.97208" lon="0.33201">
        <ele>1750.3</ele>
        <time>2026-07-07T07:41:50Z</time>
      </trkpt>
      <trkpt lat="42.97208" lon="0.33202">
        <ele>1750.3</ele>
        <time>2026-07-07T07:41:50Z</time>
      </trkpt>
      <trkpt lat="42.97208" lon="0.33203">
        <ele>1750.3</ele>
        <time>2026-07-07T07:41:51Z</time>
      </trkpt>
      <trkpt lat="42.97208" lon="0.33204">
        <ele>1751.3</ele>
        <time>2026-07-07T07:41:52Z</time>
      </trkpt>
      <trkpt lat="42.97208" lon="0.33205">
        <ele>1751.3</ele>
        <time>2026-07-07T07:41:52Z</time>
      </trkpt>
      <trkpt lat="42.97209" lon="0.33206">
        <ele>1750.3</ele>
        <time>2026-07-07T07:41:53Z</time>
      </trkpt>
      <trkpt lat="42.97209" lon="0.33207">
        <ele>1751.3</ele>
        <time>2026-07-07T07:41:53Z</time>
      </trkpt>
      <trkpt lat="42.97209" lon="0.33208">
        <ele>1751.3</ele>
        <time>2026-07-07T07:41:54Z</time>
      </trkpt>
      <trkpt lat="42.97209" lon="0.33208">
        <ele>1751.3</ele>
        <time>2026-07-07T07:41:55Z</time>
      </trkpt>
      <trkpt lat="42.97209" lon="0.33209">
        <ele>1751.3</ele>
        <time>2026-07-07T07:41:55Z</time>
      </trkpt>
      <trkpt lat="42.97209" lon="0.3321">
        <ele>1751.3</ele>
        <time>2026-07-07T07:41:56Z</time>
      </trkpt>
      <trkpt lat="42.97209" lon="0.33211">
        <ele>1751.3</ele>
        <time>2026-07-07T07:41:56Z</time>
      </trkpt>
      <trkpt lat="42.9721" lon="0.33212">
        <ele>1751.3</ele>
        <time>2026-07-07T07:41:57Z</time>
      </trkpt>
      <trkpt lat="42.97209" lon="0.33213">
        <ele>1752.3</ele>
        <time>2026-07-07T07:41:58Z</time>
      </trkpt>
      <trkpt lat="42.97209" lon="0.33214">
        <ele>1752.3</ele>
        <time>2026-07-07T07:41:58Z</time>
      </trkpt>
      <trkpt lat="42.97209" lon="0.33215">
        <ele>1752.3</ele>
        <time>2026-07-07T07:41:59Z</time>
      </trkpt>
      <trkpt lat="42.97209" lon="0.33216">
        <ele>1753.3</ele>
        <time>2026-07-07T07:42:00Z</time>
      </trkpt>
      <trkpt lat="42.97209" lon="0.33216">
        <ele>1753.3</ele>
        <time>2026-07-07T07:42:00Z</time>
      </trkpt>
      <trkpt lat="42.9721" lon="0.33218">
        <ele>1753.3</ele>
        <time>2026-07-07T07:42:01Z</time>
      </trkpt>
      <trkpt lat="42.9721" lon="0.33219">
        <ele>1753.3</ele>
        <time>2026-07-07T07:42:02Z</time>
      </trkpt>
      <trkpt lat="42.9721" lon="0.3322">
        <ele>1752.3</ele>
        <time>2026-07-07T07:42:02Z</time>
      </trkpt>
      <trkpt lat="42.9721" lon="0.33221">
        <ele>1752.3</ele>
        <time>2026-07-07T07:42:03Z</time>
      </trkpt>
      <trkpt lat="42.9721" lon="0.33222">
        <ele>1752.3</ele>
        <time>2026-07-07T07:42:04Z</time>
      </trkpt>
      <trkpt lat="42.9721" lon="0.33223">
        <ele>1752.3</ele>
        <time>2026-07-07T07:42:04Z</time>
      </trkpt>
      <trkpt lat="42.9721" lon="0.33224">
        <ele>1753.3</ele>
        <time>2026-07-07T07:42:05Z</time>
      </trkpt>
      <trkpt lat="42.9721" lon="0.33224">
        <ele>1753.3</ele>
        <time>2026-07-07T07:42:05Z</time>
      </trkpt>
      <trkpt lat="42.9721" lon="0.33226">
        <ele>1753.3</ele>
        <time>2026-07-07T07:42:06Z</time>
      </trkpt>
      <trkpt lat="42.9721" lon="0.33226">
        <ele>1753.3</ele>
        <time>2026-07-07T07:42:07Z</time>
      </trkpt>
      <trkpt lat="42.97209" lon="0.33227">
        <ele>1753.3</ele>
        <time>2026-07-07T07:42:07Z</time>
      </trkpt>
      <trkpt lat="42.97209" lon="0.33228">
        <ele>1753.3</ele>
        <time>2026-07-07T07:42:08Z</time>
      </trkpt>
      <trkpt lat="42.97209" lon="0.33229">
        <ele>1754.3</ele>
        <time>2026-07-07T07:42:09Z</time>
      </trkpt>
      <trkpt lat="42.97209" lon="0.3323">
        <ele>1754.3</ele>
        <time>2026-07-07T07:42:09Z</time>
      </trkpt>
      <trkpt lat="42.97209" lon="0.33231">
        <ele>1754.3</ele>
        <time>2026-07-07T07:42:10Z</time>
      </trkpt>
      <trkpt lat="42.97209" lon="0.33231">
        <ele>1754.3</ele>
        <time>2026-07-07T07:42:10Z</time>
      </trkpt>
      <trkpt lat="42.97209" lon="0.33232">
        <ele>1754.3</ele>
        <time>2026-07-07T07:42:11Z</time>
      </trkpt>
      <trkpt lat="42.97209" lon="0.33233">
        <ele>1754.3</ele>
        <time>2026-07-07T07:42:12Z</time>
      </trkpt>
      <trkpt lat="42.97209" lon="0.33234">
        <ele>1754.3</ele>
        <time>2026-07-07T07:42:12Z</time>
      </trkpt>
      <trkpt lat="42.97209" lon="0.33235">
        <ele>1754.3</ele>
        <time>2026-07-07T07:42:13Z</time>
      </trkpt>
      <trkpt lat="42.97209" lon="0.33236">
        <ele>1754.3</ele>
        <time>2026-07-07T07:42:14Z</time>
      </trkpt>
      <trkpt lat="42.97209" lon="0.33237">
        <ele>1754.3</ele>
        <time>2026-07-07T07:42:14Z</time>
      </trkpt>
      <trkpt lat="42.97209" lon="0.33237">
        <ele>1754.3</ele>
        <time>2026-07-07T07:42:15Z</time>
      </trkpt>
      <trkpt lat="42.97209" lon="0.33238">
        <ele>1754.3</ele>
        <time>2026-07-07T07:42:15Z</time>
      </trkpt>
      <trkpt lat="42.97209" lon="0.33239">
        <ele>1754.3</ele>
        <time>2026-07-07T07:42:16Z</time>
      </trkpt>
      <trkpt lat="42.97209" lon="0.3324">
        <ele>1754.3</ele>
        <time>2026-07-07T07:42:17Z</time>
      </trkpt>
      <trkpt lat="42.97209" lon="0.3324">
        <ele>1754.3</ele>
        <time>2026-07-07T07:42:17Z</time>
      </trkpt>
      <trkpt lat="42.97208" lon="0.33241">
        <ele>1754.3</ele>
        <time>2026-07-07T07:42:18Z</time>
      </trkpt>
      <trkpt lat="42.97209" lon="0.33242">
        <ele>1754.3</ele>
        <time>2026-07-07T07:42:18Z</time>
      </trkpt>
      <trkpt lat="42.97208" lon="0.33243">
        <ele>1754.3</ele>
        <time>2026-07-07T07:42:19Z</time>
      </trkpt>
      <trkpt lat="42.97209" lon="0.33244">
        <ele>1754.3</ele>
        <time>2026-07-07T07:42:20Z</time>
      </trkpt>
      <trkpt lat="42.97208" lon="0.33245">
        <ele>1754.3</ele>
        <time>2026-07-07T07:42:20Z</time>
      </trkpt>
      <trkpt lat="42.97209" lon="0.33246">
        <ele>1754.3</ele>
        <time>2026-07-07T07:42:21Z</time>
      </trkpt>
      <trkpt lat="42.97209" lon="0.33247">
        <ele>1755.3</ele>
        <time>2026-07-07T07:42:21Z</time>
      </trkpt>
      <trkpt lat="42.97209" lon="0.33248">
        <ele>1755.3</ele>
        <time>2026-07-07T07:42:22Z</time>
      </trkpt>
      <trkpt lat="42.97209" lon="0.33249">
        <ele>1755.3</ele>
        <time>2026-07-07T07:42:22Z</time>
      </trkpt>
      <trkpt lat="42.97209" lon="0.3325">
        <ele>1755.3</ele>
        <time>2026-07-07T07:42:23Z</time>
      </trkpt>
      <trkpt lat="42.97209" lon="0.33252">
        <ele>1755.3</ele>
        <time>2026-07-07T07:42:24Z</time>
      </trkpt>
      <trkpt lat="42.9721" lon="0.33252">
        <ele>1755.3</ele>
        <time>2026-07-07T07:42:24Z</time>
      </trkpt>
      <trkpt lat="42.9721" lon="0.33253">
        <ele>1755.3</ele>
        <time>2026-07-07T07:42:25Z</time>
      </trkpt>
      <trkpt lat="42.9721" lon="0.33254">
        <ele>1755.3</ele>
        <time>2026-07-07T07:42:25Z</time>
      </trkpt>
      <trkpt lat="42.9721" lon="0.33255">
        <ele>1755.3</ele>
        <time>2026-07-07T07:42:26Z</time>
      </trkpt>
      <trkpt lat="42.9721" lon="0.33256">
        <ele>1755.3</ele>
        <time>2026-07-07T07:42:27Z</time>
      </trkpt>
      <trkpt lat="42.97211" lon="0.33257">
        <ele>1754.3</ele>
        <time>2026-07-07T07:42:27Z</time>
      </trkpt>
      <trkpt lat="42.97211" lon="0.33258">
        <ele>1754.3</ele>
        <time>2026-07-07T07:42:28Z</time>
      </trkpt>
      <trkpt lat="42.97211" lon="0.33259">
        <ele>1755.3</ele>
        <time>2026-07-07T07:42:28Z</time>
      </trkpt>
      <trkpt lat="42.97211" lon="0.3326">
        <ele>1755.3</ele>
        <time>2026-07-07T07:42:29Z</time>
      </trkpt>
      <trkpt lat="42.97211" lon="0.33261">
        <ele>1754.3</ele>
        <time>2026-07-07T07:42:30Z</time>
      </trkpt>
      <trkpt lat="42.97212" lon="0.33262">
        <ele>1754.3</ele>
        <time>2026-07-07T07:42:30Z</time>
      </trkpt>
      <trkpt lat="42.97212" lon="0.33263">
        <ele>1755.3</ele>
        <time>2026-07-07T07:42:31Z</time>
      </trkpt>
      <trkpt lat="42.97212" lon="0.33264">
        <ele>1754.3</ele>
        <time>2026-07-07T07:42:31Z</time>
      </trkpt>
      <trkpt lat="42.97212" lon="0.33265">
        <ele>1754.3</ele>
        <time>2026-07-07T07:42:32Z</time>
      </trkpt>
      <trkpt lat="42.97212" lon="0.33266">
        <ele>1754.3</ele>
        <time>2026-07-07T07:42:32Z</time>
      </trkpt>
      <trkpt lat="42.97213" lon="0.33267">
        <ele>1754.3</ele>
        <time>2026-07-07T07:42:33Z</time>
      </trkpt>
      <trkpt lat="42.97213" lon="0.33268">
        <ele>1754.3</ele>
        <time>2026-07-07T07:42:33Z</time>
      </trkpt>
      <trkpt lat="42.97214" lon="0.33269">
        <ele>1754.3</ele>
        <time>2026-07-07T07:42:34Z</time>
      </trkpt>
      <trkpt lat="42.97214" lon="0.33269">
        <ele>1754.3</ele>
        <time>2026-07-07T07:42:35Z</time>
      </trkpt>
      <trkpt lat="42.97215" lon="0.3327">
        <ele>1754.3</ele>
        <time>2026-07-07T07:42:35Z</time>
      </trkpt>
      <trkpt lat="42.97215" lon="0.33271">
        <ele>1754.3</ele>
        <time>2026-07-07T07:42:36Z</time>
      </trkpt>
      <trkpt lat="42.97215" lon="0.33272">
        <ele>1754.3</ele>
        <time>2026-07-07T07:42:36Z</time>
      </trkpt>
      <trkpt lat="42.97216" lon="0.33273">
        <ele>1754.3</ele>
        <time>2026-07-07T07:42:37Z</time>
      </trkpt>
      <trkpt lat="42.97216" lon="0.33274">
        <ele>1753.3</ele>
        <time>2026-07-07T07:42:38Z</time>
      </trkpt>
      <trkpt lat="42.97217" lon="0.33274">
        <ele>1753.3</ele>
        <time>2026-07-07T07:42:38Z</time>
      </trkpt>
      <trkpt lat="42.97217" lon="0.33275">
        <ele>1753.3</ele>
        <time>2026-07-07T07:42:39Z</time>
      </trkpt>
      <trkpt lat="42.97217" lon="0.33276">
        <ele>1754.3</ele>
        <time>2026-07-07T07:42:39Z</time>
      </trkpt>
      <trkpt lat="42.97217" lon="0.33277">
        <ele>1754.3</ele>
        <time>2026-07-07T07:42:40Z</time>
      </trkpt>
      <trkpt lat="42.97218" lon="0.33277">
        <ele>1754.3</ele>
        <time>2026-07-07T07:42:41Z</time>
      </trkpt>
      <trkpt lat="42.97218" lon="0.33278">
        <ele>1754.3</ele>
        <time>2026-07-07T07:42:41Z</time>
      </trkpt>
      <trkpt lat="42.97218" lon="0.33279">
        <ele>1754.3</ele>
        <time>2026-07-07T07:42:42Z</time>
      </trkpt>
      <trkpt lat="42.97218" lon="0.3328">
        <ele>1755.3</ele>
        <time>2026-07-07T07:42:43Z</time>
      </trkpt>
      <trkpt lat="42.97219" lon="0.33281">
        <ele>1755.3</ele>
        <time>2026-07-07T07:42:43Z</time>
      </trkpt>
      <trkpt lat="42.97219" lon="0.33282">
        <ele>1755.3</ele>
        <time>2026-07-07T07:42:44Z</time>
      </trkpt>
      <trkpt lat="42.97219" lon="0.33282">
        <ele>1755.3</ele>
        <time>2026-07-07T07:42:44Z</time>
      </trkpt>
      <trkpt lat="42.97219" lon="0.33283">
        <ele>1755.3</ele>
        <time>2026-07-07T07:42:45Z</time>
      </trkpt>
      <trkpt lat="42.97219" lon="0.33283">
        <ele>1755.3</ele>
        <time>2026-07-07T07:42:46Z</time>
      </trkpt>
      <trkpt lat="42.97219" lon="0.33284">
        <ele>1755.3</ele>
        <time>2026-07-07T07:42:46Z</time>
      </trkpt>
      <trkpt lat="42.97219" lon="0.33285">
        <ele>1755.3</ele>
        <time>2026-07-07T07:42:47Z</time>
      </trkpt>
      <trkpt lat="42.97219" lon="0.33285">
        <ele>1755.3</ele>
        <time>2026-07-07T07:42:48Z</time>
      </trkpt>
      <trkpt lat="42.97219" lon="0.33286">
        <ele>1755.3</ele>
        <time>2026-07-07T07:42:48Z</time>
      </trkpt>
      <trkpt lat="42.9722" lon="0.33287">
        <ele>1755.3</ele>
        <time>2026-07-07T07:42:49Z</time>
      </trkpt>
      <trkpt lat="42.9722" lon="0.33287">
        <ele>1756.3</ele>
        <time>2026-07-07T07:42:50Z</time>
      </trkpt>
      <trkpt lat="42.9722" lon="0.33288">
        <ele>1756.3</ele>
        <time>2026-07-07T07:42:50Z</time>
      </trkpt>
      <trkpt lat="42.9722" lon="0.33289">
        <ele>1756.3</ele>
        <time>2026-07-07T07:42:51Z</time>
      </trkpt>
      <trkpt lat="42.9722" lon="0.3329">
        <ele>1756.3</ele>
        <time>2026-07-07T07:42:52Z</time>
      </trkpt>
      <trkpt lat="42.9722" lon="0.3329">
        <ele>1756.3</ele>
        <time>2026-07-07T07:42:52Z</time>
      </trkpt>
      <trkpt lat="42.9722" lon="0.33291">
        <ele>1756.3</ele>
        <time>2026-07-07T07:42:53Z</time>
      </trkpt>
      <trkpt lat="42.9722" lon="0.33292">
        <ele>1756.3</ele>
        <time>2026-07-07T07:42:54Z</time>
      </trkpt>
      <trkpt lat="42.9722" lon="0.33293">
        <ele>1757.3</ele>
        <time>2026-07-07T07:42:55Z</time>
      </trkpt>
      <trkpt lat="42.9722" lon="0.33294">
        <ele>1757.3</ele>
        <time>2026-07-07T07:42:55Z</time>
      </trkpt>
      <trkpt lat="42.97221" lon="0.33295">
        <ele>1757.3</ele>
        <time>2026-07-07T07:42:56Z</time>
      </trkpt>
      <trkpt lat="42.97221" lon="0.33295">
        <ele>1757.3</ele>
        <time>2026-07-07T07:42:57Z</time>
      </trkpt>
      <trkpt lat="42.97221" lon="0.33296">
        <ele>1757.3</ele>
        <time>2026-07-07T07:42:58Z</time>
      </trkpt>
      <trkpt lat="42.97221" lon="0.33297">
        <ele>1757.3</ele>
        <time>2026-07-07T07:42:58Z</time>
      </trkpt>
      <trkpt lat="42.97222" lon="0.33298">
        <ele>1757.3</ele>
        <time>2026-07-07T07:42:59Z</time>
      </trkpt>
      <trkpt lat="42.97222" lon="0.33298">
        <ele>1758.3</ele>
        <time>2026-07-07T07:43:00Z</time>
      </trkpt>
      <trkpt lat="42.97222" lon="0.33298">
        <ele>1758.3</ele>
        <time>2026-07-07T07:43:00Z</time>
      </trkpt>
      <trkpt lat="42.97223" lon="0.33299">
        <ele>1758.3</ele>
        <time>2026-07-07T07:43:01Z</time>
      </trkpt>
      <trkpt lat="42.97223" lon="0.33299">
        <ele>1758.3</ele>
        <time>2026-07-07T07:43:02Z</time>
      </trkpt>
      <trkpt lat="42.97223" lon="0.333">
        <ele>1758.3</ele>
        <time>2026-07-07T07:43:03Z</time>
      </trkpt>
      <trkpt lat="42.97223" lon="0.333">
        <ele>1758.3</ele>
        <time>2026-07-07T07:43:04Z</time>
      </trkpt>
      <trkpt lat="42.97223" lon="0.33301">
        <ele>1758.3</ele>
        <time>2026-07-07T07:43:04Z</time>
      </trkpt>
      <trkpt lat="42.97223" lon="0.33302">
        <ele>1758.3</ele>
        <time>2026-07-07T07:43:05Z</time>
      </trkpt>
      <trkpt lat="42.97223" lon="0.33303">
        <ele>1758.3</ele>
        <time>2026-07-07T07:43:06Z</time>
      </trkpt>
      <trkpt lat="42.97223" lon="0.33304">
        <ele>1759.3</ele>
        <time>2026-07-07T07:43:06Z</time>
      </trkpt>
      <trkpt lat="42.97223" lon="0.33304">
        <ele>1759.3</ele>
        <time>2026-07-07T07:43:07Z</time>
      </trkpt>
      <trkpt lat="42.97223" lon="0.33305">
        <ele>1759.3</ele>
        <time>2026-07-07T07:43:08Z</time>
      </trkpt>
      <trkpt lat="42.97223" lon="0.33306">
        <ele>1759.3</ele>
        <time>2026-07-07T07:43:09Z</time>
      </trkpt>
      <trkpt lat="42.97222" lon="0.33307">
        <ele>1759.3</ele>
        <time>2026-07-07T07:43:09Z</time>
      </trkpt>
      <trkpt lat="42.97222" lon="0.33308">
        <ele>1759.3</ele>
        <time>2026-07-07T07:43:10Z</time>
      </trkpt>
      <trkpt lat="42.97223" lon="0.33309">
        <ele>1760.3</ele>
        <time>2026-07-07T07:43:11Z</time>
      </trkpt>
      <trkpt lat="42.97223" lon="0.3331">
        <ele>1760.3</ele>
        <time>2026-07-07T07:43:12Z</time>
      </trkpt>
      <trkpt lat="42.97223" lon="0.3331">
        <ele>1760.3</ele>
        <time>2026-07-07T07:43:13Z</time>
      </trkpt>
      <trkpt lat="42.97223" lon="0.3331">
        <ele>1760.3</ele>
        <time>2026-07-07T07:43:13Z</time>
      </trkpt>
      <trkpt lat="42.97223" lon="0.33311">
        <ele>1760.3</ele>
        <time>2026-07-07T07:43:14Z</time>
      </trkpt>
      <trkpt lat="42.97223" lon="0.33311">
        <ele>1760.3</ele>
        <time>2026-07-07T07:43:15Z</time>
      </trkpt>
      <trkpt lat="42.97223" lon="0.33312">
        <ele>1760.3</ele>
        <time>2026-07-07T07:43:16Z</time>
      </trkpt>
      <trkpt lat="42.97224" lon="0.33312">
        <ele>1761.3</ele>
        <time>2026-07-07T07:43:17Z</time>
      </trkpt>
      <trkpt lat="42.97224" lon="0.33313">
        <ele>1761.3</ele>
        <time>2026-07-07T07:43:18Z</time>
      </trkpt>
      <trkpt lat="42.97225" lon="0.33313">
        <ele>1761.3</ele>
        <time>2026-07-07T07:43:18Z</time>
      </trkpt>
      <trkpt lat="42.97226" lon="0.33314">
        <ele>1761.3</ele>
        <time>2026-07-07T07:43:19Z</time>
      </trkpt>
      <trkpt lat="42.97227" lon="0.33314">
        <ele>1761.3</ele>
        <time>2026-07-07T07:43:20Z</time>
      </trkpt>
      <trkpt lat="42.97227" lon="0.33314">
        <ele>1761.3</ele>
        <time>2026-07-07T07:43:21Z</time>
      </trkpt>
      <trkpt lat="42.97228" lon="0.33315">
        <ele>1760.3</ele>
        <time>2026-07-07T07:43:22Z</time>
      </trkpt>
      <trkpt lat="42.97228" lon="0.33315">
        <ele>1761.3</ele>
        <time>2026-07-07T07:43:23Z</time>
      </trkpt>
      <trkpt lat="42.97229" lon="0.33315">
        <ele>1761.3</ele>
        <time>2026-07-07T07:43:23Z</time>
      </trkpt>
      <trkpt lat="42.97229" lon="0.33315">
        <ele>1761.3</ele>
        <time>2026-07-07T07:43:24Z</time>
      </trkpt>
      <trkpt lat="42.97229" lon="0.33316">
        <ele>1761.3</ele>
        <time>2026-07-07T07:43:24Z</time>
      </trkpt>
      <trkpt lat="42.9723" lon="0.33316">
        <ele>1761.3</ele>
        <time>2026-07-07T07:43:25Z</time>
      </trkpt>
      <trkpt lat="42.9723" lon="0.33317">
        <ele>1760.3</ele>
        <time>2026-07-07T07:43:26Z</time>
      </trkpt>
      <trkpt lat="42.9723" lon="0.33318">
        <ele>1760.3</ele>
        <time>2026-07-07T07:43:27Z</time>
      </trkpt>
      <trkpt lat="42.97231" lon="0.33318">
        <ele>1760.3</ele>
        <time>2026-07-07T07:43:28Z</time>
      </trkpt>
      <trkpt lat="42.97231" lon="0.33319">
        <ele>1760.3</ele>
        <time>2026-07-07T07:43:29Z</time>
      </trkpt>
      <trkpt lat="42.9723" lon="0.33319">
        <ele>1760.3</ele>
        <time>2026-07-07T07:43:30Z</time>
      </trkpt>
      <trkpt lat="42.9723" lon="0.3332">
        <ele>1760.3</ele>
        <time>2026-07-07T07:43:31Z</time>
      </trkpt>
      <trkpt lat="42.9723" lon="0.33321">
        <ele>1760.3</ele>
        <time>2026-07-07T07:43:32Z</time>
      </trkpt>
      <trkpt lat="42.9723" lon="0.33321">
        <ele>1760.3</ele>
        <time>2026-07-07T07:43:33Z</time>
      </trkpt>
      <trkpt lat="42.97229" lon="0.33321">
        <ele>1761.3</ele>
        <time>2026-07-07T07:43:34Z</time>
      </trkpt>
      <trkpt lat="42.97229" lon="0.33322">
        <ele>1761.3</ele>
        <time>2026-07-07T07:43:35Z</time>
      </trkpt>
      <trkpt lat="42.97229" lon="0.33322">
        <ele>1761.3</ele>
        <time>2026-07-07T07:43:36Z</time>
      </trkpt>
      <trkpt lat="42.97229" lon="0.33323">
        <ele>1761.3</ele>
        <time>2026-07-07T07:43:37Z</time>
      </trkpt>
      <trkpt lat="42.97229" lon="0.33323">
        <ele>1761.3</ele>
        <time>2026-07-07T07:43:38Z</time>
      </trkpt>
      <trkpt lat="42.97229" lon="0.33323">
        <ele>1762.3</ele>
        <time>2026-07-07T07:43:39Z</time>
      </trkpt>
      <trkpt lat="42.97229" lon="0.33324">
        <ele>1763.3</ele>
        <time>2026-07-07T07:43:40Z</time>
      </trkpt>
      <trkpt lat="42.97229" lon="0.33324">
        <ele>1763.3</ele>
        <time>2026-07-07T07:43:41Z</time>
      </trkpt>
      <trkpt lat="42.97229" lon="0.33324">
        <ele>1763.3</ele>
        <time>2026-07-07T07:43:41Z</time>
      </trkpt>
      <trkpt lat="42.97229" lon="0.33325">
        <ele>1763.3</ele>
        <time>2026-07-07T07:43:42Z</time>
      </trkpt>
      <trkpt lat="42.97229" lon="0.33326">
        <ele>1763.3</ele>
        <time>2026-07-07T07:43:43Z</time>
      </trkpt>
      <trkpt lat="42.97229" lon="0.33326">
        <ele>1763.3</ele>
        <time>2026-07-07T07:43:44Z</time>
      </trkpt>
      <trkpt lat="42.97229" lon="0.33327">
        <ele>1764.3</ele>
        <time>2026-07-07T07:43:45Z</time>
      </trkpt>
      <trkpt lat="42.97229" lon="0.33328">
        <ele>1764.3</ele>
        <time>2026-07-07T07:43:46Z</time>
      </trkpt>
      <trkpt lat="42.97229" lon="0.33329">
        <ele>1764.3</ele>
        <time>2026-07-07T07:43:47Z</time>
      </trkpt>
      <trkpt lat="42.97229" lon="0.33329">
        <ele>1764.3</ele>
        <time>2026-07-07T07:43:47Z</time>
      </trkpt>
      <trkpt lat="42.97229" lon="0.33329">
        <ele>1764.3</ele>
        <time>2026-07-07T07:43:48Z</time>
      </trkpt>
      <trkpt lat="42.97229" lon="0.33329">
        <ele>1764.3</ele>
        <time>2026-07-07T07:43:48Z</time>
      </trkpt>
      <trkpt lat="42.97229" lon="0.3333">
        <ele>1765.3</ele>
        <time>2026-07-07T07:43:49Z</time>
      </trkpt>
      <trkpt lat="42.9723" lon="0.3333">
        <ele>1765.3</ele>
        <time>2026-07-07T07:43:50Z</time>
      </trkpt>
      <trkpt lat="42.9723" lon="0.33331">
        <ele>1766.3</ele>
        <time>2026-07-07T07:43:51Z</time>
      </trkpt>
      <trkpt lat="42.9723" lon="0.33332">
        <ele>1767.3</ele>
        <time>2026-07-07T07:43:52Z</time>
      </trkpt>
      <trkpt lat="42.9723" lon="0.33332">
        <ele>1767.3</ele>
        <time>2026-07-07T07:43:53Z</time>
      </trkpt>
      <trkpt lat="42.9723" lon="0.33333">
        <ele>1767.3</ele>
        <time>2026-07-07T07:43:54Z</time>
      </trkpt>
      <trkpt lat="42.97231" lon="0.33334">
        <ele>1767.3</ele>
        <time>2026-07-07T07:43:55Z</time>
      </trkpt>
      <trkpt lat="42.97231" lon="0.33334">
        <ele>1768.3</ele>
        <time>2026-07-07T07:43:56Z</time>
      </trkpt>
      <trkpt lat="42.97231" lon="0.33335">
        <ele>1767.3</ele>
        <time>2026-07-07T07:43:56Z</time>
      </trkpt>
      <trkpt lat="42.97231" lon="0.33335">
        <ele>1767.3</ele>
        <time>2026-07-07T07:43:57Z</time>
      </trkpt>
      <trkpt lat="42.9723" lon="0.33336">
        <ele>1768.3</ele>
        <time>2026-07-07T07:43:57Z</time>
      </trkpt>
      <trkpt lat="42.9723" lon="0.33337">
        <ele>1767.3</ele>
        <time>2026-07-07T07:43:58Z</time>
      </trkpt>
      <trkpt lat="42.9723" lon="0.33338">
        <ele>1767.3</ele>
        <time>2026-07-07T07:43:59Z</time>
      </trkpt>
      <trkpt lat="42.9723" lon="0.33339">
        <ele>1767.3</ele>
        <time>2026-07-07T07:44:00Z</time>
      </trkpt>
      <trkpt lat="42.9723" lon="0.3334">
        <ele>1767.3</ele>
        <time>2026-07-07T07:44:01Z</time>
      </trkpt>
      <trkpt lat="42.9723" lon="0.33341">
        <ele>1768.3</ele>
        <time>2026-07-07T07:44:02Z</time>
      </trkpt>
      <trkpt lat="42.9723" lon="0.33341">
        <ele>1768.3</ele>
        <time>2026-07-07T07:44:03Z</time>
      </trkpt>
      <trkpt lat="42.97231" lon="0.33342">
        <ele>1768.3</ele>
        <time>2026-07-07T07:44:04Z</time>
      </trkpt>
      <trkpt lat="42.97231" lon="0.33343">
        <ele>1768.3</ele>
        <time>2026-07-07T07:44:05Z</time>
      </trkpt>
      <trkpt lat="42.97231" lon="0.33344">
        <ele>1768.3</ele>
        <time>2026-07-07T07:44:05Z</time>
      </trkpt>
      <trkpt lat="42.97231" lon="0.33344">
        <ele>1768.3</ele>
        <time>2026-07-07T07:44:06Z</time>
      </trkpt>
      <trkpt lat="42.97231" lon="0.33344">
        <ele>1768.3</ele>
        <time>2026-07-07T07:44:06Z</time>
      </trkpt>
      <trkpt lat="42.97232" lon="0.33345">
        <ele>1768.3</ele>
        <time>2026-07-07T07:44:07Z</time>
      </trkpt>
      <trkpt lat="42.97232" lon="0.33346">
        <ele>1767.3</ele>
        <time>2026-07-07T07:44:08Z</time>
      </trkpt>
      <trkpt lat="42.97233" lon="0.33346">
        <ele>1767.3</ele>
        <time>2026-07-07T07:44:09Z</time>
      </trkpt>
      <trkpt lat="42.97234" lon="0.33347">
        <ele>1767.3</ele>
        <time>2026-07-07T07:44:10Z</time>
      </trkpt>
      <trkpt lat="42.97235" lon="0.33347">
        <ele>1767.3</ele>
        <time>2026-07-07T07:44:11Z</time>
      </trkpt>
      <trkpt lat="42.97235" lon="0.33348">
        <ele>1767.3</ele>
        <time>2026-07-07T07:44:12Z</time>
      </trkpt>
      <trkpt lat="42.97235" lon="0.33348">
        <ele>1768.3</ele>
        <time>2026-07-07T07:44:13Z</time>
      </trkpt>
      <trkpt lat="42.97235" lon="0.33349">
        <ele>1768.3</ele>
        <time>2026-07-07T07:44:13Z</time>
      </trkpt>
      <trkpt lat="42.97235" lon="0.3335">
        <ele>1768.3</ele>
        <time>2026-07-07T07:44:14Z</time>
      </trkpt>
      <trkpt lat="42.97235" lon="0.33351">
        <ele>1768.3</ele>
        <time>2026-07-07T07:44:15Z</time>
      </trkpt>
      <trkpt lat="42.97235" lon="0.33352">
        <ele>1769.3</ele>
        <time>2026-07-07T07:44:16Z</time>
      </trkpt>
      <trkpt lat="42.97235" lon="0.33353">
        <ele>1770.3</ele>
        <time>2026-07-07T07:44:17Z</time>
      </trkpt>
      <trkpt lat="42.97235" lon="0.33354">
        <ele>1770.3</ele>
        <time>2026-07-07T07:44:18Z</time>
      </trkpt>
      <trkpt lat="42.97236" lon="0.33354">
        <ele>1770.3</ele>
        <time>2026-07-07T07:44:19Z</time>
      </trkpt>
      <trkpt lat="42.97236" lon="0.33355">
        <ele>1770.3</ele>
        <time>2026-07-07T07:44:20Z</time>
      </trkpt>
      <trkpt lat="42.97236" lon="0.33355">
        <ele>1770.3</ele>
        <time>2026-07-07T07:44:21Z</time>
      </trkpt>
      <trkpt lat="42.97236" lon="0.33355">
        <ele>1770.3</ele>
        <time>2026-07-07T07:44:22Z</time>
      </trkpt>
      <trkpt lat="42.97236" lon="0.33355">
        <ele>1769.3</ele>
        <time>2026-07-07T07:44:23Z</time>
      </trkpt>
      <trkpt lat="42.97236" lon="0.33355">
        <ele>1769.3</ele>
        <time>2026-07-07T07:44:23Z</time>
      </trkpt>
      <trkpt lat="42.97236" lon="0.33356">
        <ele>1770.3</ele>
        <time>2026-07-07T07:44:24Z</time>
      </trkpt>
      <trkpt lat="42.97236" lon="0.33357">
        <ele>1770.3</ele>
        <time>2026-07-07T07:44:25Z</time>
      </trkpt>
      <trkpt lat="42.97236" lon="0.33357">
        <ele>1770.3</ele>
        <time>2026-07-07T07:44:26Z</time>
      </trkpt>
      <trkpt lat="42.97236" lon="0.33357">
        <ele>1770.3</ele>
        <time>2026-07-07T07:44:27Z</time>
      </trkpt>
      <trkpt lat="42.97236" lon="0.33358">
        <ele>1770.3</ele>
        <time>2026-07-07T07:44:27Z</time>
      </trkpt>
      <trkpt lat="42.97236" lon="0.33358">
        <ele>1770.3</ele>
        <time>2026-07-07T07:44:28Z</time>
      </trkpt>
      <trkpt lat="42.97236" lon="0.33358">
        <ele>1770.3</ele>
        <time>2026-07-07T07:44:29Z</time>
      </trkpt>
      <trkpt lat="42.97236" lon="0.33358">
        <ele>1770.3</ele>
        <time>2026-07-07T07:44:30Z</time>
      </trkpt>
      <trkpt lat="42.97236" lon="0.33359">
        <ele>1770.3</ele>
        <time>2026-07-07T07:44:31Z</time>
      </trkpt>
      <trkpt lat="42.97236" lon="0.3336">
        <ele>1770.3</ele>
        <time>2026-07-07T07:44:32Z</time>
      </trkpt>
      <trkpt lat="42.97236" lon="0.33362">
        <ele>1770.3</ele>
        <time>2026-07-07T07:44:33Z</time>
      </trkpt>
      <trkpt lat="42.97236" lon="0.33363">
        <ele>1771.3</ele>
        <time>2026-07-07T07:44:34Z</time>
      </trkpt>
      <trkpt lat="42.97236" lon="0.33363">
        <ele>1771.3</ele>
        <time>2026-07-07T07:44:35Z</time>
      </trkpt>
      <trkpt lat="42.97236" lon="0.33364">
        <ele>1771.3</ele>
        <time>2026-07-07T07:44:35Z</time>
      </trkpt>
      <trkpt lat="42.97236" lon="0.33365">
        <ele>1771.3</ele>
        <time>2026-07-07T07:44:36Z</time>
      </trkpt>
      <trkpt lat="42.97236" lon="0.33366">
        <ele>1771.3</ele>
        <time>2026-07-07T07:44:37Z</time>
      </trkpt>
      <trkpt lat="42.97236" lon="0.33366">
        <ele>1771.3</ele>
        <time>2026-07-07T07:44:38Z</time>
      </trkpt>
      <trkpt lat="42.97236" lon="0.33367">
        <ele>1771.3</ele>
        <time>2026-07-07T07:44:39Z</time>
      </trkpt>
      <trkpt lat="42.97236" lon="0.33368">
        <ele>1771.3</ele>
        <time>2026-07-07T07:44:40Z</time>
      </trkpt>
      <trkpt lat="42.97236" lon="0.33368">
        <ele>1771.3</ele>
        <time>2026-07-07T07:44:41Z</time>
      </trkpt>
      <trkpt lat="42.97237" lon="0.33369">
        <ele>1772.3</ele>
        <time>2026-07-07T07:44:42Z</time>
      </trkpt>
      <trkpt lat="42.97237" lon="0.3337">
        <ele>1772.3</ele>
        <time>2026-07-07T07:44:43Z</time>
      </trkpt>
      <trkpt lat="42.97237" lon="0.33371">
        <ele>1772.3</ele>
        <time>2026-07-07T07:44:43Z</time>
      </trkpt>
      <trkpt lat="42.97237" lon="0.33371">
        <ele>1772.3</ele>
        <time>2026-07-07T07:44:44Z</time>
      </trkpt>
      <trkpt lat="42.97237" lon="0.33372">
        <ele>1772.3</ele>
        <time>2026-07-07T07:44:45Z</time>
      </trkpt>
      <trkpt lat="42.97237" lon="0.33372">
        <ele>1772.3</ele>
        <time>2026-07-07T07:44:46Z</time>
      </trkpt>
      <trkpt lat="42.97237" lon="0.33373">
        <ele>1772.3</ele>
        <time>2026-07-07T07:44:47Z</time>
      </trkpt>
      <trkpt lat="42.97238" lon="0.33374">
        <ele>1772.3</ele>
        <time>2026-07-07T07:44:48Z</time>
      </trkpt>
      <trkpt lat="42.97238" lon="0.33375">
        <ele>1772.3</ele>
        <time>2026-07-07T07:44:49Z</time>
      </trkpt>
      <trkpt lat="42.97238" lon="0.33376">
        <ele>1773.3</ele>
        <time>2026-07-07T07:44:50Z</time>
      </trkpt>
      <trkpt lat="42.97238" lon="0.33378">
        <ele>1773.3</ele>
        <time>2026-07-07T07:44:51Z</time>
      </trkpt>
      <trkpt lat="42.97238" lon="0.33379">
        <ele>1773.3</ele>
        <time>2026-07-07T07:44:52Z</time>
      </trkpt>
      <trkpt lat="42.97238" lon="0.3338">
        <ele>1773.3</ele>
        <time>2026-07-07T07:44:53Z</time>
      </trkpt>
      <trkpt lat="42.97238" lon="0.33381">
        <ele>1773.3</ele>
        <time>2026-07-07T07:44:54Z</time>
      </trkpt>
      <trkpt lat="42.97238" lon="0.33381">
        <ele>1774.3</ele>
        <time>2026-07-07T07:44:55Z</time>
      </trkpt>
      <trkpt lat="42.97238" lon="0.33382">
        <ele>1773.3</ele>
        <time>2026-07-07T07:44:55Z</time>
      </trkpt>
      <trkpt lat="42.97238" lon="0.33382">
        <ele>1773.3</ele>
        <time>2026-07-07T07:44:56Z</time>
      </trkpt>
      <trkpt lat="42.97238" lon="0.33383">
        <ele>1774.3</ele>
        <time>2026-07-07T07:44:57Z</time>
      </trkpt>
      <trkpt lat="42.97238" lon="0.33384">
        <ele>1774.3</ele>
        <time>2026-07-07T07:44:58Z</time>
      </trkpt>
      <trkpt lat="42.97238" lon="0.33385">
        <ele>1774.3</ele>
        <time>2026-07-07T07:44:59Z</time>
      </trkpt>
      <trkpt lat="42.97238" lon="0.33386">
        <ele>1774.3</ele>
        <time>2026-07-07T07:45:00Z</time>
      </trkpt>
      <trkpt lat="42.97238" lon="0.33387">
        <ele>1774.3</ele>
        <time>2026-07-07T07:45:00Z</time>
      </trkpt>
      <trkpt lat="42.97238" lon="0.33388">
        <ele>1774.3</ele>
        <time>2026-07-07T07:45:01Z</time>
      </trkpt>
      <trkpt lat="42.97239" lon="0.33389">
        <ele>1775.3</ele>
        <time>2026-07-07T07:45:02Z</time>
      </trkpt>
      <trkpt lat="42.97239" lon="0.3339">
        <ele>1775.3</ele>
        <time>2026-07-07T07:45:03Z</time>
      </trkpt>
      <trkpt lat="42.97239" lon="0.33391">
        <ele>1775.3</ele>
        <time>2026-07-07T07:45:04Z</time>
      </trkpt>
      <trkpt lat="42.97239" lon="0.33392">
        <ele>1776.3</ele>
        <time>2026-07-07T07:45:05Z</time>
      </trkpt>
      <trkpt lat="42.97239" lon="0.33393">
        <ele>1776.3</ele>
        <time>2026-07-07T07:45:05Z</time>
      </trkpt>
      <trkpt lat="42.97239" lon="0.33394">
        <ele>1776.3</ele>
        <time>2026-07-07T07:45:06Z</time>
      </trkpt>
      <trkpt lat="42.97239" lon="0.33395">
        <ele>1776.3</ele>
        <time>2026-07-07T07:45:07Z</time>
      </trkpt>
      <trkpt lat="42.9724" lon="0.33396">
        <ele>1776.3</ele>
        <time>2026-07-07T07:45:08Z</time>
      </trkpt>
      <trkpt lat="42.9724" lon="0.33397">
        <ele>1776.3</ele>
        <time>2026-07-07T07:45:09Z</time>
      </trkpt>
      <trkpt lat="42.9724" lon="0.33398">
        <ele>1776.3</ele>
        <time>2026-07-07T07:45:09Z</time>
      </trkpt>
      <trkpt lat="42.9724" lon="0.33399">
        <ele>1776.3</ele>
        <time>2026-07-07T07:45:10Z</time>
      </trkpt>
      <trkpt lat="42.9724" lon="0.334">
        <ele>1776.3</ele>
        <time>2026-07-07T07:45:11Z</time>
      </trkpt>
      <trkpt lat="42.9724" lon="0.33401">
        <ele>1777.3</ele>
        <time>2026-07-07T07:45:12Z</time>
      </trkpt>
      <trkpt lat="42.9724" lon="0.33402">
        <ele>1777.3</ele>
        <time>2026-07-07T07:45:12Z</time>
      </trkpt>
      <trkpt lat="42.97241" lon="0.33403">
        <ele>1777.3</ele>
        <time>2026-07-07T07:45:13Z</time>
      </trkpt>
      <trkpt lat="42.97241" lon="0.33403">
        <ele>1778.3</ele>
        <time>2026-07-07T07:45:14Z</time>
      </trkpt>
      <trkpt lat="42.97241" lon="0.33404">
        <ele>1778.3</ele>
        <time>2026-07-07T07:45:15Z</time>
      </trkpt>
      <trkpt lat="42.97241" lon="0.33405">
        <ele>1778.3</ele>
        <time>2026-07-07T07:45:15Z</time>
      </trkpt>
      <trkpt lat="42.97241" lon="0.33406">
        <ele>1778.3</ele>
        <time>2026-07-07T07:45:16Z</time>
      </trkpt>
      <trkpt lat="42.97241" lon="0.33406">
        <ele>1778.3</ele>
        <time>2026-07-07T07:45:17Z</time>
      </trkpt>
      <trkpt lat="42.97241" lon="0.33407">
        <ele>1778.3</ele>
        <time>2026-07-07T07:45:17Z</time>
      </trkpt>
      <trkpt lat="42.97241" lon="0.33408">
        <ele>1778.3</ele>
        <time>2026-07-07T07:45:18Z</time>
      </trkpt>
      <trkpt lat="42.97241" lon="0.33408">
        <ele>1778.3</ele>
        <time>2026-07-07T07:45:19Z</time>
      </trkpt>
      <trkpt lat="42.97241" lon="0.33409">
        <ele>1778.3</ele>
        <time>2026-07-07T07:45:20Z</time>
      </trkpt>
      <trkpt lat="42.97241" lon="0.3341">
        <ele>1778.3</ele>
        <time>2026-07-07T07:45:20Z</time>
      </trkpt>
      <trkpt lat="42.97241" lon="0.3341">
        <ele>1778.3</ele>
        <time>2026-07-07T07:45:21Z</time>
      </trkpt>
      <trkpt lat="42.97241" lon="0.33411">
        <ele>1778.3</ele>
        <time>2026-07-07T07:45:22Z</time>
      </trkpt>
      <trkpt lat="42.97242" lon="0.33412">
        <ele>1778.3</ele>
        <time>2026-07-07T07:45:23Z</time>
      </trkpt>
      <trkpt lat="42.97242" lon="0.33412">
        <ele>1779.3</ele>
        <time>2026-07-07T07:45:23Z</time>
      </trkpt>
      <trkpt lat="42.97242" lon="0.33413">
        <ele>1779.3</ele>
        <time>2026-07-07T07:45:24Z</time>
      </trkpt>
      <trkpt lat="42.97242" lon="0.33414">
        <ele>1779.3</ele>
        <time>2026-07-07T07:45:25Z</time>
      </trkpt>
      <trkpt lat="42.97242" lon="0.33415">
        <ele>1779.3</ele>
        <time>2026-07-07T07:45:25Z</time>
      </trkpt>
      <trkpt lat="42.97243" lon="0.33416">
        <ele>1779.3</ele>
        <time>2026-07-07T07:45:26Z</time>
      </trkpt>
      <trkpt lat="42.97243" lon="0.33417">
        <ele>1779.3</ele>
        <time>2026-07-07T07:45:27Z</time>
      </trkpt>
      <trkpt lat="42.97243" lon="0.33418">
        <ele>1779.3</ele>
        <time>2026-07-07T07:45:28Z</time>
      </trkpt>
      <trkpt lat="42.97243" lon="0.33418">
        <ele>1779.3</ele>
        <time>2026-07-07T07:45:28Z</time>
      </trkpt>
      <trkpt lat="42.97244" lon="0.33419">
        <ele>1779.3</ele>
        <time>2026-07-07T07:45:29Z</time>
      </trkpt>
      <trkpt lat="42.97244" lon="0.3342">
        <ele>1779.3</ele>
        <time>2026-07-07T07:45:30Z</time>
      </trkpt>
      <trkpt lat="42.97243" lon="0.33421">
        <ele>1779.3</ele>
        <time>2026-07-07T07:45:31Z</time>
      </trkpt>
      <trkpt lat="42.97243" lon="0.33421">
        <ele>1780.3</ele>
        <time>2026-07-07T07:45:32Z</time>
      </trkpt>
      <trkpt lat="42.97243" lon="0.33422">
        <ele>1780.3</ele>
        <time>2026-07-07T07:45:32Z</time>
      </trkpt>
      <trkpt lat="42.97243" lon="0.33423">
        <ele>1780.3</ele>
        <time>2026-07-07T07:45:33Z</time>
      </trkpt>
      <trkpt lat="42.97242" lon="0.33424">
        <ele>1780.3</ele>
        <time>2026-07-07T07:45:34Z</time>
      </trkpt>
      <trkpt lat="42.97242" lon="0.33425">
        <ele>1780.3</ele>
        <time>2026-07-07T07:45:34Z</time>
      </trkpt>
      <trkpt lat="42.97242" lon="0.33425">
        <ele>1779.3</ele>
        <time>2026-07-07T07:45:35Z</time>
      </trkpt>
      <trkpt lat="42.97242" lon="0.33426">
        <ele>1780.3</ele>
        <time>2026-07-07T07:45:36Z</time>
      </trkpt>
      <trkpt lat="42.97242" lon="0.33427">
        <ele>1780.3</ele>
        <time>2026-07-07T07:45:36Z</time>
      </trkpt>
      <trkpt lat="42.97241" lon="0.33428">
        <ele>1780.3</ele>
        <time>2026-07-07T07:45:37Z</time>
      </trkpt>
      <trkpt lat="42.97241" lon="0.33429">
        <ele>1780.3</ele>
        <time>2026-07-07T07:45:38Z</time>
      </trkpt>
      <trkpt lat="42.97241" lon="0.3343">
        <ele>1780.3</ele>
        <time>2026-07-07T07:45:39Z</time>
      </trkpt>
      <trkpt lat="42.97241" lon="0.33431">
        <ele>1780.3</ele>
        <time>2026-07-07T07:45:39Z</time>
      </trkpt>
      <trkpt lat="42.97241" lon="0.33432">
        <ele>1780.3</ele>
        <time>2026-07-07T07:45:40Z</time>
      </trkpt>
      <trkpt lat="42.97241" lon="0.33433">
        <ele>1780.3</ele>
        <time>2026-07-07T07:45:41Z</time>
      </trkpt>
      <trkpt lat="42.97241" lon="0.33434">
        <ele>1780.3</ele>
        <time>2026-07-07T07:45:42Z</time>
      </trkpt>
      <trkpt lat="42.97241" lon="0.33435">
        <ele>1780.3</ele>
        <time>2026-07-07T07:45:42Z</time>
      </trkpt>
      <trkpt lat="42.97241" lon="0.33436">
        <ele>1781.3</ele>
        <time>2026-07-07T07:45:43Z</time>
      </trkpt>
      <trkpt lat="42.97241" lon="0.33437">
        <ele>1780.3</ele>
        <time>2026-07-07T07:45:44Z</time>
      </trkpt>
      <trkpt lat="42.97241" lon="0.33438">
        <ele>1780.3</ele>
        <time>2026-07-07T07:45:44Z</time>
      </trkpt>
      <trkpt lat="42.97241" lon="0.33439">
        <ele>1780.3</ele>
        <time>2026-07-07T07:45:45Z</time>
      </trkpt>
      <trkpt lat="42.97241" lon="0.3344">
        <ele>1780.3</ele>
        <time>2026-07-07T07:45:46Z</time>
      </trkpt>
      <trkpt lat="42.97241" lon="0.33441">
        <ele>1780.3</ele>
        <time>2026-07-07T07:45:46Z</time>
      </trkpt>
      <trkpt lat="42.97241" lon="0.33442">
        <ele>1780.3</ele>
        <time>2026-07-07T07:45:47Z</time>
      </trkpt>
      <trkpt lat="42.97241" lon="0.33443">
        <ele>1781.3</ele>
        <time>2026-07-07T07:45:48Z</time>
      </trkpt>
      <trkpt lat="42.97241" lon="0.33443">
        <ele>1781.3</ele>
        <time>2026-07-07T07:45:49Z</time>
      </trkpt>
      <trkpt lat="42.97241" lon="0.33444">
        <ele>1781.3</ele>
        <time>2026-07-07T07:45:49Z</time>
      </trkpt>
      <trkpt lat="42.97242" lon="0.33445">
        <ele>1781.3</ele>
        <time>2026-07-07T07:45:50Z</time>
      </trkpt>
      <trkpt lat="42.97242" lon="0.33446">
        <ele>1781.3</ele>
        <time>2026-07-07T07:45:51Z</time>
      </trkpt>
      <trkpt lat="42.97242" lon="0.33446">
        <ele>1781.3</ele>
        <time>2026-07-07T07:45:51Z</time>
      </trkpt>
      <trkpt lat="42.97242" lon="0.33447">
        <ele>1781.3</ele>
        <time>2026-07-07T07:45:52Z</time>
      </trkpt>
      <trkpt lat="42.97242" lon="0.33448">
        <ele>1781.3</ele>
        <time>2026-07-07T07:45:52Z</time>
      </trkpt>
      <trkpt lat="42.97242" lon="0.33449">
        <ele>1781.3</ele>
        <time>2026-07-07T07:45:53Z</time>
      </trkpt>
      <trkpt lat="42.97242" lon="0.3345">
        <ele>1780.3</ele>
        <time>2026-07-07T07:45:54Z</time>
      </trkpt>
      <trkpt lat="42.97242" lon="0.3345">
        <ele>1781.3</ele>
        <time>2026-07-07T07:45:54Z</time>
      </trkpt>
      <trkpt lat="42.97243" lon="0.33451">
        <ele>1781.3</ele>
        <time>2026-07-07T07:45:55Z</time>
      </trkpt>
      <trkpt lat="42.97243" lon="0.33452">
        <ele>1781.3</ele>
        <time>2026-07-07T07:45:56Z</time>
      </trkpt>
      <trkpt lat="42.97243" lon="0.33453">
        <ele>1781.3</ele>
        <time>2026-07-07T07:45:56Z</time>
      </trkpt>
      <trkpt lat="42.97243" lon="0.33454">
        <ele>1781.3</ele>
        <time>2026-07-07T07:45:57Z</time>
      </trkpt>
      <trkpt lat="42.97243" lon="0.33454">
        <ele>1781.3</ele>
        <time>2026-07-07T07:45:57Z</time>
      </trkpt>
      <trkpt lat="42.97243" lon="0.33455">
        <ele>1781.3</ele>
        <time>2026-07-07T07:45:58Z</time>
      </trkpt>
      <trkpt lat="42.97243" lon="0.33456">
        <ele>1781.3</ele>
        <time>2026-07-07T07:45:59Z</time>
      </trkpt>
      <trkpt lat="42.97244" lon="0.33456">
        <ele>1781.3</ele>
        <time>2026-07-07T07:45:59Z</time>
      </trkpt>
      <trkpt lat="42.97244" lon="0.33457">
        <ele>1781.3</ele>
        <time>2026-07-07T07:46:00Z</time>
      </trkpt>
      <trkpt lat="42.97244" lon="0.33458">
        <ele>1781.3</ele>
        <time>2026-07-07T07:46:01Z</time>
      </trkpt>
      <trkpt lat="42.97244" lon="0.33459">
        <ele>1781.3</ele>
        <time>2026-07-07T07:46:01Z</time>
      </trkpt>
      <trkpt lat="42.97244" lon="0.3346">
        <ele>1781.3</ele>
        <time>2026-07-07T07:46:02Z</time>
      </trkpt>
      <trkpt lat="42.97244" lon="0.33461">
        <ele>1782.3</ele>
        <time>2026-07-07T07:46:03Z</time>
      </trkpt>
      <trkpt lat="42.97244" lon="0.33462">
        <ele>1782.3</ele>
        <time>2026-07-07T07:46:03Z</time>
      </trkpt>
      <trkpt lat="42.97245" lon="0.33462">
        <ele>1781.3</ele>
        <time>2026-07-07T07:46:04Z</time>
      </trkpt>
      <trkpt lat="42.97245" lon="0.33463">
        <ele>1782.3</ele>
        <time>2026-07-07T07:46:04Z</time>
      </trkpt>
      <trkpt lat="42.97245" lon="0.33464">
        <ele>1782.3</ele>
        <time>2026-07-07T07:46:05Z</time>
      </trkpt>
      <trkpt lat="42.97245" lon="0.33465">
        <ele>1782.3</ele>
        <time>2026-07-07T07:46:06Z</time>
      </trkpt>
      <trkpt lat="42.97246" lon="0.33465">
        <ele>1781.3</ele>
        <time>2026-07-07T07:46:06Z</time>
      </trkpt>
      <trkpt lat="42.97246" lon="0.33467">
        <ele>1781.3</ele>
        <time>2026-07-07T07:46:07Z</time>
      </trkpt>
      <trkpt lat="42.97246" lon="0.33467">
        <ele>1781.3</ele>
        <time>2026-07-07T07:46:08Z</time>
      </trkpt>
      <trkpt lat="42.97246" lon="0.33468">
        <ele>1781.3</ele>
        <time>2026-07-07T07:46:08Z</time>
      </trkpt>
      <trkpt lat="42.97246" lon="0.33469">
        <ele>1780.3</ele>
        <time>2026-07-07T07:46:09Z</time>
      </trkpt>
      <trkpt lat="42.97246" lon="0.3347">
        <ele>1780.3</ele>
        <time>2026-07-07T07:46:09Z</time>
      </trkpt>
      <trkpt lat="42.97246" lon="0.33471">
        <ele>1780.3</ele>
        <time>2026-07-07T07:46:10Z</time>
      </trkpt>
      <trkpt lat="42.97247" lon="0.33472">
        <ele>1780.3</ele>
        <time>2026-07-07T07:46:11Z</time>
      </trkpt>
      <trkpt lat="42.97247" lon="0.33472">
        <ele>1781.3</ele>
        <time>2026-07-07T07:46:11Z</time>
      </trkpt>
      <trkpt lat="42.97247" lon="0.33473">
        <ele>1781.3</ele>
        <time>2026-07-07T07:46:12Z</time>
      </trkpt>
      <trkpt lat="42.97248" lon="0.33474">
        <ele>1781.3</ele>
        <time>2026-07-07T07:46:13Z</time>
      </trkpt>
      <trkpt lat="42.97248" lon="0.33474">
        <ele>1781.3</ele>
        <time>2026-07-07T07:46:14Z</time>
      </trkpt>
      <trkpt lat="42.97248" lon="0.33475">
        <ele>1781.3</ele>
        <time>2026-07-07T07:46:14Z</time>
      </trkpt>
      <trkpt lat="42.97248" lon="0.33476">
        <ele>1781.3</ele>
        <time>2026-07-07T07:46:15Z</time>
      </trkpt>
      <trkpt lat="42.97249" lon="0.33476">
        <ele>1781.3</ele>
        <time>2026-07-07T07:46:15Z</time>
      </trkpt>
      <trkpt lat="42.97249" lon="0.33477">
        <ele>1781.3</ele>
        <time>2026-07-07T07:46:16Z</time>
      </trkpt>
      <trkpt lat="42.9725" lon="0.33477">
        <ele>1780.3</ele>
        <time>2026-07-07T07:46:17Z</time>
      </trkpt>
      <trkpt lat="42.9725" lon="0.33477">
        <ele>1779.3</ele>
        <time>2026-07-07T07:46:18Z</time>
      </trkpt>
      <trkpt lat="42.9725" lon="0.33478">
        <ele>1779.3</ele>
        <time>2026-07-07T07:46:19Z</time>
      </trkpt>
      <trkpt lat="42.9725" lon="0.33477">
        <ele>1779.3</ele>
        <time>2026-07-07T07:46:20Z</time>
      </trkpt>
      <trkpt lat="42.9725" lon="0.33477">
        <ele>1779.3</ele>
        <time>2026-07-07T07:46:21Z</time>
      </trkpt>
      <trkpt lat="42.9725" lon="0.33477">
        <ele>1779.3</ele>
        <time>2026-07-07T07:46:22Z</time>
      </trkpt>
      <trkpt lat="42.97249" lon="0.33476">
        <ele>1779.3</ele>
        <time>2026-07-07T07:46:23Z</time>
      </trkpt>
      <trkpt lat="42.97249" lon="0.33476">
        <ele>1779.3</ele>
        <time>2026-07-07T07:46:24Z</time>
      </trkpt>
      <trkpt lat="42.97249" lon="0.33476">
        <ele>1779.3</ele>
        <time>2026-07-07T07:46:25Z</time>
      </trkpt>
      <trkpt lat="42.97249" lon="0.33476">
        <ele>1780.3</ele>
        <time>2026-07-07T07:46:26Z</time>
      </trkpt>
      <trkpt lat="42.97249" lon="0.33476">
        <ele>1780.3</ele>
        <time>2026-07-07T07:46:27Z</time>
      </trkpt>
      <trkpt lat="42.97249" lon="0.33476">
        <ele>1779.3</ele>
        <time>2026-07-07T07:46:28Z</time>
      </trkpt>
      <trkpt lat="42.9725" lon="0.33476">
        <ele>1780.3</ele>
        <time>2026-07-07T07:46:28Z</time>
      </trkpt>
      <trkpt lat="42.9725" lon="0.33476">
        <ele>1780.3</ele>
        <time>2026-07-07T07:46:29Z</time>
      </trkpt>
      <trkpt lat="42.9725" lon="0.33475">
        <ele>1780.3</ele>
        <time>2026-07-07T07:46:30Z</time>
      </trkpt>
      <trkpt lat="42.97251" lon="0.33475">
        <ele>1780.3</ele>
        <time>2026-07-07T07:46:31Z</time>
      </trkpt>
      <trkpt lat="42.97251" lon="0.33474">
        <ele>1779.3</ele>
        <time>2026-07-07T07:46:32Z</time>
      </trkpt>
      <trkpt lat="42.97252" lon="0.33474">
        <ele>1779.3</ele>
        <time>2026-07-07T07:46:33Z</time>
      </trkpt>
      <trkpt lat="42.97252" lon="0.33474">
        <ele>1779.3</ele>
        <time>2026-07-07T07:46:34Z</time>
      </trkpt>
      <trkpt lat="42.97253" lon="0.33474">
        <ele>1779.3</ele>
        <time>2026-07-07T07:46:35Z</time>
      </trkpt>
      <trkpt lat="42.97253" lon="0.33474">
        <ele>1779.3</ele>
        <time>2026-07-07T07:46:36Z</time>
      </trkpt>
      <trkpt lat="42.97253" lon="0.33474">
        <ele>1779.3</ele>
        <time>2026-07-07T07:46:37Z</time>
      </trkpt>
      <trkpt lat="42.97252" lon="0.33474">
        <ele>1779.3</ele>
        <time>2026-07-07T07:46:38Z</time>
      </trkpt>
      <trkpt lat="42.97253" lon="0.33474">
        <ele>1779.3</ele>
        <time>2026-07-07T07:46:39Z</time>
      </trkpt>
      <trkpt lat="42.97253" lon="0.33474">
        <ele>1779.3</ele>
        <time>2026-07-07T07:46:40Z</time>
      </trkpt>
      <trkpt lat="42.97253" lon="0.33474">
        <ele>1779.3</ele>
        <time>2026-07-07T07:46:40Z</time>
      </trkpt>
      <trkpt lat="42.97253" lon="0.33474">
        <ele>1779.3</ele>
        <time>2026-07-07T07:46:41Z</time>
      </trkpt>
      <trkpt lat="42.97253" lon="0.33474">
        <ele>1779.3</ele>
        <time>2026-07-07T07:46:42Z</time>
      </trkpt>
      <trkpt lat="42.97252" lon="0.33474">
        <ele>1780.3</ele>
        <time>2026-07-07T07:46:43Z</time>
      </trkpt>
      <trkpt lat="42.97252" lon="0.33474">
        <ele>1780.3</ele>
        <time>2026-07-07T07:46:44Z</time>
      </trkpt>
      <trkpt lat="42.97252" lon="0.33474">
        <ele>1780.3</ele>
        <time>2026-07-07T07:46:45Z</time>
      </trkpt>
      <trkpt lat="42.97252" lon="0.33474">
        <ele>1780.3</ele>
        <time>2026-07-07T07:46:46Z</time>
      </trkpt>
      <trkpt lat="42.97252" lon="0.33474">
        <ele>1779.3</ele>
        <time>2026-07-07T07:46:47Z</time>
      </trkpt>
      <trkpt lat="42.97252" lon="0.33474">
        <ele>1779.3</ele>
        <time>2026-07-07T07:46:48Z</time>
      </trkpt>
      <trkpt lat="42.97252" lon="0.33474">
        <ele>1780.3</ele>
        <time>2026-07-07T07:46:49Z</time>
      </trkpt>
      <trkpt lat="42.97252" lon="0.33474">
        <ele>1780.3</ele>
        <time>2026-07-07T07:46:50Z</time>
      </trkpt>
      <trkpt lat="42.97252" lon="0.33475">
        <ele>1780.3</ele>
        <time>2026-07-07T07:46:51Z</time>
      </trkpt>
      <trkpt lat="42.97252" lon="0.33475">
        <ele>1780.3</ele>
        <time>2026-07-07T07:46:52Z</time>
      </trkpt>
      <trkpt lat="42.97252" lon="0.33475">
        <ele>1780.3</ele>
        <time>2026-07-07T07:46:53Z</time>
      </trkpt>
      <trkpt lat="42.97252" lon="0.33475">
        <ele>1781.3</ele>
        <time>2026-07-07T07:46:54Z</time>
      </trkpt>
      <trkpt lat="42.97252" lon="0.33475">
        <ele>1781.3</ele>
        <time>2026-07-07T07:46:55Z</time>
      </trkpt>
      <trkpt lat="42.97252" lon="0.33475">
        <ele>1782.3</ele>
        <time>2026-07-07T07:46:56Z</time>
      </trkpt>
      <trkpt lat="42.97252" lon="0.33475">
        <ele>1782.3</ele>
        <time>2026-07-07T07:46:57Z</time>
      </trkpt>
      <trkpt lat="42.97252" lon="0.33475">
        <ele>1781.3</ele>
        <time>2026-07-07T07:46:58Z</time>
      </trkpt>
      <trkpt lat="42.97252" lon="0.33475">
        <ele>1781.3</ele>
        <time>2026-07-07T07:46:59Z</time>
      </trkpt>
      <trkpt lat="42.97252" lon="0.33475">
        <ele>1781.3</ele>
        <time>2026-07-07T07:47:00Z</time>
      </trkpt>
      <trkpt lat="42.97252" lon="0.33475">
        <ele>1781.3</ele>
        <time>2026-07-07T07:47:01Z</time>
      </trkpt>
      <trkpt lat="42.97252" lon="0.33475">
        <ele>1781.3</ele>
        <time>2026-07-07T07:47:02Z</time>
      </trkpt>
      <trkpt lat="42.97252" lon="0.33475">
        <ele>1781.3</ele>
        <time>2026-07-07T07:47:03Z</time>
      </trkpt>
      <trkpt lat="42.97252" lon="0.33475">
        <ele>1780.3</ele>
        <time>2026-07-07T07:47:04Z</time>
      </trkpt>
      <trkpt lat="42.97252" lon="0.33475">
        <ele>1780.3</ele>
        <time>2026-07-07T07:47:05Z</time>
      </trkpt>
      <trkpt lat="42.97252" lon="0.33475">
        <ele>1781.3</ele>
        <time>2026-07-07T07:47:06Z</time>
      </trkpt>
      <trkpt lat="42.97252" lon="0.33475">
        <ele>1781.3</ele>
        <time>2026-07-07T07:47:07Z</time>
      </trkpt>
      <trkpt lat="42.97252" lon="0.33475">
        <ele>1781.3</ele>
        <time>2026-07-07T07:47:08Z</time>
      </trkpt>
      <trkpt lat="42.97252" lon="0.33475">
        <ele>1781.3</ele>
        <time>2026-07-07T07:47:09Z</time>
      </trkpt>
      <trkpt lat="42.97252" lon="0.33475">
        <ele>1781.3</ele>
        <time>2026-07-07T07:47:10Z</time>
      </trkpt>
      <trkpt lat="42.97252" lon="0.33475">
        <ele>1781.3</ele>
        <time>2026-07-07T07:47:11Z</time>
      </trkpt>
      <trkpt lat="42.97252" lon="0.33475">
        <ele>1780.3</ele>
        <time>2026-07-07T07:47:12Z</time>
      </trkpt>
      <trkpt lat="42.97252" lon="0.33475">
        <ele>1780.3</ele>
        <time>2026-07-07T07:47:13Z</time>
      </trkpt>
      <trkpt lat="42.97252" lon="0.33475">
        <ele>1780.3</ele>
        <time>2026-07-07T07:47:14Z</time>
      </trkpt>
      <trkpt lat="42.97252" lon="0.33475">
        <ele>1780.3</ele>
        <time>2026-07-07T07:47:15Z</time>
      </trkpt>
      <trkpt lat="42.97252" lon="0.33475">
        <ele>1780.3</ele>
        <time>2026-07-07T07:47:16Z</time>
      </trkpt>
      <trkpt lat="42.97252" lon="0.33475">
        <ele>1780.3</ele>
        <time>2026-07-07T07:47:17Z</time>
      </trkpt>
      <trkpt lat="42.97252" lon="0.33475">
        <ele>1780.3</ele>
        <time>2026-07-07T07:47:18Z</time>
      </trkpt>
      <trkpt lat="42.97252" lon="0.33475">
        <ele>1780.3</ele>
        <time>2026-07-07T07:47:19Z</time>
      </trkpt>
      <trkpt lat="42.97252" lon="0.33475">
        <ele>1780.3</ele>
        <time>2026-07-07T07:47:20Z</time>
      </trkpt>
      <trkpt lat="42.97252" lon="0.33475">
        <ele>1780.3</ele>
        <time>2026-07-07T07:47:21Z</time>
      </trkpt>
      <trkpt lat="42.97252" lon="0.33475">
        <ele>1780.3</ele>
        <time>2026-07-07T07:47:22Z</time>
      </trkpt>
      <trkpt lat="42.97252" lon="0.33475">
        <ele>1780.3</ele>
        <time>2026-07-07T07:47:23Z</time>
      </trkpt>
      <trkpt lat="42.97252" lon="0.33475">
        <ele>1780.3</ele>
        <time>2026-07-07T07:47:24Z</time>
      </trkpt>
      <trkpt lat="42.97252" lon="0.33475">
        <ele>1780.3</ele>
        <time>2026-07-07T07:47:25Z</time>
      </trkpt>
      <trkpt lat="42.97252" lon="0.33475">
        <ele>1780.3</ele>
        <time>2026-07-07T07:47:26Z</time>
      </trkpt>
      <trkpt lat="42.97252" lon="0.33475">
        <ele>1780.3</ele>
        <time>2026-07-07T07:47:27Z</time>
      </trkpt>
      <trkpt lat="42.97252" lon="0.33475">
        <ele>1780.3</ele>
        <time>2026-07-07T07:47:28Z</time>
      </trkpt>
      <trkpt lat="42.97252" lon="0.33475">
        <ele>1780.3</ele>
        <time>2026-07-07T07:47:29Z</time>
      </trkpt>
      <trkpt lat="42.97252" lon="0.33475">
        <ele>1780.3</ele>
        <time>2026-07-07T07:47:30Z</time>
      </trkpt>
      <trkpt lat="42.97252" lon="0.33475">
        <ele>1780.3</ele>
        <time>2026-07-07T07:47:31Z</time>
      </trkpt>
      <trkpt lat="42.97252" lon="0.33475">
        <ele>1780.3</ele>
        <time>2026-07-07T07:47:32Z</time>
      </trkpt>
      <trkpt lat="42.97252" lon="0.33475">
        <ele>1780.3</ele>
        <time>2026-07-07T07:47:33Z</time>
      </trkpt>
      <trkpt lat="42.97252" lon="0.33475">
        <ele>1780.3</ele>
        <time>2026-07-07T07:47:34Z</time>
      </trkpt>
      <trkpt lat="42.97252" lon="0.33475">
        <ele>1780.3</ele>
        <time>2026-07-07T07:47:35Z</time>
      </trkpt>
      <trkpt lat="42.97252" lon="0.33475">
        <ele>1780.3</ele>
        <time>2026-07-07T07:47:36Z</time>
      </trkpt>
      <trkpt lat="42.97252" lon="0.33475">
        <ele>1781.3</ele>
        <time>2026-07-07T07:47:37Z</time>
      </trkpt>
      <trkpt lat="42.97252" lon="0.33475">
        <ele>1780.3</ele>
        <time>2026-07-07T07:47:38Z</time>
      </trkpt>
      <trkpt lat="42.97252" lon="0.33475">
        <ele>1780.3</ele>
        <time>2026-07-07T07:47:39Z</time>
      </trkpt>
      <trkpt lat="42.97252" lon="0.33475">
        <ele>1780.3</ele>
        <time>2026-07-07T07:47:40Z</time>
      </trkpt>
      <trkpt lat="42.97253" lon="0.33475">
        <ele>1780.3</ele>
        <time>2026-07-07T07:47:41Z</time>
      </trkpt>
      <trkpt lat="42.97253" lon="0.33475">
        <ele>1780.3</ele>
        <time>2026-07-07T07:47:42Z</time>
      </trkpt>
      <trkpt lat="42.97253" lon="0.33475">
        <ele>1780.3</ele>
        <time>2026-07-07T07:47:43Z</time>
      </trkpt>
      <trkpt lat="42.97253" lon="0.33475">
        <ele>1780.3</ele>
        <time>2026-07-07T07:47:44Z</time>
      </trkpt>
      <trkpt lat="42.97253" lon="0.33475">
        <ele>1780.3</ele>
        <time>2026-07-07T07:47:45Z</time>
      </trkpt>
      <trkpt lat="42.97253" lon="0.33475">
        <ele>1780.3</ele>
        <time>2026-07-07T07:47:46Z</time>
      </trkpt>
      <trkpt lat="42.97253" lon="0.33475">
        <ele>1780.3</ele>
        <time>2026-07-07T07:47:47Z</time>
      </trkpt>
      <trkpt lat="42.97253" lon="0.33475">
        <ele>1780.3</ele>
        <time>2026-07-07T07:47:48Z</time>
      </trkpt>
      <trkpt lat="42.97253" lon="0.33475">
        <ele>1780.3</ele>
        <time>2026-07-07T07:47:49Z</time>
      </trkpt>
      <trkpt lat="42.97253" lon="0.33475">
        <ele>1780.3</ele>
        <time>2026-07-07T07:47:50Z</time>
      </trkpt>
      <trkpt lat="42.97253" lon="0.33475">
        <ele>1780.3</ele>
        <time>2026-07-07T07:47:51Z</time>
      </trkpt>
      <trkpt lat="42.97253" lon="0.33475">
        <ele>1780.3</ele>
        <time>2026-07-07T07:47:52Z</time>
      </trkpt>
      <trkpt lat="42.97253" lon="0.33475">
        <ele>1780.3</ele>
        <time>2026-07-07T07:47:53Z</time>
      </trkpt>
      <trkpt lat="42.97253" lon="0.33475">
        <ele>1780.3</ele>
        <time>2026-07-07T07:47:54Z</time>
      </trkpt>
      <trkpt lat="42.97253" lon="0.33475">
        <ele>1780.3</ele>
        <time>2026-07-07T07:47:55Z</time>
      </trkpt>
      <trkpt lat="42.97253" lon="0.33475">
        <ele>1780.3</ele>
        <time>2026-07-07T07:47:56Z</time>
      </trkpt>
      <trkpt lat="42.97253" lon="0.33475">
        <ele>1780.3</ele>
        <time>2026-07-07T07:47:57Z</time>
      </trkpt>
      <trkpt lat="42.97253" lon="0.33475">
        <ele>1780.3</ele>
        <time>2026-07-07T07:47:58Z</time>
      </trkpt>
      <trkpt lat="42.97253" lon="0.33475">
        <ele>1780.3</ele>
        <time>2026-07-07T07:47:59Z</time>
      </trkpt>
      <trkpt lat="42.97253" lon="0.33475">
        <ele>1780.3</ele>
        <time>2026-07-07T07:48:00Z</time>
      </trkpt>
      <trkpt lat="42.97253" lon="0.33475">
        <ele>1780.3</ele>
        <time>2026-07-07T07:48:01Z</time>
      </trkpt>
      <trkpt lat="42.97254" lon="0.33475">
        <ele>1781.3</ele>
        <time>2026-07-07T07:48:02Z</time>
      </trkpt>
      <trkpt lat="42.97254" lon="0.33475">
        <ele>1781.3</ele>
        <time>2026-07-07T07:48:03Z</time>
      </trkpt>
      <trkpt lat="42.97254" lon="0.33474">
        <ele>1781.3</ele>
        <time>2026-07-07T07:48:04Z</time>
      </trkpt>
      <trkpt lat="42.97254" lon="0.33474">
        <ele>1780.3</ele>
        <time>2026-07-07T07:48:05Z</time>
      </trkpt>
      <trkpt lat="42.97254" lon="0.33475">
        <ele>1780.3</ele>
        <time>2026-07-07T07:48:06Z</time>
      </trkpt>
      <trkpt lat="42.97254" lon="0.33475">
        <ele>1780.3</ele>
        <time>2026-07-07T07:48:07Z</time>
      </trkpt>
      <trkpt lat="42.97254" lon="0.33475">
        <ele>1780.3</ele>
        <time>2026-07-07T07:48:08Z</time>
      </trkpt>
      <trkpt lat="42.97254" lon="0.33475">
        <ele>1780.3</ele>
        <time>2026-07-07T07:48:09Z</time>
      </trkpt>
      <trkpt lat="42.97254" lon="0.33476">
        <ele>1780.3</ele>
        <time>2026-07-07T07:48:10Z</time>
      </trkpt>
      <trkpt lat="42.97254" lon="0.33476">
        <ele>1780.3</ele>
        <time>2026-07-07T07:48:11Z</time>
      </trkpt>
      <trkpt lat="42.97254" lon="0.33476">
        <ele>1780.3</ele>
        <time>2026-07-07T07:48:12Z</time>
      </trkpt>
      <trkpt lat="42.97254" lon="0.33476">
        <ele>1780.3</ele>
        <time>2026-07-07T07:48:13Z</time>
      </trkpt>
      <trkpt lat="42.97254" lon="0.33477">
        <ele>1780.3</ele>
        <time>2026-07-07T07:48:14Z</time>
      </trkpt>
      <trkpt lat="42.97254" lon="0.33477">
        <ele>1780.3</ele>
        <time>2026-07-07T07:48:15Z</time>
      </trkpt>
      <trkpt lat="42.97254" lon="0.33477">
        <ele>1780.3</ele>
        <time>2026-07-07T07:48:16Z</time>
      </trkpt>
      <trkpt lat="42.97254" lon="0.33477">
        <ele>1780.3</ele>
        <time>2026-07-07T07:48:17Z</time>
      </trkpt>
      <trkpt lat="42.97254" lon="0.33477">
        <ele>1780.3</ele>
        <time>2026-07-07T07:48:18Z</time>
      </trkpt>
      <trkpt lat="42.97254" lon="0.33477">
        <ele>1780.3</ele>
        <time>2026-07-07T07:48:19Z</time>
      </trkpt>
      <trkpt lat="42.97254" lon="0.33477">
        <ele>1780.3</ele>
        <time>2026-07-07T07:48:20Z</time>
      </trkpt>
      <trkpt lat="42.97254" lon="0.33477">
        <ele>1780.3</ele>
        <time>2026-07-07T07:48:20Z</time>
      </trkpt>
      <trkpt lat="42.97254" lon="0.33477">
        <ele>1780.3</ele>
        <time>2026-07-07T07:48:21Z</time>
      </trkpt>
      <trkpt lat="42.97254" lon="0.33477">
        <ele>1781.3</ele>
        <time>2026-07-07T07:48:22Z</time>
      </trkpt>
      <trkpt lat="42.97254" lon="0.33477">
        <ele>1781.3</ele>
        <time>2026-07-07T07:48:23Z</time>
      </trkpt>
      <trkpt lat="42.97254" lon="0.33477">
        <ele>1781.3</ele>
        <time>2026-07-07T07:48:24Z</time>
      </trkpt>
      <trkpt lat="42.97254" lon="0.33477">
        <ele>1781.3</ele>
        <time>2026-07-07T07:48:24Z</time>
      </trkpt>
      <trkpt lat="42.97254" lon="0.33476">
        <ele>1781.3</ele>
        <time>2026-07-07T07:48:25Z</time>
      </trkpt>
      <trkpt lat="42.97254" lon="0.33477">
        <ele>1781.3</ele>
        <time>2026-07-07T07:48:26Z</time>
      </trkpt>
      <trkpt lat="42.97254" lon="0.33477">
        <ele>1781.3</ele>
        <time>2026-07-07T07:48:27Z</time>
      </trkpt>
      <trkpt lat="42.97254" lon="0.33476">
        <ele>1781.3</ele>
        <time>2026-07-07T07:48:27Z</time>
      </trkpt>
      <trkpt lat="42.97254" lon="0.33476">
        <ele>1781.3</ele>
        <time>2026-07-07T07:48:28Z</time>
      </trkpt>
      <trkpt lat="42.97254" lon="0.33476">
        <ele>1781.3</ele>
        <time>2026-07-07T07:48:29Z</time>
      </trkpt>
      <trkpt lat="42.97254" lon="0.33476">
        <ele>1781.3</ele>
        <time>2026-07-07T07:48:30Z</time>
      </trkpt>
      <trkpt lat="42.97254" lon="0.33476">
        <ele>1781.3</ele>
        <time>2026-07-07T07:48:31Z</time>
      </trkpt>
      <trkpt lat="42.97254" lon="0.33476">
        <ele>1781.3</ele>
        <time>2026-07-07T07:48:31Z</time>
      </trkpt>
      <trkpt lat="42.97254" lon="0.33476">
        <ele>1781.3</ele>
        <time>2026-07-07T07:48:32Z</time>
      </trkpt>
      <trkpt lat="42.97254" lon="0.33476">
        <ele>1781.3</ele>
        <time>2026-07-07T07:48:33Z</time>
      </trkpt>
      <trkpt lat="42.97254" lon="0.33476">
        <ele>1781.3</ele>
        <time>2026-07-07T07:48:34Z</time>
      </trkpt>
      <trkpt lat="42.97254" lon="0.33476">
        <ele>1781.3</ele>
        <time>2026-07-07T07:48:35Z</time>
      </trkpt>
      <trkpt lat="42.97254" lon="0.33476">
        <ele>1781.3</ele>
        <time>2026-07-07T07:48:36Z</time>
      </trkpt>
      <trkpt lat="42.97254" lon="0.33476">
        <ele>1781.3</ele>
        <time>2026-07-07T07:48:37Z</time>
      </trkpt>
      <trkpt lat="42.97254" lon="0.33476">
        <ele>1781.3</ele>
        <time>2026-07-07T07:48:37Z</time>
      </trkpt>
      <trkpt lat="42.97254" lon="0.33476">
        <ele>1781.3</ele>
        <time>2026-07-07T07:48:38Z</time>
      </trkpt>
      <trkpt lat="42.97254" lon="0.33476">
        <ele>1781.3</ele>
        <time>2026-07-07T07:48:39Z</time>
      </trkpt>
      <trkpt lat="42.97254" lon="0.33476">
        <ele>1781.3</ele>
        <time>2026-07-07T07:48:40Z</time>
      </trkpt>
      <trkpt lat="42.97254" lon="0.33477">
        <ele>1781.3</ele>
        <time>2026-07-07T07:48:41Z</time>
      </trkpt>
      <trkpt lat="42.97254" lon="0.33477">
        <ele>1781.3</ele>
        <time>2026-07-07T07:48:42Z</time>
      </trkpt>
      <trkpt lat="42.97254" lon="0.33477">
        <ele>1781.3</ele>
        <time>2026-07-07T07:48:43Z</time>
      </trkpt>
      <trkpt lat="42.97254" lon="0.33477">
        <ele>1781.3</ele>
        <time>2026-07-07T07:48:44Z</time>
      </trkpt>
      <trkpt lat="42.97254" lon="0.33477">
        <ele>1781.3</ele>
        <time>2026-07-07T07:48:45Z</time>
      </trkpt>
      <trkpt lat="42.97254" lon="0.33477">
        <ele>1781.3</ele>
        <time>2026-07-07T07:48:45Z</time>
      </trkpt>
      <trkpt lat="42.97254" lon="0.33477">
        <ele>1781.3</ele>
        <time>2026-07-07T07:48:46Z</time>
      </trkpt>
      <trkpt lat="42.97254" lon="0.33477">
        <ele>1781.3</ele>
        <time>2026-07-07T07:48:47Z</time>
      </trkpt>
      <trkpt lat="42.97254" lon="0.33477">
        <ele>1781.3</ele>
        <time>2026-07-07T07:48:48Z</time>
      </trkpt>
      <trkpt lat="42.97254" lon="0.33477">
        <ele>1781.3</ele>
        <time>2026-07-07T07:48:49Z</time>
      </trkpt>
      <trkpt lat="42.97254" lon="0.33477">
        <ele>1781.3</ele>
        <time>2026-07-07T07:48:50Z</time>
      </trkpt>
      <trkpt lat="42.97254" lon="0.33477">
        <ele>1781.3</ele>
        <time>2026-07-07T07:48:51Z</time>
      </trkpt>
      <trkpt lat="42.97254" lon="0.33477">
        <ele>1781.3</ele>
        <time>2026-07-07T07:48:52Z</time>
      </trkpt>
      <trkpt lat="42.97254" lon="0.33477">
        <ele>1781.3</ele>
        <time>2026-07-07T07:48:53Z</time>
      </trkpt>
      <trkpt lat="42.97254" lon="0.33477">
        <ele>1781.3</ele>
        <time>2026-07-07T07:48:54Z</time>
      </trkpt>
      <trkpt lat="42.97254" lon="0.33477">
        <ele>1781.3</ele>
        <time>2026-07-07T07:48:54Z</time>
      </trkpt>
      <trkpt lat="42.97254" lon="0.33477">
        <ele>1781.3</ele>
        <time>2026-07-07T07:48:55Z</time>
      </trkpt>
      <trkpt lat="42.97254" lon="0.33476">
        <ele>1781.3</ele>
        <time>2026-07-07T07:48:56Z</time>
      </trkpt>
      <trkpt lat="42.97254" lon="0.33476">
        <ele>1781.3</ele>
        <time>2026-07-07T07:48:57Z</time>
      </trkpt>
      <trkpt lat="42.97254" lon="0.33475">
        <ele>1781.3</ele>
        <time>2026-07-07T07:48:58Z</time>
      </trkpt>
      <trkpt lat="42.97253" lon="0.33474">
        <ele>1781.3</ele>
        <time>2026-07-07T07:48:59Z</time>
      </trkpt>
      <trkpt lat="42.97253" lon="0.33474">
        <ele>1782.3</ele>
        <time>2026-07-07T07:48:59Z</time>
      </trkpt>
      <trkpt lat="42.97253" lon="0.33473">
        <ele>1782.3</ele>
        <time>2026-07-07T07:49:00Z</time>
      </trkpt>
      <trkpt lat="42.97253" lon="0.33472">
        <ele>1782.3</ele>
        <time>2026-07-07T07:49:01Z</time>
      </trkpt>
      <trkpt lat="42.97252" lon="0.33471">
        <ele>1781.3</ele>
        <time>2026-07-07T07:49:01Z</time>
      </trkpt>
      <trkpt lat="42.97252" lon="0.33469">
        <ele>1781.3</ele>
        <time>2026-07-07T07:49:02Z</time>
      </trkpt>
      <trkpt lat="42.97252" lon="0.33468">
        <ele>1781.3</ele>
        <time>2026-07-07T07:49:03Z</time>
      </trkpt>
      <trkpt lat="42.97252" lon="0.33467">
        <ele>1781.3</ele>
        <time>2026-07-07T07:49:03Z</time>
      </trkpt>
      <trkpt lat="42.97252" lon="0.33466">
        <ele>1781.3</ele>
        <time>2026-07-07T07:49:04Z</time>
      </trkpt>
      <trkpt lat="42.97252" lon="0.33465">
        <ele>1781.3</ele>
        <time>2026-07-07T07:49:05Z</time>
      </trkpt>
      <trkpt lat="42.97252" lon="0.33464">
        <ele>1781.3</ele>
        <time>2026-07-07T07:49:05Z</time>
      </trkpt>
      <trkpt lat="42.97252" lon="0.33463">
        <ele>1781.3</ele>
        <time>2026-07-07T07:49:06Z</time>
      </trkpt>
      <trkpt lat="42.97252" lon="0.33462">
        <ele>1781.3</ele>
        <time>2026-07-07T07:49:06Z</time>
      </trkpt>
      <trkpt lat="42.97252" lon="0.33461">
        <ele>1781.3</ele>
        <time>2026-07-07T07:49:07Z</time>
      </trkpt>
      <trkpt lat="42.97252" lon="0.3346">
        <ele>1782.3</ele>
        <time>2026-07-07T07:49:08Z</time>
      </trkpt>
      <trkpt lat="42.97252" lon="0.33459">
        <ele>1782.3</ele>
        <time>2026-07-07T07:49:08Z</time>
      </trkpt>
      <trkpt lat="42.97251" lon="0.33458">
        <ele>1782.3</ele>
        <time>2026-07-07T07:49:09Z</time>
      </trkpt>
      <trkpt lat="42.97251" lon="0.33458">
        <ele>1782.3</ele>
        <time>2026-07-07T07:49:10Z</time>
      </trkpt>
      <trkpt lat="42.97251" lon="0.33457">
        <ele>1782.3</ele>
        <time>2026-07-07T07:49:10Z</time>
      </trkpt>
      <trkpt lat="42.9725" lon="0.33456">
        <ele>1783.3</ele>
        <time>2026-07-07T07:49:11Z</time>
      </trkpt>
      <trkpt lat="42.9725" lon="0.33455">
        <ele>1782.3</ele>
        <time>2026-07-07T07:49:11Z</time>
      </trkpt>
      <trkpt lat="42.9725" lon="0.33454">
        <ele>1782.3</ele>
        <time>2026-07-07T07:49:12Z</time>
      </trkpt>
      <trkpt lat="42.97249" lon="0.33453">
        <ele>1782.3</ele>
        <time>2026-07-07T07:49:13Z</time>
      </trkpt>
      <trkpt lat="42.97249" lon="0.33453">
        <ele>1782.3</ele>
        <time>2026-07-07T07:49:13Z</time>
      </trkpt>
      <trkpt lat="42.97249" lon="0.33452">
        <ele>1782.3</ele>
        <time>2026-07-07T07:49:14Z</time>
      </trkpt>
      <trkpt lat="42.97249" lon="0.33451">
        <ele>1783.3</ele>
        <time>2026-07-07T07:49:15Z</time>
      </trkpt>
      <trkpt lat="42.97248" lon="0.3345">
        <ele>1783.3</ele>
        <time>2026-07-07T07:49:15Z</time>
      </trkpt>
      <trkpt lat="42.97248" lon="0.33449">
        <ele>1783.3</ele>
        <time>2026-07-07T07:49:16Z</time>
      </trkpt>
      <trkpt lat="42.97248" lon="0.33449">
        <ele>1782.3</ele>
        <time>2026-07-07T07:49:16Z</time>
      </trkpt>
      <trkpt lat="42.97248" lon="0.33448">
        <ele>1782.3</ele>
        <time>2026-07-07T07:49:17Z</time>
      </trkpt>
      <trkpt lat="42.97248" lon="0.33447">
        <ele>1782.3</ele>
        <time>2026-07-07T07:49:18Z</time>
      </trkpt>
      <trkpt lat="42.97248" lon="0.33446">
        <ele>1782.3</ele>
        <time>2026-07-07T07:49:18Z</time>
      </trkpt>
      <trkpt lat="42.97248" lon="0.33445">
        <ele>1782.3</ele>
        <time>2026-07-07T07:49:19Z</time>
      </trkpt>
      <trkpt lat="42.97247" lon="0.33444">
        <ele>1782.3</ele>
        <time>2026-07-07T07:49:19Z</time>
      </trkpt>
      <trkpt lat="42.97247" lon="0.33444">
        <ele>1782.3</ele>
        <time>2026-07-07T07:49:20Z</time>
      </trkpt>
      <trkpt lat="42.97247" lon="0.33443">
        <ele>1782.3</ele>
        <time>2026-07-07T07:49:21Z</time>
      </trkpt>
      <trkpt lat="42.97246" lon="0.33442">
        <ele>1782.3</ele>
        <time>2026-07-07T07:49:21Z</time>
      </trkpt>
      <trkpt lat="42.97246" lon="0.33441">
        <ele>1782.3</ele>
        <time>2026-07-07T07:49:22Z</time>
      </trkpt>
      <trkpt lat="42.97246" lon="0.33441">
        <ele>1782.3</ele>
        <time>2026-07-07T07:49:22Z</time>
      </trkpt>
      <trkpt lat="42.97245" lon="0.33439">
        <ele>1781.3</ele>
        <time>2026-07-07T07:49:23Z</time>
      </trkpt>
      <trkpt lat="42.97245" lon="0.33438">
        <ele>1781.3</ele>
        <time>2026-07-07T07:49:24Z</time>
      </trkpt>
      <trkpt lat="42.97245" lon="0.33437">
        <ele>1782.3</ele>
        <time>2026-07-07T07:49:24Z</time>
      </trkpt>
      <trkpt lat="42.97245" lon="0.33437">
        <ele>1782.3</ele>
        <time>2026-07-07T07:49:25Z</time>
      </trkpt>
      <trkpt lat="42.97244" lon="0.33436">
        <ele>1781.3</ele>
        <time>2026-07-07T07:49:26Z</time>
      </trkpt>
      <trkpt lat="42.97244" lon="0.33435">
        <ele>1781.3</ele>
        <time>2026-07-07T07:49:26Z</time>
      </trkpt>
      <trkpt lat="42.97244" lon="0.33434">
        <ele>1782.3</ele>
        <time>2026-07-07T07:49:27Z</time>
      </trkpt>
      <trkpt lat="42.97244" lon="0.33434">
        <ele>1782.3</ele>
        <time>2026-07-07T07:49:27Z</time>
      </trkpt>
      <trkpt lat="42.97244" lon="0.33433">
        <ele>1782.3</ele>
        <time>2026-07-07T07:49:28Z</time>
      </trkpt>
      <trkpt lat="42.97244" lon="0.33432">
        <ele>1782.3</ele>
        <time>2026-07-07T07:49:29Z</time>
      </trkpt>
      <trkpt lat="42.97245" lon="0.33431">
        <ele>1782.3</ele>
        <time>2026-07-07T07:49:29Z</time>
      </trkpt>
      <trkpt lat="42.97245" lon="0.3343">
        <ele>1781.3</ele>
        <time>2026-07-07T07:49:30Z</time>
      </trkpt>
      <trkpt lat="42.97245" lon="0.33429">
        <ele>1781.3</ele>
        <time>2026-07-07T07:49:30Z</time>
      </trkpt>
      <trkpt lat="42.97246" lon="0.33428">
        <ele>1781.3</ele>
        <time>2026-07-07T07:49:31Z</time>
      </trkpt>
      <trkpt lat="42.97246" lon="0.33427">
        <ele>1781.3</ele>
        <time>2026-07-07T07:49:32Z</time>
      </trkpt>
      <trkpt lat="42.97247" lon="0.33425">
        <ele>1781.3</ele>
        <time>2026-07-07T07:49:33Z</time>
      </trkpt>
      <trkpt lat="42.97247" lon="0.33425">
        <ele>1780.3</ele>
        <time>2026-07-07T07:49:33Z</time>
      </trkpt>
      <trkpt lat="42.97247" lon="0.33424">
        <ele>1781.3</ele>
        <time>2026-07-07T07:49:34Z</time>
      </trkpt>
      <trkpt lat="42.97247" lon="0.33423">
        <ele>1781.3</ele>
        <time>2026-07-07T07:49:35Z</time>
      </trkpt>
      <trkpt lat="42.97247" lon="0.33423">
        <ele>1781.3</ele>
        <time>2026-07-07T07:49:35Z</time>
      </trkpt>
      <trkpt lat="42.97248" lon="0.33421">
        <ele>1781.3</ele>
        <time>2026-07-07T07:49:36Z</time>
      </trkpt>
      <trkpt lat="42.97248" lon="0.33421">
        <ele>1781.3</ele>
        <time>2026-07-07T07:49:37Z</time>
      </trkpt>
      <trkpt lat="42.97248" lon="0.3342">
        <ele>1781.3</ele>
        <time>2026-07-07T07:49:37Z</time>
      </trkpt>
      <trkpt lat="42.97248" lon="0.33419">
        <ele>1781.3</ele>
        <time>2026-07-07T07:49:38Z</time>
      </trkpt>
      <trkpt lat="42.97249" lon="0.33418">
        <ele>1781.3</ele>
        <time>2026-07-07T07:49:39Z</time>
      </trkpt>
      <trkpt lat="42.97249" lon="0.33417">
        <ele>1780.3</ele>
        <time>2026-07-07T07:49:39Z</time>
      </trkpt>
      <trkpt lat="42.97248" lon="0.33416">
        <ele>1780.3</ele>
        <time>2026-07-07T07:49:40Z</time>
      </trkpt>
      <trkpt lat="42.97248" lon="0.33414">
        <ele>1780.3</ele>
        <time>2026-07-07T07:49:41Z</time>
      </trkpt>
      <trkpt lat="42.97248" lon="0.33413">
        <ele>1780.3</ele>
        <time>2026-07-07T07:49:42Z</time>
      </trkpt>
      <trkpt lat="42.97247" lon="0.33411">
        <ele>1780.3</ele>
        <time>2026-07-07T07:49:43Z</time>
      </trkpt>
      <trkpt lat="42.97247" lon="0.3341">
        <ele>1780.3</ele>
        <time>2026-07-07T07:49:44Z</time>
      </trkpt>
      <trkpt lat="42.97247" lon="0.33409">
        <ele>1780.3</ele>
        <time>2026-07-07T07:49:44Z</time>
      </trkpt>
      <trkpt lat="42.97246" lon="0.33408">
        <ele>1780.3</ele>
        <time>2026-07-07T07:49:45Z</time>
      </trkpt>
      <trkpt lat="42.97246" lon="0.33407">
        <ele>1779.3</ele>
        <time>2026-07-07T07:49:46Z</time>
      </trkpt>
      <trkpt lat="42.97246" lon="0.33406">
        <ele>1779.3</ele>
        <time>2026-07-07T07:49:46Z</time>
      </trkpt>
      <trkpt lat="42.97246" lon="0.33404">
        <ele>1779.3</ele>
        <time>2026-07-07T07:49:47Z</time>
      </trkpt>
      <trkpt lat="42.97246" lon="0.33403">
        <ele>1779.3</ele>
        <time>2026-07-07T07:49:48Z</time>
      </trkpt>
      <trkpt lat="42.97245" lon="0.33401">
        <ele>1778.3</ele>
        <time>2026-07-07T07:49:49Z</time>
      </trkpt>
      <trkpt lat="42.97245" lon="0.33399">
        <ele>1779.3</ele>
        <time>2026-07-07T07:49:50Z</time>
      </trkpt>
      <trkpt lat="42.97245" lon="0.33398">
        <ele>1779.3</ele>
        <time>2026-07-07T07:49:51Z</time>
      </trkpt>
      <trkpt lat="42.97246" lon="0.33397">
        <ele>1779.3</ele>
        <time>2026-07-07T07:49:52Z</time>
      </trkpt>
      <trkpt lat="42.97246" lon="0.33396">
        <ele>1779.3</ele>
        <time>2026-07-07T07:49:52Z</time>
      </trkpt>
      <trkpt lat="42.97246" lon="0.33395">
        <ele>1778.3</ele>
        <time>2026-07-07T07:49:53Z</time>
      </trkpt>
      <trkpt lat="42.97246" lon="0.33394">
        <ele>1778.3</ele>
        <time>2026-07-07T07:49:53Z</time>
      </trkpt>
      <trkpt lat="42.97246" lon="0.33393">
        <ele>1778.3</ele>
        <time>2026-07-07T07:49:54Z</time>
      </trkpt>
      <trkpt lat="42.97246" lon="0.33393">
        <ele>1778.3</ele>
        <time>2026-07-07T07:49:54Z</time>
      </trkpt>
      <trkpt lat="42.97246" lon="0.33392">
        <ele>1778.3</ele>
        <time>2026-07-07T07:49:55Z</time>
      </trkpt>
      <trkpt lat="42.97246" lon="0.33391">
        <ele>1778.3</ele>
        <time>2026-07-07T07:49:55Z</time>
      </trkpt>
      <trkpt lat="42.97246" lon="0.3339">
        <ele>1778.3</ele>
        <time>2026-07-07T07:49:56Z</time>
      </trkpt>
      <trkpt lat="42.97246" lon="0.3339">
        <ele>1778.3</ele>
        <time>2026-07-07T07:49:56Z</time>
      </trkpt>
      <trkpt lat="42.97246" lon="0.33389">
        <ele>1778.3</ele>
        <time>2026-07-07T07:49:57Z</time>
      </trkpt>
      <trkpt lat="42.97247" lon="0.33388">
        <ele>1778.3</ele>
        <time>2026-07-07T07:49:58Z</time>
      </trkpt>
      <trkpt lat="42.97247" lon="0.33387">
        <ele>1778.3</ele>
        <time>2026-07-07T07:49:58Z</time>
      </trkpt>
      <trkpt lat="42.97247" lon="0.33386">
        <ele>1778.3</ele>
        <time>2026-07-07T07:49:59Z</time>
      </trkpt>
      <trkpt lat="42.97247" lon="0.33385">
        <ele>1778.3</ele>
        <time>2026-07-07T07:50:00Z</time>
      </trkpt>
      <trkpt lat="42.97247" lon="0.33384">
        <ele>1778.3</ele>
        <time>2026-07-07T07:50:00Z</time>
      </trkpt>
      <trkpt lat="42.97247" lon="0.33383">
        <ele>1778.3</ele>
        <time>2026-07-07T07:50:01Z</time>
      </trkpt>
      <trkpt lat="42.97247" lon="0.33382">
        <ele>1778.3</ele>
        <time>2026-07-07T07:50:01Z</time>
      </trkpt>
      <trkpt lat="42.97247" lon="0.33381">
        <ele>1778.3</ele>
        <time>2026-07-07T07:50:02Z</time>
      </trkpt>
      <trkpt lat="42.97247" lon="0.3338">
        <ele>1777.3</ele>
        <time>2026-07-07T07:50:02Z</time>
      </trkpt>
      <trkpt lat="42.97247" lon="0.33379">
        <ele>1777.3</ele>
        <time>2026-07-07T07:50:03Z</time>
      </trkpt>
      <trkpt lat="42.97247" lon="0.33378">
        <ele>1777.3</ele>
        <time>2026-07-07T07:50:04Z</time>
      </trkpt>
      <trkpt lat="42.97247" lon="0.33376">
        <ele>1777.3</ele>
        <time>2026-07-07T07:50:05Z</time>
      </trkpt>
      <trkpt lat="42.97247" lon="0.33375">
        <ele>1777.3</ele>
        <time>2026-07-07T07:50:06Z</time>
      </trkpt>
      <trkpt lat="42.97248" lon="0.33374">
        <ele>1778.3</ele>
        <time>2026-07-07T07:50:07Z</time>
      </trkpt>
      <trkpt lat="42.97248" lon="0.33374">
        <ele>1778.3</ele>
        <time>2026-07-07T07:50:07Z</time>
      </trkpt>
      <trkpt lat="42.97249" lon="0.33373">
        <ele>1777.3</ele>
        <time>2026-07-07T07:50:08Z</time>
      </trkpt>
      <trkpt lat="42.97249" lon="0.33372">
        <ele>1776.3</ele>
        <time>2026-07-07T07:50:08Z</time>
      </trkpt>
      <trkpt lat="42.97249" lon="0.33371">
        <ele>1776.3</ele>
        <time>2026-07-07T07:50:09Z</time>
      </trkpt>
      <trkpt lat="42.9725" lon="0.33371">
        <ele>1776.3</ele>
        <time>2026-07-07T07:50:10Z</time>
      </trkpt>
      <trkpt lat="42.9725" lon="0.3337">
        <ele>1776.3</ele>
        <time>2026-07-07T07:50:10Z</time>
      </trkpt>
      <trkpt lat="42.9725" lon="0.33369">
        <ele>1776.3</ele>
        <time>2026-07-07T07:50:11Z</time>
      </trkpt>
      <trkpt lat="42.9725" lon="0.33369">
        <ele>1776.3</ele>
        <time>2026-07-07T07:50:12Z</time>
      </trkpt>
      <trkpt lat="42.9725" lon="0.33368">
        <ele>1775.3</ele>
        <time>2026-07-07T07:50:12Z</time>
      </trkpt>
      <trkpt lat="42.9725" lon="0.33367">
        <ele>1775.3</ele>
        <time>2026-07-07T07:50:13Z</time>
      </trkpt>
      <trkpt lat="42.9725" lon="0.33367">
        <ele>1775.3</ele>
        <time>2026-07-07T07:50:13Z</time>
      </trkpt>
      <trkpt lat="42.9725" lon="0.33366">
        <ele>1775.3</ele>
        <time>2026-07-07T07:50:14Z</time>
      </trkpt>
      <trkpt lat="42.9725" lon="0.33366">
        <ele>1775.3</ele>
        <time>2026-07-07T07:50:14Z</time>
      </trkpt>
      <trkpt lat="42.9725" lon="0.33365">
        <ele>1775.3</ele>
        <time>2026-07-07T07:50:15Z</time>
      </trkpt>
      <trkpt lat="42.9725" lon="0.33364">
        <ele>1775.3</ele>
        <time>2026-07-07T07:50:15Z</time>
      </trkpt>
      <trkpt lat="42.9725" lon="0.33363">
        <ele>1775.3</ele>
        <time>2026-07-07T07:50:16Z</time>
      </trkpt>
      <trkpt lat="42.97249" lon="0.33362">
        <ele>1775.3</ele>
        <time>2026-07-07T07:50:17Z</time>
      </trkpt>
      <trkpt lat="42.97249" lon="0.33361">
        <ele>1775.3</ele>
        <time>2026-07-07T07:50:17Z</time>
      </trkpt>
      <trkpt lat="42.97249" lon="0.33361">
        <ele>1774.3</ele>
        <time>2026-07-07T07:50:18Z</time>
      </trkpt>
      <trkpt lat="42.97249" lon="0.3336">
        <ele>1774.3</ele>
        <time>2026-07-07T07:50:18Z</time>
      </trkpt>
      <trkpt lat="42.97249" lon="0.33359">
        <ele>1775.3</ele>
        <time>2026-07-07T07:50:19Z</time>
      </trkpt>
      <trkpt lat="42.97249" lon="0.33359">
        <ele>1775.3</ele>
        <time>2026-07-07T07:50:19Z</time>
      </trkpt>
      <trkpt lat="42.97248" lon="0.33358">
        <ele>1775.3</ele>
        <time>2026-07-07T07:50:20Z</time>
      </trkpt>
      <trkpt lat="42.97248" lon="0.33358">
        <ele>1775.3</ele>
        <time>2026-07-07T07:50:20Z</time>
      </trkpt>
      <trkpt lat="42.97248" lon="0.33357">
        <ele>1775.3</ele>
        <time>2026-07-07T07:50:21Z</time>
      </trkpt>
      <trkpt lat="42.97248" lon="0.33355">
        <ele>1775.3</ele>
        <time>2026-07-07T07:50:22Z</time>
      </trkpt>
      <trkpt lat="42.97247" lon="0.33355">
        <ele>1775.3</ele>
        <time>2026-07-07T07:50:23Z</time>
      </trkpt>
      <trkpt lat="42.97247" lon="0.33354">
        <ele>1775.3</ele>
        <time>2026-07-07T07:50:23Z</time>
      </trkpt>
      <trkpt lat="42.97247" lon="0.33354">
        <ele>1775.3</ele>
        <time>2026-07-07T07:50:24Z</time>
      </trkpt>
      <trkpt lat="42.97247" lon="0.33353">
        <ele>1775.3</ele>
        <time>2026-07-07T07:50:24Z</time>
      </trkpt>
      <trkpt lat="42.97247" lon="0.33352">
        <ele>1774.3</ele>
        <time>2026-07-07T07:50:25Z</time>
      </trkpt>
      <trkpt lat="42.97247" lon="0.33351">
        <ele>1774.3</ele>
        <time>2026-07-07T07:50:26Z</time>
      </trkpt>
      <trkpt lat="42.97247" lon="0.3335">
        <ele>1774.3</ele>
        <time>2026-07-07T07:50:26Z</time>
      </trkpt>
      <trkpt lat="42.97247" lon="0.33349">
        <ele>1774.3</ele>
        <time>2026-07-07T07:50:27Z</time>
      </trkpt>
      <trkpt lat="42.97247" lon="0.33348">
        <ele>1774.3</ele>
        <time>2026-07-07T07:50:28Z</time>
      </trkpt>
      <trkpt lat="42.97247" lon="0.33348">
        <ele>1774.3</ele>
        <time>2026-07-07T07:50:28Z</time>
      </trkpt>
      <trkpt lat="42.97247" lon="0.33347">
        <ele>1774.3</ele>
        <time>2026-07-07T07:50:29Z</time>
      </trkpt>
      <trkpt lat="42.97247" lon="0.33346">
        <ele>1774.3</ele>
        <time>2026-07-07T07:50:29Z</time>
      </trkpt>
      <trkpt lat="42.97247" lon="0.33345">
        <ele>1774.3</ele>
        <time>2026-07-07T07:50:30Z</time>
      </trkpt>
      <trkpt lat="42.97247" lon="0.33345">
        <ele>1773.3</ele>
        <time>2026-07-07T07:50:30Z</time>
      </trkpt>
      <trkpt lat="42.97247" lon="0.33344">
        <ele>1773.3</ele>
        <time>2026-07-07T07:50:31Z</time>
      </trkpt>
      <trkpt lat="42.97246" lon="0.33343">
        <ele>1773.3</ele>
        <time>2026-07-07T07:50:31Z</time>
      </trkpt>
      <trkpt lat="42.97246" lon="0.33342">
        <ele>1773.3</ele>
        <time>2026-07-07T07:50:32Z</time>
      </trkpt>
      <trkpt lat="42.97246" lon="0.33341">
        <ele>1773.3</ele>
        <time>2026-07-07T07:50:33Z</time>
      </trkpt>
      <trkpt lat="42.97246" lon="0.33341">
        <ele>1773.3</ele>
        <time>2026-07-07T07:50:33Z</time>
      </trkpt>
      <trkpt lat="42.97246" lon="0.3334">
        <ele>1773.3</ele>
        <time>2026-07-07T07:50:34Z</time>
      </trkpt>
      <trkpt lat="42.97246" lon="0.33339">
        <ele>1773.3</ele>
        <time>2026-07-07T07:50:34Z</time>
      </trkpt>
      <trkpt lat="42.97246" lon="0.33338">
        <ele>1773.3</ele>
        <time>2026-07-07T07:50:35Z</time>
      </trkpt>
      <trkpt lat="42.97246" lon="0.33337">
        <ele>1773.3</ele>
        <time>2026-07-07T07:50:36Z</time>
      </trkpt>
      <trkpt lat="42.97246" lon="0.33336">
        <ele>1773.3</ele>
        <time>2026-07-07T07:50:37Z</time>
      </trkpt>
      <trkpt lat="42.97246" lon="0.33335">
        <ele>1772.3</ele>
        <time>2026-07-07T07:50:37Z</time>
      </trkpt>
      <trkpt lat="42.97246" lon="0.33334">
        <ele>1772.3</ele>
        <time>2026-07-07T07:50:38Z</time>
      </trkpt>
      <trkpt lat="42.97246" lon="0.33333">
        <ele>1772.3</ele>
        <time>2026-07-07T07:50:39Z</time>
      </trkpt>
      <trkpt lat="42.97246" lon="0.33333">
        <ele>1772.3</ele>
        <time>2026-07-07T07:50:39Z</time>
      </trkpt>
      <trkpt lat="42.97247" lon="0.33332">
        <ele>1772.3</ele>
        <time>2026-07-07T07:50:40Z</time>
      </trkpt>
      <trkpt lat="42.97247" lon="0.33332">
        <ele>1771.3</ele>
        <time>2026-07-07T07:50:40Z</time>
      </trkpt>
      <trkpt lat="42.97247" lon="0.33331">
        <ele>1771.3</ele>
        <time>2026-07-07T07:50:41Z</time>
      </trkpt>
      <trkpt lat="42.97248" lon="0.3333">
        <ele>1772.3</ele>
        <time>2026-07-07T07:50:42Z</time>
      </trkpt>
      <trkpt lat="42.97248" lon="0.33329">
        <ele>1772.3</ele>
        <time>2026-07-07T07:50:42Z</time>
      </trkpt>
      <trkpt lat="42.97248" lon="0.33329">
        <ele>1772.3</ele>
        <time>2026-07-07T07:50:43Z</time>
      </trkpt>
      <trkpt lat="42.97248" lon="0.33328">
        <ele>1772.3</ele>
        <time>2026-07-07T07:50:43Z</time>
      </trkpt>
      <trkpt lat="42.97248" lon="0.33327">
        <ele>1772.3</ele>
        <time>2026-07-07T07:50:44Z</time>
      </trkpt>
      <trkpt lat="42.97248" lon="0.33326">
        <ele>1772.3</ele>
        <time>2026-07-07T07:50:45Z</time>
      </trkpt>
      <trkpt lat="42.97248" lon="0.33325">
        <ele>1772.3</ele>
        <time>2026-07-07T07:50:45Z</time>
      </trkpt>
      <trkpt lat="42.97249" lon="0.33324">
        <ele>1772.3</ele>
        <time>2026-07-07T07:50:46Z</time>
      </trkpt>
      <trkpt lat="42.97249" lon="0.33324">
        <ele>1771.3</ele>
        <time>2026-07-07T07:50:46Z</time>
      </trkpt>
      <trkpt lat="42.97249" lon="0.33323">
        <ele>1771.3</ele>
        <time>2026-07-07T07:50:47Z</time>
      </trkpt>
      <trkpt lat="42.97249" lon="0.33322">
        <ele>1771.3</ele>
        <time>2026-07-07T07:50:48Z</time>
      </trkpt>
      <trkpt lat="42.97249" lon="0.33322">
        <ele>1771.3</ele>
        <time>2026-07-07T07:50:48Z</time>
      </trkpt>
      <trkpt lat="42.97249" lon="0.33321">
        <ele>1771.3</ele>
        <time>2026-07-07T07:50:49Z</time>
      </trkpt>
      <trkpt lat="42.9725" lon="0.3332">
        <ele>1771.3</ele>
        <time>2026-07-07T07:50:49Z</time>
      </trkpt>
      <trkpt lat="42.9725" lon="0.3332">
        <ele>1771.3</ele>
        <time>2026-07-07T07:50:50Z</time>
      </trkpt>
      <trkpt lat="42.9725" lon="0.33319">
        <ele>1771.3</ele>
        <time>2026-07-07T07:50:50Z</time>
      </trkpt>
      <trkpt lat="42.9725" lon="0.33319">
        <ele>1771.3</ele>
        <time>2026-07-07T07:50:51Z</time>
      </trkpt>
      <trkpt lat="42.9725" lon="0.33318">
        <ele>1770.3</ele>
        <time>2026-07-07T07:50:52Z</time>
      </trkpt>
      <trkpt lat="42.9725" lon="0.33317">
        <ele>1770.3</ele>
        <time>2026-07-07T07:50:52Z</time>
      </trkpt>
      <trkpt lat="42.9725" lon="0.33315">
        <ele>1770.3</ele>
        <time>2026-07-07T07:50:53Z</time>
      </trkpt>
      <trkpt lat="42.9725" lon="0.33314">
        <ele>1770.3</ele>
        <time>2026-07-07T07:50:54Z</time>
      </trkpt>
      <trkpt lat="42.97251" lon="0.33313">
        <ele>1770.3</ele>
        <time>2026-07-07T07:50:54Z</time>
      </trkpt>
      <trkpt lat="42.97251" lon="0.33312">
        <ele>1770.3</ele>
        <time>2026-07-07T07:50:55Z</time>
      </trkpt>
      <trkpt lat="42.97251" lon="0.33312">
        <ele>1770.3</ele>
        <time>2026-07-07T07:50:55Z</time>
      </trkpt>
      <trkpt lat="42.97251" lon="0.33311">
        <ele>1770.3</ele>
        <time>2026-07-07T07:50:56Z</time>
      </trkpt>
      <trkpt lat="42.97251" lon="0.3331">
        <ele>1769.3</ele>
        <time>2026-07-07T07:50:57Z</time>
      </trkpt>
      <trkpt lat="42.97252" lon="0.33309">
        <ele>1769.3</ele>
        <time>2026-07-07T07:50:57Z</time>
      </trkpt>
      <trkpt lat="42.97252" lon="0.33309">
        <ele>1769.3</ele>
        <time>2026-07-07T07:50:58Z</time>
      </trkpt>
      <trkpt lat="42.97252" lon="0.33308">
        <ele>1769.3</ele>
        <time>2026-07-07T07:50:59Z</time>
      </trkpt>
      <trkpt lat="42.97253" lon="0.33308">
        <ele>1769.3</ele>
        <time>2026-07-07T07:50:59Z</time>
      </trkpt>
      <trkpt lat="42.97253" lon="0.33307">
        <ele>1769.3</ele>
        <time>2026-07-07T07:51:00Z</time>
      </trkpt>
      <trkpt lat="42.97253" lon="0.33306">
        <ele>1769.3</ele>
        <time>2026-07-07T07:51:00Z</time>
      </trkpt>
      <trkpt lat="42.97254" lon="0.33305">
        <ele>1769.3</ele>
        <time>2026-07-07T07:51:01Z</time>
      </trkpt>
      <trkpt lat="42.97254" lon="0.33305">
        <ele>1769.3</ele>
        <time>2026-07-07T07:51:02Z</time>
      </trkpt>
      <trkpt lat="42.97254" lon="0.33304">
        <ele>1769.3</ele>
        <time>2026-07-07T07:51:02Z</time>
      </trkpt>
      <trkpt lat="42.97254" lon="0.33303">
        <ele>1769.3</ele>
        <time>2026-07-07T07:51:03Z</time>
      </trkpt>
      <trkpt lat="42.97254" lon="0.33303">
        <ele>1769.3</ele>
        <time>2026-07-07T07:51:03Z</time>
      </trkpt>
      <trkpt lat="42.97255" lon="0.33302">
        <ele>1769.3</ele>
        <time>2026-07-07T07:51:04Z</time>
      </trkpt>
      <trkpt lat="42.97255" lon="0.33301">
        <ele>1768.3</ele>
        <time>2026-07-07T07:51:05Z</time>
      </trkpt>
      <trkpt lat="42.97255" lon="0.33301">
        <ele>1768.3</ele>
        <time>2026-07-07T07:51:05Z</time>
      </trkpt>
      <trkpt lat="42.97255" lon="0.333">
        <ele>1769.3</ele>
        <time>2026-07-07T07:51:06Z</time>
      </trkpt>
      <trkpt lat="42.97254" lon="0.33299">
        <ele>1768.3</ele>
        <time>2026-07-07T07:51:06Z</time>
      </trkpt>
      <trkpt lat="42.97254" lon="0.33298">
        <ele>1768.3</ele>
        <time>2026-07-07T07:51:07Z</time>
      </trkpt>
      <trkpt lat="42.97254" lon="0.33298">
        <ele>1768.3</ele>
        <time>2026-07-07T07:51:08Z</time>
      </trkpt>
      <trkpt lat="42.97254" lon="0.33297">
        <ele>1768.3</ele>
        <time>2026-07-07T07:51:08Z</time>
      </trkpt>
      <trkpt lat="42.97254" lon="0.33296">
        <ele>1767.3</ele>
        <time>2026-07-07T07:51:09Z</time>
      </trkpt>
      <trkpt lat="42.97253" lon="0.33296">
        <ele>1767.3</ele>
        <time>2026-07-07T07:51:09Z</time>
      </trkpt>
      <trkpt lat="42.97253" lon="0.33295">
        <ele>1767.3</ele>
        <time>2026-07-07T07:51:10Z</time>
      </trkpt>
      <trkpt lat="42.97253" lon="0.33295">
        <ele>1766.3</ele>
        <time>2026-07-07T07:51:10Z</time>
      </trkpt>
      <trkpt lat="42.97253" lon="0.33294">
        <ele>1766.3</ele>
        <time>2026-07-07T07:51:11Z</time>
      </trkpt>
      <trkpt lat="42.97253" lon="0.33293">
        <ele>1766.3</ele>
        <time>2026-07-07T07:51:12Z</time>
      </trkpt>
      <trkpt lat="42.97253" lon="0.33292">
        <ele>1766.3</ele>
        <time>2026-07-07T07:51:13Z</time>
      </trkpt>
      <trkpt lat="42.97253" lon="0.33291">
        <ele>1766.3</ele>
        <time>2026-07-07T07:51:14Z</time>
      </trkpt>
      <trkpt lat="42.97253" lon="0.3329">
        <ele>1766.3</ele>
        <time>2026-07-07T07:51:15Z</time>
      </trkpt>
      <trkpt lat="42.97253" lon="0.3329">
        <ele>1766.3</ele>
        <time>2026-07-07T07:51:15Z</time>
      </trkpt>
      <trkpt lat="42.97253" lon="0.33289">
        <ele>1766.3</ele>
        <time>2026-07-07T07:51:16Z</time>
      </trkpt>
      <trkpt lat="42.97253" lon="0.33289">
        <ele>1765.3</ele>
        <time>2026-07-07T07:51:16Z</time>
      </trkpt>
      <trkpt lat="42.97252" lon="0.33288">
        <ele>1765.3</ele>
        <time>2026-07-07T07:51:17Z</time>
      </trkpt>
      <trkpt lat="42.97252" lon="0.33288">
        <ele>1765.3</ele>
        <time>2026-07-07T07:51:18Z</time>
      </trkpt>
      <trkpt lat="42.97252" lon="0.33287">
        <ele>1764.3</ele>
        <time>2026-07-07T07:51:19Z</time>
      </trkpt>
      <trkpt lat="42.97251" lon="0.33285">
        <ele>1764.3</ele>
        <time>2026-07-07T07:51:20Z</time>
      </trkpt>
      <trkpt lat="42.97251" lon="0.33285">
        <ele>1764.3</ele>
        <time>2026-07-07T07:51:20Z</time>
      </trkpt>
      <trkpt lat="42.97251" lon="0.33284">
        <ele>1764.3</ele>
        <time>2026-07-07T07:51:21Z</time>
      </trkpt>
      <trkpt lat="42.9725" lon="0.33283">
        <ele>1764.3</ele>
        <time>2026-07-07T07:51:22Z</time>
      </trkpt>
      <trkpt lat="42.9725" lon="0.33282">
        <ele>1764.3</ele>
        <time>2026-07-07T07:51:22Z</time>
      </trkpt>
      <trkpt lat="42.9725" lon="0.33281">
        <ele>1764.3</ele>
        <time>2026-07-07T07:51:23Z</time>
      </trkpt>
      <trkpt lat="42.97251" lon="0.33281">
        <ele>1763.3</ele>
        <time>2026-07-07T07:51:23Z</time>
      </trkpt>
      <trkpt lat="42.97251" lon="0.3328">
        <ele>1763.3</ele>
        <time>2026-07-07T07:51:24Z</time>
      </trkpt>
      <trkpt lat="42.97251" lon="0.3328">
        <ele>1763.3</ele>
        <time>2026-07-07T07:51:25Z</time>
      </trkpt>
      <trkpt lat="42.97251" lon="0.33279">
        <ele>1763.3</ele>
        <time>2026-07-07T07:51:25Z</time>
      </trkpt>
      <trkpt lat="42.97251" lon="0.3328">
        <ele>1763.3</ele>
        <time>2026-07-07T07:51:26Z</time>
      </trkpt>
      <trkpt lat="42.9725" lon="0.33279">
        <ele>1763.3</ele>
        <time>2026-07-07T07:51:26Z</time>
      </trkpt>
      <trkpt lat="42.9725" lon="0.33279">
        <ele>1763.3</ele>
        <time>2026-07-07T07:51:27Z</time>
      </trkpt>
      <trkpt lat="42.9725" lon="0.33279">
        <ele>1763.3</ele>
        <time>2026-07-07T07:51:27Z</time>
      </trkpt>
      <trkpt lat="42.9725" lon="0.33278">
        <ele>1763.3</ele>
        <time>2026-07-07T07:51:28Z</time>
      </trkpt>
      <trkpt lat="42.9725" lon="0.33277">
        <ele>1762.3</ele>
        <time>2026-07-07T07:51:29Z</time>
      </trkpt>
      <trkpt lat="42.9725" lon="0.33276">
        <ele>1762.3</ele>
        <time>2026-07-07T07:51:30Z</time>
      </trkpt>
      <trkpt lat="42.9725" lon="0.33275">
        <ele>1761.3</ele>
        <time>2026-07-07T07:51:31Z</time>
      </trkpt>
      <trkpt lat="42.97249" lon="0.33275">
        <ele>1761.3</ele>
        <time>2026-07-07T07:51:32Z</time>
      </trkpt>
      <trkpt lat="42.97249" lon="0.33274">
        <ele>1761.3</ele>
        <time>2026-07-07T07:51:33Z</time>
      </trkpt>
      <trkpt lat="42.97249" lon="0.33274">
        <ele>1761.3</ele>
        <time>2026-07-07T07:51:34Z</time>
      </trkpt>
      <trkpt lat="42.97248" lon="0.33272">
        <ele>1761.3</ele>
        <time>2026-07-07T07:51:35Z</time>
      </trkpt>
      <trkpt lat="42.97248" lon="0.33272">
        <ele>1761.3</ele>
        <time>2026-07-07T07:51:36Z</time>
      </trkpt>
      <trkpt lat="42.97248" lon="0.33272">
        <ele>1761.3</ele>
        <time>2026-07-07T07:51:37Z</time>
      </trkpt>
      <trkpt lat="42.97248" lon="0.33271">
        <ele>1761.3</ele>
        <time>2026-07-07T07:51:37Z</time>
      </trkpt>
      <trkpt lat="42.97247" lon="0.33271">
        <ele>1760.3</ele>
        <time>2026-07-07T07:51:38Z</time>
      </trkpt>
      <trkpt lat="42.97247" lon="0.33271">
        <ele>1760.3</ele>
        <time>2026-07-07T07:51:38Z</time>
      </trkpt>
      <trkpt lat="42.97246" lon="0.3327">
        <ele>1760.3</ele>
        <time>2026-07-07T07:51:39Z</time>
      </trkpt>
      <trkpt lat="42.97246" lon="0.3327">
        <ele>1760.3</ele>
        <time>2026-07-07T07:51:40Z</time>
      </trkpt>
      <trkpt lat="42.97246" lon="0.33269">
        <ele>1760.3</ele>
        <time>2026-07-07T07:51:40Z</time>
      </trkpt>
      <trkpt lat="42.97245" lon="0.33269">
        <ele>1759.3</ele>
        <time>2026-07-07T07:51:41Z</time>
      </trkpt>
      <trkpt lat="42.97245" lon="0.33268">
        <ele>1759.3</ele>
        <time>2026-07-07T07:51:42Z</time>
      </trkpt>
      <trkpt lat="42.97244" lon="0.33267">
        <ele>1759.3</ele>
        <time>2026-07-07T07:51:42Z</time>
      </trkpt>
      <trkpt lat="42.97244" lon="0.33267">
        <ele>1758.3</ele>
        <time>2026-07-07T07:51:43Z</time>
      </trkpt>
      <trkpt lat="42.97243" lon="0.33267">
        <ele>1758.3</ele>
        <time>2026-07-07T07:51:44Z</time>
      </trkpt>
      <trkpt lat="42.97242" lon="0.33267">
        <ele>1758.3</ele>
        <time>2026-07-07T07:51:45Z</time>
      </trkpt>
      <trkpt lat="42.97242" lon="0.33268">
        <ele>1757.3</ele>
        <time>2026-07-07T07:51:46Z</time>
      </trkpt>
      <trkpt lat="42.97241" lon="0.33267">
        <ele>1757.3</ele>
        <time>2026-07-07T07:51:46Z</time>
      </trkpt>
      <trkpt lat="42.97241" lon="0.33267">
        <ele>1757.3</ele>
        <time>2026-07-07T07:51:47Z</time>
      </trkpt>
      <trkpt lat="42.97241" lon="0.33267">
        <ele>1757.3</ele>
        <time>2026-07-07T07:51:47Z</time>
      </trkpt>
      <trkpt lat="42.9724" lon="0.33266">
        <ele>1757.3</ele>
        <time>2026-07-07T07:51:48Z</time>
      </trkpt>
      <trkpt lat="42.9724" lon="0.33265">
        <ele>1757.3</ele>
        <time>2026-07-07T07:51:48Z</time>
      </trkpt>
      <trkpt lat="42.97239" lon="0.33265">
        <ele>1757.3</ele>
        <time>2026-07-07T07:51:49Z</time>
      </trkpt>
      <trkpt lat="42.97239" lon="0.33264">
        <ele>1757.3</ele>
        <time>2026-07-07T07:51:49Z</time>
      </trkpt>
      <trkpt lat="42.97239" lon="0.33263">
        <ele>1757.3</ele>
        <time>2026-07-07T07:51:50Z</time>
      </trkpt>
      <trkpt lat="42.97239" lon="0.33262">
        <ele>1757.3</ele>
        <time>2026-07-07T07:51:50Z</time>
      </trkpt>
      <trkpt lat="42.97238" lon="0.33261">
        <ele>1757.3</ele>
        <time>2026-07-07T07:51:51Z</time>
      </trkpt>
      <trkpt lat="42.97238" lon="0.3326">
        <ele>1756.3</ele>
        <time>2026-07-07T07:51:52Z</time>
      </trkpt>
      <trkpt lat="42.97237" lon="0.33259">
        <ele>1756.3</ele>
        <time>2026-07-07T07:51:52Z</time>
      </trkpt>
      <trkpt lat="42.97236" lon="0.33258">
        <ele>1756.3</ele>
        <time>2026-07-07T07:51:53Z</time>
      </trkpt>
      <trkpt lat="42.97236" lon="0.33257">
        <ele>1756.3</ele>
        <time>2026-07-07T07:51:54Z</time>
      </trkpt>
      <trkpt lat="42.97236" lon="0.33257">
        <ele>1756.3</ele>
        <time>2026-07-07T07:51:54Z</time>
      </trkpt>
      <trkpt lat="42.97235" lon="0.33256">
        <ele>1755.3</ele>
        <time>2026-07-07T07:51:55Z</time>
      </trkpt>
      <trkpt lat="42.97234" lon="0.33254">
        <ele>1755.3</ele>
        <time>2026-07-07T07:51:56Z</time>
      </trkpt>
      <trkpt lat="42.97234" lon="0.33254">
        <ele>1755.3</ele>
        <time>2026-07-07T07:51:56Z</time>
      </trkpt>
      <trkpt lat="42.97233" lon="0.33253">
        <ele>1755.3</ele>
        <time>2026-07-07T07:51:57Z</time>
      </trkpt>
      <trkpt lat="42.97233" lon="0.33252">
        <ele>1755.3</ele>
        <time>2026-07-07T07:51:58Z</time>
      </trkpt>
      <trkpt lat="42.97233" lon="0.33252">
        <ele>1755.3</ele>
        <time>2026-07-07T07:51:58Z</time>
      </trkpt>
      <trkpt lat="42.97232" lon="0.33251">
        <ele>1755.3</ele>
        <time>2026-07-07T07:51:59Z</time>
      </trkpt>
      <trkpt lat="42.97232" lon="0.3325">
        <ele>1755.3</ele>
        <time>2026-07-07T07:51:59Z</time>
      </trkpt>
      <trkpt lat="42.97232" lon="0.33249">
        <ele>1755.3</ele>
        <time>2026-07-07T07:52:00Z</time>
      </trkpt>
      <trkpt lat="42.97231" lon="0.33248">
        <ele>1755.3</ele>
        <time>2026-07-07T07:52:00Z</time>
      </trkpt>
      <trkpt lat="42.97231" lon="0.33248">
        <ele>1755.3</ele>
        <time>2026-07-07T07:52:01Z</time>
      </trkpt>
      <trkpt lat="42.97231" lon="0.33247">
        <ele>1755.3</ele>
        <time>2026-07-07T07:52:01Z</time>
      </trkpt>
      <trkpt lat="42.9723" lon="0.33246">
        <ele>1755.3</ele>
        <time>2026-07-07T07:52:02Z</time>
      </trkpt>
      <trkpt lat="42.9723" lon="0.33246">
        <ele>1755.3</ele>
        <time>2026-07-07T07:52:02Z</time>
      </trkpt>
      <trkpt lat="42.97229" lon="0.33245">
        <ele>1755.3</ele>
        <time>2026-07-07T07:52:03Z</time>
      </trkpt>
      <trkpt lat="42.97229" lon="0.33244">
        <ele>1755.3</ele>
        <time>2026-07-07T07:52:04Z</time>
      </trkpt>
      <trkpt lat="42.97228" lon="0.33244">
        <ele>1755.3</ele>
        <time>2026-07-07T07:52:04Z</time>
      </trkpt>
      <trkpt lat="42.97228" lon="0.33243">
        <ele>1754.3</ele>
        <time>2026-07-07T07:52:05Z</time>
      </trkpt>
      <trkpt lat="42.97227" lon="0.33241">
        <ele>1754.3</ele>
        <time>2026-07-07T07:52:06Z</time>
      </trkpt>
      <trkpt lat="42.97227" lon="0.33241">
        <ele>1754.3</ele>
        <time>2026-07-07T07:52:06Z</time>
      </trkpt>
      <trkpt lat="42.97226" lon="0.3324">
        <ele>1753.3</ele>
        <time>2026-07-07T07:52:07Z</time>
      </trkpt>
      <trkpt lat="42.97226" lon="0.33239">
        <ele>1753.3</ele>
        <time>2026-07-07T07:52:07Z</time>
      </trkpt>
      <trkpt lat="42.97226" lon="0.33239">
        <ele>1753.3</ele>
        <time>2026-07-07T07:52:08Z</time>
      </trkpt>
      <trkpt lat="42.97225" lon="0.33238">
        <ele>1754.3</ele>
        <time>2026-07-07T07:52:09Z</time>
      </trkpt>
      <trkpt lat="42.97225" lon="0.33237">
        <ele>1754.3</ele>
        <time>2026-07-07T07:52:09Z</time>
      </trkpt>
      <trkpt lat="42.97225" lon="0.33236">
        <ele>1754.3</ele>
        <time>2026-07-07T07:52:10Z</time>
      </trkpt>
      <trkpt lat="42.97224" lon="0.33235">
        <ele>1754.3</ele>
        <time>2026-07-07T07:52:10Z</time>
      </trkpt>
      <trkpt lat="42.97224" lon="0.33235">
        <ele>1754.3</ele>
        <time>2026-07-07T07:52:11Z</time>
      </trkpt>
      <trkpt lat="42.97224" lon="0.33234">
        <ele>1754.3</ele>
        <time>2026-07-07T07:52:11Z</time>
      </trkpt>
      <trkpt lat="42.97223" lon="0.33233">
        <ele>1754.3</ele>
        <time>2026-07-07T07:52:12Z</time>
      </trkpt>
      <trkpt lat="42.97223" lon="0.33232">
        <ele>1754.3</ele>
        <time>2026-07-07T07:52:13Z</time>
      </trkpt>
      <trkpt lat="42.97222" lon="0.33231">
        <ele>1754.3</ele>
        <time>2026-07-07T07:52:13Z</time>
      </trkpt>
      <trkpt lat="42.97222" lon="0.3323">
        <ele>1754.3</ele>
        <time>2026-07-07T07:52:14Z</time>
      </trkpt>
      <trkpt lat="42.97221" lon="0.33229">
        <ele>1754.3</ele>
        <time>2026-07-07T07:52:15Z</time>
      </trkpt>
      <trkpt lat="42.97221" lon="0.33229">
        <ele>1754.3</ele>
        <time>2026-07-07T07:52:15Z</time>
      </trkpt>
      <trkpt lat="42.97221" lon="0.33228">
        <ele>1754.3</ele>
        <time>2026-07-07T07:52:16Z</time>
      </trkpt>
      <trkpt lat="42.9722" lon="0.33228">
        <ele>1754.3</ele>
        <time>2026-07-07T07:52:16Z</time>
      </trkpt>
      <trkpt lat="42.9722" lon="0.33227">
        <ele>1754.3</ele>
        <time>2026-07-07T07:52:17Z</time>
      </trkpt>
      <trkpt lat="42.97219" lon="0.33226">
        <ele>1753.3</ele>
        <time>2026-07-07T07:52:17Z</time>
      </trkpt>
      <trkpt lat="42.97219" lon="0.33226">
        <ele>1753.3</ele>
        <time>2026-07-07T07:52:18Z</time>
      </trkpt>
      <trkpt lat="42.97219" lon="0.33225">
        <ele>1753.3</ele>
        <time>2026-07-07T07:52:19Z</time>
      </trkpt>
      <trkpt lat="42.97218" lon="0.33224">
        <ele>1753.3</ele>
        <time>2026-07-07T07:52:19Z</time>
      </trkpt>
      <trkpt lat="42.97218" lon="0.33224">
        <ele>1753.3</ele>
        <time>2026-07-07T07:52:20Z</time>
      </trkpt>
      <trkpt lat="42.97218" lon="0.33223">
        <ele>1754.3</ele>
        <time>2026-07-07T07:52:20Z</time>
      </trkpt>
      <trkpt lat="42.97217" lon="0.33222">
        <ele>1754.3</ele>
        <time>2026-07-07T07:52:21Z</time>
      </trkpt>
      <trkpt lat="42.97217" lon="0.33222">
        <ele>1754.3</ele>
        <time>2026-07-07T07:52:21Z</time>
      </trkpt>
      <trkpt lat="42.97217" lon="0.33221">
        <ele>1754.3</ele>
        <time>2026-07-07T07:52:22Z</time>
      </trkpt>
      <trkpt lat="42.97217" lon="0.3322">
        <ele>1754.3</ele>
        <time>2026-07-07T07:52:23Z</time>
      </trkpt>
      <trkpt lat="42.97216" lon="0.33219">
        <ele>1754.3</ele>
        <time>2026-07-07T07:52:23Z</time>
      </trkpt>
      <trkpt lat="42.97216" lon="0.33218">
        <ele>1754.3</ele>
        <time>2026-07-07T07:52:24Z</time>
      </trkpt>
      <trkpt lat="42.97216" lon="0.33218">
        <ele>1754.3</ele>
        <time>2026-07-07T07:52:24Z</time>
      </trkpt>
      <trkpt lat="42.97216" lon="0.33217">
        <ele>1754.3</ele>
        <time>2026-07-07T07:52:25Z</time>
      </trkpt>
      <trkpt lat="42.97215" lon="0.33216">
        <ele>1754.3</ele>
        <time>2026-07-07T07:52:25Z</time>
      </trkpt>
      <trkpt lat="42.97215" lon="0.33215">
        <ele>1754.3</ele>
        <time>2026-07-07T07:52:26Z</time>
      </trkpt>
      <trkpt lat="42.97215" lon="0.33214">
        <ele>1754.3</ele>
        <time>2026-07-07T07:52:27Z</time>
      </trkpt>
      <trkpt lat="42.97214" lon="0.33213">
        <ele>1754.3</ele>
        <time>2026-07-07T07:52:27Z</time>
      </trkpt>
      <trkpt lat="42.97214" lon="0.33212">
        <ele>1754.3</ele>
        <time>2026-07-07T07:52:28Z</time>
      </trkpt>
      <trkpt lat="42.97214" lon="0.33211">
        <ele>1754.3</ele>
        <time>2026-07-07T07:52:28Z</time>
      </trkpt>
      <trkpt lat="42.97214" lon="0.3321">
        <ele>1753.3</ele>
        <time>2026-07-07T07:52:29Z</time>
      </trkpt>
      <trkpt lat="42.97214" lon="0.3321">
        <ele>1754.3</ele>
        <time>2026-07-07T07:52:29Z</time>
      </trkpt>
      <trkpt lat="42.97214" lon="0.33209">
        <ele>1754.3</ele>
        <time>2026-07-07T07:52:30Z</time>
      </trkpt>
      <trkpt lat="42.97213" lon="0.33208">
        <ele>1753.3</ele>
        <time>2026-07-07T07:52:30Z</time>
      </trkpt>
      <trkpt lat="42.97213" lon="0.33207">
        <ele>1753.3</ele>
        <time>2026-07-07T07:52:31Z</time>
      </trkpt>
      <trkpt lat="42.97213" lon="0.33207">
        <ele>1753.3</ele>
        <time>2026-07-07T07:52:32Z</time>
      </trkpt>
      <trkpt lat="42.97213" lon="0.33206">
        <ele>1753.3</ele>
        <time>2026-07-07T07:52:32Z</time>
      </trkpt>
      <trkpt lat="42.97213" lon="0.33205">
        <ele>1753.3</ele>
        <time>2026-07-07T07:52:33Z</time>
      </trkpt>
      <trkpt lat="42.97213" lon="0.33205">
        <ele>1753.3</ele>
        <time>2026-07-07T07:52:33Z</time>
      </trkpt>
      <trkpt lat="42.97213" lon="0.33204">
        <ele>1754.3</ele>
        <time>2026-07-07T07:52:34Z</time>
      </trkpt>
      <trkpt lat="42.97212" lon="0.33203">
        <ele>1754.3</ele>
        <time>2026-07-07T07:52:34Z</time>
      </trkpt>
      <trkpt lat="42.97212" lon="0.33203">
        <ele>1754.3</ele>
        <time>2026-07-07T07:52:35Z</time>
      </trkpt>
      <trkpt lat="42.97212" lon="0.33202">
        <ele>1754.3</ele>
        <time>2026-07-07T07:52:35Z</time>
      </trkpt>
      <trkpt lat="42.97212" lon="0.33201">
        <ele>1753.3</ele>
        <time>2026-07-07T07:52:36Z</time>
      </trkpt>
      <trkpt lat="42.97212" lon="0.33199">
        <ele>1753.3</ele>
        <time>2026-07-07T07:52:37Z</time>
      </trkpt>
      <trkpt lat="42.97212" lon="0.33198">
        <ele>1753.3</ele>
        <time>2026-07-07T07:52:37Z</time>
      </trkpt>
      <trkpt lat="42.97212" lon="0.33197">
        <ele>1753.3</ele>
        <time>2026-07-07T07:52:38Z</time>
      </trkpt>
      <trkpt lat="42.97211" lon="0.33195">
        <ele>1753.3</ele>
        <time>2026-07-07T07:52:39Z</time>
      </trkpt>
      <trkpt lat="42.97211" lon="0.33194">
        <ele>1752.3</ele>
        <time>2026-07-07T07:52:40Z</time>
      </trkpt>
      <trkpt lat="42.97211" lon="0.33194">
        <ele>1753.3</ele>
        <time>2026-07-07T07:52:40Z</time>
      </trkpt>
      <trkpt lat="42.97211" lon="0.33193">
        <ele>1753.3</ele>
        <time>2026-07-07T07:52:41Z</time>
      </trkpt>
      <trkpt lat="42.97211" lon="0.33192">
        <ele>1753.3</ele>
        <time>2026-07-07T07:52:41Z</time>
      </trkpt>
      <trkpt lat="42.97211" lon="0.33191">
        <ele>1753.3</ele>
        <time>2026-07-07T07:52:42Z</time>
      </trkpt>
      <trkpt lat="42.9721" lon="0.33189">
        <ele>1753.3</ele>
        <time>2026-07-07T07:52:43Z</time>
      </trkpt>
      <trkpt lat="42.9721" lon="0.33188">
        <ele>1753.3</ele>
        <time>2026-07-07T07:52:43Z</time>
      </trkpt>
      <trkpt lat="42.9721" lon="0.33188">
        <ele>1753.3</ele>
        <time>2026-07-07T07:52:44Z</time>
      </trkpt>
      <trkpt lat="42.9721" lon="0.33187">
        <ele>1753.3</ele>
        <time>2026-07-07T07:52:45Z</time>
      </trkpt>
      <trkpt lat="42.97209" lon="0.33186">
        <ele>1753.3</ele>
        <time>2026-07-07T07:52:45Z</time>
      </trkpt>
      <trkpt lat="42.97209" lon="0.33185">
        <ele>1753.3</ele>
        <time>2026-07-07T07:52:46Z</time>
      </trkpt>
      <trkpt lat="42.97209" lon="0.33184">
        <ele>1753.3</ele>
        <time>2026-07-07T07:52:47Z</time>
      </trkpt>
      <trkpt lat="42.97209" lon="0.33183">
        <ele>1752.3</ele>
        <time>2026-07-07T07:52:47Z</time>
      </trkpt>
      <trkpt lat="42.97209" lon="0.33182">
        <ele>1752.3</ele>
        <time>2026-07-07T07:52:48Z</time>
      </trkpt>
      <trkpt lat="42.97209" lon="0.33181">
        <ele>1752.3</ele>
        <time>2026-07-07T07:52:48Z</time>
      </trkpt>
      <trkpt lat="42.97209" lon="0.3318">
        <ele>1752.3</ele>
        <time>2026-07-07T07:52:49Z</time>
      </trkpt>
      <trkpt lat="42.97209" lon="0.33179">
        <ele>1752.3</ele>
        <time>2026-07-07T07:52:50Z</time>
      </trkpt>
      <trkpt lat="42.97209" lon="0.33177">
        <ele>1752.3</ele>
        <time>2026-07-07T07:52:51Z</time>
      </trkpt>
      <trkpt lat="42.97209" lon="0.33176">
        <ele>1752.3</ele>
        <time>2026-07-07T07:52:51Z</time>
      </trkpt>
      <trkpt lat="42.97209" lon="0.33175">
        <ele>1752.3</ele>
        <time>2026-07-07T07:52:52Z</time>
      </trkpt>
      <trkpt lat="42.97208" lon="0.33175">
        <ele>1752.3</ele>
        <time>2026-07-07T07:52:53Z</time>
      </trkpt>
      <trkpt lat="42.97208" lon="0.33173">
        <ele>1752.3</ele>
        <time>2026-07-07T07:52:53Z</time>
      </trkpt>
      <trkpt lat="42.97208" lon="0.33172">
        <ele>1751.3</ele>
        <time>2026-07-07T07:52:54Z</time>
      </trkpt>
      <trkpt lat="42.97208" lon="0.33171">
        <ele>1751.3</ele>
        <time>2026-07-07T07:52:55Z</time>
      </trkpt>
      <trkpt lat="42.97208" lon="0.3317">
        <ele>1751.3</ele>
        <time>2026-07-07T07:52:55Z</time>
      </trkpt>
      <trkpt lat="42.97208" lon="0.33169">
        <ele>1751.3</ele>
        <time>2026-07-07T07:52:56Z</time>
      </trkpt>
      <trkpt lat="42.97208" lon="0.33168">
        <ele>1751.3</ele>
        <time>2026-07-07T07:52:56Z</time>
      </trkpt>
      <trkpt lat="42.97208" lon="0.33167">
        <ele>1751.3</ele>
        <time>2026-07-07T07:52:57Z</time>
      </trkpt>
      <trkpt lat="42.97208" lon="0.33166">
        <ele>1751.3</ele>
        <time>2026-07-07T07:52:57Z</time>
      </trkpt>
      <trkpt lat="42.97208" lon="0.33165">
        <ele>1751.3</ele>
        <time>2026-07-07T07:52:58Z</time>
      </trkpt>
      <trkpt lat="42.97208" lon="0.33164">
        <ele>1750.3</ele>
        <time>2026-07-07T07:52:58Z</time>
      </trkpt>
      <trkpt lat="42.97208" lon="0.33163">
        <ele>1750.3</ele>
        <time>2026-07-07T07:52:59Z</time>
      </trkpt>
      <trkpt lat="42.97208" lon="0.33162">
        <ele>1751.3</ele>
        <time>2026-07-07T07:53:00Z</time>
      </trkpt>
      <trkpt lat="42.97208" lon="0.33161">
        <ele>1751.3</ele>
        <time>2026-07-07T07:53:00Z</time>
      </trkpt>
      <trkpt lat="42.97208" lon="0.3316">
        <ele>1751.3</ele>
        <time>2026-07-07T07:53:01Z</time>
      </trkpt>
      <trkpt lat="42.97208" lon="0.33159">
        <ele>1751.3</ele>
        <time>2026-07-07T07:53:01Z</time>
      </trkpt>
      <trkpt lat="42.97208" lon="0.33158">
        <ele>1751.3</ele>
        <time>2026-07-07T07:53:02Z</time>
      </trkpt>
      <trkpt lat="42.97208" lon="0.33157">
        <ele>1751.3</ele>
        <time>2026-07-07T07:53:02Z</time>
      </trkpt>
      <trkpt lat="42.97208" lon="0.33156">
        <ele>1751.3</ele>
        <time>2026-07-07T07:53:03Z</time>
      </trkpt>
      <trkpt lat="42.97208" lon="0.33154">
        <ele>1751.3</ele>
        <time>2026-07-07T07:53:04Z</time>
      </trkpt>
      <trkpt lat="42.97208" lon="0.33153">
        <ele>1751.3</ele>
        <time>2026-07-07T07:53:04Z</time>
      </trkpt>
      <trkpt lat="42.97208" lon="0.33152">
        <ele>1751.3</ele>
        <time>2026-07-07T07:53:05Z</time>
      </trkpt>
      <trkpt lat="42.97208" lon="0.33151">
        <ele>1751.3</ele>
        <time>2026-07-07T07:53:06Z</time>
      </trkpt>
      <trkpt lat="42.97208" lon="0.3315">
        <ele>1751.3</ele>
        <time>2026-07-07T07:53:06Z</time>
      </trkpt>
      <trkpt lat="42.97208" lon="0.33149">
        <ele>1751.3</ele>
        <time>2026-07-07T07:53:07Z</time>
      </trkpt>
      <trkpt lat="42.97208" lon="0.33149">
        <ele>1751.3</ele>
        <time>2026-07-07T07:53:08Z</time>
      </trkpt>
      <trkpt lat="42.97208" lon="0.33148">
        <ele>1751.3</ele>
        <time>2026-07-07T07:53:08Z</time>
      </trkpt>
      <trkpt lat="42.97208" lon="0.33147">
        <ele>1751.3</ele>
        <time>2026-07-07T07:53:09Z</time>
      </trkpt>
      <trkpt lat="42.97208" lon="0.33146">
        <ele>1751.3</ele>
        <time>2026-07-07T07:53:09Z</time>
      </trkpt>
      <trkpt lat="42.97208" lon="0.33145">
        <ele>1751.3</ele>
        <time>2026-07-07T07:53:10Z</time>
      </trkpt>
      <trkpt lat="42.97209" lon="0.33143">
        <ele>1751.3</ele>
        <time>2026-07-07T07:53:11Z</time>
      </trkpt>
      <trkpt lat="42.97209" lon="0.33142">
        <ele>1751.3</ele>
        <time>2026-07-07T07:53:12Z</time>
      </trkpt>
      <trkpt lat="42.97209" lon="0.33141">
        <ele>1750.3</ele>
        <time>2026-07-07T07:53:12Z</time>
      </trkpt>
      <trkpt lat="42.97209" lon="0.33141">
        <ele>1750.3</ele>
        <time>2026-07-07T07:53:13Z</time>
      </trkpt>
      <trkpt lat="42.97209" lon="0.3314">
        <ele>1750.3</ele>
        <time>2026-07-07T07:53:14Z</time>
      </trkpt>
      <trkpt lat="42.97209" lon="0.33139">
        <ele>1750.3</ele>
        <time>2026-07-07T07:53:14Z</time>
      </trkpt>
      <trkpt lat="42.97209" lon="0.33138">
        <ele>1751.3</ele>
        <time>2026-07-07T07:53:15Z</time>
      </trkpt>
      <trkpt lat="42.97209" lon="0.33137">
        <ele>1751.3</ele>
        <time>2026-07-07T07:53:15Z</time>
      </trkpt>
      <trkpt lat="42.97209" lon="0.33136">
        <ele>1751.3</ele>
        <time>2026-07-07T07:53:16Z</time>
      </trkpt>
      <trkpt lat="42.97209" lon="0.33136">
        <ele>1752.3</ele>
        <time>2026-07-07T07:53:17Z</time>
      </trkpt>
      <trkpt lat="42.97209" lon="0.33135">
        <ele>1752.3</ele>
        <time>2026-07-07T07:53:17Z</time>
      </trkpt>
      <trkpt lat="42.97209" lon="0.33134">
        <ele>1753.3</ele>
        <time>2026-07-07T07:53:18Z</time>
      </trkpt>
      <trkpt lat="42.97209" lon="0.33133">
        <ele>1753.3</ele>
        <time>2026-07-07T07:53:18Z</time>
      </trkpt>
      <trkpt lat="42.97208" lon="0.33132">
        <ele>1753.3</ele>
        <time>2026-07-07T07:53:19Z</time>
      </trkpt>
      <trkpt lat="42.97208" lon="0.33131">
        <ele>1753.3</ele>
        <time>2026-07-07T07:53:20Z</time>
      </trkpt>
      <trkpt lat="42.97208" lon="0.3313">
        <ele>1753.3</ele>
        <time>2026-07-07T07:53:20Z</time>
      </trkpt>
      <trkpt lat="42.97208" lon="0.33129">
        <ele>1753.3</ele>
        <time>2026-07-07T07:53:21Z</time>
      </trkpt>
      <trkpt lat="42.97208" lon="0.33128">
        <ele>1753.3</ele>
        <time>2026-07-07T07:53:21Z</time>
      </trkpt>
      <trkpt lat="42.97208" lon="0.33128">
        <ele>1753.3</ele>
        <time>2026-07-07T07:53:22Z</time>
      </trkpt>
      <trkpt lat="42.97208" lon="0.33127">
        <ele>1753.3</ele>
        <time>2026-07-07T07:53:23Z</time>
      </trkpt>
      <trkpt lat="42.97207" lon="0.33126">
        <ele>1752.3</ele>
        <time>2026-07-07T07:53:23Z</time>
      </trkpt>
      <trkpt lat="42.97207" lon="0.33124">
        <ele>1752.3</ele>
        <time>2026-07-07T07:53:24Z</time>
      </trkpt>
      <trkpt lat="42.97207" lon="0.33124">
        <ele>1752.3</ele>
        <time>2026-07-07T07:53:25Z</time>
      </trkpt>
      <trkpt lat="42.97207" lon="0.33123">
        <ele>1752.3</ele>
        <time>2026-07-07T07:53:25Z</time>
      </trkpt>
      <trkpt lat="42.97207" lon="0.33122">
        <ele>1753.3</ele>
        <time>2026-07-07T07:53:26Z</time>
      </trkpt>
      <trkpt lat="42.97207" lon="0.33121">
        <ele>1752.3</ele>
        <time>2026-07-07T07:53:26Z</time>
      </trkpt>
      <trkpt lat="42.97207" lon="0.3312">
        <ele>1752.3</ele>
        <time>2026-07-07T07:53:27Z</time>
      </trkpt>
      <trkpt lat="42.97207" lon="0.33119">
        <ele>1752.3</ele>
        <time>2026-07-07T07:53:28Z</time>
      </trkpt>
      <trkpt lat="42.97207" lon="0.33118">
        <ele>1752.3</ele>
        <time>2026-07-07T07:53:28Z</time>
      </trkpt>
      <trkpt lat="42.97207" lon="0.33117">
        <ele>1752.3</ele>
        <time>2026-07-07T07:53:29Z</time>
      </trkpt>
      <trkpt lat="42.97207" lon="0.33117">
        <ele>1752.3</ele>
        <time>2026-07-07T07:53:30Z</time>
      </trkpt>
      <trkpt lat="42.97206" lon="0.33116">
        <ele>1752.3</ele>
        <time>2026-07-07T07:53:30Z</time>
      </trkpt>
      <trkpt lat="42.97206" lon="0.33115">
        <ele>1752.3</ele>
        <time>2026-07-07T07:53:31Z</time>
      </trkpt>
      <trkpt lat="42.97206" lon="0.33114">
        <ele>1752.3</ele>
        <time>2026-07-07T07:53:31Z</time>
      </trkpt>
      <trkpt lat="42.97206" lon="0.33113">
        <ele>1752.3</ele>
        <time>2026-07-07T07:53:32Z</time>
      </trkpt>
      <trkpt lat="42.97206" lon="0.33112">
        <ele>1753.3</ele>
        <time>2026-07-07T07:53:33Z</time>
      </trkpt>
      <trkpt lat="42.97207" lon="0.33112">
        <ele>1753.3</ele>
        <time>2026-07-07T07:53:33Z</time>
      </trkpt>
      <trkpt lat="42.97207" lon="0.33111">
        <ele>1753.3</ele>
        <time>2026-07-07T07:53:34Z</time>
      </trkpt>
      <trkpt lat="42.97207" lon="0.3311">
        <ele>1753.3</ele>
        <time>2026-07-07T07:53:35Z</time>
      </trkpt>
      <trkpt lat="42.97207" lon="0.3311">
        <ele>1753.3</ele>
        <time>2026-07-07T07:53:35Z</time>
      </trkpt>
      <trkpt lat="42.97208" lon="0.33109">
        <ele>1753.3</ele>
        <time>2026-07-07T07:53:36Z</time>
      </trkpt>
      <trkpt lat="42.97208" lon="0.33108">
        <ele>1753.3</ele>
        <time>2026-07-07T07:53:37Z</time>
      </trkpt>
      <trkpt lat="42.97208" lon="0.33107">
        <ele>1753.3</ele>
        <time>2026-07-07T07:53:37Z</time>
      </trkpt>
      <trkpt lat="42.97207" lon="0.33107">
        <ele>1753.3</ele>
        <time>2026-07-07T07:53:38Z</time>
      </trkpt>
      <trkpt lat="42.97207" lon="0.33106">
        <ele>1754.3</ele>
        <time>2026-07-07T07:53:39Z</time>
      </trkpt>
      <trkpt lat="42.97207" lon="0.33105">
        <ele>1754.3</ele>
        <time>2026-07-07T07:53:39Z</time>
      </trkpt>
      <trkpt lat="42.97207" lon="0.33104">
        <ele>1754.3</ele>
        <time>2026-07-07T07:53:40Z</time>
      </trkpt>
      <trkpt lat="42.97207" lon="0.33104">
        <ele>1755.3</ele>
        <time>2026-07-07T07:53:41Z</time>
      </trkpt>
      <trkpt lat="42.97207" lon="0.33103">
        <ele>1755.3</ele>
        <time>2026-07-07T07:53:41Z</time>
      </trkpt>
      <trkpt lat="42.97207" lon="0.33102">
        <ele>1754.3</ele>
        <time>2026-07-07T07:53:42Z</time>
      </trkpt>
      <trkpt lat="42.97208" lon="0.33101">
        <ele>1755.3</ele>
        <time>2026-07-07T07:53:43Z</time>
      </trkpt>
      <trkpt lat="42.97208" lon="0.33101">
        <ele>1755.3</ele>
        <time>2026-07-07T07:53:43Z</time>
      </trkpt>
      <trkpt lat="42.97208" lon="0.331">
        <ele>1755.3</ele>
        <time>2026-07-07T07:53:44Z</time>
      </trkpt>
      <trkpt lat="42.97208" lon="0.33099">
        <ele>1754.3</ele>
        <time>2026-07-07T07:53:44Z</time>
      </trkpt>
      <trkpt lat="42.97208" lon="0.33098">
        <ele>1754.3</ele>
        <time>2026-07-07T07:53:45Z</time>
      </trkpt>
      <trkpt lat="42.97208" lon="0.33097">
        <ele>1754.3</ele>
        <time>2026-07-07T07:53:46Z</time>
      </trkpt>
      <trkpt lat="42.97208" lon="0.33097">
        <ele>1755.3</ele>
        <time>2026-07-07T07:53:46Z</time>
      </trkpt>
      <trkpt lat="42.97208" lon="0.33096">
        <ele>1755.3</ele>
        <time>2026-07-07T07:53:47Z</time>
      </trkpt>
      <trkpt lat="42.97208" lon="0.33095">
        <ele>1755.3</ele>
        <time>2026-07-07T07:53:47Z</time>
      </trkpt>
      <trkpt lat="42.97208" lon="0.33094">
        <ele>1755.3</ele>
        <time>2026-07-07T07:53:48Z</time>
      </trkpt>
      <trkpt lat="42.97208" lon="0.33093">
        <ele>1756.3</ele>
        <time>2026-07-07T07:53:49Z</time>
      </trkpt>
      <trkpt lat="42.97209" lon="0.33092">
        <ele>1756.3</ele>
        <time>2026-07-07T07:53:49Z</time>
      </trkpt>
      <trkpt lat="42.97209" lon="0.33091">
        <ele>1756.3</ele>
        <time>2026-07-07T07:53:50Z</time>
      </trkpt>
      <trkpt lat="42.97209" lon="0.3309">
        <ele>1755.3</ele>
        <time>2026-07-07T07:53:51Z</time>
      </trkpt>
      <trkpt lat="42.97209" lon="0.33089">
        <ele>1755.3</ele>
        <time>2026-07-07T07:53:51Z</time>
      </trkpt>
      <trkpt lat="42.97209" lon="0.33088">
        <ele>1755.3</ele>
        <time>2026-07-07T07:53:52Z</time>
      </trkpt>
      <trkpt lat="42.97209" lon="0.33088">
        <ele>1755.3</ele>
        <time>2026-07-07T07:53:52Z</time>
      </trkpt>
      <trkpt lat="42.9721" lon="0.33087">
        <ele>1755.3</ele>
        <time>2026-07-07T07:53:53Z</time>
      </trkpt>
      <trkpt lat="42.9721" lon="0.33086">
        <ele>1755.3</ele>
        <time>2026-07-07T07:53:54Z</time>
      </trkpt>
      <trkpt lat="42.9721" lon="0.33085">
        <ele>1755.3</ele>
        <time>2026-07-07T07:53:54Z</time>
      </trkpt>
      <trkpt lat="42.9721" lon="0.33084">
        <ele>1755.3</ele>
        <time>2026-07-07T07:53:55Z</time>
      </trkpt>
      <trkpt lat="42.9721" lon="0.33083">
        <ele>1756.3</ele>
        <time>2026-07-07T07:53:55Z</time>
      </trkpt>
      <trkpt lat="42.9721" lon="0.33082">
        <ele>1756.3</ele>
        <time>2026-07-07T07:53:56Z</time>
      </trkpt>
      <trkpt lat="42.97209" lon="0.33081">
        <ele>1755.3</ele>
        <time>2026-07-07T07:53:57Z</time>
      </trkpt>
      <trkpt lat="42.97209" lon="0.3308">
        <ele>1756.3</ele>
        <time>2026-07-07T07:53:57Z</time>
      </trkpt>
      <trkpt lat="42.97209" lon="0.33079">
        <ele>1756.3</ele>
        <time>2026-07-07T07:53:58Z</time>
      </trkpt>
      <trkpt lat="42.97208" lon="0.33078">
        <ele>1756.3</ele>
        <time>2026-07-07T07:53:59Z</time>
      </trkpt>
      <trkpt lat="42.97208" lon="0.33077">
        <ele>1756.3</ele>
        <time>2026-07-07T07:53:59Z</time>
      </trkpt>
      <trkpt lat="42.97208" lon="0.33076">
        <ele>1757.3</ele>
        <time>2026-07-07T07:54:00Z</time>
      </trkpt>
      <trkpt lat="42.97208" lon="0.33075">
        <ele>1757.3</ele>
        <time>2026-07-07T07:54:00Z</time>
      </trkpt>
      <trkpt lat="42.97207" lon="0.33074">
        <ele>1757.3</ele>
        <time>2026-07-07T07:54:01Z</time>
      </trkpt>
      <trkpt lat="42.97207" lon="0.33074">
        <ele>1757.3</ele>
        <time>2026-07-07T07:54:02Z</time>
      </trkpt>
      <trkpt lat="42.97207" lon="0.33073">
        <ele>1757.3</ele>
        <time>2026-07-07T07:54:02Z</time>
      </trkpt>
      <trkpt lat="42.97207" lon="0.33072">
        <ele>1757.3</ele>
        <time>2026-07-07T07:54:03Z</time>
      </trkpt>
      <trkpt lat="42.97207" lon="0.33071">
        <ele>1757.3</ele>
        <time>2026-07-07T07:54:03Z</time>
      </trkpt>
      <trkpt lat="42.97207" lon="0.3307">
        <ele>1757.3</ele>
        <time>2026-07-07T07:54:04Z</time>
      </trkpt>
      <trkpt lat="42.97207" lon="0.33069">
        <ele>1757.3</ele>
        <time>2026-07-07T07:54:04Z</time>
      </trkpt>
      <trkpt lat="42.97207" lon="0.33067">
        <ele>1757.3</ele>
        <time>2026-07-07T07:54:05Z</time>
      </trkpt>
      <trkpt lat="42.97206" lon="0.33066">
        <ele>1757.3</ele>
        <time>2026-07-07T07:54:06Z</time>
      </trkpt>
      <trkpt lat="42.97206" lon="0.33065">
        <ele>1758.3</ele>
        <time>2026-07-07T07:54:07Z</time>
      </trkpt>
      <trkpt lat="42.97206" lon="0.33064">
        <ele>1758.3</ele>
        <time>2026-07-07T07:54:07Z</time>
      </trkpt>
      <trkpt lat="42.97205" lon="0.33063">
        <ele>1757.3</ele>
        <time>2026-07-07T07:54:08Z</time>
      </trkpt>
      <trkpt lat="42.97205" lon="0.33063">
        <ele>1757.3</ele>
        <time>2026-07-07T07:54:08Z</time>
      </trkpt>
      <trkpt lat="42.97205" lon="0.33062">
        <ele>1757.3</ele>
        <time>2026-07-07T07:54:09Z</time>
      </trkpt>
      <trkpt lat="42.97204" lon="0.33061">
        <ele>1757.3</ele>
        <time>2026-07-07T07:54:09Z</time>
      </trkpt>
      <trkpt lat="42.97204" lon="0.3306">
        <ele>1757.3</ele>
        <time>2026-07-07T07:54:10Z</time>
      </trkpt>
      <trkpt lat="42.97204" lon="0.33059">
        <ele>1757.3</ele>
        <time>2026-07-07T07:54:11Z</time>
      </trkpt>
      <trkpt lat="42.97203" lon="0.33058">
        <ele>1757.3</ele>
        <time>2026-07-07T07:54:11Z</time>
      </trkpt>
      <trkpt lat="42.97203" lon="0.33057">
        <ele>1757.3</ele>
        <time>2026-07-07T07:54:12Z</time>
      </trkpt>
      <trkpt lat="42.97203" lon="0.33056">
        <ele>1757.3</ele>
        <time>2026-07-07T07:54:12Z</time>
      </trkpt>
      <trkpt lat="42.97202" lon="0.33056">
        <ele>1757.3</ele>
        <time>2026-07-07T07:54:13Z</time>
      </trkpt>
      <trkpt lat="42.97202" lon="0.33055">
        <ele>1757.3</ele>
        <time>2026-07-07T07:54:14Z</time>
      </trkpt>
      <trkpt lat="42.97202" lon="0.33054">
        <ele>1757.3</ele>
        <time>2026-07-07T07:54:14Z</time>
      </trkpt>
      <trkpt lat="42.97202" lon="0.33053">
        <ele>1756.3</ele>
        <time>2026-07-07T07:54:15Z</time>
      </trkpt>
      <trkpt lat="42.97201" lon="0.33052">
        <ele>1756.3</ele>
        <time>2026-07-07T07:54:15Z</time>
      </trkpt>
      <trkpt lat="42.97201" lon="0.33051">
        <ele>1756.3</ele>
        <time>2026-07-07T07:54:16Z</time>
      </trkpt>
      <trkpt lat="42.97201" lon="0.33051">
        <ele>1757.3</ele>
        <time>2026-07-07T07:54:17Z</time>
      </trkpt>
      <trkpt lat="42.97201" lon="0.3305">
        <ele>1757.3</ele>
        <time>2026-07-07T07:54:17Z</time>
      </trkpt>
      <trkpt lat="42.972" lon="0.33049">
        <ele>1758.3</ele>
        <time>2026-07-07T07:54:18Z</time>
      </trkpt>
      <trkpt lat="42.972" lon="0.33048">
        <ele>1758.3</ele>
        <time>2026-07-07T07:54:18Z</time>
      </trkpt>
      <trkpt lat="42.972" lon="0.33047">
        <ele>1758.3</ele>
        <time>2026-07-07T07:54:19Z</time>
      </trkpt>
      <trkpt lat="42.972" lon="0.33046">
        <ele>1758.3</ele>
        <time>2026-07-07T07:54:19Z</time>
      </trkpt>
      <trkpt lat="42.97199" lon="0.33045">
        <ele>1758.3</ele>
        <time>2026-07-07T07:54:20Z</time>
      </trkpt>
      <trkpt lat="42.97199" lon="0.33044">
        <ele>1759.3</ele>
        <time>2026-07-07T07:54:21Z</time>
      </trkpt>
      <trkpt lat="42.97198" lon="0.33044">
        <ele>1759.3</ele>
        <time>2026-07-07T07:54:21Z</time>
      </trkpt>
      <trkpt lat="42.97198" lon="0.33043">
        <ele>1759.3</ele>
        <time>2026-07-07T07:54:22Z</time>
      </trkpt>
      <trkpt lat="42.97198" lon="0.33043">
        <ele>1759.3</ele>
        <time>2026-07-07T07:54:22Z</time>
      </trkpt>
      <trkpt lat="42.97197" lon="0.33042">
        <ele>1759.3</ele>
        <time>2026-07-07T07:54:23Z</time>
      </trkpt>
      <trkpt lat="42.97197" lon="0.33041">
        <ele>1759.3</ele>
        <time>2026-07-07T07:54:24Z</time>
      </trkpt>
      <trkpt lat="42.97197" lon="0.3304">
        <ele>1759.3</ele>
        <time>2026-07-07T07:54:24Z</time>
      </trkpt>
      <trkpt lat="42.97197" lon="0.33039">
        <ele>1758.3</ele>
        <time>2026-07-07T07:54:25Z</time>
      </trkpt>
      <trkpt lat="42.97197" lon="0.33039">
        <ele>1759.3</ele>
        <time>2026-07-07T07:54:25Z</time>
      </trkpt>
      <trkpt lat="42.97197" lon="0.33038">
        <ele>1759.3</ele>
        <time>2026-07-07T07:54:26Z</time>
      </trkpt>
      <trkpt lat="42.97197" lon="0.33037">
        <ele>1759.3</ele>
        <time>2026-07-07T07:54:26Z</time>
      </trkpt>
      <trkpt lat="42.97197" lon="0.33036">
        <ele>1759.3</ele>
        <time>2026-07-07T07:54:27Z</time>
      </trkpt>
      <trkpt lat="42.97197" lon="0.33035">
        <ele>1759.3</ele>
        <time>2026-07-07T07:54:28Z</time>
      </trkpt>
      <trkpt lat="42.97197" lon="0.33034">
        <ele>1759.3</ele>
        <time>2026-07-07T07:54:28Z</time>
      </trkpt>
      <trkpt lat="42.97197" lon="0.33033">
        <ele>1759.3</ele>
        <time>2026-07-07T07:54:29Z</time>
      </trkpt>
      <trkpt lat="42.97198" lon="0.33033">
        <ele>1759.3</ele>
        <time>2026-07-07T07:54:29Z</time>
      </trkpt>
      <trkpt lat="42.97198" lon="0.33032">
        <ele>1759.3</ele>
        <time>2026-07-07T07:54:30Z</time>
      </trkpt>
      <trkpt lat="42.97198" lon="0.33031">
        <ele>1759.3</ele>
        <time>2026-07-07T07:54:30Z</time>
      </trkpt>
      <trkpt lat="42.97198" lon="0.3303">
        <ele>1759.3</ele>
        <time>2026-07-07T07:54:31Z</time>
      </trkpt>
      <trkpt lat="42.97198" lon="0.33029">
        <ele>1759.3</ele>
        <time>2026-07-07T07:54:31Z</time>
      </trkpt>
      <trkpt lat="42.97198" lon="0.33028">
        <ele>1759.3</ele>
        <time>2026-07-07T07:54:32Z</time>
      </trkpt>
      <trkpt lat="42.97198" lon="0.33026">
        <ele>1759.3</ele>
        <time>2026-07-07T07:54:33Z</time>
      </trkpt>
      <trkpt lat="42.97197" lon="0.33025">
        <ele>1759.3</ele>
        <time>2026-07-07T07:54:34Z</time>
      </trkpt>
      <trkpt lat="42.97197" lon="0.33024">
        <ele>1759.3</ele>
        <time>2026-07-07T07:54:35Z</time>
      </trkpt>
      <trkpt lat="42.97197" lon="0.33023">
        <ele>1759.3</ele>
        <time>2026-07-07T07:54:35Z</time>
      </trkpt>
      <trkpt lat="42.97197" lon="0.33022">
        <ele>1759.3</ele>
        <time>2026-07-07T07:54:36Z</time>
      </trkpt>
      <trkpt lat="42.97196" lon="0.33021">
        <ele>1759.3</ele>
        <time>2026-07-07T07:54:36Z</time>
      </trkpt>
      <trkpt lat="42.97196" lon="0.33019">
        <ele>1759.3</ele>
        <time>2026-07-07T07:54:37Z</time>
      </trkpt>
      <trkpt lat="42.97196" lon="0.33018">
        <ele>1759.3</ele>
        <time>2026-07-07T07:54:38Z</time>
      </trkpt>
      <trkpt lat="42.97195" lon="0.33017">
        <ele>1759.3</ele>
        <time>2026-07-07T07:54:39Z</time>
      </trkpt>
      <trkpt lat="42.97195" lon="0.33017">
        <ele>1759.3</ele>
        <time>2026-07-07T07:54:39Z</time>
      </trkpt>
      <trkpt lat="42.97195" lon="0.33016">
        <ele>1759.3</ele>
        <time>2026-07-07T07:54:40Z</time>
      </trkpt>
      <trkpt lat="42.97195" lon="0.33015">
        <ele>1759.3</ele>
        <time>2026-07-07T07:54:40Z</time>
      </trkpt>
      <trkpt lat="42.97194" lon="0.33014">
        <ele>1759.3</ele>
        <time>2026-07-07T07:54:41Z</time>
      </trkpt>
      <trkpt lat="42.97194" lon="0.33014">
        <ele>1759.3</ele>
        <time>2026-07-07T07:54:41Z</time>
      </trkpt>
      <trkpt lat="42.97194" lon="0.33013">
        <ele>1759.3</ele>
        <time>2026-07-07T07:54:42Z</time>
      </trkpt>
      <trkpt lat="42.97194" lon="0.33012">
        <ele>1759.3</ele>
        <time>2026-07-07T07:54:43Z</time>
      </trkpt>
      <trkpt lat="42.97194" lon="0.33011">
        <ele>1759.3</ele>
        <time>2026-07-07T07:54:43Z</time>
      </trkpt>
      <trkpt lat="42.97194" lon="0.3301">
        <ele>1759.3</ele>
        <time>2026-07-07T07:54:44Z</time>
      </trkpt>
      <trkpt lat="42.97194" lon="0.33009">
        <ele>1759.3</ele>
        <time>2026-07-07T07:54:45Z</time>
      </trkpt>
      <trkpt lat="42.97194" lon="0.33009">
        <ele>1758.3</ele>
        <time>2026-07-07T07:54:45Z</time>
      </trkpt>
      <trkpt lat="42.97194" lon="0.33008">
        <ele>1758.3</ele>
        <time>2026-07-07T07:54:46Z</time>
      </trkpt>
      <trkpt lat="42.97194" lon="0.33007">
        <ele>1758.3</ele>
        <time>2026-07-07T07:54:46Z</time>
      </trkpt>
      <trkpt lat="42.97193" lon="0.33006">
        <ele>1758.3</ele>
        <time>2026-07-07T07:54:47Z</time>
      </trkpt>
      <trkpt lat="42.97193" lon="0.33006">
        <ele>1758.3</ele>
        <time>2026-07-07T07:54:47Z</time>
      </trkpt>
      <trkpt lat="42.97193" lon="0.33005">
        <ele>1758.3</ele>
        <time>2026-07-07T07:54:48Z</time>
      </trkpt>
      <trkpt lat="42.97193" lon="0.33005">
        <ele>1758.3</ele>
        <time>2026-07-07T07:54:48Z</time>
      </trkpt>
      <trkpt lat="42.97193" lon="0.33003">
        <ele>1758.3</ele>
        <time>2026-07-07T07:54:49Z</time>
      </trkpt>
      <trkpt lat="42.97193" lon="0.33002">
        <ele>1758.3</ele>
        <time>2026-07-07T07:54:50Z</time>
      </trkpt>
      <trkpt lat="42.97192" lon="0.33002">
        <ele>1757.3</ele>
        <time>2026-07-07T07:54:51Z</time>
      </trkpt>
      <trkpt lat="42.97192" lon="0.33001">
        <ele>1757.3</ele>
        <time>2026-07-07T07:54:51Z</time>
      </trkpt>
      <trkpt lat="42.97192" lon="0.33">
        <ele>1758.3</ele>
        <time>2026-07-07T07:54:52Z</time>
      </trkpt>
      <trkpt lat="42.97192" lon="0.32998">
        <ele>1758.3</ele>
        <time>2026-07-07T07:54:53Z</time>
      </trkpt>
      <trkpt lat="42.97192" lon="0.32997">
        <ele>1758.3</ele>
        <time>2026-07-07T07:54:53Z</time>
      </trkpt>
      <trkpt lat="42.97192" lon="0.32996">
        <ele>1758.3</ele>
        <time>2026-07-07T07:54:54Z</time>
      </trkpt>
      <trkpt lat="42.97192" lon="0.32995">
        <ele>1758.3</ele>
        <time>2026-07-07T07:54:55Z</time>
      </trkpt>
      <trkpt lat="42.97192" lon="0.32994">
        <ele>1758.3</ele>
        <time>2026-07-07T07:54:55Z</time>
      </trkpt>
      <trkpt lat="42.97192" lon="0.32993">
        <ele>1757.3</ele>
        <time>2026-07-07T07:54:56Z</time>
      </trkpt>
      <trkpt lat="42.97192" lon="0.32993">
        <ele>1757.3</ele>
        <time>2026-07-07T07:54:56Z</time>
      </trkpt>
      <trkpt lat="42.97192" lon="0.32992">
        <ele>1757.3</ele>
        <time>2026-07-07T07:54:57Z</time>
      </trkpt>
      <trkpt lat="42.97192" lon="0.32991">
        <ele>1757.3</ele>
        <time>2026-07-07T07:54:58Z</time>
      </trkpt>
      <trkpt lat="42.97192" lon="0.3299">
        <ele>1757.3</ele>
        <time>2026-07-07T07:54:58Z</time>
      </trkpt>
      <trkpt lat="42.97192" lon="0.32989">
        <ele>1757.3</ele>
        <time>2026-07-07T07:54:59Z</time>
      </trkpt>
      <trkpt lat="42.97192" lon="0.32988">
        <ele>1757.3</ele>
        <time>2026-07-07T07:54:59Z</time>
      </trkpt>
      <trkpt lat="42.97192" lon="0.32988">
        <ele>1756.3</ele>
        <time>2026-07-07T07:55:00Z</time>
      </trkpt>
      <trkpt lat="42.97193" lon="0.32987">
        <ele>1756.3</ele>
        <time>2026-07-07T07:55:00Z</time>
      </trkpt>
      <trkpt lat="42.97193" lon="0.32986">
        <ele>1756.3</ele>
        <time>2026-07-07T07:55:01Z</time>
      </trkpt>
      <trkpt lat="42.97193" lon="0.32985">
        <ele>1756.3</ele>
        <time>2026-07-07T07:55:01Z</time>
      </trkpt>
      <trkpt lat="42.97193" lon="0.32984">
        <ele>1756.3</ele>
        <time>2026-07-07T07:55:02Z</time>
      </trkpt>
      <trkpt lat="42.97194" lon="0.32983">
        <ele>1757.3</ele>
        <time>2026-07-07T07:55:03Z</time>
      </trkpt>
      <trkpt lat="42.97194" lon="0.32983">
        <ele>1757.3</ele>
        <time>2026-07-07T07:55:03Z</time>
      </trkpt>
      <trkpt lat="42.97194" lon="0.32981">
        <ele>1756.3</ele>
        <time>2026-07-07T07:55:04Z</time>
      </trkpt>
      <trkpt lat="42.97194" lon="0.32981">
        <ele>1756.3</ele>
        <time>2026-07-07T07:55:04Z</time>
      </trkpt>
      <trkpt lat="42.97194" lon="0.32979">
        <ele>1756.3</ele>
        <time>2026-07-07T07:55:05Z</time>
      </trkpt>
      <trkpt lat="42.97194" lon="0.32978">
        <ele>1756.3</ele>
        <time>2026-07-07T07:55:06Z</time>
      </trkpt>
      <trkpt lat="42.97194" lon="0.32977">
        <ele>1756.3</ele>
        <time>2026-07-07T07:55:07Z</time>
      </trkpt>
      <trkpt lat="42.97194" lon="0.32976">
        <ele>1756.3</ele>
        <time>2026-07-07T07:55:07Z</time>
      </trkpt>
      <trkpt lat="42.97194" lon="0.32976">
        <ele>1755.3</ele>
        <time>2026-07-07T07:55:08Z</time>
      </trkpt>
      <trkpt lat="42.97194" lon="0.32975">
        <ele>1755.3</ele>
        <time>2026-07-07T07:55:08Z</time>
      </trkpt>
      <trkpt lat="42.97194" lon="0.32974">
        <ele>1755.3</ele>
        <time>2026-07-07T07:55:09Z</time>
      </trkpt>
      <trkpt lat="42.97194" lon="0.32973">
        <ele>1755.3</ele>
        <time>2026-07-07T07:55:10Z</time>
      </trkpt>
      <trkpt lat="42.97194" lon="0.32972">
        <ele>1755.3</ele>
        <time>2026-07-07T07:55:10Z</time>
      </trkpt>
      <trkpt lat="42.97193" lon="0.32971">
        <ele>1755.3</ele>
        <time>2026-07-07T07:55:11Z</time>
      </trkpt>
      <trkpt lat="42.97193" lon="0.3297">
        <ele>1755.3</ele>
        <time>2026-07-07T07:55:12Z</time>
      </trkpt>
      <trkpt lat="42.97193" lon="0.32969">
        <ele>1755.3</ele>
        <time>2026-07-07T07:55:12Z</time>
      </trkpt>
      <trkpt lat="42.97193" lon="0.32968">
        <ele>1756.3</ele>
        <time>2026-07-07T07:55:13Z</time>
      </trkpt>
      <trkpt lat="42.97193" lon="0.32966">
        <ele>1755.3</ele>
        <time>2026-07-07T07:55:14Z</time>
      </trkpt>
      <trkpt lat="42.97193" lon="0.32965">
        <ele>1755.3</ele>
        <time>2026-07-07T07:55:15Z</time>
      </trkpt>
      <trkpt lat="42.97194" lon="0.32964">
        <ele>1755.3</ele>
        <time>2026-07-07T07:55:15Z</time>
      </trkpt>
      <trkpt lat="42.97193" lon="0.32963">
        <ele>1755.3</ele>
        <time>2026-07-07T07:55:16Z</time>
      </trkpt>
      <trkpt lat="42.97194" lon="0.32963">
        <ele>1755.3</ele>
        <time>2026-07-07T07:55:16Z</time>
      </trkpt>
      <trkpt lat="42.97193" lon="0.32962">
        <ele>1754.3</ele>
        <time>2026-07-07T07:55:17Z</time>
      </trkpt>
      <trkpt lat="42.97193" lon="0.32961">
        <ele>1754.3</ele>
        <time>2026-07-07T07:55:17Z</time>
      </trkpt>
      <trkpt lat="42.97193" lon="0.3296">
        <ele>1754.3</ele>
        <time>2026-07-07T07:55:18Z</time>
      </trkpt>
      <trkpt lat="42.97193" lon="0.32959">
        <ele>1754.3</ele>
        <time>2026-07-07T07:55:19Z</time>
      </trkpt>
      <trkpt lat="42.97193" lon="0.32958">
        <ele>1754.3</ele>
        <time>2026-07-07T07:55:19Z</time>
      </trkpt>
      <trkpt lat="42.97193" lon="0.32957">
        <ele>1754.3</ele>
        <time>2026-07-07T07:55:20Z</time>
      </trkpt>
      <trkpt lat="42.97193" lon="0.32956">
        <ele>1754.3</ele>
        <time>2026-07-07T07:55:20Z</time>
      </trkpt>
      <trkpt lat="42.97193" lon="0.32955">
        <ele>1754.3</ele>
        <time>2026-07-07T07:55:21Z</time>
      </trkpt>
      <trkpt lat="42.97193" lon="0.32954">
        <ele>1754.3</ele>
        <time>2026-07-07T07:55:22Z</time>
      </trkpt>
      <trkpt lat="42.97193" lon="0.32953">
        <ele>1754.3</ele>
        <time>2026-07-07T07:55:23Z</time>
      </trkpt>
      <trkpt lat="42.97193" lon="0.32951">
        <ele>1754.3</ele>
        <time>2026-07-07T07:55:23Z</time>
      </trkpt>
      <trkpt lat="42.97193" lon="0.32951">
        <ele>1755.3</ele>
        <time>2026-07-07T07:55:24Z</time>
      </trkpt>
      <trkpt lat="42.97193" lon="0.3295">
        <ele>1755.3</ele>
        <time>2026-07-07T07:55:24Z</time>
      </trkpt>
      <trkpt lat="42.97192" lon="0.32949">
        <ele>1754.3</ele>
        <time>2026-07-07T07:55:25Z</time>
      </trkpt>
      <trkpt lat="42.97192" lon="0.32948">
        <ele>1754.3</ele>
        <time>2026-07-07T07:55:25Z</time>
      </trkpt>
      <trkpt lat="42.97192" lon="0.32947">
        <ele>1754.3</ele>
        <time>2026-07-07T07:55:26Z</time>
      </trkpt>
      <trkpt lat="42.97192" lon="0.32946">
        <ele>1754.3</ele>
        <time>2026-07-07T07:55:27Z</time>
      </trkpt>
      <trkpt lat="42.97192" lon="0.32944">
        <ele>1754.3</ele>
        <time>2026-07-07T07:55:28Z</time>
      </trkpt>
      <trkpt lat="42.97192" lon="0.32944">
        <ele>1754.3</ele>
        <time>2026-07-07T07:55:28Z</time>
      </trkpt>
      <trkpt lat="42.97192" lon="0.32943">
        <ele>1754.3</ele>
        <time>2026-07-07T07:55:29Z</time>
      </trkpt>
      <trkpt lat="42.97193" lon="0.32942">
        <ele>1755.3</ele>
        <time>2026-07-07T07:55:29Z</time>
      </trkpt>
      <trkpt lat="42.97193" lon="0.32941">
        <ele>1755.3</ele>
        <time>2026-07-07T07:55:30Z</time>
      </trkpt>
      <trkpt lat="42.97193" lon="0.3294">
        <ele>1755.3</ele>
        <time>2026-07-07T07:55:31Z</time>
      </trkpt>
      <trkpt lat="42.97193" lon="0.32939">
        <ele>1755.3</ele>
        <time>2026-07-07T07:55:31Z</time>
      </trkpt>
      <trkpt lat="42.97193" lon="0.32938">
        <ele>1755.3</ele>
        <time>2026-07-07T07:55:32Z</time>
      </trkpt>
      <trkpt lat="42.97193" lon="0.32937">
        <ele>1754.3</ele>
        <time>2026-07-07T07:55:33Z</time>
      </trkpt>
      <trkpt lat="42.97193" lon="0.32936">
        <ele>1754.3</ele>
        <time>2026-07-07T07:55:33Z</time>
      </trkpt>
      <trkpt lat="42.97194" lon="0.32935">
        <ele>1754.3</ele>
        <time>2026-07-07T07:55:34Z</time>
      </trkpt>
      <trkpt lat="42.97194" lon="0.32934">
        <ele>1753.3</ele>
        <time>2026-07-07T07:55:34Z</time>
      </trkpt>
      <trkpt lat="42.97194" lon="0.32933">
        <ele>1753.3</ele>
        <time>2026-07-07T07:55:35Z</time>
      </trkpt>
      <trkpt lat="42.97194" lon="0.32933">
        <ele>1753.3</ele>
        <time>2026-07-07T07:55:35Z</time>
      </trkpt>
      <trkpt lat="42.97194" lon="0.32931">
        <ele>1753.3</ele>
        <time>2026-07-07T07:55:36Z</time>
      </trkpt>
      <trkpt lat="42.97194" lon="0.3293">
        <ele>1753.3</ele>
        <time>2026-07-07T07:55:37Z</time>
      </trkpt>
      <trkpt lat="42.97194" lon="0.32928">
        <ele>1754.3</ele>
        <time>2026-07-07T07:55:38Z</time>
      </trkpt>
      <trkpt lat="42.97194" lon="0.32927">
        <ele>1753.3</ele>
        <time>2026-07-07T07:55:39Z</time>
      </trkpt>
      <trkpt lat="42.97194" lon="0.32926">
        <ele>1753.3</ele>
        <time>2026-07-07T07:55:39Z</time>
      </trkpt>
      <trkpt lat="42.97194" lon="0.32926">
        <ele>1753.3</ele>
        <time>2026-07-07T07:55:40Z</time>
      </trkpt>
      <trkpt lat="42.97194" lon="0.32925">
        <ele>1753.3</ele>
        <time>2026-07-07T07:55:40Z</time>
      </trkpt>
      <trkpt lat="42.97195" lon="0.32924">
        <ele>1753.3</ele>
        <time>2026-07-07T07:55:41Z</time>
      </trkpt>
      <trkpt lat="42.97195" lon="0.32923">
        <ele>1753.3</ele>
        <time>2026-07-07T07:55:41Z</time>
      </trkpt>
      <trkpt lat="42.97195" lon="0.32922">
        <ele>1753.3</ele>
        <time>2026-07-07T07:55:42Z</time>
      </trkpt>
      <trkpt lat="42.97195" lon="0.3292">
        <ele>1753.3</ele>
        <time>2026-07-07T07:55:43Z</time>
      </trkpt>
      <trkpt lat="42.97195" lon="0.3292">
        <ele>1753.3</ele>
        <time>2026-07-07T07:55:43Z</time>
      </trkpt>
      <trkpt lat="42.97195" lon="0.32919">
        <ele>1753.3</ele>
        <time>2026-07-07T07:55:44Z</time>
      </trkpt>
      <trkpt lat="42.97195" lon="0.32917">
        <ele>1753.3</ele>
        <time>2026-07-07T07:55:45Z</time>
      </trkpt>
      <trkpt lat="42.97195" lon="0.32917">
        <ele>1753.3</ele>
        <time>2026-07-07T07:55:46Z</time>
      </trkpt>
      <trkpt lat="42.97195" lon="0.32916">
        <ele>1753.3</ele>
        <time>2026-07-07T07:55:46Z</time>
      </trkpt>
      <trkpt lat="42.97195" lon="0.32914">
        <ele>1753.3</ele>
        <time>2026-07-07T07:55:47Z</time>
      </trkpt>
      <trkpt lat="42.97195" lon="0.32914">
        <ele>1753.3</ele>
        <time>2026-07-07T07:55:48Z</time>
      </trkpt>
      <trkpt lat="42.97195" lon="0.32913">
        <ele>1753.3</ele>
        <time>2026-07-07T07:55:48Z</time>
      </trkpt>
      <trkpt lat="42.97196" lon="0.32912">
        <ele>1752.3</ele>
        <time>2026-07-07T07:55:49Z</time>
      </trkpt>
      <trkpt lat="42.97196" lon="0.32912">
        <ele>1752.3</ele>
        <time>2026-07-07T07:55:49Z</time>
      </trkpt>
      <trkpt lat="42.97196" lon="0.32911">
        <ele>1752.3</ele>
        <time>2026-07-07T07:55:50Z</time>
      </trkpt>
      <trkpt lat="42.97196" lon="0.3291">
        <ele>1752.3</ele>
        <time>2026-07-07T07:55:50Z</time>
      </trkpt>
      <trkpt lat="42.97196" lon="0.32909">
        <ele>1752.3</ele>
        <time>2026-07-07T07:55:51Z</time>
      </trkpt>
      <trkpt lat="42.97197" lon="0.32909">
        <ele>1752.3</ele>
        <time>2026-07-07T07:55:51Z</time>
      </trkpt>
      <trkpt lat="42.97197" lon="0.32908">
        <ele>1752.3</ele>
        <time>2026-07-07T07:55:52Z</time>
      </trkpt>
      <trkpt lat="42.97197" lon="0.32906">
        <ele>1752.3</ele>
        <time>2026-07-07T07:55:53Z</time>
      </trkpt>
      <trkpt lat="42.97197" lon="0.32906">
        <ele>1752.3</ele>
        <time>2026-07-07T07:55:53Z</time>
      </trkpt>
      <trkpt lat="42.97198" lon="0.32905">
        <ele>1752.3</ele>
        <time>2026-07-07T07:55:54Z</time>
      </trkpt>
      <trkpt lat="42.97198" lon="0.32904">
        <ele>1752.3</ele>
        <time>2026-07-07T07:55:55Z</time>
      </trkpt>
      <trkpt lat="42.97198" lon="0.32903">
        <ele>1752.3</ele>
        <time>2026-07-07T07:55:55Z</time>
      </trkpt>
      <trkpt lat="42.97198" lon="0.32902">
        <ele>1751.3</ele>
        <time>2026-07-07T07:55:56Z</time>
      </trkpt>
      <trkpt lat="42.97199" lon="0.32902">
        <ele>1751.3</ele>
        <time>2026-07-07T07:55:56Z</time>
      </trkpt>
      <trkpt lat="42.97199" lon="0.32901">
        <ele>1751.3</ele>
        <time>2026-07-07T07:55:57Z</time>
      </trkpt>
      <trkpt lat="42.972" lon="0.32901">
        <ele>1751.3</ele>
        <time>2026-07-07T07:55:58Z</time>
      </trkpt>
      <trkpt lat="42.972" lon="0.329">
        <ele>1751.3</ele>
        <time>2026-07-07T07:55:58Z</time>
      </trkpt>
      <trkpt lat="42.97201" lon="0.329">
        <ele>1751.3</ele>
        <time>2026-07-07T07:55:59Z</time>
      </trkpt>
      <trkpt lat="42.97201" lon="0.32899">
        <ele>1751.3</ele>
        <time>2026-07-07T07:55:59Z</time>
      </trkpt>
      <trkpt lat="42.97201" lon="0.32898">
        <ele>1751.3</ele>
        <time>2026-07-07T07:56:00Z</time>
      </trkpt>
      <trkpt lat="42.97202" lon="0.32898">
        <ele>1751.3</ele>
        <time>2026-07-07T07:56:00Z</time>
      </trkpt>
      <trkpt lat="42.97202" lon="0.32897">
        <ele>1751.3</ele>
        <time>2026-07-07T07:56:01Z</time>
      </trkpt>
      <trkpt lat="42.97202" lon="0.32896">
        <ele>1751.3</ele>
        <time>2026-07-07T07:56:01Z</time>
      </trkpt>
      <trkpt lat="42.97203" lon="0.32895">
        <ele>1751.3</ele>
        <time>2026-07-07T07:56:02Z</time>
      </trkpt>
      <trkpt lat="42.97203" lon="0.32895">
        <ele>1751.3</ele>
        <time>2026-07-07T07:56:02Z</time>
      </trkpt>
      <trkpt lat="42.97204" lon="0.32893">
        <ele>1751.3</ele>
        <time>2026-07-07T07:56:03Z</time>
      </trkpt>
      <trkpt lat="42.97204" lon="0.32892">
        <ele>1751.3</ele>
        <time>2026-07-07T07:56:04Z</time>
      </trkpt>
      <trkpt lat="42.97204" lon="0.32891">
        <ele>1751.3</ele>
        <time>2026-07-07T07:56:05Z</time>
      </trkpt>
      <trkpt lat="42.97205" lon="0.3289">
        <ele>1751.3</ele>
        <time>2026-07-07T07:56:05Z</time>
      </trkpt>
      <trkpt lat="42.97205" lon="0.32889">
        <ele>1751.3</ele>
        <time>2026-07-07T07:56:06Z</time>
      </trkpt>
      <trkpt lat="42.97205" lon="0.32888">
        <ele>1751.3</ele>
        <time>2026-07-07T07:56:07Z</time>
      </trkpt>
      <trkpt lat="42.97206" lon="0.32886">
        <ele>1751.3</ele>
        <time>2026-07-07T07:56:08Z</time>
      </trkpt>
      <trkpt lat="42.97206" lon="0.32886">
        <ele>1752.3</ele>
        <time>2026-07-07T07:56:08Z</time>
      </trkpt>
      <trkpt lat="42.97206" lon="0.32885">
        <ele>1752.3</ele>
        <time>2026-07-07T07:56:09Z</time>
      </trkpt>
      <trkpt lat="42.97207" lon="0.32884">
        <ele>1751.3</ele>
        <time>2026-07-07T07:56:10Z</time>
      </trkpt>
      <trkpt lat="42.97207" lon="0.32884">
        <ele>1751.3</ele>
        <time>2026-07-07T07:56:10Z</time>
      </trkpt>
      <trkpt lat="42.97208" lon="0.32883">
        <ele>1751.3</ele>
        <time>2026-07-07T07:56:11Z</time>
      </trkpt>
      <trkpt lat="42.97208" lon="0.32883">
        <ele>1751.3</ele>
        <time>2026-07-07T07:56:11Z</time>
      </trkpt>
      <trkpt lat="42.97209" lon="0.32882">
        <ele>1751.3</ele>
        <time>2026-07-07T07:56:12Z</time>
      </trkpt>
      <trkpt lat="42.97209" lon="0.32881">
        <ele>1751.3</ele>
        <time>2026-07-07T07:56:12Z</time>
      </trkpt>
      <trkpt lat="42.97209" lon="0.32881">
        <ele>1751.3</ele>
        <time>2026-07-07T07:56:13Z</time>
      </trkpt>
      <trkpt lat="42.9721" lon="0.3288">
        <ele>1751.3</ele>
        <time>2026-07-07T07:56:13Z</time>
      </trkpt>
      <trkpt lat="42.9721" lon="0.32879">
        <ele>1751.3</ele>
        <time>2026-07-07T07:56:14Z</time>
      </trkpt>
      <trkpt lat="42.9721" lon="0.32879">
        <ele>1751.3</ele>
        <time>2026-07-07T07:56:15Z</time>
      </trkpt>
      <trkpt lat="42.97211" lon="0.32878">
        <ele>1751.3</ele>
        <time>2026-07-07T07:56:15Z</time>
      </trkpt>
      <trkpt lat="42.97212" lon="0.32877">
        <ele>1751.3</ele>
        <time>2026-07-07T07:56:16Z</time>
      </trkpt>
      <trkpt lat="42.97212" lon="0.32876">
        <ele>1751.3</ele>
        <time>2026-07-07T07:56:17Z</time>
      </trkpt>
      <trkpt lat="42.97212" lon="0.32876">
        <ele>1751.3</ele>
        <time>2026-07-07T07:56:17Z</time>
      </trkpt>
      <trkpt lat="42.97213" lon="0.32875">
        <ele>1751.3</ele>
        <time>2026-07-07T07:56:18Z</time>
      </trkpt>
      <trkpt lat="42.97213" lon="0.32875">
        <ele>1751.3</ele>
        <time>2026-07-07T07:56:18Z</time>
      </trkpt>
      <trkpt lat="42.97213" lon="0.32874">
        <ele>1751.3</ele>
        <time>2026-07-07T07:56:19Z</time>
      </trkpt>
      <trkpt lat="42.97213" lon="0.32873">
        <ele>1751.3</ele>
        <time>2026-07-07T07:56:20Z</time>
      </trkpt>
      <trkpt lat="42.97213" lon="0.32872">
        <ele>1751.3</ele>
        <time>2026-07-07T07:56:20Z</time>
      </trkpt>
      <trkpt lat="42.97213" lon="0.32871">
        <ele>1751.3</ele>
        <time>2026-07-07T07:56:21Z</time>
      </trkpt>
      <trkpt lat="42.97213" lon="0.32871">
        <ele>1751.3</ele>
        <time>2026-07-07T07:56:21Z</time>
      </trkpt>
      <trkpt lat="42.97213" lon="0.3287">
        <ele>1751.3</ele>
        <time>2026-07-07T07:56:22Z</time>
      </trkpt>
      <trkpt lat="42.97213" lon="0.32869">
        <ele>1751.3</ele>
        <time>2026-07-07T07:56:23Z</time>
      </trkpt>
      <trkpt lat="42.97213" lon="0.32868">
        <ele>1751.3</ele>
        <time>2026-07-07T07:56:23Z</time>
      </trkpt>
      <trkpt lat="42.97212" lon="0.32867">
        <ele>1751.3</ele>
        <time>2026-07-07T07:56:24Z</time>
      </trkpt>
      <trkpt lat="42.97212" lon="0.32866">
        <ele>1751.3</ele>
        <time>2026-07-07T07:56:25Z</time>
      </trkpt>
      <trkpt lat="42.97212" lon="0.32865">
        <ele>1751.3</ele>
        <time>2026-07-07T07:56:26Z</time>
      </trkpt>
      <trkpt lat="42.97212" lon="0.32864">
        <ele>1751.3</ele>
        <time>2026-07-07T07:56:27Z</time>
      </trkpt>
      <trkpt lat="42.97212" lon="0.32863">
        <ele>1751.3</ele>
        <time>2026-07-07T07:56:27Z</time>
      </trkpt>
      <trkpt lat="42.97212" lon="0.32862">
        <ele>1751.3</ele>
        <time>2026-07-07T07:56:28Z</time>
      </trkpt>
      <trkpt lat="42.97212" lon="0.32861">
        <ele>1751.3</ele>
        <time>2026-07-07T07:56:29Z</time>
      </trkpt>
      <trkpt lat="42.97212" lon="0.32861">
        <ele>1751.3</ele>
        <time>2026-07-07T07:56:29Z</time>
      </trkpt>
      <trkpt lat="42.97211" lon="0.3286">
        <ele>1751.3</ele>
        <time>2026-07-07T07:56:30Z</time>
      </trkpt>
      <trkpt lat="42.97211" lon="0.3286">
        <ele>1751.3</ele>
        <time>2026-07-07T07:56:31Z</time>
      </trkpt>
      <trkpt lat="42.97211" lon="0.32859">
        <ele>1751.3</ele>
        <time>2026-07-07T07:56:31Z</time>
      </trkpt>
      <trkpt lat="42.97211" lon="0.32858">
        <ele>1751.3</ele>
        <time>2026-07-07T07:56:32Z</time>
      </trkpt>
      <trkpt lat="42.9721" lon="0.32858">
        <ele>1751.3</ele>
        <time>2026-07-07T07:56:32Z</time>
      </trkpt>
      <trkpt lat="42.9721" lon="0.32857">
        <ele>1751.3</ele>
        <time>2026-07-07T07:56:33Z</time>
      </trkpt>
      <trkpt lat="42.9721" lon="0.32856">
        <ele>1751.3</ele>
        <time>2026-07-07T07:56:34Z</time>
      </trkpt>
      <trkpt lat="42.9721" lon="0.32855">
        <ele>1751.3</ele>
        <time>2026-07-07T07:56:34Z</time>
      </trkpt>
      <trkpt lat="42.9721" lon="0.32854">
        <ele>1751.3</ele>
        <time>2026-07-07T07:56:35Z</time>
      </trkpt>
      <trkpt lat="42.9721" lon="0.32854">
        <ele>1751.3</ele>
        <time>2026-07-07T07:56:36Z</time>
      </trkpt>
      <trkpt lat="42.97211" lon="0.32853">
        <ele>1750.3</ele>
        <time>2026-07-07T07:56:36Z</time>
      </trkpt>
      <trkpt lat="42.97211" lon="0.32852">
        <ele>1750.3</ele>
        <time>2026-07-07T07:56:37Z</time>
      </trkpt>
      <trkpt lat="42.97211" lon="0.32852">
        <ele>1750.3</ele>
        <time>2026-07-07T07:56:37Z</time>
      </trkpt>
      <trkpt lat="42.97212" lon="0.32851">
        <ele>1750.3</ele>
        <time>2026-07-07T07:56:38Z</time>
      </trkpt>
      <trkpt lat="42.97212" lon="0.3285">
        <ele>1750.3</ele>
        <time>2026-07-07T07:56:39Z</time>
      </trkpt>
      <trkpt lat="42.97212" lon="0.3285">
        <ele>1749.3</ele>
        <time>2026-07-07T07:56:39Z</time>
      </trkpt>
      <trkpt lat="42.97212" lon="0.32849">
        <ele>1749.3</ele>
        <time>2026-07-07T07:56:40Z</time>
      </trkpt>
      <trkpt lat="42.97212" lon="0.32848">
        <ele>1749.3</ele>
        <time>2026-07-07T07:56:41Z</time>
      </trkpt>
      <trkpt lat="42.97212" lon="0.32848">
        <ele>1749.3</ele>
        <time>2026-07-07T07:56:41Z</time>
      </trkpt>
      <trkpt lat="42.97212" lon="0.32847">
        <ele>1748.3</ele>
        <time>2026-07-07T07:56:42Z</time>
      </trkpt>
      <trkpt lat="42.97212" lon="0.32846">
        <ele>1748.3</ele>
        <time>2026-07-07T07:56:43Z</time>
      </trkpt>
      <trkpt lat="42.97212" lon="0.32845">
        <ele>1748.3</ele>
        <time>2026-07-07T07:56:43Z</time>
      </trkpt>
      <trkpt lat="42.97211" lon="0.32845">
        <ele>1748.3</ele>
        <time>2026-07-07T07:56:44Z</time>
      </trkpt>
      <trkpt lat="42.97211" lon="0.32844">
        <ele>1748.3</ele>
        <time>2026-07-07T07:56:45Z</time>
      </trkpt>
      <trkpt lat="42.97211" lon="0.32843">
        <ele>1748.3</ele>
        <time>2026-07-07T07:56:45Z</time>
      </trkpt>
      <trkpt lat="42.97211" lon="0.32843">
        <ele>1748.3</ele>
        <time>2026-07-07T07:56:46Z</time>
      </trkpt>
      <trkpt lat="42.97211" lon="0.32842">
        <ele>1748.3</ele>
        <time>2026-07-07T07:56:46Z</time>
      </trkpt>
      <trkpt lat="42.9721" lon="0.32841">
        <ele>1747.3</ele>
        <time>2026-07-07T07:56:47Z</time>
      </trkpt>
      <trkpt lat="42.9721" lon="0.32841">
        <ele>1747.3</ele>
        <time>2026-07-07T07:56:47Z</time>
      </trkpt>
      <trkpt lat="42.9721" lon="0.3284">
        <ele>1747.3</ele>
        <time>2026-07-07T07:56:48Z</time>
      </trkpt>
      <trkpt lat="42.9721" lon="0.32839">
        <ele>1746.3</ele>
        <time>2026-07-07T07:56:49Z</time>
      </trkpt>
      <trkpt lat="42.9721" lon="0.32839">
        <ele>1746.3</ele>
        <time>2026-07-07T07:56:49Z</time>
      </trkpt>
      <trkpt lat="42.9721" lon="0.32838">
        <ele>1746.3</ele>
        <time>2026-07-07T07:56:50Z</time>
      </trkpt>
      <trkpt lat="42.9721" lon="0.32838">
        <ele>1746.3</ele>
        <time>2026-07-07T07:56:50Z</time>
      </trkpt>
      <trkpt lat="42.9721" lon="0.32837">
        <ele>1746.3</ele>
        <time>2026-07-07T07:56:51Z</time>
      </trkpt>
      <trkpt lat="42.97209" lon="0.32837">
        <ele>1745.3</ele>
        <time>2026-07-07T07:56:51Z</time>
      </trkpt>
      <trkpt lat="42.97209" lon="0.32836">
        <ele>1745.3</ele>
        <time>2026-07-07T07:56:52Z</time>
      </trkpt>
      <trkpt lat="42.97209" lon="0.32835">
        <ele>1745.3</ele>
        <time>2026-07-07T07:56:53Z</time>
      </trkpt>
      <trkpt lat="42.97209" lon="0.32835">
        <ele>1744.3</ele>
        <time>2026-07-07T07:56:53Z</time>
      </trkpt>
      <trkpt lat="42.97209" lon="0.32834">
        <ele>1744.3</ele>
        <time>2026-07-07T07:56:54Z</time>
      </trkpt>
      <trkpt lat="42.97209" lon="0.32833">
        <ele>1744.3</ele>
        <time>2026-07-07T07:56:55Z</time>
      </trkpt>
      <trkpt lat="42.97209" lon="0.32833">
        <ele>1744.3</ele>
        <time>2026-07-07T07:56:55Z</time>
      </trkpt>
      <trkpt lat="42.97209" lon="0.32832">
        <ele>1744.3</ele>
        <time>2026-07-07T07:56:56Z</time>
      </trkpt>
      <trkpt lat="42.97209" lon="0.32831">
        <ele>1744.3</ele>
        <time>2026-07-07T07:56:57Z</time>
      </trkpt>
      <trkpt lat="42.97209" lon="0.3283">
        <ele>1744.3</ele>
        <time>2026-07-07T07:56:57Z</time>
      </trkpt>
      <trkpt lat="42.97209" lon="0.3283">
        <ele>1744.3</ele>
        <time>2026-07-07T07:56:58Z</time>
      </trkpt>
      <trkpt lat="42.97209" lon="0.32829">
        <ele>1743.3</ele>
        <time>2026-07-07T07:56:58Z</time>
      </trkpt>
      <trkpt lat="42.9721" lon="0.32829">
        <ele>1743.3</ele>
        <time>2026-07-07T07:56:59Z</time>
      </trkpt>
      <trkpt lat="42.9721" lon="0.32828">
        <ele>1744.3</ele>
        <time>2026-07-07T07:56:59Z</time>
      </trkpt>
      <trkpt lat="42.9721" lon="0.32827">
        <ele>1744.3</ele>
        <time>2026-07-07T07:57:00Z</time>
      </trkpt>
      <trkpt lat="42.9721" lon="0.32827">
        <ele>1743.3</ele>
        <time>2026-07-07T07:57:01Z</time>
      </trkpt>
      <trkpt lat="42.97211" lon="0.32826">
        <ele>1744.3</ele>
        <time>2026-07-07T07:57:01Z</time>
      </trkpt>
      <trkpt lat="42.97211" lon="0.32826">
        <ele>1743.3</ele>
        <time>2026-07-07T07:57:02Z</time>
      </trkpt>
      <trkpt lat="42.97211" lon="0.32825">
        <ele>1743.3</ele>
        <time>2026-07-07T07:57:03Z</time>
      </trkpt>
      <trkpt lat="42.97211" lon="0.32825">
        <ele>1743.3</ele>
        <time>2026-07-07T07:57:03Z</time>
      </trkpt>
      <trkpt lat="42.97212" lon="0.32824">
        <ele>1743.3</ele>
        <time>2026-07-07T07:57:04Z</time>
      </trkpt>
      <trkpt lat="42.97212" lon="0.32825">
        <ele>1743.3</ele>
        <time>2026-07-07T07:57:05Z</time>
      </trkpt>
      <trkpt lat="42.97212" lon="0.32824">
        <ele>1743.3</ele>
        <time>2026-07-07T07:57:05Z</time>
      </trkpt>
      <trkpt lat="42.97212" lon="0.32824">
        <ele>1742.3</ele>
        <time>2026-07-07T07:57:06Z</time>
      </trkpt>
      <trkpt lat="42.97211" lon="0.32823">
        <ele>1742.3</ele>
        <time>2026-07-07T07:57:06Z</time>
      </trkpt>
      <trkpt lat="42.97211" lon="0.32823">
        <ele>1742.3</ele>
        <time>2026-07-07T07:57:07Z</time>
      </trkpt>
      <trkpt lat="42.97211" lon="0.32822">
        <ele>1742.3</ele>
        <time>2026-07-07T07:57:07Z</time>
      </trkpt>
      <trkpt lat="42.97211" lon="0.32821">
        <ele>1742.3</ele>
        <time>2026-07-07T07:57:08Z</time>
      </trkpt>
      <trkpt lat="42.97211" lon="0.32821">
        <ele>1741.3</ele>
        <time>2026-07-07T07:57:09Z</time>
      </trkpt>
      <trkpt lat="42.9721" lon="0.3282">
        <ele>1741.3</ele>
        <time>2026-07-07T07:57:09Z</time>
      </trkpt>
      <trkpt lat="42.97209" lon="0.32819">
        <ele>1741.3</ele>
        <time>2026-07-07T07:57:10Z</time>
      </trkpt>
      <trkpt lat="42.97209" lon="0.32818">
        <ele>1741.3</ele>
        <time>2026-07-07T07:57:11Z</time>
      </trkpt>
      <trkpt lat="42.97209" lon="0.32817">
        <ele>1740.3</ele>
        <time>2026-07-07T07:57:12Z</time>
      </trkpt>
      <trkpt lat="42.97209" lon="0.32817">
        <ele>1740.3</ele>
        <time>2026-07-07T07:57:12Z</time>
      </trkpt>
      <trkpt lat="42.97209" lon="0.32816">
        <ele>1740.3</ele>
        <time>2026-07-07T07:57:13Z</time>
      </trkpt>
      <trkpt lat="42.97208" lon="0.32816">
        <ele>1740.3</ele>
        <time>2026-07-07T07:57:13Z</time>
      </trkpt>
      <trkpt lat="42.97208" lon="0.32816">
        <ele>1741.3</ele>
        <time>2026-07-07T07:57:14Z</time>
      </trkpt>
      <trkpt lat="42.97208" lon="0.32815">
        <ele>1741.3</ele>
        <time>2026-07-07T07:57:14Z</time>
      </trkpt>
      <trkpt lat="42.97209" lon="0.32814">
        <ele>1741.3</ele>
        <time>2026-07-07T07:57:15Z</time>
      </trkpt>
      <trkpt lat="42.97209" lon="0.32813">
        <ele>1741.3</ele>
        <time>2026-07-07T07:57:16Z</time>
      </trkpt>
      <trkpt lat="42.9721" lon="0.32813">
        <ele>1740.3</ele>
        <time>2026-07-07T07:57:16Z</time>
      </trkpt>
      <trkpt lat="42.9721" lon="0.32812">
        <ele>1740.3</ele>
        <time>2026-07-07T07:57:17Z</time>
      </trkpt>
      <trkpt lat="42.9721" lon="0.32812">
        <ele>1740.3</ele>
        <time>2026-07-07T07:57:18Z</time>
      </trkpt>
      <trkpt lat="42.9721" lon="0.32811">
        <ele>1740.3</ele>
        <time>2026-07-07T07:57:18Z</time>
      </trkpt>
      <trkpt lat="42.9721" lon="0.32811">
        <ele>1740.3</ele>
        <time>2026-07-07T07:57:19Z</time>
      </trkpt>
      <trkpt lat="42.9721" lon="0.3281">
        <ele>1740.3</ele>
        <time>2026-07-07T07:57:20Z</time>
      </trkpt>
      <trkpt lat="42.9721" lon="0.32809">
        <ele>1740.3</ele>
        <time>2026-07-07T07:57:20Z</time>
      </trkpt>
      <trkpt lat="42.9721" lon="0.32809">
        <ele>1740.3</ele>
        <time>2026-07-07T07:57:21Z</time>
      </trkpt>
      <trkpt lat="42.97209" lon="0.32809">
        <ele>1740.3</ele>
        <time>2026-07-07T07:57:21Z</time>
      </trkpt>
      <trkpt lat="42.97209" lon="0.32808">
        <ele>1740.3</ele>
        <time>2026-07-07T07:57:22Z</time>
      </trkpt>
      <trkpt lat="42.97208" lon="0.32808">
        <ele>1740.3</ele>
        <time>2026-07-07T07:57:23Z</time>
      </trkpt>
      <trkpt lat="42.97208" lon="0.32807">
        <ele>1740.3</ele>
        <time>2026-07-07T07:57:23Z</time>
      </trkpt>
      <trkpt lat="42.97207" lon="0.32807">
        <ele>1740.3</ele>
        <time>2026-07-07T07:57:24Z</time>
      </trkpt>
      <trkpt lat="42.97207" lon="0.32807">
        <ele>1740.3</ele>
        <time>2026-07-07T07:57:25Z</time>
      </trkpt>
      <trkpt lat="42.97206" lon="0.32807">
        <ele>1739.3</ele>
        <time>2026-07-07T07:57:26Z</time>
      </trkpt>
      <trkpt lat="42.97206" lon="0.32806">
        <ele>1739.3</ele>
        <time>2026-07-07T07:57:27Z</time>
      </trkpt>
      <trkpt lat="42.97206" lon="0.32806">
        <ele>1739.3</ele>
        <time>2026-07-07T07:57:28Z</time>
      </trkpt>
      <trkpt lat="42.97207" lon="0.32805">
        <ele>1738.3</ele>
        <time>2026-07-07T07:57:29Z</time>
      </trkpt>
      <trkpt lat="42.97206" lon="0.32805">
        <ele>1738.3</ele>
        <time>2026-07-07T07:57:30Z</time>
      </trkpt>
      <trkpt lat="42.97206" lon="0.32805">
        <ele>1737.3</ele>
        <time>2026-07-07T07:57:30Z</time>
      </trkpt>
      <trkpt lat="42.97206" lon="0.32804">
        <ele>1737.3</ele>
        <time>2026-07-07T07:57:31Z</time>
      </trkpt>
      <trkpt lat="42.97205" lon="0.32804">
        <ele>1737.3</ele>
        <time>2026-07-07T07:57:32Z</time>
      </trkpt>
      <trkpt lat="42.97205" lon="0.32803">
        <ele>1737.3</ele>
        <time>2026-07-07T07:57:32Z</time>
      </trkpt>
      <trkpt lat="42.97206" lon="0.32802">
        <ele>1737.3</ele>
        <time>2026-07-07T07:57:33Z</time>
      </trkpt>
      <trkpt lat="42.97206" lon="0.32801">
        <ele>1736.3</ele>
        <time>2026-07-07T07:57:34Z</time>
      </trkpt>
      <trkpt lat="42.97207" lon="0.32801">
        <ele>1735.3</ele>
        <time>2026-07-07T07:57:35Z</time>
      </trkpt>
      <trkpt lat="42.97207" lon="0.32801">
        <ele>1735.3</ele>
        <time>2026-07-07T07:57:35Z</time>
      </trkpt>
      <trkpt lat="42.97208" lon="0.328">
        <ele>1735.3</ele>
        <time>2026-07-07T07:57:36Z</time>
      </trkpt>
      <trkpt lat="42.97208" lon="0.32799">
        <ele>1735.3</ele>
        <time>2026-07-07T07:57:37Z</time>
      </trkpt>
      <trkpt lat="42.97209" lon="0.32799">
        <ele>1735.3</ele>
        <time>2026-07-07T07:57:37Z</time>
      </trkpt>
      <trkpt lat="42.97209" lon="0.32798">
        <ele>1735.3</ele>
        <time>2026-07-07T07:57:38Z</time>
      </trkpt>
      <trkpt lat="42.97209" lon="0.32797">
        <ele>1735.3</ele>
        <time>2026-07-07T07:57:38Z</time>
      </trkpt>
      <trkpt lat="42.97209" lon="0.32797">
        <ele>1735.3</ele>
        <time>2026-07-07T07:57:39Z</time>
      </trkpt>
      <trkpt lat="42.97209" lon="0.32796">
        <ele>1735.3</ele>
        <time>2026-07-07T07:57:40Z</time>
      </trkpt>
      <trkpt lat="42.97209" lon="0.32795">
        <ele>1735.3</ele>
        <time>2026-07-07T07:57:41Z</time>
      </trkpt>
      <trkpt lat="42.97208" lon="0.32794">
        <ele>1735.3</ele>
        <time>2026-07-07T07:57:41Z</time>
      </trkpt>
      <trkpt lat="42.97208" lon="0.32794">
        <ele>1734.3</ele>
        <time>2026-07-07T07:57:42Z</time>
      </trkpt>
      <trkpt lat="42.97207" lon="0.32794">
        <ele>1733.3</ele>
        <time>2026-07-07T07:57:42Z</time>
      </trkpt>
      <trkpt lat="42.97207" lon="0.32793">
        <ele>1733.3</ele>
        <time>2026-07-07T07:57:43Z</time>
      </trkpt>
      <trkpt lat="42.97206" lon="0.32793">
        <ele>1733.3</ele>
        <time>2026-07-07T07:57:44Z</time>
      </trkpt>
      <trkpt lat="42.97205" lon="0.32793">
        <ele>1732.3</ele>
        <time>2026-07-07T07:57:44Z</time>
      </trkpt>
      <trkpt lat="42.97205" lon="0.32792">
        <ele>1732.3</ele>
        <time>2026-07-07T07:57:45Z</time>
      </trkpt>
      <trkpt lat="42.97204" lon="0.32791">
        <ele>1732.3</ele>
        <time>2026-07-07T07:57:46Z</time>
      </trkpt>
      <trkpt lat="42.97204" lon="0.3279">
        <ele>1732.3</ele>
        <time>2026-07-07T07:57:46Z</time>
      </trkpt>
      <trkpt lat="42.97204" lon="0.3279">
        <ele>1732.3</ele>
        <time>2026-07-07T07:57:47Z</time>
      </trkpt>
      <trkpt lat="42.97204" lon="0.32789">
        <ele>1731.3</ele>
        <time>2026-07-07T07:57:48Z</time>
      </trkpt>
      <trkpt lat="42.97204" lon="0.32789">
        <ele>1731.3</ele>
        <time>2026-07-07T07:57:48Z</time>
      </trkpt>
      <trkpt lat="42.97203" lon="0.32789">
        <ele>1731.3</ele>
        <time>2026-07-07T07:57:49Z</time>
      </trkpt>
      <trkpt lat="42.97203" lon="0.32788">
        <ele>1731.3</ele>
        <time>2026-07-07T07:57:50Z</time>
      </trkpt>
      <trkpt lat="42.97203" lon="0.32788">
        <ele>1730.3</ele>
        <time>2026-07-07T07:57:51Z</time>
      </trkpt>
      <trkpt lat="42.97202" lon="0.32787">
        <ele>1730.3</ele>
        <time>2026-07-07T07:57:51Z</time>
      </trkpt>
      <trkpt lat="42.97202" lon="0.32786">
        <ele>1729.3</ele>
        <time>2026-07-07T07:57:52Z</time>
      </trkpt>
      <trkpt lat="42.97202" lon="0.32786">
        <ele>1730.3</ele>
        <time>2026-07-07T07:57:53Z</time>
      </trkpt>
      <trkpt lat="42.97202" lon="0.32785">
        <ele>1729.3</ele>
        <time>2026-07-07T07:57:53Z</time>
      </trkpt>
      <trkpt lat="42.97202" lon="0.32785">
        <ele>1729.3</ele>
        <time>2026-07-07T07:57:54Z</time>
      </trkpt>
      <trkpt lat="42.97201" lon="0.32784">
        <ele>1729.3</ele>
        <time>2026-07-07T07:57:55Z</time>
      </trkpt>
      <trkpt lat="42.97201" lon="0.32784">
        <ele>1729.3</ele>
        <time>2026-07-07T07:57:55Z</time>
      </trkpt>
      <trkpt lat="42.97201" lon="0.32784">
        <ele>1729.3</ele>
        <time>2026-07-07T07:57:56Z</time>
      </trkpt>
      <trkpt lat="42.97201" lon="0.32784">
        <ele>1729.3</ele>
        <time>2026-07-07T07:57:56Z</time>
      </trkpt>
      <trkpt lat="42.972" lon="0.32783">
        <ele>1729.3</ele>
        <time>2026-07-07T07:57:57Z</time>
      </trkpt>
      <trkpt lat="42.972" lon="0.32783">
        <ele>1728.3</ele>
        <time>2026-07-07T07:57:58Z</time>
      </trkpt>
      <trkpt lat="42.972" lon="0.32783">
        <ele>1728.3</ele>
        <time>2026-07-07T07:57:59Z</time>
      </trkpt>
      <trkpt lat="42.972" lon="0.32784">
        <ele>1728.3</ele>
        <time>2026-07-07T07:57:59Z</time>
      </trkpt>
      <trkpt lat="42.97199" lon="0.32783">
        <ele>1728.3</ele>
        <time>2026-07-07T07:58:00Z</time>
      </trkpt>
      <trkpt lat="42.97199" lon="0.32783">
        <ele>1729.3</ele>
        <time>2026-07-07T07:58:01Z</time>
      </trkpt>
      <trkpt lat="42.97199" lon="0.32783">
        <ele>1728.3</ele>
        <time>2026-07-07T07:58:01Z</time>
      </trkpt>
      <trkpt lat="42.97198" lon="0.32782">
        <ele>1728.3</ele>
        <time>2026-07-07T07:58:02Z</time>
      </trkpt>
      <trkpt lat="42.97198" lon="0.32782">
        <ele>1728.3</ele>
        <time>2026-07-07T07:58:03Z</time>
      </trkpt>
      <trkpt lat="42.97198" lon="0.32782">
        <ele>1728.3</ele>
        <time>2026-07-07T07:58:04Z</time>
      </trkpt>
      <trkpt lat="42.97197" lon="0.32782">
        <ele>1728.3</ele>
        <time>2026-07-07T07:58:05Z</time>
      </trkpt>
      <trkpt lat="42.97197" lon="0.32782">
        <ele>1728.3</ele>
        <time>2026-07-07T07:58:05Z</time>
      </trkpt>
      <trkpt lat="42.97197" lon="0.32782">
        <ele>1728.3</ele>
        <time>2026-07-07T07:58:06Z</time>
      </trkpt>
      <trkpt lat="42.97197" lon="0.32782">
        <ele>1728.3</ele>
        <time>2026-07-07T07:58:07Z</time>
      </trkpt>
      <trkpt lat="42.97196" lon="0.32781">
        <ele>1727.3</ele>
        <time>2026-07-07T07:58:07Z</time>
      </trkpt>
      <trkpt lat="42.97196" lon="0.32781">
        <ele>1727.3</ele>
        <time>2026-07-07T07:58:08Z</time>
      </trkpt>
      <trkpt lat="42.97196" lon="0.3278">
        <ele>1727.3</ele>
        <time>2026-07-07T07:58:09Z</time>
      </trkpt>
      <trkpt lat="42.97196" lon="0.3278">
        <ele>1726.3</ele>
        <time>2026-07-07T07:58:09Z</time>
      </trkpt>
      <trkpt lat="42.97196" lon="0.3278">
        <ele>1726.3</ele>
        <time>2026-07-07T07:58:10Z</time>
      </trkpt>
      <trkpt lat="42.97195" lon="0.32779">
        <ele>1726.3</ele>
        <time>2026-07-07T07:58:11Z</time>
      </trkpt>
      <trkpt lat="42.97195" lon="0.32779">
        <ele>1726.3</ele>
        <time>2026-07-07T07:58:12Z</time>
      </trkpt>
      <trkpt lat="42.97195" lon="0.32779">
        <ele>1726.3</ele>
        <time>2026-07-07T07:58:12Z</time>
      </trkpt>
      <trkpt lat="42.97195" lon="0.32778">
        <ele>1726.3</ele>
        <time>2026-07-07T07:58:13Z</time>
      </trkpt>
      <trkpt lat="42.97195" lon="0.32778">
        <ele>1726.3</ele>
        <time>2026-07-07T07:58:13Z</time>
      </trkpt>
      <trkpt lat="42.97194" lon="0.32777">
        <ele>1726.3</ele>
        <time>2026-07-07T07:58:14Z</time>
      </trkpt>
      <trkpt lat="42.97194" lon="0.32776">
        <ele>1725.3</ele>
        <time>2026-07-07T07:58:15Z</time>
      </trkpt>
      <trkpt lat="42.97195" lon="0.32776">
        <ele>1726.3</ele>
        <time>2026-07-07T07:58:15Z</time>
      </trkpt>
      <trkpt lat="42.97195" lon="0.32776">
        <ele>1726.3</ele>
        <time>2026-07-07T07:58:16Z</time>
      </trkpt>
      <trkpt lat="42.97194" lon="0.32775">
        <ele>1726.3</ele>
        <time>2026-07-07T07:58:17Z</time>
      </trkpt>
      <trkpt lat="42.97194" lon="0.32775">
        <ele>1726.3</ele>
        <time>2026-07-07T07:58:18Z</time>
      </trkpt>
      <trkpt lat="42.97194" lon="0.32775">
        <ele>1725.3</ele>
        <time>2026-07-07T07:58:18Z</time>
      </trkpt>
      <trkpt lat="42.97193" lon="0.32776">
        <ele>1725.3</ele>
        <time>2026-07-07T07:58:19Z</time>
      </trkpt>
      <trkpt lat="42.97193" lon="0.32776">
        <ele>1725.3</ele>
        <time>2026-07-07T07:58:20Z</time>
      </trkpt>
      <trkpt lat="42.97192" lon="0.32776">
        <ele>1725.3</ele>
        <time>2026-07-07T07:58:20Z</time>
      </trkpt>
      <trkpt lat="42.97191" lon="0.32776">
        <ele>1725.3</ele>
        <time>2026-07-07T07:58:21Z</time>
      </trkpt>
      <trkpt lat="42.97191" lon="0.32776">
        <ele>1725.3</ele>
        <time>2026-07-07T07:58:22Z</time>
      </trkpt>
      <trkpt lat="42.9719" lon="0.32776">
        <ele>1724.3</ele>
        <time>2026-07-07T07:58:23Z</time>
      </trkpt>
      <trkpt lat="42.9719" lon="0.32776">
        <ele>1724.3</ele>
        <time>2026-07-07T07:58:23Z</time>
      </trkpt>
      <trkpt lat="42.9719" lon="0.32776">
        <ele>1724.3</ele>
        <time>2026-07-07T07:58:24Z</time>
      </trkpt>
      <trkpt lat="42.97189" lon="0.32776">
        <ele>1724.3</ele>
        <time>2026-07-07T07:58:25Z</time>
      </trkpt>
      <trkpt lat="42.97189" lon="0.32776">
        <ele>1724.3</ele>
        <time>2026-07-07T07:58:26Z</time>
      </trkpt>
      <trkpt lat="42.97188" lon="0.32775">
        <ele>1723.3</ele>
        <time>2026-07-07T07:58:27Z</time>
      </trkpt>
      <trkpt lat="42.97188" lon="0.32775">
        <ele>1723.3</ele>
        <time>2026-07-07T07:58:28Z</time>
      </trkpt>
      <trkpt lat="42.97188" lon="0.32775">
        <ele>1723.3</ele>
        <time>2026-07-07T07:58:28Z</time>
      </trkpt>
      <trkpt lat="42.97188" lon="0.32775">
        <ele>1723.3</ele>
        <time>2026-07-07T07:58:29Z</time>
      </trkpt>
      <trkpt lat="42.97187" lon="0.32774">
        <ele>1722.3</ele>
        <time>2026-07-07T07:58:30Z</time>
      </trkpt>
      <trkpt lat="42.97187" lon="0.32773">
        <ele>1722.3</ele>
        <time>2026-07-07T07:58:31Z</time>
      </trkpt>
      <trkpt lat="42.97188" lon="0.32774">
        <ele>1722.3</ele>
        <time>2026-07-07T07:58:32Z</time>
      </trkpt>
      <trkpt lat="42.97188" lon="0.32773">
        <ele>1722.3</ele>
        <time>2026-07-07T07:58:32Z</time>
      </trkpt>
      <trkpt lat="42.97188" lon="0.32773">
        <ele>1722.3</ele>
        <time>2026-07-07T07:58:33Z</time>
      </trkpt>
      <trkpt lat="42.97187" lon="0.32773">
        <ele>1722.3</ele>
        <time>2026-07-07T07:58:34Z</time>
      </trkpt>
      <trkpt lat="42.97187" lon="0.32773">
        <ele>1722.3</ele>
        <time>2026-07-07T07:58:35Z</time>
      </trkpt>
      <trkpt lat="42.97187" lon="0.32773">
        <ele>1722.3</ele>
        <time>2026-07-07T07:58:35Z</time>
      </trkpt>
      <trkpt lat="42.97187" lon="0.32773">
        <ele>1722.3</ele>
        <time>2026-07-07T07:58:36Z</time>
      </trkpt>
      <trkpt lat="42.97186" lon="0.32772">
        <ele>1722.3</ele>
        <time>2026-07-07T07:58:36Z</time>
      </trkpt>
      <trkpt lat="42.97186" lon="0.32772">
        <ele>1722.3</ele>
        <time>2026-07-07T07:58:37Z</time>
      </trkpt>
      <trkpt lat="42.97186" lon="0.32772">
        <ele>1721.3</ele>
        <time>2026-07-07T07:58:38Z</time>
      </trkpt>
      <trkpt lat="42.97185" lon="0.32771">
        <ele>1721.3</ele>
        <time>2026-07-07T07:58:38Z</time>
      </trkpt>
      <trkpt lat="42.97185" lon="0.32771">
        <ele>1721.3</ele>
        <time>2026-07-07T07:58:39Z</time>
      </trkpt>
      <trkpt lat="42.97185" lon="0.3277">
        <ele>1721.3</ele>
        <time>2026-07-07T07:58:39Z</time>
      </trkpt>
      <trkpt lat="42.97184" lon="0.32769">
        <ele>1721.3</ele>
        <time>2026-07-07T07:58:40Z</time>
      </trkpt>
      <trkpt lat="42.97185" lon="0.32768">
        <ele>1721.3</ele>
        <time>2026-07-07T07:58:41Z</time>
      </trkpt>
      <trkpt lat="42.97185" lon="0.32767">
        <ele>1721.3</ele>
        <time>2026-07-07T07:58:41Z</time>
      </trkpt>
      <trkpt lat="42.97185" lon="0.32766">
        <ele>1720.3</ele>
        <time>2026-07-07T07:58:42Z</time>
      </trkpt>
      <trkpt lat="42.97185" lon="0.32766">
        <ele>1720.3</ele>
        <time>2026-07-07T07:58:42Z</time>
      </trkpt>
      <trkpt lat="42.97185" lon="0.32765">
        <ele>1720.3</ele>
        <time>2026-07-07T07:58:43Z</time>
      </trkpt>
      <trkpt lat="42.97185" lon="0.32765">
        <ele>1720.3</ele>
        <time>2026-07-07T07:58:44Z</time>
      </trkpt>
      <trkpt lat="42.97185" lon="0.32764">
        <ele>1720.3</ele>
        <time>2026-07-07T07:58:44Z</time>
      </trkpt>
      <trkpt lat="42.97184" lon="0.32764">
        <ele>1720.3</ele>
        <time>2026-07-07T07:58:45Z</time>
      </trkpt>
      <trkpt lat="42.97183" lon="0.32764">
        <ele>1719.3</ele>
        <time>2026-07-07T07:58:46Z</time>
      </trkpt>
      <trkpt lat="42.97183" lon="0.32764">
        <ele>1719.3</ele>
        <time>2026-07-07T07:58:46Z</time>
      </trkpt>
      <trkpt lat="42.97182" lon="0.32764">
        <ele>1719.3</ele>
        <time>2026-07-07T07:58:47Z</time>
      </trkpt>
      <trkpt lat="42.97182" lon="0.32764">
        <ele>1719.3</ele>
        <time>2026-07-07T07:58:47Z</time>
      </trkpt>
      <trkpt lat="42.97181" lon="0.32765">
        <ele>1719.3</ele>
        <time>2026-07-07T07:58:48Z</time>
      </trkpt>
      <trkpt lat="42.97181" lon="0.32765">
        <ele>1719.3</ele>
        <time>2026-07-07T07:58:49Z</time>
      </trkpt>
      <trkpt lat="42.97181" lon="0.32765">
        <ele>1718.3</ele>
        <time>2026-07-07T07:58:49Z</time>
      </trkpt>
      <trkpt lat="42.9718" lon="0.32765">
        <ele>1718.3</ele>
        <time>2026-07-07T07:58:50Z</time>
      </trkpt>
      <trkpt lat="42.9718" lon="0.32765">
        <ele>1718.3</ele>
        <time>2026-07-07T07:58:51Z</time>
      </trkpt>
      <trkpt lat="42.9718" lon="0.32764">
        <ele>1718.3</ele>
        <time>2026-07-07T07:58:52Z</time>
      </trkpt>
      <trkpt lat="42.9718" lon="0.32764">
        <ele>1718.3</ele>
        <time>2026-07-07T07:58:52Z</time>
      </trkpt>
      <trkpt lat="42.9718" lon="0.32763">
        <ele>1718.3</ele>
        <time>2026-07-07T07:58:53Z</time>
      </trkpt>
      <trkpt lat="42.9718" lon="0.32762">
        <ele>1718.3</ele>
        <time>2026-07-07T07:58:54Z</time>
      </trkpt>
      <trkpt lat="42.97181" lon="0.32761">
        <ele>1717.3</ele>
        <time>2026-07-07T07:58:55Z</time>
      </trkpt>
      <trkpt lat="42.97181" lon="0.32761">
        <ele>1717.3</ele>
        <time>2026-07-07T07:58:55Z</time>
      </trkpt>
      <trkpt lat="42.97181" lon="0.3276">
        <ele>1717.3</ele>
        <time>2026-07-07T07:58:56Z</time>
      </trkpt>
      <trkpt lat="42.97181" lon="0.3276">
        <ele>1717.3</ele>
        <time>2026-07-07T07:58:56Z</time>
      </trkpt>
      <trkpt lat="42.97181" lon="0.32759">
        <ele>1717.3</ele>
        <time>2026-07-07T07:58:57Z</time>
      </trkpt>
      <trkpt lat="42.97181" lon="0.32759">
        <ele>1717.3</ele>
        <time>2026-07-07T07:58:58Z</time>
      </trkpt>
      <trkpt lat="42.97181" lon="0.32758">
        <ele>1717.3</ele>
        <time>2026-07-07T07:58:58Z</time>
      </trkpt>
      <trkpt lat="42.97181" lon="0.32757">
        <ele>1717.3</ele>
        <time>2026-07-07T07:58:59Z</time>
      </trkpt>
      <trkpt lat="42.97181" lon="0.32756">
        <ele>1716.3</ele>
        <time>2026-07-07T07:58:59Z</time>
      </trkpt>
      <trkpt lat="42.97181" lon="0.32755">
        <ele>1716.3</ele>
        <time>2026-07-07T07:59:00Z</time>
      </trkpt>
      <trkpt lat="42.9718" lon="0.32755">
        <ele>1716.3</ele>
        <time>2026-07-07T07:59:01Z</time>
      </trkpt>
      <trkpt lat="42.9718" lon="0.32754">
        <ele>1716.3</ele>
        <time>2026-07-07T07:59:02Z</time>
      </trkpt>
      <trkpt lat="42.97179" lon="0.32754">
        <ele>1716.3</ele>
        <time>2026-07-07T07:59:03Z</time>
      </trkpt>
      <trkpt lat="42.97179" lon="0.32754">
        <ele>1716.3</ele>
        <time>2026-07-07T07:59:03Z</time>
      </trkpt>
      <trkpt lat="42.97178" lon="0.32753">
        <ele>1715.3</ele>
        <time>2026-07-07T07:59:04Z</time>
      </trkpt>
      <trkpt lat="42.97178" lon="0.32753">
        <ele>1715.3</ele>
        <time>2026-07-07T07:59:04Z</time>
      </trkpt>
      <trkpt lat="42.97177" lon="0.32753">
        <ele>1715.3</ele>
        <time>2026-07-07T07:59:05Z</time>
      </trkpt>
      <trkpt lat="42.97177" lon="0.32752">
        <ele>1714.3</ele>
        <time>2026-07-07T07:59:05Z</time>
      </trkpt>
      <trkpt lat="42.97177" lon="0.32751">
        <ele>1714.3</ele>
        <time>2026-07-07T07:59:06Z</time>
      </trkpt>
      <trkpt lat="42.97177" lon="0.32751">
        <ele>1714.3</ele>
        <time>2026-07-07T07:59:07Z</time>
      </trkpt>
      <trkpt lat="42.97177" lon="0.3275">
        <ele>1714.3</ele>
        <time>2026-07-07T07:59:07Z</time>
      </trkpt>
      <trkpt lat="42.97176" lon="0.32749">
        <ele>1714.3</ele>
        <time>2026-07-07T07:59:08Z</time>
      </trkpt>
      <trkpt lat="42.97176" lon="0.32749">
        <ele>1714.3</ele>
        <time>2026-07-07T07:59:08Z</time>
      </trkpt>
      <trkpt lat="42.97176" lon="0.32748">
        <ele>1714.3</ele>
        <time>2026-07-07T07:59:09Z</time>
      </trkpt>
      <trkpt lat="42.97176" lon="0.32747">
        <ele>1714.3</ele>
        <time>2026-07-07T07:59:09Z</time>
      </trkpt>
      <trkpt lat="42.97176" lon="0.32746">
        <ele>1714.3</ele>
        <time>2026-07-07T07:59:10Z</time>
      </trkpt>
      <trkpt lat="42.97176" lon="0.32746">
        <ele>1713.3</ele>
        <time>2026-07-07T07:59:10Z</time>
      </trkpt>
      <trkpt lat="42.97176" lon="0.32745">
        <ele>1713.3</ele>
        <time>2026-07-07T07:59:11Z</time>
      </trkpt>
      <trkpt lat="42.97176" lon="0.32745">
        <ele>1713.3</ele>
        <time>2026-07-07T07:59:11Z</time>
      </trkpt>
      <trkpt lat="42.97175" lon="0.32744">
        <ele>1713.3</ele>
        <time>2026-07-07T07:59:12Z</time>
      </trkpt>
      <trkpt lat="42.97175" lon="0.32744">
        <ele>1712.3</ele>
        <time>2026-07-07T07:59:13Z</time>
      </trkpt>
      <trkpt lat="42.97175" lon="0.32743">
        <ele>1712.3</ele>
        <time>2026-07-07T07:59:13Z</time>
      </trkpt>
      <trkpt lat="42.97175" lon="0.32743">
        <ele>1712.3</ele>
        <time>2026-07-07T07:59:14Z</time>
      </trkpt>
      <trkpt lat="42.97174" lon="0.32742">
        <ele>1712.3</ele>
        <time>2026-07-07T07:59:14Z</time>
      </trkpt>
      <trkpt lat="42.97174" lon="0.32742">
        <ele>1711.3</ele>
        <time>2026-07-07T07:59:15Z</time>
      </trkpt>
      <trkpt lat="42.97174" lon="0.32742">
        <ele>1711.3</ele>
        <time>2026-07-07T07:59:15Z</time>
      </trkpt>
      <trkpt lat="42.97174" lon="0.32741">
        <ele>1711.3</ele>
        <time>2026-07-07T07:59:16Z</time>
      </trkpt>
      <trkpt lat="42.97173" lon="0.32741">
        <ele>1711.3</ele>
        <time>2026-07-07T07:59:17Z</time>
      </trkpt>
      <trkpt lat="42.97172" lon="0.3274">
        <ele>1711.3</ele>
        <time>2026-07-07T07:59:17Z</time>
      </trkpt>
      <trkpt lat="42.97171" lon="0.3274">
        <ele>1710.3</ele>
        <time>2026-07-07T07:59:18Z</time>
      </trkpt>
      <trkpt lat="42.97171" lon="0.3274">
        <ele>1709.3</ele>
        <time>2026-07-07T07:59:19Z</time>
      </trkpt>
      <trkpt lat="42.97171" lon="0.3274">
        <ele>1710.3</ele>
        <time>2026-07-07T07:59:20Z</time>
      </trkpt>
      <trkpt lat="42.97171" lon="0.3274">
        <ele>1710.3</ele>
        <time>2026-07-07T07:59:20Z</time>
      </trkpt>
      <trkpt lat="42.97171" lon="0.3274">
        <ele>1710.3</ele>
        <time>2026-07-07T07:59:21Z</time>
      </trkpt>
      <trkpt lat="42.97171" lon="0.3274">
        <ele>1709.3</ele>
        <time>2026-07-07T07:59:21Z</time>
      </trkpt>
      <trkpt lat="42.9717" lon="0.32739">
        <ele>1709.3</ele>
        <time>2026-07-07T07:59:22Z</time>
      </trkpt>
      <trkpt lat="42.9717" lon="0.32738">
        <ele>1709.3</ele>
        <time>2026-07-07T07:59:23Z</time>
      </trkpt>
      <trkpt lat="42.9717" lon="0.32737">
        <ele>1708.3</ele>
        <time>2026-07-07T07:59:24Z</time>
      </trkpt>
      <trkpt lat="42.97169" lon="0.32737">
        <ele>1707.3</ele>
        <time>2026-07-07T07:59:25Z</time>
      </trkpt>
      <trkpt lat="42.97169" lon="0.32736">
        <ele>1707.3</ele>
        <time>2026-07-07T07:59:26Z</time>
      </trkpt>
      <trkpt lat="42.97169" lon="0.32736">
        <ele>1706.3</ele>
        <time>2026-07-07T07:59:26Z</time>
      </trkpt>
      <trkpt lat="42.97169" lon="0.32736">
        <ele>1706.3</ele>
        <time>2026-07-07T07:59:27Z</time>
      </trkpt>
      <trkpt lat="42.97168" lon="0.32735">
        <ele>1705.3</ele>
        <time>2026-07-07T07:59:27Z</time>
      </trkpt>
      <trkpt lat="42.97168" lon="0.32735">
        <ele>1705.3</ele>
        <time>2026-07-07T07:59:28Z</time>
      </trkpt>
      <trkpt lat="42.97168" lon="0.32735">
        <ele>1705.3</ele>
        <time>2026-07-07T07:59:29Z</time>
      </trkpt>
      <trkpt lat="42.97167" lon="0.32734">
        <ele>1705.3</ele>
        <time>2026-07-07T07:59:29Z</time>
      </trkpt>
      <trkpt lat="42.97167" lon="0.32733">
        <ele>1705.3</ele>
        <time>2026-07-07T07:59:30Z</time>
      </trkpt>
      <trkpt lat="42.97167" lon="0.32733">
        <ele>1705.3</ele>
        <time>2026-07-07T07:59:30Z</time>
      </trkpt>
      <trkpt lat="42.97167" lon="0.32733">
        <ele>1705.3</ele>
        <time>2026-07-07T07:59:31Z</time>
      </trkpt>
      <trkpt lat="42.97167" lon="0.32732">
        <ele>1705.3</ele>
        <time>2026-07-07T07:59:32Z</time>
      </trkpt>
      <trkpt lat="42.97166" lon="0.32732">
        <ele>1705.3</ele>
        <time>2026-07-07T07:59:32Z</time>
      </trkpt>
      <trkpt lat="42.97166" lon="0.32731">
        <ele>1705.3</ele>
        <time>2026-07-07T07:59:33Z</time>
      </trkpt>
      <trkpt lat="42.97166" lon="0.32731">
        <ele>1705.3</ele>
        <time>2026-07-07T07:59:34Z</time>
      </trkpt>
      <trkpt lat="42.97165" lon="0.32731">
        <ele>1704.3</ele>
        <time>2026-07-07T07:59:34Z</time>
      </trkpt>
      <trkpt lat="42.97165" lon="0.32731">
        <ele>1704.3</ele>
        <time>2026-07-07T07:59:35Z</time>
      </trkpt>
      <trkpt lat="42.97165" lon="0.32731">
        <ele>1704.3</ele>
        <time>2026-07-07T07:59:35Z</time>
      </trkpt>
      <trkpt lat="42.97164" lon="0.3273">
        <ele>1704.3</ele>
        <time>2026-07-07T07:59:36Z</time>
      </trkpt>
      <trkpt lat="42.97164" lon="0.3273">
        <ele>1704.3</ele>
        <time>2026-07-07T07:59:37Z</time>
      </trkpt>
      <trkpt lat="42.97164" lon="0.32729">
        <ele>1703.3</ele>
        <time>2026-07-07T07:59:37Z</time>
      </trkpt>
      <trkpt lat="42.97163" lon="0.32729">
        <ele>1703.3</ele>
        <time>2026-07-07T07:59:38Z</time>
      </trkpt>
      <trkpt lat="42.97163" lon="0.32727">
        <ele>1703.3</ele>
        <time>2026-07-07T07:59:39Z</time>
      </trkpt>
      <trkpt lat="42.97163" lon="0.32726">
        <ele>1703.3</ele>
        <time>2026-07-07T07:59:40Z</time>
      </trkpt>
      <trkpt lat="42.97163" lon="0.32725">
        <ele>1703.3</ele>
        <time>2026-07-07T07:59:41Z</time>
      </trkpt>
      <trkpt lat="42.97163" lon="0.32725">
        <ele>1703.3</ele>
        <time>2026-07-07T07:59:41Z</time>
      </trkpt>
      <trkpt lat="42.97162" lon="0.32724">
        <ele>1703.3</ele>
        <time>2026-07-07T07:59:42Z</time>
      </trkpt>
      <trkpt lat="42.97163" lon="0.32723">
        <ele>1703.3</ele>
        <time>2026-07-07T07:59:43Z</time>
      </trkpt>
      <trkpt lat="42.97162" lon="0.32721">
        <ele>1703.3</ele>
        <time>2026-07-07T07:59:44Z</time>
      </trkpt>
      <trkpt lat="42.97162" lon="0.3272">
        <ele>1703.3</ele>
        <time>2026-07-07T07:59:45Z</time>
      </trkpt>
      <trkpt lat="42.97162" lon="0.32719">
        <ele>1703.3</ele>
        <time>2026-07-07T07:59:46Z</time>
      </trkpt>
      <trkpt lat="42.97162" lon="0.32719">
        <ele>1703.3</ele>
        <time>2026-07-07T07:59:46Z</time>
      </trkpt>
      <trkpt lat="42.97162" lon="0.32718">
        <ele>1703.3</ele>
        <time>2026-07-07T07:59:47Z</time>
      </trkpt>
      <trkpt lat="42.97162" lon="0.32718">
        <ele>1702.3</ele>
        <time>2026-07-07T07:59:47Z</time>
      </trkpt>
      <trkpt lat="42.97162" lon="0.32717">
        <ele>1702.3</ele>
        <time>2026-07-07T07:59:48Z</time>
      </trkpt>
      <trkpt lat="42.97162" lon="0.32717">
        <ele>1702.3</ele>
        <time>2026-07-07T07:59:48Z</time>
      </trkpt>
      <trkpt lat="42.97162" lon="0.32716">
        <ele>1702.3</ele>
        <time>2026-07-07T07:59:49Z</time>
      </trkpt>
      <trkpt lat="42.97161" lon="0.32715">
        <ele>1702.3</ele>
        <time>2026-07-07T07:59:50Z</time>
      </trkpt>
      <trkpt lat="42.97161" lon="0.32714">
        <ele>1702.3</ele>
        <time>2026-07-07T07:59:51Z</time>
      </trkpt>
      <trkpt lat="42.9716" lon="0.32714">
        <ele>1702.3</ele>
        <time>2026-07-07T07:59:52Z</time>
      </trkpt>
      <trkpt lat="42.9716" lon="0.32713">
        <ele>1702.3</ele>
        <time>2026-07-07T07:59:52Z</time>
      </trkpt>
      <trkpt lat="42.9716" lon="0.32713">
        <ele>1702.3</ele>
        <time>2026-07-07T07:59:53Z</time>
      </trkpt>
      <trkpt lat="42.9716" lon="0.32714">
        <ele>1701.3</ele>
        <time>2026-07-07T07:59:53Z</time>
      </trkpt>
      <trkpt lat="42.97159" lon="0.32713">
        <ele>1701.3</ele>
        <time>2026-07-07T07:59:54Z</time>
      </trkpt>
      <trkpt lat="42.97159" lon="0.32713">
        <ele>1701.3</ele>
        <time>2026-07-07T07:59:54Z</time>
      </trkpt>
      <trkpt lat="42.97159" lon="0.32713">
        <ele>1701.3</ele>
        <time>2026-07-07T07:59:55Z</time>
      </trkpt>
      <trkpt lat="42.97158" lon="0.32713">
        <ele>1700.3</ele>
        <time>2026-07-07T07:59:55Z</time>
      </trkpt>
      <trkpt lat="42.97158" lon="0.32712">
        <ele>1700.3</ele>
        <time>2026-07-07T07:59:56Z</time>
      </trkpt>
      <trkpt lat="42.97158" lon="0.32711">
        <ele>1700.3</ele>
        <time>2026-07-07T07:59:57Z</time>
      </trkpt>
      <trkpt lat="42.97157" lon="0.3271">
        <ele>1700.3</ele>
        <time>2026-07-07T07:59:58Z</time>
      </trkpt>
      <trkpt lat="42.97157" lon="0.3271">
        <ele>1700.3</ele>
        <time>2026-07-07T07:59:58Z</time>
      </trkpt>
      <trkpt lat="42.97157" lon="0.32709">
        <ele>1700.3</ele>
        <time>2026-07-07T07:59:59Z</time>
      </trkpt>
      <trkpt lat="42.97157" lon="0.32709">
        <ele>1700.3</ele>
        <time>2026-07-07T07:59:59Z</time>
      </trkpt>
      <trkpt lat="42.97156" lon="0.32709">
        <ele>1700.3</ele>
        <time>2026-07-07T08:00:00Z</time>
      </trkpt>
      <trkpt lat="42.97156" lon="0.32709">
        <ele>1699.3</ele>
        <time>2026-07-07T08:00:01Z</time>
      </trkpt>
      <trkpt lat="42.97156" lon="0.32708">
        <ele>1699.3</ele>
        <time>2026-07-07T08:00:01Z</time>
      </trkpt>
      <trkpt lat="42.97155" lon="0.32708">
        <ele>1699.3</ele>
        <time>2026-07-07T08:00:02Z</time>
      </trkpt>
      <trkpt lat="42.97155" lon="0.32707">
        <ele>1698.3</ele>
        <time>2026-07-07T08:00:03Z</time>
      </trkpt>
      <trkpt lat="42.97155" lon="0.32707">
        <ele>1699.3</ele>
        <time>2026-07-07T08:00:03Z</time>
      </trkpt>
      <trkpt lat="42.97154" lon="0.32706">
        <ele>1699.3</ele>
        <time>2026-07-07T08:00:04Z</time>
      </trkpt>
      <trkpt lat="42.97153" lon="0.32705">
        <ele>1698.3</ele>
        <time>2026-07-07T08:00:05Z</time>
      </trkpt>
      <trkpt lat="42.97154" lon="0.32705">
        <ele>1698.3</ele>
        <time>2026-07-07T08:00:06Z</time>
      </trkpt>
      <trkpt lat="42.97153" lon="0.32704">
        <ele>1698.3</ele>
        <time>2026-07-07T08:00:06Z</time>
      </trkpt>
      <trkpt lat="42.97153" lon="0.32704">
        <ele>1698.3</ele>
        <time>2026-07-07T08:00:07Z</time>
      </trkpt>
      <trkpt lat="42.97154" lon="0.32703">
        <ele>1698.3</ele>
        <time>2026-07-07T08:00:08Z</time>
      </trkpt>
      <trkpt lat="42.97153" lon="0.32703">
        <ele>1698.3</ele>
        <time>2026-07-07T08:00:08Z</time>
      </trkpt>
      <trkpt lat="42.97154" lon="0.32702">
        <ele>1697.3</ele>
        <time>2026-07-07T08:00:09Z</time>
      </trkpt>
      <trkpt lat="42.97154" lon="0.32702">
        <ele>1697.3</ele>
        <time>2026-07-07T08:00:09Z</time>
      </trkpt>
      <trkpt lat="42.97154" lon="0.32701">
        <ele>1697.3</ele>
        <time>2026-07-07T08:00:10Z</time>
      </trkpt>
      <trkpt lat="42.97154" lon="0.32701">
        <ele>1697.3</ele>
        <time>2026-07-07T08:00:10Z</time>
      </trkpt>
      <trkpt lat="42.97154" lon="0.327">
        <ele>1697.3</ele>
        <time>2026-07-07T08:00:11Z</time>
      </trkpt>
      <trkpt lat="42.97154" lon="0.327">
        <ele>1698.3</ele>
        <time>2026-07-07T08:00:11Z</time>
      </trkpt>
      <trkpt lat="42.97154" lon="0.32699">
        <ele>1698.3</ele>
        <time>2026-07-07T08:00:12Z</time>
      </trkpt>
      <trkpt lat="42.97154" lon="0.32698">
        <ele>1697.3</ele>
        <time>2026-07-07T08:00:13Z</time>
      </trkpt>
      <trkpt lat="42.97154" lon="0.32698">
        <ele>1697.3</ele>
        <time>2026-07-07T08:00:14Z</time>
      </trkpt>
      <trkpt lat="42.97155" lon="0.32697">
        <ele>1697.3</ele>
        <time>2026-07-07T08:00:14Z</time>
      </trkpt>
      <trkpt lat="42.97155" lon="0.32696">
        <ele>1697.3</ele>
        <time>2026-07-07T08:00:15Z</time>
      </trkpt>
      <trkpt lat="42.97155" lon="0.32696">
        <ele>1697.3</ele>
        <time>2026-07-07T08:00:15Z</time>
      </trkpt>
      <trkpt lat="42.97155" lon="0.32695">
        <ele>1696.3</ele>
        <time>2026-07-07T08:00:16Z</time>
      </trkpt>
      <trkpt lat="42.97155" lon="0.32694">
        <ele>1696.3</ele>
        <time>2026-07-07T08:00:17Z</time>
      </trkpt>
      <trkpt lat="42.97154" lon="0.32693">
        <ele>1695.3</ele>
        <time>2026-07-07T08:00:18Z</time>
      </trkpt>
      <trkpt lat="42.97154" lon="0.32692">
        <ele>1695.3</ele>
        <time>2026-07-07T08:00:18Z</time>
      </trkpt>
      <trkpt lat="42.97154" lon="0.32692">
        <ele>1695.3</ele>
        <time>2026-07-07T08:00:19Z</time>
      </trkpt>
      <trkpt lat="42.97154" lon="0.32691">
        <ele>1694.3</ele>
        <time>2026-07-07T08:00:19Z</time>
      </trkpt>
      <trkpt lat="42.97154" lon="0.3269">
        <ele>1694.3</ele>
        <time>2026-07-07T08:00:20Z</time>
      </trkpt>
      <trkpt lat="42.97154" lon="0.3269">
        <ele>1695.3</ele>
        <time>2026-07-07T08:00:21Z</time>
      </trkpt>
      <trkpt lat="42.97154" lon="0.32689">
        <ele>1694.3</ele>
        <time>2026-07-07T08:00:21Z</time>
      </trkpt>
      <trkpt lat="42.97154" lon="0.32689">
        <ele>1694.3</ele>
        <time>2026-07-07T08:00:22Z</time>
      </trkpt>
      <trkpt lat="42.97154" lon="0.32689">
        <ele>1694.3</ele>
        <time>2026-07-07T08:00:22Z</time>
      </trkpt>
      <trkpt lat="42.97154" lon="0.32688">
        <ele>1694.3</ele>
        <time>2026-07-07T08:00:23Z</time>
      </trkpt>
      <trkpt lat="42.97154" lon="0.32687">
        <ele>1694.3</ele>
        <time>2026-07-07T08:00:24Z</time>
      </trkpt>
      <trkpt lat="42.97155" lon="0.32687">
        <ele>1694.3</ele>
        <time>2026-07-07T08:00:24Z</time>
      </trkpt>
      <trkpt lat="42.97155" lon="0.32686">
        <ele>1694.3</ele>
        <time>2026-07-07T08:00:25Z</time>
      </trkpt>
      <trkpt lat="42.97155" lon="0.32686">
        <ele>1694.3</ele>
        <time>2026-07-07T08:00:25Z</time>
      </trkpt>
      <trkpt lat="42.97155" lon="0.32685">
        <ele>1694.3</ele>
        <time>2026-07-07T08:00:26Z</time>
      </trkpt>
      <trkpt lat="42.97155" lon="0.32685">
        <ele>1695.3</ele>
        <time>2026-07-07T08:00:26Z</time>
      </trkpt>
      <trkpt lat="42.97155" lon="0.32684">
        <ele>1695.3</ele>
        <time>2026-07-07T08:00:27Z</time>
      </trkpt>
      <trkpt lat="42.97155" lon="0.32682">
        <ele>1695.3</ele>
        <time>2026-07-07T08:00:28Z</time>
      </trkpt>
      <trkpt lat="42.97155" lon="0.32682">
        <ele>1695.3</ele>
        <time>2026-07-07T08:00:29Z</time>
      </trkpt>
      <trkpt lat="42.97155" lon="0.32682">
        <ele>1695.3</ele>
        <time>2026-07-07T08:00:29Z</time>
      </trkpt>
      <trkpt lat="42.97154" lon="0.32681">
        <ele>1695.3</ele>
        <time>2026-07-07T08:00:30Z</time>
      </trkpt>
      <trkpt lat="42.97154" lon="0.32681">
        <ele>1694.3</ele>
        <time>2026-07-07T08:00:31Z</time>
      </trkpt>
      <trkpt lat="42.97154" lon="0.3268">
        <ele>1694.3</ele>
        <time>2026-07-07T08:00:31Z</time>
      </trkpt>
      <trkpt lat="42.97154" lon="0.32679">
        <ele>1695.3</ele>
        <time>2026-07-07T08:00:32Z</time>
      </trkpt>
      <trkpt lat="42.97153" lon="0.32678">
        <ele>1694.3</ele>
        <time>2026-07-07T08:00:33Z</time>
      </trkpt>
      <trkpt lat="42.97153" lon="0.32678">
        <ele>1694.3</ele>
        <time>2026-07-07T08:00:34Z</time>
      </trkpt>
      <trkpt lat="42.97153" lon="0.32678">
        <ele>1694.3</ele>
        <time>2026-07-07T08:00:34Z</time>
      </trkpt>
      <trkpt lat="42.97153" lon="0.32677">
        <ele>1694.3</ele>
        <time>2026-07-07T08:00:35Z</time>
      </trkpt>
      <trkpt lat="42.97153" lon="0.32677">
        <ele>1694.3</ele>
        <time>2026-07-07T08:00:36Z</time>
      </trkpt>
      <trkpt lat="42.97153" lon="0.32677">
        <ele>1694.3</ele>
        <time>2026-07-07T08:00:36Z</time>
      </trkpt>
      <trkpt lat="42.97153" lon="0.32675">
        <ele>1694.3</ele>
        <time>2026-07-07T08:00:37Z</time>
      </trkpt>
      <trkpt lat="42.97153" lon="0.32675">
        <ele>1693.3</ele>
        <time>2026-07-07T08:00:37Z</time>
      </trkpt>
      <trkpt lat="42.97153" lon="0.32674">
        <ele>1693.3</ele>
        <time>2026-07-07T08:00:38Z</time>
      </trkpt>
      <trkpt lat="42.97153" lon="0.32674">
        <ele>1693.3</ele>
        <time>2026-07-07T08:00:39Z</time>
      </trkpt>
      <trkpt lat="42.97153" lon="0.32674">
        <ele>1692.3</ele>
        <time>2026-07-07T08:00:39Z</time>
      </trkpt>
      <trkpt lat="42.97152" lon="0.32674">
        <ele>1692.3</ele>
        <time>2026-07-07T08:00:40Z</time>
      </trkpt>
      <trkpt lat="42.97151" lon="0.32673">
        <ele>1692.3</ele>
        <time>2026-07-07T08:00:41Z</time>
      </trkpt>
      <trkpt lat="42.97151" lon="0.32673">
        <ele>1691.3</ele>
        <time>2026-07-07T08:00:42Z</time>
      </trkpt>
      <trkpt lat="42.97151" lon="0.32673">
        <ele>1691.3</ele>
        <time>2026-07-07T08:00:42Z</time>
      </trkpt>
      <trkpt lat="42.9715" lon="0.32672">
        <ele>1691.3</ele>
        <time>2026-07-07T08:00:43Z</time>
      </trkpt>
      <trkpt lat="42.9715" lon="0.32673">
        <ele>1691.3</ele>
        <time>2026-07-07T08:00:43Z</time>
      </trkpt>
      <trkpt lat="42.97149" lon="0.32673">
        <ele>1691.3</ele>
        <time>2026-07-07T08:00:44Z</time>
      </trkpt>
      <trkpt lat="42.97149" lon="0.32673">
        <ele>1690.3</ele>
        <time>2026-07-07T08:00:44Z</time>
      </trkpt>
      <trkpt lat="42.97148" lon="0.32673">
        <ele>1690.3</ele>
        <time>2026-07-07T08:00:45Z</time>
      </trkpt>
      <trkpt lat="42.97148" lon="0.32673">
        <ele>1689.3</ele>
        <time>2026-07-07T08:00:46Z</time>
      </trkpt>
      <trkpt lat="42.97148" lon="0.32673">
        <ele>1689.3</ele>
        <time>2026-07-07T08:00:46Z</time>
      </trkpt>
      <trkpt lat="42.97147" lon="0.32673">
        <ele>1689.3</ele>
        <time>2026-07-07T08:00:47Z</time>
      </trkpt>
      <trkpt lat="42.97147" lon="0.32672">
        <ele>1688.3</ele>
        <time>2026-07-07T08:00:48Z</time>
      </trkpt>
      <trkpt lat="42.97146" lon="0.32672">
        <ele>1688.3</ele>
        <time>2026-07-07T08:00:49Z</time>
      </trkpt>
      <trkpt lat="42.97146" lon="0.32672">
        <ele>1688.3</ele>
        <time>2026-07-07T08:00:50Z</time>
      </trkpt>
      <trkpt lat="42.97146" lon="0.32672">
        <ele>1687.3</ele>
        <time>2026-07-07T08:00:50Z</time>
      </trkpt>
      <trkpt lat="42.97146" lon="0.32672">
        <ele>1687.3</ele>
        <time>2026-07-07T08:00:51Z</time>
      </trkpt>
      <trkpt lat="42.97145" lon="0.32672">
        <ele>1687.3</ele>
        <time>2026-07-07T08:00:51Z</time>
      </trkpt>
      <trkpt lat="42.97145" lon="0.32671">
        <ele>1687.3</ele>
        <time>2026-07-07T08:00:52Z</time>
      </trkpt>
      <trkpt lat="42.97145" lon="0.32671">
        <ele>1687.3</ele>
        <time>2026-07-07T08:00:53Z</time>
      </trkpt>
      <trkpt lat="42.97144" lon="0.3267">
        <ele>1687.3</ele>
        <time>2026-07-07T08:00:53Z</time>
      </trkpt>
      <trkpt lat="42.97144" lon="0.3267">
        <ele>1686.3</ele>
        <time>2026-07-07T08:00:54Z</time>
      </trkpt>
      <trkpt lat="42.97143" lon="0.32669">
        <ele>1686.3</ele>
        <time>2026-07-07T08:00:55Z</time>
      </trkpt>
      <trkpt lat="42.97143" lon="0.32669">
        <ele>1686.3</ele>
        <time>2026-07-07T08:00:55Z</time>
      </trkpt>
      <trkpt lat="42.97143" lon="0.32668">
        <ele>1686.3</ele>
        <time>2026-07-07T08:00:56Z</time>
      </trkpt>
      <trkpt lat="42.97143" lon="0.32667">
        <ele>1685.3</ele>
        <time>2026-07-07T08:00:56Z</time>
      </trkpt>
      <trkpt lat="42.97143" lon="0.32666">
        <ele>1685.3</ele>
        <time>2026-07-07T08:00:57Z</time>
      </trkpt>
      <trkpt lat="42.97143" lon="0.32666">
        <ele>1685.3</ele>
        <time>2026-07-07T08:00:57Z</time>
      </trkpt>
      <trkpt lat="42.97143" lon="0.32665">
        <ele>1685.3</ele>
        <time>2026-07-07T08:00:58Z</time>
      </trkpt>
      <trkpt lat="42.97142" lon="0.32664">
        <ele>1685.3</ele>
        <time>2026-07-07T08:00:58Z</time>
      </trkpt>
      <trkpt lat="42.97142" lon="0.32663">
        <ele>1685.3</ele>
        <time>2026-07-07T08:00:59Z</time>
      </trkpt>
      <trkpt lat="42.97142" lon="0.32663">
        <ele>1685.3</ele>
        <time>2026-07-07T08:01:00Z</time>
      </trkpt>
      <trkpt lat="42.97142" lon="0.32662">
        <ele>1685.3</ele>
        <time>2026-07-07T08:01:00Z</time>
      </trkpt>
      <trkpt lat="42.97142" lon="0.32661">
        <ele>1685.3</ele>
        <time>2026-07-07T08:01:01Z</time>
      </trkpt>
      <trkpt lat="42.97142" lon="0.32661">
        <ele>1685.3</ele>
        <time>2026-07-07T08:01:01Z</time>
      </trkpt>
      <trkpt lat="42.97142" lon="0.3266">
        <ele>1685.3</ele>
        <time>2026-07-07T08:01:02Z</time>
      </trkpt>
      <trkpt lat="42.97142" lon="0.3266">
        <ele>1685.3</ele>
        <time>2026-07-07T08:01:02Z</time>
      </trkpt>
      <trkpt lat="42.97141" lon="0.3266">
        <ele>1685.3</ele>
        <time>2026-07-07T08:01:03Z</time>
      </trkpt>
      <trkpt lat="42.97141" lon="0.32659">
        <ele>1685.3</ele>
        <time>2026-07-07T08:01:04Z</time>
      </trkpt>
      <trkpt lat="42.97141" lon="0.32658">
        <ele>1685.3</ele>
        <time>2026-07-07T08:01:04Z</time>
      </trkpt>
      <trkpt lat="42.97141" lon="0.32658">
        <ele>1684.3</ele>
        <time>2026-07-07T08:01:05Z</time>
      </trkpt>
      <trkpt lat="42.9714" lon="0.32657">
        <ele>1684.3</ele>
        <time>2026-07-07T08:01:06Z</time>
      </trkpt>
      <trkpt lat="42.9714" lon="0.32657">
        <ele>1684.3</ele>
        <time>2026-07-07T08:01:06Z</time>
      </trkpt>
      <trkpt lat="42.9714" lon="0.32656">
        <ele>1684.3</ele>
        <time>2026-07-07T08:01:07Z</time>
      </trkpt>
      <trkpt lat="42.9714" lon="0.32656">
        <ele>1683.3</ele>
        <time>2026-07-07T08:01:07Z</time>
      </trkpt>
      <trkpt lat="42.9714" lon="0.32655">
        <ele>1683.3</ele>
        <time>2026-07-07T08:01:08Z</time>
      </trkpt>
      <trkpt lat="42.9714" lon="0.32654">
        <ele>1683.3</ele>
        <time>2026-07-07T08:01:09Z</time>
      </trkpt>
      <trkpt lat="42.9714" lon="0.32653">
        <ele>1683.3</ele>
        <time>2026-07-07T08:01:09Z</time>
      </trkpt>
      <trkpt lat="42.9714" lon="0.32653">
        <ele>1682.3</ele>
        <time>2026-07-07T08:01:10Z</time>
      </trkpt>
      <trkpt lat="42.97139" lon="0.32652">
        <ele>1681.3</ele>
        <time>2026-07-07T08:01:11Z</time>
      </trkpt>
      <trkpt lat="42.97139" lon="0.32651">
        <ele>1681.3</ele>
        <time>2026-07-07T08:01:11Z</time>
      </trkpt>
      <trkpt lat="42.97139" lon="0.3265">
        <ele>1681.3</ele>
        <time>2026-07-07T08:01:12Z</time>
      </trkpt>
      <trkpt lat="42.97138" lon="0.32649">
        <ele>1681.3</ele>
        <time>2026-07-07T08:01:13Z</time>
      </trkpt>
      <trkpt lat="42.97138" lon="0.32648">
        <ele>1681.3</ele>
        <time>2026-07-07T08:01:14Z</time>
      </trkpt>
      <trkpt lat="42.97138" lon="0.32648">
        <ele>1681.3</ele>
        <time>2026-07-07T08:01:15Z</time>
      </trkpt>
      <trkpt lat="42.97138" lon="0.32648">
        <ele>1679.3</ele>
        <time>2026-07-07T08:01:15Z</time>
      </trkpt>
      <trkpt lat="42.97137" lon="0.32647">
        <ele>1679.3</ele>
        <time>2026-07-07T08:01:16Z</time>
      </trkpt>
      <trkpt lat="42.97137" lon="0.32646">
        <ele>1679.3</ele>
        <time>2026-07-07T08:01:16Z</time>
      </trkpt>
      <trkpt lat="42.97137" lon="0.32646">
        <ele>1679.3</ele>
        <time>2026-07-07T08:01:17Z</time>
      </trkpt>
      <trkpt lat="42.97137" lon="0.32645">
        <ele>1679.3</ele>
        <time>2026-07-07T08:01:18Z</time>
      </trkpt>
      <trkpt lat="42.97136" lon="0.32645">
        <ele>1678.3</ele>
        <time>2026-07-07T08:01:18Z</time>
      </trkpt>
      <trkpt lat="42.97136" lon="0.32644">
        <ele>1678.3</ele>
        <time>2026-07-07T08:01:19Z</time>
      </trkpt>
      <trkpt lat="42.97136" lon="0.32643">
        <ele>1678.3</ele>
        <time>2026-07-07T08:01:19Z</time>
      </trkpt>
      <trkpt lat="42.97136" lon="0.32643">
        <ele>1678.3</ele>
        <time>2026-07-07T08:01:20Z</time>
      </trkpt>
      <trkpt lat="42.97136" lon="0.32642">
        <ele>1678.3</ele>
        <time>2026-07-07T08:01:20Z</time>
      </trkpt>
      <trkpt lat="42.97135" lon="0.32642">
        <ele>1678.3</ele>
        <time>2026-07-07T08:01:21Z</time>
      </trkpt>
      <trkpt lat="42.97134" lon="0.32641">
        <ele>1678.3</ele>
        <time>2026-07-07T08:01:21Z</time>
      </trkpt>
      <trkpt lat="42.97134" lon="0.32641">
        <ele>1678.3</ele>
        <time>2026-07-07T08:01:22Z</time>
      </trkpt>
      <trkpt lat="42.97134" lon="0.3264">
        <ele>1677.3</ele>
        <time>2026-07-07T08:01:22Z</time>
      </trkpt>
      <trkpt lat="42.97133" lon="0.3264">
        <ele>1677.3</ele>
        <time>2026-07-07T08:01:23Z</time>
      </trkpt>
      <trkpt lat="42.97133" lon="0.32639">
        <ele>1678.3</ele>
        <time>2026-07-07T08:01:24Z</time>
      </trkpt>
      <trkpt lat="42.97132" lon="0.32638">
        <ele>1678.3</ele>
        <time>2026-07-07T08:01:24Z</time>
      </trkpt>
      <trkpt lat="42.97132" lon="0.32638">
        <ele>1678.3</ele>
        <time>2026-07-07T08:01:25Z</time>
      </trkpt>
      <trkpt lat="42.97132" lon="0.32637">
        <ele>1678.3</ele>
        <time>2026-07-07T08:01:25Z</time>
      </trkpt>
      <trkpt lat="42.97131" lon="0.32637">
        <ele>1678.3</ele>
        <time>2026-07-07T08:01:26Z</time>
      </trkpt>
      <trkpt lat="42.97131" lon="0.32636">
        <ele>1677.3</ele>
        <time>2026-07-07T08:01:26Z</time>
      </trkpt>
      <trkpt lat="42.97131" lon="0.32635">
        <ele>1677.3</ele>
        <time>2026-07-07T08:01:27Z</time>
      </trkpt>
      <trkpt lat="42.97131" lon="0.32635">
        <ele>1677.3</ele>
        <time>2026-07-07T08:01:28Z</time>
      </trkpt>
      <trkpt lat="42.9713" lon="0.32634">
        <ele>1677.3</ele>
        <time>2026-07-07T08:01:28Z</time>
      </trkpt>
      <trkpt lat="42.9713" lon="0.32633">
        <ele>1677.3</ele>
        <time>2026-07-07T08:01:29Z</time>
      </trkpt>
      <trkpt lat="42.97129" lon="0.32633">
        <ele>1677.3</ele>
        <time>2026-07-07T08:01:30Z</time>
      </trkpt>
      <trkpt lat="42.97129" lon="0.32632">
        <ele>1677.3</ele>
        <time>2026-07-07T08:01:30Z</time>
      </trkpt>
      <trkpt lat="42.97129" lon="0.32632">
        <ele>1677.3</ele>
        <time>2026-07-07T08:01:31Z</time>
      </trkpt>
      <trkpt lat="42.97128" lon="0.32631">
        <ele>1677.3</ele>
        <time>2026-07-07T08:01:31Z</time>
      </trkpt>
      <trkpt lat="42.97128" lon="0.32631">
        <ele>1677.3</ele>
        <time>2026-07-07T08:01:32Z</time>
      </trkpt>
      <trkpt lat="42.97128" lon="0.32631">
        <ele>1677.3</ele>
        <time>2026-07-07T08:01:32Z</time>
      </trkpt>
      <trkpt lat="42.97128" lon="0.3263">
        <ele>1677.3</ele>
        <time>2026-07-07T08:01:33Z</time>
      </trkpt>
      <trkpt lat="42.97127" lon="0.32629">
        <ele>1677.3</ele>
        <time>2026-07-07T08:01:33Z</time>
      </trkpt>
      <trkpt lat="42.97127" lon="0.32629">
        <ele>1677.3</ele>
        <time>2026-07-07T08:01:34Z</time>
      </trkpt>
      <trkpt lat="42.97127" lon="0.32629">
        <ele>1677.3</ele>
        <time>2026-07-07T08:01:34Z</time>
      </trkpt>
      <trkpt lat="42.97127" lon="0.32628">
        <ele>1677.3</ele>
        <time>2026-07-07T08:01:35Z</time>
      </trkpt>
      <trkpt lat="42.97127" lon="0.32628">
        <ele>1677.3</ele>
        <time>2026-07-07T08:01:35Z</time>
      </trkpt>
      <trkpt lat="42.97126" lon="0.32627">
        <ele>1677.3</ele>
        <time>2026-07-07T08:01:36Z</time>
      </trkpt>
      <trkpt lat="42.97126" lon="0.32627">
        <ele>1676.3</ele>
        <time>2026-07-07T08:01:36Z</time>
      </trkpt>
      <trkpt lat="42.97125" lon="0.32626">
        <ele>1676.3</ele>
        <time>2026-07-07T08:01:37Z</time>
      </trkpt>
      <trkpt lat="42.97125" lon="0.32625">
        <ele>1676.3</ele>
        <time>2026-07-07T08:01:37Z</time>
      </trkpt>
      <trkpt lat="42.97125" lon="0.32625">
        <ele>1676.3</ele>
        <time>2026-07-07T08:01:38Z</time>
      </trkpt>
      <trkpt lat="42.97124" lon="0.32624">
        <ele>1676.3</ele>
        <time>2026-07-07T08:01:39Z</time>
      </trkpt>
      <trkpt lat="42.97124" lon="0.32623">
        <ele>1675.3</ele>
        <time>2026-07-07T08:01:40Z</time>
      </trkpt>
      <trkpt lat="42.97123" lon="0.32622">
        <ele>1675.3</ele>
        <time>2026-07-07T08:01:40Z</time>
      </trkpt>
      <trkpt lat="42.97123" lon="0.32621">
        <ele>1675.3</ele>
        <time>2026-07-07T08:01:41Z</time>
      </trkpt>
      <trkpt lat="42.97123" lon="0.32621">
        <ele>1675.3</ele>
        <time>2026-07-07T08:01:42Z</time>
      </trkpt>
      <trkpt lat="42.97123" lon="0.3262">
        <ele>1675.3</ele>
        <time>2026-07-07T08:01:42Z</time>
      </trkpt>
      <trkpt lat="42.97123" lon="0.3262">
        <ele>1676.3</ele>
        <time>2026-07-07T08:01:43Z</time>
      </trkpt>
      <trkpt lat="42.97123" lon="0.32619">
        <ele>1675.3</ele>
        <time>2026-07-07T08:01:43Z</time>
      </trkpt>
      <trkpt lat="42.97122" lon="0.32619">
        <ele>1675.3</ele>
        <time>2026-07-07T08:01:44Z</time>
      </trkpt>
      <trkpt lat="42.97122" lon="0.32618">
        <ele>1675.3</ele>
        <time>2026-07-07T08:01:44Z</time>
      </trkpt>
      <trkpt lat="42.97122" lon="0.32617">
        <ele>1675.3</ele>
        <time>2026-07-07T08:01:45Z</time>
      </trkpt>
      <trkpt lat="42.97122" lon="0.32617">
        <ele>1674.3</ele>
        <time>2026-07-07T08:01:45Z</time>
      </trkpt>
      <trkpt lat="42.97121" lon="0.32616">
        <ele>1674.3</ele>
        <time>2026-07-07T08:01:46Z</time>
      </trkpt>
      <trkpt lat="42.97121" lon="0.32615">
        <ele>1674.3</ele>
        <time>2026-07-07T08:01:46Z</time>
      </trkpt>
      <trkpt lat="42.9712" lon="0.32614">
        <ele>1674.3</ele>
        <time>2026-07-07T08:01:47Z</time>
      </trkpt>
      <trkpt lat="42.9712" lon="0.32614">
        <ele>1673.3</ele>
        <time>2026-07-07T08:01:47Z</time>
      </trkpt>
      <trkpt lat="42.9712" lon="0.32613">
        <ele>1673.3</ele>
        <time>2026-07-07T08:01:48Z</time>
      </trkpt>
      <trkpt lat="42.97119" lon="0.32613">
        <ele>1673.3</ele>
        <time>2026-07-07T08:01:48Z</time>
      </trkpt>
      <trkpt lat="42.97119" lon="0.32612">
        <ele>1673.3</ele>
        <time>2026-07-07T08:01:49Z</time>
      </trkpt>
      <trkpt lat="42.97119" lon="0.32612">
        <ele>1673.3</ele>
        <time>2026-07-07T08:01:49Z</time>
      </trkpt>
      <trkpt lat="42.97119" lon="0.32611">
        <ele>1673.3</ele>
        <time>2026-07-07T08:01:50Z</time>
      </trkpt>
      <trkpt lat="42.97118" lon="0.32611">
        <ele>1673.3</ele>
        <time>2026-07-07T08:01:50Z</time>
      </trkpt>
      <trkpt lat="42.97118" lon="0.3261">
        <ele>1673.3</ele>
        <time>2026-07-07T08:01:51Z</time>
      </trkpt>
      <trkpt lat="42.97118" lon="0.3261">
        <ele>1673.3</ele>
        <time>2026-07-07T08:01:51Z</time>
      </trkpt>
      <trkpt lat="42.97117" lon="0.32609">
        <ele>1673.3</ele>
        <time>2026-07-07T08:01:52Z</time>
      </trkpt>
      <trkpt lat="42.97117" lon="0.32609">
        <ele>1674.3</ele>
        <time>2026-07-07T08:01:53Z</time>
      </trkpt>
      <trkpt lat="42.97117" lon="0.32608">
        <ele>1674.3</ele>
        <time>2026-07-07T08:01:53Z</time>
      </trkpt>
      <trkpt lat="42.97116" lon="0.32608">
        <ele>1675.3</ele>
        <time>2026-07-07T08:01:54Z</time>
      </trkpt>
      <trkpt lat="42.97116" lon="0.32607">
        <ele>1675.3</ele>
        <time>2026-07-07T08:01:54Z</time>
      </trkpt>
      <trkpt lat="42.97115" lon="0.32607">
        <ele>1675.3</ele>
        <time>2026-07-07T08:01:55Z</time>
      </trkpt>
      <trkpt lat="42.97115" lon="0.32606">
        <ele>1675.3</ele>
        <time>2026-07-07T08:01:55Z</time>
      </trkpt>
      <trkpt lat="42.97115" lon="0.32606">
        <ele>1675.3</ele>
        <time>2026-07-07T08:01:56Z</time>
      </trkpt>
      <trkpt lat="42.97114" lon="0.32605">
        <ele>1675.3</ele>
        <time>2026-07-07T08:01:56Z</time>
      </trkpt>
      <trkpt lat="42.97114" lon="0.32604">
        <ele>1675.3</ele>
        <time>2026-07-07T08:01:57Z</time>
      </trkpt>
      <trkpt lat="42.97113" lon="0.32604">
        <ele>1675.3</ele>
        <time>2026-07-07T08:01:57Z</time>
      </trkpt>
      <trkpt lat="42.97113" lon="0.32603">
        <ele>1675.3</ele>
        <time>2026-07-07T08:01:58Z</time>
      </trkpt>
      <trkpt lat="42.97113" lon="0.32602">
        <ele>1675.3</ele>
        <time>2026-07-07T08:01:58Z</time>
      </trkpt>
      <trkpt lat="42.97113" lon="0.32601">
        <ele>1675.3</ele>
        <time>2026-07-07T08:01:59Z</time>
      </trkpt>
      <trkpt lat="42.97113" lon="0.32601">
        <ele>1675.3</ele>
        <time>2026-07-07T08:01:59Z</time>
      </trkpt>
      <trkpt lat="42.97112" lon="0.326">
        <ele>1675.3</ele>
        <time>2026-07-07T08:02:00Z</time>
      </trkpt>
      <trkpt lat="42.97112" lon="0.32599">
        <ele>1674.3</ele>
        <time>2026-07-07T08:02:00Z</time>
      </trkpt>
      <trkpt lat="42.97112" lon="0.32598">
        <ele>1674.3</ele>
        <time>2026-07-07T08:02:01Z</time>
      </trkpt>
      <trkpt lat="42.97111" lon="0.32597">
        <ele>1674.3</ele>
        <time>2026-07-07T08:02:01Z</time>
      </trkpt>
      <trkpt lat="42.97111" lon="0.32596">
        <ele>1674.3</ele>
        <time>2026-07-07T08:02:02Z</time>
      </trkpt>
      <trkpt lat="42.97111" lon="0.32595">
        <ele>1674.3</ele>
        <time>2026-07-07T08:02:03Z</time>
      </trkpt>
      <trkpt lat="42.97111" lon="0.32594">
        <ele>1674.3</ele>
        <time>2026-07-07T08:02:03Z</time>
      </trkpt>
      <trkpt lat="42.9711" lon="0.32593">
        <ele>1674.3</ele>
        <time>2026-07-07T08:02:04Z</time>
      </trkpt>
      <trkpt lat="42.9711" lon="0.32593">
        <ele>1674.3</ele>
        <time>2026-07-07T08:02:04Z</time>
      </trkpt>
      <trkpt lat="42.9711" lon="0.32592">
        <ele>1674.3</ele>
        <time>2026-07-07T08:02:05Z</time>
      </trkpt>
      <trkpt lat="42.97109" lon="0.32591">
        <ele>1674.3</ele>
        <time>2026-07-07T08:02:05Z</time>
      </trkpt>
      <trkpt lat="42.97109" lon="0.3259">
        <ele>1674.3</ele>
        <time>2026-07-07T08:02:06Z</time>
      </trkpt>
      <trkpt lat="42.97108" lon="0.32589">
        <ele>1674.3</ele>
        <time>2026-07-07T08:02:07Z</time>
      </trkpt>
      <trkpt lat="42.97108" lon="0.32588">
        <ele>1675.3</ele>
        <time>2026-07-07T08:02:07Z</time>
      </trkpt>
      <trkpt lat="42.97107" lon="0.32587">
        <ele>1675.3</ele>
        <time>2026-07-07T08:02:08Z</time>
      </trkpt>
      <trkpt lat="42.97107" lon="0.32586">
        <ele>1674.3</ele>
        <time>2026-07-07T08:02:09Z</time>
      </trkpt>
      <trkpt lat="42.97107" lon="0.32586">
        <ele>1674.3</ele>
        <time>2026-07-07T08:02:09Z</time>
      </trkpt>
      <trkpt lat="42.97107" lon="0.32585">
        <ele>1674.3</ele>
        <time>2026-07-07T08:02:10Z</time>
      </trkpt>
      <trkpt lat="42.97107" lon="0.32584">
        <ele>1673.3</ele>
        <time>2026-07-07T08:02:10Z</time>
      </trkpt>
      <trkpt lat="42.97106" lon="0.32583">
        <ele>1673.3</ele>
        <time>2026-07-07T08:02:11Z</time>
      </trkpt>
      <trkpt lat="42.97106" lon="0.32582">
        <ele>1673.3</ele>
        <time>2026-07-07T08:02:12Z</time>
      </trkpt>
      <trkpt lat="42.97105" lon="0.32581">
        <ele>1673.3</ele>
        <time>2026-07-07T08:02:12Z</time>
      </trkpt>
      <trkpt lat="42.97105" lon="0.3258">
        <ele>1672.3</ele>
        <time>2026-07-07T08:02:13Z</time>
      </trkpt>
      <trkpt lat="42.97105" lon="0.3258">
        <ele>1672.3</ele>
        <time>2026-07-07T08:02:13Z</time>
      </trkpt>
      <trkpt lat="42.97104" lon="0.32579">
        <ele>1672.3</ele>
        <time>2026-07-07T08:02:14Z</time>
      </trkpt>
      <trkpt lat="42.97104" lon="0.32578">
        <ele>1672.3</ele>
        <time>2026-07-07T08:02:14Z</time>
      </trkpt>
      <trkpt lat="42.97104" lon="0.32577">
        <ele>1672.3</ele>
        <time>2026-07-07T08:02:15Z</time>
      </trkpt>
      <trkpt lat="42.97103" lon="0.32576">
        <ele>1672.3</ele>
        <time>2026-07-07T08:02:16Z</time>
      </trkpt>
      <trkpt lat="42.97103" lon="0.32575">
        <ele>1672.3</ele>
        <time>2026-07-07T08:02:16Z</time>
      </trkpt>
      <trkpt lat="42.97102" lon="0.32574">
        <ele>1672.3</ele>
        <time>2026-07-07T08:02:17Z</time>
      </trkpt>
      <trkpt lat="42.97102" lon="0.32574">
        <ele>1671.3</ele>
        <time>2026-07-07T08:02:17Z</time>
      </trkpt>
      <trkpt lat="42.97102" lon="0.32573">
        <ele>1671.3</ele>
        <time>2026-07-07T08:02:18Z</time>
      </trkpt>
      <trkpt lat="42.97101" lon="0.32571">
        <ele>1671.3</ele>
        <time>2026-07-07T08:02:19Z</time>
      </trkpt>
      <trkpt lat="42.971" lon="0.3257">
        <ele>1671.3</ele>
        <time>2026-07-07T08:02:20Z</time>
      </trkpt>
      <trkpt lat="42.971" lon="0.32569">
        <ele>1671.3</ele>
        <time>2026-07-07T08:02:21Z</time>
      </trkpt>
      <trkpt lat="42.971" lon="0.32569">
        <ele>1670.3</ele>
        <time>2026-07-07T08:02:21Z</time>
      </trkpt>
      <trkpt lat="42.97099" lon="0.32568">
        <ele>1670.3</ele>
        <time>2026-07-07T08:02:22Z</time>
      </trkpt>
      <trkpt lat="42.97099" lon="0.32567">
        <ele>1670.3</ele>
        <time>2026-07-07T08:02:22Z</time>
      </trkpt>
      <trkpt lat="42.97099" lon="0.32567">
        <ele>1670.3</ele>
        <time>2026-07-07T08:02:23Z</time>
      </trkpt>
      <trkpt lat="42.97098" lon="0.32566">
        <ele>1669.3</ele>
        <time>2026-07-07T08:02:24Z</time>
      </trkpt>
      <trkpt lat="42.97098" lon="0.32565">
        <ele>1669.3</ele>
        <time>2026-07-07T08:02:24Z</time>
      </trkpt>
      <trkpt lat="42.97097" lon="0.32565">
        <ele>1670.3</ele>
        <time>2026-07-07T08:02:25Z</time>
      </trkpt>
      <trkpt lat="42.97097" lon="0.32564">
        <ele>1669.3</ele>
        <time>2026-07-07T08:02:25Z</time>
      </trkpt>
      <trkpt lat="42.97097" lon="0.32564">
        <ele>1669.3</ele>
        <time>2026-07-07T08:02:26Z</time>
      </trkpt>
      <trkpt lat="42.97096" lon="0.32562">
        <ele>1669.3</ele>
        <time>2026-07-07T08:02:27Z</time>
      </trkpt>
      <trkpt lat="42.97096" lon="0.32561">
        <ele>1669.3</ele>
        <time>2026-07-07T08:02:28Z</time>
      </trkpt>
      <trkpt lat="42.97096" lon="0.3256">
        <ele>1669.3</ele>
        <time>2026-07-07T08:02:28Z</time>
      </trkpt>
      <trkpt lat="42.97095" lon="0.3256">
        <ele>1669.3</ele>
        <time>2026-07-07T08:02:29Z</time>
      </trkpt>
      <trkpt lat="42.97095" lon="0.3256">
        <ele>1669.3</ele>
        <time>2026-07-07T08:02:29Z</time>
      </trkpt>
      <trkpt lat="42.97094" lon="0.32559">
        <ele>1669.3</ele>
        <time>2026-07-07T08:02:30Z</time>
      </trkpt>
      <trkpt lat="42.97094" lon="0.32559">
        <ele>1669.3</ele>
        <time>2026-07-07T08:02:31Z</time>
      </trkpt>
      <trkpt lat="42.97093" lon="0.32558">
        <ele>1669.3</ele>
        <time>2026-07-07T08:02:31Z</time>
      </trkpt>
      <trkpt lat="42.97093" lon="0.32557">
        <ele>1669.3</ele>
        <time>2026-07-07T08:02:32Z</time>
      </trkpt>
      <trkpt lat="42.97092" lon="0.32557">
        <ele>1669.3</ele>
        <time>2026-07-07T08:02:32Z</time>
      </trkpt>
      <trkpt lat="42.97092" lon="0.32556">
        <ele>1669.3</ele>
        <time>2026-07-07T08:02:33Z</time>
      </trkpt>
      <trkpt lat="42.97092" lon="0.32555">
        <ele>1668.3</ele>
        <time>2026-07-07T08:02:33Z</time>
      </trkpt>
      <trkpt lat="42.97092" lon="0.32555">
        <ele>1668.3</ele>
        <time>2026-07-07T08:02:34Z</time>
      </trkpt>
      <trkpt lat="42.97091" lon="0.32554">
        <ele>1668.3</ele>
        <time>2026-07-07T08:02:35Z</time>
      </trkpt>
      <trkpt lat="42.97091" lon="0.32553">
        <ele>1668.3</ele>
        <time>2026-07-07T08:02:35Z</time>
      </trkpt>
      <trkpt lat="42.97091" lon="0.32552">
        <ele>1668.3</ele>
        <time>2026-07-07T08:02:36Z</time>
      </trkpt>
      <trkpt lat="42.97091" lon="0.32552">
        <ele>1669.3</ele>
        <time>2026-07-07T08:02:37Z</time>
      </trkpt>
      <trkpt lat="42.97091" lon="0.32551">
        <ele>1669.3</ele>
        <time>2026-07-07T08:02:37Z</time>
      </trkpt>
      <trkpt lat="42.9709" lon="0.32551">
        <ele>1668.3</ele>
        <time>2026-07-07T08:02:38Z</time>
      </trkpt>
      <trkpt lat="42.9709" lon="0.3255">
        <ele>1668.3</ele>
        <time>2026-07-07T08:02:38Z</time>
      </trkpt>
      <trkpt lat="42.97089" lon="0.32549">
        <ele>1668.3</ele>
        <time>2026-07-07T08:02:39Z</time>
      </trkpt>
      <trkpt lat="42.97089" lon="0.32548">
        <ele>1668.3</ele>
        <time>2026-07-07T08:02:40Z</time>
      </trkpt>
      <trkpt lat="42.97088" lon="0.32548">
        <ele>1668.3</ele>
        <time>2026-07-07T08:02:41Z</time>
      </trkpt>
      <trkpt lat="42.97088" lon="0.32547">
        <ele>1668.3</ele>
        <time>2026-07-07T08:02:41Z</time>
      </trkpt>
      <trkpt lat="42.97088" lon="0.32547">
        <ele>1667.3</ele>
        <time>2026-07-07T08:02:42Z</time>
      </trkpt>
      <trkpt lat="42.97087" lon="0.32546">
        <ele>1667.3</ele>
        <time>2026-07-07T08:02:42Z</time>
      </trkpt>
      <trkpt lat="42.97087" lon="0.32545">
        <ele>1667.3</ele>
        <time>2026-07-07T08:02:43Z</time>
      </trkpt>
      <trkpt lat="42.97087" lon="0.32545">
        <ele>1666.3</ele>
        <time>2026-07-07T08:02:43Z</time>
      </trkpt>
      <trkpt lat="42.97087" lon="0.32544">
        <ele>1666.3</ele>
        <time>2026-07-07T08:02:44Z</time>
      </trkpt>
      <trkpt lat="42.97087" lon="0.32543">
        <ele>1666.3</ele>
        <time>2026-07-07T08:02:45Z</time>
      </trkpt>
      <trkpt lat="42.97087" lon="0.32542">
        <ele>1665.3</ele>
        <time>2026-07-07T08:02:45Z</time>
      </trkpt>
      <trkpt lat="42.97086" lon="0.32541">
        <ele>1665.3</ele>
        <time>2026-07-07T08:02:46Z</time>
      </trkpt>
      <trkpt lat="42.97086" lon="0.3254">
        <ele>1665.3</ele>
        <time>2026-07-07T08:02:47Z</time>
      </trkpt>
      <trkpt lat="42.97086" lon="0.3254">
        <ele>1665.3</ele>
        <time>2026-07-07T08:02:47Z</time>
      </trkpt>
      <trkpt lat="42.97085" lon="0.32539">
        <ele>1665.3</ele>
        <time>2026-07-07T08:02:48Z</time>
      </trkpt>
      <trkpt lat="42.97085" lon="0.32538">
        <ele>1665.3</ele>
        <time>2026-07-07T08:02:48Z</time>
      </trkpt>
      <trkpt lat="42.97085" lon="0.32538">
        <ele>1665.3</ele>
        <time>2026-07-07T08:02:49Z</time>
      </trkpt>
      <trkpt lat="42.97085" lon="0.32537">
        <ele>1664.3</ele>
        <time>2026-07-07T08:02:50Z</time>
      </trkpt>
      <trkpt lat="42.97084" lon="0.32536">
        <ele>1664.3</ele>
        <time>2026-07-07T08:02:50Z</time>
      </trkpt>
      <trkpt lat="42.97084" lon="0.32535">
        <ele>1664.3</ele>
        <time>2026-07-07T08:02:51Z</time>
      </trkpt>
      <trkpt lat="42.97083" lon="0.32533">
        <ele>1665.3</ele>
        <time>2026-07-07T08:02:52Z</time>
      </trkpt>
      <trkpt lat="42.97083" lon="0.32533">
        <ele>1664.3</ele>
        <time>2026-07-07T08:02:53Z</time>
      </trkpt>
      <trkpt lat="42.97083" lon="0.32532">
        <ele>1664.3</ele>
        <time>2026-07-07T08:02:53Z</time>
      </trkpt>
      <trkpt lat="42.97082" lon="0.32531">
        <ele>1664.3</ele>
        <time>2026-07-07T08:02:54Z</time>
      </trkpt>
      <trkpt lat="42.97082" lon="0.3253">
        <ele>1663.3</ele>
        <time>2026-07-07T08:02:54Z</time>
      </trkpt>
      <trkpt lat="42.97082" lon="0.3253">
        <ele>1663.3</ele>
        <time>2026-07-07T08:02:55Z</time>
      </trkpt>
      <trkpt lat="42.97081" lon="0.32529">
        <ele>1663.3</ele>
        <time>2026-07-07T08:02:56Z</time>
      </trkpt>
      <trkpt lat="42.97081" lon="0.32528">
        <ele>1661.3</ele>
        <time>2026-07-07T08:02:56Z</time>
      </trkpt>
      <trkpt lat="42.97081" lon="0.32527">
        <ele>1661.3</ele>
        <time>2026-07-07T08:02:57Z</time>
      </trkpt>
      <trkpt lat="42.9708" lon="0.32526">
        <ele>1661.3</ele>
        <time>2026-07-07T08:02:58Z</time>
      </trkpt>
      <trkpt lat="42.9708" lon="0.32526">
        <ele>1661.3</ele>
        <time>2026-07-07T08:02:58Z</time>
      </trkpt>
      <trkpt lat="42.97079" lon="0.32525">
        <ele>1661.3</ele>
        <time>2026-07-07T08:02:59Z</time>
      </trkpt>
      <trkpt lat="42.97078" lon="0.32525">
        <ele>1661.3</ele>
        <time>2026-07-07T08:02:59Z</time>
      </trkpt>
      <trkpt lat="42.97078" lon="0.32524">
        <ele>1661.3</ele>
        <time>2026-07-07T08:03:00Z</time>
      </trkpt>
      <trkpt lat="42.97077" lon="0.32524">
        <ele>1661.3</ele>
        <time>2026-07-07T08:03:00Z</time>
      </trkpt>
      <trkpt lat="42.97077" lon="0.32523">
        <ele>1661.3</ele>
        <time>2026-07-07T08:03:01Z</time>
      </trkpt>
      <trkpt lat="42.97077" lon="0.32522">
        <ele>1662.3</ele>
        <time>2026-07-07T08:03:01Z</time>
      </trkpt>
      <trkpt lat="42.97076" lon="0.32522">
        <ele>1662.3</ele>
        <time>2026-07-07T08:03:02Z</time>
      </trkpt>
      <trkpt lat="42.97076" lon="0.3252">
        <ele>1662.3</ele>
        <time>2026-07-07T08:03:03Z</time>
      </trkpt>
      <trkpt lat="42.97075" lon="0.3252">
        <ele>1662.3</ele>
        <time>2026-07-07T08:03:04Z</time>
      </trkpt>
      <trkpt lat="42.97075" lon="0.32519">
        <ele>1662.3</ele>
        <time>2026-07-07T08:03:04Z</time>
      </trkpt>
      <trkpt lat="42.97075" lon="0.32518">
        <ele>1662.3</ele>
        <time>2026-07-07T08:03:05Z</time>
      </trkpt>
      <trkpt lat="42.97075" lon="0.32518">
        <ele>1662.3</ele>
        <time>2026-07-07T08:03:05Z</time>
      </trkpt>
      <trkpt lat="42.97074" lon="0.32516">
        <ele>1662.3</ele>
        <time>2026-07-07T08:03:06Z</time>
      </trkpt>
      <trkpt lat="42.97074" lon="0.32516">
        <ele>1662.3</ele>
        <time>2026-07-07T08:03:06Z</time>
      </trkpt>
      <trkpt lat="42.97074" lon="0.32515">
        <ele>1662.3</ele>
        <time>2026-07-07T08:03:07Z</time>
      </trkpt>
      <trkpt lat="42.97074" lon="0.32514">
        <ele>1662.3</ele>
        <time>2026-07-07T08:03:07Z</time>
      </trkpt>
      <trkpt lat="42.97074" lon="0.32513">
        <ele>1662.3</ele>
        <time>2026-07-07T08:03:08Z</time>
      </trkpt>
      <trkpt lat="42.97073" lon="0.32513">
        <ele>1662.3</ele>
        <time>2026-07-07T08:03:08Z</time>
      </trkpt>
      <trkpt lat="42.97073" lon="0.32512">
        <ele>1662.3</ele>
        <time>2026-07-07T08:03:09Z</time>
      </trkpt>
      <trkpt lat="42.97072" lon="0.32511">
        <ele>1663.3</ele>
        <time>2026-07-07T08:03:10Z</time>
      </trkpt>
      <trkpt lat="42.97072" lon="0.3251">
        <ele>1663.3</ele>
        <time>2026-07-07T08:03:10Z</time>
      </trkpt>
      <trkpt lat="42.97072" lon="0.32508">
        <ele>1663.3</ele>
        <time>2026-07-07T08:03:11Z</time>
      </trkpt>
      <trkpt lat="42.97071" lon="0.32508">
        <ele>1663.3</ele>
        <time>2026-07-07T08:03:12Z</time>
      </trkpt>
      <trkpt lat="42.97071" lon="0.32507">
        <ele>1663.3</ele>
        <time>2026-07-07T08:03:13Z</time>
      </trkpt>
      <trkpt lat="42.97071" lon="0.32506">
        <ele>1663.3</ele>
        <time>2026-07-07T08:03:13Z</time>
      </trkpt>
      <trkpt lat="42.97071" lon="0.32505">
        <ele>1662.3</ele>
        <time>2026-07-07T08:03:14Z</time>
      </trkpt>
      <trkpt lat="42.9707" lon="0.32504">
        <ele>1662.3</ele>
        <time>2026-07-07T08:03:15Z</time>
      </trkpt>
      <trkpt lat="42.9707" lon="0.32503">
        <ele>1662.3</ele>
        <time>2026-07-07T08:03:15Z</time>
      </trkpt>
      <trkpt lat="42.9707" lon="0.32503">
        <ele>1662.3</ele>
        <time>2026-07-07T08:03:16Z</time>
      </trkpt>
      <trkpt lat="42.97069" lon="0.32502">
        <ele>1662.3</ele>
        <time>2026-07-07T08:03:16Z</time>
      </trkpt>
      <trkpt lat="42.97069" lon="0.32501">
        <ele>1662.3</ele>
        <time>2026-07-07T08:03:17Z</time>
      </trkpt>
      <trkpt lat="42.97068" lon="0.32501">
        <ele>1662.3</ele>
        <time>2026-07-07T08:03:18Z</time>
      </trkpt>
      <trkpt lat="42.97067" lon="0.325">
        <ele>1662.3</ele>
        <time>2026-07-07T08:03:18Z</time>
      </trkpt>
      <trkpt lat="42.97067" lon="0.325">
        <ele>1662.3</ele>
        <time>2026-07-07T08:03:19Z</time>
      </trkpt>
      <trkpt lat="42.97067" lon="0.32499">
        <ele>1662.3</ele>
        <time>2026-07-07T08:03:19Z</time>
      </trkpt>
      <trkpt lat="42.97066" lon="0.32498">
        <ele>1662.3</ele>
        <time>2026-07-07T08:03:20Z</time>
      </trkpt>
      <trkpt lat="42.97066" lon="0.32497">
        <ele>1662.3</ele>
        <time>2026-07-07T08:03:21Z</time>
      </trkpt>
      <trkpt lat="42.97065" lon="0.32496">
        <ele>1662.3</ele>
        <time>2026-07-07T08:03:21Z</time>
      </trkpt>
      <trkpt lat="42.97065" lon="0.32496">
        <ele>1662.3</ele>
        <time>2026-07-07T08:03:22Z</time>
      </trkpt>
      <trkpt lat="42.97065" lon="0.32495">
        <ele>1661.3</ele>
        <time>2026-07-07T08:03:22Z</time>
      </trkpt>
      <trkpt lat="42.97065" lon="0.32494">
        <ele>1661.3</ele>
        <time>2026-07-07T08:03:23Z</time>
      </trkpt>
      <trkpt lat="42.97064" lon="0.32493">
        <ele>1661.3</ele>
        <time>2026-07-07T08:03:23Z</time>
      </trkpt>
      <trkpt lat="42.97064" lon="0.32492">
        <ele>1661.3</ele>
        <time>2026-07-07T08:03:24Z</time>
      </trkpt>
      <trkpt lat="42.97063" lon="0.32491">
        <ele>1661.3</ele>
        <time>2026-07-07T08:03:25Z</time>
      </trkpt>
      <trkpt lat="42.97062" lon="0.3249">
        <ele>1661.3</ele>
        <time>2026-07-07T08:03:26Z</time>
      </trkpt>
      <trkpt lat="42.97062" lon="0.32489">
        <ele>1661.3</ele>
        <time>2026-07-07T08:03:26Z</time>
      </trkpt>
      <trkpt lat="42.97062" lon="0.32488">
        <ele>1661.3</ele>
        <time>2026-07-07T08:03:27Z</time>
      </trkpt>
      <trkpt lat="42.97061" lon="0.32487">
        <ele>1661.3</ele>
        <time>2026-07-07T08:03:27Z</time>
      </trkpt>
      <trkpt lat="42.97061" lon="0.32487">
        <ele>1661.3</ele>
        <time>2026-07-07T08:03:28Z</time>
      </trkpt>
      <trkpt lat="42.97061" lon="0.32486">
        <ele>1661.3</ele>
        <time>2026-07-07T08:03:28Z</time>
      </trkpt>
      <trkpt lat="42.97061" lon="0.32485">
        <ele>1661.3</ele>
        <time>2026-07-07T08:03:29Z</time>
      </trkpt>
      <trkpt lat="42.97061" lon="0.32484">
        <ele>1661.3</ele>
        <time>2026-07-07T08:03:30Z</time>
      </trkpt>
      <trkpt lat="42.9706" lon="0.32483">
        <ele>1661.3</ele>
        <time>2026-07-07T08:03:30Z</time>
      </trkpt>
      <trkpt lat="42.9706" lon="0.32482">
        <ele>1661.3</ele>
        <time>2026-07-07T08:03:31Z</time>
      </trkpt>
      <trkpt lat="42.9706" lon="0.32481">
        <ele>1661.3</ele>
        <time>2026-07-07T08:03:31Z</time>
      </trkpt>
      <trkpt lat="42.97059" lon="0.3248">
        <ele>1660.3</ele>
        <time>2026-07-07T08:03:32Z</time>
      </trkpt>
      <trkpt lat="42.97059" lon="0.3248">
        <ele>1661.3</ele>
        <time>2026-07-07T08:03:32Z</time>
      </trkpt>
      <trkpt lat="42.97059" lon="0.32479">
        <ele>1661.3</ele>
        <time>2026-07-07T08:03:33Z</time>
      </trkpt>
      <trkpt lat="42.97059" lon="0.32479">
        <ele>1661.3</ele>
        <time>2026-07-07T08:03:34Z</time>
      </trkpt>
      <trkpt lat="42.97058" lon="0.32478">
        <ele>1661.3</ele>
        <time>2026-07-07T08:03:34Z</time>
      </trkpt>
      <trkpt lat="42.97058" lon="0.32477">
        <ele>1661.3</ele>
        <time>2026-07-07T08:03:35Z</time>
      </trkpt>
      <trkpt lat="42.97057" lon="0.32476">
        <ele>1660.3</ele>
        <time>2026-07-07T08:03:36Z</time>
      </trkpt>
      <trkpt lat="42.97057" lon="0.32475">
        <ele>1661.3</ele>
        <time>2026-07-07T08:03:36Z</time>
      </trkpt>
      <trkpt lat="42.97057" lon="0.32474">
        <ele>1661.3</ele>
        <time>2026-07-07T08:03:37Z</time>
      </trkpt>
      <trkpt lat="42.97057" lon="0.32473">
        <ele>1660.3</ele>
        <time>2026-07-07T08:03:38Z</time>
      </trkpt>
      <trkpt lat="42.97056" lon="0.32472">
        <ele>1660.3</ele>
        <time>2026-07-07T08:03:38Z</time>
      </trkpt>
      <trkpt lat="42.97056" lon="0.32471">
        <ele>1660.3</ele>
        <time>2026-07-07T08:03:39Z</time>
      </trkpt>
      <trkpt lat="42.97056" lon="0.32471">
        <ele>1661.3</ele>
        <time>2026-07-07T08:03:39Z</time>
      </trkpt>
      <trkpt lat="42.97055" lon="0.3247">
        <ele>1661.3</ele>
        <time>2026-07-07T08:03:40Z</time>
      </trkpt>
      <trkpt lat="42.97055" lon="0.32469">
        <ele>1661.3</ele>
        <time>2026-07-07T08:03:40Z</time>
      </trkpt>
      <trkpt lat="42.97055" lon="0.32468">
        <ele>1661.3</ele>
        <time>2026-07-07T08:03:41Z</time>
      </trkpt>
      <trkpt lat="42.97055" lon="0.32468">
        <ele>1661.3</ele>
        <time>2026-07-07T08:03:41Z</time>
      </trkpt>
      <trkpt lat="42.97054" lon="0.32467">
        <ele>1661.3</ele>
        <time>2026-07-07T08:03:42Z</time>
      </trkpt>
      <trkpt lat="42.97054" lon="0.32466">
        <ele>1661.3</ele>
        <time>2026-07-07T08:03:43Z</time>
      </trkpt>
      <trkpt lat="42.97054" lon="0.32465">
        <ele>1661.3</ele>
        <time>2026-07-07T08:03:43Z</time>
      </trkpt>
      <trkpt lat="42.97053" lon="0.32464">
        <ele>1661.3</ele>
        <time>2026-07-07T08:03:44Z</time>
      </trkpt>
      <trkpt lat="42.97053" lon="0.32463">
        <ele>1661.3</ele>
        <time>2026-07-07T08:03:45Z</time>
      </trkpt>
      <trkpt lat="42.97052" lon="0.32462">
        <ele>1661.3</ele>
        <time>2026-07-07T08:03:46Z</time>
      </trkpt>
      <trkpt lat="42.97052" lon="0.32461">
        <ele>1661.3</ele>
        <time>2026-07-07T08:03:46Z</time>
      </trkpt>
      <trkpt lat="42.97052" lon="0.32461">
        <ele>1662.3</ele>
        <time>2026-07-07T08:03:47Z</time>
      </trkpt>
      <trkpt lat="42.97052" lon="0.3246">
        <ele>1662.3</ele>
        <time>2026-07-07T08:03:47Z</time>
      </trkpt>
      <trkpt lat="42.97051" lon="0.32459">
        <ele>1662.3</ele>
        <time>2026-07-07T08:03:48Z</time>
      </trkpt>
      <trkpt lat="42.97051" lon="0.32458">
        <ele>1662.3</ele>
        <time>2026-07-07T08:03:48Z</time>
      </trkpt>
      <trkpt lat="42.97051" lon="0.32457">
        <ele>1662.3</ele>
        <time>2026-07-07T08:03:49Z</time>
      </trkpt>
      <trkpt lat="42.97051" lon="0.32456">
        <ele>1662.3</ele>
        <time>2026-07-07T08:03:49Z</time>
      </trkpt>
      <trkpt lat="42.9705" lon="0.32455">
        <ele>1662.3</ele>
        <time>2026-07-07T08:03:50Z</time>
      </trkpt>
      <trkpt lat="42.9705" lon="0.32455">
        <ele>1662.3</ele>
        <time>2026-07-07T08:03:50Z</time>
      </trkpt>
      <trkpt lat="42.9705" lon="0.32454">
        <ele>1662.3</ele>
        <time>2026-07-07T08:03:51Z</time>
      </trkpt>
      <trkpt lat="42.9705" lon="0.32452">
        <ele>1661.3</ele>
        <time>2026-07-07T08:03:52Z</time>
      </trkpt>
      <trkpt lat="42.97049" lon="0.32451">
        <ele>1661.3</ele>
        <time>2026-07-07T08:03:53Z</time>
      </trkpt>
      <trkpt lat="42.97049" lon="0.3245">
        <ele>1661.3</ele>
        <time>2026-07-07T08:03:53Z</time>
      </trkpt>
      <trkpt lat="42.97049" lon="0.32449">
        <ele>1661.3</ele>
        <time>2026-07-07T08:03:54Z</time>
      </trkpt>
      <trkpt lat="42.97049" lon="0.32448">
        <ele>1661.3</ele>
        <time>2026-07-07T08:03:54Z</time>
      </trkpt>
      <trkpt lat="42.97049" lon="0.32447">
        <ele>1661.3</ele>
        <time>2026-07-07T08:03:55Z</time>
      </trkpt>
      <trkpt lat="42.97048" lon="0.32446">
        <ele>1662.3</ele>
        <time>2026-07-07T08:03:55Z</time>
      </trkpt>
      <trkpt lat="42.97048" lon="0.32445">
        <ele>1662.3</ele>
        <time>2026-07-07T08:03:56Z</time>
      </trkpt>
      <trkpt lat="42.97048" lon="0.32445">
        <ele>1662.3</ele>
        <time>2026-07-07T08:03:57Z</time>
      </trkpt>
      <trkpt lat="42.97048" lon="0.32444">
        <ele>1662.3</ele>
        <time>2026-07-07T08:03:57Z</time>
      </trkpt>
      <trkpt lat="42.97048" lon="0.32443">
        <ele>1661.3</ele>
        <time>2026-07-07T08:03:58Z</time>
      </trkpt>
      <trkpt lat="42.97047" lon="0.32442">
        <ele>1661.3</ele>
        <time>2026-07-07T08:03:58Z</time>
      </trkpt>
      <trkpt lat="42.97047" lon="0.32441">
        <ele>1661.3</ele>
        <time>2026-07-07T08:03:59Z</time>
      </trkpt>
      <trkpt lat="42.97046" lon="0.32441">
        <ele>1661.3</ele>
        <time>2026-07-07T08:03:59Z</time>
      </trkpt>
      <trkpt lat="42.97046" lon="0.3244">
        <ele>1661.3</ele>
        <time>2026-07-07T08:04:00Z</time>
      </trkpt>
      <trkpt lat="42.97045" lon="0.3244">
        <ele>1662.3</ele>
        <time>2026-07-07T08:04:01Z</time>
      </trkpt>
      <trkpt lat="42.97045" lon="0.32439">
        <ele>1662.3</ele>
        <time>2026-07-07T08:04:01Z</time>
      </trkpt>
      <trkpt lat="42.97044" lon="0.32438">
        <ele>1661.3</ele>
        <time>2026-07-07T08:04:02Z</time>
      </trkpt>
      <trkpt lat="42.97044" lon="0.32437">
        <ele>1661.3</ele>
        <time>2026-07-07T08:04:02Z</time>
      </trkpt>
      <trkpt lat="42.97044" lon="0.32437">
        <ele>1661.3</ele>
        <time>2026-07-07T08:04:03Z</time>
      </trkpt>
      <trkpt lat="42.97043" lon="0.32436">
        <ele>1661.3</ele>
        <time>2026-07-07T08:04:03Z</time>
      </trkpt>
      <trkpt lat="42.97043" lon="0.32435">
        <ele>1661.3</ele>
        <time>2026-07-07T08:04:04Z</time>
      </trkpt>
      <trkpt lat="42.97042" lon="0.32435">
        <ele>1661.3</ele>
        <time>2026-07-07T08:04:04Z</time>
      </trkpt>
      <trkpt lat="42.97041" lon="0.32433">
        <ele>1661.3</ele>
        <time>2026-07-07T08:04:05Z</time>
      </trkpt>
      <trkpt lat="42.97041" lon="0.32432">
        <ele>1661.3</ele>
        <time>2026-07-07T08:04:06Z</time>
      </trkpt>
      <trkpt lat="42.9704" lon="0.32431">
        <ele>1662.3</ele>
        <time>2026-07-07T08:04:07Z</time>
      </trkpt>
      <trkpt lat="42.9704" lon="0.3243">
        <ele>1661.3</ele>
        <time>2026-07-07T08:04:08Z</time>
      </trkpt>
      <trkpt lat="42.9704" lon="0.32429">
        <ele>1661.3</ele>
        <time>2026-07-07T08:04:08Z</time>
      </trkpt>
      <trkpt lat="42.9704" lon="0.32427">
        <ele>1661.3</ele>
        <time>2026-07-07T08:04:09Z</time>
      </trkpt>
      <trkpt lat="42.97039" lon="0.32426">
        <ele>1661.3</ele>
        <time>2026-07-07T08:04:10Z</time>
      </trkpt>
      <trkpt lat="42.97039" lon="0.32425">
        <ele>1661.3</ele>
        <time>2026-07-07T08:04:10Z</time>
      </trkpt>
      <trkpt lat="42.97039" lon="0.32424">
        <ele>1661.3</ele>
        <time>2026-07-07T08:04:11Z</time>
      </trkpt>
      <trkpt lat="42.97039" lon="0.32423">
        <ele>1661.3</ele>
        <time>2026-07-07T08:04:12Z</time>
      </trkpt>
      <trkpt lat="42.97039" lon="0.32422">
        <ele>1661.3</ele>
        <time>2026-07-07T08:04:12Z</time>
      </trkpt>
      <trkpt lat="42.97039" lon="0.32421">
        <ele>1661.3</ele>
        <time>2026-07-07T08:04:13Z</time>
      </trkpt>
      <trkpt lat="42.97039" lon="0.3242">
        <ele>1661.3</ele>
        <time>2026-07-07T08:04:14Z</time>
      </trkpt>
      <trkpt lat="42.97039" lon="0.32419">
        <ele>1661.3</ele>
        <time>2026-07-07T08:04:14Z</time>
      </trkpt>
      <trkpt lat="42.97039" lon="0.32418">
        <ele>1661.3</ele>
        <time>2026-07-07T08:04:15Z</time>
      </trkpt>
      <trkpt lat="42.97039" lon="0.32416">
        <ele>1661.3</ele>
        <time>2026-07-07T08:04:16Z</time>
      </trkpt>
      <trkpt lat="42.97039" lon="0.32415">
        <ele>1661.3</ele>
        <time>2026-07-07T08:04:17Z</time>
      </trkpt>
      <trkpt lat="42.97038" lon="0.32414">
        <ele>1661.3</ele>
        <time>2026-07-07T08:04:18Z</time>
      </trkpt>
      <trkpt lat="42.97038" lon="0.32413">
        <ele>1661.3</ele>
        <time>2026-07-07T08:04:18Z</time>
      </trkpt>
      <trkpt lat="42.97038" lon="0.32412">
        <ele>1661.3</ele>
        <time>2026-07-07T08:04:19Z</time>
      </trkpt>
      <trkpt lat="42.97038" lon="0.32411">
        <ele>1661.3</ele>
        <time>2026-07-07T08:04:19Z</time>
      </trkpt>
      <trkpt lat="42.97038" lon="0.3241">
        <ele>1660.3</ele>
        <time>2026-07-07T08:04:20Z</time>
      </trkpt>
      <trkpt lat="42.97038" lon="0.32409">
        <ele>1660.3</ele>
        <time>2026-07-07T08:04:20Z</time>
      </trkpt>
      <trkpt lat="42.97038" lon="0.32408">
        <ele>1660.3</ele>
        <time>2026-07-07T08:04:21Z</time>
      </trkpt>
      <trkpt lat="42.97037" lon="0.32407">
        <ele>1661.3</ele>
        <time>2026-07-07T08:04:22Z</time>
      </trkpt>
      <trkpt lat="42.97037" lon="0.32407">
        <ele>1661.3</ele>
        <time>2026-07-07T08:04:22Z</time>
      </trkpt>
      <trkpt lat="42.97037" lon="0.32406">
        <ele>1660.3</ele>
        <time>2026-07-07T08:04:23Z</time>
      </trkpt>
      <trkpt lat="42.97037" lon="0.32405">
        <ele>1660.3</ele>
        <time>2026-07-07T08:04:23Z</time>
      </trkpt>
      <trkpt lat="42.97037" lon="0.32404">
        <ele>1660.3</ele>
        <time>2026-07-07T08:04:24Z</time>
      </trkpt>
      <trkpt lat="42.97037" lon="0.32404">
        <ele>1660.3</ele>
        <time>2026-07-07T08:04:24Z</time>
      </trkpt>
      <trkpt lat="42.97036" lon="0.32403">
        <ele>1660.3</ele>
        <time>2026-07-07T08:04:25Z</time>
      </trkpt>
      <trkpt lat="42.97036" lon="0.32402">
        <ele>1660.3</ele>
        <time>2026-07-07T08:04:25Z</time>
      </trkpt>
      <trkpt lat="42.97036" lon="0.32401">
        <ele>1660.3</ele>
        <time>2026-07-07T08:04:26Z</time>
      </trkpt>
      <trkpt lat="42.97036" lon="0.324">
        <ele>1660.3</ele>
        <time>2026-07-07T08:04:27Z</time>
      </trkpt>
      <trkpt lat="42.97036" lon="0.324">
        <ele>1660.3</ele>
        <time>2026-07-07T08:04:27Z</time>
      </trkpt>
      <trkpt lat="42.97035" lon="0.32399">
        <ele>1660.3</ele>
        <time>2026-07-07T08:04:28Z</time>
      </trkpt>
      <trkpt lat="42.97035" lon="0.32398">
        <ele>1660.3</ele>
        <time>2026-07-07T08:04:29Z</time>
      </trkpt>
      <trkpt lat="42.97035" lon="0.32397">
        <ele>1661.3</ele>
        <time>2026-07-07T08:04:29Z</time>
      </trkpt>
      <trkpt lat="42.97035" lon="0.32396">
        <ele>1661.3</ele>
        <time>2026-07-07T08:04:30Z</time>
      </trkpt>
      <trkpt lat="42.97035" lon="0.32394">
        <ele>1662.3</ele>
        <time>2026-07-07T08:04:31Z</time>
      </trkpt>
      <trkpt lat="42.97034" lon="0.32393">
        <ele>1662.3</ele>
        <time>2026-07-07T08:04:32Z</time>
      </trkpt>
      <trkpt lat="42.97034" lon="0.32393">
        <ele>1662.3</ele>
        <time>2026-07-07T08:04:32Z</time>
      </trkpt>
      <trkpt lat="42.97034" lon="0.32392">
        <ele>1662.3</ele>
        <time>2026-07-07T08:04:33Z</time>
      </trkpt>
      <trkpt lat="42.97034" lon="0.32391">
        <ele>1662.3</ele>
        <time>2026-07-07T08:04:34Z</time>
      </trkpt>
      <trkpt lat="42.97033" lon="0.3239">
        <ele>1662.3</ele>
        <time>2026-07-07T08:04:35Z</time>
      </trkpt>
      <trkpt lat="42.97033" lon="0.3239">
        <ele>1661.3</ele>
        <time>2026-07-07T08:04:35Z</time>
      </trkpt>
      <trkpt lat="42.97033" lon="0.32389">
        <ele>1661.3</ele>
        <time>2026-07-07T08:04:36Z</time>
      </trkpt>
      <trkpt lat="42.97033" lon="0.32388">
        <ele>1662.3</ele>
        <time>2026-07-07T08:04:37Z</time>
      </trkpt>
      <trkpt lat="42.97033" lon="0.32387">
        <ele>1662.3</ele>
        <time>2026-07-07T08:04:37Z</time>
      </trkpt>
      <trkpt lat="42.97033" lon="0.32386">
        <ele>1662.3</ele>
        <time>2026-07-07T08:04:38Z</time>
      </trkpt>
      <trkpt lat="42.97033" lon="0.32386">
        <ele>1662.3</ele>
        <time>2026-07-07T08:04:38Z</time>
      </trkpt>
      <trkpt lat="42.97033" lon="0.32385">
        <ele>1662.3</ele>
        <time>2026-07-07T08:04:39Z</time>
      </trkpt>
      <trkpt lat="42.97033" lon="0.32384">
        <ele>1662.3</ele>
        <time>2026-07-07T08:04:40Z</time>
      </trkpt>
      <trkpt lat="42.97033" lon="0.32384">
        <ele>1662.3</ele>
        <time>2026-07-07T08:04:40Z</time>
      </trkpt>
      <trkpt lat="42.97033" lon="0.32383">
        <ele>1662.3</ele>
        <time>2026-07-07T08:04:41Z</time>
      </trkpt>
      <trkpt lat="42.97033" lon="0.32382">
        <ele>1662.3</ele>
        <time>2026-07-07T08:04:41Z</time>
      </trkpt>
      <trkpt lat="42.97033" lon="0.32381">
        <ele>1662.3</ele>
        <time>2026-07-07T08:04:42Z</time>
      </trkpt>
      <trkpt lat="42.97033" lon="0.3238">
        <ele>1662.3</ele>
        <time>2026-07-07T08:04:43Z</time>
      </trkpt>
      <trkpt lat="42.97033" lon="0.32379">
        <ele>1662.3</ele>
        <time>2026-07-07T08:04:43Z</time>
      </trkpt>
      <trkpt lat="42.97033" lon="0.32378">
        <ele>1662.3</ele>
        <time>2026-07-07T08:04:44Z</time>
      </trkpt>
      <trkpt lat="42.97033" lon="0.32378">
        <ele>1662.3</ele>
        <time>2026-07-07T08:04:44Z</time>
      </trkpt>
      <trkpt lat="42.97032" lon="0.32377">
        <ele>1662.3</ele>
        <time>2026-07-07T08:04:45Z</time>
      </trkpt>
      <trkpt lat="42.97032" lon="0.32376">
        <ele>1662.3</ele>
        <time>2026-07-07T08:04:46Z</time>
      </trkpt>
      <trkpt lat="42.97031" lon="0.32375">
        <ele>1662.3</ele>
        <time>2026-07-07T08:04:46Z</time>
      </trkpt>
      <trkpt lat="42.97031" lon="0.32375">
        <ele>1662.3</ele>
        <time>2026-07-07T08:04:47Z</time>
      </trkpt>
      <trkpt lat="42.97031" lon="0.32374">
        <ele>1662.3</ele>
        <time>2026-07-07T08:04:47Z</time>
      </trkpt>
      <trkpt lat="42.9703" lon="0.32373">
        <ele>1662.3</ele>
        <time>2026-07-07T08:04:48Z</time>
      </trkpt>
      <trkpt lat="42.9703" lon="0.32372">
        <ele>1662.3</ele>
        <time>2026-07-07T08:04:49Z</time>
      </trkpt>
      <trkpt lat="42.97029" lon="0.32371">
        <ele>1662.3</ele>
        <time>2026-07-07T08:04:49Z</time>
      </trkpt>
      <trkpt lat="42.97029" lon="0.32371">
        <ele>1663.3</ele>
        <time>2026-07-07T08:04:50Z</time>
      </trkpt>
      <trkpt lat="42.97029" lon="0.3237">
        <ele>1662.3</ele>
        <time>2026-07-07T08:04:50Z</time>
      </trkpt>
      <trkpt lat="42.97028" lon="0.32369">
        <ele>1662.3</ele>
        <time>2026-07-07T08:04:51Z</time>
      </trkpt>
      <trkpt lat="42.97028" lon="0.32368">
        <ele>1662.3</ele>
        <time>2026-07-07T08:04:52Z</time>
      </trkpt>
      <trkpt lat="42.97028" lon="0.32367">
        <ele>1662.3</ele>
        <time>2026-07-07T08:04:52Z</time>
      </trkpt>
      <trkpt lat="42.97027" lon="0.32367">
        <ele>1663.3</ele>
        <time>2026-07-07T08:04:53Z</time>
      </trkpt>
      <trkpt lat="42.97027" lon="0.32366">
        <ele>1663.3</ele>
        <time>2026-07-07T08:04:53Z</time>
      </trkpt>
      <trkpt lat="42.97027" lon="0.32365">
        <ele>1662.3</ele>
        <time>2026-07-07T08:04:54Z</time>
      </trkpt>
      <trkpt lat="42.97027" lon="0.32364">
        <ele>1662.3</ele>
        <time>2026-07-07T08:04:55Z</time>
      </trkpt>
      <trkpt lat="42.97027" lon="0.32363">
        <ele>1662.3</ele>
        <time>2026-07-07T08:04:55Z</time>
      </trkpt>
      <trkpt lat="42.97027" lon="0.32362">
        <ele>1662.3</ele>
        <time>2026-07-07T08:04:56Z</time>
      </trkpt>
      <trkpt lat="42.97027" lon="0.32362">
        <ele>1663.3</ele>
        <time>2026-07-07T08:04:57Z</time>
      </trkpt>
      <trkpt lat="42.97027" lon="0.32361">
        <ele>1663.3</ele>
        <time>2026-07-07T08:04:57Z</time>
      </trkpt>
      <trkpt lat="42.97027" lon="0.32361">
        <ele>1663.3</ele>
        <time>2026-07-07T08:04:58Z</time>
      </trkpt>
      <trkpt lat="42.97027" lon="0.3236">
        <ele>1663.3</ele>
        <time>2026-07-07T08:04:59Z</time>
      </trkpt>
      <trkpt lat="42.97027" lon="0.3236">
        <ele>1663.3</ele>
        <time>2026-07-07T08:04:59Z</time>
      </trkpt>
      <trkpt lat="42.97027" lon="0.32359">
        <ele>1663.3</ele>
        <time>2026-07-07T08:05:00Z</time>
      </trkpt>
      <trkpt lat="42.97027" lon="0.32359">
        <ele>1663.3</ele>
        <time>2026-07-07T08:05:01Z</time>
      </trkpt>
      <trkpt lat="42.97026" lon="0.32359">
        <ele>1663.3</ele>
        <time>2026-07-07T08:05:02Z</time>
      </trkpt>
      <trkpt lat="42.97026" lon="0.32359">
        <ele>1663.3</ele>
        <time>2026-07-07T08:05:03Z</time>
      </trkpt>
      <trkpt lat="42.97026" lon="0.32359">
        <ele>1663.3</ele>
        <time>2026-07-07T08:05:04Z</time>
      </trkpt>
      <trkpt lat="42.97027" lon="0.32358">
        <ele>1663.3</ele>
        <time>2026-07-07T08:05:05Z</time>
      </trkpt>
      <trkpt lat="42.97027" lon="0.32357">
        <ele>1664.3</ele>
        <time>2026-07-07T08:05:05Z</time>
      </trkpt>
      <trkpt lat="42.97027" lon="0.32357">
        <ele>1664.3</ele>
        <time>2026-07-07T08:05:06Z</time>
      </trkpt>
      <trkpt lat="42.97027" lon="0.32356">
        <ele>1664.3</ele>
        <time>2026-07-07T08:05:07Z</time>
      </trkpt>
      <trkpt lat="42.97027" lon="0.32355">
        <ele>1664.3</ele>
        <time>2026-07-07T08:05:07Z</time>
      </trkpt>
      <trkpt lat="42.97027" lon="0.32353">
        <ele>1664.3</ele>
        <time>2026-07-07T08:05:08Z</time>
      </trkpt>
      <trkpt lat="42.97027" lon="0.32352">
        <ele>1664.3</ele>
        <time>2026-07-07T08:05:09Z</time>
      </trkpt>
      <trkpt lat="42.97027" lon="0.32351">
        <ele>1664.3</ele>
        <time>2026-07-07T08:05:10Z</time>
      </trkpt>
      <trkpt lat="42.97027" lon="0.3235">
        <ele>1664.3</ele>
        <time>2026-07-07T08:05:10Z</time>
      </trkpt>
      <trkpt lat="42.97027" lon="0.32349">
        <ele>1664.3</ele>
        <time>2026-07-07T08:05:11Z</time>
      </trkpt>
      <trkpt lat="42.97026" lon="0.32348">
        <ele>1664.3</ele>
        <time>2026-07-07T08:05:12Z</time>
      </trkpt>
      <trkpt lat="42.97026" lon="0.32348">
        <ele>1664.3</ele>
        <time>2026-07-07T08:05:12Z</time>
      </trkpt>
      <trkpt lat="42.97026" lon="0.32347">
        <ele>1664.3</ele>
        <time>2026-07-07T08:05:13Z</time>
      </trkpt>
      <trkpt lat="42.97026" lon="0.32346">
        <ele>1665.3</ele>
        <time>2026-07-07T08:05:14Z</time>
      </trkpt>
      <trkpt lat="42.97026" lon="0.32345">
        <ele>1665.3</ele>
        <time>2026-07-07T08:05:14Z</time>
      </trkpt>
      <trkpt lat="42.97026" lon="0.32344">
        <ele>1664.3</ele>
        <time>2026-07-07T08:05:15Z</time>
      </trkpt>
      <trkpt lat="42.97026" lon="0.32343">
        <ele>1664.3</ele>
        <time>2026-07-07T08:05:16Z</time>
      </trkpt>
      <trkpt lat="42.97026" lon="0.32343">
        <ele>1664.3</ele>
        <time>2026-07-07T08:05:16Z</time>
      </trkpt>
      <trkpt lat="42.97026" lon="0.32342">
        <ele>1664.3</ele>
        <time>2026-07-07T08:05:17Z</time>
      </trkpt>
      <trkpt lat="42.97026" lon="0.32341">
        <ele>1664.3</ele>
        <time>2026-07-07T08:05:18Z</time>
      </trkpt>
      <trkpt lat="42.97026" lon="0.3234">
        <ele>1664.3</ele>
        <time>2026-07-07T08:05:18Z</time>
      </trkpt>
      <trkpt lat="42.97026" lon="0.32339">
        <ele>1664.3</ele>
        <time>2026-07-07T08:05:19Z</time>
      </trkpt>
      <trkpt lat="42.97026" lon="0.32338">
        <ele>1665.3</ele>
        <time>2026-07-07T08:05:20Z</time>
      </trkpt>
      <trkpt lat="42.97026" lon="0.32338">
        <ele>1665.3</ele>
        <time>2026-07-07T08:05:21Z</time>
      </trkpt>
      <trkpt lat="42.97026" lon="0.32337">
        <ele>1665.3</ele>
        <time>2026-07-07T08:05:21Z</time>
      </trkpt>
      <trkpt lat="42.97026" lon="0.32336">
        <ele>1665.3</ele>
        <time>2026-07-07T08:05:22Z</time>
      </trkpt>
      <trkpt lat="42.97027" lon="0.32336">
        <ele>1665.3</ele>
        <time>2026-07-07T08:05:22Z</time>
      </trkpt>
      <trkpt lat="42.97027" lon="0.32335">
        <ele>1665.3</ele>
        <time>2026-07-07T08:05:23Z</time>
      </trkpt>
      <trkpt lat="42.97027" lon="0.32334">
        <ele>1665.3</ele>
        <time>2026-07-07T08:05:24Z</time>
      </trkpt>
      <trkpt lat="42.97027" lon="0.32333">
        <ele>1665.3</ele>
        <time>2026-07-07T08:05:25Z</time>
      </trkpt>
      <trkpt lat="42.97028" lon="0.32333">
        <ele>1665.3</ele>
        <time>2026-07-07T08:05:26Z</time>
      </trkpt>
      <trkpt lat="42.97028" lon="0.32333">
        <ele>1665.3</ele>
        <time>2026-07-07T08:05:27Z</time>
      </trkpt>
      <trkpt lat="42.97028" lon="0.32332">
        <ele>1665.3</ele>
        <time>2026-07-07T08:05:27Z</time>
      </trkpt>
      <trkpt lat="42.97028" lon="0.32331">
        <ele>1665.3</ele>
        <time>2026-07-07T08:05:28Z</time>
      </trkpt>
      <trkpt lat="42.97028" lon="0.32331">
        <ele>1665.3</ele>
        <time>2026-07-07T08:05:29Z</time>
      </trkpt>
      <trkpt lat="42.97028" lon="0.3233">
        <ele>1666.3</ele>
        <time>2026-07-07T08:05:30Z</time>
      </trkpt>
      <trkpt lat="42.97027" lon="0.3233">
        <ele>1665.3</ele>
        <time>2026-07-07T08:05:30Z</time>
      </trkpt>
      <trkpt lat="42.97027" lon="0.32329">
        <ele>1665.3</ele>
        <time>2026-07-07T08:05:31Z</time>
      </trkpt>
      <trkpt lat="42.97026" lon="0.32329">
        <ele>1665.3</ele>
        <time>2026-07-07T08:05:32Z</time>
      </trkpt>
      <trkpt lat="42.97026" lon="0.32328">
        <ele>1665.3</ele>
        <time>2026-07-07T08:05:33Z</time>
      </trkpt>
      <trkpt lat="42.97025" lon="0.32328">
        <ele>1664.3</ele>
        <time>2026-07-07T08:05:33Z</time>
      </trkpt>
      <trkpt lat="42.97025" lon="0.32327">
        <ele>1664.3</ele>
        <time>2026-07-07T08:05:34Z</time>
      </trkpt>
      <trkpt lat="42.97024" lon="0.32326">
        <ele>1664.3</ele>
        <time>2026-07-07T08:05:35Z</time>
      </trkpt>
      <trkpt lat="42.97024" lon="0.32326">
        <ele>1664.3</ele>
        <time>2026-07-07T08:05:35Z</time>
      </trkpt>
      <trkpt lat="42.97024" lon="0.32325">
        <ele>1664.3</ele>
        <time>2026-07-07T08:05:36Z</time>
      </trkpt>
      <trkpt lat="42.97024" lon="0.32325">
        <ele>1664.3</ele>
        <time>2026-07-07T08:05:37Z</time>
      </trkpt>
      <trkpt lat="42.97024" lon="0.32324">
        <ele>1664.3</ele>
        <time>2026-07-07T08:05:38Z</time>
      </trkpt>
      <trkpt lat="42.97024" lon="0.32323">
        <ele>1664.3</ele>
        <time>2026-07-07T08:05:38Z</time>
      </trkpt>
      <trkpt lat="42.97024" lon="0.32322">
        <ele>1664.3</ele>
        <time>2026-07-07T08:05:39Z</time>
      </trkpt>
      <trkpt lat="42.97023" lon="0.32321">
        <ele>1664.3</ele>
        <time>2026-07-07T08:05:40Z</time>
      </trkpt>
      <trkpt lat="42.97023" lon="0.32321">
        <ele>1664.3</ele>
        <time>2026-07-07T08:05:41Z</time>
      </trkpt>
      <trkpt lat="42.97023" lon="0.3232">
        <ele>1664.3</ele>
        <time>2026-07-07T08:05:41Z</time>
      </trkpt>
      <trkpt lat="42.97022" lon="0.32319">
        <ele>1664.3</ele>
        <time>2026-07-07T08:05:42Z</time>
      </trkpt>
      <trkpt lat="42.97022" lon="0.32319">
        <ele>1664.3</ele>
        <time>2026-07-07T08:05:43Z</time>
      </trkpt>
      <trkpt lat="42.97022" lon="0.32319">
        <ele>1664.3</ele>
        <time>2026-07-07T08:05:43Z</time>
      </trkpt>
      <trkpt lat="42.97022" lon="0.32318">
        <ele>1664.3</ele>
        <time>2026-07-07T08:05:44Z</time>
      </trkpt>
      <trkpt lat="42.97022" lon="0.32317">
        <ele>1664.3</ele>
        <time>2026-07-07T08:05:45Z</time>
      </trkpt>
      <trkpt lat="42.97023" lon="0.32317">
        <ele>1664.3</ele>
        <time>2026-07-07T08:05:46Z</time>
      </trkpt>
      <trkpt lat="42.97023" lon="0.32317">
        <ele>1665.3</ele>
        <time>2026-07-07T08:05:47Z</time>
      </trkpt>
      <trkpt lat="42.97023" lon="0.32316">
        <ele>1665.3</ele>
        <time>2026-07-07T08:05:48Z</time>
      </trkpt>
      <trkpt lat="42.97023" lon="0.32316">
        <ele>1665.3</ele>
        <time>2026-07-07T08:05:48Z</time>
      </trkpt>
      <trkpt lat="42.97024" lon="0.32316">
        <ele>1665.3</ele>
        <time>2026-07-07T08:05:49Z</time>
      </trkpt>
      <trkpt lat="42.97024" lon="0.32315">
        <ele>1665.3</ele>
        <time>2026-07-07T08:05:50Z</time>
      </trkpt>
      <trkpt lat="42.97025" lon="0.32315">
        <ele>1665.3</ele>
        <time>2026-07-07T08:05:50Z</time>
      </trkpt>
      <trkpt lat="42.97025" lon="0.32314">
        <ele>1665.3</ele>
        <time>2026-07-07T08:05:51Z</time>
      </trkpt>
      <trkpt lat="42.97025" lon="0.32314">
        <ele>1666.3</ele>
        <time>2026-07-07T08:05:51Z</time>
      </trkpt>
      <trkpt lat="42.97026" lon="0.32313">
        <ele>1666.3</ele>
        <time>2026-07-07T08:05:52Z</time>
      </trkpt>
      <trkpt lat="42.97026" lon="0.32313">
        <ele>1666.3</ele>
        <time>2026-07-07T08:05:53Z</time>
      </trkpt>
      <trkpt lat="42.97026" lon="0.32312">
        <ele>1666.3</ele>
        <time>2026-07-07T08:05:53Z</time>
      </trkpt>
      <trkpt lat="42.97027" lon="0.32311">
        <ele>1666.3</ele>
        <time>2026-07-07T08:05:54Z</time>
      </trkpt>
      <trkpt lat="42.97027" lon="0.32311">
        <ele>1667.3</ele>
        <time>2026-07-07T08:05:54Z</time>
      </trkpt>
      <trkpt lat="42.97028" lon="0.3231">
        <ele>1667.3</ele>
        <time>2026-07-07T08:05:55Z</time>
      </trkpt>
      <trkpt lat="42.97027" lon="0.32309">
        <ele>1667.3</ele>
        <time>2026-07-07T08:05:55Z</time>
      </trkpt>
      <trkpt lat="42.97028" lon="0.32309">
        <ele>1667.3</ele>
        <time>2026-07-07T08:05:56Z</time>
      </trkpt>
      <trkpt lat="42.97028" lon="0.32308">
        <ele>1667.3</ele>
        <time>2026-07-07T08:05:57Z</time>
      </trkpt>
      <trkpt lat="42.97028" lon="0.32307">
        <ele>1667.3</ele>
        <time>2026-07-07T08:05:57Z</time>
      </trkpt>
      <trkpt lat="42.97027" lon="0.32306">
        <ele>1667.3</ele>
        <time>2026-07-07T08:05:58Z</time>
      </trkpt>
      <trkpt lat="42.97027" lon="0.32305">
        <ele>1667.3</ele>
        <time>2026-07-07T08:05:59Z</time>
      </trkpt>
      <trkpt lat="42.97027" lon="0.32304">
        <ele>1667.3</ele>
        <time>2026-07-07T08:05:59Z</time>
      </trkpt>
      <trkpt lat="42.97027" lon="0.32303">
        <ele>1667.3</ele>
        <time>2026-07-07T08:06:00Z</time>
      </trkpt>
      <trkpt lat="42.97027" lon="0.32303">
        <ele>1667.3</ele>
        <time>2026-07-07T08:06:00Z</time>
      </trkpt>
      <trkpt lat="42.97026" lon="0.32302">
        <ele>1667.3</ele>
        <time>2026-07-07T08:06:01Z</time>
      </trkpt>
      <trkpt lat="42.97026" lon="0.32301">
        <ele>1667.3</ele>
        <time>2026-07-07T08:06:02Z</time>
      </trkpt>
      <trkpt lat="42.97026" lon="0.323">
        <ele>1666.3</ele>
        <time>2026-07-07T08:06:02Z</time>
      </trkpt>
      <trkpt lat="42.97026" lon="0.32299">
        <ele>1666.3</ele>
        <time>2026-07-07T08:06:03Z</time>
      </trkpt>
      <trkpt lat="42.97025" lon="0.32299">
        <ele>1666.3</ele>
        <time>2026-07-07T08:06:04Z</time>
      </trkpt>
      <trkpt lat="42.97025" lon="0.32299">
        <ele>1666.3</ele>
        <time>2026-07-07T08:06:05Z</time>
      </trkpt>
      <trkpt lat="42.97024" lon="0.32299">
        <ele>1666.3</ele>
        <time>2026-07-07T08:06:05Z</time>
      </trkpt>
      <trkpt lat="42.97024" lon="0.32299">
        <ele>1666.3</ele>
        <time>2026-07-07T08:06:06Z</time>
      </trkpt>
      <trkpt lat="42.97023" lon="0.32299">
        <ele>1667.3</ele>
        <time>2026-07-07T08:06:07Z</time>
      </trkpt>
      <trkpt lat="42.97023" lon="0.32298">
        <ele>1667.3</ele>
        <time>2026-07-07T08:06:08Z</time>
      </trkpt>
      <trkpt lat="42.97022" lon="0.32298">
        <ele>1667.3</ele>
        <time>2026-07-07T08:06:08Z</time>
      </trkpt>
      <trkpt lat="42.97022" lon="0.32297">
        <ele>1667.3</ele>
        <time>2026-07-07T08:06:09Z</time>
      </trkpt>
      <trkpt lat="42.97021" lon="0.32296">
        <ele>1668.3</ele>
        <time>2026-07-07T08:06:10Z</time>
      </trkpt>
      <trkpt lat="42.97021" lon="0.32295">
        <ele>1668.3</ele>
        <time>2026-07-07T08:06:11Z</time>
      </trkpt>
      <trkpt lat="42.97021" lon="0.32294">
        <ele>1668.3</ele>
        <time>2026-07-07T08:06:12Z</time>
      </trkpt>
      <trkpt lat="42.97021" lon="0.32294">
        <ele>1668.3</ele>
        <time>2026-07-07T08:06:12Z</time>
      </trkpt>
      <trkpt lat="42.97021" lon="0.32292">
        <ele>1668.3</ele>
        <time>2026-07-07T08:06:13Z</time>
      </trkpt>
      <trkpt lat="42.97021" lon="0.32292">
        <ele>1668.3</ele>
        <time>2026-07-07T08:06:14Z</time>
      </trkpt>
      <trkpt lat="42.97021" lon="0.32291">
        <ele>1668.3</ele>
        <time>2026-07-07T08:06:14Z</time>
      </trkpt>
      <trkpt lat="42.9702" lon="0.3229">
        <ele>1668.3</ele>
        <time>2026-07-07T08:06:15Z</time>
      </trkpt>
      <trkpt lat="42.9702" lon="0.32289">
        <ele>1668.3</ele>
        <time>2026-07-07T08:06:16Z</time>
      </trkpt>
      <trkpt lat="42.9702" lon="0.32288">
        <ele>1669.3</ele>
        <time>2026-07-07T08:06:17Z</time>
      </trkpt>
      <trkpt lat="42.9702" lon="0.32288">
        <ele>1669.3</ele>
        <time>2026-07-07T08:06:17Z</time>
      </trkpt>
      <trkpt lat="42.9702" lon="0.32287">
        <ele>1668.3</ele>
        <time>2026-07-07T08:06:18Z</time>
      </trkpt>
      <trkpt lat="42.9702" lon="0.32286">
        <ele>1669.3</ele>
        <time>2026-07-07T08:06:18Z</time>
      </trkpt>
      <trkpt lat="42.9702" lon="0.32285">
        <ele>1669.3</ele>
        <time>2026-07-07T08:06:19Z</time>
      </trkpt>
      <trkpt lat="42.97021" lon="0.32284">
        <ele>1670.3</ele>
        <time>2026-07-07T08:06:20Z</time>
      </trkpt>
      <trkpt lat="42.97021" lon="0.32283">
        <ele>1670.3</ele>
        <time>2026-07-07T08:06:21Z</time>
      </trkpt>
      <trkpt lat="42.9702" lon="0.32282">
        <ele>1670.3</ele>
        <time>2026-07-07T08:06:22Z</time>
      </trkpt>
      <trkpt lat="42.9702" lon="0.32282">
        <ele>1670.3</ele>
        <time>2026-07-07T08:06:22Z</time>
      </trkpt>
      <trkpt lat="42.9702" lon="0.32281">
        <ele>1670.3</ele>
        <time>2026-07-07T08:06:23Z</time>
      </trkpt>
      <trkpt lat="42.9702" lon="0.32281">
        <ele>1670.3</ele>
        <time>2026-07-07T08:06:24Z</time>
      </trkpt>
      <trkpt lat="42.9702" lon="0.3228">
        <ele>1670.3</ele>
        <time>2026-07-07T08:06:24Z</time>
      </trkpt>
      <trkpt lat="42.9702" lon="0.3228">
        <ele>1670.3</ele>
        <time>2026-07-07T08:06:25Z</time>
      </trkpt>
      <trkpt lat="42.9702" lon="0.32279">
        <ele>1670.3</ele>
        <time>2026-07-07T08:06:26Z</time>
      </trkpt>
      <trkpt lat="42.9702" lon="0.32278">
        <ele>1671.3</ele>
        <time>2026-07-07T08:06:27Z</time>
      </trkpt>
      <trkpt lat="42.9702" lon="0.32278">
        <ele>1671.3</ele>
        <time>2026-07-07T08:06:27Z</time>
      </trkpt>
      <trkpt lat="42.9702" lon="0.32277">
        <ele>1670.3</ele>
        <time>2026-07-07T08:06:28Z</time>
      </trkpt>
      <trkpt lat="42.97021" lon="0.32276">
        <ele>1670.3</ele>
        <time>2026-07-07T08:06:29Z</time>
      </trkpt>
      <trkpt lat="42.97021" lon="0.32276">
        <ele>1670.3</ele>
        <time>2026-07-07T08:06:30Z</time>
      </trkpt>
      <trkpt lat="42.97021" lon="0.32275">
        <ele>1671.3</ele>
        <time>2026-07-07T08:06:31Z</time>
      </trkpt>
      <trkpt lat="42.9702" lon="0.32275">
        <ele>1671.3</ele>
        <time>2026-07-07T08:06:32Z</time>
      </trkpt>
      <trkpt lat="42.9702" lon="0.32275">
        <ele>1671.3</ele>
        <time>2026-07-07T08:06:33Z</time>
      </trkpt>
      <trkpt lat="42.9702" lon="0.32275">
        <ele>1671.3</ele>
        <time>2026-07-07T08:06:34Z</time>
      </trkpt>
      <trkpt lat="42.9702" lon="0.32274">
        <ele>1671.3</ele>
        <time>2026-07-07T08:06:34Z</time>
      </trkpt>
      <trkpt lat="42.9702" lon="0.32273">
        <ele>1671.3</ele>
        <time>2026-07-07T08:06:35Z</time>
      </trkpt>
      <trkpt lat="42.97019" lon="0.32273">
        <ele>1671.3</ele>
        <time>2026-07-07T08:06:36Z</time>
      </trkpt>
      <trkpt lat="42.97019" lon="0.32272">
        <ele>1671.3</ele>
        <time>2026-07-07T08:06:37Z</time>
      </trkpt>
      <trkpt lat="42.97018" lon="0.32272">
        <ele>1672.3</ele>
        <time>2026-07-07T08:06:37Z</time>
      </trkpt>
      <trkpt lat="42.97018" lon="0.32272">
        <ele>1672.3</ele>
        <time>2026-07-07T08:06:38Z</time>
      </trkpt>
      <trkpt lat="42.97017" lon="0.32272">
        <ele>1672.3</ele>
        <time>2026-07-07T08:06:39Z</time>
      </trkpt>
      <trkpt lat="42.97017" lon="0.32272">
        <ele>1673.3</ele>
        <time>2026-07-07T08:06:40Z</time>
      </trkpt>
      <trkpt lat="42.97017" lon="0.32272">
        <ele>1673.3</ele>
        <time>2026-07-07T08:06:40Z</time>
      </trkpt>
      <trkpt lat="42.97017" lon="0.32272">
        <ele>1673.3</ele>
        <time>2026-07-07T08:06:41Z</time>
      </trkpt>
      <trkpt lat="42.97017" lon="0.32272">
        <ele>1673.3</ele>
        <time>2026-07-07T08:06:41Z</time>
      </trkpt>
      <trkpt lat="42.97017" lon="0.32272">
        <ele>1673.3</ele>
        <time>2026-07-07T08:06:42Z</time>
      </trkpt>
      <trkpt lat="42.97016" lon="0.32271">
        <ele>1673.3</ele>
        <time>2026-07-07T08:06:43Z</time>
      </trkpt>
      <trkpt lat="42.97016" lon="0.3227">
        <ele>1673.3</ele>
        <time>2026-07-07T08:06:44Z</time>
      </trkpt>
      <trkpt lat="42.97016" lon="0.3227">
        <ele>1673.3</ele>
        <time>2026-07-07T08:06:45Z</time>
      </trkpt>
      <trkpt lat="42.97016" lon="0.32269">
        <ele>1673.3</ele>
        <time>2026-07-07T08:06:45Z</time>
      </trkpt>
      <trkpt lat="42.97016" lon="0.32268">
        <ele>1673.3</ele>
        <time>2026-07-07T08:06:46Z</time>
      </trkpt>
      <trkpt lat="42.97016" lon="0.32267">
        <ele>1673.3</ele>
        <time>2026-07-07T08:06:47Z</time>
      </trkpt>
      <trkpt lat="42.97016" lon="0.32267">
        <ele>1673.3</ele>
        <time>2026-07-07T08:06:48Z</time>
      </trkpt>
      <trkpt lat="42.97016" lon="0.32267">
        <ele>1673.3</ele>
        <time>2026-07-07T08:06:49Z</time>
      </trkpt>
      <trkpt lat="42.97016" lon="0.32266">
        <ele>1674.3</ele>
        <time>2026-07-07T08:06:49Z</time>
      </trkpt>
      <trkpt lat="42.97016" lon="0.32265">
        <ele>1674.3</ele>
        <time>2026-07-07T08:06:50Z</time>
      </trkpt>
      <trkpt lat="42.97016" lon="0.32264">
        <ele>1674.3</ele>
        <time>2026-07-07T08:06:51Z</time>
      </trkpt>
      <trkpt lat="42.97015" lon="0.32263">
        <ele>1675.3</ele>
        <time>2026-07-07T08:06:52Z</time>
      </trkpt>
      <trkpt lat="42.97015" lon="0.32263">
        <ele>1675.3</ele>
        <time>2026-07-07T08:06:53Z</time>
      </trkpt>
      <trkpt lat="42.97015" lon="0.32263">
        <ele>1675.3</ele>
        <time>2026-07-07T08:06:54Z</time>
      </trkpt>
      <trkpt lat="42.97014" lon="0.32262">
        <ele>1675.3</ele>
        <time>2026-07-07T08:06:54Z</time>
      </trkpt>
      <trkpt lat="42.97014" lon="0.32262">
        <ele>1675.3</ele>
        <time>2026-07-07T08:06:55Z</time>
      </trkpt>
      <trkpt lat="42.97013" lon="0.32261">
        <ele>1674.3</ele>
        <time>2026-07-07T08:06:56Z</time>
      </trkpt>
      <trkpt lat="42.97013" lon="0.32261">
        <ele>1674.3</ele>
        <time>2026-07-07T08:06:57Z</time>
      </trkpt>
      <trkpt lat="42.97012" lon="0.32261">
        <ele>1674.3</ele>
        <time>2026-07-07T08:06:57Z</time>
      </trkpt>
      <trkpt lat="42.97012" lon="0.3226">
        <ele>1674.3</ele>
        <time>2026-07-07T08:06:58Z</time>
      </trkpt>
      <trkpt lat="42.97012" lon="0.3226">
        <ele>1674.3</ele>
        <time>2026-07-07T08:06:59Z</time>
      </trkpt>
      <trkpt lat="42.97011" lon="0.32259">
        <ele>1674.3</ele>
        <time>2026-07-07T08:07:00Z</time>
      </trkpt>
      <trkpt lat="42.97011" lon="0.32259">
        <ele>1674.3</ele>
        <time>2026-07-07T08:07:01Z</time>
      </trkpt>
      <trkpt lat="42.97011" lon="0.32258">
        <ele>1674.3</ele>
        <time>2026-07-07T08:07:02Z</time>
      </trkpt>
      <trkpt lat="42.97011" lon="0.32258">
        <ele>1675.3</ele>
        <time>2026-07-07T08:07:03Z</time>
      </trkpt>
      <trkpt lat="42.9701" lon="0.32257">
        <ele>1675.3</ele>
        <time>2026-07-07T08:07:03Z</time>
      </trkpt>
      <trkpt lat="42.9701" lon="0.32257">
        <ele>1676.3</ele>
        <time>2026-07-07T08:07:04Z</time>
      </trkpt>
      <trkpt lat="42.9701" lon="0.32256">
        <ele>1676.3</ele>
        <time>2026-07-07T08:07:05Z</time>
      </trkpt>
      <trkpt lat="42.97011" lon="0.32255">
        <ele>1676.3</ele>
        <time>2026-07-07T08:07:06Z</time>
      </trkpt>
      <trkpt lat="42.97011" lon="0.32255">
        <ele>1677.3</ele>
        <time>2026-07-07T08:07:07Z</time>
      </trkpt>
      <trkpt lat="42.97011" lon="0.32255">
        <ele>1677.3</ele>
        <time>2026-07-07T08:07:08Z</time>
      </trkpt>
      <trkpt lat="42.9701" lon="0.32254">
        <ele>1677.3</ele>
        <time>2026-07-07T08:07:09Z</time>
      </trkpt>
      <trkpt lat="42.9701" lon="0.32254">
        <ele>1677.3</ele>
        <time>2026-07-07T08:07:10Z</time>
      </trkpt>
      <trkpt lat="42.97009" lon="0.32253">
        <ele>1677.3</ele>
        <time>2026-07-07T08:07:11Z</time>
      </trkpt>
      <trkpt lat="42.97008" lon="0.32253">
        <ele>1677.3</ele>
        <time>2026-07-07T08:07:12Z</time>
      </trkpt>
      <trkpt lat="42.97008" lon="0.32252">
        <ele>1677.3</ele>
        <time>2026-07-07T08:07:13Z</time>
      </trkpt>
      <trkpt lat="42.97008" lon="0.32252">
        <ele>1677.3</ele>
        <time>2026-07-07T08:07:14Z</time>
      </trkpt>
      <trkpt lat="42.97009" lon="0.32251">
        <ele>1677.3</ele>
        <time>2026-07-07T08:07:15Z</time>
      </trkpt>
      <trkpt lat="42.97009" lon="0.32251">
        <ele>1678.3</ele>
        <time>2026-07-07T08:07:15Z</time>
      </trkpt>
      <trkpt lat="42.97008" lon="0.32251">
        <ele>1678.3</ele>
        <time>2026-07-07T08:07:16Z</time>
      </trkpt>
      <trkpt lat="42.97008" lon="0.3225">
        <ele>1678.3</ele>
        <time>2026-07-07T08:07:17Z</time>
      </trkpt>
      <trkpt lat="42.97008" lon="0.3225">
        <ele>1678.3</ele>
        <time>2026-07-07T08:07:18Z</time>
      </trkpt>
      <trkpt lat="42.97008" lon="0.32249">
        <ele>1678.3</ele>
        <time>2026-07-07T08:07:19Z</time>
      </trkpt>
      <trkpt lat="42.97008" lon="0.32249">
        <ele>1678.3</ele>
        <time>2026-07-07T08:07:20Z</time>
      </trkpt>
      <trkpt lat="42.97008" lon="0.32249">
        <ele>1678.3</ele>
        <time>2026-07-07T08:07:21Z</time>
      </trkpt>
      <trkpt lat="42.97007" lon="0.32248">
        <ele>1678.3</ele>
        <time>2026-07-07T08:07:22Z</time>
      </trkpt>
      <trkpt lat="42.97007" lon="0.32248">
        <ele>1678.3</ele>
        <time>2026-07-07T08:07:23Z</time>
      </trkpt>
      <trkpt lat="42.97008" lon="0.32248">
        <ele>1679.3</ele>
        <time>2026-07-07T08:07:24Z</time>
      </trkpt>
      <trkpt lat="42.97007" lon="0.32248">
        <ele>1679.3</ele>
        <time>2026-07-07T08:07:25Z</time>
      </trkpt>
      <trkpt lat="42.97007" lon="0.32247">
        <ele>1678.3</ele>
        <time>2026-07-07T08:07:26Z</time>
      </trkpt>
      <trkpt lat="42.97007" lon="0.32247">
        <ele>1679.3</ele>
        <time>2026-07-07T08:07:27Z</time>
      </trkpt>
      <trkpt lat="42.97007" lon="0.32246">
        <ele>1679.3</ele>
        <time>2026-07-07T08:07:27Z</time>
      </trkpt>
      <trkpt lat="42.97006" lon="0.32245">
        <ele>1678.3</ele>
        <time>2026-07-07T08:07:28Z</time>
      </trkpt>
      <trkpt lat="42.97006" lon="0.32244">
        <ele>1678.3</ele>
        <time>2026-07-07T08:07:29Z</time>
      </trkpt>
      <trkpt lat="42.97006" lon="0.32243">
        <ele>1679.3</ele>
        <time>2026-07-07T08:07:30Z</time>
      </trkpt>
      <trkpt lat="42.97006" lon="0.32242">
        <ele>1679.3</ele>
        <time>2026-07-07T08:07:31Z</time>
      </trkpt>
      <trkpt lat="42.97006" lon="0.32241">
        <ele>1679.3</ele>
        <time>2026-07-07T08:07:32Z</time>
      </trkpt>
      <trkpt lat="42.97006" lon="0.32241">
        <ele>1679.3</ele>
        <time>2026-07-07T08:07:32Z</time>
      </trkpt>
      <trkpt lat="42.97006" lon="0.3224">
        <ele>1679.3</ele>
        <time>2026-07-07T08:07:33Z</time>
      </trkpt>
      <trkpt lat="42.97006" lon="0.3224">
        <ele>1681.3</ele>
        <time>2026-07-07T08:07:34Z</time>
      </trkpt>
      <trkpt lat="42.97005" lon="0.32239">
        <ele>1681.3</ele>
        <time>2026-07-07T08:07:35Z</time>
      </trkpt>
      <trkpt lat="42.97005" lon="0.32238">
        <ele>1681.3</ele>
        <time>2026-07-07T08:07:36Z</time>
      </trkpt>
      <trkpt lat="42.97005" lon="0.32237">
        <ele>1680.3</ele>
        <time>2026-07-07T08:07:37Z</time>
      </trkpt>
      <trkpt lat="42.97005" lon="0.32236">
        <ele>1680.3</ele>
        <time>2026-07-07T08:07:38Z</time>
      </trkpt>
      <trkpt lat="42.97005" lon="0.32235">
        <ele>1680.3</ele>
        <time>2026-07-07T08:07:39Z</time>
      </trkpt>
      <trkpt lat="42.97005" lon="0.32235">
        <ele>1680.3</ele>
        <time>2026-07-07T08:07:39Z</time>
      </trkpt>
      <trkpt lat="42.97005" lon="0.32234">
        <ele>1680.3</ele>
        <time>2026-07-07T08:07:40Z</time>
      </trkpt>
      <trkpt lat="42.97005" lon="0.32234">
        <ele>1681.3</ele>
        <time>2026-07-07T08:07:41Z</time>
      </trkpt>
      <trkpt lat="42.97005" lon="0.32233">
        <ele>1681.3</ele>
        <time>2026-07-07T08:07:42Z</time>
      </trkpt>
      <trkpt lat="42.97004" lon="0.32232">
        <ele>1681.3</ele>
        <time>2026-07-07T08:07:43Z</time>
      </trkpt>
      <trkpt lat="42.97004" lon="0.32232">
        <ele>1681.3</ele>
        <time>2026-07-07T08:07:43Z</time>
      </trkpt>
      <trkpt lat="42.97004" lon="0.32232">
        <ele>1682.3</ele>
        <time>2026-07-07T08:07:44Z</time>
      </trkpt>
      <trkpt lat="42.97004" lon="0.32231">
        <ele>1682.3</ele>
        <time>2026-07-07T08:07:45Z</time>
      </trkpt>
      <trkpt lat="42.97004" lon="0.3223">
        <ele>1683.3</ele>
        <time>2026-07-07T08:07:46Z</time>
      </trkpt>
      <trkpt lat="42.97004" lon="0.32229">
        <ele>1683.3</ele>
        <time>2026-07-07T08:07:47Z</time>
      </trkpt>
      <trkpt lat="42.97004" lon="0.32229">
        <ele>1683.3</ele>
        <time>2026-07-07T08:07:48Z</time>
      </trkpt>
      <trkpt lat="42.97004" lon="0.32228">
        <ele>1684.3</ele>
        <time>2026-07-07T08:07:49Z</time>
      </trkpt>
      <trkpt lat="42.97004" lon="0.32228">
        <ele>1684.3</ele>
        <time>2026-07-07T08:07:50Z</time>
      </trkpt>
      <trkpt lat="42.97004" lon="0.32227">
        <ele>1684.3</ele>
        <time>2026-07-07T08:07:50Z</time>
      </trkpt>
      <trkpt lat="42.97004" lon="0.32226">
        <ele>1684.3</ele>
        <time>2026-07-07T08:07:51Z</time>
      </trkpt>
      <trkpt lat="42.97003" lon="0.32226">
        <ele>1684.3</ele>
        <time>2026-07-07T08:07:52Z</time>
      </trkpt>
      <trkpt lat="42.97003" lon="0.32226">
        <ele>1684.3</ele>
        <time>2026-07-07T08:07:53Z</time>
      </trkpt>
      <trkpt lat="42.97003" lon="0.32226">
        <ele>1684.3</ele>
        <time>2026-07-07T08:07:54Z</time>
      </trkpt>
      <trkpt lat="42.97003" lon="0.32225">
        <ele>1684.3</ele>
        <time>2026-07-07T08:07:54Z</time>
      </trkpt>
      <trkpt lat="42.97002" lon="0.32225">
        <ele>1684.3</ele>
        <time>2026-07-07T08:07:55Z</time>
      </trkpt>
      <trkpt lat="42.97002" lon="0.32225">
        <ele>1684.3</ele>
        <time>2026-07-07T08:07:55Z</time>
      </trkpt>
      <trkpt lat="42.97002" lon="0.32224">
        <ele>1684.3</ele>
        <time>2026-07-07T08:07:56Z</time>
      </trkpt>
      <trkpt lat="42.97001" lon="0.32223">
        <ele>1684.3</ele>
        <time>2026-07-07T08:07:57Z</time>
      </trkpt>
      <trkpt lat="42.97001" lon="0.32222">
        <ele>1684.3</ele>
        <time>2026-07-07T08:07:58Z</time>
      </trkpt>
      <trkpt lat="42.97001" lon="0.32222">
        <ele>1684.3</ele>
        <time>2026-07-07T08:07:59Z</time>
      </trkpt>
      <trkpt lat="42.97001" lon="0.32221">
        <ele>1685.3</ele>
        <time>2026-07-07T08:08:00Z</time>
      </trkpt>
      <trkpt lat="42.97001" lon="0.32221">
        <ele>1685.3</ele>
        <time>2026-07-07T08:08:00Z</time>
      </trkpt>
      <trkpt lat="42.97" lon="0.3222">
        <ele>1685.3</ele>
        <time>2026-07-07T08:08:01Z</time>
      </trkpt>
      <trkpt lat="42.97" lon="0.3222">
        <ele>1685.3</ele>
        <time>2026-07-07T08:08:02Z</time>
      </trkpt>
      <trkpt lat="42.97" lon="0.32219">
        <ele>1685.3</ele>
        <time>2026-07-07T08:08:03Z</time>
      </trkpt>
      <trkpt lat="42.96999" lon="0.32219">
        <ele>1686.3</ele>
        <time>2026-07-07T08:08:04Z</time>
      </trkpt>
      <trkpt lat="42.96999" lon="0.32218">
        <ele>1686.3</ele>
        <time>2026-07-07T08:08:05Z</time>
      </trkpt>
      <trkpt lat="42.96999" lon="0.32217">
        <ele>1686.3</ele>
        <time>2026-07-07T08:08:06Z</time>
      </trkpt>
      <trkpt lat="42.96999" lon="0.32217">
        <ele>1686.3</ele>
        <time>2026-07-07T08:08:07Z</time>
      </trkpt>
      <trkpt lat="42.96999" lon="0.32216">
        <ele>1686.3</ele>
        <time>2026-07-07T08:08:08Z</time>
      </trkpt>
      <trkpt lat="42.96998" lon="0.32215">
        <ele>1686.3</ele>
        <time>2026-07-07T08:08:09Z</time>
      </trkpt>
      <trkpt lat="42.96998" lon="0.32215">
        <ele>1686.3</ele>
        <time>2026-07-07T08:08:10Z</time>
      </trkpt>
      <trkpt lat="42.96998" lon="0.32215">
        <ele>1686.3</ele>
        <time>2026-07-07T08:08:10Z</time>
      </trkpt>
      <trkpt lat="42.96998" lon="0.32214">
        <ele>1686.3</ele>
        <time>2026-07-07T08:08:11Z</time>
      </trkpt>
      <trkpt lat="42.96997" lon="0.32213">
        <ele>1687.3</ele>
        <time>2026-07-07T08:08:12Z</time>
      </trkpt>
      <trkpt lat="42.96997" lon="0.32212">
        <ele>1687.3</ele>
        <time>2026-07-07T08:08:13Z</time>
      </trkpt>
      <trkpt lat="42.96997" lon="0.32211">
        <ele>1687.3</ele>
        <time>2026-07-07T08:08:14Z</time>
      </trkpt>
      <trkpt lat="42.96997" lon="0.32211">
        <ele>1687.3</ele>
        <time>2026-07-07T08:08:15Z</time>
      </trkpt>
      <trkpt lat="42.96997" lon="0.32211">
        <ele>1687.3</ele>
        <time>2026-07-07T08:08:16Z</time>
      </trkpt>
      <trkpt lat="42.96996" lon="0.32211">
        <ele>1686.3</ele>
        <time>2026-07-07T08:08:17Z</time>
      </trkpt>
      <trkpt lat="42.96996" lon="0.32211">
        <ele>1686.3</ele>
        <time>2026-07-07T08:08:18Z</time>
      </trkpt>
      <trkpt lat="42.96996" lon="0.32211">
        <ele>1687.3</ele>
        <time>2026-07-07T08:08:19Z</time>
      </trkpt>
      <trkpt lat="42.96997" lon="0.32211">
        <ele>1687.3</ele>
        <time>2026-07-07T08:08:20Z</time>
      </trkpt>
      <trkpt lat="42.96997" lon="0.32211">
        <ele>1687.3</ele>
        <time>2026-07-07T08:08:21Z</time>
      </trkpt>
      <trkpt lat="42.96996" lon="0.32211">
        <ele>1687.3</ele>
        <time>2026-07-07T08:08:22Z</time>
      </trkpt>
      <trkpt lat="42.96997" lon="0.32211">
        <ele>1687.3</ele>
        <time>2026-07-07T08:08:23Z</time>
      </trkpt>
      <trkpt lat="42.96996" lon="0.32211">
        <ele>1687.3</ele>
        <time>2026-07-07T08:08:24Z</time>
      </trkpt>
      <trkpt lat="42.96996" lon="0.32211">
        <ele>1687.3</ele>
        <time>2026-07-07T08:08:25Z</time>
      </trkpt>
      <trkpt lat="42.96996" lon="0.3221">
        <ele>1687.3</ele>
        <time>2026-07-07T08:08:26Z</time>
      </trkpt>
      <trkpt lat="42.96996" lon="0.3221">
        <ele>1687.3</ele>
        <time>2026-07-07T08:08:27Z</time>
      </trkpt>
      <trkpt lat="42.96996" lon="0.3221">
        <ele>1688.3</ele>
        <time>2026-07-07T08:08:27Z</time>
      </trkpt>
      <trkpt lat="42.96996" lon="0.3221">
        <ele>1688.3</ele>
        <time>2026-07-07T08:08:28Z</time>
      </trkpt>
      <trkpt lat="42.96995" lon="0.3221">
        <ele>1688.3</ele>
        <time>2026-07-07T08:08:29Z</time>
      </trkpt>
      <trkpt lat="42.96995" lon="0.3221">
        <ele>1688.3</ele>
        <time>2026-07-07T08:08:30Z</time>
      </trkpt>
      <trkpt lat="42.96995" lon="0.3221">
        <ele>1688.3</ele>
        <time>2026-07-07T08:08:31Z</time>
      </trkpt>
      <trkpt lat="42.96995" lon="0.3221">
        <ele>1688.3</ele>
        <time>2026-07-07T08:08:32Z</time>
      </trkpt>
      <trkpt lat="42.96995" lon="0.3221">
        <ele>1688.3</ele>
        <time>2026-07-07T08:08:33Z</time>
      </trkpt>
      <trkpt lat="42.96995" lon="0.3221">
        <ele>1688.3</ele>
        <time>2026-07-07T08:08:34Z</time>
      </trkpt>
      <trkpt lat="42.96995" lon="0.3221">
        <ele>1688.3</ele>
        <time>2026-07-07T08:08:35Z</time>
      </trkpt>
      <trkpt lat="42.96995" lon="0.3221">
        <ele>1688.3</ele>
        <time>2026-07-07T08:08:36Z</time>
      </trkpt>
      <trkpt lat="42.96995" lon="0.3221">
        <ele>1688.3</ele>
        <time>2026-07-07T08:08:37Z</time>
      </trkpt>
      <trkpt lat="42.96995" lon="0.3221">
        <ele>1688.3</ele>
        <time>2026-07-07T08:08:38Z</time>
      </trkpt>
      <trkpt lat="42.96995" lon="0.3221">
        <ele>1688.3</ele>
        <time>2026-07-07T08:08:39Z</time>
      </trkpt>
      <trkpt lat="42.96995" lon="0.3221">
        <ele>1688.3</ele>
        <time>2026-07-07T08:08:40Z</time>
      </trkpt>
      <trkpt lat="42.96995" lon="0.3221">
        <ele>1688.3</ele>
        <time>2026-07-07T08:08:41Z</time>
      </trkpt>
      <trkpt lat="42.96995" lon="0.3221">
        <ele>1688.3</ele>
        <time>2026-07-07T08:08:42Z</time>
      </trkpt>
      <trkpt lat="42.96995" lon="0.3221">
        <ele>1688.3</ele>
        <time>2026-07-07T08:08:43Z</time>
      </trkpt>
      <trkpt lat="42.96995" lon="0.3221">
        <ele>1688.3</ele>
        <time>2026-07-07T08:08:44Z</time>
      </trkpt>
      <trkpt lat="42.96995" lon="0.3221">
        <ele>1688.3</ele>
        <time>2026-07-07T08:08:45Z</time>
      </trkpt>
      <trkpt lat="42.96995" lon="0.3221">
        <ele>1688.3</ele>
        <time>2026-07-07T08:08:46Z</time>
      </trkpt>
      <trkpt lat="42.96995" lon="0.3221">
        <ele>1688.3</ele>
        <time>2026-07-07T08:08:47Z</time>
      </trkpt>
      <trkpt lat="42.96995" lon="0.3221">
        <ele>1688.3</ele>
        <time>2026-07-07T08:08:48Z</time>
      </trkpt>
      <trkpt lat="42.96995" lon="0.3221">
        <ele>1688.3</ele>
        <time>2026-07-07T08:08:49Z</time>
      </trkpt>
      <trkpt lat="42.96995" lon="0.3221">
        <ele>1688.3</ele>
        <time>2026-07-07T08:08:50Z</time>
      </trkpt>
      <trkpt lat="42.96995" lon="0.3221">
        <ele>1688.3</ele>
        <time>2026-07-07T08:08:51Z</time>
      </trkpt>
      <trkpt lat="42.96995" lon="0.3221">
        <ele>1688.3</ele>
        <time>2026-07-07T08:08:52Z</time>
      </trkpt>
      <trkpt lat="42.96995" lon="0.3221">
        <ele>1688.3</ele>
        <time>2026-07-07T08:08:53Z</time>
      </trkpt>
      <trkpt lat="42.96995" lon="0.3221">
        <ele>1688.3</ele>
        <time>2026-07-07T08:08:54Z</time>
      </trkpt>
      <trkpt lat="42.96995" lon="0.3221">
        <ele>1688.3</ele>
        <time>2026-07-07T08:08:55Z</time>
      </trkpt>
      <trkpt lat="42.96995" lon="0.3221">
        <ele>1688.3</ele>
        <time>2026-07-07T08:08:56Z</time>
      </trkpt>
      <trkpt lat="42.96995" lon="0.3221">
        <ele>1688.3</ele>
        <time>2026-07-07T08:08:57Z</time>
      </trkpt>
      <trkpt lat="42.96995" lon="0.3221">
        <ele>1688.3</ele>
        <time>2026-07-07T08:08:58Z</time>
      </trkpt>
      <trkpt lat="42.96995" lon="0.3221">
        <ele>1688.3</ele>
        <time>2026-07-07T08:08:59Z</time>
      </trkpt>
      <trkpt lat="42.96995" lon="0.3221">
        <ele>1688.3</ele>
        <time>2026-07-07T08:09:00Z</time>
      </trkpt>
      <trkpt lat="42.96995" lon="0.3221">
        <ele>1688.3</ele>
        <time>2026-07-07T08:09:01Z</time>
      </trkpt>
      <trkpt lat="42.96995" lon="0.3221">
        <ele>1688.3</ele>
        <time>2026-07-07T08:09:02Z</time>
      </trkpt>
      <trkpt lat="42.96995" lon="0.3221">
        <ele>1688.3</ele>
        <time>2026-07-07T08:09:03Z</time>
      </trkpt>
      <trkpt lat="42.96995" lon="0.3221">
        <ele>1688.3</ele>
        <time>2026-07-07T08:09:04Z</time>
      </trkpt>
      <trkpt lat="42.96995" lon="0.3221">
        <ele>1688.3</ele>
        <time>2026-07-07T08:09:05Z</time>
      </trkpt>
      <trkpt lat="42.96995" lon="0.3221">
        <ele>1688.3</ele>
        <time>2026-07-07T08:09:06Z</time>
      </trkpt>
      <trkpt lat="42.96995" lon="0.3221">
        <ele>1688.3</ele>
        <time>2026-07-07T08:09:07Z</time>
      </trkpt>
      <trkpt lat="42.96995" lon="0.3221">
        <ele>1688.3</ele>
        <time>2026-07-07T08:09:08Z</time>
      </trkpt>
      <trkpt lat="42.96995" lon="0.3221">
        <ele>1688.3</ele>
        <time>2026-07-07T08:09:09Z</time>
      </trkpt>
      <trkpt lat="42.96995" lon="0.3221">
        <ele>1688.3</ele>
        <time>2026-07-07T08:09:10Z</time>
      </trkpt>
      <trkpt lat="42.96995" lon="0.3221">
        <ele>1688.3</ele>
        <time>2026-07-07T08:09:11Z</time>
      </trkpt>
      <trkpt lat="42.96995" lon="0.3221">
        <ele>1688.3</ele>
        <time>2026-07-07T08:09:12Z</time>
      </trkpt>
      <trkpt lat="42.96995" lon="0.3221">
        <ele>1688.3</ele>
        <time>2026-07-07T08:09:13Z</time>
      </trkpt>
      <trkpt lat="42.96995" lon="0.3221">
        <ele>1688.3</ele>
        <time>2026-07-07T08:09:14Z</time>
      </trkpt>
      <trkpt lat="42.96995" lon="0.3221">
        <ele>1688.3</ele>
        <time>2026-07-07T08:09:15Z</time>
      </trkpt>
      <trkpt lat="42.96995" lon="0.3221">
        <ele>1689.3</ele>
        <time>2026-07-07T08:09:16Z</time>
      </trkpt>
      <trkpt lat="42.96995" lon="0.3221">
        <ele>1689.3</ele>
        <time>2026-07-07T08:09:17Z</time>
      </trkpt>
      <trkpt lat="42.96995" lon="0.3221">
        <ele>1689.3</ele>
        <time>2026-07-07T08:09:17Z</time>
      </trkpt>
      <trkpt lat="42.96995" lon="0.32209">
        <ele>1689.3</ele>
        <time>2026-07-07T08:09:18Z</time>
      </trkpt>
      <trkpt lat="42.96995" lon="0.32209">
        <ele>1689.3</ele>
        <time>2026-07-07T08:09:19Z</time>
      </trkpt>
      <trkpt lat="42.96995" lon="0.32209">
        <ele>1689.3</ele>
        <time>2026-07-07T08:09:19Z</time>
      </trkpt>
      <trkpt lat="42.96995" lon="0.32209">
        <ele>1689.3</ele>
        <time>2026-07-07T08:09:20Z</time>
      </trkpt>
      <trkpt lat="42.96995" lon="0.32209">
        <ele>1689.3</ele>
        <time>2026-07-07T08:09:21Z</time>
      </trkpt>
      <trkpt lat="42.96995" lon="0.32209">
        <ele>1689.3</ele>
        <time>2026-07-07T08:09:21Z</time>
      </trkpt>
      <trkpt lat="42.96995" lon="0.32209">
        <ele>1689.3</ele>
        <time>2026-07-07T08:09:22Z</time>
      </trkpt>
      <trkpt lat="42.96995" lon="0.32209">
        <ele>1689.3</ele>
        <time>2026-07-07T08:09:23Z</time>
      </trkpt>
      <trkpt lat="42.96995" lon="0.32209">
        <ele>1689.3</ele>
        <time>2026-07-07T08:09:24Z</time>
      </trkpt>
      <trkpt lat="42.96995" lon="0.32208">
        <ele>1689.3</ele>
        <time>2026-07-07T08:09:24Z</time>
      </trkpt>
      <trkpt lat="42.96995" lon="0.32208">
        <ele>1689.3</ele>
        <time>2026-07-07T08:09:25Z</time>
      </trkpt>
      <trkpt lat="42.96995" lon="0.32208">
        <ele>1690.3</ele>
        <time>2026-07-07T08:09:26Z</time>
      </trkpt>
      <trkpt lat="42.96995" lon="0.32207">
        <ele>1690.3</ele>
        <time>2026-07-07T08:09:27Z</time>
      </trkpt>
      <trkpt lat="42.96995" lon="0.32207">
        <ele>1690.3</ele>
        <time>2026-07-07T08:09:27Z</time>
      </trkpt>
      <trkpt lat="42.96995" lon="0.32205">
        <ele>1690.3</ele>
        <time>2026-07-07T08:09:28Z</time>
      </trkpt>
      <trkpt lat="42.96995" lon="0.32204">
        <ele>1690.3</ele>
        <time>2026-07-07T08:09:29Z</time>
      </trkpt>
      <trkpt lat="42.96996" lon="0.32203">
        <ele>1691.3</ele>
        <time>2026-07-07T08:09:30Z</time>
      </trkpt>
      <trkpt lat="42.96996" lon="0.32202">
        <ele>1691.3</ele>
        <time>2026-07-07T08:09:31Z</time>
      </trkpt>
      <trkpt lat="42.96996" lon="0.32201">
        <ele>1691.3</ele>
        <time>2026-07-07T08:09:31Z</time>
      </trkpt>
      <trkpt lat="42.96996" lon="0.322">
        <ele>1691.3</ele>
        <time>2026-07-07T08:09:32Z</time>
      </trkpt>
      <trkpt lat="42.96997" lon="0.32199">
        <ele>1691.3</ele>
        <time>2026-07-07T08:09:33Z</time>
      </trkpt>
      <trkpt lat="42.96997" lon="0.32198">
        <ele>1691.3</ele>
        <time>2026-07-07T08:09:34Z</time>
      </trkpt>
      <trkpt lat="42.96996" lon="0.32197">
        <ele>1692.3</ele>
        <time>2026-07-07T08:09:35Z</time>
      </trkpt>
      <trkpt lat="42.96996" lon="0.32197">
        <ele>1692.3</ele>
        <time>2026-07-07T08:09:36Z</time>
      </trkpt>
      <trkpt lat="42.96996" lon="0.32197">
        <ele>1691.3</ele>
        <time>2026-07-07T08:09:36Z</time>
      </trkpt>
      <trkpt lat="42.96994" lon="0.32197">
        <ele>1692.3</ele>
        <time>2026-07-07T08:09:37Z</time>
      </trkpt>
      <trkpt lat="42.96994" lon="0.32196">
        <ele>1693.3</ele>
        <time>2026-07-07T08:09:38Z</time>
      </trkpt>
      <trkpt lat="42.96994" lon="0.32195">
        <ele>1693.3</ele>
        <time>2026-07-07T08:09:39Z</time>
      </trkpt>
      <trkpt lat="42.96994" lon="0.32195">
        <ele>1693.3</ele>
        <time>2026-07-07T08:09:40Z</time>
      </trkpt>
      <trkpt lat="42.96994" lon="0.32195">
        <ele>1693.3</ele>
        <time>2026-07-07T08:09:41Z</time>
      </trkpt>
      <trkpt lat="42.96994" lon="0.32195">
        <ele>1693.3</ele>
        <time>2026-07-07T08:09:42Z</time>
      </trkpt>
      <trkpt lat="42.96994" lon="0.32195">
        <ele>1693.3</ele>
        <time>2026-07-07T08:09:43Z</time>
      </trkpt>
      <trkpt lat="42.96994" lon="0.32195">
        <ele>1693.3</ele>
        <time>2026-07-07T08:09:44Z</time>
      </trkpt>
      <trkpt lat="42.96994" lon="0.32195">
        <ele>1693.3</ele>
        <time>2026-07-07T08:09:45Z</time>
      </trkpt>
      <trkpt lat="42.96993" lon="0.32193">
        <ele>1693.3</ele>
        <time>2026-07-07T08:09:46Z</time>
      </trkpt>
      <trkpt lat="42.96993" lon="0.32193">
        <ele>1693.3</ele>
        <time>2026-07-07T08:09:47Z</time>
      </trkpt>
      <trkpt lat="42.96993" lon="0.32192">
        <ele>1693.3</ele>
        <time>2026-07-07T08:09:48Z</time>
      </trkpt>
      <trkpt lat="42.96992" lon="0.32192">
        <ele>1692.3</ele>
        <time>2026-07-07T08:09:49Z</time>
      </trkpt>
      <trkpt lat="42.96992" lon="0.32192">
        <ele>1692.3</ele>
        <time>2026-07-07T08:09:50Z</time>
      </trkpt>
      <trkpt lat="42.96992" lon="0.32191">
        <ele>1693.3</ele>
        <time>2026-07-07T08:09:51Z</time>
      </trkpt>
      <trkpt lat="42.96992" lon="0.32191">
        <ele>1693.3</ele>
        <time>2026-07-07T08:09:52Z</time>
      </trkpt>
      <trkpt lat="42.96992" lon="0.32191">
        <ele>1693.3</ele>
        <time>2026-07-07T08:09:53Z</time>
      </trkpt>
      <trkpt lat="42.96992" lon="0.3219">
        <ele>1693.3</ele>
        <time>2026-07-07T08:09:54Z</time>
      </trkpt>
      <trkpt lat="42.96993" lon="0.32189">
        <ele>1693.3</ele>
        <time>2026-07-07T08:09:55Z</time>
      </trkpt>
      <trkpt lat="42.96993" lon="0.32189">
        <ele>1693.3</ele>
        <time>2026-07-07T08:09:56Z</time>
      </trkpt>
      <trkpt lat="42.96993" lon="0.32188">
        <ele>1694.3</ele>
        <time>2026-07-07T08:09:57Z</time>
      </trkpt>
      <trkpt lat="42.96993" lon="0.32187">
        <ele>1694.3</ele>
        <time>2026-07-07T08:09:58Z</time>
      </trkpt>
      <trkpt lat="42.96993" lon="0.32185">
        <ele>1695.3</ele>
        <time>2026-07-07T08:09:59Z</time>
      </trkpt>
      <trkpt lat="42.96992" lon="0.32185">
        <ele>1695.3</ele>
        <time>2026-07-07T08:10:00Z</time>
      </trkpt>
      <trkpt lat="42.96991" lon="0.32185">
        <ele>1694.3</ele>
        <time>2026-07-07T08:10:01Z</time>
      </trkpt>
      <trkpt lat="42.96991" lon="0.32185">
        <ele>1694.3</ele>
        <time>2026-07-07T08:10:02Z</time>
      </trkpt>
      <trkpt lat="42.96991" lon="0.32184">
        <ele>1695.3</ele>
        <time>2026-07-07T08:10:03Z</time>
      </trkpt>
      <trkpt lat="42.96991" lon="0.32183">
        <ele>1695.3</ele>
        <time>2026-07-07T08:10:04Z</time>
      </trkpt>
      <trkpt lat="42.9699" lon="0.32182">
        <ele>1695.3</ele>
        <time>2026-07-07T08:10:05Z</time>
      </trkpt>
      <trkpt lat="42.9699" lon="0.32182">
        <ele>1695.3</ele>
        <time>2026-07-07T08:10:06Z</time>
      </trkpt>
      <trkpt lat="42.9699" lon="0.32182">
        <ele>1695.3</ele>
        <time>2026-07-07T08:10:07Z</time>
      </trkpt>
      <trkpt lat="42.9699" lon="0.32181">
        <ele>1696.3</ele>
        <time>2026-07-07T08:10:08Z</time>
      </trkpt>
      <trkpt lat="42.9699" lon="0.3218">
        <ele>1696.3</ele>
        <time>2026-07-07T08:10:09Z</time>
      </trkpt>
      <trkpt lat="42.9699" lon="0.32179">
        <ele>1695.3</ele>
        <time>2026-07-07T08:10:10Z</time>
      </trkpt>
      <trkpt lat="42.9699" lon="0.32178">
        <ele>1695.3</ele>
        <time>2026-07-07T08:10:11Z</time>
      </trkpt>
      <trkpt lat="42.9699" lon="0.32177">
        <ele>1695.3</ele>
        <time>2026-07-07T08:10:12Z</time>
      </trkpt>
      <trkpt lat="42.9699" lon="0.32176">
        <ele>1694.3</ele>
        <time>2026-07-07T08:10:13Z</time>
      </trkpt>
      <trkpt lat="42.96989" lon="0.32176">
        <ele>1695.3</ele>
        <time>2026-07-07T08:10:14Z</time>
      </trkpt>
      <trkpt lat="42.96989" lon="0.32175">
        <ele>1696.3</ele>
        <time>2026-07-07T08:10:15Z</time>
      </trkpt>
      <trkpt lat="42.96989" lon="0.32174">
        <ele>1696.3</ele>
        <time>2026-07-07T08:10:16Z</time>
      </trkpt>
      <trkpt lat="42.96989" lon="0.32174">
        <ele>1697.3</ele>
        <time>2026-07-07T08:10:17Z</time>
      </trkpt>
      <trkpt lat="42.96989" lon="0.32173">
        <ele>1697.3</ele>
        <time>2026-07-07T08:10:18Z</time>
      </trkpt>
      <trkpt lat="42.96987" lon="0.32173">
        <ele>1697.3</ele>
        <time>2026-07-07T08:10:19Z</time>
      </trkpt>
      <trkpt lat="42.96986" lon="0.32172">
        <ele>1697.3</ele>
        <time>2026-07-07T08:10:20Z</time>
      </trkpt>
      <trkpt lat="42.96985" lon="0.32171">
        <ele>1697.3</ele>
        <time>2026-07-07T08:10:21Z</time>
      </trkpt>
      <trkpt lat="42.96985" lon="0.3217">
        <ele>1697.3</ele>
        <time>2026-07-07T08:10:22Z</time>
      </trkpt>
      <trkpt lat="42.96984" lon="0.3217">
        <ele>1697.3</ele>
        <time>2026-07-07T08:10:23Z</time>
      </trkpt>
      <trkpt lat="42.96984" lon="0.3217">
        <ele>1698.3</ele>
        <time>2026-07-07T08:10:24Z</time>
      </trkpt>
      <trkpt lat="42.96983" lon="0.32169">
        <ele>1697.3</ele>
        <time>2026-07-07T08:10:25Z</time>
      </trkpt>
      <trkpt lat="42.96982" lon="0.32169">
        <ele>1698.3</ele>
        <time>2026-07-07T08:10:26Z</time>
      </trkpt>
      <trkpt lat="42.96982" lon="0.32168">
        <ele>1698.3</ele>
        <time>2026-07-07T08:10:27Z</time>
      </trkpt>
      <trkpt lat="42.96982" lon="0.32168">
        <ele>1697.3</ele>
        <time>2026-07-07T08:10:28Z</time>
      </trkpt>
      <trkpt lat="42.96982" lon="0.32167">
        <ele>1697.3</ele>
        <time>2026-07-07T08:10:29Z</time>
      </trkpt>
      <trkpt lat="42.96981" lon="0.32167">
        <ele>1697.3</ele>
        <time>2026-07-07T08:10:30Z</time>
      </trkpt>
      <trkpt lat="42.9698" lon="0.32166">
        <ele>1697.3</ele>
        <time>2026-07-07T08:10:31Z</time>
      </trkpt>
      <trkpt lat="42.9698" lon="0.32165">
        <ele>1697.3</ele>
        <time>2026-07-07T08:10:32Z</time>
      </trkpt>
      <trkpt lat="42.9698" lon="0.32164">
        <ele>1698.3</ele>
        <time>2026-07-07T08:10:33Z</time>
      </trkpt>
      <trkpt lat="42.96979" lon="0.32164">
        <ele>1698.3</ele>
        <time>2026-07-07T08:10:34Z</time>
      </trkpt>
      <trkpt lat="42.96979" lon="0.32163">
        <ele>1698.3</ele>
        <time>2026-07-07T08:10:35Z</time>
      </trkpt>
      <trkpt lat="42.96979" lon="0.32162">
        <ele>1698.3</ele>
        <time>2026-07-07T08:10:36Z</time>
      </trkpt>
      <trkpt lat="42.96978" lon="0.32161">
        <ele>1699.3</ele>
        <time>2026-07-07T08:10:37Z</time>
      </trkpt>
      <trkpt lat="42.96978" lon="0.32161">
        <ele>1698.3</ele>
        <time>2026-07-07T08:10:38Z</time>
      </trkpt>
      <trkpt lat="42.96978" lon="0.32161">
        <ele>1698.3</ele>
        <time>2026-07-07T08:10:39Z</time>
      </trkpt>
      <trkpt lat="42.96978" lon="0.3216">
        <ele>1698.3</ele>
        <time>2026-07-07T08:10:40Z</time>
      </trkpt>
      <trkpt lat="42.96978" lon="0.3216">
        <ele>1698.3</ele>
        <time>2026-07-07T08:10:41Z</time>
      </trkpt>
      <trkpt lat="42.96977" lon="0.3216">
        <ele>1698.3</ele>
        <time>2026-07-07T08:10:42Z</time>
      </trkpt>
      <trkpt lat="42.96977" lon="0.32158">
        <ele>1699.3</ele>
        <time>2026-07-07T08:10:43Z</time>
      </trkpt>
      <trkpt lat="42.96977" lon="0.32157">
        <ele>1699.3</ele>
        <time>2026-07-07T08:10:44Z</time>
      </trkpt>
      <trkpt lat="42.96977" lon="0.32156">
        <ele>1699.3</ele>
        <time>2026-07-07T08:10:45Z</time>
      </trkpt>
      <trkpt lat="42.96977" lon="0.32155">
        <ele>1699.3</ele>
        <time>2026-07-07T08:10:46Z</time>
      </trkpt>
      <trkpt lat="42.96977" lon="0.32155">
        <ele>1699.3</ele>
        <time>2026-07-07T08:10:47Z</time>
      </trkpt>
      <trkpt lat="42.96976" lon="0.32155">
        <ele>1700.3</ele>
        <time>2026-07-07T08:10:48Z</time>
      </trkpt>
      <trkpt lat="42.96976" lon="0.32155">
        <ele>1700.3</ele>
        <time>2026-07-07T08:10:49Z</time>
      </trkpt>
      <trkpt lat="42.96976" lon="0.32154">
        <ele>1700.3</ele>
        <time>2026-07-07T08:10:50Z</time>
      </trkpt>
      <trkpt lat="42.96976" lon="0.32153">
        <ele>1700.3</ele>
        <time>2026-07-07T08:10:51Z</time>
      </trkpt>
      <trkpt lat="42.96976" lon="0.32152">
        <ele>1700.3</ele>
        <time>2026-07-07T08:10:52Z</time>
      </trkpt>
      <trkpt lat="42.96976" lon="0.32151">
        <ele>1701.3</ele>
        <time>2026-07-07T08:10:53Z</time>
      </trkpt>
      <trkpt lat="42.96976" lon="0.3215">
        <ele>1702.3</ele>
        <time>2026-07-07T08:10:54Z</time>
      </trkpt>
      <trkpt lat="42.96976" lon="0.3215">
        <ele>1703.3</ele>
        <time>2026-07-07T08:10:55Z</time>
      </trkpt>
      <trkpt lat="42.96976" lon="0.3215">
        <ele>1703.3</ele>
        <time>2026-07-07T08:10:56Z</time>
      </trkpt>
      <trkpt lat="42.96976" lon="0.3215">
        <ele>1703.3</ele>
        <time>2026-07-07T08:10:57Z</time>
      </trkpt>
      <trkpt lat="42.96975" lon="0.32149">
        <ele>1703.3</ele>
        <time>2026-07-07T08:10:58Z</time>
      </trkpt>
      <trkpt lat="42.96975" lon="0.32149">
        <ele>1704.3</ele>
        <time>2026-07-07T08:10:59Z</time>
      </trkpt>
      <trkpt lat="42.96975" lon="0.32149">
        <ele>1704.3</ele>
        <time>2026-07-07T08:11:00Z</time>
      </trkpt>
      <trkpt lat="42.96975" lon="0.32148">
        <ele>1704.3</ele>
        <time>2026-07-07T08:11:01Z</time>
      </trkpt>
      <trkpt lat="42.96975" lon="0.32148">
        <ele>1704.3</ele>
        <time>2026-07-07T08:11:02Z</time>
      </trkpt>
      <trkpt lat="42.96975" lon="0.32148">
        <ele>1704.3</ele>
        <time>2026-07-07T08:11:03Z</time>
      </trkpt>
      <trkpt lat="42.96975" lon="0.32147">
        <ele>1704.3</ele>
        <time>2026-07-07T08:11:04Z</time>
      </trkpt>
      <trkpt lat="42.96975" lon="0.32146">
        <ele>1704.3</ele>
        <time>2026-07-07T08:11:05Z</time>
      </trkpt>
      <trkpt lat="42.96975" lon="0.32145">
        <ele>1704.3</ele>
        <time>2026-07-07T08:11:06Z</time>
      </trkpt>
      <trkpt lat="42.96975" lon="0.32144">
        <ele>1704.3</ele>
        <time>2026-07-07T08:11:07Z</time>
      </trkpt>
      <trkpt lat="42.96975" lon="0.32144">
        <ele>1704.3</ele>
        <time>2026-07-07T08:11:08Z</time>
      </trkpt>
      <trkpt lat="42.96975" lon="0.32143">
        <ele>1704.3</ele>
        <time>2026-07-07T08:11:09Z</time>
      </trkpt>
      <trkpt lat="42.96975" lon="0.32142">
        <ele>1704.3</ele>
        <time>2026-07-07T08:11:10Z</time>
      </trkpt>
      <trkpt lat="42.96975" lon="0.32142">
        <ele>1704.3</ele>
        <time>2026-07-07T08:11:11Z</time>
      </trkpt>
      <trkpt lat="42.96975" lon="0.32142">
        <ele>1704.3</ele>
        <time>2026-07-07T08:11:12Z</time>
      </trkpt>
      <trkpt lat="42.96975" lon="0.32141">
        <ele>1706.3</ele>
        <time>2026-07-07T08:11:13Z</time>
      </trkpt>
      <trkpt lat="42.96976" lon="0.3214">
        <ele>1705.3</ele>
        <time>2026-07-07T08:11:14Z</time>
      </trkpt>
      <trkpt lat="42.96976" lon="0.32139">
        <ele>1705.3</ele>
        <time>2026-07-07T08:11:15Z</time>
      </trkpt>
      <trkpt lat="42.96976" lon="0.32138">
        <ele>1705.3</ele>
        <time>2026-07-07T08:11:16Z</time>
      </trkpt>
      <trkpt lat="42.96977" lon="0.32138">
        <ele>1705.3</ele>
        <time>2026-07-07T08:11:17Z</time>
      </trkpt>
      <trkpt lat="42.96976" lon="0.32137">
        <ele>1706.3</ele>
        <time>2026-07-07T08:11:18Z</time>
      </trkpt>
      <trkpt lat="42.96976" lon="0.32136">
        <ele>1707.3</ele>
        <time>2026-07-07T08:11:19Z</time>
      </trkpt>
      <trkpt lat="42.96976" lon="0.32135">
        <ele>1707.3</ele>
        <time>2026-07-07T08:11:20Z</time>
      </trkpt>
      <trkpt lat="42.96976" lon="0.32135">
        <ele>1707.3</ele>
        <time>2026-07-07T08:11:21Z</time>
      </trkpt>
      <trkpt lat="42.96977" lon="0.32132">
        <ele>1707.3</ele>
        <time>2026-07-07T08:11:22Z</time>
      </trkpt>
      <trkpt lat="42.96977" lon="0.32131">
        <ele>1708.3</ele>
        <time>2026-07-07T08:11:23Z</time>
      </trkpt>
      <trkpt lat="42.96977" lon="0.32131">
        <ele>1708.3</ele>
        <time>2026-07-07T08:11:23Z</time>
      </trkpt>
      <trkpt lat="42.96977" lon="0.3213">
        <ele>1708.3</ele>
        <time>2026-07-07T08:11:24Z</time>
      </trkpt>
      <trkpt lat="42.96976" lon="0.32129">
        <ele>1708.3</ele>
        <time>2026-07-07T08:11:25Z</time>
      </trkpt>
      <trkpt lat="42.96976" lon="0.32129">
        <ele>1708.3</ele>
        <time>2026-07-07T08:11:26Z</time>
      </trkpt>
      <trkpt lat="42.96976" lon="0.32128">
        <ele>1708.3</ele>
        <time>2026-07-07T08:11:27Z</time>
      </trkpt>
      <trkpt lat="42.96975" lon="0.32127">
        <ele>1708.3</ele>
        <time>2026-07-07T08:11:28Z</time>
      </trkpt>
      <trkpt lat="42.96975" lon="0.32127">
        <ele>1709.3</ele>
        <time>2026-07-07T08:11:29Z</time>
      </trkpt>
      <trkpt lat="42.96976" lon="0.32126">
        <ele>1709.3</ele>
        <time>2026-07-07T08:11:29Z</time>
      </trkpt>
      <trkpt lat="42.96976" lon="0.32125">
        <ele>1709.3</ele>
        <time>2026-07-07T08:11:30Z</time>
      </trkpt>
      <trkpt lat="42.96976" lon="0.32124">
        <ele>1709.3</ele>
        <time>2026-07-07T08:11:31Z</time>
      </trkpt>
      <trkpt lat="42.96976" lon="0.32123">
        <ele>1709.3</ele>
        <time>2026-07-07T08:11:32Z</time>
      </trkpt>
      <trkpt lat="42.96976" lon="0.32123">
        <ele>1709.3</ele>
        <time>2026-07-07T08:11:33Z</time>
      </trkpt>
      <trkpt lat="42.96976" lon="0.32123">
        <ele>1709.3</ele>
        <time>2026-07-07T08:11:34Z</time>
      </trkpt>
      <trkpt lat="42.96976" lon="0.32123">
        <ele>1709.3</ele>
        <time>2026-07-07T08:11:35Z</time>
      </trkpt>
      <trkpt lat="42.96976" lon="0.32122">
        <ele>1710.3</ele>
        <time>2026-07-07T08:11:35Z</time>
      </trkpt>
      <trkpt lat="42.96976" lon="0.32121">
        <ele>1710.3</ele>
        <time>2026-07-07T08:11:36Z</time>
      </trkpt>
      <trkpt lat="42.96976" lon="0.3212">
        <ele>1711.3</ele>
        <time>2026-07-07T08:11:37Z</time>
      </trkpt>
      <trkpt lat="42.96977" lon="0.3212">
        <ele>1710.3</ele>
        <time>2026-07-07T08:11:38Z</time>
      </trkpt>
      <trkpt lat="42.96977" lon="0.3212">
        <ele>1710.3</ele>
        <time>2026-07-07T08:11:39Z</time>
      </trkpt>
      <trkpt lat="42.96977" lon="0.3212">
        <ele>1710.3</ele>
        <time>2026-07-07T08:11:39Z</time>
      </trkpt>
      <trkpt lat="42.96978" lon="0.32119">
        <ele>1710.3</ele>
        <time>2026-07-07T08:11:40Z</time>
      </trkpt>
      <trkpt lat="42.96978" lon="0.32118">
        <ele>1710.3</ele>
        <time>2026-07-07T08:11:41Z</time>
      </trkpt>
      <trkpt lat="42.96978" lon="0.32118">
        <ele>1710.3</ele>
        <time>2026-07-07T08:11:41Z</time>
      </trkpt>
      <trkpt lat="42.96978" lon="0.32117">
        <ele>1710.3</ele>
        <time>2026-07-07T08:11:42Z</time>
      </trkpt>
      <trkpt lat="42.96978" lon="0.32117">
        <ele>1710.3</ele>
        <time>2026-07-07T08:11:43Z</time>
      </trkpt>
      <trkpt lat="42.96978" lon="0.32116">
        <ele>1711.3</ele>
        <time>2026-07-07T08:11:44Z</time>
      </trkpt>
      <trkpt lat="42.96979" lon="0.32116">
        <ele>1711.3</ele>
        <time>2026-07-07T08:11:45Z</time>
      </trkpt>
      <trkpt lat="42.96979" lon="0.32115">
        <ele>1711.3</ele>
        <time>2026-07-07T08:11:45Z</time>
      </trkpt>
      <trkpt lat="42.96979" lon="0.32115">
        <ele>1711.3</ele>
        <time>2026-07-07T08:11:46Z</time>
      </trkpt>
      <trkpt lat="42.96979" lon="0.32114">
        <ele>1711.3</ele>
        <time>2026-07-07T08:11:47Z</time>
      </trkpt>
      <trkpt lat="42.96979" lon="0.32114">
        <ele>1710.3</ele>
        <time>2026-07-07T08:11:48Z</time>
      </trkpt>
      <trkpt lat="42.96979" lon="0.32112">
        <ele>1710.3</ele>
        <time>2026-07-07T08:11:49Z</time>
      </trkpt>
      <trkpt lat="42.96979" lon="0.32112">
        <ele>1710.3</ele>
        <time>2026-07-07T08:11:50Z</time>
      </trkpt>
      <trkpt lat="42.96979" lon="0.32111">
        <ele>1710.3</ele>
        <time>2026-07-07T08:11:51Z</time>
      </trkpt>
      <trkpt lat="42.96979" lon="0.32111">
        <ele>1710.3</ele>
        <time>2026-07-07T08:11:51Z</time>
      </trkpt>
      <trkpt lat="42.96979" lon="0.3211">
        <ele>1710.3</ele>
        <time>2026-07-07T08:11:52Z</time>
      </trkpt>
      <trkpt lat="42.96979" lon="0.32109">
        <ele>1711.3</ele>
        <time>2026-07-07T08:11:53Z</time>
      </trkpt>
      <trkpt lat="42.96979" lon="0.32108">
        <ele>1711.3</ele>
        <time>2026-07-07T08:11:54Z</time>
      </trkpt>
      <trkpt lat="42.96979" lon="0.32108">
        <ele>1711.3</ele>
        <time>2026-07-07T08:11:55Z</time>
      </trkpt>
      <trkpt lat="42.96979" lon="0.32107">
        <ele>1711.3</ele>
        <time>2026-07-07T08:11:56Z</time>
      </trkpt>
      <trkpt lat="42.96979" lon="0.32107">
        <ele>1711.3</ele>
        <time>2026-07-07T08:11:57Z</time>
      </trkpt>
      <trkpt lat="42.96979" lon="0.32106">
        <ele>1712.3</ele>
        <time>2026-07-07T08:11:58Z</time>
      </trkpt>
      <trkpt lat="42.96979" lon="0.32106">
        <ele>1712.3</ele>
        <time>2026-07-07T08:11:59Z</time>
      </trkpt>
      <trkpt lat="42.96979" lon="0.32105">
        <ele>1712.3</ele>
        <time>2026-07-07T08:12:00Z</time>
      </trkpt>
      <trkpt lat="42.96979" lon="0.32105">
        <ele>1712.3</ele>
        <time>2026-07-07T08:12:01Z</time>
      </trkpt>
      <trkpt lat="42.96979" lon="0.32105">
        <ele>1713.3</ele>
        <time>2026-07-07T08:12:01Z</time>
      </trkpt>
      <trkpt lat="42.9698" lon="0.32105">
        <ele>1713.3</ele>
        <time>2026-07-07T08:12:02Z</time>
      </trkpt>
      <trkpt lat="42.9698" lon="0.32104">
        <ele>1713.3</ele>
        <time>2026-07-07T08:12:03Z</time>
      </trkpt>
      <trkpt lat="42.9698" lon="0.32104">
        <ele>1713.3</ele>
        <time>2026-07-07T08:12:04Z</time>
      </trkpt>
      <trkpt lat="42.9698" lon="0.32103">
        <ele>1713.3</ele>
        <time>2026-07-07T08:12:05Z</time>
      </trkpt>
      <trkpt lat="42.9698" lon="0.32103">
        <ele>1713.3</ele>
        <time>2026-07-07T08:12:06Z</time>
      </trkpt>
      <trkpt lat="42.9698" lon="0.32102">
        <ele>1713.3</ele>
        <time>2026-07-07T08:12:07Z</time>
      </trkpt>
      <trkpt lat="42.96981" lon="0.32101">
        <ele>1713.3</ele>
        <time>2026-07-07T08:12:08Z</time>
      </trkpt>
      <trkpt lat="42.96981" lon="0.321">
        <ele>1713.3</ele>
        <time>2026-07-07T08:12:09Z</time>
      </trkpt>
      <trkpt lat="42.96981" lon="0.32099">
        <ele>1713.3</ele>
        <time>2026-07-07T08:12:10Z</time>
      </trkpt>
      <trkpt lat="42.96981" lon="0.32098">
        <ele>1714.3</ele>
        <time>2026-07-07T08:12:11Z</time>
      </trkpt>
      <trkpt lat="42.96981" lon="0.32097">
        <ele>1714.3</ele>
        <time>2026-07-07T08:12:11Z</time>
      </trkpt>
      <trkpt lat="42.96981" lon="0.32097">
        <ele>1714.3</ele>
        <time>2026-07-07T08:12:12Z</time>
      </trkpt>
      <trkpt lat="42.9698" lon="0.32096">
        <ele>1714.3</ele>
        <time>2026-07-07T08:12:13Z</time>
      </trkpt>
      <trkpt lat="42.9698" lon="0.32095">
        <ele>1714.3</ele>
        <time>2026-07-07T08:12:14Z</time>
      </trkpt>
      <trkpt lat="42.96979" lon="0.32094">
        <ele>1714.3</ele>
        <time>2026-07-07T08:12:15Z</time>
      </trkpt>
      <trkpt lat="42.96979" lon="0.32093">
        <ele>1715.3</ele>
        <time>2026-07-07T08:12:16Z</time>
      </trkpt>
      <trkpt lat="42.96979" lon="0.32092">
        <ele>1715.3</ele>
        <time>2026-07-07T08:12:17Z</time>
      </trkpt>
      <trkpt lat="42.96979" lon="0.32092">
        <ele>1715.3</ele>
        <time>2026-07-07T08:12:17Z</time>
      </trkpt>
      <trkpt lat="42.96978" lon="0.32091">
        <ele>1714.3</ele>
        <time>2026-07-07T08:12:18Z</time>
      </trkpt>
      <trkpt lat="42.96979" lon="0.3209">
        <ele>1714.3</ele>
        <time>2026-07-07T08:12:19Z</time>
      </trkpt>
      <trkpt lat="42.96979" lon="0.3209">
        <ele>1715.3</ele>
        <time>2026-07-07T08:12:20Z</time>
      </trkpt>
      <trkpt lat="42.96979" lon="0.32089">
        <ele>1715.3</ele>
        <time>2026-07-07T08:12:21Z</time>
      </trkpt>
      <trkpt lat="42.96978" lon="0.32089">
        <ele>1715.3</ele>
        <time>2026-07-07T08:12:22Z</time>
      </trkpt>
      <trkpt lat="42.96978" lon="0.32088">
        <ele>1715.3</ele>
        <time>2026-07-07T08:12:23Z</time>
      </trkpt>
      <trkpt lat="42.96978" lon="0.32088">
        <ele>1715.3</ele>
        <time>2026-07-07T08:12:24Z</time>
      </trkpt>
      <trkpt lat="42.96978" lon="0.32088">
        <ele>1715.3</ele>
        <time>2026-07-07T08:12:24Z</time>
      </trkpt>
      <trkpt lat="42.96978" lon="0.32087">
        <ele>1716.3</ele>
        <time>2026-07-07T08:12:25Z</time>
      </trkpt>
      <trkpt lat="42.96977" lon="0.32086">
        <ele>1716.3</ele>
        <time>2026-07-07T08:12:26Z</time>
      </trkpt>
      <trkpt lat="42.96977" lon="0.32086">
        <ele>1717.3</ele>
        <time>2026-07-07T08:12:27Z</time>
      </trkpt>
      <trkpt lat="42.96976" lon="0.32086">
        <ele>1717.3</ele>
        <time>2026-07-07T08:12:28Z</time>
      </trkpt>
      <trkpt lat="42.96976" lon="0.32086">
        <ele>1717.3</ele>
        <time>2026-07-07T08:12:29Z</time>
      </trkpt>
      <trkpt lat="42.96976" lon="0.32085">
        <ele>1717.3</ele>
        <time>2026-07-07T08:12:30Z</time>
      </trkpt>
      <trkpt lat="42.96976" lon="0.32084">
        <ele>1717.3</ele>
        <time>2026-07-07T08:12:31Z</time>
      </trkpt>
      <trkpt lat="42.96976" lon="0.32083">
        <ele>1717.3</ele>
        <time>2026-07-07T08:12:32Z</time>
      </trkpt>
      <trkpt lat="42.96976" lon="0.32083">
        <ele>1717.3</ele>
        <time>2026-07-07T08:12:32Z</time>
      </trkpt>
      <trkpt lat="42.96976" lon="0.32082">
        <ele>1717.3</ele>
        <time>2026-07-07T08:12:33Z</time>
      </trkpt>
      <trkpt lat="42.96976" lon="0.3208">
        <ele>1717.3</ele>
        <time>2026-07-07T08:12:34Z</time>
      </trkpt>
      <trkpt lat="42.96976" lon="0.3208">
        <ele>1716.3</ele>
        <time>2026-07-07T08:12:35Z</time>
      </trkpt>
      <trkpt lat="42.96976" lon="0.32079">
        <ele>1716.3</ele>
        <time>2026-07-07T08:12:36Z</time>
      </trkpt>
      <trkpt lat="42.96976" lon="0.32078">
        <ele>1716.3</ele>
        <time>2026-07-07T08:12:37Z</time>
      </trkpt>
      <trkpt lat="42.96976" lon="0.32077">
        <ele>1716.3</ele>
        <time>2026-07-07T08:12:37Z</time>
      </trkpt>
      <trkpt lat="42.96975" lon="0.32076">
        <ele>1716.3</ele>
        <time>2026-07-07T08:12:38Z</time>
      </trkpt>
      <trkpt lat="42.96975" lon="0.32075">
        <ele>1717.3</ele>
        <time>2026-07-07T08:12:39Z</time>
      </trkpt>
      <trkpt lat="42.96975" lon="0.32074">
        <ele>1717.3</ele>
        <time>2026-07-07T08:12:40Z</time>
      </trkpt>
      <trkpt lat="42.96976" lon="0.32074">
        <ele>1717.3</ele>
        <time>2026-07-07T08:12:41Z</time>
      </trkpt>
      <trkpt lat="42.96976" lon="0.32073">
        <ele>1718.3</ele>
        <time>2026-07-07T08:12:42Z</time>
      </trkpt>
      <trkpt lat="42.96976" lon="0.32072">
        <ele>1718.3</ele>
        <time>2026-07-07T08:12:42Z</time>
      </trkpt>
      <trkpt lat="42.96976" lon="0.32071">
        <ele>1718.3</ele>
        <time>2026-07-07T08:12:43Z</time>
      </trkpt>
      <trkpt lat="42.96976" lon="0.3207">
        <ele>1718.3</ele>
        <time>2026-07-07T08:12:44Z</time>
      </trkpt>
      <trkpt lat="42.96976" lon="0.3207">
        <ele>1717.3</ele>
        <time>2026-07-07T08:12:45Z</time>
      </trkpt>
      <trkpt lat="42.96976" lon="0.32069">
        <ele>1718.3</ele>
        <time>2026-07-07T08:12:45Z</time>
      </trkpt>
      <trkpt lat="42.96976" lon="0.32068">
        <ele>1717.3</ele>
        <time>2026-07-07T08:12:46Z</time>
      </trkpt>
      <trkpt lat="42.96976" lon="0.32068">
        <ele>1717.3</ele>
        <time>2026-07-07T08:12:47Z</time>
      </trkpt>
      <trkpt lat="42.96976" lon="0.32067">
        <ele>1717.3</ele>
        <time>2026-07-07T08:12:48Z</time>
      </trkpt>
      <trkpt lat="42.96976" lon="0.32066">
        <ele>1717.3</ele>
        <time>2026-07-07T08:12:49Z</time>
      </trkpt>
      <trkpt lat="42.96976" lon="0.32066">
        <ele>1718.3</ele>
        <time>2026-07-07T08:12:50Z</time>
      </trkpt>
      <trkpt lat="42.96976" lon="0.32066">
        <ele>1718.3</ele>
        <time>2026-07-07T08:12:51Z</time>
      </trkpt>
      <trkpt lat="42.96977" lon="0.32066">
        <ele>1719.3</ele>
        <time>2026-07-07T08:12:51Z</time>
      </trkpt>
      <trkpt lat="42.96977" lon="0.32065">
        <ele>1720.3</ele>
        <time>2026-07-07T08:12:52Z</time>
      </trkpt>
      <trkpt lat="42.96977" lon="0.32065">
        <ele>1720.3</ele>
        <time>2026-07-07T08:12:53Z</time>
      </trkpt>
      <trkpt lat="42.96977" lon="0.32064">
        <ele>1720.3</ele>
        <time>2026-07-07T08:12:54Z</time>
      </trkpt>
      <trkpt lat="42.96977" lon="0.32064">
        <ele>1720.3</ele>
        <time>2026-07-07T08:12:55Z</time>
      </trkpt>
      <trkpt lat="42.96977" lon="0.32064">
        <ele>1721.3</ele>
        <time>2026-07-07T08:12:56Z</time>
      </trkpt>
      <trkpt lat="42.96977" lon="0.32063">
        <ele>1722.3</ele>
        <time>2026-07-07T08:12:56Z</time>
      </trkpt>
      <trkpt lat="42.96976" lon="0.32062">
        <ele>1722.3</ele>
        <time>2026-07-07T08:12:57Z</time>
      </trkpt>
      <trkpt lat="42.96976" lon="0.32061">
        <ele>1722.3</ele>
        <time>2026-07-07T08:12:58Z</time>
      </trkpt>
      <trkpt lat="42.96976" lon="0.3206">
        <ele>1722.3</ele>
        <time>2026-07-07T08:12:59Z</time>
      </trkpt>
      <trkpt lat="42.96976" lon="0.3206">
        <ele>1721.3</ele>
        <time>2026-07-07T08:13:00Z</time>
      </trkpt>
      <trkpt lat="42.96976" lon="0.32059">
        <ele>1721.3</ele>
        <time>2026-07-07T08:13:01Z</time>
      </trkpt>
      <trkpt lat="42.96976" lon="0.32058">
        <ele>1722.3</ele>
        <time>2026-07-07T08:13:02Z</time>
      </trkpt>
      <trkpt lat="42.96976" lon="0.32058">
        <ele>1722.3</ele>
        <time>2026-07-07T08:13:02Z</time>
      </trkpt>
      <trkpt lat="42.96976" lon="0.32057">
        <ele>1722.3</ele>
        <time>2026-07-07T08:13:03Z</time>
      </trkpt>
      <trkpt lat="42.96976" lon="0.32056">
        <ele>1723.3</ele>
        <time>2026-07-07T08:13:04Z</time>
      </trkpt>
      <trkpt lat="42.96976" lon="0.32056">
        <ele>1723.3</ele>
        <time>2026-07-07T08:13:05Z</time>
      </trkpt>
      <trkpt lat="42.96976" lon="0.32055">
        <ele>1723.3</ele>
        <time>2026-07-07T08:13:06Z</time>
      </trkpt>
      <trkpt lat="42.96976" lon="0.32054">
        <ele>1723.3</ele>
        <time>2026-07-07T08:13:07Z</time>
      </trkpt>
      <trkpt lat="42.96976" lon="0.32053">
        <ele>1723.3</ele>
        <time>2026-07-07T08:13:08Z</time>
      </trkpt>
      <trkpt lat="42.96976" lon="0.32052">
        <ele>1723.3</ele>
        <time>2026-07-07T08:13:09Z</time>
      </trkpt>
      <trkpt lat="42.96976" lon="0.32051">
        <ele>1723.3</ele>
        <time>2026-07-07T08:13:10Z</time>
      </trkpt>
      <trkpt lat="42.96976" lon="0.32051">
        <ele>1723.3</ele>
        <time>2026-07-07T08:13:11Z</time>
      </trkpt>
      <trkpt lat="42.96976" lon="0.3205">
        <ele>1723.3</ele>
        <time>2026-07-07T08:13:12Z</time>
      </trkpt>
      <trkpt lat="42.96976" lon="0.3205">
        <ele>1723.3</ele>
        <time>2026-07-07T08:13:12Z</time>
      </trkpt>
      <trkpt lat="42.96976" lon="0.32049">
        <ele>1724.3</ele>
        <time>2026-07-07T08:13:13Z</time>
      </trkpt>
      <trkpt lat="42.96976" lon="0.32048">
        <ele>1724.3</ele>
        <time>2026-07-07T08:13:14Z</time>
      </trkpt>
      <trkpt lat="42.96976" lon="0.32048">
        <ele>1725.3</ele>
        <time>2026-07-07T08:13:15Z</time>
      </trkpt>
      <trkpt lat="42.96976" lon="0.32047">
        <ele>1725.3</ele>
        <time>2026-07-07T08:13:16Z</time>
      </trkpt>
      <trkpt lat="42.96976" lon="0.32046">
        <ele>1725.3</ele>
        <time>2026-07-07T08:13:17Z</time>
      </trkpt>
      <trkpt lat="42.96976" lon="0.32045">
        <ele>1725.3</ele>
        <time>2026-07-07T08:13:18Z</time>
      </trkpt>
      <trkpt lat="42.96977" lon="0.32045">
        <ele>1725.3</ele>
        <time>2026-07-07T08:13:19Z</time>
      </trkpt>
      <trkpt lat="42.96977" lon="0.32044">
        <ele>1725.3</ele>
        <time>2026-07-07T08:13:20Z</time>
      </trkpt>
      <trkpt lat="42.96978" lon="0.32043">
        <ele>1725.3</ele>
        <time>2026-07-07T08:13:21Z</time>
      </trkpt>
      <trkpt lat="42.96978" lon="0.32043">
        <ele>1725.3</ele>
        <time>2026-07-07T08:13:22Z</time>
      </trkpt>
      <trkpt lat="42.96979" lon="0.32042">
        <ele>1725.3</ele>
        <time>2026-07-07T08:13:23Z</time>
      </trkpt>
      <trkpt lat="42.96979" lon="0.32042">
        <ele>1726.3</ele>
        <time>2026-07-07T08:13:23Z</time>
      </trkpt>
      <trkpt lat="42.96979" lon="0.32042">
        <ele>1726.3</ele>
        <time>2026-07-07T08:13:24Z</time>
      </trkpt>
      <trkpt lat="42.96979" lon="0.32041">
        <ele>1726.3</ele>
        <time>2026-07-07T08:13:24Z</time>
      </trkpt>
      <trkpt lat="42.9698" lon="0.32041">
        <ele>1726.3</ele>
        <time>2026-07-07T08:13:25Z</time>
      </trkpt>
      <trkpt lat="42.96981" lon="0.32041">
        <ele>1727.3</ele>
        <time>2026-07-07T08:13:26Z</time>
      </trkpt>
      <trkpt lat="42.96981" lon="0.3204">
        <ele>1727.3</ele>
        <time>2026-07-07T08:13:27Z</time>
      </trkpt>
      <trkpt lat="42.96981" lon="0.32039">
        <ele>1727.3</ele>
        <time>2026-07-07T08:13:28Z</time>
      </trkpt>
      <trkpt lat="42.96981" lon="0.32039">
        <ele>1728.3</ele>
        <time>2026-07-07T08:13:29Z</time>
      </trkpt>
      <trkpt lat="42.96981" lon="0.32038">
        <ele>1728.3</ele>
        <time>2026-07-07T08:13:30Z</time>
      </trkpt>
      <trkpt lat="42.96981" lon="0.32037">
        <ele>1729.3</ele>
        <time>2026-07-07T08:13:31Z</time>
      </trkpt>
      <trkpt lat="42.96981" lon="0.32037">
        <ele>1729.3</ele>
        <time>2026-07-07T08:13:32Z</time>
      </trkpt>
      <trkpt lat="42.96981" lon="0.32037">
        <ele>1729.3</ele>
        <time>2026-07-07T08:13:32Z</time>
      </trkpt>
      <trkpt lat="42.96982" lon="0.32037">
        <ele>1729.3</ele>
        <time>2026-07-07T08:13:33Z</time>
      </trkpt>
      <trkpt lat="42.96982" lon="0.32036">
        <ele>1730.3</ele>
        <time>2026-07-07T08:13:34Z</time>
      </trkpt>
      <trkpt lat="42.96982" lon="0.32035">
        <ele>1731.3</ele>
        <time>2026-07-07T08:13:35Z</time>
      </trkpt>
      <trkpt lat="42.96982" lon="0.32034">
        <ele>1731.3</ele>
        <time>2026-07-07T08:13:36Z</time>
      </trkpt>
      <trkpt lat="42.96982" lon="0.32033">
        <ele>1731.3</ele>
        <time>2026-07-07T08:13:36Z</time>
      </trkpt>
      <trkpt lat="42.96982" lon="0.32033">
        <ele>1731.3</ele>
        <time>2026-07-07T08:13:37Z</time>
      </trkpt>
      <trkpt lat="42.96982" lon="0.32032">
        <ele>1731.3</ele>
        <time>2026-07-07T08:13:38Z</time>
      </trkpt>
      <trkpt lat="42.96982" lon="0.32031">
        <ele>1731.3</ele>
        <time>2026-07-07T08:13:39Z</time>
      </trkpt>
      <trkpt lat="42.96982" lon="0.32031">
        <ele>1731.3</ele>
        <time>2026-07-07T08:13:40Z</time>
      </trkpt>
      <trkpt lat="42.96982" lon="0.3203">
        <ele>1731.3</ele>
        <time>2026-07-07T08:13:40Z</time>
      </trkpt>
      <trkpt lat="42.96982" lon="0.3203">
        <ele>1731.3</ele>
        <time>2026-07-07T08:13:41Z</time>
      </trkpt>
      <trkpt lat="42.96982" lon="0.3203">
        <ele>1731.3</ele>
        <time>2026-07-07T08:13:42Z</time>
      </trkpt>
      <trkpt lat="42.96982" lon="0.3203">
        <ele>1731.3</ele>
        <time>2026-07-07T08:13:43Z</time>
      </trkpt>
      <trkpt lat="42.96982" lon="0.32029">
        <ele>1731.3</ele>
        <time>2026-07-07T08:13:44Z</time>
      </trkpt>
      <trkpt lat="42.96982" lon="0.32029">
        <ele>1731.3</ele>
        <time>2026-07-07T08:13:45Z</time>
      </trkpt>
      <trkpt lat="42.96983" lon="0.32028">
        <ele>1731.3</ele>
        <time>2026-07-07T08:13:45Z</time>
      </trkpt>
      <trkpt lat="42.96983" lon="0.32027">
        <ele>1730.3</ele>
        <time>2026-07-07T08:13:46Z</time>
      </trkpt>
      <trkpt lat="42.96982" lon="0.32027">
        <ele>1730.3</ele>
        <time>2026-07-07T08:13:47Z</time>
      </trkpt>
      <trkpt lat="42.96982" lon="0.32026">
        <ele>1730.3</ele>
        <time>2026-07-07T08:13:47Z</time>
      </trkpt>
      <trkpt lat="42.96982" lon="0.32026">
        <ele>1731.3</ele>
        <time>2026-07-07T08:13:48Z</time>
      </trkpt>
      <trkpt lat="42.96982" lon="0.32026">
        <ele>1731.3</ele>
        <time>2026-07-07T08:13:49Z</time>
      </trkpt>
      <trkpt lat="42.96982" lon="0.32025">
        <ele>1731.3</ele>
        <time>2026-07-07T08:13:50Z</time>
      </trkpt>
      <trkpt lat="42.96981" lon="0.32024">
        <ele>1732.3</ele>
        <time>2026-07-07T08:13:51Z</time>
      </trkpt>
      <trkpt lat="42.96981" lon="0.32024">
        <ele>1732.3</ele>
        <time>2026-07-07T08:13:52Z</time>
      </trkpt>
      <trkpt lat="42.96981" lon="0.32023">
        <ele>1733.3</ele>
        <time>2026-07-07T08:13:53Z</time>
      </trkpt>
      <trkpt lat="42.96981" lon="0.32023">
        <ele>1733.3</ele>
        <time>2026-07-07T08:13:53Z</time>
      </trkpt>
      <trkpt lat="42.9698" lon="0.32022">
        <ele>1733.3</ele>
        <time>2026-07-07T08:13:54Z</time>
      </trkpt>
      <trkpt lat="42.9698" lon="0.32021">
        <ele>1733.3</ele>
        <time>2026-07-07T08:13:55Z</time>
      </trkpt>
      <trkpt lat="42.9698" lon="0.3202">
        <ele>1733.3</ele>
        <time>2026-07-07T08:13:56Z</time>
      </trkpt>
      <trkpt lat="42.9698" lon="0.32019">
        <ele>1733.3</ele>
        <time>2026-07-07T08:13:57Z</time>
      </trkpt>
      <trkpt lat="42.96981" lon="0.32019">
        <ele>1733.3</ele>
        <time>2026-07-07T08:13:57Z</time>
      </trkpt>
      <trkpt lat="42.96981" lon="0.32018">
        <ele>1733.3</ele>
        <time>2026-07-07T08:13:58Z</time>
      </trkpt>
      <trkpt lat="42.96981" lon="0.32018">
        <ele>1733.3</ele>
        <time>2026-07-07T08:13:59Z</time>
      </trkpt>
      <trkpt lat="42.96982" lon="0.32017">
        <ele>1733.3</ele>
        <time>2026-07-07T08:13:59Z</time>
      </trkpt>
      <trkpt lat="42.96982" lon="0.32017">
        <ele>1733.3</ele>
        <time>2026-07-07T08:14:00Z</time>
      </trkpt>
      <trkpt lat="42.96983" lon="0.32016">
        <ele>1733.3</ele>
        <time>2026-07-07T08:14:01Z</time>
      </trkpt>
      <trkpt lat="42.96983" lon="0.32015">
        <ele>1733.3</ele>
        <time>2026-07-07T08:14:02Z</time>
      </trkpt>
      <trkpt lat="42.96983" lon="0.32015">
        <ele>1733.3</ele>
        <time>2026-07-07T08:14:03Z</time>
      </trkpt>
      <trkpt lat="42.96983" lon="0.32014">
        <ele>1733.3</ele>
        <time>2026-07-07T08:14:04Z</time>
      </trkpt>
      <trkpt lat="42.96983" lon="0.32013">
        <ele>1734.3</ele>
        <time>2026-07-07T08:14:05Z</time>
      </trkpt>
      <trkpt lat="42.96982" lon="0.32013">
        <ele>1733.3</ele>
        <time>2026-07-07T08:14:06Z</time>
      </trkpt>
      <trkpt lat="42.96982" lon="0.32012">
        <ele>1733.3</ele>
        <time>2026-07-07T08:14:06Z</time>
      </trkpt>
      <trkpt lat="42.96982" lon="0.32012">
        <ele>1734.3</ele>
        <time>2026-07-07T08:14:07Z</time>
      </trkpt>
      <trkpt lat="42.96982" lon="0.32011">
        <ele>1734.3</ele>
        <time>2026-07-07T08:14:08Z</time>
      </trkpt>
      <trkpt lat="42.96982" lon="0.32011">
        <ele>1733.3</ele>
        <time>2026-07-07T08:14:08Z</time>
      </trkpt>
      <trkpt lat="42.96982" lon="0.3201">
        <ele>1733.3</ele>
        <time>2026-07-07T08:14:09Z</time>
      </trkpt>
      <trkpt lat="42.96982" lon="0.32009">
        <ele>1733.3</ele>
        <time>2026-07-07T08:14:10Z</time>
      </trkpt>
      <trkpt lat="42.96982" lon="0.32009">
        <ele>1734.3</ele>
        <time>2026-07-07T08:14:10Z</time>
      </trkpt>
      <trkpt lat="42.96982" lon="0.32008">
        <ele>1734.3</ele>
        <time>2026-07-07T08:14:11Z</time>
      </trkpt>
      <trkpt lat="42.96983" lon="0.32008">
        <ele>1734.3</ele>
        <time>2026-07-07T08:14:12Z</time>
      </trkpt>
      <trkpt lat="42.96983" lon="0.32007">
        <ele>1734.3</ele>
        <time>2026-07-07T08:14:13Z</time>
      </trkpt>
      <trkpt lat="42.96983" lon="0.32006">
        <ele>1734.3</ele>
        <time>2026-07-07T08:14:14Z</time>
      </trkpt>
      <trkpt lat="42.96983" lon="0.32006">
        <ele>1734.3</ele>
        <time>2026-07-07T08:14:14Z</time>
      </trkpt>
      <trkpt lat="42.96983" lon="0.32005">
        <ele>1734.3</ele>
        <time>2026-07-07T08:14:15Z</time>
      </trkpt>
      <trkpt lat="42.96984" lon="0.32004">
        <ele>1734.3</ele>
        <time>2026-07-07T08:14:16Z</time>
      </trkpt>
      <trkpt lat="42.96984" lon="0.32003">
        <ele>1734.3</ele>
        <time>2026-07-07T08:14:17Z</time>
      </trkpt>
      <trkpt lat="42.96983" lon="0.32002">
        <ele>1733.3</ele>
        <time>2026-07-07T08:14:18Z</time>
      </trkpt>
      <trkpt lat="42.96983" lon="0.32002">
        <ele>1733.3</ele>
        <time>2026-07-07T08:14:19Z</time>
      </trkpt>
      <trkpt lat="42.96983" lon="0.32001">
        <ele>1733.3</ele>
        <time>2026-07-07T08:14:20Z</time>
      </trkpt>
      <trkpt lat="42.96983" lon="0.32001">
        <ele>1733.3</ele>
        <time>2026-07-07T08:14:21Z</time>
      </trkpt>
      <trkpt lat="42.96983" lon="0.32002">
        <ele>1733.3</ele>
        <time>2026-07-07T08:14:21Z</time>
      </trkpt>
      <trkpt lat="42.96983" lon="0.32001">
        <ele>1733.3</ele>
        <time>2026-07-07T08:14:22Z</time>
      </trkpt>
      <trkpt lat="42.96983" lon="0.32001">
        <ele>1733.3</ele>
        <time>2026-07-07T08:14:23Z</time>
      </trkpt>
      <trkpt lat="42.96983" lon="0.32001">
        <ele>1733.3</ele>
        <time>2026-07-07T08:14:23Z</time>
      </trkpt>
      <trkpt lat="42.96983" lon="0.32">
        <ele>1733.3</ele>
        <time>2026-07-07T08:14:24Z</time>
      </trkpt>
      <trkpt lat="42.96984" lon="0.32">
        <ele>1733.3</ele>
        <time>2026-07-07T08:14:25Z</time>
      </trkpt>
      <trkpt lat="42.96984" lon="0.31999">
        <ele>1733.3</ele>
        <time>2026-07-07T08:14:26Z</time>
      </trkpt>
      <trkpt lat="42.96984" lon="0.31998">
        <ele>1733.3</ele>
        <time>2026-07-07T08:14:26Z</time>
      </trkpt>
      <trkpt lat="42.96984" lon="0.31997">
        <ele>1733.3</ele>
        <time>2026-07-07T08:14:27Z</time>
      </trkpt>
      <trkpt lat="42.96985" lon="0.31996">
        <ele>1734.3</ele>
        <time>2026-07-07T08:14:28Z</time>
      </trkpt>
      <trkpt lat="42.96985" lon="0.31995">
        <ele>1734.3</ele>
        <time>2026-07-07T08:14:29Z</time>
      </trkpt>
      <trkpt lat="42.96985" lon="0.31994">
        <ele>1734.3</ele>
        <time>2026-07-07T08:14:30Z</time>
      </trkpt>
      <trkpt lat="42.96986" lon="0.31994">
        <ele>1735.3</ele>
        <time>2026-07-07T08:14:30Z</time>
      </trkpt>
      <trkpt lat="42.96986" lon="0.31993">
        <ele>1735.3</ele>
        <time>2026-07-07T08:14:31Z</time>
      </trkpt>
      <trkpt lat="42.96987" lon="0.31992">
        <ele>1735.3</ele>
        <time>2026-07-07T08:14:32Z</time>
      </trkpt>
      <trkpt lat="42.96987" lon="0.31992">
        <ele>1735.3</ele>
        <time>2026-07-07T08:14:33Z</time>
      </trkpt>
      <trkpt lat="42.96988" lon="0.31991">
        <ele>1736.3</ele>
        <time>2026-07-07T08:14:34Z</time>
      </trkpt>
      <trkpt lat="42.96988" lon="0.3199">
        <ele>1736.3</ele>
        <time>2026-07-07T08:14:34Z</time>
      </trkpt>
      <trkpt lat="42.96988" lon="0.3199">
        <ele>1736.3</ele>
        <time>2026-07-07T08:14:35Z</time>
      </trkpt>
      <trkpt lat="42.96989" lon="0.31989">
        <ele>1736.3</ele>
        <time>2026-07-07T08:14:36Z</time>
      </trkpt>
      <trkpt lat="42.96989" lon="0.31988">
        <ele>1737.3</ele>
        <time>2026-07-07T08:14:37Z</time>
      </trkpt>
      <trkpt lat="42.96989" lon="0.31988">
        <ele>1737.3</ele>
        <time>2026-07-07T08:14:37Z</time>
      </trkpt>
      <trkpt lat="42.9699" lon="0.31987">
        <ele>1736.3</ele>
        <time>2026-07-07T08:14:38Z</time>
      </trkpt>
      <trkpt lat="42.9699" lon="0.31987">
        <ele>1737.3</ele>
        <time>2026-07-07T08:14:39Z</time>
      </trkpt>
      <trkpt lat="42.96991" lon="0.31987">
        <ele>1738.3</ele>
        <time>2026-07-07T08:14:40Z</time>
      </trkpt>
      <trkpt lat="42.96991" lon="0.31986">
        <ele>1738.3</ele>
        <time>2026-07-07T08:14:41Z</time>
      </trkpt>
      <trkpt lat="42.96992" lon="0.31985">
        <ele>1738.3</ele>
        <time>2026-07-07T08:14:42Z</time>
      </trkpt>
      <trkpt lat="42.96992" lon="0.31984">
        <ele>1738.3</ele>
        <time>2026-07-07T08:14:43Z</time>
      </trkpt>
      <trkpt lat="42.96992" lon="0.31984">
        <ele>1739.3</ele>
        <time>2026-07-07T08:14:43Z</time>
      </trkpt>
      <trkpt lat="42.96993" lon="0.31983">
        <ele>1739.3</ele>
        <time>2026-07-07T08:14:44Z</time>
      </trkpt>
      <trkpt lat="42.96993" lon="0.31982">
        <ele>1739.3</ele>
        <time>2026-07-07T08:14:45Z</time>
      </trkpt>
      <trkpt lat="42.96993" lon="0.31981">
        <ele>1739.3</ele>
        <time>2026-07-07T08:14:45Z</time>
      </trkpt>
      <trkpt lat="42.96993" lon="0.3198">
        <ele>1739.3</ele>
        <time>2026-07-07T08:14:46Z</time>
      </trkpt>
      <trkpt lat="42.96994" lon="0.31979">
        <ele>1739.3</ele>
        <time>2026-07-07T08:14:47Z</time>
      </trkpt>
      <trkpt lat="42.96994" lon="0.31978">
        <ele>1739.3</ele>
        <time>2026-07-07T08:14:48Z</time>
      </trkpt>
      <trkpt lat="42.96994" lon="0.31978">
        <ele>1739.3</ele>
        <time>2026-07-07T08:14:49Z</time>
      </trkpt>
      <trkpt lat="42.96994" lon="0.31977">
        <ele>1739.3</ele>
        <time>2026-07-07T08:14:49Z</time>
      </trkpt>
      <trkpt lat="42.96995" lon="0.31977">
        <ele>1739.3</ele>
        <time>2026-07-07T08:14:50Z</time>
      </trkpt>
      <trkpt lat="42.96995" lon="0.31976">
        <ele>1739.3</ele>
        <time>2026-07-07T08:14:51Z</time>
      </trkpt>
      <trkpt lat="42.96995" lon="0.31975">
        <ele>1739.3</ele>
        <time>2026-07-07T08:14:51Z</time>
      </trkpt>
      <trkpt lat="42.96996" lon="0.31975">
        <ele>1739.3</ele>
        <time>2026-07-07T08:14:52Z</time>
      </trkpt>
      <trkpt lat="42.96996" lon="0.31974">
        <ele>1739.3</ele>
        <time>2026-07-07T08:14:52Z</time>
      </trkpt>
      <trkpt lat="42.96996" lon="0.31973">
        <ele>1739.3</ele>
        <time>2026-07-07T08:14:53Z</time>
      </trkpt>
      <trkpt lat="42.96997" lon="0.31973">
        <ele>1740.3</ele>
        <time>2026-07-07T08:14:54Z</time>
      </trkpt>
      <trkpt lat="42.96997" lon="0.31972">
        <ele>1739.3</ele>
        <time>2026-07-07T08:14:54Z</time>
      </trkpt>
      <trkpt lat="42.96997" lon="0.31971">
        <ele>1739.3</ele>
        <time>2026-07-07T08:14:55Z</time>
      </trkpt>
      <trkpt lat="42.96997" lon="0.3197">
        <ele>1739.3</ele>
        <time>2026-07-07T08:14:56Z</time>
      </trkpt>
      <trkpt lat="42.96998" lon="0.31969">
        <ele>1739.3</ele>
        <time>2026-07-07T08:14:56Z</time>
      </trkpt>
      <trkpt lat="42.96998" lon="0.31969">
        <ele>1739.3</ele>
        <time>2026-07-07T08:14:57Z</time>
      </trkpt>
      <trkpt lat="42.96998" lon="0.31968">
        <ele>1739.3</ele>
        <time>2026-07-07T08:14:57Z</time>
      </trkpt>
      <trkpt lat="42.96999" lon="0.31967">
        <ele>1739.3</ele>
        <time>2026-07-07T08:14:58Z</time>
      </trkpt>
      <trkpt lat="42.96999" lon="0.31967">
        <ele>1739.3</ele>
        <time>2026-07-07T08:14:59Z</time>
      </trkpt>
      <trkpt lat="42.97" lon="0.31966">
        <ele>1739.3</ele>
        <time>2026-07-07T08:14:59Z</time>
      </trkpt>
      <trkpt lat="42.97" lon="0.31965">
        <ele>1739.3</ele>
        <time>2026-07-07T08:15:00Z</time>
      </trkpt>
      <trkpt lat="42.97" lon="0.31965">
        <ele>1739.3</ele>
        <time>2026-07-07T08:15:01Z</time>
      </trkpt>
      <trkpt lat="42.97001" lon="0.31964">
        <ele>1739.3</ele>
        <time>2026-07-07T08:15:01Z</time>
      </trkpt>
      <trkpt lat="42.97001" lon="0.31963">
        <ele>1739.3</ele>
        <time>2026-07-07T08:15:02Z</time>
      </trkpt>
      <trkpt lat="42.97002" lon="0.31963">
        <ele>1739.3</ele>
        <time>2026-07-07T08:15:03Z</time>
      </trkpt>
      <trkpt lat="42.97002" lon="0.31962">
        <ele>1738.3</ele>
        <time>2026-07-07T08:15:03Z</time>
      </trkpt>
      <trkpt lat="42.97002" lon="0.31961">
        <ele>1738.3</ele>
        <time>2026-07-07T08:15:04Z</time>
      </trkpt>
      <trkpt lat="42.97003" lon="0.31961">
        <ele>1738.3</ele>
        <time>2026-07-07T08:15:05Z</time>
      </trkpt>
      <trkpt lat="42.97003" lon="0.3196">
        <ele>1738.3</ele>
        <time>2026-07-07T08:15:05Z</time>
      </trkpt>
      <trkpt lat="42.97004" lon="0.31959">
        <ele>1739.3</ele>
        <time>2026-07-07T08:15:06Z</time>
      </trkpt>
      <trkpt lat="42.97004" lon="0.31959">
        <ele>1739.3</ele>
        <time>2026-07-07T08:15:07Z</time>
      </trkpt>
      <trkpt lat="42.97004" lon="0.31958">
        <ele>1739.3</ele>
        <time>2026-07-07T08:15:07Z</time>
      </trkpt>
      <trkpt lat="42.97005" lon="0.31957">
        <ele>1739.3</ele>
        <time>2026-07-07T08:15:08Z</time>
      </trkpt>
      <trkpt lat="42.97005" lon="0.31957">
        <ele>1739.3</ele>
        <time>2026-07-07T08:15:09Z</time>
      </trkpt>
      <trkpt lat="42.97005" lon="0.31956">
        <ele>1739.3</ele>
        <time>2026-07-07T08:15:09Z</time>
      </trkpt>
      <trkpt lat="42.97006" lon="0.31956">
        <ele>1739.3</ele>
        <time>2026-07-07T08:15:10Z</time>
      </trkpt>
      <trkpt lat="42.97007" lon="0.31956">
        <ele>1739.3</ele>
        <time>2026-07-07T08:15:11Z</time>
      </trkpt>
      <trkpt lat="42.97007" lon="0.31955">
        <ele>1739.3</ele>
        <time>2026-07-07T08:15:11Z</time>
      </trkpt>
      <trkpt lat="42.97008" lon="0.31955">
        <ele>1739.3</ele>
        <time>2026-07-07T08:15:12Z</time>
      </trkpt>
      <trkpt lat="42.97008" lon="0.31954">
        <ele>1739.3</ele>
        <time>2026-07-07T08:15:13Z</time>
      </trkpt>
      <trkpt lat="42.97009" lon="0.31954">
        <ele>1740.3</ele>
        <time>2026-07-07T08:15:13Z</time>
      </trkpt>
      <trkpt lat="42.97009" lon="0.31953">
        <ele>1740.3</ele>
        <time>2026-07-07T08:15:14Z</time>
      </trkpt>
      <trkpt lat="42.9701" lon="0.31952">
        <ele>1740.3</ele>
        <time>2026-07-07T08:15:15Z</time>
      </trkpt>
      <trkpt lat="42.9701" lon="0.31952">
        <ele>1740.3</ele>
        <time>2026-07-07T08:15:15Z</time>
      </trkpt>
      <trkpt lat="42.9701" lon="0.31951">
        <ele>1740.3</ele>
        <time>2026-07-07T08:15:16Z</time>
      </trkpt>
      <trkpt lat="42.97011" lon="0.3195">
        <ele>1740.3</ele>
        <time>2026-07-07T08:15:17Z</time>
      </trkpt>
      <trkpt lat="42.97011" lon="0.3195">
        <ele>1740.3</ele>
        <time>2026-07-07T08:15:17Z</time>
      </trkpt>
      <trkpt lat="42.97012" lon="0.31949">
        <ele>1740.3</ele>
        <time>2026-07-07T08:15:18Z</time>
      </trkpt>
      <trkpt lat="42.97012" lon="0.31948">
        <ele>1740.3</ele>
        <time>2026-07-07T08:15:19Z</time>
      </trkpt>
      <trkpt lat="42.97012" lon="0.31948">
        <ele>1741.3</ele>
        <time>2026-07-07T08:15:19Z</time>
      </trkpt>
      <trkpt lat="42.97013" lon="0.31946">
        <ele>1741.3</ele>
        <time>2026-07-07T08:15:20Z</time>
      </trkpt>
      <trkpt lat="42.97013" lon="0.31946">
        <ele>1741.3</ele>
        <time>2026-07-07T08:15:21Z</time>
      </trkpt>
      <trkpt lat="42.97013" lon="0.31945">
        <ele>1741.3</ele>
        <time>2026-07-07T08:15:21Z</time>
      </trkpt>
      <trkpt lat="42.97013" lon="0.31944">
        <ele>1741.3</ele>
        <time>2026-07-07T08:15:22Z</time>
      </trkpt>
      <trkpt lat="42.97014" lon="0.31943">
        <ele>1741.3</ele>
        <time>2026-07-07T08:15:23Z</time>
      </trkpt>
      <trkpt lat="42.97014" lon="0.31942">
        <ele>1741.3</ele>
        <time>2026-07-07T08:15:23Z</time>
      </trkpt>
      <trkpt lat="42.97014" lon="0.31942">
        <ele>1741.3</ele>
        <time>2026-07-07T08:15:24Z</time>
      </trkpt>
      <trkpt lat="42.97014" lon="0.31941">
        <ele>1741.3</ele>
        <time>2026-07-07T08:15:24Z</time>
      </trkpt>
      <trkpt lat="42.97014" lon="0.3194">
        <ele>1741.3</ele>
        <time>2026-07-07T08:15:25Z</time>
      </trkpt>
      <trkpt lat="42.97014" lon="0.31939">
        <ele>1741.3</ele>
        <time>2026-07-07T08:15:26Z</time>
      </trkpt>
      <trkpt lat="42.97015" lon="0.31938">
        <ele>1741.3</ele>
        <time>2026-07-07T08:15:26Z</time>
      </trkpt>
      <trkpt lat="42.97015" lon="0.31937">
        <ele>1741.3</ele>
        <time>2026-07-07T08:15:27Z</time>
      </trkpt>
      <trkpt lat="42.97016" lon="0.31936">
        <ele>1741.3</ele>
        <time>2026-07-07T08:15:28Z</time>
      </trkpt>
      <trkpt lat="42.97016" lon="0.31935">
        <ele>1741.3</ele>
        <time>2026-07-07T08:15:29Z</time>
      </trkpt>
      <trkpt lat="42.97016" lon="0.31934">
        <ele>1741.3</ele>
        <time>2026-07-07T08:15:29Z</time>
      </trkpt>
      <trkpt lat="42.97016" lon="0.31934">
        <ele>1740.3</ele>
        <time>2026-07-07T08:15:30Z</time>
      </trkpt>
      <trkpt lat="42.97017" lon="0.31933">
        <ele>1740.3</ele>
        <time>2026-07-07T08:15:30Z</time>
      </trkpt>
      <trkpt lat="42.97017" lon="0.31932">
        <ele>1740.3</ele>
        <time>2026-07-07T08:15:31Z</time>
      </trkpt>
      <trkpt lat="42.97017" lon="0.31932">
        <ele>1740.3</ele>
        <time>2026-07-07T08:15:31Z</time>
      </trkpt>
      <trkpt lat="42.97017" lon="0.31931">
        <ele>1740.3</ele>
        <time>2026-07-07T08:15:32Z</time>
      </trkpt>
      <trkpt lat="42.97017" lon="0.3193">
        <ele>1739.3</ele>
        <time>2026-07-07T08:15:33Z</time>
      </trkpt>
      <trkpt lat="42.97017" lon="0.31929">
        <ele>1739.3</ele>
        <time>2026-07-07T08:15:33Z</time>
      </trkpt>
      <trkpt lat="42.97017" lon="0.31928">
        <ele>1739.3</ele>
        <time>2026-07-07T08:15:34Z</time>
      </trkpt>
      <trkpt lat="42.97017" lon="0.31928">
        <ele>1739.3</ele>
        <time>2026-07-07T08:15:34Z</time>
      </trkpt>
      <trkpt lat="42.97018" lon="0.31927">
        <ele>1739.3</ele>
        <time>2026-07-07T08:15:35Z</time>
      </trkpt>
      <trkpt lat="42.97018" lon="0.31927">
        <ele>1739.3</ele>
        <time>2026-07-07T08:15:35Z</time>
      </trkpt>
      <trkpt lat="42.97018" lon="0.31926">
        <ele>1739.3</ele>
        <time>2026-07-07T08:15:36Z</time>
      </trkpt>
      <trkpt lat="42.97019" lon="0.31925">
        <ele>1739.3</ele>
        <time>2026-07-07T08:15:37Z</time>
      </trkpt>
      <trkpt lat="42.9702" lon="0.31925">
        <ele>1739.3</ele>
        <time>2026-07-07T08:15:38Z</time>
      </trkpt>
      <trkpt lat="42.9702" lon="0.31924">
        <ele>1739.3</ele>
        <time>2026-07-07T08:15:38Z</time>
      </trkpt>
      <trkpt lat="42.97021" lon="0.31924">
        <ele>1739.3</ele>
        <time>2026-07-07T08:15:39Z</time>
      </trkpt>
      <trkpt lat="42.97021" lon="0.31923">
        <ele>1739.3</ele>
        <time>2026-07-07T08:15:40Z</time>
      </trkpt>
      <trkpt lat="42.97021" lon="0.31922">
        <ele>1739.3</ele>
        <time>2026-07-07T08:15:41Z</time>
      </trkpt>
      <trkpt lat="42.97022" lon="0.31921">
        <ele>1739.3</ele>
        <time>2026-07-07T08:15:41Z</time>
      </trkpt>
      <trkpt lat="42.97022" lon="0.31921">
        <ele>1739.3</ele>
        <time>2026-07-07T08:15:42Z</time>
      </trkpt>
      <trkpt lat="42.97022" lon="0.3192">
        <ele>1739.3</ele>
        <time>2026-07-07T08:15:42Z</time>
      </trkpt>
      <trkpt lat="42.97022" lon="0.31919">
        <ele>1739.3</ele>
        <time>2026-07-07T08:15:43Z</time>
      </trkpt>
      <trkpt lat="42.97023" lon="0.31918">
        <ele>1739.3</ele>
        <time>2026-07-07T08:15:44Z</time>
      </trkpt>
      <trkpt lat="42.97023" lon="0.31917">
        <ele>1739.3</ele>
        <time>2026-07-07T08:15:44Z</time>
      </trkpt>
      <trkpt lat="42.97023" lon="0.31916">
        <ele>1739.3</ele>
        <time>2026-07-07T08:15:45Z</time>
      </trkpt>
      <trkpt lat="42.97024" lon="0.31916">
        <ele>1738.3</ele>
        <time>2026-07-07T08:15:45Z</time>
      </trkpt>
      <trkpt lat="42.97024" lon="0.31915">
        <ele>1738.3</ele>
        <time>2026-07-07T08:15:46Z</time>
      </trkpt>
      <trkpt lat="42.97024" lon="0.31914">
        <ele>1738.3</ele>
        <time>2026-07-07T08:15:47Z</time>
      </trkpt>
      <trkpt lat="42.97025" lon="0.31913">
        <ele>1738.3</ele>
        <time>2026-07-07T08:15:47Z</time>
      </trkpt>
      <trkpt lat="42.97025" lon="0.31912">
        <ele>1738.3</ele>
        <time>2026-07-07T08:15:48Z</time>
      </trkpt>
      <trkpt lat="42.97025" lon="0.31911">
        <ele>1738.3</ele>
        <time>2026-07-07T08:15:49Z</time>
      </trkpt>
      <trkpt lat="42.97026" lon="0.31911">
        <ele>1738.3</ele>
        <time>2026-07-07T08:15:49Z</time>
      </trkpt>
      <trkpt lat="42.97026" lon="0.3191">
        <ele>1737.3</ele>
        <time>2026-07-07T08:15:50Z</time>
      </trkpt>
      <trkpt lat="42.97026" lon="0.31909">
        <ele>1738.3</ele>
        <time>2026-07-07T08:15:50Z</time>
      </trkpt>
      <trkpt lat="42.97027" lon="0.31908">
        <ele>1738.3</ele>
        <time>2026-07-07T08:15:51Z</time>
      </trkpt>
      <trkpt lat="42.97027" lon="0.31907">
        <ele>1738.3</ele>
        <time>2026-07-07T08:15:51Z</time>
      </trkpt>
      <trkpt lat="42.97028" lon="0.31907">
        <ele>1738.3</ele>
        <time>2026-07-07T08:15:52Z</time>
      </trkpt>
      <trkpt lat="42.97028" lon="0.31906">
        <ele>1738.3</ele>
        <time>2026-07-07T08:15:53Z</time>
      </trkpt>
      <trkpt lat="42.97028" lon="0.31905">
        <ele>1738.3</ele>
        <time>2026-07-07T08:15:53Z</time>
      </trkpt>
      <trkpt lat="42.97028" lon="0.31904">
        <ele>1738.3</ele>
        <time>2026-07-07T08:15:54Z</time>
      </trkpt>
      <trkpt lat="42.97028" lon="0.31903">
        <ele>1738.3</ele>
        <time>2026-07-07T08:15:54Z</time>
      </trkpt>
      <trkpt lat="42.97028" lon="0.31902">
        <ele>1738.3</ele>
        <time>2026-07-07T08:15:55Z</time>
      </trkpt>
      <trkpt lat="42.97029" lon="0.31901">
        <ele>1738.3</ele>
        <time>2026-07-07T08:15:56Z</time>
      </trkpt>
      <trkpt lat="42.97029" lon="0.319">
        <ele>1738.3</ele>
        <time>2026-07-07T08:15:56Z</time>
      </trkpt>
      <trkpt lat="42.97029" lon="0.319">
        <ele>1738.3</ele>
        <time>2026-07-07T08:15:57Z</time>
      </trkpt>
      <trkpt lat="42.97029" lon="0.31899">
        <ele>1738.3</ele>
        <time>2026-07-07T08:15:57Z</time>
      </trkpt>
      <trkpt lat="42.9703" lon="0.31898">
        <ele>1738.3</ele>
        <time>2026-07-07T08:15:58Z</time>
      </trkpt>
      <trkpt lat="42.9703" lon="0.31897">
        <ele>1739.3</ele>
        <time>2026-07-07T08:15:58Z</time>
      </trkpt>
      <trkpt lat="42.97031" lon="0.31897">
        <ele>1739.3</ele>
        <time>2026-07-07T08:15:59Z</time>
      </trkpt>
      <trkpt lat="42.97031" lon="0.31896">
        <ele>1740.3</ele>
        <time>2026-07-07T08:16:00Z</time>
      </trkpt>
      <trkpt lat="42.97032" lon="0.31895">
        <ele>1740.3</ele>
        <time>2026-07-07T08:16:00Z</time>
      </trkpt>
      <trkpt lat="42.97032" lon="0.31895">
        <ele>1740.3</ele>
        <time>2026-07-07T08:16:01Z</time>
      </trkpt>
      <trkpt lat="42.97032" lon="0.31894">
        <ele>1740.3</ele>
        <time>2026-07-07T08:16:02Z</time>
      </trkpt>
      <trkpt lat="42.97033" lon="0.31893">
        <ele>1740.3</ele>
        <time>2026-07-07T08:16:02Z</time>
      </trkpt>
      <trkpt lat="42.97033" lon="0.31892">
        <ele>1740.3</ele>
        <time>2026-07-07T08:16:03Z</time>
      </trkpt>
      <trkpt lat="42.97034" lon="0.31892">
        <ele>1740.3</ele>
        <time>2026-07-07T08:16:03Z</time>
      </trkpt>
      <trkpt lat="42.97034" lon="0.31891">
        <ele>1740.3</ele>
        <time>2026-07-07T08:16:04Z</time>
      </trkpt>
      <trkpt lat="42.97034" lon="0.3189">
        <ele>1741.3</ele>
        <time>2026-07-07T08:16:04Z</time>
      </trkpt>
      <trkpt lat="42.97035" lon="0.3189">
        <ele>1741.3</ele>
        <time>2026-07-07T08:16:05Z</time>
      </trkpt>
      <trkpt lat="42.97035" lon="0.31889">
        <ele>1741.3</ele>
        <time>2026-07-07T08:16:06Z</time>
      </trkpt>
      <trkpt lat="42.97036" lon="0.31889">
        <ele>1741.3</ele>
        <time>2026-07-07T08:16:06Z</time>
      </trkpt>
      <trkpt lat="42.97036" lon="0.31888">
        <ele>1741.3</ele>
        <time>2026-07-07T08:16:07Z</time>
      </trkpt>
      <trkpt lat="42.97037" lon="0.31888">
        <ele>1741.3</ele>
        <time>2026-07-07T08:16:07Z</time>
      </trkpt>
      <trkpt lat="42.97037" lon="0.31887">
        <ele>1741.3</ele>
        <time>2026-07-07T08:16:08Z</time>
      </trkpt>
      <trkpt lat="42.97037" lon="0.31886">
        <ele>1741.3</ele>
        <time>2026-07-07T08:16:09Z</time>
      </trkpt>
      <trkpt lat="42.97038" lon="0.31886">
        <ele>1741.3</ele>
        <time>2026-07-07T08:16:09Z</time>
      </trkpt>
      <trkpt lat="42.97038" lon="0.31885">
        <ele>1742.3</ele>
        <time>2026-07-07T08:16:10Z</time>
      </trkpt>
      <trkpt lat="42.97039" lon="0.31885">
        <ele>1742.3</ele>
        <time>2026-07-07T08:16:10Z</time>
      </trkpt>
      <trkpt lat="42.97039" lon="0.31884">
        <ele>1742.3</ele>
        <time>2026-07-07T08:16:11Z</time>
      </trkpt>
      <trkpt lat="42.9704" lon="0.31884">
        <ele>1741.3</ele>
        <time>2026-07-07T08:16:11Z</time>
      </trkpt>
      <trkpt lat="42.9704" lon="0.31883">
        <ele>1741.3</ele>
        <time>2026-07-07T08:16:12Z</time>
      </trkpt>
      <trkpt lat="42.97041" lon="0.31882">
        <ele>1741.3</ele>
        <time>2026-07-07T08:16:13Z</time>
      </trkpt>
      <trkpt lat="42.97041" lon="0.31882">
        <ele>1741.3</ele>
        <time>2026-07-07T08:16:13Z</time>
      </trkpt>
      <trkpt lat="42.97041" lon="0.31881">
        <ele>1741.3</ele>
        <time>2026-07-07T08:16:14Z</time>
      </trkpt>
      <trkpt lat="42.97042" lon="0.31881">
        <ele>1742.3</ele>
        <time>2026-07-07T08:16:14Z</time>
      </trkpt>
      <trkpt lat="42.97042" lon="0.3188">
        <ele>1742.3</ele>
        <time>2026-07-07T08:16:15Z</time>
      </trkpt>
      <trkpt lat="42.97043" lon="0.3188">
        <ele>1741.3</ele>
        <time>2026-07-07T08:16:15Z</time>
      </trkpt>
      <trkpt lat="42.97043" lon="0.31879">
        <ele>1741.3</ele>
        <time>2026-07-07T08:16:16Z</time>
      </trkpt>
      <trkpt lat="42.97044" lon="0.31878">
        <ele>1742.3</ele>
        <time>2026-07-07T08:16:17Z</time>
      </trkpt>
      <trkpt lat="42.97044" lon="0.31878">
        <ele>1742.3</ele>
        <time>2026-07-07T08:16:17Z</time>
      </trkpt>
      <trkpt lat="42.97044" lon="0.31877">
        <ele>1741.3</ele>
        <time>2026-07-07T08:16:18Z</time>
      </trkpt>
      <trkpt lat="42.97045" lon="0.31877">
        <ele>1741.3</ele>
        <time>2026-07-07T08:16:18Z</time>
      </trkpt>
      <trkpt lat="42.97045" lon="0.31876">
        <ele>1741.3</ele>
        <time>2026-07-07T08:16:19Z</time>
      </trkpt>
      <trkpt lat="42.97045" lon="0.31875">
        <ele>1742.3</ele>
        <time>2026-07-07T08:16:20Z</time>
      </trkpt>
      <trkpt lat="42.97045" lon="0.31876">
        <ele>1742.3</ele>
        <time>2026-07-07T08:16:21Z</time>
      </trkpt>
      <trkpt lat="42.97044" lon="0.31876">
        <ele>1742.3</ele>
        <time>2026-07-07T08:16:22Z</time>
      </trkpt>
      <trkpt lat="42.97044" lon="0.31876">
        <ele>1742.3</ele>
        <time>2026-07-07T08:16:23Z</time>
      </trkpt>
      <trkpt lat="42.97044" lon="0.31877">
        <ele>1742.3</ele>
        <time>2026-07-07T08:16:24Z</time>
      </trkpt>
      <trkpt lat="42.97044" lon="0.31877">
        <ele>1742.3</ele>
        <time>2026-07-07T08:16:25Z</time>
      </trkpt>
      <trkpt lat="42.97044" lon="0.31877">
        <ele>1742.3</ele>
        <time>2026-07-07T08:16:26Z</time>
      </trkpt>
      <trkpt lat="42.97044" lon="0.31877">
        <ele>1742.3</ele>
        <time>2026-07-07T08:16:27Z</time>
      </trkpt>
      <trkpt lat="42.97044" lon="0.31877">
        <ele>1742.3</ele>
        <time>2026-07-07T08:16:28Z</time>
      </trkpt>
      <trkpt lat="42.97044" lon="0.31878">
        <ele>1742.3</ele>
        <time>2026-07-07T08:16:29Z</time>
      </trkpt>
      <trkpt lat="42.97044" lon="0.31878">
        <ele>1742.3</ele>
        <time>2026-07-07T08:16:30Z</time>
      </trkpt>
      <trkpt lat="42.97044" lon="0.31878">
        <ele>1742.3</ele>
        <time>2026-07-07T08:16:31Z</time>
      </trkpt>
      <trkpt lat="42.97044" lon="0.31877">
        <ele>1742.3</ele>
        <time>2026-07-07T08:16:32Z</time>
      </trkpt>
      <trkpt lat="42.97044" lon="0.31877">
        <ele>1742.3</ele>
        <time>2026-07-07T08:16:32Z</time>
      </trkpt>
      <trkpt lat="42.97044" lon="0.31877">
        <ele>1741.3</ele>
        <time>2026-07-07T08:16:33Z</time>
      </trkpt>
      <trkpt lat="42.97044" lon="0.31877">
        <ele>1741.3</ele>
        <time>2026-07-07T08:16:34Z</time>
      </trkpt>
      <trkpt lat="42.97044" lon="0.31877">
        <ele>1741.3</ele>
        <time>2026-07-07T08:16:34Z</time>
      </trkpt>
      <trkpt lat="42.97044" lon="0.31876">
        <ele>1741.3</ele>
        <time>2026-07-07T08:16:35Z</time>
      </trkpt>
      <trkpt lat="42.97045" lon="0.31874">
        <ele>1741.3</ele>
        <time>2026-07-07T08:16:35Z</time>
      </trkpt>
      <trkpt lat="42.97046" lon="0.31873">
        <ele>1741.3</ele>
        <time>2026-07-07T08:16:36Z</time>
      </trkpt>
      <trkpt lat="42.97047" lon="0.31872">
        <ele>1741.3</ele>
        <time>2026-07-07T08:16:37Z</time>
      </trkpt>
      <trkpt lat="42.97048" lon="0.31872">
        <ele>1741.3</ele>
        <time>2026-07-07T08:16:37Z</time>
      </trkpt>
      <trkpt lat="42.97048" lon="0.31871">
        <ele>1741.3</ele>
        <time>2026-07-07T08:16:38Z</time>
      </trkpt>
      <trkpt lat="42.97049" lon="0.3187">
        <ele>1741.3</ele>
        <time>2026-07-07T08:16:39Z</time>
      </trkpt>
      <trkpt lat="42.9705" lon="0.3187">
        <ele>1741.3</ele>
        <time>2026-07-07T08:16:39Z</time>
      </trkpt>
      <trkpt lat="42.9705" lon="0.31869">
        <ele>1741.3</ele>
        <time>2026-07-07T08:16:40Z</time>
      </trkpt>
      <trkpt lat="42.97051" lon="0.31868">
        <ele>1742.3</ele>
        <time>2026-07-07T08:16:41Z</time>
      </trkpt>
      <trkpt lat="42.97051" lon="0.31868">
        <ele>1742.3</ele>
        <time>2026-07-07T08:16:41Z</time>
      </trkpt>
      <trkpt lat="42.97052" lon="0.31867">
        <ele>1741.3</ele>
        <time>2026-07-07T08:16:42Z</time>
      </trkpt>
      <trkpt lat="42.97052" lon="0.31866">
        <ele>1742.3</ele>
        <time>2026-07-07T08:16:43Z</time>
      </trkpt>
      <trkpt lat="42.97053" lon="0.31866">
        <ele>1742.3</ele>
        <time>2026-07-07T08:16:43Z</time>
      </trkpt>
      <trkpt lat="42.97054" lon="0.31865">
        <ele>1741.3</ele>
        <time>2026-07-07T08:16:44Z</time>
      </trkpt>
      <trkpt lat="42.97054" lon="0.31864">
        <ele>1741.3</ele>
        <time>2026-07-07T08:16:45Z</time>
      </trkpt>
      <trkpt lat="42.97054" lon="0.31863">
        <ele>1741.3</ele>
        <time>2026-07-07T08:16:45Z</time>
      </trkpt>
      <trkpt lat="42.97055" lon="0.31862">
        <ele>1741.3</ele>
        <time>2026-07-07T08:16:46Z</time>
      </trkpt>
      <trkpt lat="42.97055" lon="0.31862">
        <ele>1741.3</ele>
        <time>2026-07-07T08:16:47Z</time>
      </trkpt>
      <trkpt lat="42.97055" lon="0.31861">
        <ele>1741.3</ele>
        <time>2026-07-07T08:16:47Z</time>
      </trkpt>
      <trkpt lat="42.97056" lon="0.31861">
        <ele>1741.3</ele>
        <time>2026-07-07T08:16:48Z</time>
      </trkpt>
      <trkpt lat="42.97056" lon="0.3186">
        <ele>1741.3</ele>
        <time>2026-07-07T08:16:48Z</time>
      </trkpt>
      <trkpt lat="42.97056" lon="0.31859">
        <ele>1741.3</ele>
        <time>2026-07-07T08:16:49Z</time>
      </trkpt>
      <trkpt lat="42.97056" lon="0.31858">
        <ele>1741.3</ele>
        <time>2026-07-07T08:16:50Z</time>
      </trkpt>
      <trkpt lat="42.97056" lon="0.31857">
        <ele>1741.3</ele>
        <time>2026-07-07T08:16:51Z</time>
      </trkpt>
      <trkpt lat="42.97057" lon="0.31857">
        <ele>1741.3</ele>
        <time>2026-07-07T08:16:51Z</time>
      </trkpt>
      <trkpt lat="42.97057" lon="0.31856">
        <ele>1741.3</ele>
        <time>2026-07-07T08:16:52Z</time>
      </trkpt>
      <trkpt lat="42.97057" lon="0.31855">
        <ele>1741.3</ele>
        <time>2026-07-07T08:16:53Z</time>
      </trkpt>
      <trkpt lat="42.97057" lon="0.31855">
        <ele>1741.3</ele>
        <time>2026-07-07T08:16:54Z</time>
      </trkpt>
      <trkpt lat="42.97057" lon="0.31854">
        <ele>1742.3</ele>
        <time>2026-07-07T08:16:54Z</time>
      </trkpt>
      <trkpt lat="42.97058" lon="0.31853">
        <ele>1742.3</ele>
        <time>2026-07-07T08:16:55Z</time>
      </trkpt>
      <trkpt lat="42.97058" lon="0.31853">
        <ele>1743.3</ele>
        <time>2026-07-07T08:16:56Z</time>
      </trkpt>
      <trkpt lat="42.97058" lon="0.31853">
        <ele>1743.3</ele>
        <time>2026-07-07T08:16:56Z</time>
      </trkpt>
      <trkpt lat="42.97059" lon="0.31852">
        <ele>1743.3</ele>
        <time>2026-07-07T08:16:57Z</time>
      </trkpt>
      <trkpt lat="42.97059" lon="0.31851">
        <ele>1743.3</ele>
        <time>2026-07-07T08:16:58Z</time>
      </trkpt>
      <trkpt lat="42.97059" lon="0.31851">
        <ele>1743.3</ele>
        <time>2026-07-07T08:16:59Z</time>
      </trkpt>
      <trkpt lat="42.97059" lon="0.31851">
        <ele>1743.3</ele>
        <time>2026-07-07T08:16:59Z</time>
      </trkpt>
      <trkpt lat="42.9706" lon="0.3185">
        <ele>1743.3</ele>
        <time>2026-07-07T08:17:00Z</time>
      </trkpt>
      <trkpt lat="42.9706" lon="0.31849">
        <ele>1743.3</ele>
        <time>2026-07-07T08:17:01Z</time>
      </trkpt>
      <trkpt lat="42.9706" lon="0.31849">
        <ele>1743.3</ele>
        <time>2026-07-07T08:17:02Z</time>
      </trkpt>
      <trkpt lat="42.97061" lon="0.31848">
        <ele>1743.3</ele>
        <time>2026-07-07T08:17:03Z</time>
      </trkpt>
      <trkpt lat="42.97061" lon="0.31848">
        <ele>1743.3</ele>
        <time>2026-07-07T08:17:03Z</time>
      </trkpt>
      <trkpt lat="42.97061" lon="0.31847">
        <ele>1744.3</ele>
        <time>2026-07-07T08:17:04Z</time>
      </trkpt>
      <trkpt lat="42.97062" lon="0.31846">
        <ele>1744.3</ele>
        <time>2026-07-07T08:17:05Z</time>
      </trkpt>
      <trkpt lat="42.97062" lon="0.31846">
        <ele>1744.3</ele>
        <time>2026-07-07T08:17:06Z</time>
      </trkpt>
      <trkpt lat="42.97063" lon="0.31845">
        <ele>1744.3</ele>
        <time>2026-07-07T08:17:07Z</time>
      </trkpt>
      <trkpt lat="42.97063" lon="0.31845">
        <ele>1745.3</ele>
        <time>2026-07-07T08:17:08Z</time>
      </trkpt>
      <trkpt lat="42.97064" lon="0.31845">
        <ele>1745.3</ele>
        <time>2026-07-07T08:17:08Z</time>
      </trkpt>
      <trkpt lat="42.97064" lon="0.31844">
        <ele>1745.3</ele>
        <time>2026-07-07T08:17:09Z</time>
      </trkpt>
      <trkpt lat="42.97064" lon="0.31843">
        <ele>1745.3</ele>
        <time>2026-07-07T08:17:10Z</time>
      </trkpt>
      <trkpt lat="42.97065" lon="0.31842">
        <ele>1745.3</ele>
        <time>2026-07-07T08:17:11Z</time>
      </trkpt>
      <trkpt lat="42.97065" lon="0.31841">
        <ele>1745.3</ele>
        <time>2026-07-07T08:17:12Z</time>
      </trkpt>
      <trkpt lat="42.97066" lon="0.3184">
        <ele>1746.3</ele>
        <time>2026-07-07T08:17:13Z</time>
      </trkpt>
      <trkpt lat="42.97066" lon="0.3184">
        <ele>1746.3</ele>
        <time>2026-07-07T08:17:13Z</time>
      </trkpt>
      <trkpt lat="42.97067" lon="0.31839">
        <ele>1746.3</ele>
        <time>2026-07-07T08:17:14Z</time>
      </trkpt>
      <trkpt lat="42.97068" lon="0.31839">
        <ele>1746.3</ele>
        <time>2026-07-07T08:17:15Z</time>
      </trkpt>
      <trkpt lat="42.97068" lon="0.31839">
        <ele>1746.3</ele>
        <time>2026-07-07T08:17:16Z</time>
      </trkpt>
      <trkpt lat="42.97069" lon="0.31838">
        <ele>1746.3</ele>
        <time>2026-07-07T08:17:16Z</time>
      </trkpt>
      <trkpt lat="42.97069" lon="0.31838">
        <ele>1746.3</ele>
        <time>2026-07-07T08:17:17Z</time>
      </trkpt>
      <trkpt lat="42.9707" lon="0.31837">
        <ele>1746.3</ele>
        <time>2026-07-07T08:17:18Z</time>
      </trkpt>
      <trkpt lat="42.97071" lon="0.31837">
        <ele>1747.3</ele>
        <time>2026-07-07T08:17:19Z</time>
      </trkpt>
      <trkpt lat="42.97071" lon="0.31836">
        <ele>1746.3</ele>
        <time>2026-07-07T08:17:19Z</time>
      </trkpt>
      <trkpt lat="42.97071" lon="0.31836">
        <ele>1746.3</ele>
        <time>2026-07-07T08:17:20Z</time>
      </trkpt>
      <trkpt lat="42.97071" lon="0.31836">
        <ele>1746.3</ele>
        <time>2026-07-07T08:17:20Z</time>
      </trkpt>
      <trkpt lat="42.97072" lon="0.31835">
        <ele>1746.3</ele>
        <time>2026-07-07T08:17:21Z</time>
      </trkpt>
      <trkpt lat="42.97072" lon="0.31835">
        <ele>1746.3</ele>
        <time>2026-07-07T08:17:22Z</time>
      </trkpt>
      <trkpt lat="42.97072" lon="0.31834">
        <ele>1747.3</ele>
        <time>2026-07-07T08:17:23Z</time>
      </trkpt>
      <trkpt lat="42.97073" lon="0.31834">
        <ele>1747.3</ele>
        <time>2026-07-07T08:17:24Z</time>
      </trkpt>
      <trkpt lat="42.97073" lon="0.31833">
        <ele>1746.3</ele>
        <time>2026-07-07T08:17:25Z</time>
      </trkpt>
      <trkpt lat="42.97073" lon="0.31833">
        <ele>1746.3</ele>
        <time>2026-07-07T08:17:26Z</time>
      </trkpt>
      <trkpt lat="42.97073" lon="0.31833">
        <ele>1746.3</ele>
        <time>2026-07-07T08:17:26Z</time>
      </trkpt>
      <trkpt lat="42.97074" lon="0.31832">
        <ele>1746.3</ele>
        <time>2026-07-07T08:17:27Z</time>
      </trkpt>
      <trkpt lat="42.97074" lon="0.31832">
        <ele>1746.3</ele>
        <time>2026-07-07T08:17:28Z</time>
      </trkpt>
      <trkpt lat="42.97074" lon="0.31831">
        <ele>1746.3</ele>
        <time>2026-07-07T08:17:28Z</time>
      </trkpt>
      <trkpt lat="42.97074" lon="0.31831">
        <ele>1746.3</ele>
        <time>2026-07-07T08:17:29Z</time>
      </trkpt>
      <trkpt lat="42.97075" lon="0.3183">
        <ele>1746.3</ele>
        <time>2026-07-07T08:17:30Z</time>
      </trkpt>
      <trkpt lat="42.97075" lon="0.31829">
        <ele>1746.3</ele>
        <time>2026-07-07T08:17:31Z</time>
      </trkpt>
      <trkpt lat="42.97075" lon="0.31829">
        <ele>1746.3</ele>
        <time>2026-07-07T08:17:32Z</time>
      </trkpt>
      <trkpt lat="42.97075" lon="0.31829">
        <ele>1746.3</ele>
        <time>2026-07-07T08:17:32Z</time>
      </trkpt>
      <trkpt lat="42.97075" lon="0.31829">
        <ele>1746.3</ele>
        <time>2026-07-07T08:17:33Z</time>
      </trkpt>
      <trkpt lat="42.97076" lon="0.31828">
        <ele>1746.3</ele>
        <time>2026-07-07T08:17:34Z</time>
      </trkpt>
      <trkpt lat="42.97076" lon="0.31828">
        <ele>1746.3</ele>
        <time>2026-07-07T08:17:35Z</time>
      </trkpt>
      <trkpt lat="42.97076" lon="0.31827">
        <ele>1746.3</ele>
        <time>2026-07-07T08:17:36Z</time>
      </trkpt>
      <trkpt lat="42.97076" lon="0.31827">
        <ele>1746.3</ele>
        <time>2026-07-07T08:17:37Z</time>
      </trkpt>
      <trkpt lat="42.97076" lon="0.31827">
        <ele>1746.3</ele>
        <time>2026-07-07T08:17:37Z</time>
      </trkpt>
      <trkpt lat="42.97076" lon="0.31827">
        <ele>1746.3</ele>
        <time>2026-07-07T08:17:38Z</time>
      </trkpt>
      <trkpt lat="42.97077" lon="0.31827">
        <ele>1747.3</ele>
        <time>2026-07-07T08:17:39Z</time>
      </trkpt>
      <trkpt lat="42.97077" lon="0.31826">
        <ele>1747.3</ele>
        <time>2026-07-07T08:17:40Z</time>
      </trkpt>
      <trkpt lat="42.97078" lon="0.31826">
        <ele>1748.3</ele>
        <time>2026-07-07T08:17:41Z</time>
      </trkpt>
      <trkpt lat="42.97078" lon="0.31825">
        <ele>1748.3</ele>
        <time>2026-07-07T08:17:42Z</time>
      </trkpt>
      <trkpt lat="42.97078" lon="0.31825">
        <ele>1748.3</ele>
        <time>2026-07-07T08:17:42Z</time>
      </trkpt>
      <trkpt lat="42.97078" lon="0.31824">
        <ele>1748.3</ele>
        <time>2026-07-07T08:17:43Z</time>
      </trkpt>
      <trkpt lat="42.97079" lon="0.31823">
        <ele>1749.3</ele>
        <time>2026-07-07T08:17:44Z</time>
      </trkpt>
      <trkpt lat="42.97079" lon="0.31822">
        <ele>1749.3</ele>
        <time>2026-07-07T08:17:45Z</time>
      </trkpt>
      <trkpt lat="42.97079" lon="0.31821">
        <ele>1749.3</ele>
        <time>2026-07-07T08:17:46Z</time>
      </trkpt>
      <trkpt lat="42.97079" lon="0.31821">
        <ele>1750.3</ele>
        <time>2026-07-07T08:17:47Z</time>
      </trkpt>
      <trkpt lat="42.9708" lon="0.31821">
        <ele>1750.3</ele>
        <time>2026-07-07T08:17:48Z</time>
      </trkpt>
      <trkpt lat="42.9708" lon="0.3182">
        <ele>1750.3</ele>
        <time>2026-07-07T08:17:48Z</time>
      </trkpt>
      <trkpt lat="42.9708" lon="0.3182">
        <ele>1750.3</ele>
        <time>2026-07-07T08:17:49Z</time>
      </trkpt>
      <trkpt lat="42.97081" lon="0.3182">
        <ele>1750.3</ele>
        <time>2026-07-07T08:17:50Z</time>
      </trkpt>
      <trkpt lat="42.97081" lon="0.31819">
        <ele>1750.3</ele>
        <time>2026-07-07T08:17:51Z</time>
      </trkpt>
      <trkpt lat="42.97081" lon="0.31818">
        <ele>1750.3</ele>
        <time>2026-07-07T08:17:52Z</time>
      </trkpt>
      <trkpt lat="42.97081" lon="0.31818">
        <ele>1751.3</ele>
        <time>2026-07-07T08:17:53Z</time>
      </trkpt>
      <trkpt lat="42.97081" lon="0.31817">
        <ele>1752.3</ele>
        <time>2026-07-07T08:17:54Z</time>
      </trkpt>
      <trkpt lat="42.97081" lon="0.31817">
        <ele>1751.3</ele>
        <time>2026-07-07T08:17:54Z</time>
      </trkpt>
      <trkpt lat="42.97081" lon="0.31816">
        <ele>1751.3</ele>
        <time>2026-07-07T08:17:55Z</time>
      </trkpt>
      <trkpt lat="42.97081" lon="0.31816">
        <ele>1752.3</ele>
        <time>2026-07-07T08:17:56Z</time>
      </trkpt>
      <trkpt lat="42.97081" lon="0.31815">
        <ele>1751.3</ele>
        <time>2026-07-07T08:17:56Z</time>
      </trkpt>
      <trkpt lat="42.97081" lon="0.31815">
        <ele>1752.3</ele>
        <time>2026-07-07T08:17:57Z</time>
      </trkpt>
      <trkpt lat="42.97082" lon="0.31814">
        <ele>1752.3</ele>
        <time>2026-07-07T08:17:58Z</time>
      </trkpt>
      <trkpt lat="42.97082" lon="0.31814">
        <ele>1752.3</ele>
        <time>2026-07-07T08:17:59Z</time>
      </trkpt>
      <trkpt lat="42.97082" lon="0.31814">
        <ele>1752.3</ele>
        <time>2026-07-07T08:18:00Z</time>
      </trkpt>
      <trkpt lat="42.97082" lon="0.31814">
        <ele>1752.3</ele>
        <time>2026-07-07T08:18:00Z</time>
      </trkpt>
      <trkpt lat="42.97082" lon="0.31813">
        <ele>1752.3</ele>
        <time>2026-07-07T08:18:01Z</time>
      </trkpt>
      <trkpt lat="42.97083" lon="0.31813">
        <ele>1752.3</ele>
        <time>2026-07-07T08:18:02Z</time>
      </trkpt>
      <trkpt lat="42.97083" lon="0.31813">
        <ele>1752.3</ele>
        <time>2026-07-07T08:18:03Z</time>
      </trkpt>
      <trkpt lat="42.97083" lon="0.31813">
        <ele>1752.3</ele>
        <time>2026-07-07T08:18:04Z</time>
      </trkpt>
      <trkpt lat="42.97082" lon="0.31813">
        <ele>1752.3</ele>
        <time>2026-07-07T08:18:04Z</time>
      </trkpt>
      <trkpt lat="42.97082" lon="0.31812">
        <ele>1752.3</ele>
        <time>2026-07-07T08:18:05Z</time>
      </trkpt>
      <trkpt lat="42.97083" lon="0.31812">
        <ele>1752.3</ele>
        <time>2026-07-07T08:18:06Z</time>
      </trkpt>
      <trkpt lat="42.97083" lon="0.31812">
        <ele>1752.3</ele>
        <time>2026-07-07T08:18:07Z</time>
      </trkpt>
      <trkpt lat="42.97083" lon="0.31812">
        <ele>1753.3</ele>
        <time>2026-07-07T08:18:08Z</time>
      </trkpt>
      <trkpt lat="42.97084" lon="0.31812">
        <ele>1752.3</ele>
        <time>2026-07-07T08:18:09Z</time>
      </trkpt>
      <trkpt lat="42.97084" lon="0.31812">
        <ele>1752.3</ele>
        <time>2026-07-07T08:18:09Z</time>
      </trkpt>
      <trkpt lat="42.97085" lon="0.31811">
        <ele>1752.3</ele>
        <time>2026-07-07T08:18:10Z</time>
      </trkpt>
      <trkpt lat="42.97085" lon="0.31811">
        <ele>1752.3</ele>
        <time>2026-07-07T08:18:11Z</time>
      </trkpt>
      <trkpt lat="42.97086" lon="0.31811">
        <ele>1752.3</ele>
        <time>2026-07-07T08:18:12Z</time>
      </trkpt>
      <trkpt lat="42.97086" lon="0.3181">
        <ele>1752.3</ele>
        <time>2026-07-07T08:18:13Z</time>
      </trkpt>
      <trkpt lat="42.97086" lon="0.3181">
        <ele>1752.3</ele>
        <time>2026-07-07T08:18:14Z</time>
      </trkpt>
      <trkpt lat="42.97086" lon="0.3181">
        <ele>1753.3</ele>
        <time>2026-07-07T08:18:15Z</time>
      </trkpt>
      <trkpt lat="42.97087" lon="0.3181">
        <ele>1753.3</ele>
        <time>2026-07-07T08:18:15Z</time>
      </trkpt>
      <trkpt lat="42.97087" lon="0.3181">
        <ele>1754.3</ele>
        <time>2026-07-07T08:18:16Z</time>
      </trkpt>
      <trkpt lat="42.97087" lon="0.31809">
        <ele>1754.3</ele>
        <time>2026-07-07T08:18:17Z</time>
      </trkpt>
      <trkpt lat="42.97087" lon="0.31809">
        <ele>1754.3</ele>
        <time>2026-07-07T08:18:18Z</time>
      </trkpt>
      <trkpt lat="42.97087" lon="0.31808">
        <ele>1754.3</ele>
        <time>2026-07-07T08:18:19Z</time>
      </trkpt>
      <trkpt lat="42.97087" lon="0.31808">
        <ele>1754.3</ele>
        <time>2026-07-07T08:18:20Z</time>
      </trkpt>
      <trkpt lat="42.97087" lon="0.31808">
        <ele>1755.3</ele>
        <time>2026-07-07T08:18:20Z</time>
      </trkpt>
      <trkpt lat="42.97087" lon="0.31807">
        <ele>1755.3</ele>
        <time>2026-07-07T08:18:21Z</time>
      </trkpt>
      <trkpt lat="42.97087" lon="0.31807">
        <ele>1755.3</ele>
        <time>2026-07-07T08:18:22Z</time>
      </trkpt>
      <trkpt lat="42.97086" lon="0.31807">
        <ele>1756.3</ele>
        <time>2026-07-07T08:18:22Z</time>
      </trkpt>
      <trkpt lat="42.97086" lon="0.31806">
        <ele>1756.3</ele>
        <time>2026-07-07T08:18:23Z</time>
      </trkpt>
      <trkpt lat="42.97086" lon="0.31806">
        <ele>1756.3</ele>
        <time>2026-07-07T08:18:24Z</time>
      </trkpt>
      <trkpt lat="42.97086" lon="0.31806">
        <ele>1756.3</ele>
        <time>2026-07-07T08:18:24Z</time>
      </trkpt>
      <trkpt lat="42.97085" lon="0.31805">
        <ele>1756.3</ele>
        <time>2026-07-07T08:18:25Z</time>
      </trkpt>
      <trkpt lat="42.97085" lon="0.31804">
        <ele>1756.3</ele>
        <time>2026-07-07T08:18:26Z</time>
      </trkpt>
      <trkpt lat="42.97085" lon="0.31804">
        <ele>1757.3</ele>
        <time>2026-07-07T08:18:27Z</time>
      </trkpt>
      <trkpt lat="42.97085" lon="0.31803">
        <ele>1757.3</ele>
        <time>2026-07-07T08:18:28Z</time>
      </trkpt>
      <trkpt lat="42.97085" lon="0.31803">
        <ele>1757.3</ele>
        <time>2026-07-07T08:18:28Z</time>
      </trkpt>
      <trkpt lat="42.97085" lon="0.31802">
        <ele>1757.3</ele>
        <time>2026-07-07T08:18:29Z</time>
      </trkpt>
      <trkpt lat="42.97086" lon="0.31802">
        <ele>1757.3</ele>
        <time>2026-07-07T08:18:30Z</time>
      </trkpt>
      <trkpt lat="42.97086" lon="0.31801">
        <ele>1758.3</ele>
        <time>2026-07-07T08:18:31Z</time>
      </trkpt>
      <trkpt lat="42.97087" lon="0.31801">
        <ele>1758.3</ele>
        <time>2026-07-07T08:18:32Z</time>
      </trkpt>
      <trkpt lat="42.97087" lon="0.318">
        <ele>1758.3</ele>
        <time>2026-07-07T08:18:33Z</time>
      </trkpt>
      <trkpt lat="42.97087" lon="0.318">
        <ele>1758.3</ele>
        <time>2026-07-07T08:18:34Z</time>
      </trkpt>
      <trkpt lat="42.97087" lon="0.31799">
        <ele>1757.3</ele>
        <time>2026-07-07T08:18:35Z</time>
      </trkpt>
      <trkpt lat="42.97087" lon="0.31799">
        <ele>1757.3</ele>
        <time>2026-07-07T08:18:36Z</time>
      </trkpt>
      <trkpt lat="42.97087" lon="0.31799">
        <ele>1757.3</ele>
        <time>2026-07-07T08:18:37Z</time>
      </trkpt>
      <trkpt lat="42.97087" lon="0.31799">
        <ele>1757.3</ele>
        <time>2026-07-07T08:18:38Z</time>
      </trkpt>
      <trkpt lat="42.97087" lon="0.31799">
        <ele>1757.3</ele>
        <time>2026-07-07T08:18:38Z</time>
      </trkpt>
      <trkpt lat="42.97087" lon="0.31799">
        <ele>1757.3</ele>
        <time>2026-07-07T08:18:39Z</time>
      </trkpt>
      <trkpt lat="42.97087" lon="0.31799">
        <ele>1757.3</ele>
        <time>2026-07-07T08:18:40Z</time>
      </trkpt>
      <trkpt lat="42.97088" lon="0.31799">
        <ele>1757.3</ele>
        <time>2026-07-07T08:18:40Z</time>
      </trkpt>
      <trkpt lat="42.97088" lon="0.31798">
        <ele>1757.3</ele>
        <time>2026-07-07T08:18:41Z</time>
      </trkpt>
      <trkpt lat="42.97088" lon="0.31798">
        <ele>1758.3</ele>
        <time>2026-07-07T08:18:42Z</time>
      </trkpt>
      <trkpt lat="42.97089" lon="0.31798">
        <ele>1758.3</ele>
        <time>2026-07-07T08:18:43Z</time>
      </trkpt>
      <trkpt lat="42.97089" lon="0.31798">
        <ele>1759.3</ele>
        <time>2026-07-07T08:18:44Z</time>
      </trkpt>
      <trkpt lat="42.97089" lon="0.31797">
        <ele>1759.3</ele>
        <time>2026-07-07T08:18:44Z</time>
      </trkpt>
      <trkpt lat="42.97089" lon="0.31797">
        <ele>1760.3</ele>
        <time>2026-07-07T08:18:45Z</time>
      </trkpt>
      <trkpt lat="42.9709" lon="0.31796">
        <ele>1760.3</ele>
        <time>2026-07-07T08:18:46Z</time>
      </trkpt>
      <trkpt lat="42.9709" lon="0.31796">
        <ele>1761.3</ele>
        <time>2026-07-07T08:18:47Z</time>
      </trkpt>
      <trkpt lat="42.9709" lon="0.31796">
        <ele>1761.3</ele>
        <time>2026-07-07T08:18:48Z</time>
      </trkpt>
      <trkpt lat="42.97091" lon="0.31795">
        <ele>1761.3</ele>
        <time>2026-07-07T08:18:49Z</time>
      </trkpt>
      <trkpt lat="42.97091" lon="0.31794">
        <ele>1761.3</ele>
        <time>2026-07-07T08:18:50Z</time>
      </trkpt>
      <trkpt lat="42.97092" lon="0.31794">
        <ele>1762.3</ele>
        <time>2026-07-07T08:18:51Z</time>
      </trkpt>
      <trkpt lat="42.97092" lon="0.31793">
        <ele>1762.3</ele>
        <time>2026-07-07T08:18:52Z</time>
      </trkpt>
      <trkpt lat="42.97092" lon="0.31792">
        <ele>1762.3</ele>
        <time>2026-07-07T08:18:53Z</time>
      </trkpt>
      <trkpt lat="42.97093" lon="0.31792">
        <ele>1762.3</ele>
        <time>2026-07-07T08:18:54Z</time>
      </trkpt>
      <trkpt lat="42.97093" lon="0.31791">
        <ele>1762.3</ele>
        <time>2026-07-07T08:18:55Z</time>
      </trkpt>
      <trkpt lat="42.97092" lon="0.3179">
        <ele>1762.3</ele>
        <time>2026-07-07T08:18:56Z</time>
      </trkpt>
      <trkpt lat="42.97092" lon="0.31789">
        <ele>1762.3</ele>
        <time>2026-07-07T08:18:57Z</time>
      </trkpt>
      <trkpt lat="42.97093" lon="0.31789">
        <ele>1762.3</ele>
        <time>2026-07-07T08:18:58Z</time>
      </trkpt>
      <trkpt lat="42.97093" lon="0.31788">
        <ele>1762.3</ele>
        <time>2026-07-07T08:18:59Z</time>
      </trkpt>
      <trkpt lat="42.97093" lon="0.31787">
        <ele>1763.3</ele>
        <time>2026-07-07T08:19:00Z</time>
      </trkpt>
      <trkpt lat="42.97094" lon="0.31786">
        <ele>1762.3</ele>
        <time>2026-07-07T08:19:01Z</time>
      </trkpt>
      <trkpt lat="42.97093" lon="0.31786">
        <ele>1763.3</ele>
        <time>2026-07-07T08:19:02Z</time>
      </trkpt>
      <trkpt lat="42.97093" lon="0.31786">
        <ele>1763.3</ele>
        <time>2026-07-07T08:19:02Z</time>
      </trkpt>
      <trkpt lat="42.97093" lon="0.31785">
        <ele>1763.3</ele>
        <time>2026-07-07T08:19:03Z</time>
      </trkpt>
      <trkpt lat="42.97093" lon="0.31785">
        <ele>1763.3</ele>
        <time>2026-07-07T08:19:03Z</time>
      </trkpt>
      <trkpt lat="42.97093" lon="0.31785">
        <ele>1763.3</ele>
        <time>2026-07-07T08:19:04Z</time>
      </trkpt>
      <trkpt lat="42.97093" lon="0.31784">
        <ele>1763.3</ele>
        <time>2026-07-07T08:19:05Z</time>
      </trkpt>
      <trkpt lat="42.97094" lon="0.31784">
        <ele>1763.3</ele>
        <time>2026-07-07T08:19:06Z</time>
      </trkpt>
      <trkpt lat="42.97094" lon="0.31784">
        <ele>1762.3</ele>
        <time>2026-07-07T08:19:07Z</time>
      </trkpt>
      <trkpt lat="42.97095" lon="0.31783">
        <ele>1760.3</ele>
        <time>2026-07-07T08:19:08Z</time>
      </trkpt>
      <trkpt lat="42.97095" lon="0.31783">
        <ele>1760.3</ele>
        <time>2026-07-07T08:19:09Z</time>
      </trkpt>
      <trkpt lat="42.97095" lon="0.31782">
        <ele>1760.3</ele>
        <time>2026-07-07T08:19:10Z</time>
      </trkpt>
      <trkpt lat="42.97096" lon="0.31782">
        <ele>1760.3</ele>
        <time>2026-07-07T08:19:11Z</time>
      </trkpt>
      <trkpt lat="42.97096" lon="0.31782">
        <ele>1761.3</ele>
        <time>2026-07-07T08:19:11Z</time>
      </trkpt>
      <trkpt lat="42.97096" lon="0.31782">
        <ele>1761.3</ele>
        <time>2026-07-07T08:19:12Z</time>
      </trkpt>
      <trkpt lat="42.97096" lon="0.31782">
        <ele>1761.3</ele>
        <time>2026-07-07T08:19:13Z</time>
      </trkpt>
      <trkpt lat="42.97097" lon="0.31782">
        <ele>1761.3</ele>
        <time>2026-07-07T08:19:13Z</time>
      </trkpt>
      <trkpt lat="42.97097" lon="0.31781">
        <ele>1762.3</ele>
        <time>2026-07-07T08:19:14Z</time>
      </trkpt>
      <trkpt lat="42.97098" lon="0.3178">
        <ele>1762.3</ele>
        <time>2026-07-07T08:19:15Z</time>
      </trkpt>
      <trkpt lat="42.97098" lon="0.31779">
        <ele>1763.3</ele>
        <time>2026-07-07T08:19:16Z</time>
      </trkpt>
      <trkpt lat="42.97099" lon="0.31778">
        <ele>1763.3</ele>
        <time>2026-07-07T08:19:17Z</time>
      </trkpt>
      <trkpt lat="42.97099" lon="0.31777">
        <ele>1763.3</ele>
        <time>2026-07-07T08:19:18Z</time>
      </trkpt>
      <trkpt lat="42.971" lon="0.31777">
        <ele>1764.3</ele>
        <time>2026-07-07T08:19:19Z</time>
      </trkpt>
      <trkpt lat="42.971" lon="0.31776">
        <ele>1765.3</ele>
        <time>2026-07-07T08:19:20Z</time>
      </trkpt>
      <trkpt lat="42.971" lon="0.31775">
        <ele>1766.3</ele>
        <time>2026-07-07T08:19:21Z</time>
      </trkpt>
      <trkpt lat="42.971" lon="0.31775">
        <ele>1765.3</ele>
        <time>2026-07-07T08:19:22Z</time>
      </trkpt>
      <trkpt lat="42.971" lon="0.31775">
        <ele>1765.3</ele>
        <time>2026-07-07T08:19:23Z</time>
      </trkpt>
      <trkpt lat="42.97099" lon="0.31774">
        <ele>1765.3</ele>
        <time>2026-07-07T08:19:24Z</time>
      </trkpt>
      <trkpt lat="42.97099" lon="0.31774">
        <ele>1766.3</ele>
        <time>2026-07-07T08:19:25Z</time>
      </trkpt>
      <trkpt lat="42.97099" lon="0.31773">
        <ele>1765.3</ele>
        <time>2026-07-07T08:19:26Z</time>
      </trkpt>
      <trkpt lat="42.97099" lon="0.31773">
        <ele>1765.3</ele>
        <time>2026-07-07T08:19:27Z</time>
      </trkpt>
      <trkpt lat="42.97099" lon="0.31773">
        <ele>1765.3</ele>
        <time>2026-07-07T08:19:28Z</time>
      </trkpt>
      <trkpt lat="42.971" lon="0.31773">
        <ele>1765.3</ele>
        <time>2026-07-07T08:19:29Z</time>
      </trkpt>
      <trkpt lat="42.971" lon="0.31773">
        <ele>1765.3</ele>
        <time>2026-07-07T08:19:30Z</time>
      </trkpt>
      <trkpt lat="42.971" lon="0.31774">
        <ele>1767.3</ele>
        <time>2026-07-07T08:19:31Z</time>
      </trkpt>
      <trkpt lat="42.971" lon="0.31774">
        <ele>1767.3</ele>
        <time>2026-07-07T08:19:32Z</time>
      </trkpt>
      <trkpt lat="42.971" lon="0.31774">
        <ele>1766.3</ele>
        <time>2026-07-07T08:19:33Z</time>
      </trkpt>
      <trkpt lat="42.971" lon="0.31774">
        <ele>1766.3</ele>
        <time>2026-07-07T08:19:34Z</time>
      </trkpt>
      <trkpt lat="42.971" lon="0.31773">
        <ele>1766.3</ele>
        <time>2026-07-07T08:19:35Z</time>
      </trkpt>
      <trkpt lat="42.971" lon="0.31773">
        <ele>1766.3</ele>
        <time>2026-07-07T08:19:36Z</time>
      </trkpt>
      <trkpt lat="42.971" lon="0.31773">
        <ele>1766.3</ele>
        <time>2026-07-07T08:19:37Z</time>
      </trkpt>
      <trkpt lat="42.971" lon="0.31773">
        <ele>1766.3</ele>
        <time>2026-07-07T08:19:38Z</time>
      </trkpt>
      <trkpt lat="42.971" lon="0.31773">
        <ele>1766.3</ele>
        <time>2026-07-07T08:19:39Z</time>
      </trkpt>
      <trkpt lat="42.971" lon="0.31773">
        <ele>1766.3</ele>
        <time>2026-07-07T08:19:40Z</time>
      </trkpt>
      <trkpt lat="42.971" lon="0.31773">
        <ele>1766.3</ele>
        <time>2026-07-07T08:19:41Z</time>
      </trkpt>
      <trkpt lat="42.971" lon="0.31773">
        <ele>1767.3</ele>
        <time>2026-07-07T08:19:42Z</time>
      </trkpt>
      <trkpt lat="42.971" lon="0.31773">
        <ele>1767.3</ele>
        <time>2026-07-07T08:19:42Z</time>
      </trkpt>
      <trkpt lat="42.97101" lon="0.31772">
        <ele>1767.3</ele>
        <time>2026-07-07T08:19:43Z</time>
      </trkpt>
      <trkpt lat="42.97101" lon="0.31772">
        <ele>1768.3</ele>
        <time>2026-07-07T08:19:44Z</time>
      </trkpt>
      <trkpt lat="42.97101" lon="0.31772">
        <ele>1767.3</ele>
        <time>2026-07-07T08:19:45Z</time>
      </trkpt>
      <trkpt lat="42.97102" lon="0.31772">
        <ele>1767.3</ele>
        <time>2026-07-07T08:19:46Z</time>
      </trkpt>
      <trkpt lat="42.97102" lon="0.31771">
        <ele>1767.3</ele>
        <time>2026-07-07T08:19:47Z</time>
      </trkpt>
      <trkpt lat="42.97103" lon="0.31771">
        <ele>1768.3</ele>
        <time>2026-07-07T08:19:48Z</time>
      </trkpt>
      <trkpt lat="42.97103" lon="0.31771">
        <ele>1768.3</ele>
        <time>2026-07-07T08:19:49Z</time>
      </trkpt>
      <trkpt lat="42.97104" lon="0.3177">
        <ele>1767.3</ele>
        <time>2026-07-07T08:19:49Z</time>
      </trkpt>
      <trkpt lat="42.97104" lon="0.3177">
        <ele>1768.3</ele>
        <time>2026-07-07T08:19:50Z</time>
      </trkpt>
      <trkpt lat="42.97104" lon="0.3177">
        <ele>1768.3</ele>
        <time>2026-07-07T08:19:51Z</time>
      </trkpt>
      <trkpt lat="42.97105" lon="0.31769">
        <ele>1768.3</ele>
        <time>2026-07-07T08:19:52Z</time>
      </trkpt>
      <trkpt lat="42.97105" lon="0.31768">
        <ele>1769.3</ele>
        <time>2026-07-07T08:19:53Z</time>
      </trkpt>
      <trkpt lat="42.97105" lon="0.31768">
        <ele>1770.3</ele>
        <time>2026-07-07T08:19:54Z</time>
      </trkpt>
      <trkpt lat="42.97105" lon="0.31768">
        <ele>1769.3</ele>
        <time>2026-07-07T08:19:55Z</time>
      </trkpt>
      <trkpt lat="42.97105" lon="0.31767">
        <ele>1770.3</ele>
        <time>2026-07-07T08:19:56Z</time>
      </trkpt>
      <trkpt lat="42.97105" lon="0.31767">
        <ele>1770.3</ele>
        <time>2026-07-07T08:19:57Z</time>
      </trkpt>
      <trkpt lat="42.97105" lon="0.31767">
        <ele>1770.3</ele>
        <time>2026-07-07T08:19:58Z</time>
      </trkpt>
      <trkpt lat="42.97105" lon="0.31767">
        <ele>1770.3</ele>
        <time>2026-07-07T08:19:59Z</time>
      </trkpt>
      <trkpt lat="42.97105" lon="0.31766">
        <ele>1770.3</ele>
        <time>2026-07-07T08:20:00Z</time>
      </trkpt>
      <trkpt lat="42.97105" lon="0.31766">
        <ele>1770.3</ele>
        <time>2026-07-07T08:20:01Z</time>
      </trkpt>
      <trkpt lat="42.97105" lon="0.31765">
        <ele>1770.3</ele>
        <time>2026-07-07T08:20:02Z</time>
      </trkpt>
      <trkpt lat="42.97105" lon="0.31765">
        <ele>1770.3</ele>
        <time>2026-07-07T08:20:03Z</time>
      </trkpt>
      <trkpt lat="42.97106" lon="0.31765">
        <ele>1770.3</ele>
        <time>2026-07-07T08:20:04Z</time>
      </trkpt>
      <trkpt lat="42.97106" lon="0.31765">
        <ele>1771.3</ele>
        <time>2026-07-07T08:20:04Z</time>
      </trkpt>
      <trkpt lat="42.97106" lon="0.31764">
        <ele>1771.3</ele>
        <time>2026-07-07T08:20:05Z</time>
      </trkpt>
      <trkpt lat="42.97107" lon="0.31764">
        <ele>1771.3</ele>
        <time>2026-07-07T08:20:06Z</time>
      </trkpt>
      <trkpt lat="42.97107" lon="0.31763">
        <ele>1771.3</ele>
        <time>2026-07-07T08:20:07Z</time>
      </trkpt>
      <trkpt lat="42.97107" lon="0.31763">
        <ele>1771.3</ele>
        <time>2026-07-07T08:20:08Z</time>
      </trkpt>
      <trkpt lat="42.97107" lon="0.31762">
        <ele>1772.3</ele>
        <time>2026-07-07T08:20:09Z</time>
      </trkpt>
      <trkpt lat="42.97108" lon="0.31761">
        <ele>1772.3</ele>
        <time>2026-07-07T08:20:10Z</time>
      </trkpt>
      <trkpt lat="42.97108" lon="0.31761">
        <ele>1772.3</ele>
        <time>2026-07-07T08:20:11Z</time>
      </trkpt>
      <trkpt lat="42.97109" lon="0.3176">
        <ele>1772.3</ele>
        <time>2026-07-07T08:20:12Z</time>
      </trkpt>
      <trkpt lat="42.97109" lon="0.3176">
        <ele>1772.3</ele>
        <time>2026-07-07T08:20:13Z</time>
      </trkpt>
      <trkpt lat="42.97109" lon="0.3176">
        <ele>1772.3</ele>
        <time>2026-07-07T08:20:14Z</time>
      </trkpt>
      <trkpt lat="42.9711" lon="0.31759">
        <ele>1772.3</ele>
        <time>2026-07-07T08:20:15Z</time>
      </trkpt>
      <trkpt lat="42.9711" lon="0.31759">
        <ele>1772.3</ele>
        <time>2026-07-07T08:20:16Z</time>
      </trkpt>
      <trkpt lat="42.97111" lon="0.31758">
        <ele>1773.3</ele>
        <time>2026-07-07T08:20:17Z</time>
      </trkpt>
      <trkpt lat="42.97111" lon="0.31758">
        <ele>1773.3</ele>
        <time>2026-07-07T08:20:18Z</time>
      </trkpt>
      <trkpt lat="42.97111" lon="0.31757">
        <ele>1773.3</ele>
        <time>2026-07-07T08:20:18Z</time>
      </trkpt>
      <trkpt lat="42.97111" lon="0.31757">
        <ele>1773.3</ele>
        <time>2026-07-07T08:20:19Z</time>
      </trkpt>
      <trkpt lat="42.97112" lon="0.31756">
        <ele>1773.3</ele>
        <time>2026-07-07T08:20:20Z</time>
      </trkpt>
      <trkpt lat="42.97112" lon="0.31755">
        <ele>1773.3</ele>
        <time>2026-07-07T08:20:21Z</time>
      </trkpt>
      <trkpt lat="42.97113" lon="0.31755">
        <ele>1773.3</ele>
        <time>2026-07-07T08:20:22Z</time>
      </trkpt>
      <trkpt lat="42.97114" lon="0.31755">
        <ele>1773.3</ele>
        <time>2026-07-07T08:20:23Z</time>
      </trkpt>
      <trkpt lat="42.97114" lon="0.31754">
        <ele>1773.3</ele>
        <time>2026-07-07T08:20:24Z</time>
      </trkpt>
      <trkpt lat="42.97115" lon="0.31754">
        <ele>1774.3</ele>
        <time>2026-07-07T08:20:25Z</time>
      </trkpt>
      <trkpt lat="42.97115" lon="0.31754">
        <ele>1773.3</ele>
        <time>2026-07-07T08:20:26Z</time>
      </trkpt>
      <trkpt lat="42.97115" lon="0.31754">
        <ele>1774.3</ele>
        <time>2026-07-07T08:20:27Z</time>
      </trkpt>
      <trkpt lat="42.97116" lon="0.31753">
        <ele>1774.3</ele>
        <time>2026-07-07T08:20:28Z</time>
      </trkpt>
      <trkpt lat="42.97115" lon="0.31753">
        <ele>1774.3</ele>
        <time>2026-07-07T08:20:29Z</time>
      </trkpt>
      <trkpt lat="42.97116" lon="0.31753">
        <ele>1774.3</ele>
        <time>2026-07-07T08:20:30Z</time>
      </trkpt>
      <trkpt lat="42.97115" lon="0.31753">
        <ele>1774.3</ele>
        <time>2026-07-07T08:20:31Z</time>
      </trkpt>
      <trkpt lat="42.97116" lon="0.31753">
        <ele>1774.3</ele>
        <time>2026-07-07T08:20:32Z</time>
      </trkpt>
      <trkpt lat="42.97116" lon="0.31753">
        <ele>1775.3</ele>
        <time>2026-07-07T08:20:33Z</time>
      </trkpt>
      <trkpt lat="42.97116" lon="0.31753">
        <ele>1776.3</ele>
        <time>2026-07-07T08:20:34Z</time>
      </trkpt>
      <trkpt lat="42.97116" lon="0.31753">
        <ele>1776.3</ele>
        <time>2026-07-07T08:20:35Z</time>
      </trkpt>
      <trkpt lat="42.97116" lon="0.31753">
        <ele>1776.3</ele>
        <time>2026-07-07T08:20:36Z</time>
      </trkpt>
      <trkpt lat="42.97117" lon="0.31753">
        <ele>1776.3</ele>
        <time>2026-07-07T08:20:37Z</time>
      </trkpt>
      <trkpt lat="42.97117" lon="0.31753">
        <ele>1776.3</ele>
        <time>2026-07-07T08:20:38Z</time>
      </trkpt>
      <trkpt lat="42.97117" lon="0.31753">
        <ele>1776.3</ele>
        <time>2026-07-07T08:20:39Z</time>
      </trkpt>
      <trkpt lat="42.97118" lon="0.31752">
        <ele>1777.3</ele>
        <time>2026-07-07T08:20:40Z</time>
      </trkpt>
      <trkpt lat="42.97118" lon="0.31752">
        <ele>1777.3</ele>
        <time>2026-07-07T08:20:41Z</time>
      </trkpt>
      <trkpt lat="42.97118" lon="0.31751">
        <ele>1778.3</ele>
        <time>2026-07-07T08:20:42Z</time>
      </trkpt>
      <trkpt lat="42.97119" lon="0.31751">
        <ele>1778.3</ele>
        <time>2026-07-07T08:20:43Z</time>
      </trkpt>
      <trkpt lat="42.97119" lon="0.3175">
        <ele>1778.3</ele>
        <time>2026-07-07T08:20:44Z</time>
      </trkpt>
      <trkpt lat="42.97119" lon="0.3175">
        <ele>1779.3</ele>
        <time>2026-07-07T08:20:45Z</time>
      </trkpt>
      <trkpt lat="42.97119" lon="0.3175">
        <ele>1779.3</ele>
        <time>2026-07-07T08:20:46Z</time>
      </trkpt>
      <trkpt lat="42.97119" lon="0.3175">
        <ele>1779.3</ele>
        <time>2026-07-07T08:20:47Z</time>
      </trkpt>
      <trkpt lat="42.9712" lon="0.31749">
        <ele>1780.3</ele>
        <time>2026-07-07T08:20:48Z</time>
      </trkpt>
      <trkpt lat="42.9712" lon="0.31749">
        <ele>1780.3</ele>
        <time>2026-07-07T08:20:49Z</time>
      </trkpt>
      <trkpt lat="42.9712" lon="0.31749">
        <ele>1780.3</ele>
        <time>2026-07-07T08:20:50Z</time>
      </trkpt>
      <trkpt lat="42.9712" lon="0.31749">
        <ele>1780.3</ele>
        <time>2026-07-07T08:20:50Z</time>
      </trkpt>
      <trkpt lat="42.97121" lon="0.31748">
        <ele>1780.3</ele>
        <time>2026-07-07T08:20:51Z</time>
      </trkpt>
      <trkpt lat="42.97121" lon="0.31748">
        <ele>1780.3</ele>
        <time>2026-07-07T08:20:51Z</time>
      </trkpt>
      <trkpt lat="42.97121" lon="0.31748">
        <ele>1780.3</ele>
        <time>2026-07-07T08:20:52Z</time>
      </trkpt>
      <trkpt lat="42.97121" lon="0.31748">
        <ele>1780.3</ele>
        <time>2026-07-07T08:20:53Z</time>
      </trkpt>
      <trkpt lat="42.97121" lon="0.31747">
        <ele>1780.3</ele>
        <time>2026-07-07T08:20:54Z</time>
      </trkpt>
      <trkpt lat="42.97121" lon="0.31747">
        <ele>1780.3</ele>
        <time>2026-07-07T08:20:55Z</time>
      </trkpt>
      <trkpt lat="42.97121" lon="0.31747">
        <ele>1780.3</ele>
        <time>2026-07-07T08:20:56Z</time>
      </trkpt>
      <trkpt lat="42.97121" lon="0.31748">
        <ele>1780.3</ele>
        <time>2026-07-07T08:20:57Z</time>
      </trkpt>
      <trkpt lat="42.97122" lon="0.31747">
        <ele>1780.3</ele>
        <time>2026-07-07T08:20:58Z</time>
      </trkpt>
      <trkpt lat="42.97122" lon="0.31747">
        <ele>1781.3</ele>
        <time>2026-07-07T08:20:59Z</time>
      </trkpt>
      <trkpt lat="42.97123" lon="0.31746">
        <ele>1781.3</ele>
        <time>2026-07-07T08:21:00Z</time>
      </trkpt>
      <trkpt lat="42.97124" lon="0.31746">
        <ele>1781.3</ele>
        <time>2026-07-07T08:21:01Z</time>
      </trkpt>
      <trkpt lat="42.97124" lon="0.31745">
        <ele>1781.3</ele>
        <time>2026-07-07T08:21:02Z</time>
      </trkpt>
      <trkpt lat="42.97124" lon="0.31745">
        <ele>1781.3</ele>
        <time>2026-07-07T08:21:03Z</time>
      </trkpt>
      <trkpt lat="42.97125" lon="0.31744">
        <ele>1781.3</ele>
        <time>2026-07-07T08:21:04Z</time>
      </trkpt>
      <trkpt lat="42.97125" lon="0.31744">
        <ele>1781.3</ele>
        <time>2026-07-07T08:21:05Z</time>
      </trkpt>
      <trkpt lat="42.97124" lon="0.31743">
        <ele>1782.3</ele>
        <time>2026-07-07T08:21:06Z</time>
      </trkpt>
      <trkpt lat="42.97124" lon="0.31743">
        <ele>1782.3</ele>
        <time>2026-07-07T08:21:07Z</time>
      </trkpt>
      <trkpt lat="42.97124" lon="0.31743">
        <ele>1782.3</ele>
        <time>2026-07-07T08:21:08Z</time>
      </trkpt>
      <trkpt lat="42.97124" lon="0.31743">
        <ele>1782.3</ele>
        <time>2026-07-07T08:21:09Z</time>
      </trkpt>
      <trkpt lat="42.97124" lon="0.31742">
        <ele>1782.3</ele>
        <time>2026-07-07T08:21:10Z</time>
      </trkpt>
      <trkpt lat="42.97125" lon="0.31742">
        <ele>1782.3</ele>
        <time>2026-07-07T08:21:11Z</time>
      </trkpt>
      <trkpt lat="42.97125" lon="0.31741">
        <ele>1782.3</ele>
        <time>2026-07-07T08:21:12Z</time>
      </trkpt>
      <trkpt lat="42.97125" lon="0.31741">
        <ele>1782.3</ele>
        <time>2026-07-07T08:21:13Z</time>
      </trkpt>
      <trkpt lat="42.97125" lon="0.3174">
        <ele>1781.3</ele>
        <time>2026-07-07T08:21:14Z</time>
      </trkpt>
      <trkpt lat="42.97125" lon="0.3174">
        <ele>1781.3</ele>
        <time>2026-07-07T08:21:15Z</time>
      </trkpt>
      <trkpt lat="42.97125" lon="0.3174">
        <ele>1781.3</ele>
        <time>2026-07-07T08:21:16Z</time>
      </trkpt>
      <trkpt lat="42.97125" lon="0.31739">
        <ele>1780.3</ele>
        <time>2026-07-07T08:21:17Z</time>
      </trkpt>
      <trkpt lat="42.97125" lon="0.31739">
        <ele>1780.3</ele>
        <time>2026-07-07T08:21:18Z</time>
      </trkpt>
      <trkpt lat="42.97125" lon="0.31738">
        <ele>1780.3</ele>
        <time>2026-07-07T08:21:19Z</time>
      </trkpt>
      <trkpt lat="42.97125" lon="0.31738">
        <ele>1780.3</ele>
        <time>2026-07-07T08:21:20Z</time>
      </trkpt>
      <trkpt lat="42.97125" lon="0.31737">
        <ele>1780.3</ele>
        <time>2026-07-07T08:21:21Z</time>
      </trkpt>
      <trkpt lat="42.97126" lon="0.31737">
        <ele>1781.3</ele>
        <time>2026-07-07T08:21:22Z</time>
      </trkpt>
      <trkpt lat="42.97125" lon="0.31737">
        <ele>1781.3</ele>
        <time>2026-07-07T08:21:23Z</time>
      </trkpt>
      <trkpt lat="42.97125" lon="0.31737">
        <ele>1781.3</ele>
        <time>2026-07-07T08:21:24Z</time>
      </trkpt>
      <trkpt lat="42.97125" lon="0.31737">
        <ele>1781.3</ele>
        <time>2026-07-07T08:21:25Z</time>
      </trkpt>
      <trkpt lat="42.97125" lon="0.31737">
        <ele>1781.3</ele>
        <time>2026-07-07T08:21:26Z</time>
      </trkpt>
      <trkpt lat="42.97125" lon="0.31737">
        <ele>1781.3</ele>
        <time>2026-07-07T08:21:27Z</time>
      </trkpt>
      <trkpt lat="42.97125" lon="0.31737">
        <ele>1781.3</ele>
        <time>2026-07-07T08:21:28Z</time>
      </trkpt>
      <trkpt lat="42.97125" lon="0.31737">
        <ele>1782.3</ele>
        <time>2026-07-07T08:21:29Z</time>
      </trkpt>
      <trkpt lat="42.97125" lon="0.31737">
        <ele>1782.3</ele>
        <time>2026-07-07T08:21:30Z</time>
      </trkpt>
      <trkpt lat="42.97125" lon="0.31737">
        <ele>1782.3</ele>
        <time>2026-07-07T08:21:31Z</time>
      </trkpt>
      <trkpt lat="42.97125" lon="0.31737">
        <ele>1782.3</ele>
        <time>2026-07-07T08:21:32Z</time>
      </trkpt>
      <trkpt lat="42.97125" lon="0.31737">
        <ele>1782.3</ele>
        <time>2026-07-07T08:21:33Z</time>
      </trkpt>
      <trkpt lat="42.97125" lon="0.31737">
        <ele>1783.3</ele>
        <time>2026-07-07T08:21:34Z</time>
      </trkpt>
      <trkpt lat="42.97124" lon="0.31737">
        <ele>1783.3</ele>
        <time>2026-07-07T08:21:35Z</time>
      </trkpt>
      <trkpt lat="42.97124" lon="0.31737">
        <ele>1785.3</ele>
        <time>2026-07-07T08:21:36Z</time>
      </trkpt>
      <trkpt lat="42.97125" lon="0.31736">
        <ele>1785.3</ele>
        <time>2026-07-07T08:21:37Z</time>
      </trkpt>
      <trkpt lat="42.97125" lon="0.31736">
        <ele>1785.3</ele>
        <time>2026-07-07T08:21:38Z</time>
      </trkpt>
      <trkpt lat="42.97125" lon="0.31736">
        <ele>1785.3</ele>
        <time>2026-07-07T08:21:39Z</time>
      </trkpt>
      <trkpt lat="42.97125" lon="0.31735">
        <ele>1785.3</ele>
        <time>2026-07-07T08:21:40Z</time>
      </trkpt>
      <trkpt lat="42.97125" lon="0.31735">
        <ele>1785.3</ele>
        <time>2026-07-07T08:21:41Z</time>
      </trkpt>
      <trkpt lat="42.97125" lon="0.31735">
        <ele>1785.3</ele>
        <time>2026-07-07T08:21:42Z</time>
      </trkpt>
      <trkpt lat="42.97125" lon="0.31735">
        <ele>1785.3</ele>
        <time>2026-07-07T08:21:43Z</time>
      </trkpt>
      <trkpt lat="42.97125" lon="0.31735">
        <ele>1785.3</ele>
        <time>2026-07-07T08:21:44Z</time>
      </trkpt>
      <trkpt lat="42.97125" lon="0.31735">
        <ele>1785.3</ele>
        <time>2026-07-07T08:21:45Z</time>
      </trkpt>
      <trkpt lat="42.97125" lon="0.31734">
        <ele>1786.3</ele>
        <time>2026-07-07T08:21:46Z</time>
      </trkpt>
      <trkpt lat="42.97125" lon="0.31733">
        <ele>1787.3</ele>
        <time>2026-07-07T08:21:47Z</time>
      </trkpt>
      <trkpt lat="42.97125" lon="0.31732">
        <ele>1787.3</ele>
        <time>2026-07-07T08:21:48Z</time>
      </trkpt>
      <trkpt lat="42.97125" lon="0.31732">
        <ele>1787.3</ele>
        <time>2026-07-07T08:21:49Z</time>
      </trkpt>
      <trkpt lat="42.97125" lon="0.31731">
        <ele>1788.3</ele>
        <time>2026-07-07T08:21:50Z</time>
      </trkpt>
      <trkpt lat="42.97125" lon="0.31731">
        <ele>1788.3</ele>
        <time>2026-07-07T08:21:51Z</time>
      </trkpt>
      <trkpt lat="42.97125" lon="0.31731">
        <ele>1788.3</ele>
        <time>2026-07-07T08:21:52Z</time>
      </trkpt>
      <trkpt lat="42.97125" lon="0.31731">
        <ele>1789.3</ele>
        <time>2026-07-07T08:21:53Z</time>
      </trkpt>
      <trkpt lat="42.97125" lon="0.31731">
        <ele>1789.3</ele>
        <time>2026-07-07T08:21:54Z</time>
      </trkpt>
      <trkpt lat="42.97125" lon="0.31731">
        <ele>1789.3</ele>
        <time>2026-07-07T08:21:55Z</time>
      </trkpt>
      <trkpt lat="42.97125" lon="0.31731">
        <ele>1789.3</ele>
        <time>2026-07-07T08:21:56Z</time>
      </trkpt>
      <trkpt lat="42.97124" lon="0.31729">
        <ele>1788.3</ele>
        <time>2026-07-07T08:21:57Z</time>
      </trkpt>
      <trkpt lat="42.97124" lon="0.31729">
        <ele>1788.3</ele>
        <time>2026-07-07T08:21:58Z</time>
      </trkpt>
      <trkpt lat="42.97123" lon="0.31729">
        <ele>1788.3</ele>
        <time>2026-07-07T08:21:59Z</time>
      </trkpt>
      <trkpt lat="42.97123" lon="0.3173">
        <ele>1788.3</ele>
        <time>2026-07-07T08:22:00Z</time>
      </trkpt>
      <trkpt lat="42.97122" lon="0.31729">
        <ele>1788.3</ele>
        <time>2026-07-07T08:22:01Z</time>
      </trkpt>
      <trkpt lat="42.97122" lon="0.31729">
        <ele>1788.3</ele>
        <time>2026-07-07T08:22:02Z</time>
      </trkpt>
      <trkpt lat="42.97121" lon="0.31729">
        <ele>1788.3</ele>
        <time>2026-07-07T08:22:03Z</time>
      </trkpt>
      <trkpt lat="42.97121" lon="0.31729">
        <ele>1788.3</ele>
        <time>2026-07-07T08:22:04Z</time>
      </trkpt>
      <trkpt lat="42.97122" lon="0.31728">
        <ele>1788.3</ele>
        <time>2026-07-07T08:22:05Z</time>
      </trkpt>
      <trkpt lat="42.97121" lon="0.31728">
        <ele>1789.3</ele>
        <time>2026-07-07T08:22:06Z</time>
      </trkpt>
      <trkpt lat="42.97121" lon="0.31728">
        <ele>1789.3</ele>
        <time>2026-07-07T08:22:07Z</time>
      </trkpt>
      <trkpt lat="42.9712" lon="0.31727">
        <ele>1789.3</ele>
        <time>2026-07-07T08:22:08Z</time>
      </trkpt>
      <trkpt lat="42.9712" lon="0.31727">
        <ele>1788.3</ele>
        <time>2026-07-07T08:22:09Z</time>
      </trkpt>
      <trkpt lat="42.9712" lon="0.31727">
        <ele>1788.3</ele>
        <time>2026-07-07T08:22:10Z</time>
      </trkpt>
      <trkpt lat="42.9712" lon="0.31727">
        <ele>1788.3</ele>
        <time>2026-07-07T08:22:11Z</time>
      </trkpt>
      <trkpt lat="42.97119" lon="0.31725">
        <ele>1790.3</ele>
        <time>2026-07-07T08:22:12Z</time>
      </trkpt>
      <trkpt lat="42.97119" lon="0.31725">
        <ele>1790.3</ele>
        <time>2026-07-07T08:22:13Z</time>
      </trkpt>
      <trkpt lat="42.97119" lon="0.31724">
        <ele>1791.3</ele>
        <time>2026-07-07T08:22:14Z</time>
      </trkpt>
      <trkpt lat="42.97119" lon="0.31723">
        <ele>1791.3</ele>
        <time>2026-07-07T08:22:15Z</time>
      </trkpt>
      <trkpt lat="42.97119" lon="0.31723">
        <ele>1791.3</ele>
        <time>2026-07-07T08:22:16Z</time>
      </trkpt>
      <trkpt lat="42.97119" lon="0.31722">
        <ele>1791.3</ele>
        <time>2026-07-07T08:22:17Z</time>
      </trkpt>
      <trkpt lat="42.97119" lon="0.31721">
        <ele>1791.3</ele>
        <time>2026-07-07T08:22:18Z</time>
      </trkpt>
      <trkpt lat="42.97119" lon="0.31721">
        <ele>1792.3</ele>
        <time>2026-07-07T08:22:19Z</time>
      </trkpt>
      <trkpt lat="42.97119" lon="0.31721">
        <ele>1792.3</ele>
        <time>2026-07-07T08:22:20Z</time>
      </trkpt>
      <trkpt lat="42.97119" lon="0.31721">
        <ele>1792.3</ele>
        <time>2026-07-07T08:22:21Z</time>
      </trkpt>
      <trkpt lat="42.97119" lon="0.31721">
        <ele>1792.3</ele>
        <time>2026-07-07T08:22:22Z</time>
      </trkpt>
      <trkpt lat="42.97119" lon="0.31721">
        <ele>1792.3</ele>
        <time>2026-07-07T08:22:23Z</time>
      </trkpt>
      <trkpt lat="42.97119" lon="0.31721">
        <ele>1792.3</ele>
        <time>2026-07-07T08:22:24Z</time>
      </trkpt>
      <trkpt lat="42.97119" lon="0.31721">
        <ele>1792.3</ele>
        <time>2026-07-07T08:22:25Z</time>
      </trkpt>
      <trkpt lat="42.97119" lon="0.31719">
        <ele>1792.3</ele>
        <time>2026-07-07T08:22:26Z</time>
      </trkpt>
      <trkpt lat="42.97119" lon="0.31718">
        <ele>1791.3</ele>
        <time>2026-07-07T08:22:27Z</time>
      </trkpt>
      <trkpt lat="42.97119" lon="0.31717">
        <ele>1791.3</ele>
        <time>2026-07-07T08:22:28Z</time>
      </trkpt>
      <trkpt lat="42.97119" lon="0.31716">
        <ele>1792.3</ele>
        <time>2026-07-07T08:22:29Z</time>
      </trkpt>
      <trkpt lat="42.97119" lon="0.31715">
        <ele>1792.3</ele>
        <time>2026-07-07T08:22:30Z</time>
      </trkpt>
      <trkpt lat="42.9712" lon="0.31715">
        <ele>1792.3</ele>
        <time>2026-07-07T08:22:31Z</time>
      </trkpt>
      <trkpt lat="42.9712" lon="0.31715">
        <ele>1792.3</ele>
        <time>2026-07-07T08:22:32Z</time>
      </trkpt>
      <trkpt lat="42.9712" lon="0.31713">
        <ele>1792.3</ele>
        <time>2026-07-07T08:22:33Z</time>
      </trkpt>
      <trkpt lat="42.9712" lon="0.31713">
        <ele>1792.3</ele>
        <time>2026-07-07T08:22:34Z</time>
      </trkpt>
      <trkpt lat="42.9712" lon="0.31713">
        <ele>1792.3</ele>
        <time>2026-07-07T08:22:35Z</time>
      </trkpt>
      <trkpt lat="42.9712" lon="0.31713">
        <ele>1792.3</ele>
        <time>2026-07-07T08:22:36Z</time>
      </trkpt>
      <trkpt lat="42.9712" lon="0.31713">
        <ele>1792.3</ele>
        <time>2026-07-07T08:22:37Z</time>
      </trkpt>
      <trkpt lat="42.9712" lon="0.31713">
        <ele>1792.3</ele>
        <time>2026-07-07T08:22:38Z</time>
      </trkpt>
      <trkpt lat="42.97121" lon="0.31712">
        <ele>1795.3</ele>
        <time>2026-07-07T08:22:39Z</time>
      </trkpt>
      <trkpt lat="42.97121" lon="0.31712">
        <ele>1795.3</ele>
        <time>2026-07-07T08:22:40Z</time>
      </trkpt>
      <trkpt lat="42.97121" lon="0.31711">
        <ele>1796.3</ele>
        <time>2026-07-07T08:22:41Z</time>
      </trkpt>
      <trkpt lat="42.97121" lon="0.31711">
        <ele>1797.3</ele>
        <time>2026-07-07T08:22:42Z</time>
      </trkpt>
      <trkpt lat="42.97121" lon="0.31711">
        <ele>1797.3</ele>
        <time>2026-07-07T08:22:43Z</time>
      </trkpt>
      <trkpt lat="42.97121" lon="0.31711">
        <ele>1797.3</ele>
        <time>2026-07-07T08:22:44Z</time>
      </trkpt>
      <trkpt lat="42.97121" lon="0.31711">
        <ele>1797.3</ele>
        <time>2026-07-07T08:22:45Z</time>
      </trkpt>
      <trkpt lat="42.97121" lon="0.31711">
        <ele>1797.3</ele>
        <time>2026-07-07T08:22:46Z</time>
      </trkpt>
      <trkpt lat="42.97123" lon="0.31711">
        <ele>1797.3</ele>
        <time>2026-07-07T08:22:47Z</time>
      </trkpt>
      <trkpt lat="42.97123" lon="0.3171">
        <ele>1798.3</ele>
        <time>2026-07-07T08:22:48Z</time>
      </trkpt>
      <trkpt lat="42.97123" lon="0.3171">
        <ele>1797.3</ele>
        <time>2026-07-07T08:22:49Z</time>
      </trkpt>
      <trkpt lat="42.97123" lon="0.3171">
        <ele>1798.3</ele>
        <time>2026-07-07T08:22:50Z</time>
      </trkpt>
      <trkpt lat="42.97123" lon="0.31709">
        <ele>1798.3</ele>
        <time>2026-07-07T08:22:51Z</time>
      </trkpt>
      <trkpt lat="42.97124" lon="0.31709">
        <ele>1798.3</ele>
        <time>2026-07-07T08:22:52Z</time>
      </trkpt>
      <trkpt lat="42.97124" lon="0.31708">
        <ele>1798.3</ele>
        <time>2026-07-07T08:22:53Z</time>
      </trkpt>
      <trkpt lat="42.97124" lon="0.31708">
        <ele>1798.3</ele>
        <time>2026-07-07T08:22:54Z</time>
      </trkpt>
      <trkpt lat="42.97125" lon="0.31708">
        <ele>1798.3</ele>
        <time>2026-07-07T08:22:55Z</time>
      </trkpt>
      <trkpt lat="42.97125" lon="0.31707">
        <ele>1798.3</ele>
        <time>2026-07-07T08:22:56Z</time>
      </trkpt>
      <trkpt lat="42.97125" lon="0.31706">
        <ele>1798.3</ele>
        <time>2026-07-07T08:22:57Z</time>
      </trkpt>
      <trkpt lat="42.97125" lon="0.31706">
        <ele>1798.3</ele>
        <time>2026-07-07T08:22:58Z</time>
      </trkpt>
      <trkpt lat="42.97126" lon="0.31706">
        <ele>1798.3</ele>
        <time>2026-07-07T08:22:59Z</time>
      </trkpt>
      <trkpt lat="42.97126" lon="0.31706">
        <ele>1798.3</ele>
        <time>2026-07-07T08:23:00Z</time>
      </trkpt>
      <trkpt lat="42.97126" lon="0.31706">
        <ele>1798.3</ele>
        <time>2026-07-07T08:23:01Z</time>
      </trkpt>
      <trkpt lat="42.97126" lon="0.31705">
        <ele>1799.3</ele>
        <time>2026-07-07T08:23:02Z</time>
      </trkpt>
      <trkpt lat="42.97126" lon="0.31704">
        <ele>1799.3</ele>
        <time>2026-07-07T08:23:03Z</time>
      </trkpt>
      <trkpt lat="42.97127" lon="0.31704">
        <ele>1799.3</ele>
        <time>2026-07-07T08:23:04Z</time>
      </trkpt>
      <trkpt lat="42.97127" lon="0.31703">
        <ele>1798.3</ele>
        <time>2026-07-07T08:23:05Z</time>
      </trkpt>
      <trkpt lat="42.97127" lon="0.31703">
        <ele>1798.3</ele>
        <time>2026-07-07T08:23:06Z</time>
      </trkpt>
      <trkpt lat="42.97127" lon="0.31703">
        <ele>1799.3</ele>
        <time>2026-07-07T08:23:07Z</time>
      </trkpt>
      <trkpt lat="42.97128" lon="0.31703">
        <ele>1799.3</ele>
        <time>2026-07-07T08:23:08Z</time>
      </trkpt>
      <trkpt lat="42.97128" lon="0.31703">
        <ele>1799.3</ele>
        <time>2026-07-07T08:23:09Z</time>
      </trkpt>
      <trkpt lat="42.97128" lon="0.31703">
        <ele>1799.3</ele>
        <time>2026-07-07T08:23:10Z</time>
      </trkpt>
      <trkpt lat="42.97128" lon="0.31703">
        <ele>1799.3</ele>
        <time>2026-07-07T08:23:11Z</time>
      </trkpt>
      <trkpt lat="42.97128" lon="0.31703">
        <ele>1799.3</ele>
        <time>2026-07-07T08:23:12Z</time>
      </trkpt>
      <trkpt lat="42.97128" lon="0.31701">
        <ele>1799.3</ele>
        <time>2026-07-07T08:23:13Z</time>
      </trkpt>
      <trkpt lat="42.97128" lon="0.31701">
        <ele>1798.3</ele>
        <time>2026-07-07T08:23:14Z</time>
      </trkpt>
      <trkpt lat="42.97128" lon="0.31701">
        <ele>1798.3</ele>
        <time>2026-07-07T08:23:15Z</time>
      </trkpt>
      <trkpt lat="42.97128" lon="0.317">
        <ele>1798.3</ele>
        <time>2026-07-07T08:23:16Z</time>
      </trkpt>
      <trkpt lat="42.97128" lon="0.317">
        <ele>1799.3</ele>
        <time>2026-07-07T08:23:17Z</time>
      </trkpt>
      <trkpt lat="42.97128" lon="0.317">
        <ele>1799.3</ele>
        <time>2026-07-07T08:23:18Z</time>
      </trkpt>
      <trkpt lat="42.97129" lon="0.31699">
        <ele>1799.3</ele>
        <time>2026-07-07T08:23:19Z</time>
      </trkpt>
      <trkpt lat="42.97129" lon="0.31699">
        <ele>1799.3</ele>
        <time>2026-07-07T08:23:20Z</time>
      </trkpt>
      <trkpt lat="42.9713" lon="0.31698">
        <ele>1799.3</ele>
        <time>2026-07-07T08:23:21Z</time>
      </trkpt>
      <trkpt lat="42.97131" lon="0.31698">
        <ele>1800.3</ele>
        <time>2026-07-07T08:23:22Z</time>
      </trkpt>
      <trkpt lat="42.97131" lon="0.31697">
        <ele>1799.3</ele>
        <time>2026-07-07T08:23:23Z</time>
      </trkpt>
      <trkpt lat="42.97131" lon="0.31696">
        <ele>1800.3</ele>
        <time>2026-07-07T08:23:24Z</time>
      </trkpt>
      <trkpt lat="42.97131" lon="0.31696">
        <ele>1800.3</ele>
        <time>2026-07-07T08:23:25Z</time>
      </trkpt>
      <trkpt lat="42.97132" lon="0.31695">
        <ele>1800.3</ele>
        <time>2026-07-07T08:23:26Z</time>
      </trkpt>
      <trkpt lat="42.97132" lon="0.31695">
        <ele>1800.3</ele>
        <time>2026-07-07T08:23:27Z</time>
      </trkpt>
      <trkpt lat="42.97132" lon="0.31694">
        <ele>1800.3</ele>
        <time>2026-07-07T08:23:28Z</time>
      </trkpt>
      <trkpt lat="42.97131" lon="0.31694">
        <ele>1800.3</ele>
        <time>2026-07-07T08:23:29Z</time>
      </trkpt>
      <trkpt lat="42.97131" lon="0.31694">
        <ele>1800.3</ele>
        <time>2026-07-07T08:23:30Z</time>
      </trkpt>
      <trkpt lat="42.97131" lon="0.31694">
        <ele>1800.3</ele>
        <time>2026-07-07T08:23:31Z</time>
      </trkpt>
      <trkpt lat="42.97131" lon="0.31693">
        <ele>1802.3</ele>
        <time>2026-07-07T08:23:32Z</time>
      </trkpt>
      <trkpt lat="42.97132" lon="0.31693">
        <ele>1802.3</ele>
        <time>2026-07-07T08:23:33Z</time>
      </trkpt>
      <trkpt lat="42.97132" lon="0.31692">
        <ele>1803.3</ele>
        <time>2026-07-07T08:23:34Z</time>
      </trkpt>
      <trkpt lat="42.97132" lon="0.31692">
        <ele>1804.3</ele>
        <time>2026-07-07T08:23:35Z</time>
      </trkpt>
      <trkpt lat="42.97132" lon="0.31692">
        <ele>1804.3</ele>
        <time>2026-07-07T08:23:36Z</time>
      </trkpt>
      <trkpt lat="42.97132" lon="0.31692">
        <ele>1804.3</ele>
        <time>2026-07-07T08:23:37Z</time>
      </trkpt>
      <trkpt lat="42.97131" lon="0.31692">
        <ele>1804.3</ele>
        <time>2026-07-07T08:23:38Z</time>
      </trkpt>
      <trkpt lat="42.97131" lon="0.31692">
        <ele>1804.3</ele>
        <time>2026-07-07T08:23:39Z</time>
      </trkpt>
      <trkpt lat="42.97131" lon="0.31692">
        <ele>1804.3</ele>
        <time>2026-07-07T08:23:40Z</time>
      </trkpt>
      <trkpt lat="42.97132" lon="0.31692">
        <ele>1803.3</ele>
        <time>2026-07-07T08:23:41Z</time>
      </trkpt>
      <trkpt lat="42.97132" lon="0.31691">
        <ele>1803.3</ele>
        <time>2026-07-07T08:23:42Z</time>
      </trkpt>
      <trkpt lat="42.97132" lon="0.3169">
        <ele>1804.3</ele>
        <time>2026-07-07T08:23:43Z</time>
      </trkpt>
      <trkpt lat="42.97132" lon="0.3169">
        <ele>1805.3</ele>
        <time>2026-07-07T08:23:44Z</time>
      </trkpt>
      <trkpt lat="42.97132" lon="0.3169">
        <ele>1805.3</ele>
        <time>2026-07-07T08:23:45Z</time>
      </trkpt>
      <trkpt lat="42.97132" lon="0.31689">
        <ele>1805.3</ele>
        <time>2026-07-07T08:23:46Z</time>
      </trkpt>
      <trkpt lat="42.97132" lon="0.31689">
        <ele>1805.3</ele>
        <time>2026-07-07T08:23:47Z</time>
      </trkpt>
      <trkpt lat="42.97132" lon="0.31688">
        <ele>1805.3</ele>
        <time>2026-07-07T08:23:48Z</time>
      </trkpt>
      <trkpt lat="42.97132" lon="0.31688">
        <ele>1805.3</ele>
        <time>2026-07-07T08:23:49Z</time>
      </trkpt>
      <trkpt lat="42.97132" lon="0.31687">
        <ele>1804.3</ele>
        <time>2026-07-07T08:23:50Z</time>
      </trkpt>
      <trkpt lat="42.97132" lon="0.31687">
        <ele>1804.3</ele>
        <time>2026-07-07T08:23:51Z</time>
      </trkpt>
      <trkpt lat="42.97132" lon="0.31686">
        <ele>1804.3</ele>
        <time>2026-07-07T08:23:52Z</time>
      </trkpt>
      <trkpt lat="42.97132" lon="0.31686">
        <ele>1804.3</ele>
        <time>2026-07-07T08:23:53Z</time>
      </trkpt>
      <trkpt lat="42.97133" lon="0.31685">
        <ele>1804.3</ele>
        <time>2026-07-07T08:23:54Z</time>
      </trkpt>
      <trkpt lat="42.97132" lon="0.31684">
        <ele>1804.3</ele>
        <time>2026-07-07T08:23:55Z</time>
      </trkpt>
      <trkpt lat="42.97132" lon="0.31684">
        <ele>1805.3</ele>
        <time>2026-07-07T08:23:56Z</time>
      </trkpt>
      <trkpt lat="42.97133" lon="0.31683">
        <ele>1805.3</ele>
        <time>2026-07-07T08:23:57Z</time>
      </trkpt>
      <trkpt lat="42.97133" lon="0.31682">
        <ele>1806.3</ele>
        <time>2026-07-07T08:23:58Z</time>
      </trkpt>
      <trkpt lat="42.97134" lon="0.31681">
        <ele>1807.3</ele>
        <time>2026-07-07T08:23:59Z</time>
      </trkpt>
      <trkpt lat="42.97134" lon="0.3168">
        <ele>1808.3</ele>
        <time>2026-07-07T08:24:00Z</time>
      </trkpt>
      <trkpt lat="42.97135" lon="0.3168">
        <ele>1808.3</ele>
        <time>2026-07-07T08:24:01Z</time>
      </trkpt>
      <trkpt lat="42.97134" lon="0.31679">
        <ele>1808.3</ele>
        <time>2026-07-07T08:24:02Z</time>
      </trkpt>
      <trkpt lat="42.97135" lon="0.31678">
        <ele>1808.3</ele>
        <time>2026-07-07T08:24:03Z</time>
      </trkpt>
      <trkpt lat="42.97135" lon="0.31678">
        <ele>1809.3</ele>
        <time>2026-07-07T08:24:04Z</time>
      </trkpt>
      <trkpt lat="42.97136" lon="0.31677">
        <ele>1808.3</ele>
        <time>2026-07-07T08:24:05Z</time>
      </trkpt>
      <trkpt lat="42.97136" lon="0.31677">
        <ele>1809.3</ele>
        <time>2026-07-07T08:24:06Z</time>
      </trkpt>
      <trkpt lat="42.97136" lon="0.31676">
        <ele>1809.3</ele>
        <time>2026-07-07T08:24:07Z</time>
      </trkpt>
      <trkpt lat="42.97137" lon="0.31675">
        <ele>1809.3</ele>
        <time>2026-07-07T08:24:08Z</time>
      </trkpt>
      <trkpt lat="42.97137" lon="0.31675">
        <ele>1810.3</ele>
        <time>2026-07-07T08:24:09Z</time>
      </trkpt>
      <trkpt lat="42.97137" lon="0.31674">
        <ele>1810.3</ele>
        <time>2026-07-07T08:24:10Z</time>
      </trkpt>
      <trkpt lat="42.97138" lon="0.31674">
        <ele>1810.3</ele>
        <time>2026-07-07T08:24:11Z</time>
      </trkpt>
      <trkpt lat="42.97139" lon="0.31674">
        <ele>1810.3</ele>
        <time>2026-07-07T08:24:12Z</time>
      </trkpt>
      <trkpt lat="42.97139" lon="0.31673">
        <ele>1811.3</ele>
        <time>2026-07-07T08:24:13Z</time>
      </trkpt>
      <trkpt lat="42.97139" lon="0.31674">
        <ele>1811.3</ele>
        <time>2026-07-07T08:24:14Z</time>
      </trkpt>
      <trkpt lat="42.9714" lon="0.31673">
        <ele>1810.3</ele>
        <time>2026-07-07T08:24:15Z</time>
      </trkpt>
      <trkpt lat="42.9714" lon="0.31672">
        <ele>1810.3</ele>
        <time>2026-07-07T08:24:16Z</time>
      </trkpt>
      <trkpt lat="42.9714" lon="0.31671">
        <ele>1810.3</ele>
        <time>2026-07-07T08:24:17Z</time>
      </trkpt>
      <trkpt lat="42.9714" lon="0.31671">
        <ele>1811.3</ele>
        <time>2026-07-07T08:24:18Z</time>
      </trkpt>
      <trkpt lat="42.9714" lon="0.31671">
        <ele>1810.3</ele>
        <time>2026-07-07T08:24:19Z</time>
      </trkpt>
      <trkpt lat="42.9714" lon="0.31671">
        <ele>1810.3</ele>
        <time>2026-07-07T08:24:20Z</time>
      </trkpt>
      <trkpt lat="42.9714" lon="0.31671">
        <ele>1810.3</ele>
        <time>2026-07-07T08:24:21Z</time>
      </trkpt>
      <trkpt lat="42.97141" lon="0.31671">
        <ele>1812.3</ele>
        <time>2026-07-07T08:24:22Z</time>
      </trkpt>
      <trkpt lat="42.97142" lon="0.3167">
        <ele>1812.3</ele>
        <time>2026-07-07T08:24:23Z</time>
      </trkpt>
      <trkpt lat="42.97143" lon="0.31671">
        <ele>1812.3</ele>
        <time>2026-07-07T08:24:24Z</time>
      </trkpt>
      <trkpt lat="42.97143" lon="0.31671">
        <ele>1811.3</ele>
        <time>2026-07-07T08:24:25Z</time>
      </trkpt>
      <trkpt lat="42.97143" lon="0.31671">
        <ele>1811.3</ele>
        <time>2026-07-07T08:24:26Z</time>
      </trkpt>
      <trkpt lat="42.97143" lon="0.31671">
        <ele>1811.3</ele>
        <time>2026-07-07T08:24:27Z</time>
      </trkpt>
      <trkpt lat="42.97143" lon="0.31671">
        <ele>1811.3</ele>
        <time>2026-07-07T08:24:28Z</time>
      </trkpt>
      <trkpt lat="42.97143" lon="0.3167">
        <ele>1811.3</ele>
        <time>2026-07-07T08:24:29Z</time>
      </trkpt>
      <trkpt lat="42.97144" lon="0.3167">
        <ele>1812.3</ele>
        <time>2026-07-07T08:24:30Z</time>
      </trkpt>
      <trkpt lat="42.97144" lon="0.3167">
        <ele>1812.3</ele>
        <time>2026-07-07T08:24:31Z</time>
      </trkpt>
      <trkpt lat="42.97144" lon="0.3167">
        <ele>1812.3</ele>
        <time>2026-07-07T08:24:32Z</time>
      </trkpt>
      <trkpt lat="42.97145" lon="0.3167">
        <ele>1812.3</ele>
        <time>2026-07-07T08:24:33Z</time>
      </trkpt>
      <trkpt lat="42.97145" lon="0.31669">
        <ele>1812.3</ele>
        <time>2026-07-07T08:24:34Z</time>
      </trkpt>
      <trkpt lat="42.97145" lon="0.31669">
        <ele>1812.3</ele>
        <time>2026-07-07T08:24:35Z</time>
      </trkpt>
      <trkpt lat="42.97145" lon="0.31669">
        <ele>1812.3</ele>
        <time>2026-07-07T08:24:36Z</time>
      </trkpt>
      <trkpt lat="42.97145" lon="0.31669">
        <ele>1812.3</ele>
        <time>2026-07-07T08:24:37Z</time>
      </trkpt>
      <trkpt lat="42.97146" lon="0.31668">
        <ele>1812.3</ele>
        <time>2026-07-07T08:24:38Z</time>
      </trkpt>
      <trkpt lat="42.97146" lon="0.31667">
        <ele>1812.3</ele>
        <time>2026-07-07T08:24:39Z</time>
      </trkpt>
      <trkpt lat="42.97146" lon="0.31667">
        <ele>1813.3</ele>
        <time>2026-07-07T08:24:40Z</time>
      </trkpt>
      <trkpt lat="42.97146" lon="0.31667">
        <ele>1813.3</ele>
        <time>2026-07-07T08:24:41Z</time>
      </trkpt>
      <trkpt lat="42.97147" lon="0.31667">
        <ele>1813.3</ele>
        <time>2026-07-07T08:24:42Z</time>
      </trkpt>
      <trkpt lat="42.97147" lon="0.31667">
        <ele>1814.3</ele>
        <time>2026-07-07T08:24:43Z</time>
      </trkpt>
      <trkpt lat="42.97148" lon="0.31666">
        <ele>1814.3</ele>
        <time>2026-07-07T08:24:44Z</time>
      </trkpt>
      <trkpt lat="42.97148" lon="0.31666">
        <ele>1815.3</ele>
        <time>2026-07-07T08:24:45Z</time>
      </trkpt>
      <trkpt lat="42.97148" lon="0.31666">
        <ele>1814.3</ele>
        <time>2026-07-07T08:24:46Z</time>
      </trkpt>
      <trkpt lat="42.97148" lon="0.31665">
        <ele>1814.3</ele>
        <time>2026-07-07T08:24:47Z</time>
      </trkpt>
      <trkpt lat="42.97148" lon="0.31665">
        <ele>1814.3</ele>
        <time>2026-07-07T08:24:48Z</time>
      </trkpt>
      <trkpt lat="42.97149" lon="0.31666">
        <ele>1815.3</ele>
        <time>2026-07-07T08:24:49Z</time>
      </trkpt>
      <trkpt lat="42.97149" lon="0.31666">
        <ele>1815.3</ele>
        <time>2026-07-07T08:24:50Z</time>
      </trkpt>
      <trkpt lat="42.97149" lon="0.31666">
        <ele>1815.3</ele>
        <time>2026-07-07T08:24:51Z</time>
      </trkpt>
      <trkpt lat="42.9715" lon="0.31665">
        <ele>1815.3</ele>
        <time>2026-07-07T08:24:52Z</time>
      </trkpt>
      <trkpt lat="42.97151" lon="0.31664">
        <ele>1815.3</ele>
        <time>2026-07-07T08:24:53Z</time>
      </trkpt>
      <trkpt lat="42.97151" lon="0.31665">
        <ele>1815.3</ele>
        <time>2026-07-07T08:24:54Z</time>
      </trkpt>
      <trkpt lat="42.97151" lon="0.31665">
        <ele>1816.3</ele>
        <time>2026-07-07T08:24:55Z</time>
      </trkpt>
      <trkpt lat="42.97152" lon="0.31664">
        <ele>1816.3</ele>
        <time>2026-07-07T08:24:56Z</time>
      </trkpt>
      <trkpt lat="42.97152" lon="0.31663">
        <ele>1816.3</ele>
        <time>2026-07-07T08:24:57Z</time>
      </trkpt>
      <trkpt lat="42.97152" lon="0.31663">
        <ele>1816.3</ele>
        <time>2026-07-07T08:24:58Z</time>
      </trkpt>
      <trkpt lat="42.97152" lon="0.31662">
        <ele>1816.3</ele>
        <time>2026-07-07T08:24:59Z</time>
      </trkpt>
      <trkpt lat="42.97153" lon="0.31662">
        <ele>1816.3</ele>
        <time>2026-07-07T08:25:00Z</time>
      </trkpt>
      <trkpt lat="42.97153" lon="0.31661">
        <ele>1816.3</ele>
        <time>2026-07-07T08:25:01Z</time>
      </trkpt>
      <trkpt lat="42.97153" lon="0.3166">
        <ele>1816.3</ele>
        <time>2026-07-07T08:25:02Z</time>
      </trkpt>
      <trkpt lat="42.97153" lon="0.3166">
        <ele>1817.3</ele>
        <time>2026-07-07T08:25:03Z</time>
      </trkpt>
      <trkpt lat="42.97154" lon="0.3166">
        <ele>1817.3</ele>
        <time>2026-07-07T08:25:04Z</time>
      </trkpt>
      <trkpt lat="42.97154" lon="0.31659">
        <ele>1817.3</ele>
        <time>2026-07-07T08:25:05Z</time>
      </trkpt>
      <trkpt lat="42.97155" lon="0.31659">
        <ele>1816.3</ele>
        <time>2026-07-07T08:25:06Z</time>
      </trkpt>
      <trkpt lat="42.97155" lon="0.31659">
        <ele>1817.3</ele>
        <time>2026-07-07T08:25:07Z</time>
      </trkpt>
      <trkpt lat="42.97155" lon="0.31658">
        <ele>1817.3</ele>
        <time>2026-07-07T08:25:08Z</time>
      </trkpt>
      <trkpt lat="42.97156" lon="0.31658">
        <ele>1817.3</ele>
        <time>2026-07-07T08:25:09Z</time>
      </trkpt>
      <trkpt lat="42.97156" lon="0.31657">
        <ele>1817.3</ele>
        <time>2026-07-07T08:25:10Z</time>
      </trkpt>
      <trkpt lat="42.97157" lon="0.31657">
        <ele>1817.3</ele>
        <time>2026-07-07T08:25:11Z</time>
      </trkpt>
      <trkpt lat="42.97157" lon="0.31656">
        <ele>1817.3</ele>
        <time>2026-07-07T08:25:12Z</time>
      </trkpt>
      <trkpt lat="42.97158" lon="0.31656">
        <ele>1817.3</ele>
        <time>2026-07-07T08:25:13Z</time>
      </trkpt>
      <trkpt lat="42.97158" lon="0.31656">
        <ele>1818.3</ele>
        <time>2026-07-07T08:25:14Z</time>
      </trkpt>
      <trkpt lat="42.97158" lon="0.31656">
        <ele>1818.3</ele>
        <time>2026-07-07T08:25:15Z</time>
      </trkpt>
      <trkpt lat="42.97158" lon="0.31656">
        <ele>1818.3</ele>
        <time>2026-07-07T08:25:16Z</time>
      </trkpt>
      <trkpt lat="42.97158" lon="0.31656">
        <ele>1818.3</ele>
        <time>2026-07-07T08:25:17Z</time>
      </trkpt>
      <trkpt lat="42.97159" lon="0.31655">
        <ele>1819.3</ele>
        <time>2026-07-07T08:25:18Z</time>
      </trkpt>
      <trkpt lat="42.9716" lon="0.31654">
        <ele>1819.3</ele>
        <time>2026-07-07T08:25:19Z</time>
      </trkpt>
      <trkpt lat="42.9716" lon="0.31654">
        <ele>1819.3</ele>
        <time>2026-07-07T08:25:20Z</time>
      </trkpt>
      <trkpt lat="42.9716" lon="0.31654">
        <ele>1820.3</ele>
        <time>2026-07-07T08:25:21Z</time>
      </trkpt>
      <trkpt lat="42.97161" lon="0.31653">
        <ele>1819.3</ele>
        <time>2026-07-07T08:25:22Z</time>
      </trkpt>
      <trkpt lat="42.97161" lon="0.31653">
        <ele>1819.3</ele>
        <time>2026-07-07T08:25:23Z</time>
      </trkpt>
      <trkpt lat="42.97161" lon="0.31653">
        <ele>1819.3</ele>
        <time>2026-07-07T08:25:24Z</time>
      </trkpt>
      <trkpt lat="42.97161" lon="0.31653">
        <ele>1819.3</ele>
        <time>2026-07-07T08:25:25Z</time>
      </trkpt>
      <trkpt lat="42.97161" lon="0.31653">
        <ele>1819.3</ele>
        <time>2026-07-07T08:25:26Z</time>
      </trkpt>
      <trkpt lat="42.97161" lon="0.31653">
        <ele>1819.3</ele>
        <time>2026-07-07T08:25:27Z</time>
      </trkpt>
      <trkpt lat="42.97161" lon="0.31653">
        <ele>1819.3</ele>
        <time>2026-07-07T08:25:28Z</time>
      </trkpt>
      <trkpt lat="42.97161" lon="0.31653">
        <ele>1819.3</ele>
        <time>2026-07-07T08:25:29Z</time>
      </trkpt>
      <trkpt lat="42.97161" lon="0.31653">
        <ele>1819.3</ele>
        <time>2026-07-07T08:25:30Z</time>
      </trkpt>
      <trkpt lat="42.97163" lon="0.31652">
        <ele>1820.3</ele>
        <time>2026-07-07T08:25:31Z</time>
      </trkpt>
      <trkpt lat="42.97164" lon="0.31651">
        <ele>1820.3</ele>
        <time>2026-07-07T08:25:32Z</time>
      </trkpt>
      <trkpt lat="42.97164" lon="0.31651">
        <ele>1820.3</ele>
        <time>2026-07-07T08:25:33Z</time>
      </trkpt>
      <trkpt lat="42.97164" lon="0.31651">
        <ele>1820.3</ele>
        <time>2026-07-07T08:25:34Z</time>
      </trkpt>
      <trkpt lat="42.97164" lon="0.31651">
        <ele>1820.3</ele>
        <time>2026-07-07T08:25:35Z</time>
      </trkpt>
      <trkpt lat="42.97165" lon="0.31651">
        <ele>1819.3</ele>
        <time>2026-07-07T08:25:36Z</time>
      </trkpt>
      <trkpt lat="42.97165" lon="0.31651">
        <ele>1819.3</ele>
        <time>2026-07-07T08:25:37Z</time>
      </trkpt>
      <trkpt lat="42.97165" lon="0.31651">
        <ele>1819.3</ele>
        <time>2026-07-07T08:25:38Z</time>
      </trkpt>
      <trkpt lat="42.97165" lon="0.31651">
        <ele>1819.3</ele>
        <time>2026-07-07T08:25:39Z</time>
      </trkpt>
      <trkpt lat="42.97165" lon="0.31651">
        <ele>1819.3</ele>
        <time>2026-07-07T08:25:40Z</time>
      </trkpt>
      <trkpt lat="42.97165" lon="0.31651">
        <ele>1819.3</ele>
        <time>2026-07-07T08:25:41Z</time>
      </trkpt>
      <trkpt lat="42.97165" lon="0.31652">
        <ele>1820.3</ele>
        <time>2026-07-07T08:25:42Z</time>
      </trkpt>
      <trkpt lat="42.97165" lon="0.31652">
        <ele>1820.3</ele>
        <time>2026-07-07T08:25:43Z</time>
      </trkpt>
      <trkpt lat="42.97165" lon="0.31652">
        <ele>1820.3</ele>
        <time>2026-07-07T08:25:44Z</time>
      </trkpt>
      <trkpt lat="42.97165" lon="0.31652">
        <ele>1820.3</ele>
        <time>2026-07-07T08:25:45Z</time>
      </trkpt>
      <trkpt lat="42.97165" lon="0.31652">
        <ele>1820.3</ele>
        <time>2026-07-07T08:25:46Z</time>
      </trkpt>
      <trkpt lat="42.97165" lon="0.31652">
        <ele>1820.3</ele>
        <time>2026-07-07T08:25:47Z</time>
      </trkpt>
      <trkpt lat="42.97165" lon="0.31652">
        <ele>1820.3</ele>
        <time>2026-07-07T08:25:48Z</time>
      </trkpt>
      <trkpt lat="42.97165" lon="0.31652">
        <ele>1820.3</ele>
        <time>2026-07-07T08:25:49Z</time>
      </trkpt>
      <trkpt lat="42.97165" lon="0.31652">
        <ele>1820.3</ele>
        <time>2026-07-07T08:25:50Z</time>
      </trkpt>
      <trkpt lat="42.97165" lon="0.31652">
        <ele>1820.3</ele>
        <time>2026-07-07T08:25:51Z</time>
      </trkpt>
      <trkpt lat="42.97165" lon="0.31652">
        <ele>1820.3</ele>
        <time>2026-07-07T08:25:52Z</time>
      </trkpt>
      <trkpt lat="42.97165" lon="0.31652">
        <ele>1820.3</ele>
        <time>2026-07-07T08:25:53Z</time>
      </trkpt>
      <trkpt lat="42.97165" lon="0.31652">
        <ele>1820.3</ele>
        <time>2026-07-07T08:25:54Z</time>
      </trkpt>
      <trkpt lat="42.97165" lon="0.31652">
        <ele>1820.3</ele>
        <time>2026-07-07T08:25:55Z</time>
      </trkpt>
      <trkpt lat="42.97165" lon="0.31652">
        <ele>1820.3</ele>
        <time>2026-07-07T08:25:56Z</time>
      </trkpt>
      <trkpt lat="42.97165" lon="0.31652">
        <ele>1820.3</ele>
        <time>2026-07-07T08:25:57Z</time>
      </trkpt>
      <trkpt lat="42.97165" lon="0.31652">
        <ele>1820.3</ele>
        <time>2026-07-07T08:25:58Z</time>
      </trkpt>
      <trkpt lat="42.97167" lon="0.31652">
        <ele>1821.3</ele>
        <time>2026-07-07T08:25:59Z</time>
      </trkpt>
      <trkpt lat="42.97167" lon="0.31651">
        <ele>1821.3</ele>
        <time>2026-07-07T08:26:00Z</time>
      </trkpt>
      <trkpt lat="42.97167" lon="0.31651">
        <ele>1822.3</ele>
        <time>2026-07-07T08:26:01Z</time>
      </trkpt>
      <trkpt lat="42.97168" lon="0.31651">
        <ele>1823.3</ele>
        <time>2026-07-07T08:26:02Z</time>
      </trkpt>
      <trkpt lat="42.97168" lon="0.31651">
        <ele>1824.3</ele>
        <time>2026-07-07T08:26:03Z</time>
      </trkpt>
      <trkpt lat="42.97168" lon="0.31651">
        <ele>1824.3</ele>
        <time>2026-07-07T08:26:04Z</time>
      </trkpt>
      <trkpt lat="42.97168" lon="0.3165">
        <ele>1824.3</ele>
        <time>2026-07-07T08:26:05Z</time>
      </trkpt>
      <trkpt lat="42.97169" lon="0.3165">
        <ele>1824.3</ele>
        <time>2026-07-07T08:26:06Z</time>
      </trkpt>
      <trkpt lat="42.97169" lon="0.3165">
        <ele>1824.3</ele>
        <time>2026-07-07T08:26:07Z</time>
      </trkpt>
      <trkpt lat="42.97169" lon="0.3165">
        <ele>1824.3</ele>
        <time>2026-07-07T08:26:08Z</time>
      </trkpt>
      <trkpt lat="42.97169" lon="0.31649">
        <ele>1825.3</ele>
        <time>2026-07-07T08:26:09Z</time>
      </trkpt>
      <trkpt lat="42.9717" lon="0.31649">
        <ele>1825.3</ele>
        <time>2026-07-07T08:26:10Z</time>
      </trkpt>
      <trkpt lat="42.97171" lon="0.31649">
        <ele>1824.3</ele>
        <time>2026-07-07T08:26:11Z</time>
      </trkpt>
      <trkpt lat="42.97171" lon="0.31648">
        <ele>1824.3</ele>
        <time>2026-07-07T08:26:12Z</time>
      </trkpt>
      <trkpt lat="42.97171" lon="0.31649">
        <ele>1825.3</ele>
        <time>2026-07-07T08:26:13Z</time>
      </trkpt>
      <trkpt lat="42.97172" lon="0.31648">
        <ele>1825.3</ele>
        <time>2026-07-07T08:26:14Z</time>
      </trkpt>
      <trkpt lat="42.97172" lon="0.31647">
        <ele>1825.3</ele>
        <time>2026-07-07T08:26:15Z</time>
      </trkpt>
      <trkpt lat="42.97173" lon="0.31647">
        <ele>1825.3</ele>
        <time>2026-07-07T08:26:16Z</time>
      </trkpt>
      <trkpt lat="42.97174" lon="0.31647">
        <ele>1826.3</ele>
        <time>2026-07-07T08:26:17Z</time>
      </trkpt>
      <trkpt lat="42.97174" lon="0.31647">
        <ele>1826.3</ele>
        <time>2026-07-07T08:26:18Z</time>
      </trkpt>
      <trkpt lat="42.97174" lon="0.31647">
        <ele>1826.3</ele>
        <time>2026-07-07T08:26:19Z</time>
      </trkpt>
      <trkpt lat="42.97174" lon="0.31646">
        <ele>1825.3</ele>
        <time>2026-07-07T08:26:20Z</time>
      </trkpt>
      <trkpt lat="42.97174" lon="0.31646">
        <ele>1825.3</ele>
        <time>2026-07-07T08:26:21Z</time>
      </trkpt>
      <trkpt lat="42.97174" lon="0.31646">
        <ele>1825.3</ele>
        <time>2026-07-07T08:26:22Z</time>
      </trkpt>
      <trkpt lat="42.97175" lon="0.31645">
        <ele>1826.3</ele>
        <time>2026-07-07T08:26:23Z</time>
      </trkpt>
      <trkpt lat="42.97176" lon="0.31645">
        <ele>1826.3</ele>
        <time>2026-07-07T08:26:24Z</time>
      </trkpt>
      <trkpt lat="42.97176" lon="0.31645">
        <ele>1826.3</ele>
        <time>2026-07-07T08:26:25Z</time>
      </trkpt>
      <trkpt lat="42.97176" lon="0.31645">
        <ele>1826.3</ele>
        <time>2026-07-07T08:26:26Z</time>
      </trkpt>
      <trkpt lat="42.97176" lon="0.31645">
        <ele>1825.3</ele>
        <time>2026-07-07T08:26:27Z</time>
      </trkpt>
      <trkpt lat="42.97177" lon="0.31645">
        <ele>1825.3</ele>
        <time>2026-07-07T08:26:28Z</time>
      </trkpt>
      <trkpt lat="42.97177" lon="0.31645">
        <ele>1826.3</ele>
        <time>2026-07-07T08:26:29Z</time>
      </trkpt>
      <trkpt lat="42.97178" lon="0.31645">
        <ele>1826.3</ele>
        <time>2026-07-07T08:26:30Z</time>
      </trkpt>
      <trkpt lat="42.97178" lon="0.31645">
        <ele>1827.3</ele>
        <time>2026-07-07T08:26:31Z</time>
      </trkpt>
      <trkpt lat="42.97178" lon="0.31645">
        <ele>1827.3</ele>
        <time>2026-07-07T08:26:32Z</time>
      </trkpt>
      <trkpt lat="42.97178" lon="0.31645">
        <ele>1827.3</ele>
        <time>2026-07-07T08:26:33Z</time>
      </trkpt>
      <trkpt lat="42.97178" lon="0.31645">
        <ele>1827.3</ele>
        <time>2026-07-07T08:26:34Z</time>
      </trkpt>
      <trkpt lat="42.97178" lon="0.31645">
        <ele>1827.3</ele>
        <time>2026-07-07T08:26:35Z</time>
      </trkpt>
      <trkpt lat="42.97178" lon="0.31645">
        <ele>1827.3</ele>
        <time>2026-07-07T08:26:36Z</time>
      </trkpt>
      <trkpt lat="42.97178" lon="0.31645">
        <ele>1827.3</ele>
        <time>2026-07-07T08:26:37Z</time>
      </trkpt>
      <trkpt lat="42.97178" lon="0.31645">
        <ele>1827.3</ele>
        <time>2026-07-07T08:26:38Z</time>
      </trkpt>
      <trkpt lat="42.97178" lon="0.31645">
        <ele>1827.3</ele>
        <time>2026-07-07T08:26:39Z</time>
      </trkpt>
      <trkpt lat="42.9718" lon="0.31644">
        <ele>1828.3</ele>
        <time>2026-07-07T08:26:40Z</time>
      </trkpt>
      <trkpt lat="42.97179" lon="0.31643">
        <ele>1828.3</ele>
        <time>2026-07-07T08:26:41Z</time>
      </trkpt>
      <trkpt lat="42.9718" lon="0.31643">
        <ele>1828.3</ele>
        <time>2026-07-07T08:26:42Z</time>
      </trkpt>
      <trkpt lat="42.97181" lon="0.31643">
        <ele>1828.3</ele>
        <time>2026-07-07T08:26:43Z</time>
      </trkpt>
      <trkpt lat="42.97181" lon="0.31642">
        <ele>1829.3</ele>
        <time>2026-07-07T08:26:44Z</time>
      </trkpt>
      <trkpt lat="42.97181" lon="0.31642">
        <ele>1829.3</ele>
        <time>2026-07-07T08:26:45Z</time>
      </trkpt>
      <trkpt lat="42.97182" lon="0.31641">
        <ele>1829.3</ele>
        <time>2026-07-07T08:26:46Z</time>
      </trkpt>
      <trkpt lat="42.97182" lon="0.31641">
        <ele>1829.3</ele>
        <time>2026-07-07T08:26:47Z</time>
      </trkpt>
      <trkpt lat="42.97182" lon="0.31641">
        <ele>1829.3</ele>
        <time>2026-07-07T08:26:47Z</time>
      </trkpt>
      <trkpt lat="42.97182" lon="0.3164">
        <ele>1829.3</ele>
        <time>2026-07-07T08:26:48Z</time>
      </trkpt>
      <trkpt lat="42.97182" lon="0.3164">
        <ele>1829.3</ele>
        <time>2026-07-07T08:26:48Z</time>
      </trkpt>
      <trkpt lat="42.97182" lon="0.3164">
        <ele>1829.3</ele>
        <time>2026-07-07T08:26:49Z</time>
      </trkpt>
      <trkpt lat="42.97182" lon="0.31639">
        <ele>1829.3</ele>
        <time>2026-07-07T08:26:50Z</time>
      </trkpt>
      <trkpt lat="42.97183" lon="0.31639">
        <ele>1829.3</ele>
        <time>2026-07-07T08:26:51Z</time>
      </trkpt>
      <trkpt lat="42.97183" lon="0.31638">
        <ele>1829.3</ele>
        <time>2026-07-07T08:26:52Z</time>
      </trkpt>
      <trkpt lat="42.97183" lon="0.31638">
        <ele>1829.3</ele>
        <time>2026-07-07T08:26:53Z</time>
      </trkpt>
      <trkpt lat="42.97183" lon="0.31638">
        <ele>1829.3</ele>
        <time>2026-07-07T08:26:53Z</time>
      </trkpt>
      <trkpt lat="42.97183" lon="0.31638">
        <ele>1829.3</ele>
        <time>2026-07-07T08:26:54Z</time>
      </trkpt>
      <trkpt lat="42.97183" lon="0.31637">
        <ele>1830.3</ele>
        <time>2026-07-07T08:26:55Z</time>
      </trkpt>
      <trkpt lat="42.97184" lon="0.31637">
        <ele>1830.3</ele>
        <time>2026-07-07T08:26:56Z</time>
      </trkpt>
      <trkpt lat="42.97184" lon="0.31637">
        <ele>1829.3</ele>
        <time>2026-07-07T08:26:57Z</time>
      </trkpt>
      <trkpt lat="42.97184" lon="0.31636">
        <ele>1830.3</ele>
        <time>2026-07-07T08:26:57Z</time>
      </trkpt>
      <trkpt lat="42.97185" lon="0.31636">
        <ele>1830.3</ele>
        <time>2026-07-07T08:26:58Z</time>
      </trkpt>
      <trkpt lat="42.97186" lon="0.31635">
        <ele>1830.3</ele>
        <time>2026-07-07T08:26:59Z</time>
      </trkpt>
      <trkpt lat="42.97186" lon="0.31635">
        <ele>1830.3</ele>
        <time>2026-07-07T08:27:00Z</time>
      </trkpt>
      <trkpt lat="42.97186" lon="0.31633">
        <ele>1831.3</ele>
        <time>2026-07-07T08:27:01Z</time>
      </trkpt>
      <trkpt lat="42.97186" lon="0.31634">
        <ele>1831.3</ele>
        <time>2026-07-07T08:27:02Z</time>
      </trkpt>
      <trkpt lat="42.97186" lon="0.31633">
        <ele>1831.3</ele>
        <time>2026-07-07T08:27:03Z</time>
      </trkpt>
      <trkpt lat="42.97186" lon="0.31633">
        <ele>1831.3</ele>
        <time>2026-07-07T08:27:04Z</time>
      </trkpt>
      <trkpt lat="42.97187" lon="0.31634">
        <ele>1832.3</ele>
        <time>2026-07-07T08:27:05Z</time>
      </trkpt>
      <trkpt lat="42.97187" lon="0.31634">
        <ele>1832.3</ele>
        <time>2026-07-07T08:27:06Z</time>
      </trkpt>
      <trkpt lat="42.97187" lon="0.31633">
        <ele>1833.3</ele>
        <time>2026-07-07T08:27:07Z</time>
      </trkpt>
      <trkpt lat="42.97188" lon="0.31633">
        <ele>1833.3</ele>
        <time>2026-07-07T08:27:08Z</time>
      </trkpt>
      <trkpt lat="42.97188" lon="0.31633">
        <ele>1833.3</ele>
        <time>2026-07-07T08:27:09Z</time>
      </trkpt>
      <trkpt lat="42.97188" lon="0.31633">
        <ele>1833.3</ele>
        <time>2026-07-07T08:27:10Z</time>
      </trkpt>
      <trkpt lat="42.97188" lon="0.31633">
        <ele>1833.3</ele>
        <time>2026-07-07T08:27:11Z</time>
      </trkpt>
      <trkpt lat="42.97188" lon="0.31633">
        <ele>1833.3</ele>
        <time>2026-07-07T08:27:12Z</time>
      </trkpt>
      <trkpt lat="42.97188" lon="0.31633">
        <ele>1833.3</ele>
        <time>2026-07-07T08:27:13Z</time>
      </trkpt>
      <trkpt lat="42.97188" lon="0.31633">
        <ele>1833.3</ele>
        <time>2026-07-07T08:27:14Z</time>
      </trkpt>
      <trkpt lat="42.97188" lon="0.31633">
        <ele>1833.3</ele>
        <time>2026-07-07T08:27:15Z</time>
      </trkpt>
      <trkpt lat="42.97189" lon="0.3163">
        <ele>1834.3</ele>
        <time>2026-07-07T08:27:16Z</time>
      </trkpt>
      <trkpt lat="42.97189" lon="0.31629">
        <ele>1834.3</ele>
        <time>2026-07-07T08:27:17Z</time>
      </trkpt>
      <trkpt lat="42.97189" lon="0.31628">
        <ele>1834.3</ele>
        <time>2026-07-07T08:27:18Z</time>
      </trkpt>
      <trkpt lat="42.97189" lon="0.31628">
        <ele>1834.3</ele>
        <time>2026-07-07T08:27:19Z</time>
      </trkpt>
      <trkpt lat="42.97189" lon="0.31627">
        <ele>1834.3</ele>
        <time>2026-07-07T08:27:20Z</time>
      </trkpt>
      <trkpt lat="42.9719" lon="0.31625">
        <ele>1834.3</ele>
        <time>2026-07-07T08:27:21Z</time>
      </trkpt>
      <trkpt lat="42.9719" lon="0.31624">
        <ele>1834.3</ele>
        <time>2026-07-07T08:27:22Z</time>
      </trkpt>
      <trkpt lat="42.97191" lon="0.31624">
        <ele>1834.3</ele>
        <time>2026-07-07T08:27:23Z</time>
      </trkpt>
      <trkpt lat="42.97191" lon="0.31623">
        <ele>1834.3</ele>
        <time>2026-07-07T08:27:24Z</time>
      </trkpt>
      <trkpt lat="42.97191" lon="0.31623">
        <ele>1835.3</ele>
        <time>2026-07-07T08:27:25Z</time>
      </trkpt>
      <trkpt lat="42.97191" lon="0.31622">
        <ele>1835.3</ele>
        <time>2026-07-07T08:27:26Z</time>
      </trkpt>
      <trkpt lat="42.97191" lon="0.31622">
        <ele>1835.3</ele>
        <time>2026-07-07T08:27:27Z</time>
      </trkpt>
      <trkpt lat="42.97192" lon="0.31621">
        <ele>1835.3</ele>
        <time>2026-07-07T08:27:28Z</time>
      </trkpt>
      <trkpt lat="42.97192" lon="0.3162">
        <ele>1835.3</ele>
        <time>2026-07-07T08:27:29Z</time>
      </trkpt>
      <trkpt lat="42.97192" lon="0.31619">
        <ele>1836.3</ele>
        <time>2026-07-07T08:27:30Z</time>
      </trkpt>
      <trkpt lat="42.97192" lon="0.31619">
        <ele>1835.3</ele>
        <time>2026-07-07T08:27:31Z</time>
      </trkpt>
      <trkpt lat="42.97192" lon="0.31618">
        <ele>1835.3</ele>
        <time>2026-07-07T08:27:32Z</time>
      </trkpt>
      <trkpt lat="42.97191" lon="0.31617">
        <ele>1835.3</ele>
        <time>2026-07-07T08:27:33Z</time>
      </trkpt>
      <trkpt lat="42.97191" lon="0.31617">
        <ele>1835.3</ele>
        <time>2026-07-07T08:27:34Z</time>
      </trkpt>
      <trkpt lat="42.97192" lon="0.31616">
        <ele>1834.3</ele>
        <time>2026-07-07T08:27:35Z</time>
      </trkpt>
      <trkpt lat="42.97191" lon="0.31616">
        <ele>1834.3</ele>
        <time>2026-07-07T08:27:36Z</time>
      </trkpt>
      <trkpt lat="42.97191" lon="0.31616">
        <ele>1834.3</ele>
        <time>2026-07-07T08:27:37Z</time>
      </trkpt>
      <trkpt lat="42.97191" lon="0.31616">
        <ele>1834.3</ele>
        <time>2026-07-07T08:27:38Z</time>
      </trkpt>
      <trkpt lat="42.97192" lon="0.31616">
        <ele>1833.3</ele>
        <time>2026-07-07T08:27:39Z</time>
      </trkpt>
      <trkpt lat="42.97192" lon="0.31616">
        <ele>1833.3</ele>
        <time>2026-07-07T08:27:40Z</time>
      </trkpt>
      <trkpt lat="42.97193" lon="0.31615">
        <ele>1833.3</ele>
        <time>2026-07-07T08:27:41Z</time>
      </trkpt>
      <trkpt lat="42.97193" lon="0.31615">
        <ele>1833.3</ele>
        <time>2026-07-07T08:27:42Z</time>
      </trkpt>
      <trkpt lat="42.97193" lon="0.31615">
        <ele>1833.3</ele>
        <time>2026-07-07T08:27:43Z</time>
      </trkpt>
      <trkpt lat="42.97194" lon="0.31614">
        <ele>1834.3</ele>
        <time>2026-07-07T08:27:44Z</time>
      </trkpt>
      <trkpt lat="42.97194" lon="0.31614">
        <ele>1834.3</ele>
        <time>2026-07-07T08:27:45Z</time>
      </trkpt>
      <trkpt lat="42.97194" lon="0.31614">
        <ele>1834.3</ele>
        <time>2026-07-07T08:27:46Z</time>
      </trkpt>
      <trkpt lat="42.97194" lon="0.31613">
        <ele>1834.3</ele>
        <time>2026-07-07T08:27:47Z</time>
      </trkpt>
      <trkpt lat="42.97195" lon="0.31612">
        <ele>1834.3</ele>
        <time>2026-07-07T08:27:48Z</time>
      </trkpt>
      <trkpt lat="42.97195" lon="0.31611">
        <ele>1834.3</ele>
        <time>2026-07-07T08:27:49Z</time>
      </trkpt>
      <trkpt lat="42.97196" lon="0.3161">
        <ele>1835.3</ele>
        <time>2026-07-07T08:27:50Z</time>
      </trkpt>
      <trkpt lat="42.97196" lon="0.31608">
        <ele>1835.3</ele>
        <time>2026-07-07T08:27:51Z</time>
      </trkpt>
      <trkpt lat="42.97197" lon="0.31607">
        <ele>1836.3</ele>
        <time>2026-07-07T08:27:52Z</time>
      </trkpt>
      <trkpt lat="42.97198" lon="0.31606">
        <ele>1836.3</ele>
        <time>2026-07-07T08:27:53Z</time>
      </trkpt>
      <trkpt lat="42.97198" lon="0.31604">
        <ele>1836.3</ele>
        <time>2026-07-07T08:27:54Z</time>
      </trkpt>
      <trkpt lat="42.97198" lon="0.31603">
        <ele>1836.3</ele>
        <time>2026-07-07T08:27:55Z</time>
      </trkpt>
      <trkpt lat="42.97198" lon="0.31602">
        <ele>1836.3</ele>
        <time>2026-07-07T08:27:56Z</time>
      </trkpt>
      <trkpt lat="42.97199" lon="0.31601">
        <ele>1836.3</ele>
        <time>2026-07-07T08:27:57Z</time>
      </trkpt>
      <trkpt lat="42.972" lon="0.316">
        <ele>1836.3</ele>
        <time>2026-07-07T08:27:58Z</time>
      </trkpt>
      <trkpt lat="42.972" lon="0.31599">
        <ele>1836.3</ele>
        <time>2026-07-07T08:27:59Z</time>
      </trkpt>
      <trkpt lat="42.972" lon="0.31599">
        <ele>1836.3</ele>
        <time>2026-07-07T08:27:59Z</time>
      </trkpt>
      <trkpt lat="42.97201" lon="0.31598">
        <ele>1836.3</ele>
        <time>2026-07-07T08:28:00Z</time>
      </trkpt>
      <trkpt lat="42.97201" lon="0.31597">
        <ele>1837.3</ele>
        <time>2026-07-07T08:28:01Z</time>
      </trkpt>
      <trkpt lat="42.97202" lon="0.31596">
        <ele>1837.3</ele>
        <time>2026-07-07T08:28:01Z</time>
      </trkpt>
      <trkpt lat="42.97203" lon="0.31595">
        <ele>1837.3</ele>
        <time>2026-07-07T08:28:02Z</time>
      </trkpt>
      <trkpt lat="42.97203" lon="0.31595">
        <ele>1837.3</ele>
        <time>2026-07-07T08:28:03Z</time>
      </trkpt>
      <trkpt lat="42.97203" lon="0.31594">
        <ele>1837.3</ele>
        <time>2026-07-07T08:28:03Z</time>
      </trkpt>
      <trkpt lat="42.97204" lon="0.31593">
        <ele>1837.3</ele>
        <time>2026-07-07T08:28:04Z</time>
      </trkpt>
      <trkpt lat="42.97204" lon="0.31593">
        <ele>1836.3</ele>
        <time>2026-07-07T08:28:04Z</time>
      </trkpt>
      <trkpt lat="42.97205" lon="0.31592">
        <ele>1836.3</ele>
        <time>2026-07-07T08:28:05Z</time>
      </trkpt>
      <trkpt lat="42.97205" lon="0.31591">
        <ele>1837.3</ele>
        <time>2026-07-07T08:28:06Z</time>
      </trkpt>
      <trkpt lat="42.97206" lon="0.3159">
        <ele>1837.3</ele>
        <time>2026-07-07T08:28:06Z</time>
      </trkpt>
      <trkpt lat="42.97206" lon="0.3159">
        <ele>1837.3</ele>
        <time>2026-07-07T08:28:07Z</time>
      </trkpt>
      <trkpt lat="42.97206" lon="0.31589">
        <ele>1838.3</ele>
        <time>2026-07-07T08:28:08Z</time>
      </trkpt>
      <trkpt lat="42.97207" lon="0.31588">
        <ele>1837.3</ele>
        <time>2026-07-07T08:28:09Z</time>
      </trkpt>
      <trkpt lat="42.97207" lon="0.31588">
        <ele>1837.3</ele>
        <time>2026-07-07T08:28:09Z</time>
      </trkpt>
      <trkpt lat="42.97207" lon="0.31587">
        <ele>1837.3</ele>
        <time>2026-07-07T08:28:10Z</time>
      </trkpt>
      <trkpt lat="42.97207" lon="0.31587">
        <ele>1838.3</ele>
        <time>2026-07-07T08:28:10Z</time>
      </trkpt>
      <trkpt lat="42.97208" lon="0.31586">
        <ele>1838.3</ele>
        <time>2026-07-07T08:28:11Z</time>
      </trkpt>
      <trkpt lat="42.97208" lon="0.31585">
        <ele>1838.3</ele>
        <time>2026-07-07T08:28:12Z</time>
      </trkpt>
      <trkpt lat="42.97208" lon="0.31584">
        <ele>1838.3</ele>
        <time>2026-07-07T08:28:13Z</time>
      </trkpt>
      <trkpt lat="42.97207" lon="0.31584">
        <ele>1838.3</ele>
        <time>2026-07-07T08:28:14Z</time>
      </trkpt>
      <trkpt lat="42.97207" lon="0.31584">
        <ele>1838.3</ele>
        <time>2026-07-07T08:28:15Z</time>
      </trkpt>
      <trkpt lat="42.97207" lon="0.31584">
        <ele>1838.3</ele>
        <time>2026-07-07T08:28:16Z</time>
      </trkpt>
      <trkpt lat="42.97207" lon="0.31584">
        <ele>1838.3</ele>
        <time>2026-07-07T08:28:17Z</time>
      </trkpt>
      <trkpt lat="42.97208" lon="0.31583">
        <ele>1838.3</ele>
        <time>2026-07-07T08:28:18Z</time>
      </trkpt>
      <trkpt lat="42.97208" lon="0.31582">
        <ele>1839.3</ele>
        <time>2026-07-07T08:28:18Z</time>
      </trkpt>
      <trkpt lat="42.97208" lon="0.31581">
        <ele>1839.3</ele>
        <time>2026-07-07T08:28:19Z</time>
      </trkpt>
      <trkpt lat="42.97209" lon="0.31581">
        <ele>1839.3</ele>
        <time>2026-07-07T08:28:20Z</time>
      </trkpt>
      <trkpt lat="42.97209" lon="0.3158">
        <ele>1839.3</ele>
        <time>2026-07-07T08:28:21Z</time>
      </trkpt>
      <trkpt lat="42.9721" lon="0.3158">
        <ele>1839.3</ele>
        <time>2026-07-07T08:28:22Z</time>
      </trkpt>
      <trkpt lat="42.97211" lon="0.31579">
        <ele>1839.3</ele>
        <time>2026-07-07T08:28:22Z</time>
      </trkpt>
      <trkpt lat="42.97212" lon="0.31579">
        <ele>1839.3</ele>
        <time>2026-07-07T08:28:23Z</time>
      </trkpt>
      <trkpt lat="42.97212" lon="0.31579">
        <ele>1839.3</ele>
        <time>2026-07-07T08:28:24Z</time>
      </trkpt>
      <trkpt lat="42.97213" lon="0.31578">
        <ele>1839.3</ele>
        <time>2026-07-07T08:28:24Z</time>
      </trkpt>
      <trkpt lat="42.97213" lon="0.31577">
        <ele>1839.3</ele>
        <time>2026-07-07T08:28:25Z</time>
      </trkpt>
      <trkpt lat="42.97214" lon="0.31576">
        <ele>1840.3</ele>
        <time>2026-07-07T08:28:26Z</time>
      </trkpt>
      <trkpt lat="42.97214" lon="0.31576">
        <ele>1839.3</ele>
        <time>2026-07-07T08:28:26Z</time>
      </trkpt>
      <trkpt lat="42.97214" lon="0.31575">
        <ele>1840.3</ele>
        <time>2026-07-07T08:28:27Z</time>
      </trkpt>
      <trkpt lat="42.97215" lon="0.31574">
        <ele>1840.3</ele>
        <time>2026-07-07T08:28:28Z</time>
      </trkpt>
      <trkpt lat="42.97215" lon="0.31574">
        <ele>1840.3</ele>
        <time>2026-07-07T08:28:29Z</time>
      </trkpt>
      <trkpt lat="42.97216" lon="0.31573">
        <ele>1840.3</ele>
        <time>2026-07-07T08:28:30Z</time>
      </trkpt>
      <trkpt lat="42.97216" lon="0.31572">
        <ele>1839.3</ele>
        <time>2026-07-07T08:28:31Z</time>
      </trkpt>
      <trkpt lat="42.97217" lon="0.31571">
        <ele>1839.3</ele>
        <time>2026-07-07T08:28:32Z</time>
      </trkpt>
      <trkpt lat="42.97217" lon="0.31571">
        <ele>1839.3</ele>
        <time>2026-07-07T08:28:33Z</time>
      </trkpt>
      <trkpt lat="42.97217" lon="0.31571">
        <ele>1839.3</ele>
        <time>2026-07-07T08:28:34Z</time>
      </trkpt>
      <trkpt lat="42.97217" lon="0.3157">
        <ele>1839.3</ele>
        <time>2026-07-07T08:28:34Z</time>
      </trkpt>
      <trkpt lat="42.97218" lon="0.3157">
        <ele>1839.3</ele>
        <time>2026-07-07T08:28:35Z</time>
      </trkpt>
      <trkpt lat="42.97218" lon="0.31569">
        <ele>1839.3</ele>
        <time>2026-07-07T08:28:36Z</time>
      </trkpt>
      <trkpt lat="42.97218" lon="0.31568">
        <ele>1839.3</ele>
        <time>2026-07-07T08:28:37Z</time>
      </trkpt>
      <trkpt lat="42.97219" lon="0.31567">
        <ele>1839.3</ele>
        <time>2026-07-07T08:28:37Z</time>
      </trkpt>
      <trkpt lat="42.97219" lon="0.31566">
        <ele>1839.3</ele>
        <time>2026-07-07T08:28:38Z</time>
      </trkpt>
      <trkpt lat="42.9722" lon="0.31565">
        <ele>1839.3</ele>
        <time>2026-07-07T08:28:39Z</time>
      </trkpt>
      <trkpt lat="42.9722" lon="0.31564">
        <ele>1839.3</ele>
        <time>2026-07-07T08:28:40Z</time>
      </trkpt>
      <trkpt lat="42.9722" lon="0.31564">
        <ele>1839.3</ele>
        <time>2026-07-07T08:28:41Z</time>
      </trkpt>
      <trkpt lat="42.9722" lon="0.31563">
        <ele>1839.3</ele>
        <time>2026-07-07T08:28:42Z</time>
      </trkpt>
      <trkpt lat="42.97221" lon="0.31563">
        <ele>1838.3</ele>
        <time>2026-07-07T08:28:43Z</time>
      </trkpt>
      <trkpt lat="42.97221" lon="0.31562">
        <ele>1838.3</ele>
        <time>2026-07-07T08:28:44Z</time>
      </trkpt>
      <trkpt lat="42.97221" lon="0.31561">
        <ele>1839.3</ele>
        <time>2026-07-07T08:28:45Z</time>
      </trkpt>
      <trkpt lat="42.97221" lon="0.31561">
        <ele>1839.3</ele>
        <time>2026-07-07T08:28:45Z</time>
      </trkpt>
      <trkpt lat="42.97222" lon="0.3156">
        <ele>1839.3</ele>
        <time>2026-07-07T08:28:46Z</time>
      </trkpt>
      <trkpt lat="42.97222" lon="0.3156">
        <ele>1839.3</ele>
        <time>2026-07-07T08:28:47Z</time>
      </trkpt>
      <trkpt lat="42.97223" lon="0.31559">
        <ele>1839.3</ele>
        <time>2026-07-07T08:28:48Z</time>
      </trkpt>
      <trkpt lat="42.97223" lon="0.31559">
        <ele>1839.3</ele>
        <time>2026-07-07T08:28:49Z</time>
      </trkpt>
      <trkpt lat="42.97223" lon="0.31559">
        <ele>1839.3</ele>
        <time>2026-07-07T08:28:49Z</time>
      </trkpt>
      <trkpt lat="42.97223" lon="0.31558">
        <ele>1839.3</ele>
        <time>2026-07-07T08:28:50Z</time>
      </trkpt>
      <trkpt lat="42.97223" lon="0.31558">
        <ele>1839.3</ele>
        <time>2026-07-07T08:28:50Z</time>
      </trkpt>
      <trkpt lat="42.97223" lon="0.31558">
        <ele>1839.3</ele>
        <time>2026-07-07T08:28:51Z</time>
      </trkpt>
      <trkpt lat="42.97224" lon="0.31557">
        <ele>1839.3</ele>
        <time>2026-07-07T08:28:51Z</time>
      </trkpt>
      <trkpt lat="42.97224" lon="0.31557">
        <ele>1839.3</ele>
        <time>2026-07-07T08:28:52Z</time>
      </trkpt>
      <trkpt lat="42.97224" lon="0.31557">
        <ele>1839.3</ele>
        <time>2026-07-07T08:28:52Z</time>
      </trkpt>
      <trkpt lat="42.97224" lon="0.31556">
        <ele>1839.3</ele>
        <time>2026-07-07T08:28:53Z</time>
      </trkpt>
      <trkpt lat="42.97224" lon="0.31556">
        <ele>1840.3</ele>
        <time>2026-07-07T08:28:54Z</time>
      </trkpt>
      <trkpt lat="42.97224" lon="0.31555">
        <ele>1840.3</ele>
        <time>2026-07-07T08:28:55Z</time>
      </trkpt>
      <trkpt lat="42.97224" lon="0.31555">
        <ele>1840.3</ele>
        <time>2026-07-07T08:28:55Z</time>
      </trkpt>
      <trkpt lat="42.97224" lon="0.31554">
        <ele>1840.3</ele>
        <time>2026-07-07T08:28:56Z</time>
      </trkpt>
      <trkpt lat="42.97224" lon="0.31554">
        <ele>1839.3</ele>
        <time>2026-07-07T08:28:57Z</time>
      </trkpt>
      <trkpt lat="42.97224" lon="0.31553">
        <ele>1839.3</ele>
        <time>2026-07-07T08:28:58Z</time>
      </trkpt>
      <trkpt lat="42.97225" lon="0.31553">
        <ele>1840.3</ele>
        <time>2026-07-07T08:28:59Z</time>
      </trkpt>
      <trkpt lat="42.97225" lon="0.31552">
        <ele>1841.3</ele>
        <time>2026-07-07T08:28:59Z</time>
      </trkpt>
      <trkpt lat="42.97225" lon="0.31552">
        <ele>1841.3</ele>
        <time>2026-07-07T08:29:00Z</time>
      </trkpt>
      <trkpt lat="42.97225" lon="0.31552">
        <ele>1842.3</ele>
        <time>2026-07-07T08:29:01Z</time>
      </trkpt>
      <trkpt lat="42.97225" lon="0.31551">
        <ele>1842.3</ele>
        <time>2026-07-07T08:29:02Z</time>
      </trkpt>
      <trkpt lat="42.97225" lon="0.3155">
        <ele>1843.3</ele>
        <time>2026-07-07T08:29:03Z</time>
      </trkpt>
      <trkpt lat="42.97226" lon="0.3155">
        <ele>1843.3</ele>
        <time>2026-07-07T08:29:04Z</time>
      </trkpt>
      <trkpt lat="42.97226" lon="0.31549">
        <ele>1844.3</ele>
        <time>2026-07-07T08:29:05Z</time>
      </trkpt>
      <trkpt lat="42.97226" lon="0.31549">
        <ele>1844.3</ele>
        <time>2026-07-07T08:29:06Z</time>
      </trkpt>
      <trkpt lat="42.97226" lon="0.31548">
        <ele>1844.3</ele>
        <time>2026-07-07T08:29:07Z</time>
      </trkpt>
      <trkpt lat="42.97226" lon="0.31548">
        <ele>1843.3</ele>
        <time>2026-07-07T08:29:08Z</time>
      </trkpt>
      <trkpt lat="42.97226" lon="0.31547">
        <ele>1843.3</ele>
        <time>2026-07-07T08:29:09Z</time>
      </trkpt>
      <trkpt lat="42.97226" lon="0.31547">
        <ele>1844.3</ele>
        <time>2026-07-07T08:29:10Z</time>
      </trkpt>
      <trkpt lat="42.97227" lon="0.31546">
        <ele>1844.3</ele>
        <time>2026-07-07T08:29:11Z</time>
      </trkpt>
      <trkpt lat="42.97227" lon="0.31545">
        <ele>1844.3</ele>
        <time>2026-07-07T08:29:12Z</time>
      </trkpt>
      <trkpt lat="42.97227" lon="0.31544">
        <ele>1844.3</ele>
        <time>2026-07-07T08:29:13Z</time>
      </trkpt>
      <trkpt lat="42.97227" lon="0.31544">
        <ele>1844.3</ele>
        <time>2026-07-07T08:29:14Z</time>
      </trkpt>
      <trkpt lat="42.97227" lon="0.31543">
        <ele>1844.3</ele>
        <time>2026-07-07T08:29:15Z</time>
      </trkpt>
      <trkpt lat="42.97227" lon="0.31543">
        <ele>1845.3</ele>
        <time>2026-07-07T08:29:15Z</time>
      </trkpt>
      <trkpt lat="42.97228" lon="0.31542">
        <ele>1845.3</ele>
        <time>2026-07-07T08:29:16Z</time>
      </trkpt>
      <trkpt lat="42.97228" lon="0.31542">
        <ele>1845.3</ele>
        <time>2026-07-07T08:29:17Z</time>
      </trkpt>
      <trkpt lat="42.97228" lon="0.31542">
        <ele>1845.3</ele>
        <time>2026-07-07T08:29:18Z</time>
      </trkpt>
      <trkpt lat="42.97229" lon="0.31541">
        <ele>1845.3</ele>
        <time>2026-07-07T08:29:19Z</time>
      </trkpt>
      <trkpt lat="42.97229" lon="0.31541">
        <ele>1844.3</ele>
        <time>2026-07-07T08:29:20Z</time>
      </trkpt>
      <trkpt lat="42.97229" lon="0.31541">
        <ele>1844.3</ele>
        <time>2026-07-07T08:29:21Z</time>
      </trkpt>
      <trkpt lat="42.97229" lon="0.31541">
        <ele>1845.3</ele>
        <time>2026-07-07T08:29:22Z</time>
      </trkpt>
      <trkpt lat="42.9723" lon="0.3154">
        <ele>1845.3</ele>
        <time>2026-07-07T08:29:23Z</time>
      </trkpt>
      <trkpt lat="42.9723" lon="0.3154">
        <ele>1845.3</ele>
        <time>2026-07-07T08:29:24Z</time>
      </trkpt>
      <trkpt lat="42.97231" lon="0.31539">
        <ele>1846.3</ele>
        <time>2026-07-07T08:29:25Z</time>
      </trkpt>
      <trkpt lat="42.97231" lon="0.31538">
        <ele>1846.3</ele>
        <time>2026-07-07T08:29:26Z</time>
      </trkpt>
      <trkpt lat="42.97231" lon="0.31538">
        <ele>1846.3</ele>
        <time>2026-07-07T08:29:27Z</time>
      </trkpt>
      <trkpt lat="42.97232" lon="0.31538">
        <ele>1846.3</ele>
        <time>2026-07-07T08:29:28Z</time>
      </trkpt>
      <trkpt lat="42.97232" lon="0.31538">
        <ele>1846.3</ele>
        <time>2026-07-07T08:29:29Z</time>
      </trkpt>
      <trkpt lat="42.97233" lon="0.31538">
        <ele>1847.3</ele>
        <time>2026-07-07T08:29:30Z</time>
      </trkpt>
      <trkpt lat="42.97233" lon="0.31538">
        <ele>1847.3</ele>
        <time>2026-07-07T08:29:31Z</time>
      </trkpt>
      <trkpt lat="42.97233" lon="0.31537">
        <ele>1847.3</ele>
        <time>2026-07-07T08:29:32Z</time>
      </trkpt>
      <trkpt lat="42.97233" lon="0.31537">
        <ele>1847.3</ele>
        <time>2026-07-07T08:29:33Z</time>
      </trkpt>
      <trkpt lat="42.97233" lon="0.31536">
        <ele>1847.3</ele>
        <time>2026-07-07T08:29:34Z</time>
      </trkpt>
      <trkpt lat="42.97233" lon="0.31536">
        <ele>1847.3</ele>
        <time>2026-07-07T08:29:35Z</time>
      </trkpt>
      <trkpt lat="42.97234" lon="0.31535">
        <ele>1848.3</ele>
        <time>2026-07-07T08:29:36Z</time>
      </trkpt>
      <trkpt lat="42.97234" lon="0.31535">
        <ele>1848.3</ele>
        <time>2026-07-07T08:29:36Z</time>
      </trkpt>
      <trkpt lat="42.97234" lon="0.31534">
        <ele>1848.3</ele>
        <time>2026-07-07T08:29:37Z</time>
      </trkpt>
      <trkpt lat="42.97235" lon="0.31533">
        <ele>1848.3</ele>
        <time>2026-07-07T08:29:38Z</time>
      </trkpt>
      <trkpt lat="42.97235" lon="0.31532">
        <ele>1848.3</ele>
        <time>2026-07-07T08:29:39Z</time>
      </trkpt>
      <trkpt lat="42.97235" lon="0.31532">
        <ele>1848.3</ele>
        <time>2026-07-07T08:29:40Z</time>
      </trkpt>
      <trkpt lat="42.97235" lon="0.31531">
        <ele>1848.3</ele>
        <time>2026-07-07T08:29:41Z</time>
      </trkpt>
      <trkpt lat="42.97235" lon="0.31531">
        <ele>1847.3</ele>
        <time>2026-07-07T08:29:41Z</time>
      </trkpt>
      <trkpt lat="42.97235" lon="0.3153">
        <ele>1847.3</ele>
        <time>2026-07-07T08:29:42Z</time>
      </trkpt>
      <trkpt lat="42.97236" lon="0.31529">
        <ele>1847.3</ele>
        <time>2026-07-07T08:29:43Z</time>
      </trkpt>
      <trkpt lat="42.97236" lon="0.31529">
        <ele>1847.3</ele>
        <time>2026-07-07T08:29:43Z</time>
      </trkpt>
      <trkpt lat="42.97236" lon="0.31528">
        <ele>1847.3</ele>
        <time>2026-07-07T08:29:44Z</time>
      </trkpt>
      <trkpt lat="42.97236" lon="0.31527">
        <ele>1847.3</ele>
        <time>2026-07-07T08:29:45Z</time>
      </trkpt>
      <trkpt lat="42.97236" lon="0.31527">
        <ele>1847.3</ele>
        <time>2026-07-07T08:29:46Z</time>
      </trkpt>
      <trkpt lat="42.97237" lon="0.31526">
        <ele>1847.3</ele>
        <time>2026-07-07T08:29:46Z</time>
      </trkpt>
      <trkpt lat="42.97237" lon="0.31526">
        <ele>1847.3</ele>
        <time>2026-07-07T08:29:47Z</time>
      </trkpt>
      <trkpt lat="42.97237" lon="0.31525">
        <ele>1847.3</ele>
        <time>2026-07-07T08:29:47Z</time>
      </trkpt>
      <trkpt lat="42.97237" lon="0.31525">
        <ele>1847.3</ele>
        <time>2026-07-07T08:29:48Z</time>
      </trkpt>
      <trkpt lat="42.97237" lon="0.31525">
        <ele>1847.3</ele>
        <time>2026-07-07T08:29:48Z</time>
      </trkpt>
      <trkpt lat="42.97237" lon="0.31524">
        <ele>1847.3</ele>
        <time>2026-07-07T08:29:49Z</time>
      </trkpt>
      <trkpt lat="42.97238" lon="0.31523">
        <ele>1847.3</ele>
        <time>2026-07-07T08:29:50Z</time>
      </trkpt>
      <trkpt lat="42.97238" lon="0.31523">
        <ele>1847.3</ele>
        <time>2026-07-07T08:29:51Z</time>
      </trkpt>
      <trkpt lat="42.97238" lon="0.31522">
        <ele>1847.3</ele>
        <time>2026-07-07T08:29:52Z</time>
      </trkpt>
      <trkpt lat="42.97238" lon="0.31521">
        <ele>1847.3</ele>
        <time>2026-07-07T08:29:53Z</time>
      </trkpt>
      <trkpt lat="42.97239" lon="0.3152">
        <ele>1847.3</ele>
        <time>2026-07-07T08:29:53Z</time>
      </trkpt>
      <trkpt lat="42.97239" lon="0.3152">
        <ele>1847.3</ele>
        <time>2026-07-07T08:29:54Z</time>
      </trkpt>
      <trkpt lat="42.97239" lon="0.31519">
        <ele>1847.3</ele>
        <time>2026-07-07T08:29:54Z</time>
      </trkpt>
      <trkpt lat="42.97239" lon="0.31518">
        <ele>1847.3</ele>
        <time>2026-07-07T08:29:55Z</time>
      </trkpt>
      <trkpt lat="42.97239" lon="0.31517">
        <ele>1846.3</ele>
        <time>2026-07-07T08:29:56Z</time>
      </trkpt>
      <trkpt lat="42.9724" lon="0.31516">
        <ele>1847.3</ele>
        <time>2026-07-07T08:29:57Z</time>
      </trkpt>
      <trkpt lat="42.9724" lon="0.31515">
        <ele>1847.3</ele>
        <time>2026-07-07T08:29:58Z</time>
      </trkpt>
      <trkpt lat="42.9724" lon="0.31515">
        <ele>1846.3</ele>
        <time>2026-07-07T08:29:58Z</time>
      </trkpt>
      <trkpt lat="42.9724" lon="0.31514">
        <ele>1846.3</ele>
        <time>2026-07-07T08:29:59Z</time>
      </trkpt>
      <trkpt lat="42.9724" lon="0.31514">
        <ele>1845.3</ele>
        <time>2026-07-07T08:30:00Z</time>
      </trkpt>
      <trkpt lat="42.9724" lon="0.31513">
        <ele>1845.3</ele>
        <time>2026-07-07T08:30:01Z</time>
      </trkpt>
      <trkpt lat="42.9724" lon="0.31512">
        <ele>1845.3</ele>
        <time>2026-07-07T08:30:02Z</time>
      </trkpt>
      <trkpt lat="42.97239" lon="0.31512">
        <ele>1845.3</ele>
        <time>2026-07-07T08:30:03Z</time>
      </trkpt>
      <trkpt lat="42.97239" lon="0.31512">
        <ele>1845.3</ele>
        <time>2026-07-07T08:30:04Z</time>
      </trkpt>
      <trkpt lat="42.97239" lon="0.31511">
        <ele>1846.3</ele>
        <time>2026-07-07T08:30:05Z</time>
      </trkpt>
      <trkpt lat="42.97239" lon="0.31511">
        <ele>1846.3</ele>
        <time>2026-07-07T08:30:06Z</time>
      </trkpt>
      <trkpt lat="42.97239" lon="0.3151">
        <ele>1847.3</ele>
        <time>2026-07-07T08:30:07Z</time>
      </trkpt>
      <trkpt lat="42.97239" lon="0.31509">
        <ele>1847.3</ele>
        <time>2026-07-07T08:30:08Z</time>
      </trkpt>
      <trkpt lat="42.97239" lon="0.31508">
        <ele>1847.3</ele>
        <time>2026-07-07T08:30:09Z</time>
      </trkpt>
      <trkpt lat="42.97239" lon="0.31507">
        <ele>1846.3</ele>
        <time>2026-07-07T08:30:09Z</time>
      </trkpt>
      <trkpt lat="42.9724" lon="0.31506">
        <ele>1846.3</ele>
        <time>2026-07-07T08:30:10Z</time>
      </trkpt>
      <trkpt lat="42.9724" lon="0.31506">
        <ele>1846.3</ele>
        <time>2026-07-07T08:30:11Z</time>
      </trkpt>
      <trkpt lat="42.9724" lon="0.31505">
        <ele>1846.3</ele>
        <time>2026-07-07T08:30:11Z</time>
      </trkpt>
      <trkpt lat="42.9724" lon="0.31504">
        <ele>1846.3</ele>
        <time>2026-07-07T08:30:12Z</time>
      </trkpt>
      <trkpt lat="42.9724" lon="0.31503">
        <ele>1846.3</ele>
        <time>2026-07-07T08:30:13Z</time>
      </trkpt>
      <trkpt lat="42.97241" lon="0.31502">
        <ele>1846.3</ele>
        <time>2026-07-07T08:30:14Z</time>
      </trkpt>
      <trkpt lat="42.97241" lon="0.31501">
        <ele>1847.3</ele>
        <time>2026-07-07T08:30:14Z</time>
      </trkpt>
      <trkpt lat="42.97241" lon="0.315">
        <ele>1847.3</ele>
        <time>2026-07-07T08:30:15Z</time>
      </trkpt>
      <trkpt lat="42.97242" lon="0.315">
        <ele>1847.3</ele>
        <time>2026-07-07T08:30:16Z</time>
      </trkpt>
      <trkpt lat="42.97242" lon="0.31499">
        <ele>1847.3</ele>
        <time>2026-07-07T08:30:16Z</time>
      </trkpt>
      <trkpt lat="42.97242" lon="0.31498">
        <ele>1847.3</ele>
        <time>2026-07-07T08:30:17Z</time>
      </trkpt>
      <trkpt lat="42.97242" lon="0.31497">
        <ele>1847.3</ele>
        <time>2026-07-07T08:30:18Z</time>
      </trkpt>
      <trkpt lat="42.97243" lon="0.31496">
        <ele>1847.3</ele>
        <time>2026-07-07T08:30:19Z</time>
      </trkpt>
      <trkpt lat="42.97243" lon="0.31495">
        <ele>1847.3</ele>
        <time>2026-07-07T08:30:20Z</time>
      </trkpt>
      <trkpt lat="42.97243" lon="0.31495">
        <ele>1847.3</ele>
        <time>2026-07-07T08:30:20Z</time>
      </trkpt>
      <trkpt lat="42.97243" lon="0.31494">
        <ele>1847.3</ele>
        <time>2026-07-07T08:30:21Z</time>
      </trkpt>
      <trkpt lat="42.97243" lon="0.31493">
        <ele>1847.3</ele>
        <time>2026-07-07T08:30:22Z</time>
      </trkpt>
      <trkpt lat="42.97243" lon="0.31493">
        <ele>1847.3</ele>
        <time>2026-07-07T08:30:22Z</time>
      </trkpt>
      <trkpt lat="42.97243" lon="0.31492">
        <ele>1847.3</ele>
        <time>2026-07-07T08:30:23Z</time>
      </trkpt>
      <trkpt lat="42.97243" lon="0.31491">
        <ele>1847.3</ele>
        <time>2026-07-07T08:30:24Z</time>
      </trkpt>
      <trkpt lat="42.97244" lon="0.3149">
        <ele>1848.3</ele>
        <time>2026-07-07T08:30:25Z</time>
      </trkpt>
      <trkpt lat="42.97244" lon="0.3149">
        <ele>1848.3</ele>
        <time>2026-07-07T08:30:26Z</time>
      </trkpt>
      <trkpt lat="42.97244" lon="0.31489">
        <ele>1848.3</ele>
        <time>2026-07-07T08:30:27Z</time>
      </trkpt>
      <trkpt lat="42.97244" lon="0.31489">
        <ele>1848.3</ele>
        <time>2026-07-07T08:30:27Z</time>
      </trkpt>
      <trkpt lat="42.97244" lon="0.31488">
        <ele>1848.3</ele>
        <time>2026-07-07T08:30:28Z</time>
      </trkpt>
      <trkpt lat="42.97245" lon="0.31487">
        <ele>1848.3</ele>
        <time>2026-07-07T08:30:29Z</time>
      </trkpt>
      <trkpt lat="42.97245" lon="0.31486">
        <ele>1848.3</ele>
        <time>2026-07-07T08:30:30Z</time>
      </trkpt>
      <trkpt lat="42.97245" lon="0.31486">
        <ele>1848.3</ele>
        <time>2026-07-07T08:30:31Z</time>
      </trkpt>
      <trkpt lat="42.97245" lon="0.31485">
        <ele>1848.3</ele>
        <time>2026-07-07T08:30:32Z</time>
      </trkpt>
      <trkpt lat="42.97245" lon="0.31484">
        <ele>1848.3</ele>
        <time>2026-07-07T08:30:32Z</time>
      </trkpt>
      <trkpt lat="42.97244" lon="0.31484">
        <ele>1848.3</ele>
        <time>2026-07-07T08:30:33Z</time>
      </trkpt>
      <trkpt lat="42.97244" lon="0.31483">
        <ele>1848.3</ele>
        <time>2026-07-07T08:30:34Z</time>
      </trkpt>
      <trkpt lat="42.97244" lon="0.31482">
        <ele>1848.3</ele>
        <time>2026-07-07T08:30:35Z</time>
      </trkpt>
      <trkpt lat="42.97245" lon="0.31481">
        <ele>1848.3</ele>
        <time>2026-07-07T08:30:36Z</time>
      </trkpt>
      <trkpt lat="42.97245" lon="0.3148">
        <ele>1848.3</ele>
        <time>2026-07-07T08:30:37Z</time>
      </trkpt>
      <trkpt lat="42.97245" lon="0.3148">
        <ele>1848.3</ele>
        <time>2026-07-07T08:30:37Z</time>
      </trkpt>
      <trkpt lat="42.97245" lon="0.31479">
        <ele>1848.3</ele>
        <time>2026-07-07T08:30:38Z</time>
      </trkpt>
      <trkpt lat="42.97245" lon="0.31478">
        <ele>1848.3</ele>
        <time>2026-07-07T08:30:39Z</time>
      </trkpt>
      <trkpt lat="42.97245" lon="0.31478">
        <ele>1848.3</ele>
        <time>2026-07-07T08:30:39Z</time>
      </trkpt>
      <trkpt lat="42.97246" lon="0.31477">
        <ele>1848.3</ele>
        <time>2026-07-07T08:30:40Z</time>
      </trkpt>
      <trkpt lat="42.97246" lon="0.31476">
        <ele>1848.3</ele>
        <time>2026-07-07T08:30:41Z</time>
      </trkpt>
      <trkpt lat="42.97246" lon="0.31475">
        <ele>1849.3</ele>
        <time>2026-07-07T08:30:42Z</time>
      </trkpt>
      <trkpt lat="42.97246" lon="0.31475">
        <ele>1849.3</ele>
        <time>2026-07-07T08:30:43Z</time>
      </trkpt>
      <trkpt lat="42.97246" lon="0.31474">
        <ele>1849.3</ele>
        <time>2026-07-07T08:30:43Z</time>
      </trkpt>
      <trkpt lat="42.97246" lon="0.31474">
        <ele>1849.3</ele>
        <time>2026-07-07T08:30:44Z</time>
      </trkpt>
      <trkpt lat="42.97246" lon="0.31473">
        <ele>1850.3</ele>
        <time>2026-07-07T08:30:45Z</time>
      </trkpt>
      <trkpt lat="42.97246" lon="0.31472">
        <ele>1850.3</ele>
        <time>2026-07-07T08:30:46Z</time>
      </trkpt>
      <trkpt lat="42.97246" lon="0.31472">
        <ele>1849.3</ele>
        <time>2026-07-07T08:30:47Z</time>
      </trkpt>
      <trkpt lat="42.97246" lon="0.31471">
        <ele>1849.3</ele>
        <time>2026-07-07T08:30:47Z</time>
      </trkpt>
      <trkpt lat="42.97246" lon="0.31471">
        <ele>1849.3</ele>
        <time>2026-07-07T08:30:48Z</time>
      </trkpt>
      <trkpt lat="42.97246" lon="0.3147">
        <ele>1849.3</ele>
        <time>2026-07-07T08:30:49Z</time>
      </trkpt>
      <trkpt lat="42.97246" lon="0.3147">
        <ele>1849.3</ele>
        <time>2026-07-07T08:30:50Z</time>
      </trkpt>
      <trkpt lat="42.97246" lon="0.31469">
        <ele>1849.3</ele>
        <time>2026-07-07T08:30:51Z</time>
      </trkpt>
      <trkpt lat="42.97247" lon="0.31468">
        <ele>1850.3</ele>
        <time>2026-07-07T08:30:52Z</time>
      </trkpt>
      <trkpt lat="42.97247" lon="0.31468">
        <ele>1850.3</ele>
        <time>2026-07-07T08:30:53Z</time>
      </trkpt>
      <trkpt lat="42.97247" lon="0.31468">
        <ele>1851.3</ele>
        <time>2026-07-07T08:30:53Z</time>
      </trkpt>
      <trkpt lat="42.97248" lon="0.31467">
        <ele>1850.3</ele>
        <time>2026-07-07T08:30:54Z</time>
      </trkpt>
      <trkpt lat="42.97248" lon="0.31466">
        <ele>1850.3</ele>
        <time>2026-07-07T08:30:55Z</time>
      </trkpt>
      <trkpt lat="42.97248" lon="0.31465">
        <ele>1850.3</ele>
        <time>2026-07-07T08:30:56Z</time>
      </trkpt>
      <trkpt lat="42.97249" lon="0.31465">
        <ele>1851.3</ele>
        <time>2026-07-07T08:30:57Z</time>
      </trkpt>
      <trkpt lat="42.97249" lon="0.31464">
        <ele>1852.3</ele>
        <time>2026-07-07T08:30:58Z</time>
      </trkpt>
      <trkpt lat="42.97249" lon="0.31463">
        <ele>1852.3</ele>
        <time>2026-07-07T08:30:59Z</time>
      </trkpt>
      <trkpt lat="42.97249" lon="0.31463">
        <ele>1852.3</ele>
        <time>2026-07-07T08:31:00Z</time>
      </trkpt>
      <trkpt lat="42.97249" lon="0.31463">
        <ele>1852.3</ele>
        <time>2026-07-07T08:31:00Z</time>
      </trkpt>
      <trkpt lat="42.9725" lon="0.31463">
        <ele>1852.3</ele>
        <time>2026-07-07T08:31:01Z</time>
      </trkpt>
      <trkpt lat="42.9725" lon="0.31462">
        <ele>1853.3</ele>
        <time>2026-07-07T08:31:02Z</time>
      </trkpt>
      <trkpt lat="42.9725" lon="0.31462">
        <ele>1853.3</ele>
        <time>2026-07-07T08:31:03Z</time>
      </trkpt>
      <trkpt lat="42.9725" lon="0.31461">
        <ele>1853.3</ele>
        <time>2026-07-07T08:31:04Z</time>
      </trkpt>
      <trkpt lat="42.97251" lon="0.31461">
        <ele>1853.3</ele>
        <time>2026-07-07T08:31:05Z</time>
      </trkpt>
      <trkpt lat="42.97251" lon="0.31461">
        <ele>1853.3</ele>
        <time>2026-07-07T08:31:06Z</time>
      </trkpt>
      <trkpt lat="42.97251" lon="0.31461">
        <ele>1854.3</ele>
        <time>2026-07-07T08:31:07Z</time>
      </trkpt>
      <trkpt lat="42.97251" lon="0.3146">
        <ele>1854.3</ele>
        <time>2026-07-07T08:31:08Z</time>
      </trkpt>
      <trkpt lat="42.97251" lon="0.3146">
        <ele>1854.3</ele>
        <time>2026-07-07T08:31:09Z</time>
      </trkpt>
      <trkpt lat="42.97251" lon="0.3146">
        <ele>1854.3</ele>
        <time>2026-07-07T08:31:10Z</time>
      </trkpt>
      <trkpt lat="42.97252" lon="0.31459">
        <ele>1854.3</ele>
        <time>2026-07-07T08:31:11Z</time>
      </trkpt>
      <trkpt lat="42.97252" lon="0.31458">
        <ele>1855.3</ele>
        <time>2026-07-07T08:31:11Z</time>
      </trkpt>
      <trkpt lat="42.97253" lon="0.31458">
        <ele>1855.3</ele>
        <time>2026-07-07T08:31:12Z</time>
      </trkpt>
      <trkpt lat="42.97253" lon="0.31457">
        <ele>1855.3</ele>
        <time>2026-07-07T08:31:13Z</time>
      </trkpt>
      <trkpt lat="42.97253" lon="0.31457">
        <ele>1856.3</ele>
        <time>2026-07-07T08:31:14Z</time>
      </trkpt>
      <trkpt lat="42.97253" lon="0.31456">
        <ele>1855.3</ele>
        <time>2026-07-07T08:31:15Z</time>
      </trkpt>
      <trkpt lat="42.97253" lon="0.31455">
        <ele>1856.3</ele>
        <time>2026-07-07T08:31:16Z</time>
      </trkpt>
      <trkpt lat="42.97253" lon="0.31455">
        <ele>1855.3</ele>
        <time>2026-07-07T08:31:17Z</time>
      </trkpt>
      <trkpt lat="42.97253" lon="0.31455">
        <ele>1855.3</ele>
        <time>2026-07-07T08:31:18Z</time>
      </trkpt>
      <trkpt lat="42.97253" lon="0.31454">
        <ele>1855.3</ele>
        <time>2026-07-07T08:31:19Z</time>
      </trkpt>
      <trkpt lat="42.97253" lon="0.31454">
        <ele>1854.3</ele>
        <time>2026-07-07T08:31:20Z</time>
      </trkpt>
      <trkpt lat="42.97254" lon="0.31454">
        <ele>1854.3</ele>
        <time>2026-07-07T08:31:20Z</time>
      </trkpt>
      <trkpt lat="42.97254" lon="0.31453">
        <ele>1854.3</ele>
        <time>2026-07-07T08:31:21Z</time>
      </trkpt>
      <trkpt lat="42.97254" lon="0.31453">
        <ele>1854.3</ele>
        <time>2026-07-07T08:31:22Z</time>
      </trkpt>
      <trkpt lat="42.97254" lon="0.31453">
        <ele>1855.3</ele>
        <time>2026-07-07T08:31:23Z</time>
      </trkpt>
      <trkpt lat="42.97255" lon="0.31452">
        <ele>1856.3</ele>
        <time>2026-07-07T08:31:24Z</time>
      </trkpt>
      <trkpt lat="42.97255" lon="0.31452">
        <ele>1857.3</ele>
        <time>2026-07-07T08:31:25Z</time>
      </trkpt>
      <trkpt lat="42.97255" lon="0.31451">
        <ele>1857.3</ele>
        <time>2026-07-07T08:31:26Z</time>
      </trkpt>
      <trkpt lat="42.97255" lon="0.31451">
        <ele>1857.3</ele>
        <time>2026-07-07T08:31:27Z</time>
      </trkpt>
      <trkpt lat="42.97255" lon="0.31451">
        <ele>1857.3</ele>
        <time>2026-07-07T08:31:27Z</time>
      </trkpt>
      <trkpt lat="42.97255" lon="0.31451">
        <ele>1858.3</ele>
        <time>2026-07-07T08:31:28Z</time>
      </trkpt>
      <trkpt lat="42.97255" lon="0.3145">
        <ele>1858.3</ele>
        <time>2026-07-07T08:31:29Z</time>
      </trkpt>
      <trkpt lat="42.97255" lon="0.3145">
        <ele>1858.3</ele>
        <time>2026-07-07T08:31:30Z</time>
      </trkpt>
      <trkpt lat="42.97255" lon="0.3145">
        <ele>1858.3</ele>
        <time>2026-07-07T08:31:31Z</time>
      </trkpt>
      <trkpt lat="42.97256" lon="0.31449">
        <ele>1859.3</ele>
        <time>2026-07-07T08:31:32Z</time>
      </trkpt>
      <trkpt lat="42.97256" lon="0.31449">
        <ele>1859.3</ele>
        <time>2026-07-07T08:31:32Z</time>
      </trkpt>
      <trkpt lat="42.97256" lon="0.31448">
        <ele>1859.3</ele>
        <time>2026-07-07T08:31:33Z</time>
      </trkpt>
      <trkpt lat="42.97257" lon="0.31446">
        <ele>1859.3</ele>
        <time>2026-07-07T08:31:34Z</time>
      </trkpt>
      <trkpt lat="42.97257" lon="0.31445">
        <ele>1858.3</ele>
        <time>2026-07-07T08:31:35Z</time>
      </trkpt>
      <trkpt lat="42.97258" lon="0.31444">
        <ele>1858.3</ele>
        <time>2026-07-07T08:31:36Z</time>
      </trkpt>
      <trkpt lat="42.97258" lon="0.31444">
        <ele>1859.3</ele>
        <time>2026-07-07T08:31:37Z</time>
      </trkpt>
      <trkpt lat="42.97259" lon="0.31443">
        <ele>1860.3</ele>
        <time>2026-07-07T08:31:38Z</time>
      </trkpt>
      <trkpt lat="42.97259" lon="0.31442">
        <ele>1860.3</ele>
        <time>2026-07-07T08:31:39Z</time>
      </trkpt>
      <trkpt lat="42.97259" lon="0.31442">
        <ele>1859.3</ele>
        <time>2026-07-07T08:31:40Z</time>
      </trkpt>
      <trkpt lat="42.97259" lon="0.31441">
        <ele>1860.3</ele>
        <time>2026-07-07T08:31:41Z</time>
      </trkpt>
      <trkpt lat="42.97259" lon="0.31441">
        <ele>1860.3</ele>
        <time>2026-07-07T08:31:42Z</time>
      </trkpt>
      <trkpt lat="42.97259" lon="0.3144">
        <ele>1860.3</ele>
        <time>2026-07-07T08:31:43Z</time>
      </trkpt>
      <trkpt lat="42.97259" lon="0.3144">
        <ele>1860.3</ele>
        <time>2026-07-07T08:31:44Z</time>
      </trkpt>
      <trkpt lat="42.97259" lon="0.3144">
        <ele>1860.3</ele>
        <time>2026-07-07T08:31:45Z</time>
      </trkpt>
      <trkpt lat="42.97259" lon="0.3144">
        <ele>1861.3</ele>
        <time>2026-07-07T08:31:46Z</time>
      </trkpt>
      <trkpt lat="42.97259" lon="0.31439">
        <ele>1861.3</ele>
        <time>2026-07-07T08:31:47Z</time>
      </trkpt>
      <trkpt lat="42.97259" lon="0.31439">
        <ele>1861.3</ele>
        <time>2026-07-07T08:31:47Z</time>
      </trkpt>
      <trkpt lat="42.9726" lon="0.31438">
        <ele>1861.3</ele>
        <time>2026-07-07T08:31:48Z</time>
      </trkpt>
      <trkpt lat="42.9726" lon="0.31438">
        <ele>1861.3</ele>
        <time>2026-07-07T08:31:48Z</time>
      </trkpt>
      <trkpt lat="42.9726" lon="0.31437">
        <ele>1861.3</ele>
        <time>2026-07-07T08:31:49Z</time>
      </trkpt>
      <trkpt lat="42.97261" lon="0.31436">
        <ele>1862.3</ele>
        <time>2026-07-07T08:31:50Z</time>
      </trkpt>
      <trkpt lat="42.97261" lon="0.31436">
        <ele>1862.3</ele>
        <time>2026-07-07T08:31:51Z</time>
      </trkpt>
      <trkpt lat="42.97262" lon="0.31435">
        <ele>1862.3</ele>
        <time>2026-07-07T08:31:52Z</time>
      </trkpt>
      <trkpt lat="42.97262" lon="0.31434">
        <ele>1862.3</ele>
        <time>2026-07-07T08:31:53Z</time>
      </trkpt>
      <trkpt lat="42.97263" lon="0.31433">
        <ele>1862.3</ele>
        <time>2026-07-07T08:31:54Z</time>
      </trkpt>
      <trkpt lat="42.97263" lon="0.31433">
        <ele>1862.3</ele>
        <time>2026-07-07T08:31:55Z</time>
      </trkpt>
      <trkpt lat="42.97263" lon="0.31433">
        <ele>1862.3</ele>
        <time>2026-07-07T08:31:55Z</time>
      </trkpt>
      <trkpt lat="42.97264" lon="0.31432">
        <ele>1862.3</ele>
        <time>2026-07-07T08:31:56Z</time>
      </trkpt>
      <trkpt lat="42.97264" lon="0.31432">
        <ele>1862.3</ele>
        <time>2026-07-07T08:31:56Z</time>
      </trkpt>
      <trkpt lat="42.97264" lon="0.31432">
        <ele>1862.3</ele>
        <time>2026-07-07T08:31:57Z</time>
      </trkpt>
      <trkpt lat="42.97265" lon="0.31431">
        <ele>1862.3</ele>
        <time>2026-07-07T08:31:58Z</time>
      </trkpt>
      <trkpt lat="42.97265" lon="0.31431">
        <ele>1862.3</ele>
        <time>2026-07-07T08:31:59Z</time>
      </trkpt>
      <trkpt lat="42.97266" lon="0.3143">
        <ele>1862.3</ele>
        <time>2026-07-07T08:32:00Z</time>
      </trkpt>
      <trkpt lat="42.97266" lon="0.3143">
        <ele>1862.3</ele>
        <time>2026-07-07T08:32:01Z</time>
      </trkpt>
      <trkpt lat="42.97266" lon="0.31429">
        <ele>1862.3</ele>
        <time>2026-07-07T08:32:02Z</time>
      </trkpt>
      <trkpt lat="42.97267" lon="0.31429">
        <ele>1862.3</ele>
        <time>2026-07-07T08:32:03Z</time>
      </trkpt>
      <trkpt lat="42.97267" lon="0.31428">
        <ele>1862.3</ele>
        <time>2026-07-07T08:32:03Z</time>
      </trkpt>
      <trkpt lat="42.97267" lon="0.31427">
        <ele>1862.3</ele>
        <time>2026-07-07T08:32:04Z</time>
      </trkpt>
      <trkpt lat="42.97267" lon="0.31427">
        <ele>1862.3</ele>
        <time>2026-07-07T08:32:05Z</time>
      </trkpt>
      <trkpt lat="42.97267" lon="0.31426">
        <ele>1862.3</ele>
        <time>2026-07-07T08:32:06Z</time>
      </trkpt>
      <trkpt lat="42.97267" lon="0.31425">
        <ele>1862.3</ele>
        <time>2026-07-07T08:32:07Z</time>
      </trkpt>
      <trkpt lat="42.97268" lon="0.31425">
        <ele>1863.3</ele>
        <time>2026-07-07T08:32:08Z</time>
      </trkpt>
      <trkpt lat="42.97268" lon="0.31425">
        <ele>1863.3</ele>
        <time>2026-07-07T08:32:09Z</time>
      </trkpt>
      <trkpt lat="42.97268" lon="0.31424">
        <ele>1863.3</ele>
        <time>2026-07-07T08:32:10Z</time>
      </trkpt>
      <trkpt lat="42.97268" lon="0.31424">
        <ele>1863.3</ele>
        <time>2026-07-07T08:32:11Z</time>
      </trkpt>
      <trkpt lat="42.97268" lon="0.31423">
        <ele>1862.3</ele>
        <time>2026-07-07T08:32:12Z</time>
      </trkpt>
      <trkpt lat="42.97268" lon="0.31422">
        <ele>1863.3</ele>
        <time>2026-07-07T08:32:12Z</time>
      </trkpt>
      <trkpt lat="42.97268" lon="0.31422">
        <ele>1863.3</ele>
        <time>2026-07-07T08:32:13Z</time>
      </trkpt>
      <trkpt lat="42.97269" lon="0.31421">
        <ele>1863.3</ele>
        <time>2026-07-07T08:32:14Z</time>
      </trkpt>
      <trkpt lat="42.97269" lon="0.31421">
        <ele>1863.3</ele>
        <time>2026-07-07T08:32:15Z</time>
      </trkpt>
      <trkpt lat="42.97269" lon="0.3142">
        <ele>1864.3</ele>
        <time>2026-07-07T08:32:16Z</time>
      </trkpt>
      <trkpt lat="42.97269" lon="0.31419">
        <ele>1864.3</ele>
        <time>2026-07-07T08:32:17Z</time>
      </trkpt>
      <trkpt lat="42.9727" lon="0.31419">
        <ele>1864.3</ele>
        <time>2026-07-07T08:32:17Z</time>
      </trkpt>
      <trkpt lat="42.9727" lon="0.31418">
        <ele>1864.3</ele>
        <time>2026-07-07T08:32:18Z</time>
      </trkpt>
      <trkpt lat="42.9727" lon="0.31417">
        <ele>1864.3</ele>
        <time>2026-07-07T08:32:19Z</time>
      </trkpt>
      <trkpt lat="42.9727" lon="0.31416">
        <ele>1864.3</ele>
        <time>2026-07-07T08:32:19Z</time>
      </trkpt>
      <trkpt lat="42.9727" lon="0.31416">
        <ele>1864.3</ele>
        <time>2026-07-07T08:32:20Z</time>
      </trkpt>
      <trkpt lat="42.9727" lon="0.31415">
        <ele>1864.3</ele>
        <time>2026-07-07T08:32:21Z</time>
      </trkpt>
      <trkpt lat="42.9727" lon="0.31415">
        <ele>1864.3</ele>
        <time>2026-07-07T08:32:22Z</time>
      </trkpt>
      <trkpt lat="42.9727" lon="0.31416">
        <ele>1864.3</ele>
        <time>2026-07-07T08:32:23Z</time>
      </trkpt>
      <trkpt lat="42.9727" lon="0.31416">
        <ele>1864.3</ele>
        <time>2026-07-07T08:32:24Z</time>
      </trkpt>
      <trkpt lat="42.9727" lon="0.31415">
        <ele>1864.3</ele>
        <time>2026-07-07T08:32:25Z</time>
      </trkpt>
      <trkpt lat="42.9727" lon="0.31415">
        <ele>1864.3</ele>
        <time>2026-07-07T08:32:25Z</time>
      </trkpt>
      <trkpt lat="42.97271" lon="0.31415">
        <ele>1864.3</ele>
        <time>2026-07-07T08:32:26Z</time>
      </trkpt>
      <trkpt lat="42.97271" lon="0.31414">
        <ele>1864.3</ele>
        <time>2026-07-07T08:32:27Z</time>
      </trkpt>
      <trkpt lat="42.97272" lon="0.31413">
        <ele>1864.3</ele>
        <time>2026-07-07T08:32:28Z</time>
      </trkpt>
      <trkpt lat="42.97273" lon="0.31412">
        <ele>1865.3</ele>
        <time>2026-07-07T08:32:29Z</time>
      </trkpt>
      <trkpt lat="42.97274" lon="0.31411">
        <ele>1865.3</ele>
        <time>2026-07-07T08:32:30Z</time>
      </trkpt>
      <trkpt lat="42.97274" lon="0.3141">
        <ele>1865.3</ele>
        <time>2026-07-07T08:32:31Z</time>
      </trkpt>
      <trkpt lat="42.97275" lon="0.3141">
        <ele>1865.3</ele>
        <time>2026-07-07T08:32:31Z</time>
      </trkpt>
      <trkpt lat="42.97275" lon="0.31409">
        <ele>1865.3</ele>
        <time>2026-07-07T08:32:32Z</time>
      </trkpt>
      <trkpt lat="42.97276" lon="0.31408">
        <ele>1866.3</ele>
        <time>2026-07-07T08:32:33Z</time>
      </trkpt>
      <trkpt lat="42.97276" lon="0.31407">
        <ele>1866.3</ele>
        <time>2026-07-07T08:32:34Z</time>
      </trkpt>
      <trkpt lat="42.97277" lon="0.31407">
        <ele>1866.3</ele>
        <time>2026-07-07T08:32:35Z</time>
      </trkpt>
      <trkpt lat="42.97276" lon="0.31406">
        <ele>1865.3</ele>
        <time>2026-07-07T08:32:36Z</time>
      </trkpt>
      <trkpt lat="42.97276" lon="0.31405">
        <ele>1865.3</ele>
        <time>2026-07-07T08:32:37Z</time>
      </trkpt>
      <trkpt lat="42.97276" lon="0.31404">
        <ele>1865.3</ele>
        <time>2026-07-07T08:32:37Z</time>
      </trkpt>
      <trkpt lat="42.97277" lon="0.31403">
        <ele>1865.3</ele>
        <time>2026-07-07T08:32:38Z</time>
      </trkpt>
      <trkpt lat="42.97277" lon="0.31402">
        <ele>1867.3</ele>
        <time>2026-07-07T08:32:39Z</time>
      </trkpt>
      <trkpt lat="42.97277" lon="0.31401">
        <ele>1866.3</ele>
        <time>2026-07-07T08:32:40Z</time>
      </trkpt>
      <trkpt lat="42.97277" lon="0.31401">
        <ele>1866.3</ele>
        <time>2026-07-07T08:32:41Z</time>
      </trkpt>
      <trkpt lat="42.97277" lon="0.314">
        <ele>1867.3</ele>
        <time>2026-07-07T08:32:42Z</time>
      </trkpt>
      <trkpt lat="42.97277" lon="0.314">
        <ele>1866.3</ele>
        <time>2026-07-07T08:32:42Z</time>
      </trkpt>
      <trkpt lat="42.97277" lon="0.31399">
        <ele>1866.3</ele>
        <time>2026-07-07T08:32:43Z</time>
      </trkpt>
      <trkpt lat="42.97278" lon="0.31399">
        <ele>1866.3</ele>
        <time>2026-07-07T08:32:44Z</time>
      </trkpt>
      <trkpt lat="42.97278" lon="0.31398">
        <ele>1866.3</ele>
        <time>2026-07-07T08:32:45Z</time>
      </trkpt>
      <trkpt lat="42.97278" lon="0.31397">
        <ele>1867.3</ele>
        <time>2026-07-07T08:32:46Z</time>
      </trkpt>
      <trkpt lat="42.97278" lon="0.31397">
        <ele>1866.3</ele>
        <time>2026-07-07T08:32:47Z</time>
      </trkpt>
      <trkpt lat="42.97278" lon="0.31396">
        <ele>1867.3</ele>
        <time>2026-07-07T08:32:48Z</time>
      </trkpt>
      <trkpt lat="42.97278" lon="0.31396">
        <ele>1867.3</ele>
        <time>2026-07-07T08:32:48Z</time>
      </trkpt>
      <trkpt lat="42.97278" lon="0.31395">
        <ele>1867.3</ele>
        <time>2026-07-07T08:32:49Z</time>
      </trkpt>
      <trkpt lat="42.97278" lon="0.31394">
        <ele>1867.3</ele>
        <time>2026-07-07T08:32:50Z</time>
      </trkpt>
      <trkpt lat="42.97278" lon="0.31393">
        <ele>1867.3</ele>
        <time>2026-07-07T08:32:51Z</time>
      </trkpt>
      <trkpt lat="42.97278" lon="0.31393">
        <ele>1868.3</ele>
        <time>2026-07-07T08:32:52Z</time>
      </trkpt>
      <trkpt lat="42.97278" lon="0.31392">
        <ele>1868.3</ele>
        <time>2026-07-07T08:32:53Z</time>
      </trkpt>
      <trkpt lat="42.97278" lon="0.31392">
        <ele>1868.3</ele>
        <time>2026-07-07T08:32:53Z</time>
      </trkpt>
      <trkpt lat="42.97279" lon="0.31391">
        <ele>1868.3</ele>
        <time>2026-07-07T08:32:54Z</time>
      </trkpt>
      <trkpt lat="42.97279" lon="0.31391">
        <ele>1868.3</ele>
        <time>2026-07-07T08:32:55Z</time>
      </trkpt>
      <trkpt lat="42.97279" lon="0.31391">
        <ele>1867.3</ele>
        <time>2026-07-07T08:32:55Z</time>
      </trkpt>
      <trkpt lat="42.97279" lon="0.31391">
        <ele>1867.3</ele>
        <time>2026-07-07T08:32:56Z</time>
      </trkpt>
      <trkpt lat="42.97279" lon="0.3139">
        <ele>1866.3</ele>
        <time>2026-07-07T08:32:56Z</time>
      </trkpt>
      <trkpt lat="42.97279" lon="0.3139">
        <ele>1866.3</ele>
        <time>2026-07-07T08:32:57Z</time>
      </trkpt>
      <trkpt lat="42.97279" lon="0.31389">
        <ele>1866.3</ele>
        <time>2026-07-07T08:32:58Z</time>
      </trkpt>
      <trkpt lat="42.97279" lon="0.31388">
        <ele>1867.3</ele>
        <time>2026-07-07T08:32:59Z</time>
      </trkpt>
      <trkpt lat="42.97279" lon="0.31388">
        <ele>1867.3</ele>
        <time>2026-07-07T08:33:00Z</time>
      </trkpt>
      <trkpt lat="42.9728" lon="0.31387">
        <ele>1868.3</ele>
        <time>2026-07-07T08:33:00Z</time>
      </trkpt>
      <trkpt lat="42.9728" lon="0.31387">
        <ele>1868.3</ele>
        <time>2026-07-07T08:33:01Z</time>
      </trkpt>
      <trkpt lat="42.9728" lon="0.31387">
        <ele>1868.3</ele>
        <time>2026-07-07T08:33:02Z</time>
      </trkpt>
      <trkpt lat="42.97281" lon="0.31387">
        <ele>1868.3</ele>
        <time>2026-07-07T08:33:03Z</time>
      </trkpt>
      <trkpt lat="42.97281" lon="0.31386">
        <ele>1869.3</ele>
        <time>2026-07-07T08:33:04Z</time>
      </trkpt>
      <trkpt lat="42.97281" lon="0.31386">
        <ele>1869.3</ele>
        <time>2026-07-07T08:33:05Z</time>
      </trkpt>
      <trkpt lat="42.97281" lon="0.31386">
        <ele>1869.3</ele>
        <time>2026-07-07T08:33:06Z</time>
      </trkpt>
      <trkpt lat="42.97281" lon="0.31386">
        <ele>1869.3</ele>
        <time>2026-07-07T08:33:06Z</time>
      </trkpt>
      <trkpt lat="42.97281" lon="0.31386">
        <ele>1869.3</ele>
        <time>2026-07-07T08:33:07Z</time>
      </trkpt>
      <trkpt lat="42.97281" lon="0.31386">
        <ele>1870.3</ele>
        <time>2026-07-07T08:33:08Z</time>
      </trkpt>
      <trkpt lat="42.97281" lon="0.31386">
        <ele>1869.3</ele>
        <time>2026-07-07T08:33:09Z</time>
      </trkpt>
      <trkpt lat="42.97282" lon="0.31384">
        <ele>1869.3</ele>
        <time>2026-07-07T08:33:10Z</time>
      </trkpt>
      <trkpt lat="42.97282" lon="0.31384">
        <ele>1869.3</ele>
        <time>2026-07-07T08:33:11Z</time>
      </trkpt>
      <trkpt lat="42.97282" lon="0.31383">
        <ele>1869.3</ele>
        <time>2026-07-07T08:33:12Z</time>
      </trkpt>
      <trkpt lat="42.97282" lon="0.31383">
        <ele>1869.3</ele>
        <time>2026-07-07T08:33:13Z</time>
      </trkpt>
      <trkpt lat="42.97282" lon="0.31383">
        <ele>1869.3</ele>
        <time>2026-07-07T08:33:14Z</time>
      </trkpt>
      <trkpt lat="42.97282" lon="0.31383">
        <ele>1869.3</ele>
        <time>2026-07-07T08:33:15Z</time>
      </trkpt>
      <trkpt lat="42.97282" lon="0.31382">
        <ele>1869.3</ele>
        <time>2026-07-07T08:33:16Z</time>
      </trkpt>
      <trkpt lat="42.97282" lon="0.31382">
        <ele>1869.3</ele>
        <time>2026-07-07T08:33:17Z</time>
      </trkpt>
      <trkpt lat="42.97283" lon="0.31382">
        <ele>1870.3</ele>
        <time>2026-07-07T08:33:18Z</time>
      </trkpt>
      <trkpt lat="42.97282" lon="0.31382">
        <ele>1870.3</ele>
        <time>2026-07-07T08:33:19Z</time>
      </trkpt>
      <trkpt lat="42.97282" lon="0.31381">
        <ele>1870.3</ele>
        <time>2026-07-07T08:33:20Z</time>
      </trkpt>
      <trkpt lat="42.97282" lon="0.31381">
        <ele>1870.3</ele>
        <time>2026-07-07T08:33:21Z</time>
      </trkpt>
      <trkpt lat="42.97282" lon="0.31381">
        <ele>1870.3</ele>
        <time>2026-07-07T08:33:22Z</time>
      </trkpt>
      <trkpt lat="42.97282" lon="0.31381">
        <ele>1870.3</ele>
        <time>2026-07-07T08:33:23Z</time>
      </trkpt>
      <trkpt lat="42.97282" lon="0.31381">
        <ele>1870.3</ele>
        <time>2026-07-07T08:33:24Z</time>
      </trkpt>
      <trkpt lat="42.97282" lon="0.31381">
        <ele>1870.3</ele>
        <time>2026-07-07T08:33:25Z</time>
      </trkpt>
      <trkpt lat="42.97282" lon="0.31381">
        <ele>1869.3</ele>
        <time>2026-07-07T08:33:26Z</time>
      </trkpt>
      <trkpt lat="42.97283" lon="0.31381">
        <ele>1870.3</ele>
        <time>2026-07-07T08:33:27Z</time>
      </trkpt>
      <trkpt lat="42.97283" lon="0.31381">
        <ele>1870.3</ele>
        <time>2026-07-07T08:33:28Z</time>
      </trkpt>
      <trkpt lat="42.97283" lon="0.3138">
        <ele>1870.3</ele>
        <time>2026-07-07T08:33:29Z</time>
      </trkpt>
      <trkpt lat="42.97283" lon="0.3138">
        <ele>1870.3</ele>
        <time>2026-07-07T08:33:30Z</time>
      </trkpt>
      <trkpt lat="42.97283" lon="0.3138">
        <ele>1870.3</ele>
        <time>2026-07-07T08:33:31Z</time>
      </trkpt>
      <trkpt lat="42.97283" lon="0.3138">
        <ele>1870.3</ele>
        <time>2026-07-07T08:33:32Z</time>
      </trkpt>
      <trkpt lat="42.97283" lon="0.3138">
        <ele>1870.3</ele>
        <time>2026-07-07T08:33:33Z</time>
      </trkpt>
      <trkpt lat="42.97284" lon="0.31377">
        <ele>1871.3</ele>
        <time>2026-07-07T08:33:34Z</time>
      </trkpt>
      <trkpt lat="42.97284" lon="0.31377">
        <ele>1871.3</ele>
        <time>2026-07-07T08:33:35Z</time>
      </trkpt>
      <trkpt lat="42.97284" lon="0.31377">
        <ele>1871.3</ele>
        <time>2026-07-07T08:33:36Z</time>
      </trkpt>
      <trkpt lat="42.97284" lon="0.31376">
        <ele>1871.3</ele>
        <time>2026-07-07T08:33:37Z</time>
      </trkpt>
      <trkpt lat="42.97284" lon="0.31376">
        <ele>1871.3</ele>
        <time>2026-07-07T08:33:38Z</time>
      </trkpt>
      <trkpt lat="42.97284" lon="0.31376">
        <ele>1871.3</ele>
        <time>2026-07-07T08:33:39Z</time>
      </trkpt>
      <trkpt lat="42.97284" lon="0.31376">
        <ele>1871.3</ele>
        <time>2026-07-07T08:33:40Z</time>
      </trkpt>
      <trkpt lat="42.97284" lon="0.31374">
        <ele>1871.3</ele>
        <time>2026-07-07T08:33:41Z</time>
      </trkpt>
      <trkpt lat="42.97284" lon="0.31374">
        <ele>1872.3</ele>
        <time>2026-07-07T08:33:42Z</time>
      </trkpt>
      <trkpt lat="42.97284" lon="0.31374">
        <ele>1872.3</ele>
        <time>2026-07-07T08:33:43Z</time>
      </trkpt>
      <trkpt lat="42.97284" lon="0.31373">
        <ele>1872.3</ele>
        <time>2026-07-07T08:33:44Z</time>
      </trkpt>
      <trkpt lat="42.97284" lon="0.31373">
        <ele>1872.3</ele>
        <time>2026-07-07T08:33:45Z</time>
      </trkpt>
      <trkpt lat="42.97284" lon="0.31373">
        <ele>1872.3</ele>
        <time>2026-07-07T08:33:46Z</time>
      </trkpt>
      <trkpt lat="42.97284" lon="0.31371">
        <ele>1871.3</ele>
        <time>2026-07-07T08:33:47Z</time>
      </trkpt>
      <trkpt lat="42.97284" lon="0.31371">
        <ele>1871.3</ele>
        <time>2026-07-07T08:33:48Z</time>
      </trkpt>
      <trkpt lat="42.97285" lon="0.31371">
        <ele>1872.3</ele>
        <time>2026-07-07T08:33:49Z</time>
      </trkpt>
      <trkpt lat="42.97285" lon="0.3137">
        <ele>1872.3</ele>
        <time>2026-07-07T08:33:50Z</time>
      </trkpt>
      <trkpt lat="42.97285" lon="0.31369">
        <ele>1873.3</ele>
        <time>2026-07-07T08:33:51Z</time>
      </trkpt>
      <trkpt lat="42.97285" lon="0.31368">
        <ele>1873.3</ele>
        <time>2026-07-07T08:33:52Z</time>
      </trkpt>
      <trkpt lat="42.97285" lon="0.31368">
        <ele>1873.3</ele>
        <time>2026-07-07T08:33:53Z</time>
      </trkpt>
      <trkpt lat="42.97285" lon="0.31368">
        <ele>1874.3</ele>
        <time>2026-07-07T08:33:54Z</time>
      </trkpt>
      <trkpt lat="42.97285" lon="0.31368">
        <ele>1875.3</ele>
        <time>2026-07-07T08:33:55Z</time>
      </trkpt>
      <trkpt lat="42.97285" lon="0.31368">
        <ele>1875.3</ele>
        <time>2026-07-07T08:33:56Z</time>
      </trkpt>
      <trkpt lat="42.97285" lon="0.31368">
        <ele>1875.3</ele>
        <time>2026-07-07T08:33:57Z</time>
      </trkpt>
      <trkpt lat="42.97285" lon="0.31368">
        <ele>1875.3</ele>
        <time>2026-07-07T08:33:58Z</time>
      </trkpt>
      <trkpt lat="42.97285" lon="0.31366">
        <ele>1875.3</ele>
        <time>2026-07-07T08:33:59Z</time>
      </trkpt>
      <trkpt lat="42.97285" lon="0.31365">
        <ele>1875.3</ele>
        <time>2026-07-07T08:34:00Z</time>
      </trkpt>
      <trkpt lat="42.97286" lon="0.31365">
        <ele>1875.3</ele>
        <time>2026-07-07T08:34:01Z</time>
      </trkpt>
      <trkpt lat="42.97286" lon="0.31365">
        <ele>1875.3</ele>
        <time>2026-07-07T08:34:02Z</time>
      </trkpt>
      <trkpt lat="42.97285" lon="0.31365">
        <ele>1876.3</ele>
        <time>2026-07-07T08:34:03Z</time>
      </trkpt>
      <trkpt lat="42.97286" lon="0.31364">
        <ele>1875.3</ele>
        <time>2026-07-07T08:34:04Z</time>
      </trkpt>
      <trkpt lat="42.97286" lon="0.31363">
        <ele>1876.3</ele>
        <time>2026-07-07T08:34:05Z</time>
      </trkpt>
      <trkpt lat="42.97286" lon="0.31363">
        <ele>1876.3</ele>
        <time>2026-07-07T08:34:06Z</time>
      </trkpt>
      <trkpt lat="42.97286" lon="0.31363">
        <ele>1876.3</ele>
        <time>2026-07-07T08:34:07Z</time>
      </trkpt>
      <trkpt lat="42.97286" lon="0.31362">
        <ele>1875.3</ele>
        <time>2026-07-07T08:34:08Z</time>
      </trkpt>
      <trkpt lat="42.97286" lon="0.31361">
        <ele>1876.3</ele>
        <time>2026-07-07T08:34:09Z</time>
      </trkpt>
      <trkpt lat="42.97286" lon="0.31361">
        <ele>1876.3</ele>
        <time>2026-07-07T08:34:10Z</time>
      </trkpt>
      <trkpt lat="42.97286" lon="0.31361">
        <ele>1876.3</ele>
        <time>2026-07-07T08:34:11Z</time>
      </trkpt>
      <trkpt lat="42.97286" lon="0.31361">
        <ele>1876.3</ele>
        <time>2026-07-07T08:34:12Z</time>
      </trkpt>
      <trkpt lat="42.97287" lon="0.31361">
        <ele>1876.3</ele>
        <time>2026-07-07T08:34:13Z</time>
      </trkpt>
      <trkpt lat="42.97287" lon="0.31361">
        <ele>1876.3</ele>
        <time>2026-07-07T08:34:14Z</time>
      </trkpt>
      <trkpt lat="42.97287" lon="0.31361">
        <ele>1877.3</ele>
        <time>2026-07-07T08:34:15Z</time>
      </trkpt>
      <trkpt lat="42.97287" lon="0.3136">
        <ele>1877.3</ele>
        <time>2026-07-07T08:34:16Z</time>
      </trkpt>
      <trkpt lat="42.97287" lon="0.3136">
        <ele>1877.3</ele>
        <time>2026-07-07T08:34:17Z</time>
      </trkpt>
      <trkpt lat="42.97287" lon="0.3136">
        <ele>1877.3</ele>
        <time>2026-07-07T08:34:18Z</time>
      </trkpt>
      <trkpt lat="42.97287" lon="0.3136">
        <ele>1877.3</ele>
        <time>2026-07-07T08:34:19Z</time>
      </trkpt>
      <trkpt lat="42.97287" lon="0.3136">
        <ele>1877.3</ele>
        <time>2026-07-07T08:34:20Z</time>
      </trkpt>
      <trkpt lat="42.97287" lon="0.3136">
        <ele>1877.3</ele>
        <time>2026-07-07T08:34:21Z</time>
      </trkpt>
      <trkpt lat="42.97287" lon="0.3136">
        <ele>1877.3</ele>
        <time>2026-07-07T08:34:22Z</time>
      </trkpt>
      <trkpt lat="42.97287" lon="0.3136">
        <ele>1877.3</ele>
        <time>2026-07-07T08:34:23Z</time>
      </trkpt>
      <trkpt lat="42.97288" lon="0.31359">
        <ele>1877.3</ele>
        <time>2026-07-07T08:34:24Z</time>
      </trkpt>
      <trkpt lat="42.97288" lon="0.31358">
        <ele>1877.3</ele>
        <time>2026-07-07T08:34:25Z</time>
      </trkpt>
      <trkpt lat="42.97288" lon="0.31358">
        <ele>1877.3</ele>
        <time>2026-07-07T08:34:26Z</time>
      </trkpt>
      <trkpt lat="42.97288" lon="0.31357">
        <ele>1878.3</ele>
        <time>2026-07-07T08:34:27Z</time>
      </trkpt>
      <trkpt lat="42.97288" lon="0.31358">
        <ele>1878.3</ele>
        <time>2026-07-07T08:34:28Z</time>
      </trkpt>
      <trkpt lat="42.97288" lon="0.31357">
        <ele>1878.3</ele>
        <time>2026-07-07T08:34:29Z</time>
      </trkpt>
      <trkpt lat="42.97288" lon="0.31357">
        <ele>1878.3</ele>
        <time>2026-07-07T08:34:30Z</time>
      </trkpt>
      <trkpt lat="42.97288" lon="0.31357">
        <ele>1878.3</ele>
        <time>2026-07-07T08:34:31Z</time>
      </trkpt>
      <trkpt lat="42.97288" lon="0.31357">
        <ele>1878.3</ele>
        <time>2026-07-07T08:34:32Z</time>
      </trkpt>
      <trkpt lat="42.97287" lon="0.31356">
        <ele>1879.3</ele>
        <time>2026-07-07T08:34:33Z</time>
      </trkpt>
      <trkpt lat="42.97287" lon="0.31355">
        <ele>1880.3</ele>
        <time>2026-07-07T08:34:34Z</time>
      </trkpt>
      <trkpt lat="42.97288" lon="0.31356">
        <ele>1880.3</ele>
        <time>2026-07-07T08:34:35Z</time>
      </trkpt>
      <trkpt lat="42.97288" lon="0.31356">
        <ele>1880.3</ele>
        <time>2026-07-07T08:34:36Z</time>
      </trkpt>
      <trkpt lat="42.97288" lon="0.31356">
        <ele>1881.3</ele>
        <time>2026-07-07T08:34:37Z</time>
      </trkpt>
      <trkpt lat="42.97288" lon="0.31356">
        <ele>1881.3</ele>
        <time>2026-07-07T08:34:38Z</time>
      </trkpt>
      <trkpt lat="42.97288" lon="0.31356">
        <ele>1881.3</ele>
        <time>2026-07-07T08:34:39Z</time>
      </trkpt>
      <trkpt lat="42.97289" lon="0.31356">
        <ele>1881.3</ele>
        <time>2026-07-07T08:34:40Z</time>
      </trkpt>
      <trkpt lat="42.97288" lon="0.31355">
        <ele>1880.3</ele>
        <time>2026-07-07T08:34:41Z</time>
      </trkpt>
      <trkpt lat="42.97288" lon="0.31355">
        <ele>1880.3</ele>
        <time>2026-07-07T08:34:42Z</time>
      </trkpt>
      <trkpt lat="42.97289" lon="0.31354">
        <ele>1880.3</ele>
        <time>2026-07-07T08:34:43Z</time>
      </trkpt>
      <trkpt lat="42.97289" lon="0.31354">
        <ele>1880.3</ele>
        <time>2026-07-07T08:34:44Z</time>
      </trkpt>
      <trkpt lat="42.97289" lon="0.31354">
        <ele>1881.3</ele>
        <time>2026-07-07T08:34:45Z</time>
      </trkpt>
      <trkpt lat="42.9729" lon="0.31353">
        <ele>1880.3</ele>
        <time>2026-07-07T08:34:46Z</time>
      </trkpt>
      <trkpt lat="42.9729" lon="0.31353">
        <ele>1881.3</ele>
        <time>2026-07-07T08:34:47Z</time>
      </trkpt>
      <trkpt lat="42.9729" lon="0.31353">
        <ele>1880.3</ele>
        <time>2026-07-07T08:34:48Z</time>
      </trkpt>
      <trkpt lat="42.9729" lon="0.31352">
        <ele>1881.3</ele>
        <time>2026-07-07T08:34:49Z</time>
      </trkpt>
      <trkpt lat="42.97291" lon="0.31352">
        <ele>1881.3</ele>
        <time>2026-07-07T08:34:50Z</time>
      </trkpt>
      <trkpt lat="42.97291" lon="0.31352">
        <ele>1881.3</ele>
        <time>2026-07-07T08:34:51Z</time>
      </trkpt>
      <trkpt lat="42.97291" lon="0.31352">
        <ele>1881.3</ele>
        <time>2026-07-07T08:34:52Z</time>
      </trkpt>
      <trkpt lat="42.97291" lon="0.31352">
        <ele>1881.3</ele>
        <time>2026-07-07T08:34:53Z</time>
      </trkpt>
      <trkpt lat="42.97291" lon="0.31352">
        <ele>1881.3</ele>
        <time>2026-07-07T08:34:54Z</time>
      </trkpt>
      <trkpt lat="42.97291" lon="0.31352">
        <ele>1881.3</ele>
        <time>2026-07-07T08:34:55Z</time>
      </trkpt>
      <trkpt lat="42.97291" lon="0.31352">
        <ele>1881.3</ele>
        <time>2026-07-07T08:34:56Z</time>
      </trkpt>
      <trkpt lat="42.97291" lon="0.3135">
        <ele>1881.3</ele>
        <time>2026-07-07T08:34:57Z</time>
      </trkpt>
      <trkpt lat="42.97292" lon="0.3135">
        <ele>1882.3</ele>
        <time>2026-07-07T08:34:58Z</time>
      </trkpt>
      <trkpt lat="42.97292" lon="0.31349">
        <ele>1882.3</ele>
        <time>2026-07-07T08:34:59Z</time>
      </trkpt>
      <trkpt lat="42.97292" lon="0.31348">
        <ele>1882.3</ele>
        <time>2026-07-07T08:35:00Z</time>
      </trkpt>
      <trkpt lat="42.97292" lon="0.31348">
        <ele>1882.3</ele>
        <time>2026-07-07T08:35:01Z</time>
      </trkpt>
      <trkpt lat="42.97292" lon="0.31348">
        <ele>1882.3</ele>
        <time>2026-07-07T08:35:02Z</time>
      </trkpt>
      <trkpt lat="42.97292" lon="0.31348">
        <ele>1883.3</ele>
        <time>2026-07-07T08:35:03Z</time>
      </trkpt>
      <trkpt lat="42.97293" lon="0.31347">
        <ele>1882.3</ele>
        <time>2026-07-07T08:35:04Z</time>
      </trkpt>
      <trkpt lat="42.97293" lon="0.31347">
        <ele>1882.3</ele>
        <time>2026-07-07T08:35:05Z</time>
      </trkpt>
      <trkpt lat="42.97293" lon="0.31347">
        <ele>1882.3</ele>
        <time>2026-07-07T08:35:06Z</time>
      </trkpt>
      <trkpt lat="42.97293" lon="0.31348">
        <ele>1882.3</ele>
        <time>2026-07-07T08:35:07Z</time>
      </trkpt>
      <trkpt lat="42.97293" lon="0.31348">
        <ele>1882.3</ele>
        <time>2026-07-07T08:35:08Z</time>
      </trkpt>
      <trkpt lat="42.97293" lon="0.31347">
        <ele>1882.3</ele>
        <time>2026-07-07T08:35:09Z</time>
      </trkpt>
      <trkpt lat="42.97293" lon="0.31347">
        <ele>1882.3</ele>
        <time>2026-07-07T08:35:10Z</time>
      </trkpt>
      <trkpt lat="42.97294" lon="0.31346">
        <ele>1883.3</ele>
        <time>2026-07-07T08:35:11Z</time>
      </trkpt>
      <trkpt lat="42.97294" lon="0.31345">
        <ele>1882.3</ele>
        <time>2026-07-07T08:35:12Z</time>
      </trkpt>
      <trkpt lat="42.97294" lon="0.31344">
        <ele>1883.3</ele>
        <time>2026-07-07T08:35:13Z</time>
      </trkpt>
      <trkpt lat="42.97295" lon="0.31344">
        <ele>1883.3</ele>
        <time>2026-07-07T08:35:14Z</time>
      </trkpt>
      <trkpt lat="42.97295" lon="0.31344">
        <ele>1884.3</ele>
        <time>2026-07-07T08:35:15Z</time>
      </trkpt>
      <trkpt lat="42.97295" lon="0.31344">
        <ele>1884.3</ele>
        <time>2026-07-07T08:35:16Z</time>
      </trkpt>
      <trkpt lat="42.97296" lon="0.31342">
        <ele>1884.3</ele>
        <time>2026-07-07T08:35:17Z</time>
      </trkpt>
      <trkpt lat="42.97296" lon="0.31342">
        <ele>1884.3</ele>
        <time>2026-07-07T08:35:18Z</time>
      </trkpt>
      <trkpt lat="42.97296" lon="0.31341">
        <ele>1884.3</ele>
        <time>2026-07-07T08:35:19Z</time>
      </trkpt>
      <trkpt lat="42.97296" lon="0.31341">
        <ele>1885.3</ele>
        <time>2026-07-07T08:35:20Z</time>
      </trkpt>
      <trkpt lat="42.97296" lon="0.3134">
        <ele>1886.3</ele>
        <time>2026-07-07T08:35:21Z</time>
      </trkpt>
      <trkpt lat="42.97296" lon="0.3134">
        <ele>1886.3</ele>
        <time>2026-07-07T08:35:22Z</time>
      </trkpt>
      <trkpt lat="42.97296" lon="0.31339">
        <ele>1885.3</ele>
        <time>2026-07-07T08:35:23Z</time>
      </trkpt>
      <trkpt lat="42.97296" lon="0.31339">
        <ele>1885.3</ele>
        <time>2026-07-07T08:35:24Z</time>
      </trkpt>
      <trkpt lat="42.97297" lon="0.31337">
        <ele>1884.3</ele>
        <time>2026-07-07T08:35:25Z</time>
      </trkpt>
      <trkpt lat="42.97297" lon="0.31336">
        <ele>1883.3</ele>
        <time>2026-07-07T08:35:26Z</time>
      </trkpt>
      <trkpt lat="42.97297" lon="0.31335">
        <ele>1884.3</ele>
        <time>2026-07-07T08:35:27Z</time>
      </trkpt>
      <trkpt lat="42.97298" lon="0.31334">
        <ele>1883.3</ele>
        <time>2026-07-07T08:35:28Z</time>
      </trkpt>
      <trkpt lat="42.97298" lon="0.31334">
        <ele>1884.3</ele>
        <time>2026-07-07T08:35:29Z</time>
      </trkpt>
      <trkpt lat="42.97298" lon="0.31334">
        <ele>1884.3</ele>
        <time>2026-07-07T08:35:30Z</time>
      </trkpt>
      <trkpt lat="42.97299" lon="0.31333">
        <ele>1884.3</ele>
        <time>2026-07-07T08:35:31Z</time>
      </trkpt>
      <trkpt lat="42.97299" lon="0.31332">
        <ele>1885.3</ele>
        <time>2026-07-07T08:35:32Z</time>
      </trkpt>
      <trkpt lat="42.97299" lon="0.31331">
        <ele>1885.3</ele>
        <time>2026-07-07T08:35:33Z</time>
      </trkpt>
      <trkpt lat="42.973" lon="0.31331">
        <ele>1886.3</ele>
        <time>2026-07-07T08:35:34Z</time>
      </trkpt>
      <trkpt lat="42.973" lon="0.3133">
        <ele>1886.3</ele>
        <time>2026-07-07T08:35:35Z</time>
      </trkpt>
      <trkpt lat="42.97299" lon="0.3133">
        <ele>1887.3</ele>
        <time>2026-07-07T08:35:36Z</time>
      </trkpt>
      <trkpt lat="42.97299" lon="0.3133">
        <ele>1887.3</ele>
        <time>2026-07-07T08:35:37Z</time>
      </trkpt>
      <trkpt lat="42.97299" lon="0.31329">
        <ele>1888.3</ele>
        <time>2026-07-07T08:35:38Z</time>
      </trkpt>
      <trkpt lat="42.97299" lon="0.31329">
        <ele>1887.3</ele>
        <time>2026-07-07T08:35:39Z</time>
      </trkpt>
      <trkpt lat="42.973" lon="0.31329">
        <ele>1888.3</ele>
        <time>2026-07-07T08:35:40Z</time>
      </trkpt>
      <trkpt lat="42.973" lon="0.31328">
        <ele>1888.3</ele>
        <time>2026-07-07T08:35:41Z</time>
      </trkpt>
      <trkpt lat="42.973" lon="0.31326">
        <ele>1888.3</ele>
        <time>2026-07-07T08:35:42Z</time>
      </trkpt>
      <trkpt lat="42.97301" lon="0.31325">
        <ele>1888.3</ele>
        <time>2026-07-07T08:35:43Z</time>
      </trkpt>
      <trkpt lat="42.97301" lon="0.31325">
        <ele>1888.3</ele>
        <time>2026-07-07T08:35:44Z</time>
      </trkpt>
      <trkpt lat="42.97302" lon="0.31324">
        <ele>1887.3</ele>
        <time>2026-07-07T08:35:45Z</time>
      </trkpt>
      <trkpt lat="42.97302" lon="0.31322">
        <ele>1887.3</ele>
        <time>2026-07-07T08:35:46Z</time>
      </trkpt>
      <trkpt lat="42.97302" lon="0.31321">
        <ele>1887.3</ele>
        <time>2026-07-07T08:35:47Z</time>
      </trkpt>
      <trkpt lat="42.97303" lon="0.3132">
        <ele>1887.3</ele>
        <time>2026-07-07T08:35:48Z</time>
      </trkpt>
      <trkpt lat="42.97303" lon="0.31319">
        <ele>1888.3</ele>
        <time>2026-07-07T08:35:49Z</time>
      </trkpt>
      <trkpt lat="42.97304" lon="0.31318">
        <ele>1888.3</ele>
        <time>2026-07-07T08:35:50Z</time>
      </trkpt>
      <trkpt lat="42.97304" lon="0.31317">
        <ele>1888.3</ele>
        <time>2026-07-07T08:35:51Z</time>
      </trkpt>
      <trkpt lat="42.97304" lon="0.31316">
        <ele>1889.3</ele>
        <time>2026-07-07T08:35:52Z</time>
      </trkpt>
      <trkpt lat="42.97305" lon="0.31315">
        <ele>1889.3</ele>
        <time>2026-07-07T08:35:53Z</time>
      </trkpt>
      <trkpt lat="42.97305" lon="0.31314">
        <ele>1889.3</ele>
        <time>2026-07-07T08:35:54Z</time>
      </trkpt>
      <trkpt lat="42.97306" lon="0.31313">
        <ele>1889.3</ele>
        <time>2026-07-07T08:35:55Z</time>
      </trkpt>
      <trkpt lat="42.97307" lon="0.31312">
        <ele>1888.3</ele>
        <time>2026-07-07T08:35:56Z</time>
      </trkpt>
      <trkpt lat="42.97307" lon="0.31311">
        <ele>1889.3</ele>
        <time>2026-07-07T08:35:57Z</time>
      </trkpt>
      <trkpt lat="42.97308" lon="0.3131">
        <ele>1889.3</ele>
        <time>2026-07-07T08:35:58Z</time>
      </trkpt>
      <trkpt lat="42.97309" lon="0.31309">
        <ele>1889.3</ele>
        <time>2026-07-07T08:35:59Z</time>
      </trkpt>
      <trkpt lat="42.9731" lon="0.31309">
        <ele>1889.3</ele>
        <time>2026-07-07T08:36:00Z</time>
      </trkpt>
      <trkpt lat="42.9731" lon="0.31307">
        <ele>1888.3</ele>
        <time>2026-07-07T08:36:01Z</time>
      </trkpt>
      <trkpt lat="42.97311" lon="0.31307">
        <ele>1888.3</ele>
        <time>2026-07-07T08:36:02Z</time>
      </trkpt>
      <trkpt lat="42.97312" lon="0.31306">
        <ele>1888.3</ele>
        <time>2026-07-07T08:36:03Z</time>
      </trkpt>
      <trkpt lat="42.97312" lon="0.31306">
        <ele>1888.3</ele>
        <time>2026-07-07T08:36:04Z</time>
      </trkpt>
      <trkpt lat="42.97314" lon="0.31304">
        <ele>1888.3</ele>
        <time>2026-07-07T08:36:05Z</time>
      </trkpt>
      <trkpt lat="42.97314" lon="0.31304">
        <ele>1888.3</ele>
        <time>2026-07-07T08:36:06Z</time>
      </trkpt>
      <trkpt lat="42.97315" lon="0.31303">
        <ele>1888.3</ele>
        <time>2026-07-07T08:36:07Z</time>
      </trkpt>
      <trkpt lat="42.97315" lon="0.31303">
        <ele>1888.3</ele>
        <time>2026-07-07T08:36:07Z</time>
      </trkpt>
      <trkpt lat="42.97316" lon="0.31302">
        <ele>1888.3</ele>
        <time>2026-07-07T08:36:08Z</time>
      </trkpt>
      <trkpt lat="42.97316" lon="0.31302">
        <ele>1888.3</ele>
        <time>2026-07-07T08:36:09Z</time>
      </trkpt>
      <trkpt lat="42.97316" lon="0.31301">
        <ele>1889.3</ele>
        <time>2026-07-07T08:36:10Z</time>
      </trkpt>
      <trkpt lat="42.97317" lon="0.313">
        <ele>1889.3</ele>
        <time>2026-07-07T08:36:10Z</time>
      </trkpt>
      <trkpt lat="42.97317" lon="0.313">
        <ele>1889.3</ele>
        <time>2026-07-07T08:36:11Z</time>
      </trkpt>
      <trkpt lat="42.97318" lon="0.31299">
        <ele>1888.3</ele>
        <time>2026-07-07T08:36:11Z</time>
      </trkpt>
      <trkpt lat="42.97318" lon="0.31298">
        <ele>1888.3</ele>
        <time>2026-07-07T08:36:12Z</time>
      </trkpt>
      <trkpt lat="42.97319" lon="0.31298">
        <ele>1889.3</ele>
        <time>2026-07-07T08:36:13Z</time>
      </trkpt>
      <trkpt lat="42.97319" lon="0.31297">
        <ele>1890.3</ele>
        <time>2026-07-07T08:36:14Z</time>
      </trkpt>
      <trkpt lat="42.9732" lon="0.31297">
        <ele>1890.3</ele>
        <time>2026-07-07T08:36:14Z</time>
      </trkpt>
      <trkpt lat="42.9732" lon="0.31296">
        <ele>1890.3</ele>
        <time>2026-07-07T08:36:15Z</time>
      </trkpt>
      <trkpt lat="42.97321" lon="0.31296">
        <ele>1890.3</ele>
        <time>2026-07-07T08:36:16Z</time>
      </trkpt>
      <trkpt lat="42.97321" lon="0.31295">
        <ele>1890.3</ele>
        <time>2026-07-07T08:36:16Z</time>
      </trkpt>
      <trkpt lat="42.97322" lon="0.31294">
        <ele>1890.3</ele>
        <time>2026-07-07T08:36:17Z</time>
      </trkpt>
      <trkpt lat="42.97322" lon="0.31294">
        <ele>1890.3</ele>
        <time>2026-07-07T08:36:18Z</time>
      </trkpt>
      <trkpt lat="42.97323" lon="0.31293">
        <ele>1890.3</ele>
        <time>2026-07-07T08:36:19Z</time>
      </trkpt>
      <trkpt lat="42.97323" lon="0.31293">
        <ele>1890.3</ele>
        <time>2026-07-07T08:36:19Z</time>
      </trkpt>
      <trkpt lat="42.97323" lon="0.31292">
        <ele>1890.3</ele>
        <time>2026-07-07T08:36:20Z</time>
      </trkpt>
      <trkpt lat="42.97324" lon="0.31292">
        <ele>1890.3</ele>
        <time>2026-07-07T08:36:20Z</time>
      </trkpt>
      <trkpt lat="42.97324" lon="0.31291">
        <ele>1889.3</ele>
        <time>2026-07-07T08:36:21Z</time>
      </trkpt>
      <trkpt lat="42.97324" lon="0.31291">
        <ele>1889.3</ele>
        <time>2026-07-07T08:36:21Z</time>
      </trkpt>
      <trkpt lat="42.97325" lon="0.3129">
        <ele>1889.3</ele>
        <time>2026-07-07T08:36:22Z</time>
      </trkpt>
      <trkpt lat="42.97325" lon="0.31289">
        <ele>1889.3</ele>
        <time>2026-07-07T08:36:22Z</time>
      </trkpt>
      <trkpt lat="42.97326" lon="0.31289">
        <ele>1889.3</ele>
        <time>2026-07-07T08:36:23Z</time>
      </trkpt>
      <trkpt lat="42.97326" lon="0.31288">
        <ele>1889.3</ele>
        <time>2026-07-07T08:36:24Z</time>
      </trkpt>
      <trkpt lat="42.97327" lon="0.31288">
        <ele>1889.3</ele>
        <time>2026-07-07T08:36:24Z</time>
      </trkpt>
      <trkpt lat="42.97327" lon="0.31287">
        <ele>1889.3</ele>
        <time>2026-07-07T08:36:25Z</time>
      </trkpt>
      <trkpt lat="42.97328" lon="0.31286">
        <ele>1889.3</ele>
        <time>2026-07-07T08:36:25Z</time>
      </trkpt>
      <trkpt lat="42.97328" lon="0.31285">
        <ele>1889.3</ele>
        <time>2026-07-07T08:36:26Z</time>
      </trkpt>
      <trkpt lat="42.97329" lon="0.31285">
        <ele>1890.3</ele>
        <time>2026-07-07T08:36:27Z</time>
      </trkpt>
      <trkpt lat="42.97329" lon="0.31284">
        <ele>1890.3</ele>
        <time>2026-07-07T08:36:27Z</time>
      </trkpt>
      <trkpt lat="42.9733" lon="0.31283">
        <ele>1890.3</ele>
        <time>2026-07-07T08:36:28Z</time>
      </trkpt>
      <trkpt lat="42.9733" lon="0.31283">
        <ele>1889.3</ele>
        <time>2026-07-07T08:36:29Z</time>
      </trkpt>
      <trkpt lat="42.97331" lon="0.31282">
        <ele>1889.3</ele>
        <time>2026-07-07T08:36:29Z</time>
      </trkpt>
      <trkpt lat="42.97331" lon="0.31281">
        <ele>1889.3</ele>
        <time>2026-07-07T08:36:30Z</time>
      </trkpt>
      <trkpt lat="42.97331" lon="0.31281">
        <ele>1889.3</ele>
        <time>2026-07-07T08:36:31Z</time>
      </trkpt>
      <trkpt lat="42.97332" lon="0.3128">
        <ele>1889.3</ele>
        <time>2026-07-07T08:36:31Z</time>
      </trkpt>
      <trkpt lat="42.97332" lon="0.3128">
        <ele>1889.3</ele>
        <time>2026-07-07T08:36:32Z</time>
      </trkpt>
      <trkpt lat="42.97332" lon="0.31279">
        <ele>1888.3</ele>
        <time>2026-07-07T08:36:33Z</time>
      </trkpt>
      <trkpt lat="42.97333" lon="0.31278">
        <ele>1888.3</ele>
        <time>2026-07-07T08:36:33Z</time>
      </trkpt>
      <trkpt lat="42.97333" lon="0.31278">
        <ele>1889.3</ele>
        <time>2026-07-07T08:36:34Z</time>
      </trkpt>
      <trkpt lat="42.97334" lon="0.31277">
        <ele>1888.3</ele>
        <time>2026-07-07T08:36:34Z</time>
      </trkpt>
      <trkpt lat="42.97334" lon="0.31277">
        <ele>1888.3</ele>
        <time>2026-07-07T08:36:35Z</time>
      </trkpt>
      <trkpt lat="42.97335" lon="0.31277">
        <ele>1889.3</ele>
        <time>2026-07-07T08:36:36Z</time>
      </trkpt>
      <trkpt lat="42.97335" lon="0.31276">
        <ele>1889.3</ele>
        <time>2026-07-07T08:36:36Z</time>
      </trkpt>
      <trkpt lat="42.97336" lon="0.31275">
        <ele>1889.3</ele>
        <time>2026-07-07T08:36:37Z</time>
      </trkpt>
      <trkpt lat="42.97336" lon="0.31275">
        <ele>1890.3</ele>
        <time>2026-07-07T08:36:38Z</time>
      </trkpt>
      <trkpt lat="42.97336" lon="0.31274">
        <ele>1890.3</ele>
        <time>2026-07-07T08:36:38Z</time>
      </trkpt>
      <trkpt lat="42.97337" lon="0.31274">
        <ele>1890.3</ele>
        <time>2026-07-07T08:36:39Z</time>
      </trkpt>
      <trkpt lat="42.97337" lon="0.31273">
        <ele>1890.3</ele>
        <time>2026-07-07T08:36:40Z</time>
      </trkpt>
      <trkpt lat="42.97337" lon="0.31272">
        <ele>1890.3</ele>
        <time>2026-07-07T08:36:40Z</time>
      </trkpt>
      <trkpt lat="42.97338" lon="0.31272">
        <ele>1890.3</ele>
        <time>2026-07-07T08:36:41Z</time>
      </trkpt>
      <trkpt lat="42.97338" lon="0.31271">
        <ele>1891.3</ele>
        <time>2026-07-07T08:36:41Z</time>
      </trkpt>
      <trkpt lat="42.97339" lon="0.3127">
        <ele>1891.3</ele>
        <time>2026-07-07T08:36:42Z</time>
      </trkpt>
      <trkpt lat="42.97339" lon="0.3127">
        <ele>1891.3</ele>
        <time>2026-07-07T08:36:43Z</time>
      </trkpt>
      <trkpt lat="42.97339" lon="0.31269">
        <ele>1890.3</ele>
        <time>2026-07-07T08:36:43Z</time>
      </trkpt>
      <trkpt lat="42.9734" lon="0.31268">
        <ele>1890.3</ele>
        <time>2026-07-07T08:36:44Z</time>
      </trkpt>
      <trkpt lat="42.9734" lon="0.31268">
        <ele>1890.3</ele>
        <time>2026-07-07T08:36:45Z</time>
      </trkpt>
      <trkpt lat="42.9734" lon="0.31267">
        <ele>1891.3</ele>
        <time>2026-07-07T08:36:45Z</time>
      </trkpt>
      <trkpt lat="42.97341" lon="0.31266">
        <ele>1891.3</ele>
        <time>2026-07-07T08:36:46Z</time>
      </trkpt>
      <trkpt lat="42.97341" lon="0.31266">
        <ele>1891.3</ele>
        <time>2026-07-07T08:36:47Z</time>
      </trkpt>
      <trkpt lat="42.97341" lon="0.31265">
        <ele>1890.3</ele>
        <time>2026-07-07T08:36:47Z</time>
      </trkpt>
      <trkpt lat="42.97342" lon="0.31264">
        <ele>1890.3</ele>
        <time>2026-07-07T08:36:48Z</time>
      </trkpt>
      <trkpt lat="42.97342" lon="0.31264">
        <ele>1891.3</ele>
        <time>2026-07-07T08:36:49Z</time>
      </trkpt>
      <trkpt lat="42.97343" lon="0.31263">
        <ele>1891.3</ele>
        <time>2026-07-07T08:36:49Z</time>
      </trkpt>
      <trkpt lat="42.97343" lon="0.31263">
        <ele>1891.3</ele>
        <time>2026-07-07T08:36:50Z</time>
      </trkpt>
      <trkpt lat="42.97344" lon="0.31262">
        <ele>1890.3</ele>
        <time>2026-07-07T08:36:51Z</time>
      </trkpt>
      <trkpt lat="42.97344" lon="0.31262">
        <ele>1890.3</ele>
        <time>2026-07-07T08:36:51Z</time>
      </trkpt>
      <trkpt lat="42.97345" lon="0.31261">
        <ele>1890.3</ele>
        <time>2026-07-07T08:36:52Z</time>
      </trkpt>
      <trkpt lat="42.97345" lon="0.31261">
        <ele>1890.3</ele>
        <time>2026-07-07T08:36:52Z</time>
      </trkpt>
      <trkpt lat="42.97345" lon="0.3126">
        <ele>1890.3</ele>
        <time>2026-07-07T08:36:53Z</time>
      </trkpt>
      <trkpt lat="42.97345" lon="0.31259">
        <ele>1890.3</ele>
        <time>2026-07-07T08:36:54Z</time>
      </trkpt>
      <trkpt lat="42.97346" lon="0.31259">
        <ele>1890.3</ele>
        <time>2026-07-07T08:36:54Z</time>
      </trkpt>
      <trkpt lat="42.97346" lon="0.31258">
        <ele>1890.3</ele>
        <time>2026-07-07T08:36:55Z</time>
      </trkpt>
      <trkpt lat="42.97347" lon="0.31257">
        <ele>1890.3</ele>
        <time>2026-07-07T08:36:55Z</time>
      </trkpt>
      <trkpt lat="42.97347" lon="0.31256">
        <ele>1890.3</ele>
        <time>2026-07-07T08:36:56Z</time>
      </trkpt>
      <trkpt lat="42.97348" lon="0.31256">
        <ele>1890.3</ele>
        <time>2026-07-07T08:36:56Z</time>
      </trkpt>
      <trkpt lat="42.97348" lon="0.31255">
        <ele>1890.3</ele>
        <time>2026-07-07T08:36:57Z</time>
      </trkpt>
      <trkpt lat="42.97349" lon="0.31255">
        <ele>1890.3</ele>
        <time>2026-07-07T08:36:58Z</time>
      </trkpt>
      <trkpt lat="42.97349" lon="0.31254">
        <ele>1890.3</ele>
        <time>2026-07-07T08:36:58Z</time>
      </trkpt>
      <trkpt lat="42.9735" lon="0.31253">
        <ele>1890.3</ele>
        <time>2026-07-07T08:36:59Z</time>
      </trkpt>
      <trkpt lat="42.9735" lon="0.31253">
        <ele>1889.3</ele>
        <time>2026-07-07T08:36:59Z</time>
      </trkpt>
      <trkpt lat="42.97351" lon="0.31252">
        <ele>1889.3</ele>
        <time>2026-07-07T08:37:00Z</time>
      </trkpt>
      <trkpt lat="42.97351" lon="0.31252">
        <ele>1889.3</ele>
        <time>2026-07-07T08:37:00Z</time>
      </trkpt>
      <trkpt lat="42.97352" lon="0.31251">
        <ele>1889.3</ele>
        <time>2026-07-07T08:37:01Z</time>
      </trkpt>
      <trkpt lat="42.97352" lon="0.31251">
        <ele>1889.3</ele>
        <time>2026-07-07T08:37:02Z</time>
      </trkpt>
      <trkpt lat="42.97353" lon="0.3125">
        <ele>1889.3</ele>
        <time>2026-07-07T08:37:02Z</time>
      </trkpt>
      <trkpt lat="42.97353" lon="0.3125">
        <ele>1889.3</ele>
        <time>2026-07-07T08:37:03Z</time>
      </trkpt>
      <trkpt lat="42.97354" lon="0.31249">
        <ele>1889.3</ele>
        <time>2026-07-07T08:37:04Z</time>
      </trkpt>
      <trkpt lat="42.97355" lon="0.31249">
        <ele>1889.3</ele>
        <time>2026-07-07T08:37:04Z</time>
      </trkpt>
      <trkpt lat="42.97355" lon="0.31248">
        <ele>1889.3</ele>
        <time>2026-07-07T08:37:05Z</time>
      </trkpt>
      <trkpt lat="42.97356" lon="0.31248">
        <ele>1889.3</ele>
        <time>2026-07-07T08:37:05Z</time>
      </trkpt>
      <trkpt lat="42.97356" lon="0.31247">
        <ele>1889.3</ele>
        <time>2026-07-07T08:37:06Z</time>
      </trkpt>
      <trkpt lat="42.97357" lon="0.31247">
        <ele>1889.3</ele>
        <time>2026-07-07T08:37:07Z</time>
      </trkpt>
      <trkpt lat="42.97357" lon="0.31247">
        <ele>1889.3</ele>
        <time>2026-07-07T08:37:07Z</time>
      </trkpt>
      <trkpt lat="42.97358" lon="0.31246">
        <ele>1889.3</ele>
        <time>2026-07-07T08:37:08Z</time>
      </trkpt>
      <trkpt lat="42.97358" lon="0.31246">
        <ele>1890.3</ele>
        <time>2026-07-07T08:37:08Z</time>
      </trkpt>
      <trkpt lat="42.97359" lon="0.31245">
        <ele>1890.3</ele>
        <time>2026-07-07T08:37:09Z</time>
      </trkpt>
      <trkpt lat="42.9736" lon="0.31244">
        <ele>1890.3</ele>
        <time>2026-07-07T08:37:10Z</time>
      </trkpt>
      <trkpt lat="42.97361" lon="0.31244">
        <ele>1889.3</ele>
        <time>2026-07-07T08:37:11Z</time>
      </trkpt>
      <trkpt lat="42.97361" lon="0.31243">
        <ele>1889.3</ele>
        <time>2026-07-07T08:37:11Z</time>
      </trkpt>
      <trkpt lat="42.97362" lon="0.31243">
        <ele>1889.3</ele>
        <time>2026-07-07T08:37:12Z</time>
      </trkpt>
      <trkpt lat="42.97362" lon="0.31242">
        <ele>1889.3</ele>
        <time>2026-07-07T08:37:12Z</time>
      </trkpt>
      <trkpt lat="42.97363" lon="0.31242">
        <ele>1889.3</ele>
        <time>2026-07-07T08:37:13Z</time>
      </trkpt>
      <trkpt lat="42.97364" lon="0.31241">
        <ele>1889.3</ele>
        <time>2026-07-07T08:37:14Z</time>
      </trkpt>
      <trkpt lat="42.97364" lon="0.31241">
        <ele>1889.3</ele>
        <time>2026-07-07T08:37:14Z</time>
      </trkpt>
      <trkpt lat="42.97365" lon="0.3124">
        <ele>1889.3</ele>
        <time>2026-07-07T08:37:15Z</time>
      </trkpt>
      <trkpt lat="42.97365" lon="0.31239">
        <ele>1889.3</ele>
        <time>2026-07-07T08:37:16Z</time>
      </trkpt>
      <trkpt lat="42.97366" lon="0.31239">
        <ele>1888.3</ele>
        <time>2026-07-07T08:37:16Z</time>
      </trkpt>
      <trkpt lat="42.97366" lon="0.31238">
        <ele>1888.3</ele>
        <time>2026-07-07T08:37:17Z</time>
      </trkpt>
      <trkpt lat="42.97367" lon="0.31238">
        <ele>1888.3</ele>
        <time>2026-07-07T08:37:18Z</time>
      </trkpt>
      <trkpt lat="42.97367" lon="0.31237">
        <ele>1888.3</ele>
        <time>2026-07-07T08:37:18Z</time>
      </trkpt>
      <trkpt lat="42.97368" lon="0.31237">
        <ele>1888.3</ele>
        <time>2026-07-07T08:37:19Z</time>
      </trkpt>
      <trkpt lat="42.97369" lon="0.31236">
        <ele>1889.3</ele>
        <time>2026-07-07T08:37:20Z</time>
      </trkpt>
      <trkpt lat="42.97369" lon="0.31236">
        <ele>1889.3</ele>
        <time>2026-07-07T08:37:20Z</time>
      </trkpt>
      <trkpt lat="42.9737" lon="0.31235">
        <ele>1889.3</ele>
        <time>2026-07-07T08:37:21Z</time>
      </trkpt>
      <trkpt lat="42.9737" lon="0.31235">
        <ele>1889.3</ele>
        <time>2026-07-07T08:37:22Z</time>
      </trkpt>
      <trkpt lat="42.97371" lon="0.31234">
        <ele>1890.3</ele>
        <time>2026-07-07T08:37:22Z</time>
      </trkpt>
      <trkpt lat="42.97371" lon="0.31234">
        <ele>1890.3</ele>
        <time>2026-07-07T08:37:23Z</time>
      </trkpt>
      <trkpt lat="42.97371" lon="0.31233">
        <ele>1890.3</ele>
        <time>2026-07-07T08:37:24Z</time>
      </trkpt>
      <trkpt lat="42.97372" lon="0.31233">
        <ele>1890.3</ele>
        <time>2026-07-07T08:37:24Z</time>
      </trkpt>
      <trkpt lat="42.97372" lon="0.31232">
        <ele>1890.3</ele>
        <time>2026-07-07T08:37:25Z</time>
      </trkpt>
      <trkpt lat="42.97372" lon="0.31231">
        <ele>1889.3</ele>
        <time>2026-07-07T08:37:26Z</time>
      </trkpt>
      <trkpt lat="42.97373" lon="0.31231">
        <ele>1889.3</ele>
        <time>2026-07-07T08:37:26Z</time>
      </trkpt>
      <trkpt lat="42.97373" lon="0.3123">
        <ele>1889.3</ele>
        <time>2026-07-07T08:37:27Z</time>
      </trkpt>
      <trkpt lat="42.97373" lon="0.31229">
        <ele>1890.3</ele>
        <time>2026-07-07T08:37:28Z</time>
      </trkpt>
      <trkpt lat="42.97374" lon="0.31229">
        <ele>1890.3</ele>
        <time>2026-07-07T08:37:28Z</time>
      </trkpt>
      <trkpt lat="42.97374" lon="0.31228">
        <ele>1890.3</ele>
        <time>2026-07-07T08:37:29Z</time>
      </trkpt>
      <trkpt lat="42.97374" lon="0.31227">
        <ele>1890.3</ele>
        <time>2026-07-07T08:37:30Z</time>
      </trkpt>
      <trkpt lat="42.97375" lon="0.31227">
        <ele>1890.3</ele>
        <time>2026-07-07T08:37:30Z</time>
      </trkpt>
      <trkpt lat="42.97375" lon="0.31226">
        <ele>1890.3</ele>
        <time>2026-07-07T08:37:31Z</time>
      </trkpt>
      <trkpt lat="42.97376" lon="0.31226">
        <ele>1890.3</ele>
        <time>2026-07-07T08:37:31Z</time>
      </trkpt>
      <trkpt lat="42.97376" lon="0.31225">
        <ele>1890.3</ele>
        <time>2026-07-07T08:37:32Z</time>
      </trkpt>
      <trkpt lat="42.97377" lon="0.31225">
        <ele>1890.3</ele>
        <time>2026-07-07T08:37:33Z</time>
      </trkpt>
      <trkpt lat="42.97377" lon="0.31225">
        <ele>1889.3</ele>
        <time>2026-07-07T08:37:33Z</time>
      </trkpt>
      <trkpt lat="42.97378" lon="0.31224">
        <ele>1889.3</ele>
        <time>2026-07-07T08:37:34Z</time>
      </trkpt>
      <trkpt lat="42.97378" lon="0.31224">
        <ele>1889.3</ele>
        <time>2026-07-07T08:37:34Z</time>
      </trkpt>
      <trkpt lat="42.97379" lon="0.31223">
        <ele>1889.3</ele>
        <time>2026-07-07T08:37:35Z</time>
      </trkpt>
      <trkpt lat="42.97379" lon="0.31223">
        <ele>1890.3</ele>
        <time>2026-07-07T08:37:36Z</time>
      </trkpt>
      <trkpt lat="42.9738" lon="0.31223">
        <ele>1890.3</ele>
        <time>2026-07-07T08:37:36Z</time>
      </trkpt>
      <trkpt lat="42.9738" lon="0.31223">
        <ele>1890.3</ele>
        <time>2026-07-07T08:37:37Z</time>
      </trkpt>
      <trkpt lat="42.9738" lon="0.31222">
        <ele>1889.3</ele>
        <time>2026-07-07T08:37:38Z</time>
      </trkpt>
      <trkpt lat="42.97381" lon="0.31222">
        <ele>1889.3</ele>
        <time>2026-07-07T08:37:38Z</time>
      </trkpt>
      <trkpt lat="42.97381" lon="0.31221">
        <ele>1889.3</ele>
        <time>2026-07-07T08:37:39Z</time>
      </trkpt>
      <trkpt lat="42.97382" lon="0.3122">
        <ele>1889.3</ele>
        <time>2026-07-07T08:37:39Z</time>
      </trkpt>
      <trkpt lat="42.97382" lon="0.3122">
        <ele>1888.3</ele>
        <time>2026-07-07T08:37:40Z</time>
      </trkpt>
      <trkpt lat="42.97382" lon="0.31219">
        <ele>1888.3</ele>
        <time>2026-07-07T08:37:40Z</time>
      </trkpt>
      <trkpt lat="42.97383" lon="0.31218">
        <ele>1888.3</ele>
        <time>2026-07-07T08:37:41Z</time>
      </trkpt>
      <trkpt lat="42.97383" lon="0.31218">
        <ele>1888.3</ele>
        <time>2026-07-07T08:37:41Z</time>
      </trkpt>
      <trkpt lat="42.97384" lon="0.31217">
        <ele>1888.3</ele>
        <time>2026-07-07T08:37:42Z</time>
      </trkpt>
      <trkpt lat="42.97384" lon="0.31217">
        <ele>1888.3</ele>
        <time>2026-07-07T08:37:43Z</time>
      </trkpt>
      <trkpt lat="42.97385" lon="0.31216">
        <ele>1888.3</ele>
        <time>2026-07-07T08:37:43Z</time>
      </trkpt>
      <trkpt lat="42.97385" lon="0.31215">
        <ele>1888.3</ele>
        <time>2026-07-07T08:37:44Z</time>
      </trkpt>
      <trkpt lat="42.97386" lon="0.31215">
        <ele>1888.3</ele>
        <time>2026-07-07T08:37:44Z</time>
      </trkpt>
      <trkpt lat="42.97386" lon="0.31214">
        <ele>1888.3</ele>
        <time>2026-07-07T08:37:45Z</time>
      </trkpt>
      <trkpt lat="42.97387" lon="0.31213">
        <ele>1888.3</ele>
        <time>2026-07-07T08:37:46Z</time>
      </trkpt>
      <trkpt lat="42.97387" lon="0.31213">
        <ele>1888.3</ele>
        <time>2026-07-07T08:37:46Z</time>
      </trkpt>
      <trkpt lat="42.97387" lon="0.31212">
        <ele>1888.3</ele>
        <time>2026-07-07T08:37:47Z</time>
      </trkpt>
      <trkpt lat="42.97387" lon="0.31211">
        <ele>1889.3</ele>
        <time>2026-07-07T08:37:48Z</time>
      </trkpt>
      <trkpt lat="42.97388" lon="0.3121">
        <ele>1889.3</ele>
        <time>2026-07-07T08:37:48Z</time>
      </trkpt>
      <trkpt lat="42.97388" lon="0.31209">
        <ele>1889.3</ele>
        <time>2026-07-07T08:37:49Z</time>
      </trkpt>
      <trkpt lat="42.97388" lon="0.31209">
        <ele>1889.3</ele>
        <time>2026-07-07T08:37:49Z</time>
      </trkpt>
      <trkpt lat="42.97388" lon="0.31208">
        <ele>1889.3</ele>
        <time>2026-07-07T08:37:50Z</time>
      </trkpt>
      <trkpt lat="42.97388" lon="0.31207">
        <ele>1889.3</ele>
        <time>2026-07-07T08:37:51Z</time>
      </trkpt>
      <trkpt lat="42.97388" lon="0.31207">
        <ele>1889.3</ele>
        <time>2026-07-07T08:37:51Z</time>
      </trkpt>
      <trkpt lat="42.97388" lon="0.31208">
        <ele>1889.3</ele>
        <time>2026-07-07T08:37:52Z</time>
      </trkpt>
      <trkpt lat="42.97387" lon="0.31207">
        <ele>1889.3</ele>
        <time>2026-07-07T08:37:53Z</time>
      </trkpt>
      <trkpt lat="42.97388" lon="0.31207">
        <ele>1889.3</ele>
        <time>2026-07-07T08:37:54Z</time>
      </trkpt>
      <trkpt lat="42.97388" lon="0.31206">
        <ele>1889.3</ele>
        <time>2026-07-07T08:37:54Z</time>
      </trkpt>
      <trkpt lat="42.97389" lon="0.31205">
        <ele>1889.3</ele>
        <time>2026-07-07T08:37:55Z</time>
      </trkpt>
      <trkpt lat="42.9739" lon="0.31205">
        <ele>1889.3</ele>
        <time>2026-07-07T08:37:56Z</time>
      </trkpt>
      <trkpt lat="42.9739" lon="0.31204">
        <ele>1889.3</ele>
        <time>2026-07-07T08:37:56Z</time>
      </trkpt>
      <trkpt lat="42.97391" lon="0.31204">
        <ele>1889.3</ele>
        <time>2026-07-07T08:37:57Z</time>
      </trkpt>
      <trkpt lat="42.97391" lon="0.31203">
        <ele>1889.3</ele>
        <time>2026-07-07T08:37:57Z</time>
      </trkpt>
      <trkpt lat="42.97392" lon="0.31203">
        <ele>1889.3</ele>
        <time>2026-07-07T08:37:58Z</time>
      </trkpt>
      <trkpt lat="42.97392" lon="0.31202">
        <ele>1890.3</ele>
        <time>2026-07-07T08:37:58Z</time>
      </trkpt>
      <trkpt lat="42.97393" lon="0.31202">
        <ele>1890.3</ele>
        <time>2026-07-07T08:37:59Z</time>
      </trkpt>
      <trkpt lat="42.97395" lon="0.31202">
        <ele>1890.3</ele>
        <time>2026-07-07T08:38:00Z</time>
      </trkpt>
      <trkpt lat="42.97394" lon="0.31203">
        <ele>1890.3</ele>
        <time>2026-07-07T08:38:01Z</time>
      </trkpt>
      <trkpt lat="42.97394" lon="0.31203">
        <ele>1890.3</ele>
        <time>2026-07-07T08:38:02Z</time>
      </trkpt>
      <trkpt lat="42.97394" lon="0.31203">
        <ele>1890.3</ele>
        <time>2026-07-07T08:38:03Z</time>
      </trkpt>
      <trkpt lat="42.97394" lon="0.31203">
        <ele>1890.3</ele>
        <time>2026-07-07T08:38:04Z</time>
      </trkpt>
      <trkpt lat="42.97394" lon="0.31203">
        <ele>1890.3</ele>
        <time>2026-07-07T08:38:05Z</time>
      </trkpt>
      <trkpt lat="42.97394" lon="0.31203">
        <ele>1890.3</ele>
        <time>2026-07-07T08:38:06Z</time>
      </trkpt>
      <trkpt lat="42.97394" lon="0.31203">
        <ele>1890.3</ele>
        <time>2026-07-07T08:38:07Z</time>
      </trkpt>
      <trkpt lat="42.97393" lon="0.31203">
        <ele>1890.3</ele>
        <time>2026-07-07T08:38:08Z</time>
      </trkpt>
      <trkpt lat="42.97394" lon="0.31202">
        <ele>1890.3</ele>
        <time>2026-07-07T08:38:09Z</time>
      </trkpt>
      <trkpt lat="42.97394" lon="0.31202">
        <ele>1890.3</ele>
        <time>2026-07-07T08:38:09Z</time>
      </trkpt>
      <trkpt lat="42.97394" lon="0.31202">
        <ele>1890.3</ele>
        <time>2026-07-07T08:38:10Z</time>
      </trkpt>
      <trkpt lat="42.97394" lon="0.31202">
        <ele>1890.3</ele>
        <time>2026-07-07T08:38:10Z</time>
      </trkpt>
      <trkpt lat="42.97394" lon="0.31202">
        <ele>1890.3</ele>
        <time>2026-07-07T08:38:11Z</time>
      </trkpt>
      <trkpt lat="42.97395" lon="0.31201">
        <ele>1890.3</ele>
        <time>2026-07-07T08:38:12Z</time>
      </trkpt>
      <trkpt lat="42.97396" lon="0.312">
        <ele>1890.3</ele>
        <time>2026-07-07T08:38:12Z</time>
      </trkpt>
      <trkpt lat="42.97397" lon="0.31198">
        <ele>1890.3</ele>
        <time>2026-07-07T08:38:13Z</time>
      </trkpt>
      <trkpt lat="42.97397" lon="0.31198">
        <ele>1891.3</ele>
        <time>2026-07-07T08:38:14Z</time>
      </trkpt>
      <trkpt lat="42.97397" lon="0.31198">
        <ele>1891.3</ele>
        <time>2026-07-07T08:38:14Z</time>
      </trkpt>
      <trkpt lat="42.97396" lon="0.31198">
        <ele>1890.3</ele>
        <time>2026-07-07T08:38:15Z</time>
      </trkpt>
      <trkpt lat="42.97396" lon="0.31199">
        <ele>1890.3</ele>
        <time>2026-07-07T08:38:16Z</time>
      </trkpt>
      <trkpt lat="42.97396" lon="0.31199">
        <ele>1890.3</ele>
        <time>2026-07-07T08:38:17Z</time>
      </trkpt>
      <trkpt lat="42.97396" lon="0.31199">
        <ele>1890.3</ele>
        <time>2026-07-07T08:38:18Z</time>
      </trkpt>
      <trkpt lat="42.97396" lon="0.31199">
        <ele>1890.3</ele>
        <time>2026-07-07T08:38:19Z</time>
      </trkpt>
      <trkpt lat="42.97396" lon="0.31199">
        <ele>1890.3</ele>
        <time>2026-07-07T08:38:20Z</time>
      </trkpt>
      <trkpt lat="42.97396" lon="0.31199">
        <ele>1890.3</ele>
        <time>2026-07-07T08:38:21Z</time>
      </trkpt>
      <trkpt lat="42.97396" lon="0.31199">
        <ele>1890.3</ele>
        <time>2026-07-07T08:38:22Z</time>
      </trkpt>
      <trkpt lat="42.97396" lon="0.31199">
        <ele>1890.3</ele>
        <time>2026-07-07T08:38:23Z</time>
      </trkpt>
      <trkpt lat="42.97396" lon="0.31199">
        <ele>1890.3</ele>
        <time>2026-07-07T08:38:24Z</time>
      </trkpt>
      <trkpt lat="42.97397" lon="0.31198">
        <ele>1890.3</ele>
        <time>2026-07-07T08:38:25Z</time>
      </trkpt>
      <trkpt lat="42.97397" lon="0.31198">
        <ele>1890.3</ele>
        <time>2026-07-07T08:38:26Z</time>
      </trkpt>
      <trkpt lat="42.97397" lon="0.31198">
        <ele>1890.3</ele>
        <time>2026-07-07T08:38:27Z</time>
      </trkpt>
      <trkpt lat="42.97397" lon="0.31198">
        <ele>1890.3</ele>
        <time>2026-07-07T08:38:28Z</time>
      </trkpt>
      <trkpt lat="42.97397" lon="0.31198">
        <ele>1890.3</ele>
        <time>2026-07-07T08:38:29Z</time>
      </trkpt>
      <trkpt lat="42.97397" lon="0.31198">
        <ele>1890.3</ele>
        <time>2026-07-07T08:38:30Z</time>
      </trkpt>
      <trkpt lat="42.97397" lon="0.31198">
        <ele>1890.3</ele>
        <time>2026-07-07T08:38:31Z</time>
      </trkpt>
      <trkpt lat="42.97397" lon="0.31198">
        <ele>1890.3</ele>
        <time>2026-07-07T08:38:32Z</time>
      </trkpt>
      <trkpt lat="42.97397" lon="0.31198">
        <ele>1890.3</ele>
        <time>2026-07-07T08:38:33Z</time>
      </trkpt>
      <trkpt lat="42.97397" lon="0.31198">
        <ele>1890.3</ele>
        <time>2026-07-07T08:38:34Z</time>
      </trkpt>
      <trkpt lat="42.97397" lon="0.31198">
        <ele>1890.3</ele>
        <time>2026-07-07T08:38:35Z</time>
      </trkpt>
      <trkpt lat="42.97397" lon="0.31197">
        <ele>1890.3</ele>
        <time>2026-07-07T08:38:36Z</time>
      </trkpt>
      <trkpt lat="42.97397" lon="0.31197">
        <ele>1890.3</ele>
        <time>2026-07-07T08:38:37Z</time>
      </trkpt>
      <trkpt lat="42.97398" lon="0.31196">
        <ele>1890.3</ele>
        <time>2026-07-07T08:38:37Z</time>
      </trkpt>
      <trkpt lat="42.97399" lon="0.31196">
        <ele>1890.3</ele>
        <time>2026-07-07T08:38:38Z</time>
      </trkpt>
      <trkpt lat="42.974" lon="0.31195">
        <ele>1890.3</ele>
        <time>2026-07-07T08:38:38Z</time>
      </trkpt>
      <trkpt lat="42.974" lon="0.31195">
        <ele>1890.3</ele>
        <time>2026-07-07T08:38:39Z</time>
      </trkpt>
      <trkpt lat="42.97401" lon="0.31195">
        <ele>1890.3</ele>
        <time>2026-07-07T08:38:40Z</time>
      </trkpt>
      <trkpt lat="42.97402" lon="0.31195">
        <ele>1890.3</ele>
        <time>2026-07-07T08:38:40Z</time>
      </trkpt>
      <trkpt lat="42.97402" lon="0.31194">
        <ele>1890.3</ele>
        <time>2026-07-07T08:38:41Z</time>
      </trkpt>
      <trkpt lat="42.97403" lon="0.31194">
        <ele>1890.3</ele>
        <time>2026-07-07T08:38:42Z</time>
      </trkpt>
      <trkpt lat="42.97404" lon="0.31193">
        <ele>1890.3</ele>
        <time>2026-07-07T08:38:42Z</time>
      </trkpt>
      <trkpt lat="42.97405" lon="0.31193">
        <ele>1890.3</ele>
        <time>2026-07-07T08:38:43Z</time>
      </trkpt>
      <trkpt lat="42.97406" lon="0.31193">
        <ele>1890.3</ele>
        <time>2026-07-07T08:38:44Z</time>
      </trkpt>
      <trkpt lat="42.97406" lon="0.31192">
        <ele>1890.3</ele>
        <time>2026-07-07T08:38:44Z</time>
      </trkpt>
      <trkpt lat="42.97407" lon="0.31192">
        <ele>1890.3</ele>
        <time>2026-07-07T08:38:45Z</time>
      </trkpt>
      <trkpt lat="42.97407" lon="0.31191">
        <ele>1890.3</ele>
        <time>2026-07-07T08:38:46Z</time>
      </trkpt>
      <trkpt lat="42.97408" lon="0.3119">
        <ele>1891.3</ele>
        <time>2026-07-07T08:38:47Z</time>
      </trkpt>
      <trkpt lat="42.97408" lon="0.3119">
        <ele>1891.3</ele>
        <time>2026-07-07T08:38:47Z</time>
      </trkpt>
      <trkpt lat="42.97409" lon="0.31189">
        <ele>1891.3</ele>
        <time>2026-07-07T08:38:48Z</time>
      </trkpt>
      <trkpt lat="42.97409" lon="0.31188">
        <ele>1891.3</ele>
        <time>2026-07-07T08:38:49Z</time>
      </trkpt>
      <trkpt lat="42.9741" lon="0.31188">
        <ele>1891.3</ele>
        <time>2026-07-07T08:38:49Z</time>
      </trkpt>
      <trkpt lat="42.9741" lon="0.31187">
        <ele>1891.3</ele>
        <time>2026-07-07T08:38:50Z</time>
      </trkpt>
      <trkpt lat="42.97411" lon="0.31186">
        <ele>1892.3</ele>
        <time>2026-07-07T08:38:51Z</time>
      </trkpt>
      <trkpt lat="42.97411" lon="0.31185">
        <ele>1892.3</ele>
        <time>2026-07-07T08:38:51Z</time>
      </trkpt>
      <trkpt lat="42.97411" lon="0.31185">
        <ele>1892.3</ele>
        <time>2026-07-07T08:38:52Z</time>
      </trkpt>
      <trkpt lat="42.97412" lon="0.31184">
        <ele>1892.3</ele>
        <time>2026-07-07T08:38:53Z</time>
      </trkpt>
      <trkpt lat="42.97412" lon="0.31184">
        <ele>1892.3</ele>
        <time>2026-07-07T08:38:53Z</time>
      </trkpt>
      <trkpt lat="42.97413" lon="0.31183">
        <ele>1892.3</ele>
        <time>2026-07-07T08:38:54Z</time>
      </trkpt>
      <trkpt lat="42.97413" lon="0.31183">
        <ele>1893.3</ele>
        <time>2026-07-07T08:38:55Z</time>
      </trkpt>
      <trkpt lat="42.97414" lon="0.31182">
        <ele>1892.3</ele>
        <time>2026-07-07T08:38:55Z</time>
      </trkpt>
      <trkpt lat="42.97414" lon="0.31182">
        <ele>1892.3</ele>
        <time>2026-07-07T08:38:56Z</time>
      </trkpt>
      <trkpt lat="42.97415" lon="0.31181">
        <ele>1892.3</ele>
        <time>2026-07-07T08:38:57Z</time>
      </trkpt>
      <trkpt lat="42.97416" lon="0.31181">
        <ele>1892.3</ele>
        <time>2026-07-07T08:38:57Z</time>
      </trkpt>
      <trkpt lat="42.97416" lon="0.31181">
        <ele>1892.3</ele>
        <time>2026-07-07T08:38:58Z</time>
      </trkpt>
      <trkpt lat="42.97417" lon="0.3118">
        <ele>1892.3</ele>
        <time>2026-07-07T08:38:59Z</time>
      </trkpt>
      <trkpt lat="42.97417" lon="0.3118">
        <ele>1892.3</ele>
        <time>2026-07-07T08:38:59Z</time>
      </trkpt>
      <trkpt lat="42.97417" lon="0.3118">
        <ele>1892.3</ele>
        <time>2026-07-07T08:39:00Z</time>
      </trkpt>
      <trkpt lat="42.97418" lon="0.3118">
        <ele>1892.3</ele>
        <time>2026-07-07T08:39:01Z</time>
      </trkpt>
      <trkpt lat="42.97418" lon="0.3118">
        <ele>1892.3</ele>
        <time>2026-07-07T08:39:01Z</time>
      </trkpt>
      <trkpt lat="42.97419" lon="0.31179">
        <ele>1892.3</ele>
        <time>2026-07-07T08:39:02Z</time>
      </trkpt>
      <trkpt lat="42.97419" lon="0.31179">
        <ele>1892.3</ele>
        <time>2026-07-07T08:39:03Z</time>
      </trkpt>
      <trkpt lat="42.9742" lon="0.31179">
        <ele>1892.3</ele>
        <time>2026-07-07T08:39:03Z</time>
      </trkpt>
      <trkpt lat="42.97421" lon="0.31179">
        <ele>1892.3</ele>
        <time>2026-07-07T08:39:04Z</time>
      </trkpt>
      <trkpt lat="42.97421" lon="0.31178">
        <ele>1892.3</ele>
        <time>2026-07-07T08:39:04Z</time>
      </trkpt>
      <trkpt lat="42.97422" lon="0.31178">
        <ele>1892.3</ele>
        <time>2026-07-07T08:39:05Z</time>
      </trkpt>
      <trkpt lat="42.97422" lon="0.31177">
        <ele>1892.3</ele>
        <time>2026-07-07T08:39:06Z</time>
      </trkpt>
      <trkpt lat="42.97423" lon="0.31177">
        <ele>1891.3</ele>
        <time>2026-07-07T08:39:07Z</time>
      </trkpt>
      <trkpt lat="42.97423" lon="0.31177">
        <ele>1891.3</ele>
        <time>2026-07-07T08:39:07Z</time>
      </trkpt>
      <trkpt lat="42.97424" lon="0.31177">
        <ele>1891.3</ele>
        <time>2026-07-07T08:39:08Z</time>
      </trkpt>
      <trkpt lat="42.97425" lon="0.31177">
        <ele>1891.3</ele>
        <time>2026-07-07T08:39:09Z</time>
      </trkpt>
      <trkpt lat="42.97425" lon="0.31177">
        <ele>1892.3</ele>
        <time>2026-07-07T08:39:10Z</time>
      </trkpt>
      <trkpt lat="42.97426" lon="0.31177">
        <ele>1892.3</ele>
        <time>2026-07-07T08:39:10Z</time>
      </trkpt>
      <trkpt lat="42.97426" lon="0.31177">
        <ele>1892.3</ele>
        <time>2026-07-07T08:39:11Z</time>
      </trkpt>
      <trkpt lat="42.97426" lon="0.31176">
        <ele>1892.3</ele>
        <time>2026-07-07T08:39:12Z</time>
      </trkpt>
      <trkpt lat="42.97427" lon="0.31176">
        <ele>1892.3</ele>
        <time>2026-07-07T08:39:12Z</time>
      </trkpt>
      <trkpt lat="42.97427" lon="0.31176">
        <ele>1892.3</ele>
        <time>2026-07-07T08:39:13Z</time>
      </trkpt>
      <trkpt lat="42.97428" lon="0.31175">
        <ele>1893.3</ele>
        <time>2026-07-07T08:39:14Z</time>
      </trkpt>
      <trkpt lat="42.97428" lon="0.31175">
        <ele>1893.3</ele>
        <time>2026-07-07T08:39:14Z</time>
      </trkpt>
      <trkpt lat="42.97429" lon="0.31175">
        <ele>1893.3</ele>
        <time>2026-07-07T08:39:15Z</time>
      </trkpt>
      <trkpt lat="42.97429" lon="0.31174">
        <ele>1893.3</ele>
        <time>2026-07-07T08:39:16Z</time>
      </trkpt>
      <trkpt lat="42.9743" lon="0.31174">
        <ele>1893.3</ele>
        <time>2026-07-07T08:39:16Z</time>
      </trkpt>
      <trkpt lat="42.9743" lon="0.31174">
        <ele>1893.3</ele>
        <time>2026-07-07T08:39:17Z</time>
      </trkpt>
      <trkpt lat="42.97431" lon="0.31173">
        <ele>1893.3</ele>
        <time>2026-07-07T08:39:18Z</time>
      </trkpt>
      <trkpt lat="42.97431" lon="0.31173">
        <ele>1893.3</ele>
        <time>2026-07-07T08:39:19Z</time>
      </trkpt>
      <trkpt lat="42.97431" lon="0.31172">
        <ele>1893.3</ele>
        <time>2026-07-07T08:39:20Z</time>
      </trkpt>
      <trkpt lat="42.97431" lon="0.31171">
        <ele>1894.3</ele>
        <time>2026-07-07T08:39:20Z</time>
      </trkpt>
      <trkpt lat="42.97431" lon="0.31171">
        <ele>1894.3</ele>
        <time>2026-07-07T08:39:21Z</time>
      </trkpt>
      <trkpt lat="42.97432" lon="0.3117">
        <ele>1894.3</ele>
        <time>2026-07-07T08:39:22Z</time>
      </trkpt>
      <trkpt lat="42.97431" lon="0.31169">
        <ele>1894.3</ele>
        <time>2026-07-07T08:39:23Z</time>
      </trkpt>
      <trkpt lat="42.97431" lon="0.31169">
        <ele>1894.3</ele>
        <time>2026-07-07T08:39:23Z</time>
      </trkpt>
      <trkpt lat="42.97432" lon="0.31168">
        <ele>1894.3</ele>
        <time>2026-07-07T08:39:24Z</time>
      </trkpt>
      <trkpt lat="42.97432" lon="0.31167">
        <ele>1895.3</ele>
        <time>2026-07-07T08:39:25Z</time>
      </trkpt>
      <trkpt lat="42.97432" lon="0.31167">
        <ele>1895.3</ele>
        <time>2026-07-07T08:39:26Z</time>
      </trkpt>
      <trkpt lat="42.97432" lon="0.31166">
        <ele>1895.3</ele>
        <time>2026-07-07T08:39:27Z</time>
      </trkpt>
      <trkpt lat="42.97432" lon="0.31166">
        <ele>1895.3</ele>
        <time>2026-07-07T08:39:28Z</time>
      </trkpt>
      <trkpt lat="42.97433" lon="0.31166">
        <ele>1895.3</ele>
        <time>2026-07-07T08:39:28Z</time>
      </trkpt>
      <trkpt lat="42.97433" lon="0.31165">
        <ele>1895.3</ele>
        <time>2026-07-07T08:39:29Z</time>
      </trkpt>
      <trkpt lat="42.97433" lon="0.31165">
        <ele>1895.3</ele>
        <time>2026-07-07T08:39:29Z</time>
      </trkpt>
      <trkpt lat="42.97434" lon="0.31165">
        <ele>1895.3</ele>
        <time>2026-07-07T08:39:30Z</time>
      </trkpt>
      <trkpt lat="42.97435" lon="0.31165">
        <ele>1895.3</ele>
        <time>2026-07-07T08:39:31Z</time>
      </trkpt>
      <trkpt lat="42.97435" lon="0.31165">
        <ele>1895.3</ele>
        <time>2026-07-07T08:39:32Z</time>
      </trkpt>
      <trkpt lat="42.97436" lon="0.31165">
        <ele>1895.3</ele>
        <time>2026-07-07T08:39:32Z</time>
      </trkpt>
      <trkpt lat="42.97436" lon="0.31165">
        <ele>1895.3</ele>
        <time>2026-07-07T08:39:33Z</time>
      </trkpt>
      <trkpt lat="42.97437" lon="0.31166">
        <ele>1896.3</ele>
        <time>2026-07-07T08:39:34Z</time>
      </trkpt>
      <trkpt lat="42.97437" lon="0.31166">
        <ele>1896.3</ele>
        <time>2026-07-07T08:39:35Z</time>
      </trkpt>
      <trkpt lat="42.97438" lon="0.31166">
        <ele>1896.3</ele>
        <time>2026-07-07T08:39:36Z</time>
      </trkpt>
      <trkpt lat="42.97438" lon="0.31166">
        <ele>1896.3</ele>
        <time>2026-07-07T08:39:37Z</time>
      </trkpt>
      <trkpt lat="42.97438" lon="0.31166">
        <ele>1896.3</ele>
        <time>2026-07-07T08:39:37Z</time>
      </trkpt>
      <trkpt lat="42.97438" lon="0.31166">
        <ele>1896.3</ele>
        <time>2026-07-07T08:39:38Z</time>
      </trkpt>
      <trkpt lat="42.97438" lon="0.31166">
        <ele>1896.3</ele>
        <time>2026-07-07T08:39:38Z</time>
      </trkpt>
      <trkpt lat="42.97438" lon="0.31165">
        <ele>1896.3</ele>
        <time>2026-07-07T08:39:39Z</time>
      </trkpt>
      <trkpt lat="42.97438" lon="0.31165">
        <ele>1896.3</ele>
        <time>2026-07-07T08:39:39Z</time>
      </trkpt>
      <trkpt lat="42.97438" lon="0.31165">
        <ele>1897.3</ele>
        <time>2026-07-07T08:39:40Z</time>
      </trkpt>
      <trkpt lat="42.97438" lon="0.31165">
        <ele>1897.3</ele>
        <time>2026-07-07T08:39:41Z</time>
      </trkpt>
      <trkpt lat="42.97438" lon="0.31165">
        <ele>1898.3</ele>
        <time>2026-07-07T08:39:42Z</time>
      </trkpt>
      <trkpt lat="42.97438" lon="0.31165">
        <ele>1897.3</ele>
        <time>2026-07-07T08:39:42Z</time>
      </trkpt>
      <trkpt lat="42.97438" lon="0.31165">
        <ele>1897.3</ele>
        <time>2026-07-07T08:39:43Z</time>
      </trkpt>
      <trkpt lat="42.97438" lon="0.31165">
        <ele>1897.3</ele>
        <time>2026-07-07T08:39:44Z</time>
      </trkpt>
      <trkpt lat="42.97439" lon="0.31165">
        <ele>1898.3</ele>
        <time>2026-07-07T08:39:45Z</time>
      </trkpt>
      <trkpt lat="42.97439" lon="0.31165">
        <ele>1898.3</ele>
        <time>2026-07-07T08:39:45Z</time>
      </trkpt>
      <trkpt lat="42.97439" lon="0.31165">
        <ele>1898.3</ele>
        <time>2026-07-07T08:39:46Z</time>
      </trkpt>
      <trkpt lat="42.97439" lon="0.31165">
        <ele>1898.3</ele>
        <time>2026-07-07T08:39:47Z</time>
      </trkpt>
      <trkpt lat="42.97439" lon="0.31165">
        <ele>1898.3</ele>
        <time>2026-07-07T08:39:47Z</time>
      </trkpt>
      <trkpt lat="42.9744" lon="0.31165">
        <ele>1898.3</ele>
        <time>2026-07-07T08:39:48Z</time>
      </trkpt>
      <trkpt lat="42.9744" lon="0.31165">
        <ele>1898.3</ele>
        <time>2026-07-07T08:39:49Z</time>
      </trkpt>
      <trkpt lat="42.9744" lon="0.31165">
        <ele>1898.3</ele>
        <time>2026-07-07T08:39:50Z</time>
      </trkpt>
      <trkpt lat="42.9744" lon="0.31164">
        <ele>1898.3</ele>
        <time>2026-07-07T08:39:51Z</time>
      </trkpt>
      <trkpt lat="42.97441" lon="0.31164">
        <ele>1898.3</ele>
        <time>2026-07-07T08:39:52Z</time>
      </trkpt>
      <trkpt lat="42.97441" lon="0.31163">
        <ele>1898.3</ele>
        <time>2026-07-07T08:39:53Z</time>
      </trkpt>
      <trkpt lat="42.97441" lon="0.31163">
        <ele>1898.3</ele>
        <time>2026-07-07T08:39:54Z</time>
      </trkpt>
      <trkpt lat="42.97442" lon="0.31163">
        <ele>1898.3</ele>
        <time>2026-07-07T08:39:55Z</time>
      </trkpt>
      <trkpt lat="42.97442" lon="0.31162">
        <ele>1898.3</ele>
        <time>2026-07-07T08:39:56Z</time>
      </trkpt>
      <trkpt lat="42.97442" lon="0.31162">
        <ele>1898.3</ele>
        <time>2026-07-07T08:39:57Z</time>
      </trkpt>
      <trkpt lat="42.97443" lon="0.31162">
        <ele>1898.3</ele>
        <time>2026-07-07T08:39:58Z</time>
      </trkpt>
      <trkpt lat="42.97443" lon="0.31161">
        <ele>1898.3</ele>
        <time>2026-07-07T08:39:59Z</time>
      </trkpt>
      <trkpt lat="42.97443" lon="0.31161">
        <ele>1897.3</ele>
        <time>2026-07-07T08:40:00Z</time>
      </trkpt>
      <trkpt lat="42.97444" lon="0.3116">
        <ele>1897.3</ele>
        <time>2026-07-07T08:40:01Z</time>
      </trkpt>
      <trkpt lat="42.97445" lon="0.3116">
        <ele>1897.3</ele>
        <time>2026-07-07T08:40:02Z</time>
      </trkpt>
      <trkpt lat="42.97445" lon="0.3116">
        <ele>1897.3</ele>
        <time>2026-07-07T08:40:03Z</time>
      </trkpt>
      <trkpt lat="42.97445" lon="0.3116">
        <ele>1898.3</ele>
        <time>2026-07-07T08:40:04Z</time>
      </trkpt>
      <trkpt lat="42.97445" lon="0.31159">
        <ele>1898.3</ele>
        <time>2026-07-07T08:40:05Z</time>
      </trkpt>
      <trkpt lat="42.97445" lon="0.31159">
        <ele>1898.3</ele>
        <time>2026-07-07T08:40:06Z</time>
      </trkpt>
      <trkpt lat="42.97445" lon="0.31159">
        <ele>1898.3</ele>
        <time>2026-07-07T08:40:07Z</time>
      </trkpt>
      <trkpt lat="42.97445" lon="0.31159">
        <ele>1898.3</ele>
        <time>2026-07-07T08:40:08Z</time>
      </trkpt>
      <trkpt lat="42.97445" lon="0.31159">
        <ele>1898.3</ele>
        <time>2026-07-07T08:40:09Z</time>
      </trkpt>
      <trkpt lat="42.97445" lon="0.31159">
        <ele>1898.3</ele>
        <time>2026-07-07T08:40:10Z</time>
      </trkpt>
      <trkpt lat="42.97446" lon="0.31159">
        <ele>1897.3</ele>
        <time>2026-07-07T08:40:11Z</time>
      </trkpt>
      <trkpt lat="42.97447" lon="0.31159">
        <ele>1898.3</ele>
        <time>2026-07-07T08:40:12Z</time>
      </trkpt>
      <trkpt lat="42.97447" lon="0.31159">
        <ele>1897.3</ele>
        <time>2026-07-07T08:40:13Z</time>
      </trkpt>
      <trkpt lat="42.97447" lon="0.31159">
        <ele>1897.3</ele>
        <time>2026-07-07T08:40:14Z</time>
      </trkpt>
      <trkpt lat="42.97447" lon="0.31159">
        <ele>1897.3</ele>
        <time>2026-07-07T08:40:15Z</time>
      </trkpt>
      <trkpt lat="42.97446" lon="0.31159">
        <ele>1898.3</ele>
        <time>2026-07-07T08:40:16Z</time>
      </trkpt>
      <trkpt lat="42.97446" lon="0.31159">
        <ele>1898.3</ele>
        <time>2026-07-07T08:40:17Z</time>
      </trkpt>
      <trkpt lat="42.97446" lon="0.3116">
        <ele>1898.3</ele>
        <time>2026-07-07T08:40:18Z</time>
      </trkpt>
      <trkpt lat="42.97446" lon="0.31159">
        <ele>1898.3</ele>
        <time>2026-07-07T08:40:19Z</time>
      </trkpt>
      <trkpt lat="42.97446" lon="0.3116">
        <ele>1899.3</ele>
        <time>2026-07-07T08:40:20Z</time>
      </trkpt>
      <trkpt lat="42.97446" lon="0.3116">
        <ele>1899.3</ele>
        <time>2026-07-07T08:40:21Z</time>
      </trkpt>
      <trkpt lat="42.97446" lon="0.3116">
        <ele>1899.3</ele>
        <time>2026-07-07T08:40:22Z</time>
      </trkpt>
      <trkpt lat="42.97446" lon="0.3116">
        <ele>1899.3</ele>
        <time>2026-07-07T08:40:23Z</time>
      </trkpt>
      <trkpt lat="42.97446" lon="0.3116">
        <ele>1899.3</ele>
        <time>2026-07-07T08:40:24Z</time>
      </trkpt>
      <trkpt lat="42.97446" lon="0.3116">
        <ele>1899.3</ele>
        <time>2026-07-07T08:40:25Z</time>
      </trkpt>
      <trkpt lat="42.97446" lon="0.3116">
        <ele>1899.3</ele>
        <time>2026-07-07T08:40:26Z</time>
      </trkpt>
      <trkpt lat="42.97446" lon="0.3116">
        <ele>1899.3</ele>
        <time>2026-07-07T08:40:27Z</time>
      </trkpt>
      <trkpt lat="42.97446" lon="0.3116">
        <ele>1899.3</ele>
        <time>2026-07-07T08:40:28Z</time>
      </trkpt>
      <trkpt lat="42.97446" lon="0.3116">
        <ele>1899.3</ele>
        <time>2026-07-07T08:40:29Z</time>
      </trkpt>
      <trkpt lat="42.97446" lon="0.3116">
        <ele>1899.3</ele>
        <time>2026-07-07T08:40:30Z</time>
      </trkpt>
      <trkpt lat="42.97446" lon="0.3116">
        <ele>1899.3</ele>
        <time>2026-07-07T08:40:31Z</time>
      </trkpt>
      <trkpt lat="42.97447" lon="0.3116">
        <ele>1898.3</ele>
        <time>2026-07-07T08:40:32Z</time>
      </trkpt>
      <trkpt lat="42.97447" lon="0.31159">
        <ele>1898.3</ele>
        <time>2026-07-07T08:40:33Z</time>
      </trkpt>
      <trkpt lat="42.97448" lon="0.3116">
        <ele>1898.3</ele>
        <time>2026-07-07T08:40:34Z</time>
      </trkpt>
      <trkpt lat="42.97448" lon="0.31161">
        <ele>1898.3</ele>
        <time>2026-07-07T08:40:35Z</time>
      </trkpt>
      <trkpt lat="42.97448" lon="0.3116">
        <ele>1898.3</ele>
        <time>2026-07-07T08:40:36Z</time>
      </trkpt>
      <trkpt lat="42.97448" lon="0.3116">
        <ele>1898.3</ele>
        <time>2026-07-07T08:40:37Z</time>
      </trkpt>
      <trkpt lat="42.97448" lon="0.3116">
        <ele>1898.3</ele>
        <time>2026-07-07T08:40:38Z</time>
      </trkpt>
      <trkpt lat="42.97448" lon="0.3116">
        <ele>1898.3</ele>
        <time>2026-07-07T08:40:39Z</time>
      </trkpt>
      <trkpt lat="42.97448" lon="0.31161">
        <ele>1898.3</ele>
        <time>2026-07-07T08:40:40Z</time>
      </trkpt>
      <trkpt lat="42.97448" lon="0.31161">
        <ele>1898.3</ele>
        <time>2026-07-07T08:40:41Z</time>
      </trkpt>
      <trkpt lat="42.97448" lon="0.31161">
        <ele>1898.3</ele>
        <time>2026-07-07T08:40:42Z</time>
      </trkpt>
      <trkpt lat="42.97448" lon="0.31161">
        <ele>1898.3</ele>
        <time>2026-07-07T08:40:43Z</time>
      </trkpt>
      <trkpt lat="42.97448" lon="0.31162">
        <ele>1897.3</ele>
        <time>2026-07-07T08:40:44Z</time>
      </trkpt>
      <trkpt lat="42.97448" lon="0.31162">
        <ele>1897.3</ele>
        <time>2026-07-07T08:40:45Z</time>
      </trkpt>
      <trkpt lat="42.97448" lon="0.31162">
        <ele>1897.3</ele>
        <time>2026-07-07T08:40:46Z</time>
      </trkpt>
      <trkpt lat="42.97448" lon="0.31162">
        <ele>1897.3</ele>
        <time>2026-07-07T08:40:47Z</time>
      </trkpt>
      <trkpt lat="42.97448" lon="0.31162">
        <ele>1897.3</ele>
        <time>2026-07-07T08:40:48Z</time>
      </trkpt>
      <trkpt lat="42.97448" lon="0.31162">
        <ele>1897.3</ele>
        <time>2026-07-07T08:40:49Z</time>
      </trkpt>
      <trkpt lat="42.97448" lon="0.31162">
        <ele>1897.3</ele>
        <time>2026-07-07T08:40:50Z</time>
      </trkpt>
      <trkpt lat="42.97448" lon="0.31162">
        <ele>1897.3</ele>
        <time>2026-07-07T08:40:51Z</time>
      </trkpt>
      <trkpt lat="42.97448" lon="0.31162">
        <ele>1897.3</ele>
        <time>2026-07-07T08:40:52Z</time>
      </trkpt>
      <trkpt lat="42.97448" lon="0.31162">
        <ele>1897.3</ele>
        <time>2026-07-07T08:40:53Z</time>
      </trkpt>
      <trkpt lat="42.97448" lon="0.31162">
        <ele>1896.3</ele>
        <time>2026-07-07T08:40:54Z</time>
      </trkpt>
      <trkpt lat="42.97448" lon="0.31162">
        <ele>1896.3</ele>
        <time>2026-07-07T08:40:55Z</time>
      </trkpt>
      <trkpt lat="42.97448" lon="0.31163">
        <ele>1897.3</ele>
        <time>2026-07-07T08:40:56Z</time>
      </trkpt>
      <trkpt lat="42.97448" lon="0.31164">
        <ele>1897.3</ele>
        <time>2026-07-07T08:40:57Z</time>
      </trkpt>
      <trkpt lat="42.97448" lon="0.31164">
        <ele>1897.3</ele>
        <time>2026-07-07T08:40:58Z</time>
      </trkpt>
      <trkpt lat="42.97448" lon="0.31164">
        <ele>1897.3</ele>
        <time>2026-07-07T08:40:59Z</time>
      </trkpt>
      <trkpt lat="42.97448" lon="0.31164">
        <ele>1897.3</ele>
        <time>2026-07-07T08:41:00Z</time>
      </trkpt>
      <trkpt lat="42.97448" lon="0.31164">
        <ele>1897.3</ele>
        <time>2026-07-07T08:41:01Z</time>
      </trkpt>
      <trkpt lat="42.97448" lon="0.31164">
        <ele>1897.3</ele>
        <time>2026-07-07T08:41:02Z</time>
      </trkpt>
      <trkpt lat="42.97448" lon="0.31164">
        <ele>1897.3</ele>
        <time>2026-07-07T08:41:03Z</time>
      </trkpt>
      <trkpt lat="42.97448" lon="0.31164">
        <ele>1897.3</ele>
        <time>2026-07-07T08:41:04Z</time>
      </trkpt>
      <trkpt lat="42.97448" lon="0.31164">
        <ele>1897.3</ele>
        <time>2026-07-07T08:41:05Z</time>
      </trkpt>
      <trkpt lat="42.97448" lon="0.31164">
        <ele>1897.3</ele>
        <time>2026-07-07T08:41:06Z</time>
      </trkpt>
      <trkpt lat="42.97448" lon="0.31164">
        <ele>1897.3</ele>
        <time>2026-07-07T08:41:07Z</time>
      </trkpt>
      <trkpt lat="42.97448" lon="0.31164">
        <ele>1897.3</ele>
        <time>2026-07-07T08:41:08Z</time>
      </trkpt>
      <trkpt lat="42.97448" lon="0.31164">
        <ele>1897.3</ele>
        <time>2026-07-07T08:41:09Z</time>
      </trkpt>
      <trkpt lat="42.97448" lon="0.31164">
        <ele>1897.3</ele>
        <time>2026-07-07T08:41:10Z</time>
      </trkpt>
      <trkpt lat="42.97448" lon="0.31164">
        <ele>1897.3</ele>
        <time>2026-07-07T08:41:11Z</time>
      </trkpt>
      <trkpt lat="42.97448" lon="0.31164">
        <ele>1897.3</ele>
        <time>2026-07-07T08:41:12Z</time>
      </trkpt>
      <trkpt lat="42.97448" lon="0.31163">
        <ele>1897.3</ele>
        <time>2026-07-07T08:41:13Z</time>
      </trkpt>
      <trkpt lat="42.97448" lon="0.31163">
        <ele>1897.3</ele>
        <time>2026-07-07T08:41:14Z</time>
      </trkpt>
      <trkpt lat="42.97448" lon="0.31163">
        <ele>1897.3</ele>
        <time>2026-07-07T08:41:15Z</time>
      </trkpt>
      <trkpt lat="42.97448" lon="0.31163">
        <ele>1897.3</ele>
        <time>2026-07-07T08:41:16Z</time>
      </trkpt>
      <trkpt lat="42.97448" lon="0.31163">
        <ele>1897.3</ele>
        <time>2026-07-07T08:41:17Z</time>
      </trkpt>
      <trkpt lat="42.97448" lon="0.31163">
        <ele>1897.3</ele>
        <time>2026-07-07T08:41:18Z</time>
      </trkpt>
      <trkpt lat="42.97448" lon="0.31163">
        <ele>1897.3</ele>
        <time>2026-07-07T08:41:19Z</time>
      </trkpt>
      <trkpt lat="42.97448" lon="0.31163">
        <ele>1897.3</ele>
        <time>2026-07-07T08:41:20Z</time>
      </trkpt>
      <trkpt lat="42.97448" lon="0.31163">
        <ele>1897.3</ele>
        <time>2026-07-07T08:41:21Z</time>
      </trkpt>
      <trkpt lat="42.97448" lon="0.31164">
        <ele>1896.3</ele>
        <time>2026-07-07T08:41:22Z</time>
      </trkpt>
      <trkpt lat="42.97448" lon="0.31164">
        <ele>1896.3</ele>
        <time>2026-07-07T08:41:23Z</time>
      </trkpt>
      <trkpt lat="42.97449" lon="0.31164">
        <ele>1896.3</ele>
        <time>2026-07-07T08:41:24Z</time>
      </trkpt>
      <trkpt lat="42.97449" lon="0.31164">
        <ele>1896.3</ele>
        <time>2026-07-07T08:41:25Z</time>
      </trkpt>
      <trkpt lat="42.97448" lon="0.31164">
        <ele>1895.3</ele>
        <time>2026-07-07T08:41:26Z</time>
      </trkpt>
      <trkpt lat="42.97449" lon="0.31164">
        <ele>1895.3</ele>
        <time>2026-07-07T08:41:27Z</time>
      </trkpt>
      <trkpt lat="42.97449" lon="0.31164">
        <ele>1895.3</ele>
        <time>2026-07-07T08:41:28Z</time>
      </trkpt>
      <trkpt lat="42.97449" lon="0.31164">
        <ele>1895.3</ele>
        <time>2026-07-07T08:41:29Z</time>
      </trkpt>
      <trkpt lat="42.97449" lon="0.31164">
        <ele>1895.3</ele>
        <time>2026-07-07T08:41:30Z</time>
      </trkpt>
      <trkpt lat="42.97449" lon="0.31164">
        <ele>1895.3</ele>
        <time>2026-07-07T08:41:31Z</time>
      </trkpt>
      <trkpt lat="42.97449" lon="0.31164">
        <ele>1895.3</ele>
        <time>2026-07-07T08:41:32Z</time>
      </trkpt>
      <trkpt lat="42.97449" lon="0.31164">
        <ele>1895.3</ele>
        <time>2026-07-07T08:41:33Z</time>
      </trkpt>
      <trkpt lat="42.97449" lon="0.31164">
        <ele>1895.3</ele>
        <time>2026-07-07T08:41:34Z</time>
      </trkpt>
      <trkpt lat="42.97449" lon="0.31164">
        <ele>1895.3</ele>
        <time>2026-07-07T08:41:35Z</time>
      </trkpt>
      <trkpt lat="42.97449" lon="0.31164">
        <ele>1895.3</ele>
        <time>2026-07-07T08:41:36Z</time>
      </trkpt>
      <trkpt lat="42.97449" lon="0.31164">
        <ele>1895.3</ele>
        <time>2026-07-07T08:41:37Z</time>
      </trkpt>
      <trkpt lat="42.97449" lon="0.31164">
        <ele>1895.3</ele>
        <time>2026-07-07T08:41:38Z</time>
      </trkpt>
      <trkpt lat="42.97449" lon="0.31164">
        <ele>1895.3</ele>
        <time>2026-07-07T08:41:39Z</time>
      </trkpt>
      <trkpt lat="42.97449" lon="0.31164">
        <ele>1895.3</ele>
        <time>2026-07-07T08:41:40Z</time>
      </trkpt>
      <trkpt lat="42.97449" lon="0.31164">
        <ele>1895.3</ele>
        <time>2026-07-07T08:41:41Z</time>
      </trkpt>
      <trkpt lat="42.97449" lon="0.31164">
        <ele>1895.3</ele>
        <time>2026-07-07T08:41:42Z</time>
      </trkpt>
      <trkpt lat="42.97449" lon="0.31164">
        <ele>1895.3</ele>
        <time>2026-07-07T08:41:43Z</time>
      </trkpt>
      <trkpt lat="42.97449" lon="0.31164">
        <ele>1895.3</ele>
        <time>2026-07-07T08:41:44Z</time>
      </trkpt>
      <trkpt lat="42.97449" lon="0.31164">
        <ele>1895.3</ele>
        <time>2026-07-07T08:41:45Z</time>
      </trkpt>
      <trkpt lat="42.97449" lon="0.31164">
        <ele>1895.3</ele>
        <time>2026-07-07T08:41:46Z</time>
      </trkpt>
      <trkpt lat="42.97449" lon="0.31164">
        <ele>1895.3</ele>
        <time>2026-07-07T08:41:47Z</time>
      </trkpt>
      <trkpt lat="42.97449" lon="0.31164">
        <ele>1895.3</ele>
        <time>2026-07-07T08:41:48Z</time>
      </trkpt>
      <trkpt lat="42.97449" lon="0.31164">
        <ele>1895.3</ele>
        <time>2026-07-07T08:41:49Z</time>
      </trkpt>
      <trkpt lat="42.97449" lon="0.31164">
        <ele>1895.3</ele>
        <time>2026-07-07T08:41:50Z</time>
      </trkpt>
      <trkpt lat="42.97449" lon="0.31164">
        <ele>1895.3</ele>
        <time>2026-07-07T08:41:51Z</time>
      </trkpt>
      <trkpt lat="42.97449" lon="0.31164">
        <ele>1895.3</ele>
        <time>2026-07-07T08:41:52Z</time>
      </trkpt>
      <trkpt lat="42.97449" lon="0.31164">
        <ele>1895.3</ele>
        <time>2026-07-07T08:41:53Z</time>
      </trkpt>
      <trkpt lat="42.97449" lon="0.31164">
        <ele>1895.3</ele>
        <time>2026-07-07T08:41:54Z</time>
      </trkpt>
      <trkpt lat="42.97449" lon="0.31164">
        <ele>1895.3</ele>
        <time>2026-07-07T08:41:55Z</time>
      </trkpt>
      <trkpt lat="42.97449" lon="0.31164">
        <ele>1895.3</ele>
        <time>2026-07-07T08:41:56Z</time>
      </trkpt>
      <trkpt lat="42.97449" lon="0.31164">
        <ele>1895.3</ele>
        <time>2026-07-07T08:41:57Z</time>
      </trkpt>
      <trkpt lat="42.97449" lon="0.31164">
        <ele>1895.3</ele>
        <time>2026-07-07T08:41:58Z</time>
      </trkpt>
      <trkpt lat="42.97449" lon="0.31164">
        <ele>1895.3</ele>
        <time>2026-07-07T08:41:59Z</time>
      </trkpt>
      <trkpt lat="42.97449" lon="0.31164">
        <ele>1895.3</ele>
        <time>2026-07-07T08:42:00Z</time>
      </trkpt>
      <trkpt lat="42.97449" lon="0.31164">
        <ele>1895.3</ele>
        <time>2026-07-07T08:42:01Z</time>
      </trkpt>
      <trkpt lat="42.97449" lon="0.31163">
        <ele>1896.3</ele>
        <time>2026-07-07T08:42:02Z</time>
      </trkpt>
      <trkpt lat="42.9745" lon="0.31163">
        <ele>1896.3</ele>
        <time>2026-07-07T08:42:03Z</time>
      </trkpt>
      <trkpt lat="42.9745" lon="0.31163">
        <ele>1896.3</ele>
        <time>2026-07-07T08:42:04Z</time>
      </trkpt>
      <trkpt lat="42.9745" lon="0.31163">
        <ele>1896.3</ele>
        <time>2026-07-07T08:42:05Z</time>
      </trkpt>
      <trkpt lat="42.9745" lon="0.31163">
        <ele>1896.3</ele>
        <time>2026-07-07T08:42:06Z</time>
      </trkpt>
      <trkpt lat="42.9745" lon="0.31163">
        <ele>1896.3</ele>
        <time>2026-07-07T08:42:07Z</time>
      </trkpt>
      <trkpt lat="42.9745" lon="0.31163">
        <ele>1896.3</ele>
        <time>2026-07-07T08:42:08Z</time>
      </trkpt>
      <trkpt lat="42.9745" lon="0.31163">
        <ele>1896.3</ele>
        <time>2026-07-07T08:42:09Z</time>
      </trkpt>
      <trkpt lat="42.9745" lon="0.31163">
        <ele>1896.3</ele>
        <time>2026-07-07T08:42:10Z</time>
      </trkpt>
      <trkpt lat="42.9745" lon="0.31163">
        <ele>1896.3</ele>
        <time>2026-07-07T08:42:11Z</time>
      </trkpt>
      <trkpt lat="42.9745" lon="0.31163">
        <ele>1896.3</ele>
        <time>2026-07-07T08:42:12Z</time>
      </trkpt>
      <trkpt lat="42.9745" lon="0.31163">
        <ele>1896.3</ele>
        <time>2026-07-07T08:42:13Z</time>
      </trkpt>
      <trkpt lat="42.97449" lon="0.31162">
        <ele>1895.3</ele>
        <time>2026-07-07T08:42:14Z</time>
      </trkpt>
      <trkpt lat="42.97449" lon="0.31162">
        <ele>1895.3</ele>
        <time>2026-07-07T08:42:15Z</time>
      </trkpt>
      <trkpt lat="42.97449" lon="0.31162">
        <ele>1895.3</ele>
        <time>2026-07-07T08:42:16Z</time>
      </trkpt>
      <trkpt lat="42.97449" lon="0.31162">
        <ele>1895.3</ele>
        <time>2026-07-07T08:42:17Z</time>
      </trkpt>
      <trkpt lat="42.97449" lon="0.31162">
        <ele>1895.3</ele>
        <time>2026-07-07T08:42:18Z</time>
      </trkpt>
      <trkpt lat="42.97449" lon="0.31162">
        <ele>1895.3</ele>
        <time>2026-07-07T08:42:19Z</time>
      </trkpt>
      <trkpt lat="42.97449" lon="0.31162">
        <ele>1895.3</ele>
        <time>2026-07-07T08:42:20Z</time>
      </trkpt>
      <trkpt lat="42.97449" lon="0.31162">
        <ele>1895.3</ele>
        <time>2026-07-07T08:42:21Z</time>
      </trkpt>
      <trkpt lat="42.97449" lon="0.31162">
        <ele>1895.3</ele>
        <time>2026-07-07T08:42:22Z</time>
      </trkpt>
      <trkpt lat="42.97449" lon="0.31162">
        <ele>1895.3</ele>
        <time>2026-07-07T08:42:23Z</time>
      </trkpt>
      <trkpt lat="42.97449" lon="0.31162">
        <ele>1895.3</ele>
        <time>2026-07-07T08:42:24Z</time>
      </trkpt>
      <trkpt lat="42.97449" lon="0.31162">
        <ele>1895.3</ele>
        <time>2026-07-07T08:42:25Z</time>
      </trkpt>
      <trkpt lat="42.97449" lon="0.31162">
        <ele>1895.3</ele>
        <time>2026-07-07T08:42:26Z</time>
      </trkpt>
      <trkpt lat="42.97449" lon="0.31162">
        <ele>1895.3</ele>
        <time>2026-07-07T08:42:27Z</time>
      </trkpt>
      <trkpt lat="42.97449" lon="0.31162">
        <ele>1895.3</ele>
        <time>2026-07-07T08:42:28Z</time>
      </trkpt>
      <trkpt lat="42.97449" lon="0.31162">
        <ele>1895.3</ele>
        <time>2026-07-07T08:42:29Z</time>
      </trkpt>
      <trkpt lat="42.97449" lon="0.31162">
        <ele>1895.3</ele>
        <time>2026-07-07T08:42:30Z</time>
      </trkpt>
      <trkpt lat="42.97449" lon="0.31162">
        <ele>1895.3</ele>
        <time>2026-07-07T08:42:31Z</time>
      </trkpt>
      <trkpt lat="42.97449" lon="0.31162">
        <ele>1895.3</ele>
        <time>2026-07-07T08:42:32Z</time>
      </trkpt>
      <trkpt lat="42.97449" lon="0.31162">
        <ele>1895.3</ele>
        <time>2026-07-07T08:42:33Z</time>
      </trkpt>
      <trkpt lat="42.97449" lon="0.31162">
        <ele>1894.3</ele>
        <time>2026-07-07T08:42:34Z</time>
      </trkpt>
      <trkpt lat="42.97449" lon="0.31162">
        <ele>1894.3</ele>
        <time>2026-07-07T08:42:35Z</time>
      </trkpt>
      <trkpt lat="42.97449" lon="0.31162">
        <ele>1894.3</ele>
        <time>2026-07-07T08:42:36Z</time>
      </trkpt>
      <trkpt lat="42.97449" lon="0.31162">
        <ele>1894.3</ele>
        <time>2026-07-07T08:42:37Z</time>
      </trkpt>
      <trkpt lat="42.97449" lon="0.31162">
        <ele>1894.3</ele>
        <time>2026-07-07T08:42:38Z</time>
      </trkpt>
      <trkpt lat="42.97449" lon="0.31162">
        <ele>1894.3</ele>
        <time>2026-07-07T08:42:39Z</time>
      </trkpt>
      <trkpt lat="42.97449" lon="0.31162">
        <ele>1894.3</ele>
        <time>2026-07-07T08:42:40Z</time>
      </trkpt>
      <trkpt lat="42.97449" lon="0.31162">
        <ele>1894.3</ele>
        <time>2026-07-07T08:42:41Z</time>
      </trkpt>
      <trkpt lat="42.97449" lon="0.31162">
        <ele>1894.3</ele>
        <time>2026-07-07T08:42:42Z</time>
      </trkpt>
      <trkpt lat="42.9745" lon="0.31161">
        <ele>1894.3</ele>
        <time>2026-07-07T08:42:43Z</time>
      </trkpt>
      <trkpt lat="42.97449" lon="0.3116">
        <ele>1894.3</ele>
        <time>2026-07-07T08:42:44Z</time>
      </trkpt>
      <trkpt lat="42.97449" lon="0.3116">
        <ele>1894.3</ele>
        <time>2026-07-07T08:42:45Z</time>
      </trkpt>
      <trkpt lat="42.97449" lon="0.31161">
        <ele>1894.3</ele>
        <time>2026-07-07T08:42:46Z</time>
      </trkpt>
      <trkpt lat="42.97449" lon="0.31161">
        <ele>1894.3</ele>
        <time>2026-07-07T08:42:47Z</time>
      </trkpt>
      <trkpt lat="42.97449" lon="0.31161">
        <ele>1894.3</ele>
        <time>2026-07-07T08:42:48Z</time>
      </trkpt>
      <trkpt lat="42.97449" lon="0.31161">
        <ele>1894.3</ele>
        <time>2026-07-07T08:42:49Z</time>
      </trkpt>
      <trkpt lat="42.97449" lon="0.31161">
        <ele>1894.3</ele>
        <time>2026-07-07T08:42:50Z</time>
      </trkpt>
      <trkpt lat="42.97449" lon="0.31161">
        <ele>1894.3</ele>
        <time>2026-07-07T08:42:51Z</time>
      </trkpt>
      <trkpt lat="42.97449" lon="0.31161">
        <ele>1894.3</ele>
        <time>2026-07-07T08:42:52Z</time>
      </trkpt>
      <trkpt lat="42.97449" lon="0.31161">
        <ele>1894.3</ele>
        <time>2026-07-07T08:42:53Z</time>
      </trkpt>
      <trkpt lat="42.97449" lon="0.31161">
        <ele>1894.3</ele>
        <time>2026-07-07T08:42:54Z</time>
      </trkpt>
      <trkpt lat="42.97449" lon="0.31161">
        <ele>1894.3</ele>
        <time>2026-07-07T08:42:55Z</time>
      </trkpt>
      <trkpt lat="42.97449" lon="0.31161">
        <ele>1894.3</ele>
        <time>2026-07-07T08:42:56Z</time>
      </trkpt>
      <trkpt lat="42.97449" lon="0.31161">
        <ele>1894.3</ele>
        <time>2026-07-07T08:42:57Z</time>
      </trkpt>
      <trkpt lat="42.97449" lon="0.31161">
        <ele>1894.3</ele>
        <time>2026-07-07T08:42:58Z</time>
      </trkpt>
      <trkpt lat="42.97449" lon="0.31161">
        <ele>1894.3</ele>
        <time>2026-07-07T08:42:59Z</time>
      </trkpt>
      <trkpt lat="42.97449" lon="0.31161">
        <ele>1894.3</ele>
        <time>2026-07-07T08:43:00Z</time>
      </trkpt>
      <trkpt lat="42.97449" lon="0.31161">
        <ele>1894.3</ele>
        <time>2026-07-07T08:43:01Z</time>
      </trkpt>
      <trkpt lat="42.97449" lon="0.31161">
        <ele>1894.3</ele>
        <time>2026-07-07T08:43:02Z</time>
      </trkpt>
      <trkpt lat="42.97449" lon="0.31161">
        <ele>1894.3</ele>
        <time>2026-07-07T08:43:03Z</time>
      </trkpt>
      <trkpt lat="42.97449" lon="0.31161">
        <ele>1894.3</ele>
        <time>2026-07-07T08:43:04Z</time>
      </trkpt>
      <trkpt lat="42.97449" lon="0.31161">
        <ele>1894.3</ele>
        <time>2026-07-07T08:43:05Z</time>
      </trkpt>
      <trkpt lat="42.97449" lon="0.31161">
        <ele>1894.3</ele>
        <time>2026-07-07T08:43:06Z</time>
      </trkpt>
      <trkpt lat="42.97448" lon="0.31161">
        <ele>1893.3</ele>
        <time>2026-07-07T08:43:07Z</time>
      </trkpt>
      <trkpt lat="42.97448" lon="0.31162">
        <ele>1893.3</ele>
        <time>2026-07-07T08:43:08Z</time>
      </trkpt>
      <trkpt lat="42.97449" lon="0.31162">
        <ele>1893.3</ele>
        <time>2026-07-07T08:43:09Z</time>
      </trkpt>
      <trkpt lat="42.97449" lon="0.31162">
        <ele>1893.3</ele>
        <time>2026-07-07T08:43:10Z</time>
      </trkpt>
      <trkpt lat="42.97449" lon="0.31162">
        <ele>1893.3</ele>
        <time>2026-07-07T08:43:11Z</time>
      </trkpt>
      <trkpt lat="42.97449" lon="0.31162">
        <ele>1893.3</ele>
        <time>2026-07-07T08:43:12Z</time>
      </trkpt>
      <trkpt lat="42.97449" lon="0.31162">
        <ele>1893.3</ele>
        <time>2026-07-07T08:43:13Z</time>
      </trkpt>
      <trkpt lat="42.97449" lon="0.31162">
        <ele>1893.3</ele>
        <time>2026-07-07T08:43:14Z</time>
      </trkpt>
      <trkpt lat="42.97449" lon="0.31162">
        <ele>1893.3</ele>
        <time>2026-07-07T08:43:15Z</time>
      </trkpt>
      <trkpt lat="42.97449" lon="0.31162">
        <ele>1893.3</ele>
        <time>2026-07-07T08:43:16Z</time>
      </trkpt>
      <trkpt lat="42.97449" lon="0.31162">
        <ele>1893.3</ele>
        <time>2026-07-07T08:43:17Z</time>
      </trkpt>
      <trkpt lat="42.97449" lon="0.31162">
        <ele>1893.3</ele>
        <time>2026-07-07T08:43:18Z</time>
      </trkpt>
      <trkpt lat="42.97449" lon="0.31162">
        <ele>1893.3</ele>
        <time>2026-07-07T08:43:19Z</time>
      </trkpt>
      <trkpt lat="42.97449" lon="0.31162">
        <ele>1893.3</ele>
        <time>2026-07-07T08:43:20Z</time>
      </trkpt>
      <trkpt lat="42.97449" lon="0.31162">
        <ele>1893.3</ele>
        <time>2026-07-07T08:43:21Z</time>
      </trkpt>
      <trkpt lat="42.97449" lon="0.31162">
        <ele>1893.3</ele>
        <time>2026-07-07T08:43:22Z</time>
      </trkpt>
      <trkpt lat="42.97449" lon="0.31162">
        <ele>1893.3</ele>
        <time>2026-07-07T08:43:23Z</time>
      </trkpt>
      <trkpt lat="42.97449" lon="0.31162">
        <ele>1893.3</ele>
        <time>2026-07-07T08:43:24Z</time>
      </trkpt>
      <trkpt lat="42.97449" lon="0.31162">
        <ele>1893.3</ele>
        <time>2026-07-07T08:43:25Z</time>
      </trkpt>
      <trkpt lat="42.97449" lon="0.31162">
        <ele>1893.3</ele>
        <time>2026-07-07T08:43:26Z</time>
      </trkpt>
      <trkpt lat="42.97449" lon="0.31162">
        <ele>1893.3</ele>
        <time>2026-07-07T08:43:27Z</time>
      </trkpt>
      <trkpt lat="42.97449" lon="0.31162">
        <ele>1893.3</ele>
        <time>2026-07-07T08:43:28Z</time>
      </trkpt>
      <trkpt lat="42.97449" lon="0.31162">
        <ele>1893.3</ele>
        <time>2026-07-07T08:43:29Z</time>
      </trkpt>
      <trkpt lat="42.97448" lon="0.31162">
        <ele>1893.3</ele>
        <time>2026-07-07T08:43:30Z</time>
      </trkpt>
      <trkpt lat="42.97448" lon="0.31162">
        <ele>1893.3</ele>
        <time>2026-07-07T08:43:31Z</time>
      </trkpt>
      <trkpt lat="42.97448" lon="0.31162">
        <ele>1893.3</ele>
        <time>2026-07-07T08:43:32Z</time>
      </trkpt>
      <trkpt lat="42.97448" lon="0.31162">
        <ele>1893.3</ele>
        <time>2026-07-07T08:43:33Z</time>
      </trkpt>
      <trkpt lat="42.97448" lon="0.31162">
        <ele>1893.3</ele>
        <time>2026-07-07T08:43:34Z</time>
      </trkpt>
      <trkpt lat="42.97448" lon="0.31162">
        <ele>1893.3</ele>
        <time>2026-07-07T08:43:35Z</time>
      </trkpt>
      <trkpt lat="42.97448" lon="0.31162">
        <ele>1893.3</ele>
        <time>2026-07-07T08:43:36Z</time>
      </trkpt>
      <trkpt lat="42.97448" lon="0.31162">
        <ele>1893.3</ele>
        <time>2026-07-07T08:43:37Z</time>
      </trkpt>
      <trkpt lat="42.97448" lon="0.31162">
        <ele>1893.3</ele>
        <time>2026-07-07T08:43:38Z</time>
      </trkpt>
      <trkpt lat="42.97448" lon="0.31163">
        <ele>1893.3</ele>
        <time>2026-07-07T08:43:39Z</time>
      </trkpt>
      <trkpt lat="42.97448" lon="0.31163">
        <ele>1893.3</ele>
        <time>2026-07-07T08:43:40Z</time>
      </trkpt>
      <trkpt lat="42.97448" lon="0.31163">
        <ele>1893.3</ele>
        <time>2026-07-07T08:43:41Z</time>
      </trkpt>
      <trkpt lat="42.97448" lon="0.31163">
        <ele>1893.3</ele>
        <time>2026-07-07T08:43:42Z</time>
      </trkpt>
      <trkpt lat="42.97448" lon="0.31163">
        <ele>1893.3</ele>
        <time>2026-07-07T08:43:43Z</time>
      </trkpt>
      <trkpt lat="42.97448" lon="0.31163">
        <ele>1893.3</ele>
        <time>2026-07-07T08:43:44Z</time>
      </trkpt>
      <trkpt lat="42.97448" lon="0.31163">
        <ele>1893.3</ele>
        <time>2026-07-07T08:43:45Z</time>
      </trkpt>
      <trkpt lat="42.97448" lon="0.31163">
        <ele>1893.3</ele>
        <time>2026-07-07T08:43:46Z</time>
      </trkpt>
      <trkpt lat="42.97448" lon="0.31163">
        <ele>1893.3</ele>
        <time>2026-07-07T08:43:47Z</time>
      </trkpt>
      <trkpt lat="42.97448" lon="0.31163">
        <ele>1893.3</ele>
        <time>2026-07-07T08:43:48Z</time>
      </trkpt>
      <trkpt lat="42.97448" lon="0.31163">
        <ele>1893.3</ele>
        <time>2026-07-07T08:43:49Z</time>
      </trkpt>
      <trkpt lat="42.97448" lon="0.31163">
        <ele>1893.3</ele>
        <time>2026-07-07T08:43:50Z</time>
      </trkpt>
      <trkpt lat="42.97448" lon="0.31163">
        <ele>1893.3</ele>
        <time>2026-07-07T08:43:51Z</time>
      </trkpt>
      <trkpt lat="42.97448" lon="0.31163">
        <ele>1893.3</ele>
        <time>2026-07-07T08:43:52Z</time>
      </trkpt>
      <trkpt lat="42.97448" lon="0.31164">
        <ele>1892.3</ele>
        <time>2026-07-07T08:43:53Z</time>
      </trkpt>
      <trkpt lat="42.97448" lon="0.31164">
        <ele>1892.3</ele>
        <time>2026-07-07T08:43:54Z</time>
      </trkpt>
      <trkpt lat="42.97448" lon="0.31164">
        <ele>1892.3</ele>
        <time>2026-07-07T08:43:55Z</time>
      </trkpt>
      <trkpt lat="42.97448" lon="0.31164">
        <ele>1892.3</ele>
        <time>2026-07-07T08:43:56Z</time>
      </trkpt>
      <trkpt lat="42.97448" lon="0.31164">
        <ele>1892.3</ele>
        <time>2026-07-07T08:43:57Z</time>
      </trkpt>
      <trkpt lat="42.97449" lon="0.31163">
        <ele>1893.3</ele>
        <time>2026-07-07T08:43:58Z</time>
      </trkpt>
      <trkpt lat="42.97449" lon="0.31163">
        <ele>1893.3</ele>
        <time>2026-07-07T08:43:59Z</time>
      </trkpt>
      <trkpt lat="42.97449" lon="0.31163">
        <ele>1893.3</ele>
        <time>2026-07-07T08:44:00Z</time>
      </trkpt>
      <trkpt lat="42.97449" lon="0.31163">
        <ele>1893.3</ele>
        <time>2026-07-07T08:44:01Z</time>
      </trkpt>
      <trkpt lat="42.97449" lon="0.31163">
        <ele>1893.3</ele>
        <time>2026-07-07T08:44:02Z</time>
      </trkpt>
      <trkpt lat="42.97449" lon="0.31163">
        <ele>1893.3</ele>
        <time>2026-07-07T08:44:03Z</time>
      </trkpt>
      <trkpt lat="42.97449" lon="0.31163">
        <ele>1893.3</ele>
        <time>2026-07-07T08:44:04Z</time>
      </trkpt>
      <trkpt lat="42.97449" lon="0.31163">
        <ele>1893.3</ele>
        <time>2026-07-07T08:44:05Z</time>
      </trkpt>
      <trkpt lat="42.97449" lon="0.31163">
        <ele>1893.3</ele>
        <time>2026-07-07T08:44:06Z</time>
      </trkpt>
      <trkpt lat="42.97449" lon="0.31163">
        <ele>1893.3</ele>
        <time>2026-07-07T08:44:07Z</time>
      </trkpt>
      <trkpt lat="42.97449" lon="0.31163">
        <ele>1893.3</ele>
        <time>2026-07-07T08:44:08Z</time>
      </trkpt>
      <trkpt lat="42.97449" lon="0.31163">
        <ele>1893.3</ele>
        <time>2026-07-07T08:44:09Z</time>
      </trkpt>
      <trkpt lat="42.97449" lon="0.31163">
        <ele>1893.3</ele>
        <time>2026-07-07T08:44:10Z</time>
      </trkpt>
      <trkpt lat="42.97449" lon="0.31163">
        <ele>1893.3</ele>
        <time>2026-07-07T08:44:11Z</time>
      </trkpt>
      <trkpt lat="42.97449" lon="0.31163">
        <ele>1893.3</ele>
        <time>2026-07-07T08:44:12Z</time>
      </trkpt>
      <trkpt lat="42.97449" lon="0.31163">
        <ele>1893.3</ele>
        <time>2026-07-07T08:44:13Z</time>
      </trkpt>
      <trkpt lat="42.97449" lon="0.31163">
        <ele>1893.3</ele>
        <time>2026-07-07T08:44:14Z</time>
      </trkpt>
      <trkpt lat="42.97449" lon="0.31163">
        <ele>1893.3</ele>
        <time>2026-07-07T08:44:15Z</time>
      </trkpt>
      <trkpt lat="42.97449" lon="0.31163">
        <ele>1893.3</ele>
        <time>2026-07-07T08:44:16Z</time>
      </trkpt>
      <trkpt lat="42.97449" lon="0.31163">
        <ele>1893.3</ele>
        <time>2026-07-07T08:44:17Z</time>
      </trkpt>
      <trkpt lat="42.97449" lon="0.31163">
        <ele>1893.3</ele>
        <time>2026-07-07T08:44:18Z</time>
      </trkpt>
      <trkpt lat="42.97449" lon="0.31163">
        <ele>1893.3</ele>
        <time>2026-07-07T08:44:19Z</time>
      </trkpt>
      <trkpt lat="42.97449" lon="0.31163">
        <ele>1893.3</ele>
        <time>2026-07-07T08:44:20Z</time>
      </trkpt>
      <trkpt lat="42.97449" lon="0.31163">
        <ele>1893.3</ele>
        <time>2026-07-07T08:44:21Z</time>
      </trkpt>
      <trkpt lat="42.97449" lon="0.31163">
        <ele>1893.3</ele>
        <time>2026-07-07T08:44:22Z</time>
      </trkpt>
      <trkpt lat="42.97449" lon="0.31163">
        <ele>1893.3</ele>
        <time>2026-07-07T08:44:23Z</time>
      </trkpt>
      <trkpt lat="42.97449" lon="0.31163">
        <ele>1893.3</ele>
        <time>2026-07-07T08:44:24Z</time>
      </trkpt>
      <trkpt lat="42.97449" lon="0.31163">
        <ele>1893.3</ele>
        <time>2026-07-07T08:44:25Z</time>
      </trkpt>
      <trkpt lat="42.97449" lon="0.31163">
        <ele>1893.3</ele>
        <time>2026-07-07T08:44:26Z</time>
      </trkpt>
      <trkpt lat="42.97449" lon="0.31163">
        <ele>1893.3</ele>
        <time>2026-07-07T08:44:27Z</time>
      </trkpt>
      <trkpt lat="42.97449" lon="0.31163">
        <ele>1893.3</ele>
        <time>2026-07-07T08:44:28Z</time>
      </trkpt>
      <trkpt lat="42.97449" lon="0.31163">
        <ele>1893.3</ele>
        <time>2026-07-07T08:44:29Z</time>
      </trkpt>
      <trkpt lat="42.97449" lon="0.31163">
        <ele>1893.3</ele>
        <time>2026-07-07T08:44:30Z</time>
      </trkpt>
      <trkpt lat="42.97449" lon="0.31163">
        <ele>1893.3</ele>
        <time>2026-07-07T08:44:31Z</time>
      </trkpt>
      <trkpt lat="42.97449" lon="0.31163">
        <ele>1893.3</ele>
        <time>2026-07-07T08:44:32Z</time>
      </trkpt>
      <trkpt lat="42.97449" lon="0.31163">
        <ele>1893.3</ele>
        <time>2026-07-07T08:44:33Z</time>
      </trkpt>
      <trkpt lat="42.97449" lon="0.31163">
        <ele>1893.3</ele>
        <time>2026-07-07T08:44:34Z</time>
      </trkpt>
      <trkpt lat="42.97449" lon="0.31163">
        <ele>1893.3</ele>
        <time>2026-07-07T08:44:35Z</time>
      </trkpt>
      <trkpt lat="42.97449" lon="0.31163">
        <ele>1893.3</ele>
        <time>2026-07-07T08:44:36Z</time>
      </trkpt>
      <trkpt lat="42.97449" lon="0.31163">
        <ele>1893.3</ele>
        <time>2026-07-07T08:44:37Z</time>
      </trkpt>
      <trkpt lat="42.97449" lon="0.31163">
        <ele>1893.3</ele>
        <time>2026-07-07T08:44:38Z</time>
      </trkpt>
      <trkpt lat="42.97449" lon="0.31163">
        <ele>1893.3</ele>
        <time>2026-07-07T08:44:39Z</time>
      </trkpt>
      <trkpt lat="42.97449" lon="0.31163">
        <ele>1893.3</ele>
        <time>2026-07-07T08:44:40Z</time>
      </trkpt>
      <trkpt lat="42.97449" lon="0.31163">
        <ele>1893.3</ele>
        <time>2026-07-07T08:44:41Z</time>
      </trkpt>
      <trkpt lat="42.97449" lon="0.31163">
        <ele>1893.3</ele>
        <time>2026-07-07T08:44:42Z</time>
      </trkpt>
      <trkpt lat="42.97449" lon="0.31163">
        <ele>1893.3</ele>
        <time>2026-07-07T08:44:43Z</time>
      </trkpt>
      <trkpt lat="42.97449" lon="0.31163">
        <ele>1893.3</ele>
        <time>2026-07-07T08:44:44Z</time>
      </trkpt>
      <trkpt lat="42.97449" lon="0.31163">
        <ele>1893.3</ele>
        <time>2026-07-07T08:44:45Z</time>
      </trkpt>
      <trkpt lat="42.97449" lon="0.31163">
        <ele>1893.3</ele>
        <time>2026-07-07T08:44:46Z</time>
      </trkpt>
      <trkpt lat="42.97449" lon="0.31163">
        <ele>1893.3</ele>
        <time>2026-07-07T08:44:47Z</time>
      </trkpt>
      <trkpt lat="42.97449" lon="0.31163">
        <ele>1893.3</ele>
        <time>2026-07-07T08:44:48Z</time>
      </trkpt>
      <trkpt lat="42.97449" lon="0.31163">
        <ele>1893.3</ele>
        <time>2026-07-07T08:44:49Z</time>
      </trkpt>
      <trkpt lat="42.97449" lon="0.31163">
        <ele>1893.3</ele>
        <time>2026-07-07T08:44:50Z</time>
      </trkpt>
      <trkpt lat="42.97449" lon="0.31163">
        <ele>1893.3</ele>
        <time>2026-07-07T08:44:51Z</time>
      </trkpt>
      <trkpt lat="42.97449" lon="0.31163">
        <ele>1893.3</ele>
        <time>2026-07-07T08:44:52Z</time>
      </trkpt>
      <trkpt lat="42.97449" lon="0.31163">
        <ele>1893.3</ele>
        <time>2026-07-07T08:44:53Z</time>
      </trkpt>
      <trkpt lat="42.97449" lon="0.31163">
        <ele>1893.3</ele>
        <time>2026-07-07T08:44:54Z</time>
      </trkpt>
      <trkpt lat="42.97449" lon="0.31163">
        <ele>1893.3</ele>
        <time>2026-07-07T08:44:55Z</time>
      </trkpt>
      <trkpt lat="42.97449" lon="0.31163">
        <ele>1893.3</ele>
        <time>2026-07-07T08:44:56Z</time>
      </trkpt>
      <trkpt lat="42.97449" lon="0.31163">
        <ele>1893.3</ele>
        <time>2026-07-07T08:44:57Z</time>
      </trkpt>
      <trkpt lat="42.97449" lon="0.31163">
        <ele>1893.3</ele>
        <time>2026-07-07T08:44:58Z</time>
      </trkpt>
      <trkpt lat="42.97449" lon="0.31163">
        <ele>1893.3</ele>
        <time>2026-07-07T08:44:59Z</time>
      </trkpt>
      <trkpt lat="42.97449" lon="0.31163">
        <ele>1893.3</ele>
        <time>2026-07-07T08:45:00Z</time>
      </trkpt>
      <trkpt lat="42.97449" lon="0.31163">
        <ele>1893.3</ele>
        <time>2026-07-07T08:45:01Z</time>
      </trkpt>
      <trkpt lat="42.97449" lon="0.31163">
        <ele>1893.3</ele>
        <time>2026-07-07T08:45:02Z</time>
      </trkpt>
      <trkpt lat="42.97449" lon="0.31163">
        <ele>1893.3</ele>
        <time>2026-07-07T08:45:03Z</time>
      </trkpt>
      <trkpt lat="42.97449" lon="0.31163">
        <ele>1893.3</ele>
        <time>2026-07-07T08:45:04Z</time>
      </trkpt>
      <trkpt lat="42.97449" lon="0.31163">
        <ele>1893.3</ele>
        <time>2026-07-07T08:45:05Z</time>
      </trkpt>
      <trkpt lat="42.97449" lon="0.31163">
        <ele>1893.3</ele>
        <time>2026-07-07T08:45:06Z</time>
      </trkpt>
      <trkpt lat="42.97449" lon="0.31163">
        <ele>1893.3</ele>
        <time>2026-07-07T08:45:07Z</time>
      </trkpt>
      <trkpt lat="42.97449" lon="0.31163">
        <ele>1893.3</ele>
        <time>2026-07-07T08:45:08Z</time>
      </trkpt>
      <trkpt lat="42.97449" lon="0.31163">
        <ele>1893.3</ele>
        <time>2026-07-07T08:45:09Z</time>
      </trkpt>
      <trkpt lat="42.97449" lon="0.31163">
        <ele>1893.3</ele>
        <time>2026-07-07T08:45:10Z</time>
      </trkpt>
      <trkpt lat="42.97449" lon="0.31163">
        <ele>1893.3</ele>
        <time>2026-07-07T08:45:11Z</time>
      </trkpt>
      <trkpt lat="42.97449" lon="0.31163">
        <ele>1893.3</ele>
        <time>2026-07-07T08:45:12Z</time>
      </trkpt>
      <trkpt lat="42.97449" lon="0.31163">
        <ele>1893.3</ele>
        <time>2026-07-07T08:45:13Z</time>
      </trkpt>
      <trkpt lat="42.97449" lon="0.31163">
        <ele>1893.3</ele>
        <time>2026-07-07T08:45:14Z</time>
      </trkpt>
      <trkpt lat="42.97449" lon="0.31163">
        <ele>1893.3</ele>
        <time>2026-07-07T08:45:15Z</time>
      </trkpt>
      <trkpt lat="42.97449" lon="0.31163">
        <ele>1893.3</ele>
        <time>2026-07-07T08:45:16Z</time>
      </trkpt>
      <trkpt lat="42.97449" lon="0.31163">
        <ele>1893.3</ele>
        <time>2026-07-07T08:45:17Z</time>
      </trkpt>
      <trkpt lat="42.97449" lon="0.31163">
        <ele>1893.3</ele>
        <time>2026-07-07T08:45:18Z</time>
      </trkpt>
      <trkpt lat="42.97449" lon="0.31163">
        <ele>1893.3</ele>
        <time>2026-07-07T08:45:19Z</time>
      </trkpt>
      <trkpt lat="42.97449" lon="0.31163">
        <ele>1893.3</ele>
        <time>2026-07-07T08:45:20Z</time>
      </trkpt>
      <trkpt lat="42.97449" lon="0.31163">
        <ele>1893.3</ele>
        <time>2026-07-07T08:45:21Z</time>
      </trkpt>
      <trkpt lat="42.97449" lon="0.31163">
        <ele>1893.3</ele>
        <time>2026-07-07T08:45:22Z</time>
      </trkpt>
      <trkpt lat="42.97449" lon="0.31163">
        <ele>1893.3</ele>
        <time>2026-07-07T08:45:23Z</time>
      </trkpt>
      <trkpt lat="42.97449" lon="0.31163">
        <ele>1893.3</ele>
        <time>2026-07-07T08:45:24Z</time>
      </trkpt>
      <trkpt lat="42.97449" lon="0.31163">
        <ele>1893.3</ele>
        <time>2026-07-07T08:45:25Z</time>
      </trkpt>
      <trkpt lat="42.97449" lon="0.31163">
        <ele>1893.3</ele>
        <time>2026-07-07T08:45:26Z</time>
      </trkpt>
      <trkpt lat="42.97449" lon="0.31163">
        <ele>1893.3</ele>
        <time>2026-07-07T08:45:27Z</time>
      </trkpt>
      <trkpt lat="42.97449" lon="0.31163">
        <ele>1893.3</ele>
        <time>2026-07-07T08:45:28Z</time>
      </trkpt>
      <trkpt lat="42.97449" lon="0.31163">
        <ele>1893.3</ele>
        <time>2026-07-07T08:45:29Z</time>
      </trkpt>
      <trkpt lat="42.97449" lon="0.31163">
        <ele>1893.3</ele>
        <time>2026-07-07T08:45:30Z</time>
      </trkpt>
      <trkpt lat="42.97449" lon="0.31163">
        <ele>1893.3</ele>
        <time>2026-07-07T08:45:31Z</time>
      </trkpt>
      <trkpt lat="42.97449" lon="0.31163">
        <ele>1893.3</ele>
        <time>2026-07-07T08:45:32Z</time>
      </trkpt>
      <trkpt lat="42.97449" lon="0.31163">
        <ele>1893.3</ele>
        <time>2026-07-07T08:45:33Z</time>
      </trkpt>
      <trkpt lat="42.97449" lon="0.31163">
        <ele>1893.3</ele>
        <time>2026-07-07T08:45:34Z</time>
      </trkpt>
      <trkpt lat="42.97449" lon="0.31163">
        <ele>1893.3</ele>
        <time>2026-07-07T08:45:35Z</time>
      </trkpt>
      <trkpt lat="42.97449" lon="0.31163">
        <ele>1893.3</ele>
        <time>2026-07-07T08:45:36Z</time>
      </trkpt>
      <trkpt lat="42.97449" lon="0.31163">
        <ele>1893.3</ele>
        <time>2026-07-07T08:45:37Z</time>
      </trkpt>
      <trkpt lat="42.97449" lon="0.31163">
        <ele>1893.3</ele>
        <time>2026-07-07T08:45:38Z</time>
      </trkpt>
      <trkpt lat="42.97449" lon="0.31163">
        <ele>1893.3</ele>
        <time>2026-07-07T08:45:39Z</time>
      </trkpt>
      <trkpt lat="42.97449" lon="0.31163">
        <ele>1893.3</ele>
        <time>2026-07-07T08:45:40Z</time>
      </trkpt>
      <trkpt lat="42.97449" lon="0.31163">
        <ele>1893.3</ele>
        <time>2026-07-07T08:45:41Z</time>
      </trkpt>
      <trkpt lat="42.97449" lon="0.31163">
        <ele>1893.3</ele>
        <time>2026-07-07T08:45:42Z</time>
      </trkpt>
      <trkpt lat="42.97449" lon="0.31163">
        <ele>1893.3</ele>
        <time>2026-07-07T08:45:43Z</time>
      </trkpt>
      <trkpt lat="42.97449" lon="0.31163">
        <ele>1893.3</ele>
        <time>2026-07-07T08:45:44Z</time>
      </trkpt>
      <trkpt lat="42.97449" lon="0.31163">
        <ele>1893.3</ele>
        <time>2026-07-07T08:45:45Z</time>
      </trkpt>
      <trkpt lat="42.97449" lon="0.31163">
        <ele>1893.3</ele>
        <time>2026-07-07T08:45:46Z</time>
      </trkpt>
      <trkpt lat="42.97449" lon="0.31163">
        <ele>1893.3</ele>
        <time>2026-07-07T08:45:47Z</time>
      </trkpt>
      <trkpt lat="42.97449" lon="0.31163">
        <ele>1893.3</ele>
        <time>2026-07-07T08:45:48Z</time>
      </trkpt>
      <trkpt lat="42.97449" lon="0.31163">
        <ele>1893.3</ele>
        <time>2026-07-07T08:45:49Z</time>
      </trkpt>
      <trkpt lat="42.97449" lon="0.31163">
        <ele>1893.3</ele>
        <time>2026-07-07T08:45:50Z</time>
      </trkpt>
      <trkpt lat="42.97449" lon="0.31163">
        <ele>1893.3</ele>
        <time>2026-07-07T08:45:51Z</time>
      </trkpt>
      <trkpt lat="42.97449" lon="0.31163">
        <ele>1893.3</ele>
        <time>2026-07-07T08:45:52Z</time>
      </trkpt>
      <trkpt lat="42.97449" lon="0.31163">
        <ele>1893.3</ele>
        <time>2026-07-07T08:45:53Z</time>
      </trkpt>
      <trkpt lat="42.97449" lon="0.31163">
        <ele>1893.3</ele>
        <time>2026-07-07T08:45:54Z</time>
      </trkpt>
      <trkpt lat="42.97449" lon="0.31163">
        <ele>1893.3</ele>
        <time>2026-07-07T08:45:55Z</time>
      </trkpt>
      <trkpt lat="42.97449" lon="0.31163">
        <ele>1893.3</ele>
        <time>2026-07-07T08:45:56Z</time>
      </trkpt>
      <trkpt lat="42.97449" lon="0.31163">
        <ele>1893.3</ele>
        <time>2026-07-07T08:45:57Z</time>
      </trkpt>
      <trkpt lat="42.97449" lon="0.31163">
        <ele>1893.3</ele>
        <time>2026-07-07T08:45:58Z</time>
      </trkpt>
      <trkpt lat="42.97449" lon="0.31163">
        <ele>1893.3</ele>
        <time>2026-07-07T08:45:59Z</time>
      </trkpt>
      <trkpt lat="42.97449" lon="0.31163">
        <ele>1893.3</ele>
        <time>2026-07-07T08:46:00Z</time>
      </trkpt>
      <trkpt lat="42.97449" lon="0.31163">
        <ele>1893.3</ele>
        <time>2026-07-07T08:46:01Z</time>
      </trkpt>
      <trkpt lat="42.97449" lon="0.31163">
        <ele>1893.3</ele>
        <time>2026-07-07T08:46:02Z</time>
      </trkpt>
      <trkpt lat="42.97449" lon="0.31163">
        <ele>1893.3</ele>
        <time>2026-07-07T08:46:03Z</time>
      </trkpt>
      <trkpt lat="42.97449" lon="0.31163">
        <ele>1893.3</ele>
        <time>2026-07-07T08:46:04Z</time>
      </trkpt>
      <trkpt lat="42.97449" lon="0.31163">
        <ele>1893.3</ele>
        <time>2026-07-07T08:46:05Z</time>
      </trkpt>
      <trkpt lat="42.97449" lon="0.31163">
        <ele>1893.3</ele>
        <time>2026-07-07T08:46:06Z</time>
      </trkpt>
      <trkpt lat="42.97449" lon="0.31163">
        <ele>1893.3</ele>
        <time>2026-07-07T08:46:07Z</time>
      </trkpt>
      <trkpt lat="42.97449" lon="0.31163">
        <ele>1893.3</ele>
        <time>2026-07-07T08:46:08Z</time>
      </trkpt>
      <trkpt lat="42.97449" lon="0.31163">
        <ele>1893.3</ele>
        <time>2026-07-07T08:46:09Z</time>
      </trkpt>
      <trkpt lat="42.97449" lon="0.31163">
        <ele>1893.3</ele>
        <time>2026-07-07T08:46:10Z</time>
      </trkpt>
      <trkpt lat="42.97449" lon="0.31163">
        <ele>1893.3</ele>
        <time>2026-07-07T08:46:11Z</time>
      </trkpt>
      <trkpt lat="42.97449" lon="0.31163">
        <ele>1893.3</ele>
        <time>2026-07-07T08:46:12Z</time>
      </trkpt>
      <trkpt lat="42.97449" lon="0.31163">
        <ele>1893.3</ele>
        <time>2026-07-07T08:46:13Z</time>
      </trkpt>
      <trkpt lat="42.97449" lon="0.31163">
        <ele>1893.3</ele>
        <time>2026-07-07T08:46:14Z</time>
      </trkpt>
      <trkpt lat="42.97449" lon="0.31163">
        <ele>1893.3</ele>
        <time>2026-07-07T08:46:15Z</time>
      </trkpt>
      <trkpt lat="42.97449" lon="0.31163">
        <ele>1893.3</ele>
        <time>2026-07-07T08:46:16Z</time>
      </trkpt>
      <trkpt lat="42.97449" lon="0.31163">
        <ele>1893.3</ele>
        <time>2026-07-07T08:46:17Z</time>
      </trkpt>
      <trkpt lat="42.97449" lon="0.31163">
        <ele>1893.3</ele>
        <time>2026-07-07T08:46:18Z</time>
      </trkpt>
      <trkpt lat="42.97449" lon="0.31163">
        <ele>1893.3</ele>
        <time>2026-07-07T08:46:19Z</time>
      </trkpt>
      <trkpt lat="42.97449" lon="0.31163">
        <ele>1893.3</ele>
        <time>2026-07-07T08:46:20Z</time>
      </trkpt>
      <trkpt lat="42.97449" lon="0.31163">
        <ele>1893.3</ele>
        <time>2026-07-07T08:46:21Z</time>
      </trkpt>
      <trkpt lat="42.97449" lon="0.31163">
        <ele>1893.3</ele>
        <time>2026-07-07T08:46:22Z</time>
      </trkpt>
      <trkpt lat="42.97449" lon="0.31163">
        <ele>1893.3</ele>
        <time>2026-07-07T08:46:23Z</time>
      </trkpt>
      <trkpt lat="42.97449" lon="0.31163">
        <ele>1893.3</ele>
        <time>2026-07-07T08:46:24Z</time>
      </trkpt>
      <trkpt lat="42.97449" lon="0.31163">
        <ele>1893.3</ele>
        <time>2026-07-07T08:46:25Z</time>
      </trkpt>
      <trkpt lat="42.97449" lon="0.31163">
        <ele>1893.3</ele>
        <time>2026-07-07T08:46:26Z</time>
      </trkpt>
      <trkpt lat="42.97449" lon="0.31163">
        <ele>1893.3</ele>
        <time>2026-07-07T08:46:27Z</time>
      </trkpt>
      <trkpt lat="42.97449" lon="0.31163">
        <ele>1893.3</ele>
        <time>2026-07-07T08:46:28Z</time>
      </trkpt>
      <trkpt lat="42.97449" lon="0.31163">
        <ele>1893.3</ele>
        <time>2026-07-07T08:46:29Z</time>
      </trkpt>
      <trkpt lat="42.97449" lon="0.31163">
        <ele>1893.3</ele>
        <time>2026-07-07T08:46:30Z</time>
      </trkpt>
      <trkpt lat="42.97449" lon="0.31163">
        <ele>1893.3</ele>
        <time>2026-07-07T08:46:31Z</time>
      </trkpt>
      <trkpt lat="42.97449" lon="0.31163">
        <ele>1893.3</ele>
        <time>2026-07-07T08:46:32Z</time>
      </trkpt>
      <trkpt lat="42.97449" lon="0.31163">
        <ele>1893.3</ele>
        <time>2026-07-07T08:46:33Z</time>
      </trkpt>
      <trkpt lat="42.97449" lon="0.31163">
        <ele>1893.3</ele>
        <time>2026-07-07T08:46:34Z</time>
      </trkpt>
      <trkpt lat="42.97449" lon="0.31163">
        <ele>1893.3</ele>
        <time>2026-07-07T08:46:35Z</time>
      </trkpt>
      <trkpt lat="42.97449" lon="0.31163">
        <ele>1893.3</ele>
        <time>2026-07-07T08:46:36Z</time>
      </trkpt>
      <trkpt lat="42.97449" lon="0.31163">
        <ele>1893.3</ele>
        <time>2026-07-07T08:46:37Z</time>
      </trkpt>
      <trkpt lat="42.97449" lon="0.31163">
        <ele>1893.3</ele>
        <time>2026-07-07T08:46:38Z</time>
      </trkpt>
      <trkpt lat="42.97449" lon="0.31163">
        <ele>1893.3</ele>
        <time>2026-07-07T08:46:39Z</time>
      </trkpt>
      <trkpt lat="42.97449" lon="0.31163">
        <ele>1893.3</ele>
        <time>2026-07-07T08:46:40Z</time>
      </trkpt>
      <trkpt lat="42.97449" lon="0.31163">
        <ele>1893.3</ele>
        <time>2026-07-07T08:46:41Z</time>
      </trkpt>
      <trkpt lat="42.97449" lon="0.31163">
        <ele>1893.3</ele>
        <time>2026-07-07T08:46:42Z</time>
      </trkpt>
      <trkpt lat="42.97449" lon="0.31163">
        <ele>1893.3</ele>
        <time>2026-07-07T08:46:43Z</time>
      </trkpt>
      <trkpt lat="42.97449" lon="0.31163">
        <ele>1893.3</ele>
        <time>2026-07-07T08:46:44Z</time>
      </trkpt>
      <trkpt lat="42.97449" lon="0.31164">
        <ele>1893.3</ele>
        <time>2026-07-07T08:46:45Z</time>
      </trkpt>
      <trkpt lat="42.97449" lon="0.31164">
        <ele>1893.3</ele>
        <time>2026-07-07T08:46:46Z</time>
      </trkpt>
      <trkpt lat="42.97449" lon="0.31164">
        <ele>1893.3</ele>
        <time>2026-07-07T08:46:47Z</time>
      </trkpt>
      <trkpt lat="42.97449" lon="0.31164">
        <ele>1893.3</ele>
        <time>2026-07-07T08:46:48Z</time>
      </trkpt>
      <trkpt lat="42.97449" lon="0.31164">
        <ele>1893.3</ele>
        <time>2026-07-07T08:46:49Z</time>
      </trkpt>
      <trkpt lat="42.97449" lon="0.31164">
        <ele>1893.3</ele>
        <time>2026-07-07T08:46:50Z</time>
      </trkpt>
      <trkpt lat="42.97448" lon="0.31164">
        <ele>1896.3</ele>
        <time>2026-07-07T08:46:51Z</time>
      </trkpt>
      <trkpt lat="42.97448" lon="0.31164">
        <ele>1896.3</ele>
        <time>2026-07-07T08:46:52Z</time>
      </trkpt>
      <trkpt lat="42.97448" lon="0.31164">
        <ele>1896.3</ele>
        <time>2026-07-07T08:46:53Z</time>
      </trkpt>
      <trkpt lat="42.97448" lon="0.31164">
        <ele>1896.3</ele>
        <time>2026-07-07T08:46:54Z</time>
      </trkpt>
      <trkpt lat="42.97448" lon="0.31164">
        <ele>1896.3</ele>
        <time>2026-07-07T08:46:55Z</time>
      </trkpt>
      <trkpt lat="42.97448" lon="0.31164">
        <ele>1896.3</ele>
        <time>2026-07-07T08:46:56Z</time>
      </trkpt>
      <trkpt lat="42.97448" lon="0.31164">
        <ele>1896.3</ele>
        <time>2026-07-07T08:46:57Z</time>
      </trkpt>
      <trkpt lat="42.97448" lon="0.31164">
        <ele>1896.3</ele>
        <time>2026-07-07T08:46:58Z</time>
      </trkpt>
      <trkpt lat="42.97448" lon="0.31163">
        <ele>1897.3</ele>
        <time>2026-07-07T08:46:59Z</time>
      </trkpt>
      <trkpt lat="42.97448" lon="0.31163">
        <ele>1897.3</ele>
        <time>2026-07-07T08:47:00Z</time>
      </trkpt>
      <trkpt lat="42.97448" lon="0.31163">
        <ele>1897.3</ele>
        <time>2026-07-07T08:47:01Z</time>
      </trkpt>
      <trkpt lat="42.97448" lon="0.31163">
        <ele>1897.3</ele>
        <time>2026-07-07T08:47:02Z</time>
      </trkpt>
      <trkpt lat="42.97448" lon="0.31163">
        <ele>1897.3</ele>
        <time>2026-07-07T08:47:03Z</time>
      </trkpt>
      <trkpt lat="42.97448" lon="0.31163">
        <ele>1897.3</ele>
        <time>2026-07-07T08:47:04Z</time>
      </trkpt>
      <trkpt lat="42.97448" lon="0.31163">
        <ele>1897.3</ele>
        <time>2026-07-07T08:47:05Z</time>
      </trkpt>
      <trkpt lat="42.97448" lon="0.31163">
        <ele>1897.3</ele>
        <time>2026-07-07T08:47:06Z</time>
      </trkpt>
      <trkpt lat="42.97448" lon="0.31163">
        <ele>1897.3</ele>
        <time>2026-07-07T08:47:07Z</time>
      </trkpt>
      <trkpt lat="42.97448" lon="0.31163">
        <ele>1897.3</ele>
        <time>2026-07-07T08:47:08Z</time>
      </trkpt>
      <trkpt lat="42.97448" lon="0.31163">
        <ele>1897.3</ele>
        <time>2026-07-07T08:47:09Z</time>
      </trkpt>
      <trkpt lat="42.97448" lon="0.31163">
        <ele>1897.3</ele>
        <time>2026-07-07T08:47:10Z</time>
      </trkpt>
      <trkpt lat="42.97448" lon="0.31163">
        <ele>1897.3</ele>
        <time>2026-07-07T08:47:11Z</time>
      </trkpt>
      <trkpt lat="42.97448" lon="0.31163">
        <ele>1897.3</ele>
        <time>2026-07-07T08:47:12Z</time>
      </trkpt>
      <trkpt lat="42.97448" lon="0.31163">
        <ele>1897.3</ele>
        <time>2026-07-07T08:47:13Z</time>
      </trkpt>
      <trkpt lat="42.97448" lon="0.31163">
        <ele>1897.3</ele>
        <time>2026-07-07T08:47:14Z</time>
      </trkpt>
      <trkpt lat="42.97448" lon="0.31163">
        <ele>1897.3</ele>
        <time>2026-07-07T08:47:15Z</time>
      </trkpt>
      <trkpt lat="42.97448" lon="0.31163">
        <ele>1897.3</ele>
        <time>2026-07-07T08:47:16Z</time>
      </trkpt>
      <trkpt lat="42.97448" lon="0.31163">
        <ele>1897.3</ele>
        <time>2026-07-07T08:47:17Z</time>
      </trkpt>
      <trkpt lat="42.97448" lon="0.31163">
        <ele>1897.3</ele>
        <time>2026-07-07T08:47:18Z</time>
      </trkpt>
      <trkpt lat="42.97448" lon="0.31163">
        <ele>1897.3</ele>
        <time>2026-07-07T08:47:19Z</time>
      </trkpt>
      <trkpt lat="42.97448" lon="0.31163">
        <ele>1897.3</ele>
        <time>2026-07-07T08:47:20Z</time>
      </trkpt>
      <trkpt lat="42.97447" lon="0.31163">
        <ele>1898.3</ele>
        <time>2026-07-07T08:47:21Z</time>
      </trkpt>
      <trkpt lat="42.97447" lon="0.31163">
        <ele>1897.3</ele>
        <time>2026-07-07T08:47:22Z</time>
      </trkpt>
      <trkpt lat="42.97447" lon="0.31163">
        <ele>1897.3</ele>
        <time>2026-07-07T08:47:23Z</time>
      </trkpt>
      <trkpt lat="42.97447" lon="0.31161">
        <ele>1897.3</ele>
        <time>2026-07-07T08:47:24Z</time>
      </trkpt>
      <trkpt lat="42.97448" lon="0.3116">
        <ele>1898.3</ele>
        <time>2026-07-07T08:47:25Z</time>
      </trkpt>
      <trkpt lat="42.97449" lon="0.31159">
        <ele>1898.3</ele>
        <time>2026-07-07T08:47:26Z</time>
      </trkpt>
      <trkpt lat="42.97449" lon="0.31158">
        <ele>1898.3</ele>
        <time>2026-07-07T08:47:27Z</time>
      </trkpt>
      <trkpt lat="42.9745" lon="0.31157">
        <ele>1898.3</ele>
        <time>2026-07-07T08:47:28Z</time>
      </trkpt>
      <trkpt lat="42.97449" lon="0.31157">
        <ele>1897.3</ele>
        <time>2026-07-07T08:47:29Z</time>
      </trkpt>
      <trkpt lat="42.97449" lon="0.31157">
        <ele>1897.3</ele>
        <time>2026-07-07T08:47:30Z</time>
      </trkpt>
      <trkpt lat="42.97449" lon="0.31156">
        <ele>1896.3</ele>
        <time>2026-07-07T08:47:31Z</time>
      </trkpt>
      <trkpt lat="42.97449" lon="0.31155">
        <ele>1895.3</ele>
        <time>2026-07-07T08:47:32Z</time>
      </trkpt>
      <trkpt lat="42.97449" lon="0.31155">
        <ele>1896.3</ele>
        <time>2026-07-07T08:47:33Z</time>
      </trkpt>
      <trkpt lat="42.97449" lon="0.31155">
        <ele>1896.3</ele>
        <time>2026-07-07T08:47:34Z</time>
      </trkpt>
      <trkpt lat="42.9745" lon="0.31154">
        <ele>1895.3</ele>
        <time>2026-07-07T08:47:35Z</time>
      </trkpt>
      <trkpt lat="42.9745" lon="0.31153">
        <ele>1895.3</ele>
        <time>2026-07-07T08:47:36Z</time>
      </trkpt>
      <trkpt lat="42.9745" lon="0.31153">
        <ele>1896.3</ele>
        <time>2026-07-07T08:47:37Z</time>
      </trkpt>
      <trkpt lat="42.9745" lon="0.31153">
        <ele>1895.3</ele>
        <time>2026-07-07T08:47:38Z</time>
      </trkpt>
      <trkpt lat="42.9745" lon="0.31152">
        <ele>1896.3</ele>
        <time>2026-07-07T08:47:39Z</time>
      </trkpt>
      <trkpt lat="42.9745" lon="0.31152">
        <ele>1895.3</ele>
        <time>2026-07-07T08:47:40Z</time>
      </trkpt>
      <trkpt lat="42.9745" lon="0.31151">
        <ele>1895.3</ele>
        <time>2026-07-07T08:47:41Z</time>
      </trkpt>
      <trkpt lat="42.97451" lon="0.3115">
        <ele>1895.3</ele>
        <time>2026-07-07T08:47:42Z</time>
      </trkpt>
      <trkpt lat="42.97451" lon="0.31149">
        <ele>1895.3</ele>
        <time>2026-07-07T08:47:43Z</time>
      </trkpt>
      <trkpt lat="42.97452" lon="0.31149">
        <ele>1895.3</ele>
        <time>2026-07-07T08:47:44Z</time>
      </trkpt>
      <trkpt lat="42.97453" lon="0.31148">
        <ele>1894.3</ele>
        <time>2026-07-07T08:47:45Z</time>
      </trkpt>
      <trkpt lat="42.97453" lon="0.31146">
        <ele>1894.3</ele>
        <time>2026-07-07T08:47:46Z</time>
      </trkpt>
      <trkpt lat="42.97453" lon="0.31146">
        <ele>1894.3</ele>
        <time>2026-07-07T08:47:47Z</time>
      </trkpt>
      <trkpt lat="42.97453" lon="0.31146">
        <ele>1893.3</ele>
        <time>2026-07-07T08:47:47Z</time>
      </trkpt>
      <trkpt lat="42.97453" lon="0.31145">
        <ele>1893.3</ele>
        <time>2026-07-07T08:47:48Z</time>
      </trkpt>
      <trkpt lat="42.97454" lon="0.31144">
        <ele>1893.3</ele>
        <time>2026-07-07T08:47:49Z</time>
      </trkpt>
      <trkpt lat="42.97454" lon="0.31144">
        <ele>1893.3</ele>
        <time>2026-07-07T08:47:49Z</time>
      </trkpt>
      <trkpt lat="42.97455" lon="0.31143">
        <ele>1893.3</ele>
        <time>2026-07-07T08:47:50Z</time>
      </trkpt>
      <trkpt lat="42.97455" lon="0.31143">
        <ele>1893.3</ele>
        <time>2026-07-07T08:47:51Z</time>
      </trkpt>
      <trkpt lat="42.97456" lon="0.31142">
        <ele>1892.3</ele>
        <time>2026-07-07T08:47:52Z</time>
      </trkpt>
      <trkpt lat="42.97456" lon="0.31142">
        <ele>1892.3</ele>
        <time>2026-07-07T08:47:53Z</time>
      </trkpt>
      <trkpt lat="42.97457" lon="0.31141">
        <ele>1893.3</ele>
        <time>2026-07-07T08:47:53Z</time>
      </trkpt>
      <trkpt lat="42.97457" lon="0.3114">
        <ele>1893.3</ele>
        <time>2026-07-07T08:47:54Z</time>
      </trkpt>
      <trkpt lat="42.97456" lon="0.3114">
        <ele>1893.3</ele>
        <time>2026-07-07T08:47:55Z</time>
      </trkpt>
      <trkpt lat="42.97456" lon="0.3114">
        <ele>1893.3</ele>
        <time>2026-07-07T08:47:56Z</time>
      </trkpt>
      <trkpt lat="42.97456" lon="0.31139">
        <ele>1892.3</ele>
        <time>2026-07-07T08:47:56Z</time>
      </trkpt>
      <trkpt lat="42.97456" lon="0.31139">
        <ele>1892.3</ele>
        <time>2026-07-07T08:47:57Z</time>
      </trkpt>
      <trkpt lat="42.97457" lon="0.31138">
        <ele>1893.3</ele>
        <time>2026-07-07T08:47:58Z</time>
      </trkpt>
      <trkpt lat="42.97457" lon="0.31138">
        <ele>1892.3</ele>
        <time>2026-07-07T08:47:59Z</time>
      </trkpt>
      <trkpt lat="42.97458" lon="0.31138">
        <ele>1892.3</ele>
        <time>2026-07-07T08:47:59Z</time>
      </trkpt>
      <trkpt lat="42.97459" lon="0.31137">
        <ele>1892.3</ele>
        <time>2026-07-07T08:48:00Z</time>
      </trkpt>
      <trkpt lat="42.97459" lon="0.31137">
        <ele>1892.3</ele>
        <time>2026-07-07T08:48:01Z</time>
      </trkpt>
      <trkpt lat="42.9746" lon="0.31136">
        <ele>1892.3</ele>
        <time>2026-07-07T08:48:02Z</time>
      </trkpt>
      <trkpt lat="42.9746" lon="0.31135">
        <ele>1892.3</ele>
        <time>2026-07-07T08:48:03Z</time>
      </trkpt>
      <trkpt lat="42.9746" lon="0.31135">
        <ele>1891.3</ele>
        <time>2026-07-07T08:48:03Z</time>
      </trkpt>
      <trkpt lat="42.97461" lon="0.31135">
        <ele>1891.3</ele>
        <time>2026-07-07T08:48:04Z</time>
      </trkpt>
      <trkpt lat="42.97461" lon="0.31135">
        <ele>1891.3</ele>
        <time>2026-07-07T08:48:04Z</time>
      </trkpt>
      <trkpt lat="42.97461" lon="0.31135">
        <ele>1891.3</ele>
        <time>2026-07-07T08:48:05Z</time>
      </trkpt>
      <trkpt lat="42.97462" lon="0.31134">
        <ele>1891.3</ele>
        <time>2026-07-07T08:48:06Z</time>
      </trkpt>
      <trkpt lat="42.97463" lon="0.31134">
        <ele>1890.3</ele>
        <time>2026-07-07T08:48:07Z</time>
      </trkpt>
      <trkpt lat="42.97463" lon="0.31133">
        <ele>1891.3</ele>
        <time>2026-07-07T08:48:08Z</time>
      </trkpt>
      <trkpt lat="42.97463" lon="0.31132">
        <ele>1890.3</ele>
        <time>2026-07-07T08:48:09Z</time>
      </trkpt>
      <trkpt lat="42.97463" lon="0.31131">
        <ele>1889.3</ele>
        <time>2026-07-07T08:48:09Z</time>
      </trkpt>
      <trkpt lat="42.97463" lon="0.31131">
        <ele>1889.3</ele>
        <time>2026-07-07T08:48:10Z</time>
      </trkpt>
      <trkpt lat="42.97463" lon="0.31129">
        <ele>1889.3</ele>
        <time>2026-07-07T08:48:11Z</time>
      </trkpt>
      <trkpt lat="42.97463" lon="0.31128">
        <ele>1889.3</ele>
        <time>2026-07-07T08:48:12Z</time>
      </trkpt>
      <trkpt lat="42.97463" lon="0.31128">
        <ele>1889.3</ele>
        <time>2026-07-07T08:48:12Z</time>
      </trkpt>
      <trkpt lat="42.97463" lon="0.31127">
        <ele>1889.3</ele>
        <time>2026-07-07T08:48:13Z</time>
      </trkpt>
      <trkpt lat="42.97463" lon="0.31126">
        <ele>1889.3</ele>
        <time>2026-07-07T08:48:14Z</time>
      </trkpt>
      <trkpt lat="42.97463" lon="0.31125">
        <ele>1889.3</ele>
        <time>2026-07-07T08:48:14Z</time>
      </trkpt>
      <trkpt lat="42.97464" lon="0.31125">
        <ele>1889.3</ele>
        <time>2026-07-07T08:48:15Z</time>
      </trkpt>
      <trkpt lat="42.97464" lon="0.31124">
        <ele>1889.3</ele>
        <time>2026-07-07T08:48:16Z</time>
      </trkpt>
      <trkpt lat="42.97464" lon="0.31124">
        <ele>1889.3</ele>
        <time>2026-07-07T08:48:16Z</time>
      </trkpt>
      <trkpt lat="42.97464" lon="0.31123">
        <ele>1889.3</ele>
        <time>2026-07-07T08:48:17Z</time>
      </trkpt>
      <trkpt lat="42.97465" lon="0.31122">
        <ele>1889.3</ele>
        <time>2026-07-07T08:48:17Z</time>
      </trkpt>
      <trkpt lat="42.97465" lon="0.31122">
        <ele>1888.3</ele>
        <time>2026-07-07T08:48:18Z</time>
      </trkpt>
      <trkpt lat="42.97466" lon="0.31122">
        <ele>1888.3</ele>
        <time>2026-07-07T08:48:18Z</time>
      </trkpt>
      <trkpt lat="42.97466" lon="0.31121">
        <ele>1888.3</ele>
        <time>2026-07-07T08:48:19Z</time>
      </trkpt>
      <trkpt lat="42.97466" lon="0.3112">
        <ele>1888.3</ele>
        <time>2026-07-07T08:48:20Z</time>
      </trkpt>
      <trkpt lat="42.97467" lon="0.31119">
        <ele>1888.3</ele>
        <time>2026-07-07T08:48:21Z</time>
      </trkpt>
      <trkpt lat="42.97467" lon="0.31118">
        <ele>1888.3</ele>
        <time>2026-07-07T08:48:21Z</time>
      </trkpt>
      <trkpt lat="42.97468" lon="0.31118">
        <ele>1888.3</ele>
        <time>2026-07-07T08:48:22Z</time>
      </trkpt>
      <trkpt lat="42.97468" lon="0.31118">
        <ele>1888.3</ele>
        <time>2026-07-07T08:48:22Z</time>
      </trkpt>
      <trkpt lat="42.97469" lon="0.31117">
        <ele>1888.3</ele>
        <time>2026-07-07T08:48:23Z</time>
      </trkpt>
      <trkpt lat="42.97469" lon="0.31116">
        <ele>1888.3</ele>
        <time>2026-07-07T08:48:23Z</time>
      </trkpt>
      <trkpt lat="42.97469" lon="0.31116">
        <ele>1888.3</ele>
        <time>2026-07-07T08:48:24Z</time>
      </trkpt>
      <trkpt lat="42.9747" lon="0.31115">
        <ele>1887.3</ele>
        <time>2026-07-07T08:48:25Z</time>
      </trkpt>
      <trkpt lat="42.9747" lon="0.31115">
        <ele>1887.3</ele>
        <time>2026-07-07T08:48:25Z</time>
      </trkpt>
      <trkpt lat="42.97471" lon="0.31114">
        <ele>1887.3</ele>
        <time>2026-07-07T08:48:26Z</time>
      </trkpt>
      <trkpt lat="42.97471" lon="0.31114">
        <ele>1886.3</ele>
        <time>2026-07-07T08:48:26Z</time>
      </trkpt>
      <trkpt lat="42.97472" lon="0.31113">
        <ele>1886.3</ele>
        <time>2026-07-07T08:48:27Z</time>
      </trkpt>
      <trkpt lat="42.97473" lon="0.31113">
        <ele>1886.3</ele>
        <time>2026-07-07T08:48:28Z</time>
      </trkpt>
      <trkpt lat="42.97473" lon="0.31113">
        <ele>1886.3</ele>
        <time>2026-07-07T08:48:28Z</time>
      </trkpt>
      <trkpt lat="42.97474" lon="0.31112">
        <ele>1886.3</ele>
        <time>2026-07-07T08:48:29Z</time>
      </trkpt>
      <trkpt lat="42.97474" lon="0.31112">
        <ele>1886.3</ele>
        <time>2026-07-07T08:48:29Z</time>
      </trkpt>
      <trkpt lat="42.97475" lon="0.31112">
        <ele>1886.3</ele>
        <time>2026-07-07T08:48:30Z</time>
      </trkpt>
      <trkpt lat="42.97475" lon="0.31111">
        <ele>1886.3</ele>
        <time>2026-07-07T08:48:30Z</time>
      </trkpt>
      <trkpt lat="42.97476" lon="0.31111">
        <ele>1886.3</ele>
        <time>2026-07-07T08:48:31Z</time>
      </trkpt>
      <trkpt lat="42.97476" lon="0.31111">
        <ele>1887.3</ele>
        <time>2026-07-07T08:48:32Z</time>
      </trkpt>
      <trkpt lat="42.97477" lon="0.3111">
        <ele>1887.3</ele>
        <time>2026-07-07T08:48:32Z</time>
      </trkpt>
      <trkpt lat="42.97477" lon="0.3111">
        <ele>1886.3</ele>
        <time>2026-07-07T08:48:33Z</time>
      </trkpt>
      <trkpt lat="42.97477" lon="0.3111">
        <ele>1886.3</ele>
        <time>2026-07-07T08:48:33Z</time>
      </trkpt>
      <trkpt lat="42.97478" lon="0.31109">
        <ele>1886.3</ele>
        <time>2026-07-07T08:48:34Z</time>
      </trkpt>
      <trkpt lat="42.97479" lon="0.31108">
        <ele>1886.3</ele>
        <time>2026-07-07T08:48:35Z</time>
      </trkpt>
      <trkpt lat="42.97479" lon="0.31107">
        <ele>1886.3</ele>
        <time>2026-07-07T08:48:36Z</time>
      </trkpt>
      <trkpt lat="42.9748" lon="0.31106">
        <ele>1886.3</ele>
        <time>2026-07-07T08:48:37Z</time>
      </trkpt>
      <trkpt lat="42.9748" lon="0.31106">
        <ele>1887.3</ele>
        <time>2026-07-07T08:48:38Z</time>
      </trkpt>
      <trkpt lat="42.97481" lon="0.31105">
        <ele>1887.3</ele>
        <time>2026-07-07T08:48:38Z</time>
      </trkpt>
      <trkpt lat="42.97481" lon="0.31104">
        <ele>1886.3</ele>
        <time>2026-07-07T08:48:39Z</time>
      </trkpt>
      <trkpt lat="42.97481" lon="0.31103">
        <ele>1886.3</ele>
        <time>2026-07-07T08:48:40Z</time>
      </trkpt>
      <trkpt lat="42.97481" lon="0.31102">
        <ele>1885.3</ele>
        <time>2026-07-07T08:48:41Z</time>
      </trkpt>
      <trkpt lat="42.97481" lon="0.31102">
        <ele>1885.3</ele>
        <time>2026-07-07T08:48:41Z</time>
      </trkpt>
      <trkpt lat="42.97482" lon="0.31101">
        <ele>1885.3</ele>
        <time>2026-07-07T08:48:42Z</time>
      </trkpt>
      <trkpt lat="42.97482" lon="0.311">
        <ele>1885.3</ele>
        <time>2026-07-07T08:48:42Z</time>
      </trkpt>
      <trkpt lat="42.97482" lon="0.31099">
        <ele>1885.3</ele>
        <time>2026-07-07T08:48:43Z</time>
      </trkpt>
      <trkpt lat="42.97482" lon="0.31099">
        <ele>1885.3</ele>
        <time>2026-07-07T08:48:43Z</time>
      </trkpt>
      <trkpt lat="42.97482" lon="0.31098">
        <ele>1885.3</ele>
        <time>2026-07-07T08:48:44Z</time>
      </trkpt>
      <trkpt lat="42.97483" lon="0.31097">
        <ele>1885.3</ele>
        <time>2026-07-07T08:48:45Z</time>
      </trkpt>
      <trkpt lat="42.97483" lon="0.31097">
        <ele>1885.3</ele>
        <time>2026-07-07T08:48:45Z</time>
      </trkpt>
      <trkpt lat="42.97483" lon="0.31096">
        <ele>1885.3</ele>
        <time>2026-07-07T08:48:46Z</time>
      </trkpt>
      <trkpt lat="42.97483" lon="0.31095">
        <ele>1885.3</ele>
        <time>2026-07-07T08:48:46Z</time>
      </trkpt>
      <trkpt lat="42.97483" lon="0.31094">
        <ele>1885.3</ele>
        <time>2026-07-07T08:48:47Z</time>
      </trkpt>
      <trkpt lat="42.97483" lon="0.31094">
        <ele>1885.3</ele>
        <time>2026-07-07T08:48:48Z</time>
      </trkpt>
      <trkpt lat="42.97484" lon="0.31093">
        <ele>1885.3</ele>
        <time>2026-07-07T08:48:48Z</time>
      </trkpt>
      <trkpt lat="42.97484" lon="0.31093">
        <ele>1885.3</ele>
        <time>2026-07-07T08:48:49Z</time>
      </trkpt>
      <trkpt lat="42.97484" lon="0.31092">
        <ele>1885.3</ele>
        <time>2026-07-07T08:48:49Z</time>
      </trkpt>
      <trkpt lat="42.97484" lon="0.31092">
        <ele>1885.3</ele>
        <time>2026-07-07T08:48:50Z</time>
      </trkpt>
      <trkpt lat="42.97485" lon="0.31091">
        <ele>1884.3</ele>
        <time>2026-07-07T08:48:51Z</time>
      </trkpt>
      <trkpt lat="42.97485" lon="0.3109">
        <ele>1884.3</ele>
        <time>2026-07-07T08:48:52Z</time>
      </trkpt>
      <trkpt lat="42.97486" lon="0.3109">
        <ele>1884.3</ele>
        <time>2026-07-07T08:48:52Z</time>
      </trkpt>
      <trkpt lat="42.97486" lon="0.31089">
        <ele>1883.3</ele>
        <time>2026-07-07T08:48:53Z</time>
      </trkpt>
      <trkpt lat="42.97486" lon="0.31088">
        <ele>1883.3</ele>
        <time>2026-07-07T08:48:53Z</time>
      </trkpt>
      <trkpt lat="42.97487" lon="0.31088">
        <ele>1883.3</ele>
        <time>2026-07-07T08:48:54Z</time>
      </trkpt>
      <trkpt lat="42.97487" lon="0.31087">
        <ele>1884.3</ele>
        <time>2026-07-07T08:48:55Z</time>
      </trkpt>
      <trkpt lat="42.97487" lon="0.31086">
        <ele>1884.3</ele>
        <time>2026-07-07T08:48:55Z</time>
      </trkpt>
      <trkpt lat="42.97488" lon="0.31086">
        <ele>1883.3</ele>
        <time>2026-07-07T08:48:56Z</time>
      </trkpt>
      <trkpt lat="42.97488" lon="0.31085">
        <ele>1882.3</ele>
        <time>2026-07-07T08:48:56Z</time>
      </trkpt>
      <trkpt lat="42.97488" lon="0.31085">
        <ele>1882.3</ele>
        <time>2026-07-07T08:48:57Z</time>
      </trkpt>
      <trkpt lat="42.97488" lon="0.31084">
        <ele>1882.3</ele>
        <time>2026-07-07T08:48:58Z</time>
      </trkpt>
      <trkpt lat="42.97488" lon="0.31083">
        <ele>1882.3</ele>
        <time>2026-07-07T08:48:58Z</time>
      </trkpt>
      <trkpt lat="42.97488" lon="0.31083">
        <ele>1882.3</ele>
        <time>2026-07-07T08:48:59Z</time>
      </trkpt>
      <trkpt lat="42.97488" lon="0.31082">
        <ele>1882.3</ele>
        <time>2026-07-07T08:48:59Z</time>
      </trkpt>
      <trkpt lat="42.97488" lon="0.31081">
        <ele>1881.3</ele>
        <time>2026-07-07T08:49:00Z</time>
      </trkpt>
      <trkpt lat="42.97488" lon="0.31081">
        <ele>1881.3</ele>
        <time>2026-07-07T08:49:00Z</time>
      </trkpt>
      <trkpt lat="42.97488" lon="0.3108">
        <ele>1881.3</ele>
        <time>2026-07-07T08:49:01Z</time>
      </trkpt>
      <trkpt lat="42.97488" lon="0.31079">
        <ele>1881.3</ele>
        <time>2026-07-07T08:49:01Z</time>
      </trkpt>
      <trkpt lat="42.97488" lon="0.31078">
        <ele>1881.3</ele>
        <time>2026-07-07T08:49:02Z</time>
      </trkpt>
      <trkpt lat="42.97488" lon="0.31078">
        <ele>1881.3</ele>
        <time>2026-07-07T08:49:03Z</time>
      </trkpt>
      <trkpt lat="42.97488" lon="0.31077">
        <ele>1881.3</ele>
        <time>2026-07-07T08:49:03Z</time>
      </trkpt>
      <trkpt lat="42.97488" lon="0.31076">
        <ele>1880.3</ele>
        <time>2026-07-07T08:49:04Z</time>
      </trkpt>
      <trkpt lat="42.97488" lon="0.31076">
        <ele>1880.3</ele>
        <time>2026-07-07T08:49:04Z</time>
      </trkpt>
      <trkpt lat="42.97488" lon="0.31075">
        <ele>1880.3</ele>
        <time>2026-07-07T08:49:05Z</time>
      </trkpt>
      <trkpt lat="42.97488" lon="0.31074">
        <ele>1880.3</ele>
        <time>2026-07-07T08:49:05Z</time>
      </trkpt>
      <trkpt lat="42.97488" lon="0.31073">
        <ele>1880.3</ele>
        <time>2026-07-07T08:49:06Z</time>
      </trkpt>
      <trkpt lat="42.97489" lon="0.31073">
        <ele>1880.3</ele>
        <time>2026-07-07T08:49:07Z</time>
      </trkpt>
      <trkpt lat="42.97489" lon="0.31072">
        <ele>1880.3</ele>
        <time>2026-07-07T08:49:07Z</time>
      </trkpt>
      <trkpt lat="42.97489" lon="0.31071">
        <ele>1880.3</ele>
        <time>2026-07-07T08:49:08Z</time>
      </trkpt>
      <trkpt lat="42.9749" lon="0.31071">
        <ele>1880.3</ele>
        <time>2026-07-07T08:49:09Z</time>
      </trkpt>
      <trkpt lat="42.9749" lon="0.31071">
        <ele>1880.3</ele>
        <time>2026-07-07T08:49:09Z</time>
      </trkpt>
      <trkpt lat="42.97491" lon="0.3107">
        <ele>1880.3</ele>
        <time>2026-07-07T08:49:10Z</time>
      </trkpt>
      <trkpt lat="42.97491" lon="0.3107">
        <ele>1880.3</ele>
        <time>2026-07-07T08:49:10Z</time>
      </trkpt>
      <trkpt lat="42.97492" lon="0.31069">
        <ele>1880.3</ele>
        <time>2026-07-07T08:49:11Z</time>
      </trkpt>
      <trkpt lat="42.97492" lon="0.31069">
        <ele>1879.3</ele>
        <time>2026-07-07T08:49:12Z</time>
      </trkpt>
      <trkpt lat="42.97492" lon="0.31068">
        <ele>1879.3</ele>
        <time>2026-07-07T08:49:12Z</time>
      </trkpt>
      <trkpt lat="42.97492" lon="0.31068">
        <ele>1880.3</ele>
        <time>2026-07-07T08:49:13Z</time>
      </trkpt>
      <trkpt lat="42.97492" lon="0.31067">
        <ele>1880.3</ele>
        <time>2026-07-07T08:49:13Z</time>
      </trkpt>
      <trkpt lat="42.97492" lon="0.31067">
        <ele>1880.3</ele>
        <time>2026-07-07T08:49:14Z</time>
      </trkpt>
      <trkpt lat="42.97492" lon="0.31066">
        <ele>1880.3</ele>
        <time>2026-07-07T08:49:15Z</time>
      </trkpt>
      <trkpt lat="42.97492" lon="0.31065">
        <ele>1879.3</ele>
        <time>2026-07-07T08:49:16Z</time>
      </trkpt>
      <trkpt lat="42.97493" lon="0.31065">
        <ele>1879.3</ele>
        <time>2026-07-07T08:49:16Z</time>
      </trkpt>
      <trkpt lat="42.97493" lon="0.31065">
        <ele>1879.3</ele>
        <time>2026-07-07T08:49:17Z</time>
      </trkpt>
      <trkpt lat="42.97493" lon="0.31065">
        <ele>1878.3</ele>
        <time>2026-07-07T08:49:17Z</time>
      </trkpt>
      <trkpt lat="42.97493" lon="0.31064">
        <ele>1878.3</ele>
        <time>2026-07-07T08:49:18Z</time>
      </trkpt>
      <trkpt lat="42.97493" lon="0.31063">
        <ele>1878.3</ele>
        <time>2026-07-07T08:49:19Z</time>
      </trkpt>
      <trkpt lat="42.97493" lon="0.31062">
        <ele>1878.3</ele>
        <time>2026-07-07T08:49:19Z</time>
      </trkpt>
      <trkpt lat="42.97493" lon="0.31062">
        <ele>1878.3</ele>
        <time>2026-07-07T08:49:20Z</time>
      </trkpt>
      <trkpt lat="42.97493" lon="0.31061">
        <ele>1878.3</ele>
        <time>2026-07-07T08:49:20Z</time>
      </trkpt>
      <trkpt lat="42.97493" lon="0.3106">
        <ele>1878.3</ele>
        <time>2026-07-07T08:49:21Z</time>
      </trkpt>
      <trkpt lat="42.97493" lon="0.3106">
        <ele>1877.3</ele>
        <time>2026-07-07T08:49:21Z</time>
      </trkpt>
      <trkpt lat="42.97493" lon="0.31059">
        <ele>1877.3</ele>
        <time>2026-07-07T08:49:22Z</time>
      </trkpt>
      <trkpt lat="42.97493" lon="0.31059">
        <ele>1877.3</ele>
        <time>2026-07-07T08:49:22Z</time>
      </trkpt>
      <trkpt lat="42.97493" lon="0.31058">
        <ele>1877.3</ele>
        <time>2026-07-07T08:49:23Z</time>
      </trkpt>
      <trkpt lat="42.97494" lon="0.31057">
        <ele>1877.3</ele>
        <time>2026-07-07T08:49:24Z</time>
      </trkpt>
      <trkpt lat="42.97494" lon="0.31056">
        <ele>1877.3</ele>
        <time>2026-07-07T08:49:24Z</time>
      </trkpt>
      <trkpt lat="42.97494" lon="0.31056">
        <ele>1877.3</ele>
        <time>2026-07-07T08:49:25Z</time>
      </trkpt>
      <trkpt lat="42.97494" lon="0.31056">
        <ele>1876.3</ele>
        <time>2026-07-07T08:49:25Z</time>
      </trkpt>
      <trkpt lat="42.97495" lon="0.31055">
        <ele>1876.3</ele>
        <time>2026-07-07T08:49:26Z</time>
      </trkpt>
      <trkpt lat="42.97495" lon="0.31054">
        <ele>1876.3</ele>
        <time>2026-07-07T08:49:27Z</time>
      </trkpt>
      <trkpt lat="42.97495" lon="0.31054">
        <ele>1876.3</ele>
        <time>2026-07-07T08:49:27Z</time>
      </trkpt>
      <trkpt lat="42.97495" lon="0.31053">
        <ele>1876.3</ele>
        <time>2026-07-07T08:49:28Z</time>
      </trkpt>
      <trkpt lat="42.97495" lon="0.31053">
        <ele>1876.3</ele>
        <time>2026-07-07T08:49:28Z</time>
      </trkpt>
      <trkpt lat="42.97495" lon="0.31052">
        <ele>1876.3</ele>
        <time>2026-07-07T08:49:29Z</time>
      </trkpt>
      <trkpt lat="42.97495" lon="0.31051">
        <ele>1875.3</ele>
        <time>2026-07-07T08:49:30Z</time>
      </trkpt>
      <trkpt lat="42.97495" lon="0.31051">
        <ele>1875.3</ele>
        <time>2026-07-07T08:49:30Z</time>
      </trkpt>
      <trkpt lat="42.97495" lon="0.3105">
        <ele>1875.3</ele>
        <time>2026-07-07T08:49:31Z</time>
      </trkpt>
      <trkpt lat="42.97496" lon="0.31049">
        <ele>1875.3</ele>
        <time>2026-07-07T08:49:31Z</time>
      </trkpt>
      <trkpt lat="42.97496" lon="0.31049">
        <ele>1875.3</ele>
        <time>2026-07-07T08:49:32Z</time>
      </trkpt>
      <trkpt lat="42.97496" lon="0.31048">
        <ele>1874.3</ele>
        <time>2026-07-07T08:49:32Z</time>
      </trkpt>
      <trkpt lat="42.97496" lon="0.31047">
        <ele>1874.3</ele>
        <time>2026-07-07T08:49:33Z</time>
      </trkpt>
      <trkpt lat="42.97496" lon="0.31046">
        <ele>1874.3</ele>
        <time>2026-07-07T08:49:33Z</time>
      </trkpt>
      <trkpt lat="42.97496" lon="0.31045">
        <ele>1874.3</ele>
        <time>2026-07-07T08:49:34Z</time>
      </trkpt>
      <trkpt lat="42.97496" lon="0.31044">
        <ele>1873.3</ele>
        <time>2026-07-07T08:49:35Z</time>
      </trkpt>
      <trkpt lat="42.97496" lon="0.31044">
        <ele>1872.3</ele>
        <time>2026-07-07T08:49:35Z</time>
      </trkpt>
      <trkpt lat="42.97496" lon="0.31043">
        <ele>1872.3</ele>
        <time>2026-07-07T08:49:36Z</time>
      </trkpt>
      <trkpt lat="42.97496" lon="0.31042">
        <ele>1873.3</ele>
        <time>2026-07-07T08:49:36Z</time>
      </trkpt>
      <trkpt lat="42.97496" lon="0.31042">
        <ele>1873.3</ele>
        <time>2026-07-07T08:49:37Z</time>
      </trkpt>
      <trkpt lat="42.97496" lon="0.31041">
        <ele>1872.3</ele>
        <time>2026-07-07T08:49:38Z</time>
      </trkpt>
      <trkpt lat="42.97496" lon="0.31041">
        <ele>1872.3</ele>
        <time>2026-07-07T08:49:38Z</time>
      </trkpt>
      <trkpt lat="42.97496" lon="0.3104">
        <ele>1872.3</ele>
        <time>2026-07-07T08:49:39Z</time>
      </trkpt>
      <trkpt lat="42.97497" lon="0.3104">
        <ele>1872.3</ele>
        <time>2026-07-07T08:49:39Z</time>
      </trkpt>
      <trkpt lat="42.97497" lon="0.31039">
        <ele>1872.3</ele>
        <time>2026-07-07T08:49:40Z</time>
      </trkpt>
      <trkpt lat="42.97498" lon="0.31039">
        <ele>1872.3</ele>
        <time>2026-07-07T08:49:40Z</time>
      </trkpt>
      <trkpt lat="42.97498" lon="0.31038">
        <ele>1871.3</ele>
        <time>2026-07-07T08:49:41Z</time>
      </trkpt>
      <trkpt lat="42.97499" lon="0.31038">
        <ele>1871.3</ele>
        <time>2026-07-07T08:49:41Z</time>
      </trkpt>
      <trkpt lat="42.97499" lon="0.31037">
        <ele>1871.3</ele>
        <time>2026-07-07T08:49:42Z</time>
      </trkpt>
      <trkpt lat="42.97499" lon="0.31037">
        <ele>1871.3</ele>
        <time>2026-07-07T08:49:43Z</time>
      </trkpt>
      <trkpt lat="42.975" lon="0.31036">
        <ele>1871.3</ele>
        <time>2026-07-07T08:49:43Z</time>
      </trkpt>
      <trkpt lat="42.975" lon="0.31034">
        <ele>1871.3</ele>
        <time>2026-07-07T08:49:44Z</time>
      </trkpt>
      <trkpt lat="42.975" lon="0.31033">
        <ele>1871.3</ele>
        <time>2026-07-07T08:49:45Z</time>
      </trkpt>
      <trkpt lat="42.975" lon="0.31033">
        <ele>1871.3</ele>
        <time>2026-07-07T08:49:45Z</time>
      </trkpt>
      <trkpt lat="42.975" lon="0.31032">
        <ele>1871.3</ele>
        <time>2026-07-07T08:49:46Z</time>
      </trkpt>
      <trkpt lat="42.975" lon="0.31032">
        <ele>1870.3</ele>
        <time>2026-07-07T08:49:46Z</time>
      </trkpt>
      <trkpt lat="42.975" lon="0.31031">
        <ele>1870.3</ele>
        <time>2026-07-07T08:49:47Z</time>
      </trkpt>
      <trkpt lat="42.975" lon="0.31029">
        <ele>1870.3</ele>
        <time>2026-07-07T08:49:48Z</time>
      </trkpt>
      <trkpt lat="42.975" lon="0.31029">
        <ele>1869.3</ele>
        <time>2026-07-07T08:49:49Z</time>
      </trkpt>
      <trkpt lat="42.975" lon="0.31028">
        <ele>1869.3</ele>
        <time>2026-07-07T08:49:49Z</time>
      </trkpt>
      <trkpt lat="42.975" lon="0.31027">
        <ele>1869.3</ele>
        <time>2026-07-07T08:49:50Z</time>
      </trkpt>
      <trkpt lat="42.975" lon="0.31027">
        <ele>1869.3</ele>
        <time>2026-07-07T08:49:50Z</time>
      </trkpt>
      <trkpt lat="42.975" lon="0.31026">
        <ele>1869.3</ele>
        <time>2026-07-07T08:49:51Z</time>
      </trkpt>
      <trkpt lat="42.97501" lon="0.31026">
        <ele>1868.3</ele>
        <time>2026-07-07T08:49:51Z</time>
      </trkpt>
      <trkpt lat="42.97501" lon="0.31025">
        <ele>1868.3</ele>
        <time>2026-07-07T08:49:52Z</time>
      </trkpt>
      <trkpt lat="42.97502" lon="0.31025">
        <ele>1869.3</ele>
        <time>2026-07-07T08:49:52Z</time>
      </trkpt>
      <trkpt lat="42.97502" lon="0.31025">
        <ele>1868.3</ele>
        <time>2026-07-07T08:49:53Z</time>
      </trkpt>
      <trkpt lat="42.97503" lon="0.31024">
        <ele>1868.3</ele>
        <time>2026-07-07T08:49:54Z</time>
      </trkpt>
      <trkpt lat="42.97504" lon="0.31024">
        <ele>1869.3</ele>
        <time>2026-07-07T08:49:55Z</time>
      </trkpt>
      <trkpt lat="42.97504" lon="0.31023">
        <ele>1869.3</ele>
        <time>2026-07-07T08:49:55Z</time>
      </trkpt>
      <trkpt lat="42.97505" lon="0.31023">
        <ele>1869.3</ele>
        <time>2026-07-07T08:49:55Z</time>
      </trkpt>
      <trkpt lat="42.97505" lon="0.31022">
        <ele>1869.3</ele>
        <time>2026-07-07T08:49:56Z</time>
      </trkpt>
      <trkpt lat="42.97506" lon="0.31022">
        <ele>1869.3</ele>
        <time>2026-07-07T08:49:57Z</time>
      </trkpt>
      <trkpt lat="42.97506" lon="0.31021">
        <ele>1869.3</ele>
        <time>2026-07-07T08:49:57Z</time>
      </trkpt>
      <trkpt lat="42.97506" lon="0.31021">
        <ele>1869.3</ele>
        <time>2026-07-07T08:49:58Z</time>
      </trkpt>
      <trkpt lat="42.97507" lon="0.3102">
        <ele>1869.3</ele>
        <time>2026-07-07T08:49:58Z</time>
      </trkpt>
      <trkpt lat="42.97507" lon="0.3102">
        <ele>1868.3</ele>
        <time>2026-07-07T08:49:59Z</time>
      </trkpt>
      <trkpt lat="42.97507" lon="0.31019">
        <ele>1868.3</ele>
        <time>2026-07-07T08:49:59Z</time>
      </trkpt>
      <trkpt lat="42.97508" lon="0.31018">
        <ele>1868.3</ele>
        <time>2026-07-07T08:50:00Z</time>
      </trkpt>
      <trkpt lat="42.97508" lon="0.31018">
        <ele>1868.3</ele>
        <time>2026-07-07T08:50:00Z</time>
      </trkpt>
      <trkpt lat="42.97508" lon="0.31017">
        <ele>1868.3</ele>
        <time>2026-07-07T08:50:01Z</time>
      </trkpt>
      <trkpt lat="42.97508" lon="0.31016">
        <ele>1867.3</ele>
        <time>2026-07-07T08:50:01Z</time>
      </trkpt>
      <trkpt lat="42.97509" lon="0.31015">
        <ele>1867.3</ele>
        <time>2026-07-07T08:50:02Z</time>
      </trkpt>
      <trkpt lat="42.97509" lon="0.31015">
        <ele>1867.3</ele>
        <time>2026-07-07T08:50:03Z</time>
      </trkpt>
      <trkpt lat="42.97509" lon="0.31014">
        <ele>1866.3</ele>
        <time>2026-07-07T08:50:03Z</time>
      </trkpt>
      <trkpt lat="42.97509" lon="0.31013">
        <ele>1866.3</ele>
        <time>2026-07-07T08:50:04Z</time>
      </trkpt>
      <trkpt lat="42.97509" lon="0.31013">
        <ele>1866.3</ele>
        <time>2026-07-07T08:50:05Z</time>
      </trkpt>
      <trkpt lat="42.97509" lon="0.31012">
        <ele>1866.3</ele>
        <time>2026-07-07T08:50:06Z</time>
      </trkpt>
      <trkpt lat="42.97509" lon="0.31012">
        <ele>1866.3</ele>
        <time>2026-07-07T08:50:06Z</time>
      </trkpt>
      <trkpt lat="42.97509" lon="0.31011">
        <ele>1865.3</ele>
        <time>2026-07-07T08:50:07Z</time>
      </trkpt>
      <trkpt lat="42.97508" lon="0.31011">
        <ele>1865.3</ele>
        <time>2026-07-07T08:50:07Z</time>
      </trkpt>
      <trkpt lat="42.97507" lon="0.31011">
        <ele>1865.3</ele>
        <time>2026-07-07T08:50:08Z</time>
      </trkpt>
      <trkpt lat="42.97507" lon="0.3101">
        <ele>1865.3</ele>
        <time>2026-07-07T08:50:09Z</time>
      </trkpt>
      <trkpt lat="42.97506" lon="0.3101">
        <ele>1864.3</ele>
        <time>2026-07-07T08:50:10Z</time>
      </trkpt>
      <trkpt lat="42.97506" lon="0.3101">
        <ele>1864.3</ele>
        <time>2026-07-07T08:50:10Z</time>
      </trkpt>
      <trkpt lat="42.97506" lon="0.31009">
        <ele>1864.3</ele>
        <time>2026-07-07T08:50:11Z</time>
      </trkpt>
      <trkpt lat="42.97507" lon="0.31008">
        <ele>1864.3</ele>
        <time>2026-07-07T08:50:12Z</time>
      </trkpt>
      <trkpt lat="42.97507" lon="0.31008">
        <ele>1863.3</ele>
        <time>2026-07-07T08:50:13Z</time>
      </trkpt>
      <trkpt lat="42.97508" lon="0.31007">
        <ele>1864.3</ele>
        <time>2026-07-07T08:50:14Z</time>
      </trkpt>
      <trkpt lat="42.97508" lon="0.31006">
        <ele>1864.3</ele>
        <time>2026-07-07T08:50:15Z</time>
      </trkpt>
      <trkpt lat="42.97508" lon="0.31006">
        <ele>1863.3</ele>
        <time>2026-07-07T08:50:15Z</time>
      </trkpt>
      <trkpt lat="42.97508" lon="0.31004">
        <ele>1863.3</ele>
        <time>2026-07-07T08:50:16Z</time>
      </trkpt>
      <trkpt lat="42.97508" lon="0.31004">
        <ele>1863.3</ele>
        <time>2026-07-07T08:50:17Z</time>
      </trkpt>
      <trkpt lat="42.97508" lon="0.31002">
        <ele>1863.3</ele>
        <time>2026-07-07T08:50:17Z</time>
      </trkpt>
      <trkpt lat="42.97509" lon="0.31001">
        <ele>1863.3</ele>
        <time>2026-07-07T08:50:18Z</time>
      </trkpt>
      <trkpt lat="42.9751" lon="0.30999">
        <ele>1863.3</ele>
        <time>2026-07-07T08:50:19Z</time>
      </trkpt>
      <trkpt lat="42.9751" lon="0.30999">
        <ele>1863.3</ele>
        <time>2026-07-07T08:50:20Z</time>
      </trkpt>
      <trkpt lat="42.97511" lon="0.30998">
        <ele>1864.3</ele>
        <time>2026-07-07T08:50:20Z</time>
      </trkpt>
      <trkpt lat="42.97511" lon="0.30998">
        <ele>1864.3</ele>
        <time>2026-07-07T08:50:21Z</time>
      </trkpt>
      <trkpt lat="42.97512" lon="0.30997">
        <ele>1864.3</ele>
        <time>2026-07-07T08:50:22Z</time>
      </trkpt>
      <trkpt lat="42.97512" lon="0.30997">
        <ele>1864.3</ele>
        <time>2026-07-07T08:50:22Z</time>
      </trkpt>
      <trkpt lat="42.97513" lon="0.30996">
        <ele>1864.3</ele>
        <time>2026-07-07T08:50:23Z</time>
      </trkpt>
      <trkpt lat="42.97513" lon="0.30996">
        <ele>1864.3</ele>
        <time>2026-07-07T08:50:23Z</time>
      </trkpt>
      <trkpt lat="42.97514" lon="0.30995">
        <ele>1864.3</ele>
        <time>2026-07-07T08:50:24Z</time>
      </trkpt>
      <trkpt lat="42.97515" lon="0.30994">
        <ele>1864.3</ele>
        <time>2026-07-07T08:50:25Z</time>
      </trkpt>
      <trkpt lat="42.97515" lon="0.30993">
        <ele>1863.3</ele>
        <time>2026-07-07T08:50:25Z</time>
      </trkpt>
      <trkpt lat="42.97516" lon="0.30993">
        <ele>1863.3</ele>
        <time>2026-07-07T08:50:26Z</time>
      </trkpt>
      <trkpt lat="42.97516" lon="0.30992">
        <ele>1863.3</ele>
        <time>2026-07-07T08:50:27Z</time>
      </trkpt>
      <trkpt lat="42.97517" lon="0.30991">
        <ele>1863.3</ele>
        <time>2026-07-07T08:50:27Z</time>
      </trkpt>
      <trkpt lat="42.97517" lon="0.30991">
        <ele>1863.3</ele>
        <time>2026-07-07T08:50:28Z</time>
      </trkpt>
      <trkpt lat="42.97518" lon="0.3099">
        <ele>1864.3</ele>
        <time>2026-07-07T08:50:28Z</time>
      </trkpt>
      <trkpt lat="42.97519" lon="0.30989">
        <ele>1864.3</ele>
        <time>2026-07-07T08:50:29Z</time>
      </trkpt>
      <trkpt lat="42.97519" lon="0.30988">
        <ele>1864.3</ele>
        <time>2026-07-07T08:50:30Z</time>
      </trkpt>
      <trkpt lat="42.9752" lon="0.30987">
        <ele>1864.3</ele>
        <time>2026-07-07T08:50:31Z</time>
      </trkpt>
      <trkpt lat="42.9752" lon="0.30987">
        <ele>1864.3</ele>
        <time>2026-07-07T08:50:31Z</time>
      </trkpt>
      <trkpt lat="42.9752" lon="0.30986">
        <ele>1864.3</ele>
        <time>2026-07-07T08:50:32Z</time>
      </trkpt>
      <trkpt lat="42.97521" lon="0.30985">
        <ele>1864.3</ele>
        <time>2026-07-07T08:50:33Z</time>
      </trkpt>
      <trkpt lat="42.97521" lon="0.30984">
        <ele>1864.3</ele>
        <time>2026-07-07T08:50:33Z</time>
      </trkpt>
      <trkpt lat="42.97522" lon="0.30983">
        <ele>1864.3</ele>
        <time>2026-07-07T08:50:34Z</time>
      </trkpt>
      <trkpt lat="42.97522" lon="0.30982">
        <ele>1865.3</ele>
        <time>2026-07-07T08:50:35Z</time>
      </trkpt>
      <trkpt lat="42.97522" lon="0.30981">
        <ele>1865.3</ele>
        <time>2026-07-07T08:50:36Z</time>
      </trkpt>
      <trkpt lat="42.97522" lon="0.30981">
        <ele>1865.3</ele>
        <time>2026-07-07T08:50:36Z</time>
      </trkpt>
      <trkpt lat="42.97522" lon="0.3098">
        <ele>1865.3</ele>
        <time>2026-07-07T08:50:37Z</time>
      </trkpt>
      <trkpt lat="42.97522" lon="0.30979">
        <ele>1866.3</ele>
        <time>2026-07-07T08:50:37Z</time>
      </trkpt>
      <trkpt lat="42.97522" lon="0.30978">
        <ele>1866.3</ele>
        <time>2026-07-07T08:50:38Z</time>
      </trkpt>
      <trkpt lat="42.97522" lon="0.30977">
        <ele>1865.3</ele>
        <time>2026-07-07T08:50:38Z</time>
      </trkpt>
      <trkpt lat="42.97522" lon="0.30976">
        <ele>1865.3</ele>
        <time>2026-07-07T08:50:39Z</time>
      </trkpt>
      <trkpt lat="42.97522" lon="0.30975">
        <ele>1865.3</ele>
        <time>2026-07-07T08:50:40Z</time>
      </trkpt>
      <trkpt lat="42.97523" lon="0.30974">
        <ele>1865.3</ele>
        <time>2026-07-07T08:50:40Z</time>
      </trkpt>
      <trkpt lat="42.97523" lon="0.30974">
        <ele>1865.3</ele>
        <time>2026-07-07T08:50:41Z</time>
      </trkpt>
      <trkpt lat="42.97524" lon="0.30973">
        <ele>1865.3</ele>
        <time>2026-07-07T08:50:42Z</time>
      </trkpt>
      <trkpt lat="42.97524" lon="0.30973">
        <ele>1865.3</ele>
        <time>2026-07-07T08:50:43Z</time>
      </trkpt>
      <trkpt lat="42.97525" lon="0.30972">
        <ele>1864.3</ele>
        <time>2026-07-07T08:50:43Z</time>
      </trkpt>
      <trkpt lat="42.97525" lon="0.30971">
        <ele>1864.3</ele>
        <time>2026-07-07T08:50:44Z</time>
      </trkpt>
      <trkpt lat="42.97525" lon="0.30971">
        <ele>1864.3</ele>
        <time>2026-07-07T08:50:44Z</time>
      </trkpt>
      <trkpt lat="42.97526" lon="0.3097">
        <ele>1864.3</ele>
        <time>2026-07-07T08:50:45Z</time>
      </trkpt>
      <trkpt lat="42.97526" lon="0.30969">
        <ele>1865.3</ele>
        <time>2026-07-07T08:50:46Z</time>
      </trkpt>
      <trkpt lat="42.97527" lon="0.30969">
        <ele>1865.3</ele>
        <time>2026-07-07T08:50:46Z</time>
      </trkpt>
      <trkpt lat="42.97527" lon="0.30968">
        <ele>1865.3</ele>
        <time>2026-07-07T08:50:47Z</time>
      </trkpt>
      <trkpt lat="42.97527" lon="0.30968">
        <ele>1865.3</ele>
        <time>2026-07-07T08:50:48Z</time>
      </trkpt>
      <trkpt lat="42.97528" lon="0.30967">
        <ele>1865.3</ele>
        <time>2026-07-07T08:50:48Z</time>
      </trkpt>
      <trkpt lat="42.97528" lon="0.30967">
        <ele>1865.3</ele>
        <time>2026-07-07T08:50:49Z</time>
      </trkpt>
      <trkpt lat="42.97529" lon="0.30966">
        <ele>1865.3</ele>
        <time>2026-07-07T08:50:49Z</time>
      </trkpt>
      <trkpt lat="42.97529" lon="0.30966">
        <ele>1865.3</ele>
        <time>2026-07-07T08:50:50Z</time>
      </trkpt>
      <trkpt lat="42.9753" lon="0.30965">
        <ele>1866.3</ele>
        <time>2026-07-07T08:50:51Z</time>
      </trkpt>
      <trkpt lat="42.9753" lon="0.30965">
        <ele>1866.3</ele>
        <time>2026-07-07T08:50:51Z</time>
      </trkpt>
      <trkpt lat="42.97531" lon="0.30964">
        <ele>1866.3</ele>
        <time>2026-07-07T08:50:52Z</time>
      </trkpt>
      <trkpt lat="42.97531" lon="0.30964">
        <ele>1866.3</ele>
        <time>2026-07-07T08:50:53Z</time>
      </trkpt>
      <trkpt lat="42.97531" lon="0.30963">
        <ele>1866.3</ele>
        <time>2026-07-07T08:50:53Z</time>
      </trkpt>
      <trkpt lat="42.97532" lon="0.30962">
        <ele>1865.3</ele>
        <time>2026-07-07T08:50:54Z</time>
      </trkpt>
      <trkpt lat="42.97532" lon="0.30962">
        <ele>1865.3</ele>
        <time>2026-07-07T08:50:55Z</time>
      </trkpt>
      <trkpt lat="42.97532" lon="0.30961">
        <ele>1866.3</ele>
        <time>2026-07-07T08:50:55Z</time>
      </trkpt>
      <trkpt lat="42.97533" lon="0.3096">
        <ele>1866.3</ele>
        <time>2026-07-07T08:50:56Z</time>
      </trkpt>
      <trkpt lat="42.97533" lon="0.30959">
        <ele>1865.3</ele>
        <time>2026-07-07T08:50:57Z</time>
      </trkpt>
      <trkpt lat="42.97533" lon="0.30958">
        <ele>1865.3</ele>
        <time>2026-07-07T08:50:57Z</time>
      </trkpt>
      <trkpt lat="42.97534" lon="0.30957">
        <ele>1865.3</ele>
        <time>2026-07-07T08:50:58Z</time>
      </trkpt>
      <trkpt lat="42.97534" lon="0.30957">
        <ele>1865.3</ele>
        <time>2026-07-07T08:50:59Z</time>
      </trkpt>
      <trkpt lat="42.97535" lon="0.30956">
        <ele>1866.3</ele>
        <time>2026-07-07T08:50:59Z</time>
      </trkpt>
      <trkpt lat="42.97536" lon="0.30955">
        <ele>1866.3</ele>
        <time>2026-07-07T08:51:00Z</time>
      </trkpt>
      <trkpt lat="42.97536" lon="0.30955">
        <ele>1866.3</ele>
        <time>2026-07-07T08:51:01Z</time>
      </trkpt>
      <trkpt lat="42.97536" lon="0.30954">
        <ele>1866.3</ele>
        <time>2026-07-07T08:51:02Z</time>
      </trkpt>
      <trkpt lat="42.97537" lon="0.30953">
        <ele>1866.3</ele>
        <time>2026-07-07T08:51:02Z</time>
      </trkpt>
      <trkpt lat="42.97537" lon="0.30953">
        <ele>1866.3</ele>
        <time>2026-07-07T08:51:03Z</time>
      </trkpt>
      <trkpt lat="42.97537" lon="0.30952">
        <ele>1866.3</ele>
        <time>2026-07-07T08:51:03Z</time>
      </trkpt>
      <trkpt lat="42.97538" lon="0.30951">
        <ele>1866.3</ele>
        <time>2026-07-07T08:51:04Z</time>
      </trkpt>
      <trkpt lat="42.97538" lon="0.30951">
        <ele>1866.3</ele>
        <time>2026-07-07T08:51:05Z</time>
      </trkpt>
      <trkpt lat="42.97538" lon="0.3095">
        <ele>1866.3</ele>
        <time>2026-07-07T08:51:05Z</time>
      </trkpt>
      <trkpt lat="42.97539" lon="0.3095">
        <ele>1866.3</ele>
        <time>2026-07-07T08:51:06Z</time>
      </trkpt>
      <trkpt lat="42.97539" lon="0.30949">
        <ele>1866.3</ele>
        <time>2026-07-07T08:51:07Z</time>
      </trkpt>
      <trkpt lat="42.9754" lon="0.30948">
        <ele>1866.3</ele>
        <time>2026-07-07T08:51:07Z</time>
      </trkpt>
      <trkpt lat="42.9754" lon="0.30948">
        <ele>1866.3</ele>
        <time>2026-07-07T08:51:08Z</time>
      </trkpt>
      <trkpt lat="42.97541" lon="0.30947">
        <ele>1867.3</ele>
        <time>2026-07-07T08:51:09Z</time>
      </trkpt>
      <trkpt lat="42.97541" lon="0.30947">
        <ele>1867.3</ele>
        <time>2026-07-07T08:51:09Z</time>
      </trkpt>
      <trkpt lat="42.97541" lon="0.30946">
        <ele>1867.3</ele>
        <time>2026-07-07T08:51:10Z</time>
      </trkpt>
      <trkpt lat="42.97541" lon="0.30945">
        <ele>1866.3</ele>
        <time>2026-07-07T08:51:11Z</time>
      </trkpt>
      <trkpt lat="42.97541" lon="0.30945">
        <ele>1866.3</ele>
        <time>2026-07-07T08:51:12Z</time>
      </trkpt>
      <trkpt lat="42.97542" lon="0.30944">
        <ele>1866.3</ele>
        <time>2026-07-07T08:51:13Z</time>
      </trkpt>
      <trkpt lat="42.97542" lon="0.30944">
        <ele>1866.3</ele>
        <time>2026-07-07T08:51:13Z</time>
      </trkpt>
      <trkpt lat="42.97542" lon="0.30944">
        <ele>1865.3</ele>
        <time>2026-07-07T08:51:14Z</time>
      </trkpt>
      <trkpt lat="42.97542" lon="0.30943">
        <ele>1865.3</ele>
        <time>2026-07-07T08:51:15Z</time>
      </trkpt>
      <trkpt lat="42.97543" lon="0.30943">
        <ele>1864.3</ele>
        <time>2026-07-07T08:51:15Z</time>
      </trkpt>
      <trkpt lat="42.97543" lon="0.30942">
        <ele>1864.3</ele>
        <time>2026-07-07T08:51:16Z</time>
      </trkpt>
      <trkpt lat="42.97543" lon="0.30941">
        <ele>1865.3</ele>
        <time>2026-07-07T08:51:17Z</time>
      </trkpt>
      <trkpt lat="42.97543" lon="0.30941">
        <ele>1865.3</ele>
        <time>2026-07-07T08:51:17Z</time>
      </trkpt>
      <trkpt lat="42.97544" lon="0.3094">
        <ele>1865.3</ele>
        <time>2026-07-07T08:51:18Z</time>
      </trkpt>
      <trkpt lat="42.97544" lon="0.30939">
        <ele>1865.3</ele>
        <time>2026-07-07T08:51:19Z</time>
      </trkpt>
      <trkpt lat="42.97545" lon="0.30939">
        <ele>1865.3</ele>
        <time>2026-07-07T08:51:19Z</time>
      </trkpt>
      <trkpt lat="42.97545" lon="0.30938">
        <ele>1865.3</ele>
        <time>2026-07-07T08:51:20Z</time>
      </trkpt>
      <trkpt lat="42.97546" lon="0.30938">
        <ele>1865.3</ele>
        <time>2026-07-07T08:51:21Z</time>
      </trkpt>
      <trkpt lat="42.97546" lon="0.30937">
        <ele>1865.3</ele>
        <time>2026-07-07T08:51:21Z</time>
      </trkpt>
      <trkpt lat="42.97547" lon="0.30936">
        <ele>1865.3</ele>
        <time>2026-07-07T08:51:22Z</time>
      </trkpt>
      <trkpt lat="42.97547" lon="0.30935">
        <ele>1865.3</ele>
        <time>2026-07-07T08:51:22Z</time>
      </trkpt>
      <trkpt lat="42.97547" lon="0.30934">
        <ele>1864.3</ele>
        <time>2026-07-07T08:51:23Z</time>
      </trkpt>
      <trkpt lat="42.97548" lon="0.30933">
        <ele>1864.3</ele>
        <time>2026-07-07T08:51:24Z</time>
      </trkpt>
      <trkpt lat="42.97548" lon="0.30933">
        <ele>1864.3</ele>
        <time>2026-07-07T08:51:25Z</time>
      </trkpt>
      <trkpt lat="42.97549" lon="0.30932">
        <ele>1864.3</ele>
        <time>2026-07-07T08:51:25Z</time>
      </trkpt>
      <trkpt lat="42.97549" lon="0.30931">
        <ele>1865.3</ele>
        <time>2026-07-07T08:51:26Z</time>
      </trkpt>
      <trkpt lat="42.9755" lon="0.30931">
        <ele>1865.3</ele>
        <time>2026-07-07T08:51:26Z</time>
      </trkpt>
      <trkpt lat="42.9755" lon="0.3093">
        <ele>1864.3</ele>
        <time>2026-07-07T08:51:27Z</time>
      </trkpt>
      <trkpt lat="42.9755" lon="0.30929">
        <ele>1864.3</ele>
        <time>2026-07-07T08:51:27Z</time>
      </trkpt>
      <trkpt lat="42.9755" lon="0.30928">
        <ele>1864.3</ele>
        <time>2026-07-07T08:51:28Z</time>
      </trkpt>
      <trkpt lat="42.9755" lon="0.30927">
        <ele>1864.3</ele>
        <time>2026-07-07T08:51:28Z</time>
      </trkpt>
      <trkpt lat="42.97551" lon="0.30926">
        <ele>1864.3</ele>
        <time>2026-07-07T08:51:29Z</time>
      </trkpt>
      <trkpt lat="42.97551" lon="0.30926">
        <ele>1863.3</ele>
        <time>2026-07-07T08:51:29Z</time>
      </trkpt>
      <trkpt lat="42.97551" lon="0.30925">
        <ele>1863.3</ele>
        <time>2026-07-07T08:51:30Z</time>
      </trkpt>
      <trkpt lat="42.97551" lon="0.30924">
        <ele>1863.3</ele>
        <time>2026-07-07T08:51:31Z</time>
      </trkpt>
      <trkpt lat="42.97551" lon="0.30923">
        <ele>1863.3</ele>
        <time>2026-07-07T08:51:31Z</time>
      </trkpt>
      <trkpt lat="42.97551" lon="0.30922">
        <ele>1862.3</ele>
        <time>2026-07-07T08:51:32Z</time>
      </trkpt>
      <trkpt lat="42.97551" lon="0.30921">
        <ele>1862.3</ele>
        <time>2026-07-07T08:51:32Z</time>
      </trkpt>
      <trkpt lat="42.97551" lon="0.30921">
        <ele>1861.3</ele>
        <time>2026-07-07T08:51:33Z</time>
      </trkpt>
      <trkpt lat="42.97551" lon="0.3092">
        <ele>1862.3</ele>
        <time>2026-07-07T08:51:33Z</time>
      </trkpt>
      <trkpt lat="42.97552" lon="0.30919">
        <ele>1862.3</ele>
        <time>2026-07-07T08:51:34Z</time>
      </trkpt>
      <trkpt lat="42.97552" lon="0.30919">
        <ele>1862.3</ele>
        <time>2026-07-07T08:51:34Z</time>
      </trkpt>
      <trkpt lat="42.97552" lon="0.30918">
        <ele>1862.3</ele>
        <time>2026-07-07T08:51:35Z</time>
      </trkpt>
      <trkpt lat="42.97553" lon="0.30917">
        <ele>1861.3</ele>
        <time>2026-07-07T08:51:35Z</time>
      </trkpt>
      <trkpt lat="42.97553" lon="0.30917">
        <ele>1861.3</ele>
        <time>2026-07-07T08:51:36Z</time>
      </trkpt>
      <trkpt lat="42.97553" lon="0.30916">
        <ele>1861.3</ele>
        <time>2026-07-07T08:51:37Z</time>
      </trkpt>
      <trkpt lat="42.97554" lon="0.30916">
        <ele>1861.3</ele>
        <time>2026-07-07T08:51:37Z</time>
      </trkpt>
      <trkpt lat="42.97554" lon="0.30915">
        <ele>1861.3</ele>
        <time>2026-07-07T08:51:38Z</time>
      </trkpt>
      <trkpt lat="42.97554" lon="0.30914">
        <ele>1861.3</ele>
        <time>2026-07-07T08:51:38Z</time>
      </trkpt>
      <trkpt lat="42.97554" lon="0.30913">
        <ele>1861.3</ele>
        <time>2026-07-07T08:51:39Z</time>
      </trkpt>
      <trkpt lat="42.97555" lon="0.30913">
        <ele>1861.3</ele>
        <time>2026-07-07T08:51:39Z</time>
      </trkpt>
      <trkpt lat="42.97555" lon="0.30912">
        <ele>1861.3</ele>
        <time>2026-07-07T08:51:40Z</time>
      </trkpt>
      <trkpt lat="42.97555" lon="0.30911">
        <ele>1861.3</ele>
        <time>2026-07-07T08:51:41Z</time>
      </trkpt>
      <trkpt lat="42.97555" lon="0.3091">
        <ele>1862.3</ele>
        <time>2026-07-07T08:51:41Z</time>
      </trkpt>
      <trkpt lat="42.97555" lon="0.3091">
        <ele>1862.3</ele>
        <time>2026-07-07T08:51:42Z</time>
      </trkpt>
      <trkpt lat="42.97556" lon="0.30909">
        <ele>1861.3</ele>
        <time>2026-07-07T08:51:43Z</time>
      </trkpt>
      <trkpt lat="42.97556" lon="0.30909">
        <ele>1861.3</ele>
        <time>2026-07-07T08:51:43Z</time>
      </trkpt>
      <trkpt lat="42.97557" lon="0.30908">
        <ele>1861.3</ele>
        <time>2026-07-07T08:51:44Z</time>
      </trkpt>
      <trkpt lat="42.97557" lon="0.30908">
        <ele>1862.3</ele>
        <time>2026-07-07T08:51:44Z</time>
      </trkpt>
      <trkpt lat="42.97558" lon="0.30907">
        <ele>1862.3</ele>
        <time>2026-07-07T08:51:45Z</time>
      </trkpt>
      <trkpt lat="42.97558" lon="0.30907">
        <ele>1862.3</ele>
        <time>2026-07-07T08:51:46Z</time>
      </trkpt>
      <trkpt lat="42.97558" lon="0.30906">
        <ele>1862.3</ele>
        <time>2026-07-07T08:51:46Z</time>
      </trkpt>
      <trkpt lat="42.97558" lon="0.30905">
        <ele>1862.3</ele>
        <time>2026-07-07T08:51:47Z</time>
      </trkpt>
      <trkpt lat="42.97558" lon="0.30905">
        <ele>1861.3</ele>
        <time>2026-07-07T08:51:47Z</time>
      </trkpt>
      <trkpt lat="42.97558" lon="0.30904">
        <ele>1861.3</ele>
        <time>2026-07-07T08:51:48Z</time>
      </trkpt>
      <trkpt lat="42.97559" lon="0.30903">
        <ele>1861.3</ele>
        <time>2026-07-07T08:51:49Z</time>
      </trkpt>
      <trkpt lat="42.97559" lon="0.30902">
        <ele>1861.3</ele>
        <time>2026-07-07T08:51:49Z</time>
      </trkpt>
      <trkpt lat="42.97559" lon="0.30902">
        <ele>1861.3</ele>
        <time>2026-07-07T08:51:50Z</time>
      </trkpt>
      <trkpt lat="42.97559" lon="0.30901">
        <ele>1861.3</ele>
        <time>2026-07-07T08:51:51Z</time>
      </trkpt>
      <trkpt lat="42.97559" lon="0.309">
        <ele>1861.3</ele>
        <time>2026-07-07T08:51:51Z</time>
      </trkpt>
      <trkpt lat="42.97559" lon="0.30899">
        <ele>1860.3</ele>
        <time>2026-07-07T08:51:52Z</time>
      </trkpt>
      <trkpt lat="42.97558" lon="0.30898">
        <ele>1860.3</ele>
        <time>2026-07-07T08:51:52Z</time>
      </trkpt>
      <trkpt lat="42.97558" lon="0.30898">
        <ele>1860.3</ele>
        <time>2026-07-07T08:51:53Z</time>
      </trkpt>
      <trkpt lat="42.97558" lon="0.30897">
        <ele>1860.3</ele>
        <time>2026-07-07T08:51:54Z</time>
      </trkpt>
      <trkpt lat="42.97558" lon="0.30896">
        <ele>1860.3</ele>
        <time>2026-07-07T08:51:55Z</time>
      </trkpt>
      <trkpt lat="42.97558" lon="0.30895">
        <ele>1860.3</ele>
        <time>2026-07-07T08:51:55Z</time>
      </trkpt>
      <trkpt lat="42.97558" lon="0.30895">
        <ele>1860.3</ele>
        <time>2026-07-07T08:51:56Z</time>
      </trkpt>
      <trkpt lat="42.97558" lon="0.30894">
        <ele>1859.3</ele>
        <time>2026-07-07T08:51:57Z</time>
      </trkpt>
      <trkpt lat="42.97558" lon="0.30894">
        <ele>1859.3</ele>
        <time>2026-07-07T08:51:57Z</time>
      </trkpt>
      <trkpt lat="42.97558" lon="0.30893">
        <ele>1859.3</ele>
        <time>2026-07-07T08:51:58Z</time>
      </trkpt>
      <trkpt lat="42.97558" lon="0.30892">
        <ele>1859.3</ele>
        <time>2026-07-07T08:51:59Z</time>
      </trkpt>
      <trkpt lat="42.97558" lon="0.30891">
        <ele>1859.3</ele>
        <time>2026-07-07T08:52:00Z</time>
      </trkpt>
      <trkpt lat="42.97558" lon="0.3089">
        <ele>1858.3</ele>
        <time>2026-07-07T08:52:01Z</time>
      </trkpt>
      <trkpt lat="42.97558" lon="0.3089">
        <ele>1858.3</ele>
        <time>2026-07-07T08:52:01Z</time>
      </trkpt>
      <trkpt lat="42.97558" lon="0.30889">
        <ele>1858.3</ele>
        <time>2026-07-07T08:52:02Z</time>
      </trkpt>
      <trkpt lat="42.97558" lon="0.30889">
        <ele>1858.3</ele>
        <time>2026-07-07T08:52:03Z</time>
      </trkpt>
      <trkpt lat="42.97558" lon="0.30889">
        <ele>1858.3</ele>
        <time>2026-07-07T08:52:04Z</time>
      </trkpt>
      <trkpt lat="42.97559" lon="0.30888">
        <ele>1858.3</ele>
        <time>2026-07-07T08:52:04Z</time>
      </trkpt>
      <trkpt lat="42.97559" lon="0.30888">
        <ele>1858.3</ele>
        <time>2026-07-07T08:52:05Z</time>
      </trkpt>
      <trkpt lat="42.97559" lon="0.30888">
        <ele>1858.3</ele>
        <time>2026-07-07T08:52:05Z</time>
      </trkpt>
      <trkpt lat="42.9756" lon="0.30887">
        <ele>1858.3</ele>
        <time>2026-07-07T08:52:06Z</time>
      </trkpt>
      <trkpt lat="42.97561" lon="0.30886">
        <ele>1858.3</ele>
        <time>2026-07-07T08:52:07Z</time>
      </trkpt>
      <trkpt lat="42.97561" lon="0.30886">
        <ele>1857.3</ele>
        <time>2026-07-07T08:52:07Z</time>
      </trkpt>
      <trkpt lat="42.97562" lon="0.30885">
        <ele>1857.3</ele>
        <time>2026-07-07T08:52:08Z</time>
      </trkpt>
      <trkpt lat="42.97562" lon="0.30885">
        <ele>1857.3</ele>
        <time>2026-07-07T08:52:09Z</time>
      </trkpt>
      <trkpt lat="42.97562" lon="0.30884">
        <ele>1856.3</ele>
        <time>2026-07-07T08:52:09Z</time>
      </trkpt>
      <trkpt lat="42.97563" lon="0.30883">
        <ele>1856.3</ele>
        <time>2026-07-07T08:52:10Z</time>
      </trkpt>
      <trkpt lat="42.97563" lon="0.30883">
        <ele>1856.3</ele>
        <time>2026-07-07T08:52:10Z</time>
      </trkpt>
      <trkpt lat="42.97563" lon="0.30883">
        <ele>1856.3</ele>
        <time>2026-07-07T08:52:11Z</time>
      </trkpt>
      <trkpt lat="42.97563" lon="0.30882">
        <ele>1856.3</ele>
        <time>2026-07-07T08:52:11Z</time>
      </trkpt>
      <trkpt lat="42.97564" lon="0.30881">
        <ele>1856.3</ele>
        <time>2026-07-07T08:52:12Z</time>
      </trkpt>
      <trkpt lat="42.97564" lon="0.30881">
        <ele>1856.3</ele>
        <time>2026-07-07T08:52:13Z</time>
      </trkpt>
      <trkpt lat="42.97565" lon="0.3088">
        <ele>1855.3</ele>
        <time>2026-07-07T08:52:14Z</time>
      </trkpt>
      <trkpt lat="42.97565" lon="0.3088">
        <ele>1855.3</ele>
        <time>2026-07-07T08:52:14Z</time>
      </trkpt>
      <trkpt lat="42.97565" lon="0.30879">
        <ele>1855.3</ele>
        <time>2026-07-07T08:52:15Z</time>
      </trkpt>
      <trkpt lat="42.97565" lon="0.30879">
        <ele>1855.3</ele>
        <time>2026-07-07T08:52:16Z</time>
      </trkpt>
      <trkpt lat="42.97565" lon="0.30878">
        <ele>1855.3</ele>
        <time>2026-07-07T08:52:16Z</time>
      </trkpt>
      <trkpt lat="42.97566" lon="0.30877">
        <ele>1855.3</ele>
        <time>2026-07-07T08:52:17Z</time>
      </trkpt>
      <trkpt lat="42.97566" lon="0.30877">
        <ele>1855.3</ele>
        <time>2026-07-07T08:52:18Z</time>
      </trkpt>
      <trkpt lat="42.97566" lon="0.30876">
        <ele>1855.3</ele>
        <time>2026-07-07T08:52:18Z</time>
      </trkpt>
      <trkpt lat="42.97567" lon="0.30876">
        <ele>1855.3</ele>
        <time>2026-07-07T08:52:19Z</time>
      </trkpt>
      <trkpt lat="42.97567" lon="0.30875">
        <ele>1855.3</ele>
        <time>2026-07-07T08:52:20Z</time>
      </trkpt>
      <trkpt lat="42.97567" lon="0.30875">
        <ele>1855.3</ele>
        <time>2026-07-07T08:52:21Z</time>
      </trkpt>
      <trkpt lat="42.97567" lon="0.30875">
        <ele>1856.3</ele>
        <time>2026-07-07T08:52:22Z</time>
      </trkpt>
      <trkpt lat="42.97568" lon="0.30874">
        <ele>1856.3</ele>
        <time>2026-07-07T08:52:22Z</time>
      </trkpt>
      <trkpt lat="42.97568" lon="0.30874">
        <ele>1856.3</ele>
        <time>2026-07-07T08:52:23Z</time>
      </trkpt>
      <trkpt lat="42.97568" lon="0.30874">
        <ele>1855.3</ele>
        <time>2026-07-07T08:52:23Z</time>
      </trkpt>
      <trkpt lat="42.97568" lon="0.30874">
        <ele>1856.3</ele>
        <time>2026-07-07T08:52:24Z</time>
      </trkpt>
      <trkpt lat="42.97569" lon="0.30873">
        <ele>1856.3</ele>
        <time>2026-07-07T08:52:25Z</time>
      </trkpt>
      <trkpt lat="42.97569" lon="0.30873">
        <ele>1855.3</ele>
        <time>2026-07-07T08:52:26Z</time>
      </trkpt>
      <trkpt lat="42.97569" lon="0.30872">
        <ele>1855.3</ele>
        <time>2026-07-07T08:52:27Z</time>
      </trkpt>
      <trkpt lat="42.9757" lon="0.30872">
        <ele>1855.3</ele>
        <time>2026-07-07T08:52:27Z</time>
      </trkpt>
      <trkpt lat="42.9757" lon="0.3087">
        <ele>1856.3</ele>
        <time>2026-07-07T08:52:28Z</time>
      </trkpt>
      <trkpt lat="42.9757" lon="0.3087">
        <ele>1856.3</ele>
        <time>2026-07-07T08:52:29Z</time>
      </trkpt>
      <trkpt lat="42.97571" lon="0.30869">
        <ele>1856.3</ele>
        <time>2026-07-07T08:52:30Z</time>
      </trkpt>
      <trkpt lat="42.97571" lon="0.30868">
        <ele>1855.3</ele>
        <time>2026-07-07T08:52:31Z</time>
      </trkpt>
      <trkpt lat="42.97571" lon="0.30868">
        <ele>1855.3</ele>
        <time>2026-07-07T08:52:32Z</time>
      </trkpt>
      <trkpt lat="42.97572" lon="0.30868">
        <ele>1855.3</ele>
        <time>2026-07-07T08:52:33Z</time>
      </trkpt>
      <trkpt lat="42.97572" lon="0.30867">
        <ele>1854.3</ele>
        <time>2026-07-07T08:52:33Z</time>
      </trkpt>
      <trkpt lat="42.97572" lon="0.30867">
        <ele>1854.3</ele>
        <time>2026-07-07T08:52:34Z</time>
      </trkpt>
      <trkpt lat="42.97572" lon="0.30866">
        <ele>1855.3</ele>
        <time>2026-07-07T08:52:35Z</time>
      </trkpt>
      <trkpt lat="42.97572" lon="0.30865">
        <ele>1855.3</ele>
        <time>2026-07-07T08:52:36Z</time>
      </trkpt>
      <trkpt lat="42.97572" lon="0.30864">
        <ele>1855.3</ele>
        <time>2026-07-07T08:52:37Z</time>
      </trkpt>
      <trkpt lat="42.97573" lon="0.30864">
        <ele>1854.3</ele>
        <time>2026-07-07T08:52:37Z</time>
      </trkpt>
      <trkpt lat="42.97573" lon="0.30863">
        <ele>1854.3</ele>
        <time>2026-07-07T08:52:38Z</time>
      </trkpt>
      <trkpt lat="42.97573" lon="0.30862">
        <ele>1854.3</ele>
        <time>2026-07-07T08:52:39Z</time>
      </trkpt>
      <trkpt lat="42.97574" lon="0.30861">
        <ele>1854.3</ele>
        <time>2026-07-07T08:52:39Z</time>
      </trkpt>
      <trkpt lat="42.97574" lon="0.3086">
        <ele>1854.3</ele>
        <time>2026-07-07T08:52:40Z</time>
      </trkpt>
      <trkpt lat="42.97574" lon="0.30859">
        <ele>1855.3</ele>
        <time>2026-07-07T08:52:41Z</time>
      </trkpt>
      <trkpt lat="42.97575" lon="0.30859">
        <ele>1854.3</ele>
        <time>2026-07-07T08:52:41Z</time>
      </trkpt>
      <trkpt lat="42.97575" lon="0.30858">
        <ele>1854.3</ele>
        <time>2026-07-07T08:52:42Z</time>
      </trkpt>
      <trkpt lat="42.97575" lon="0.30857">
        <ele>1855.3</ele>
        <time>2026-07-07T08:52:43Z</time>
      </trkpt>
      <trkpt lat="42.97575" lon="0.30856">
        <ele>1855.3</ele>
        <time>2026-07-07T08:52:44Z</time>
      </trkpt>
      <trkpt lat="42.97576" lon="0.30855">
        <ele>1855.3</ele>
        <time>2026-07-07T08:52:45Z</time>
      </trkpt>
      <trkpt lat="42.97576" lon="0.30854">
        <ele>1855.3</ele>
        <time>2026-07-07T08:52:45Z</time>
      </trkpt>
      <trkpt lat="42.97576" lon="0.30854">
        <ele>1855.3</ele>
        <time>2026-07-07T08:52:46Z</time>
      </trkpt>
      <trkpt lat="42.97577" lon="0.30853">
        <ele>1855.3</ele>
        <time>2026-07-07T08:52:47Z</time>
      </trkpt>
      <trkpt lat="42.97577" lon="0.30852">
        <ele>1855.3</ele>
        <time>2026-07-07T08:52:48Z</time>
      </trkpt>
      <trkpt lat="42.97577" lon="0.30852">
        <ele>1855.3</ele>
        <time>2026-07-07T08:52:49Z</time>
      </trkpt>
      <trkpt lat="42.97578" lon="0.30852">
        <ele>1855.3</ele>
        <time>2026-07-07T08:52:49Z</time>
      </trkpt>
      <trkpt lat="42.97578" lon="0.30851">
        <ele>1855.3</ele>
        <time>2026-07-07T08:52:50Z</time>
      </trkpt>
      <trkpt lat="42.97579" lon="0.30851">
        <ele>1855.3</ele>
        <time>2026-07-07T08:52:51Z</time>
      </trkpt>
      <trkpt lat="42.97579" lon="0.3085">
        <ele>1855.3</ele>
        <time>2026-07-07T08:52:52Z</time>
      </trkpt>
      <trkpt lat="42.9758" lon="0.30849">
        <ele>1855.3</ele>
        <time>2026-07-07T08:52:53Z</time>
      </trkpt>
      <trkpt lat="42.9758" lon="0.30849">
        <ele>1856.3</ele>
        <time>2026-07-07T08:52:54Z</time>
      </trkpt>
      <trkpt lat="42.9758" lon="0.30848">
        <ele>1856.3</ele>
        <time>2026-07-07T08:52:54Z</time>
      </trkpt>
      <trkpt lat="42.97581" lon="0.30848">
        <ele>1856.3</ele>
        <time>2026-07-07T08:52:55Z</time>
      </trkpt>
      <trkpt lat="42.97581" lon="0.30847">
        <ele>1856.3</ele>
        <time>2026-07-07T08:52:55Z</time>
      </trkpt>
      <trkpt lat="42.97582" lon="0.30846">
        <ele>1856.3</ele>
        <time>2026-07-07T08:52:56Z</time>
      </trkpt>
      <trkpt lat="42.97582" lon="0.30846">
        <ele>1857.3</ele>
        <time>2026-07-07T08:52:57Z</time>
      </trkpt>
      <trkpt lat="42.97583" lon="0.30845">
        <ele>1858.3</ele>
        <time>2026-07-07T08:52:58Z</time>
      </trkpt>
      <trkpt lat="42.97583" lon="0.30844">
        <ele>1858.3</ele>
        <time>2026-07-07T08:52:58Z</time>
      </trkpt>
      <trkpt lat="42.97583" lon="0.30843">
        <ele>1858.3</ele>
        <time>2026-07-07T08:52:59Z</time>
      </trkpt>
      <trkpt lat="42.97583" lon="0.30843">
        <ele>1858.3</ele>
        <time>2026-07-07T08:53:00Z</time>
      </trkpt>
      <trkpt lat="42.97583" lon="0.30842">
        <ele>1857.3</ele>
        <time>2026-07-07T08:53:00Z</time>
      </trkpt>
      <trkpt lat="42.97583" lon="0.30841">
        <ele>1857.3</ele>
        <time>2026-07-07T08:53:01Z</time>
      </trkpt>
      <trkpt lat="42.97583" lon="0.3084">
        <ele>1857.3</ele>
        <time>2026-07-07T08:53:02Z</time>
      </trkpt>
      <trkpt lat="42.97584" lon="0.3084">
        <ele>1857.3</ele>
        <time>2026-07-07T08:53:03Z</time>
      </trkpt>
      <trkpt lat="42.97584" lon="0.30839">
        <ele>1857.3</ele>
        <time>2026-07-07T08:53:03Z</time>
      </trkpt>
      <trkpt lat="42.97584" lon="0.30838">
        <ele>1857.3</ele>
        <time>2026-07-07T08:53:04Z</time>
      </trkpt>
      <trkpt lat="42.97585" lon="0.30838">
        <ele>1857.3</ele>
        <time>2026-07-07T08:53:05Z</time>
      </trkpt>
      <trkpt lat="42.97585" lon="0.30838">
        <ele>1857.3</ele>
        <time>2026-07-07T08:53:06Z</time>
      </trkpt>
      <trkpt lat="42.97585" lon="0.30838">
        <ele>1857.3</ele>
        <time>2026-07-07T08:53:06Z</time>
      </trkpt>
      <trkpt lat="42.97585" lon="0.30837">
        <ele>1857.3</ele>
        <time>2026-07-07T08:53:07Z</time>
      </trkpt>
      <trkpt lat="42.97586" lon="0.30837">
        <ele>1856.3</ele>
        <time>2026-07-07T08:53:07Z</time>
      </trkpt>
      <trkpt lat="42.97586" lon="0.30837">
        <ele>1856.3</ele>
        <time>2026-07-07T08:53:08Z</time>
      </trkpt>
      <trkpt lat="42.97586" lon="0.30836">
        <ele>1856.3</ele>
        <time>2026-07-07T08:53:09Z</time>
      </trkpt>
      <trkpt lat="42.97587" lon="0.30836">
        <ele>1856.3</ele>
        <time>2026-07-07T08:53:10Z</time>
      </trkpt>
      <trkpt lat="42.97587" lon="0.30835">
        <ele>1856.3</ele>
        <time>2026-07-07T08:53:10Z</time>
      </trkpt>
      <trkpt lat="42.97588" lon="0.30835">
        <ele>1857.3</ele>
        <time>2026-07-07T08:53:11Z</time>
      </trkpt>
      <trkpt lat="42.97588" lon="0.30835">
        <ele>1858.3</ele>
        <time>2026-07-07T08:53:12Z</time>
      </trkpt>
      <trkpt lat="42.97588" lon="0.30834">
        <ele>1858.3</ele>
        <time>2026-07-07T08:53:13Z</time>
      </trkpt>
      <trkpt lat="42.97589" lon="0.30834">
        <ele>1858.3</ele>
        <time>2026-07-07T08:53:14Z</time>
      </trkpt>
      <trkpt lat="42.97589" lon="0.30833">
        <ele>1858.3</ele>
        <time>2026-07-07T08:53:15Z</time>
      </trkpt>
      <trkpt lat="42.97589" lon="0.30833">
        <ele>1858.3</ele>
        <time>2026-07-07T08:53:16Z</time>
      </trkpt>
      <trkpt lat="42.97589" lon="0.30833">
        <ele>1858.3</ele>
        <time>2026-07-07T08:53:16Z</time>
      </trkpt>
      <trkpt lat="42.9759" lon="0.30833">
        <ele>1858.3</ele>
        <time>2026-07-07T08:53:17Z</time>
      </trkpt>
      <trkpt lat="42.9759" lon="0.30832">
        <ele>1858.3</ele>
        <time>2026-07-07T08:53:18Z</time>
      </trkpt>
      <trkpt lat="42.9759" lon="0.30832">
        <ele>1858.3</ele>
        <time>2026-07-07T08:53:19Z</time>
      </trkpt>
      <trkpt lat="42.97591" lon="0.30832">
        <ele>1859.3</ele>
        <time>2026-07-07T08:53:20Z</time>
      </trkpt>
      <trkpt lat="42.97591" lon="0.30832">
        <ele>1858.3</ele>
        <time>2026-07-07T08:53:21Z</time>
      </trkpt>
      <trkpt lat="42.97591" lon="0.30832">
        <ele>1858.3</ele>
        <time>2026-07-07T08:53:21Z</time>
      </trkpt>
      <trkpt lat="42.97592" lon="0.30831">
        <ele>1858.3</ele>
        <time>2026-07-07T08:53:22Z</time>
      </trkpt>
      <trkpt lat="42.97592" lon="0.30831">
        <ele>1859.3</ele>
        <time>2026-07-07T08:53:23Z</time>
      </trkpt>
      <trkpt lat="42.97593" lon="0.30831">
        <ele>1859.3</ele>
        <time>2026-07-07T08:53:24Z</time>
      </trkpt>
      <trkpt lat="42.97593" lon="0.30831">
        <ele>1858.3</ele>
        <time>2026-07-07T08:53:25Z</time>
      </trkpt>
      <trkpt lat="42.97593" lon="0.30831">
        <ele>1858.3</ele>
        <time>2026-07-07T08:53:26Z</time>
      </trkpt>
      <trkpt lat="42.97593" lon="0.3083">
        <ele>1858.3</ele>
        <time>2026-07-07T08:53:27Z</time>
      </trkpt>
      <trkpt lat="42.97593" lon="0.3083">
        <ele>1858.3</ele>
        <time>2026-07-07T08:53:28Z</time>
      </trkpt>
      <trkpt lat="42.97593" lon="0.3083">
        <ele>1858.3</ele>
        <time>2026-07-07T08:53:29Z</time>
      </trkpt>
      <trkpt lat="42.97593" lon="0.3083">
        <ele>1858.3</ele>
        <time>2026-07-07T08:53:30Z</time>
      </trkpt>
      <trkpt lat="42.97593" lon="0.30829">
        <ele>1858.3</ele>
        <time>2026-07-07T08:53:31Z</time>
      </trkpt>
      <trkpt lat="42.97593" lon="0.30829">
        <ele>1859.3</ele>
        <time>2026-07-07T08:53:32Z</time>
      </trkpt>
      <trkpt lat="42.97593" lon="0.3083">
        <ele>1859.3</ele>
        <time>2026-07-07T08:53:33Z</time>
      </trkpt>
      <trkpt lat="42.97593" lon="0.3083">
        <ele>1859.3</ele>
        <time>2026-07-07T08:53:34Z</time>
      </trkpt>
      <trkpt lat="42.97593" lon="0.3083">
        <ele>1859.3</ele>
        <time>2026-07-07T08:53:35Z</time>
      </trkpt>
      <trkpt lat="42.97593" lon="0.30829">
        <ele>1859.3</ele>
        <time>2026-07-07T08:53:36Z</time>
      </trkpt>
      <trkpt lat="42.97593" lon="0.30829">
        <ele>1859.3</ele>
        <time>2026-07-07T08:53:37Z</time>
      </trkpt>
      <trkpt lat="42.97593" lon="0.30829">
        <ele>1859.3</ele>
        <time>2026-07-07T08:53:38Z</time>
      </trkpt>
      <trkpt lat="42.97593" lon="0.30829">
        <ele>1859.3</ele>
        <time>2026-07-07T08:53:39Z</time>
      </trkpt>
      <trkpt lat="42.97593" lon="0.30829">
        <ele>1858.3</ele>
        <time>2026-07-07T08:53:40Z</time>
      </trkpt>
      <trkpt lat="42.97593" lon="0.30829">
        <ele>1858.3</ele>
        <time>2026-07-07T08:53:41Z</time>
      </trkpt>
      <trkpt lat="42.97593" lon="0.30829">
        <ele>1858.3</ele>
        <time>2026-07-07T08:53:42Z</time>
      </trkpt>
      <trkpt lat="42.97593" lon="0.30828">
        <ele>1858.3</ele>
        <time>2026-07-07T08:53:42Z</time>
      </trkpt>
      <trkpt lat="42.97593" lon="0.30828">
        <ele>1858.3</ele>
        <time>2026-07-07T08:53:43Z</time>
      </trkpt>
      <trkpt lat="42.97593" lon="0.30828">
        <ele>1857.3</ele>
        <time>2026-07-07T08:53:44Z</time>
      </trkpt>
      <trkpt lat="42.97593" lon="0.30827">
        <ele>1857.3</ele>
        <time>2026-07-07T08:53:45Z</time>
      </trkpt>
      <trkpt lat="42.97593" lon="0.30827">
        <ele>1857.3</ele>
        <time>2026-07-07T08:53:46Z</time>
      </trkpt>
      <trkpt lat="42.97593" lon="0.30827">
        <ele>1857.3</ele>
        <time>2026-07-07T08:53:47Z</time>
      </trkpt>
      <trkpt lat="42.97594" lon="0.30826">
        <ele>1857.3</ele>
        <time>2026-07-07T08:53:48Z</time>
      </trkpt>
      <trkpt lat="42.97594" lon="0.30826">
        <ele>1857.3</ele>
        <time>2026-07-07T08:53:49Z</time>
      </trkpt>
      <trkpt lat="42.97594" lon="0.30826">
        <ele>1857.3</ele>
        <time>2026-07-07T08:53:50Z</time>
      </trkpt>
      <trkpt lat="42.97594" lon="0.30826">
        <ele>1857.3</ele>
        <time>2026-07-07T08:53:51Z</time>
      </trkpt>
      <trkpt lat="42.97594" lon="0.30825">
        <ele>1857.3</ele>
        <time>2026-07-07T08:53:52Z</time>
      </trkpt>
      <trkpt lat="42.97594" lon="0.30825">
        <ele>1858.3</ele>
        <time>2026-07-07T08:53:53Z</time>
      </trkpt>
      <trkpt lat="42.97595" lon="0.30825">
        <ele>1858.3</ele>
        <time>2026-07-07T08:53:54Z</time>
      </trkpt>
      <trkpt lat="42.97595" lon="0.30825">
        <ele>1858.3</ele>
        <time>2026-07-07T08:53:55Z</time>
      </trkpt>
      <trkpt lat="42.97595" lon="0.30824">
        <ele>1857.3</ele>
        <time>2026-07-07T08:53:56Z</time>
      </trkpt>
      <trkpt lat="42.97595" lon="0.30824">
        <ele>1858.3</ele>
        <time>2026-07-07T08:53:57Z</time>
      </trkpt>
      <trkpt lat="42.97595" lon="0.30824">
        <ele>1857.3</ele>
        <time>2026-07-07T08:53:58Z</time>
      </trkpt>
      <trkpt lat="42.97596" lon="0.30823">
        <ele>1858.3</ele>
        <time>2026-07-07T08:53:58Z</time>
      </trkpt>
      <trkpt lat="42.97596" lon="0.30823">
        <ele>1858.3</ele>
        <time>2026-07-07T08:53:59Z</time>
      </trkpt>
      <trkpt lat="42.97597" lon="0.30822">
        <ele>1858.3</ele>
        <time>2026-07-07T08:54:00Z</time>
      </trkpt>
      <trkpt lat="42.97597" lon="0.30821">
        <ele>1857.3</ele>
        <time>2026-07-07T08:54:01Z</time>
      </trkpt>
      <trkpt lat="42.97597" lon="0.30821">
        <ele>1858.3</ele>
        <time>2026-07-07T08:54:02Z</time>
      </trkpt>
      <trkpt lat="42.97597" lon="0.30821">
        <ele>1858.3</ele>
        <time>2026-07-07T08:54:03Z</time>
      </trkpt>
      <trkpt lat="42.97597" lon="0.30821">
        <ele>1858.3</ele>
        <time>2026-07-07T08:54:04Z</time>
      </trkpt>
      <trkpt lat="42.97598" lon="0.3082">
        <ele>1858.3</ele>
        <time>2026-07-07T08:54:05Z</time>
      </trkpt>
      <trkpt lat="42.97598" lon="0.3082">
        <ele>1858.3</ele>
        <time>2026-07-07T08:54:06Z</time>
      </trkpt>
      <trkpt lat="42.97598" lon="0.3082">
        <ele>1858.3</ele>
        <time>2026-07-07T08:54:07Z</time>
      </trkpt>
      <trkpt lat="42.97598" lon="0.30819">
        <ele>1858.3</ele>
        <time>2026-07-07T08:54:08Z</time>
      </trkpt>
      <trkpt lat="42.97598" lon="0.30819">
        <ele>1858.3</ele>
        <time>2026-07-07T08:54:09Z</time>
      </trkpt>
      <trkpt lat="42.97598" lon="0.30819">
        <ele>1858.3</ele>
        <time>2026-07-07T08:54:10Z</time>
      </trkpt>
      <trkpt lat="42.97598" lon="0.30819">
        <ele>1858.3</ele>
        <time>2026-07-07T08:54:10Z</time>
      </trkpt>
      <trkpt lat="42.97598" lon="0.30819">
        <ele>1859.3</ele>
        <time>2026-07-07T08:54:11Z</time>
      </trkpt>
      <trkpt lat="42.97599" lon="0.30819">
        <ele>1858.3</ele>
        <time>2026-07-07T08:54:12Z</time>
      </trkpt>
      <trkpt lat="42.97599" lon="0.30819">
        <ele>1858.3</ele>
        <time>2026-07-07T08:54:13Z</time>
      </trkpt>
      <trkpt lat="42.97599" lon="0.30818">
        <ele>1858.3</ele>
        <time>2026-07-07T08:54:14Z</time>
      </trkpt>
      <trkpt lat="42.97599" lon="0.30818">
        <ele>1857.3</ele>
        <time>2026-07-07T08:54:15Z</time>
      </trkpt>
      <trkpt lat="42.97599" lon="0.30818">
        <ele>1857.3</ele>
        <time>2026-07-07T08:54:16Z</time>
      </trkpt>
      <trkpt lat="42.976" lon="0.30817">
        <ele>1857.3</ele>
        <time>2026-07-07T08:54:17Z</time>
      </trkpt>
      <trkpt lat="42.976" lon="0.30817">
        <ele>1856.3</ele>
        <time>2026-07-07T08:54:18Z</time>
      </trkpt>
      <trkpt lat="42.976" lon="0.30817">
        <ele>1856.3</ele>
        <time>2026-07-07T08:54:19Z</time>
      </trkpt>
      <trkpt lat="42.976" lon="0.30816">
        <ele>1855.3</ele>
        <time>2026-07-07T08:54:20Z</time>
      </trkpt>
      <trkpt lat="42.976" lon="0.30815">
        <ele>1855.3</ele>
        <time>2026-07-07T08:54:21Z</time>
      </trkpt>
      <trkpt lat="42.97601" lon="0.30814">
        <ele>1855.3</ele>
        <time>2026-07-07T08:54:21Z</time>
      </trkpt>
      <trkpt lat="42.97601" lon="0.30813">
        <ele>1855.3</ele>
        <time>2026-07-07T08:54:22Z</time>
      </trkpt>
      <trkpt lat="42.97601" lon="0.30813">
        <ele>1855.3</ele>
        <time>2026-07-07T08:54:23Z</time>
      </trkpt>
      <trkpt lat="42.97601" lon="0.30813">
        <ele>1854.3</ele>
        <time>2026-07-07T08:54:24Z</time>
      </trkpt>
      <trkpt lat="42.97601" lon="0.30812">
        <ele>1854.3</ele>
        <time>2026-07-07T08:54:25Z</time>
      </trkpt>
      <trkpt lat="42.97601" lon="0.30812">
        <ele>1854.3</ele>
        <time>2026-07-07T08:54:26Z</time>
      </trkpt>
      <trkpt lat="42.97601" lon="0.30812">
        <ele>1853.3</ele>
        <time>2026-07-07T08:54:26Z</time>
      </trkpt>
      <trkpt lat="42.97602" lon="0.30811">
        <ele>1854.3</ele>
        <time>2026-07-07T08:54:27Z</time>
      </trkpt>
      <trkpt lat="42.97602" lon="0.30811">
        <ele>1854.3</ele>
        <time>2026-07-07T08:54:28Z</time>
      </trkpt>
      <trkpt lat="42.97602" lon="0.3081">
        <ele>1853.3</ele>
        <time>2026-07-07T08:54:29Z</time>
      </trkpt>
      <trkpt lat="42.97602" lon="0.30809">
        <ele>1854.3</ele>
        <time>2026-07-07T08:54:30Z</time>
      </trkpt>
      <trkpt lat="42.97602" lon="0.30809">
        <ele>1854.3</ele>
        <time>2026-07-07T08:54:31Z</time>
      </trkpt>
      <trkpt lat="42.97602" lon="0.30808">
        <ele>1854.3</ele>
        <time>2026-07-07T08:54:32Z</time>
      </trkpt>
      <trkpt lat="42.97602" lon="0.30806">
        <ele>1854.3</ele>
        <time>2026-07-07T08:54:33Z</time>
      </trkpt>
      <trkpt lat="42.97603" lon="0.30805">
        <ele>1854.3</ele>
        <time>2026-07-07T08:54:34Z</time>
      </trkpt>
      <trkpt lat="42.97603" lon="0.30804">
        <ele>1854.3</ele>
        <time>2026-07-07T08:54:34Z</time>
      </trkpt>
      <trkpt lat="42.97603" lon="0.30803">
        <ele>1855.3</ele>
        <time>2026-07-07T08:54:35Z</time>
      </trkpt>
      <trkpt lat="42.97604" lon="0.30802">
        <ele>1856.3</ele>
        <time>2026-07-07T08:54:36Z</time>
      </trkpt>
      <trkpt lat="42.97605" lon="0.30801">
        <ele>1856.3</ele>
        <time>2026-07-07T08:54:37Z</time>
      </trkpt>
      <trkpt lat="42.97605" lon="0.308">
        <ele>1856.3</ele>
        <time>2026-07-07T08:54:38Z</time>
      </trkpt>
      <trkpt lat="42.97605" lon="0.30799">
        <ele>1856.3</ele>
        <time>2026-07-07T08:54:39Z</time>
      </trkpt>
      <trkpt lat="42.97606" lon="0.30798">
        <ele>1856.3</ele>
        <time>2026-07-07T08:54:39Z</time>
      </trkpt>
      <trkpt lat="42.97606" lon="0.30797">
        <ele>1857.3</ele>
        <time>2026-07-07T08:54:40Z</time>
      </trkpt>
      <trkpt lat="42.97606" lon="0.30796">
        <ele>1857.3</ele>
        <time>2026-07-07T08:54:41Z</time>
      </trkpt>
      <trkpt lat="42.97607" lon="0.30795">
        <ele>1857.3</ele>
        <time>2026-07-07T08:54:42Z</time>
      </trkpt>
      <trkpt lat="42.97607" lon="0.30794">
        <ele>1857.3</ele>
        <time>2026-07-07T08:54:43Z</time>
      </trkpt>
      <trkpt lat="42.97607" lon="0.30794">
        <ele>1857.3</ele>
        <time>2026-07-07T08:54:44Z</time>
      </trkpt>
      <trkpt lat="42.97608" lon="0.30793">
        <ele>1857.3</ele>
        <time>2026-07-07T08:54:45Z</time>
      </trkpt>
      <trkpt lat="42.97608" lon="0.30793">
        <ele>1857.3</ele>
        <time>2026-07-07T08:54:45Z</time>
      </trkpt>
      <trkpt lat="42.97608" lon="0.30792">
        <ele>1857.3</ele>
        <time>2026-07-07T08:54:46Z</time>
      </trkpt>
      <trkpt lat="42.97608" lon="0.30791">
        <ele>1857.3</ele>
        <time>2026-07-07T08:54:47Z</time>
      </trkpt>
      <trkpt lat="42.97609" lon="0.3079">
        <ele>1858.3</ele>
        <time>2026-07-07T08:54:48Z</time>
      </trkpt>
      <trkpt lat="42.97609" lon="0.3079">
        <ele>1858.3</ele>
        <time>2026-07-07T08:54:49Z</time>
      </trkpt>
      <trkpt lat="42.9761" lon="0.30789">
        <ele>1858.3</ele>
        <time>2026-07-07T08:54:50Z</time>
      </trkpt>
      <trkpt lat="42.9761" lon="0.30789">
        <ele>1858.3</ele>
        <time>2026-07-07T08:54:50Z</time>
      </trkpt>
      <trkpt lat="42.9761" lon="0.30789">
        <ele>1858.3</ele>
        <time>2026-07-07T08:54:51Z</time>
      </trkpt>
      <trkpt lat="42.97611" lon="0.30788">
        <ele>1858.3</ele>
        <time>2026-07-07T08:54:52Z</time>
      </trkpt>
      <trkpt lat="42.97612" lon="0.30788">
        <ele>1858.3</ele>
        <time>2026-07-07T08:54:53Z</time>
      </trkpt>
      <trkpt lat="42.97612" lon="0.30787">
        <ele>1858.3</ele>
        <time>2026-07-07T08:54:54Z</time>
      </trkpt>
      <trkpt lat="42.97612" lon="0.30787">
        <ele>1858.3</ele>
        <time>2026-07-07T08:54:55Z</time>
      </trkpt>
      <trkpt lat="42.97612" lon="0.30786">
        <ele>1858.3</ele>
        <time>2026-07-07T08:54:56Z</time>
      </trkpt>
      <trkpt lat="42.97613" lon="0.30786">
        <ele>1857.3</ele>
        <time>2026-07-07T08:54:57Z</time>
      </trkpt>
      <trkpt lat="42.97613" lon="0.30786">
        <ele>1857.3</ele>
        <time>2026-07-07T08:54:57Z</time>
      </trkpt>
      <trkpt lat="42.97613" lon="0.30786">
        <ele>1857.3</ele>
        <time>2026-07-07T08:54:58Z</time>
      </trkpt>
      <trkpt lat="42.97614" lon="0.30785">
        <ele>1857.3</ele>
        <time>2026-07-07T08:54:59Z</time>
      </trkpt>
      <trkpt lat="42.97614" lon="0.30785">
        <ele>1858.3</ele>
        <time>2026-07-07T08:55:00Z</time>
      </trkpt>
      <trkpt lat="42.97614" lon="0.30785">
        <ele>1859.3</ele>
        <time>2026-07-07T08:55:01Z</time>
      </trkpt>
      <trkpt lat="42.97614" lon="0.30784">
        <ele>1859.3</ele>
        <time>2026-07-07T08:55:02Z</time>
      </trkpt>
      <trkpt lat="42.97614" lon="0.30784">
        <ele>1859.3</ele>
        <time>2026-07-07T08:55:03Z</time>
      </trkpt>
      <trkpt lat="42.97615" lon="0.30783">
        <ele>1859.3</ele>
        <time>2026-07-07T08:55:04Z</time>
      </trkpt>
      <trkpt lat="42.97615" lon="0.30783">
        <ele>1860.3</ele>
        <time>2026-07-07T08:55:04Z</time>
      </trkpt>
      <trkpt lat="42.97615" lon="0.30783">
        <ele>1860.3</ele>
        <time>2026-07-07T08:55:05Z</time>
      </trkpt>
      <trkpt lat="42.97615" lon="0.30783">
        <ele>1860.3</ele>
        <time>2026-07-07T08:55:06Z</time>
      </trkpt>
      <trkpt lat="42.97615" lon="0.30783">
        <ele>1861.3</ele>
        <time>2026-07-07T08:55:06Z</time>
      </trkpt>
      <trkpt lat="42.97615" lon="0.30783">
        <ele>1861.3</ele>
        <time>2026-07-07T08:55:07Z</time>
      </trkpt>
      <trkpt lat="42.97615" lon="0.30783">
        <ele>1861.3</ele>
        <time>2026-07-07T08:55:08Z</time>
      </trkpt>
      <trkpt lat="42.97615" lon="0.30783">
        <ele>1860.3</ele>
        <time>2026-07-07T08:55:09Z</time>
      </trkpt>
      <trkpt lat="42.97615" lon="0.30783">
        <ele>1860.3</ele>
        <time>2026-07-07T08:55:10Z</time>
      </trkpt>
      <trkpt lat="42.97615" lon="0.30782">
        <ele>1860.3</ele>
        <time>2026-07-07T08:55:11Z</time>
      </trkpt>
      <trkpt lat="42.97616" lon="0.30782">
        <ele>1860.3</ele>
        <time>2026-07-07T08:55:12Z</time>
      </trkpt>
      <trkpt lat="42.97616" lon="0.30782">
        <ele>1861.3</ele>
        <time>2026-07-07T08:55:13Z</time>
      </trkpt>
      <trkpt lat="42.97616" lon="0.30781">
        <ele>1861.3</ele>
        <time>2026-07-07T08:55:14Z</time>
      </trkpt>
      <trkpt lat="42.97617" lon="0.30781">
        <ele>1861.3</ele>
        <time>2026-07-07T08:55:15Z</time>
      </trkpt>
      <trkpt lat="42.97617" lon="0.3078">
        <ele>1861.3</ele>
        <time>2026-07-07T08:55:16Z</time>
      </trkpt>
      <trkpt lat="42.97618" lon="0.3078">
        <ele>1861.3</ele>
        <time>2026-07-07T08:55:17Z</time>
      </trkpt>
      <trkpt lat="42.97618" lon="0.30779">
        <ele>1862.3</ele>
        <time>2026-07-07T08:55:18Z</time>
      </trkpt>
      <trkpt lat="42.97618" lon="0.30778">
        <ele>1862.3</ele>
        <time>2026-07-07T08:55:18Z</time>
      </trkpt>
      <trkpt lat="42.97619" lon="0.30778">
        <ele>1862.3</ele>
        <time>2026-07-07T08:55:19Z</time>
      </trkpt>
      <trkpt lat="42.97619" lon="0.30777">
        <ele>1862.3</ele>
        <time>2026-07-07T08:55:20Z</time>
      </trkpt>
      <trkpt lat="42.9762" lon="0.30776">
        <ele>1862.3</ele>
        <time>2026-07-07T08:55:21Z</time>
      </trkpt>
      <trkpt lat="42.9762" lon="0.30775">
        <ele>1862.3</ele>
        <time>2026-07-07T08:55:22Z</time>
      </trkpt>
      <trkpt lat="42.97621" lon="0.30774">
        <ele>1862.3</ele>
        <time>2026-07-07T08:55:23Z</time>
      </trkpt>
      <trkpt lat="42.97621" lon="0.30773">
        <ele>1862.3</ele>
        <time>2026-07-07T08:55:24Z</time>
      </trkpt>
      <trkpt lat="42.97622" lon="0.30773">
        <ele>1862.3</ele>
        <time>2026-07-07T08:55:25Z</time>
      </trkpt>
      <trkpt lat="42.97622" lon="0.30772">
        <ele>1862.3</ele>
        <time>2026-07-07T08:55:26Z</time>
      </trkpt>
      <trkpt lat="42.97622" lon="0.30772">
        <ele>1862.3</ele>
        <time>2026-07-07T08:55:27Z</time>
      </trkpt>
      <trkpt lat="42.97622" lon="0.30772">
        <ele>1863.3</ele>
        <time>2026-07-07T08:55:28Z</time>
      </trkpt>
      <trkpt lat="42.97623" lon="0.30771">
        <ele>1863.3</ele>
        <time>2026-07-07T08:55:29Z</time>
      </trkpt>
      <trkpt lat="42.97623" lon="0.30771">
        <ele>1863.3</ele>
        <time>2026-07-07T08:55:30Z</time>
      </trkpt>
      <trkpt lat="42.97623" lon="0.3077">
        <ele>1863.3</ele>
        <time>2026-07-07T08:55:30Z</time>
      </trkpt>
      <trkpt lat="42.97624" lon="0.3077">
        <ele>1863.3</ele>
        <time>2026-07-07T08:55:31Z</time>
      </trkpt>
      <trkpt lat="42.97624" lon="0.30769">
        <ele>1863.3</ele>
        <time>2026-07-07T08:55:32Z</time>
      </trkpt>
      <trkpt lat="42.97624" lon="0.30768">
        <ele>1863.3</ele>
        <time>2026-07-07T08:55:33Z</time>
      </trkpt>
      <trkpt lat="42.97625" lon="0.30768">
        <ele>1864.3</ele>
        <time>2026-07-07T08:55:34Z</time>
      </trkpt>
      <trkpt lat="42.97625" lon="0.30768">
        <ele>1864.3</ele>
        <time>2026-07-07T08:55:35Z</time>
      </trkpt>
      <trkpt lat="42.97625" lon="0.30767">
        <ele>1864.3</ele>
        <time>2026-07-07T08:55:36Z</time>
      </trkpt>
      <trkpt lat="42.97625" lon="0.30767">
        <ele>1864.3</ele>
        <time>2026-07-07T08:55:37Z</time>
      </trkpt>
      <trkpt lat="42.97625" lon="0.30767">
        <ele>1864.3</ele>
        <time>2026-07-07T08:55:38Z</time>
      </trkpt>
      <trkpt lat="42.97625" lon="0.30768">
        <ele>1864.3</ele>
        <time>2026-07-07T08:55:39Z</time>
      </trkpt>
      <trkpt lat="42.97625" lon="0.30767">
        <ele>1864.3</ele>
        <time>2026-07-07T08:55:40Z</time>
      </trkpt>
      <trkpt lat="42.97625" lon="0.30767">
        <ele>1864.3</ele>
        <time>2026-07-07T08:55:41Z</time>
      </trkpt>
      <trkpt lat="42.97626" lon="0.30767">
        <ele>1865.3</ele>
        <time>2026-07-07T08:55:42Z</time>
      </trkpt>
      <trkpt lat="42.97626" lon="0.30767">
        <ele>1866.3</ele>
        <time>2026-07-07T08:55:43Z</time>
      </trkpt>
      <trkpt lat="42.97626" lon="0.30766">
        <ele>1865.3</ele>
        <time>2026-07-07T08:55:44Z</time>
      </trkpt>
      <trkpt lat="42.97626" lon="0.30766">
        <ele>1864.3</ele>
        <time>2026-07-07T08:55:45Z</time>
      </trkpt>
      <trkpt lat="42.97626" lon="0.30765">
        <ele>1864.3</ele>
        <time>2026-07-07T08:55:46Z</time>
      </trkpt>
      <trkpt lat="42.97626" lon="0.30765">
        <ele>1865.3</ele>
        <time>2026-07-07T08:55:47Z</time>
      </trkpt>
      <trkpt lat="42.97626" lon="0.30765">
        <ele>1865.3</ele>
        <time>2026-07-07T08:55:48Z</time>
      </trkpt>
      <trkpt lat="42.97627" lon="0.30764">
        <ele>1866.3</ele>
        <time>2026-07-07T08:55:49Z</time>
      </trkpt>
      <trkpt lat="42.97627" lon="0.30764">
        <ele>1866.3</ele>
        <time>2026-07-07T08:55:50Z</time>
      </trkpt>
      <trkpt lat="42.97627" lon="0.30764">
        <ele>1866.3</ele>
        <time>2026-07-07T08:55:50Z</time>
      </trkpt>
      <trkpt lat="42.97627" lon="0.30764">
        <ele>1866.3</ele>
        <time>2026-07-07T08:55:51Z</time>
      </trkpt>
      <trkpt lat="42.97628" lon="0.30763">
        <ele>1867.3</ele>
        <time>2026-07-07T08:55:52Z</time>
      </trkpt>
      <trkpt lat="42.97628" lon="0.30762">
        <ele>1866.3</ele>
        <time>2026-07-07T08:55:53Z</time>
      </trkpt>
      <trkpt lat="42.97628" lon="0.30761">
        <ele>1867.3</ele>
        <time>2026-07-07T08:55:54Z</time>
      </trkpt>
      <trkpt lat="42.97629" lon="0.30761">
        <ele>1868.3</ele>
        <time>2026-07-07T08:55:55Z</time>
      </trkpt>
      <trkpt lat="42.97629" lon="0.3076">
        <ele>1868.3</ele>
        <time>2026-07-07T08:55:56Z</time>
      </trkpt>
      <trkpt lat="42.9763" lon="0.3076">
        <ele>1868.3</ele>
        <time>2026-07-07T08:55:57Z</time>
      </trkpt>
      <trkpt lat="42.9763" lon="0.3076">
        <ele>1868.3</ele>
        <time>2026-07-07T08:55:58Z</time>
      </trkpt>
      <trkpt lat="42.9763" lon="0.3076">
        <ele>1868.3</ele>
        <time>2026-07-07T08:55:59Z</time>
      </trkpt>
      <trkpt lat="42.9763" lon="0.30759">
        <ele>1869.3</ele>
        <time>2026-07-07T08:56:00Z</time>
      </trkpt>
      <trkpt lat="42.97631" lon="0.30759">
        <ele>1869.3</ele>
        <time>2026-07-07T08:56:01Z</time>
      </trkpt>
      <trkpt lat="42.97631" lon="0.30759">
        <ele>1869.3</ele>
        <time>2026-07-07T08:56:02Z</time>
      </trkpt>
      <trkpt lat="42.97631" lon="0.30758">
        <ele>1868.3</ele>
        <time>2026-07-07T08:56:03Z</time>
      </trkpt>
      <trkpt lat="42.97631" lon="0.30758">
        <ele>1868.3</ele>
        <time>2026-07-07T08:56:04Z</time>
      </trkpt>
      <trkpt lat="42.97631" lon="0.30758">
        <ele>1868.3</ele>
        <time>2026-07-07T08:56:05Z</time>
      </trkpt>
      <trkpt lat="42.97631" lon="0.30758">
        <ele>1869.3</ele>
        <time>2026-07-07T08:56:05Z</time>
      </trkpt>
      <trkpt lat="42.97632" lon="0.30757">
        <ele>1869.3</ele>
        <time>2026-07-07T08:56:06Z</time>
      </trkpt>
      <trkpt lat="42.97632" lon="0.30757">
        <ele>1870.3</ele>
        <time>2026-07-07T08:56:07Z</time>
      </trkpt>
      <trkpt lat="42.97632" lon="0.30756">
        <ele>1870.3</ele>
        <time>2026-07-07T08:56:08Z</time>
      </trkpt>
      <trkpt lat="42.97633" lon="0.30755">
        <ele>1869.3</ele>
        <time>2026-07-07T08:56:09Z</time>
      </trkpt>
      <trkpt lat="42.97633" lon="0.30754">
        <ele>1870.3</ele>
        <time>2026-07-07T08:56:10Z</time>
      </trkpt>
      <trkpt lat="42.97633" lon="0.30754">
        <ele>1871.3</ele>
        <time>2026-07-07T08:56:11Z</time>
      </trkpt>
      <trkpt lat="42.97633" lon="0.30753">
        <ele>1871.3</ele>
        <time>2026-07-07T08:56:12Z</time>
      </trkpt>
      <trkpt lat="42.97634" lon="0.30752">
        <ele>1871.3</ele>
        <time>2026-07-07T08:56:13Z</time>
      </trkpt>
      <trkpt lat="42.97634" lon="0.30752">
        <ele>1872.3</ele>
        <time>2026-07-07T08:56:13Z</time>
      </trkpt>
      <trkpt lat="42.97634" lon="0.30752">
        <ele>1872.3</ele>
        <time>2026-07-07T08:56:14Z</time>
      </trkpt>
      <trkpt lat="42.97635" lon="0.30752">
        <ele>1872.3</ele>
        <time>2026-07-07T08:56:15Z</time>
      </trkpt>
      <trkpt lat="42.97635" lon="0.30751">
        <ele>1872.3</ele>
        <time>2026-07-07T08:56:16Z</time>
      </trkpt>
      <trkpt lat="42.97635" lon="0.30751">
        <ele>1872.3</ele>
        <time>2026-07-07T08:56:17Z</time>
      </trkpt>
      <trkpt lat="42.97636" lon="0.30751">
        <ele>1872.3</ele>
        <time>2026-07-07T08:56:18Z</time>
      </trkpt>
      <trkpt lat="42.97635" lon="0.30751">
        <ele>1872.3</ele>
        <time>2026-07-07T08:56:19Z</time>
      </trkpt>
      <trkpt lat="42.97635" lon="0.30751">
        <ele>1873.3</ele>
        <time>2026-07-07T08:56:20Z</time>
      </trkpt>
      <trkpt lat="42.97635" lon="0.30751">
        <ele>1873.3</ele>
        <time>2026-07-07T08:56:21Z</time>
      </trkpt>
      <trkpt lat="42.97635" lon="0.30751">
        <ele>1873.3</ele>
        <time>2026-07-07T08:56:22Z</time>
      </trkpt>
      <trkpt lat="42.97636" lon="0.30751">
        <ele>1873.3</ele>
        <time>2026-07-07T08:56:22Z</time>
      </trkpt>
      <trkpt lat="42.97636" lon="0.30751">
        <ele>1873.3</ele>
        <time>2026-07-07T08:56:23Z</time>
      </trkpt>
      <trkpt lat="42.97636" lon="0.30751">
        <ele>1873.3</ele>
        <time>2026-07-07T08:56:23Z</time>
      </trkpt>
      <trkpt lat="42.97636" lon="0.30751">
        <ele>1873.3</ele>
        <time>2026-07-07T08:56:24Z</time>
      </trkpt>
      <trkpt lat="42.97636" lon="0.30751">
        <ele>1873.3</ele>
        <time>2026-07-07T08:56:25Z</time>
      </trkpt>
      <trkpt lat="42.97636" lon="0.3075">
        <ele>1873.3</ele>
        <time>2026-07-07T08:56:25Z</time>
      </trkpt>
      <trkpt lat="42.97637" lon="0.3075">
        <ele>1873.3</ele>
        <time>2026-07-07T08:56:26Z</time>
      </trkpt>
      <trkpt lat="42.97637" lon="0.3075">
        <ele>1873.3</ele>
        <time>2026-07-07T08:56:27Z</time>
      </trkpt>
      <trkpt lat="42.97637" lon="0.3075">
        <ele>1873.3</ele>
        <time>2026-07-07T08:56:27Z</time>
      </trkpt>
      <trkpt lat="42.97637" lon="0.30749">
        <ele>1874.3</ele>
        <time>2026-07-07T08:56:28Z</time>
      </trkpt>
      <trkpt lat="42.97638" lon="0.30749">
        <ele>1874.3</ele>
        <time>2026-07-07T08:56:29Z</time>
      </trkpt>
      <trkpt lat="42.97638" lon="0.30749">
        <ele>1873.3</ele>
        <time>2026-07-07T08:56:30Z</time>
      </trkpt>
      <trkpt lat="42.97638" lon="0.30749">
        <ele>1873.3</ele>
        <time>2026-07-07T08:56:31Z</time>
      </trkpt>
      <trkpt lat="42.97639" lon="0.30749">
        <ele>1873.3</ele>
        <time>2026-07-07T08:56:32Z</time>
      </trkpt>
      <trkpt lat="42.97639" lon="0.30748">
        <ele>1873.3</ele>
        <time>2026-07-07T08:56:33Z</time>
      </trkpt>
      <trkpt lat="42.9764" lon="0.30748">
        <ele>1873.3</ele>
        <time>2026-07-07T08:56:34Z</time>
      </trkpt>
      <trkpt lat="42.9764" lon="0.30748">
        <ele>1873.3</ele>
        <time>2026-07-07T08:56:35Z</time>
      </trkpt>
      <trkpt lat="42.97641" lon="0.30747">
        <ele>1873.3</ele>
        <time>2026-07-07T08:56:36Z</time>
      </trkpt>
      <trkpt lat="42.97641" lon="0.30747">
        <ele>1873.3</ele>
        <time>2026-07-07T08:56:37Z</time>
      </trkpt>
      <trkpt lat="42.97641" lon="0.30746">
        <ele>1873.3</ele>
        <time>2026-07-07T08:56:38Z</time>
      </trkpt>
      <trkpt lat="42.97642" lon="0.30746">
        <ele>1873.3</ele>
        <time>2026-07-07T08:56:39Z</time>
      </trkpt>
      <trkpt lat="42.97642" lon="0.30746">
        <ele>1873.3</ele>
        <time>2026-07-07T08:56:39Z</time>
      </trkpt>
      <trkpt lat="42.97642" lon="0.30745">
        <ele>1873.3</ele>
        <time>2026-07-07T08:56:40Z</time>
      </trkpt>
      <trkpt lat="42.97642" lon="0.30745">
        <ele>1873.3</ele>
        <time>2026-07-07T08:56:41Z</time>
      </trkpt>
      <trkpt lat="42.97642" lon="0.30744">
        <ele>1873.3</ele>
        <time>2026-07-07T08:56:42Z</time>
      </trkpt>
      <trkpt lat="42.97642" lon="0.30744">
        <ele>1873.3</ele>
        <time>2026-07-07T08:56:43Z</time>
      </trkpt>
      <trkpt lat="42.97642" lon="0.30744">
        <ele>1873.3</ele>
        <time>2026-07-07T08:56:44Z</time>
      </trkpt>
      <trkpt lat="42.97642" lon="0.30744">
        <ele>1873.3</ele>
        <time>2026-07-07T08:56:45Z</time>
      </trkpt>
      <trkpt lat="42.97642" lon="0.30744">
        <ele>1873.3</ele>
        <time>2026-07-07T08:56:46Z</time>
      </trkpt>
      <trkpt lat="42.97642" lon="0.30744">
        <ele>1873.3</ele>
        <time>2026-07-07T08:56:47Z</time>
      </trkpt>
      <trkpt lat="42.97642" lon="0.30744">
        <ele>1873.3</ele>
        <time>2026-07-07T08:56:48Z</time>
      </trkpt>
      <trkpt lat="42.97642" lon="0.30744">
        <ele>1873.3</ele>
        <time>2026-07-07T08:56:49Z</time>
      </trkpt>
      <trkpt lat="42.97642" lon="0.30744">
        <ele>1873.3</ele>
        <time>2026-07-07T08:56:50Z</time>
      </trkpt>
      <trkpt lat="42.97643" lon="0.30744">
        <ele>1874.3</ele>
        <time>2026-07-07T08:56:51Z</time>
      </trkpt>
      <trkpt lat="42.97643" lon="0.30744">
        <ele>1874.3</ele>
        <time>2026-07-07T08:56:52Z</time>
      </trkpt>
      <trkpt lat="42.97643" lon="0.30744">
        <ele>1874.3</ele>
        <time>2026-07-07T08:56:53Z</time>
      </trkpt>
      <trkpt lat="42.97643" lon="0.30744">
        <ele>1873.3</ele>
        <time>2026-07-07T08:56:54Z</time>
      </trkpt>
      <trkpt lat="42.97643" lon="0.30744">
        <ele>1873.3</ele>
        <time>2026-07-07T08:56:55Z</time>
      </trkpt>
      <trkpt lat="42.97644" lon="0.30744">
        <ele>1873.3</ele>
        <time>2026-07-07T08:56:56Z</time>
      </trkpt>
      <trkpt lat="42.97644" lon="0.30744">
        <ele>1873.3</ele>
        <time>2026-07-07T08:56:57Z</time>
      </trkpt>
      <trkpt lat="42.97644" lon="0.30744">
        <ele>1873.3</ele>
        <time>2026-07-07T08:56:58Z</time>
      </trkpt>
      <trkpt lat="42.97644" lon="0.30744">
        <ele>1873.3</ele>
        <time>2026-07-07T08:56:59Z</time>
      </trkpt>
      <trkpt lat="42.97644" lon="0.30744">
        <ele>1873.3</ele>
        <time>2026-07-07T08:57:00Z</time>
      </trkpt>
      <trkpt lat="42.97644" lon="0.30744">
        <ele>1873.3</ele>
        <time>2026-07-07T08:57:01Z</time>
      </trkpt>
      <trkpt lat="42.97644" lon="0.30745">
        <ele>1873.3</ele>
        <time>2026-07-07T08:57:02Z</time>
      </trkpt>
      <trkpt lat="42.97644" lon="0.30745">
        <ele>1873.3</ele>
        <time>2026-07-07T08:57:03Z</time>
      </trkpt>
      <trkpt lat="42.97644" lon="0.30745">
        <ele>1873.3</ele>
        <time>2026-07-07T08:57:04Z</time>
      </trkpt>
      <trkpt lat="42.97644" lon="0.30745">
        <ele>1873.3</ele>
        <time>2026-07-07T08:57:05Z</time>
      </trkpt>
      <trkpt lat="42.97644" lon="0.30745">
        <ele>1873.3</ele>
        <time>2026-07-07T08:57:06Z</time>
      </trkpt>
      <trkpt lat="42.97644" lon="0.30745">
        <ele>1873.3</ele>
        <time>2026-07-07T08:57:07Z</time>
      </trkpt>
      <trkpt lat="42.97644" lon="0.30745">
        <ele>1873.3</ele>
        <time>2026-07-07T08:57:08Z</time>
      </trkpt>
      <trkpt lat="42.97645" lon="0.30744">
        <ele>1873.3</ele>
        <time>2026-07-07T08:57:09Z</time>
      </trkpt>
      <trkpt lat="42.97645" lon="0.30743">
        <ele>1873.3</ele>
        <time>2026-07-07T08:57:10Z</time>
      </trkpt>
      <trkpt lat="42.97645" lon="0.30743">
        <ele>1873.3</ele>
        <time>2026-07-07T08:57:10Z</time>
      </trkpt>
      <trkpt lat="42.97645" lon="0.30742">
        <ele>1873.3</ele>
        <time>2026-07-07T08:57:11Z</time>
      </trkpt>
      <trkpt lat="42.97645" lon="0.30741">
        <ele>1873.3</ele>
        <time>2026-07-07T08:57:12Z</time>
      </trkpt>
      <trkpt lat="42.97646" lon="0.3074">
        <ele>1874.3</ele>
        <time>2026-07-07T08:57:13Z</time>
      </trkpt>
      <trkpt lat="42.97646" lon="0.30739">
        <ele>1874.3</ele>
        <time>2026-07-07T08:57:14Z</time>
      </trkpt>
      <trkpt lat="42.97646" lon="0.30739">
        <ele>1874.3</ele>
        <time>2026-07-07T08:57:15Z</time>
      </trkpt>
      <trkpt lat="42.97647" lon="0.30738">
        <ele>1874.3</ele>
        <time>2026-07-07T08:57:16Z</time>
      </trkpt>
      <trkpt lat="42.97647" lon="0.30737">
        <ele>1874.3</ele>
        <time>2026-07-07T08:57:16Z</time>
      </trkpt>
      <trkpt lat="42.97648" lon="0.30737">
        <ele>1874.3</ele>
        <time>2026-07-07T08:57:17Z</time>
      </trkpt>
      <trkpt lat="42.97648" lon="0.30736">
        <ele>1874.3</ele>
        <time>2026-07-07T08:57:18Z</time>
      </trkpt>
      <trkpt lat="42.97649" lon="0.30735">
        <ele>1874.3</ele>
        <time>2026-07-07T08:57:19Z</time>
      </trkpt>
      <trkpt lat="42.97649" lon="0.30735">
        <ele>1874.3</ele>
        <time>2026-07-07T08:57:20Z</time>
      </trkpt>
      <trkpt lat="42.9765" lon="0.30734">
        <ele>1874.3</ele>
        <time>2026-07-07T08:57:21Z</time>
      </trkpt>
      <trkpt lat="42.9765" lon="0.30734">
        <ele>1875.3</ele>
        <time>2026-07-07T08:57:21Z</time>
      </trkpt>
      <trkpt lat="42.9765" lon="0.30733">
        <ele>1874.3</ele>
        <time>2026-07-07T08:57:22Z</time>
      </trkpt>
      <trkpt lat="42.9765" lon="0.30732">
        <ele>1874.3</ele>
        <time>2026-07-07T08:57:23Z</time>
      </trkpt>
      <trkpt lat="42.9765" lon="0.30731">
        <ele>1875.3</ele>
        <time>2026-07-07T08:57:24Z</time>
      </trkpt>
      <trkpt lat="42.97651" lon="0.3073">
        <ele>1875.3</ele>
        <time>2026-07-07T08:57:25Z</time>
      </trkpt>
      <trkpt lat="42.97651" lon="0.30729">
        <ele>1875.3</ele>
        <time>2026-07-07T08:57:26Z</time>
      </trkpt>
      <trkpt lat="42.97651" lon="0.30728">
        <ele>1875.3</ele>
        <time>2026-07-07T08:57:27Z</time>
      </trkpt>
      <trkpt lat="42.97652" lon="0.30727">
        <ele>1876.3</ele>
        <time>2026-07-07T08:57:28Z</time>
      </trkpt>
      <trkpt lat="42.97652" lon="0.30727">
        <ele>1876.3</ele>
        <time>2026-07-07T08:57:28Z</time>
      </trkpt>
      <trkpt lat="42.97652" lon="0.30727">
        <ele>1877.3</ele>
        <time>2026-07-07T08:57:29Z</time>
      </trkpt>
      <trkpt lat="42.97653" lon="0.30726">
        <ele>1877.3</ele>
        <time>2026-07-07T08:57:30Z</time>
      </trkpt>
      <trkpt lat="42.97653" lon="0.30726">
        <ele>1877.3</ele>
        <time>2026-07-07T08:57:31Z</time>
      </trkpt>
      <trkpt lat="42.97653" lon="0.30726">
        <ele>1878.3</ele>
        <time>2026-07-07T08:57:32Z</time>
      </trkpt>
      <trkpt lat="42.97653" lon="0.30726">
        <ele>1879.3</ele>
        <time>2026-07-07T08:57:32Z</time>
      </trkpt>
      <trkpt lat="42.97653" lon="0.30725">
        <ele>1879.3</ele>
        <time>2026-07-07T08:57:33Z</time>
      </trkpt>
      <trkpt lat="42.97653" lon="0.30725">
        <ele>1880.3</ele>
        <time>2026-07-07T08:57:34Z</time>
      </trkpt>
      <trkpt lat="42.97654" lon="0.30724">
        <ele>1880.3</ele>
        <time>2026-07-07T08:57:35Z</time>
      </trkpt>
      <trkpt lat="42.97654" lon="0.30723">
        <ele>1880.3</ele>
        <time>2026-07-07T08:57:36Z</time>
      </trkpt>
      <trkpt lat="42.97654" lon="0.30722">
        <ele>1880.3</ele>
        <time>2026-07-07T08:57:37Z</time>
      </trkpt>
      <trkpt lat="42.97654" lon="0.30721">
        <ele>1880.3</ele>
        <time>2026-07-07T08:57:38Z</time>
      </trkpt>
      <trkpt lat="42.97655" lon="0.30721">
        <ele>1880.3</ele>
        <time>2026-07-07T08:57:39Z</time>
      </trkpt>
      <trkpt lat="42.97655" lon="0.3072">
        <ele>1881.3</ele>
        <time>2026-07-07T08:57:39Z</time>
      </trkpt>
      <trkpt lat="42.97655" lon="0.3072">
        <ele>1882.3</ele>
        <time>2026-07-07T08:57:40Z</time>
      </trkpt>
      <trkpt lat="42.97655" lon="0.30719">
        <ele>1882.3</ele>
        <time>2026-07-07T08:57:41Z</time>
      </trkpt>
      <trkpt lat="42.97655" lon="0.30718">
        <ele>1882.3</ele>
        <time>2026-07-07T08:57:42Z</time>
      </trkpt>
      <trkpt lat="42.97656" lon="0.30717">
        <ele>1882.3</ele>
        <time>2026-07-07T08:57:43Z</time>
      </trkpt>
      <trkpt lat="42.97656" lon="0.30717">
        <ele>1883.3</ele>
        <time>2026-07-07T08:57:44Z</time>
      </trkpt>
      <trkpt lat="42.97657" lon="0.30716">
        <ele>1882.3</ele>
        <time>2026-07-07T08:57:45Z</time>
      </trkpt>
      <trkpt lat="42.97657" lon="0.30716">
        <ele>1882.3</ele>
        <time>2026-07-07T08:57:46Z</time>
      </trkpt>
      <trkpt lat="42.97658" lon="0.30716">
        <ele>1882.3</ele>
        <time>2026-07-07T08:57:47Z</time>
      </trkpt>
      <trkpt lat="42.97658" lon="0.30715">
        <ele>1882.3</ele>
        <time>2026-07-07T08:57:48Z</time>
      </trkpt>
      <trkpt lat="42.97658" lon="0.30715">
        <ele>1882.3</ele>
        <time>2026-07-07T08:57:48Z</time>
      </trkpt>
      <trkpt lat="42.97659" lon="0.30714">
        <ele>1882.3</ele>
        <time>2026-07-07T08:57:49Z</time>
      </trkpt>
      <trkpt lat="42.97659" lon="0.30713">
        <ele>1882.3</ele>
        <time>2026-07-07T08:57:50Z</time>
      </trkpt>
      <trkpt lat="42.97659" lon="0.30713">
        <ele>1882.3</ele>
        <time>2026-07-07T08:57:51Z</time>
      </trkpt>
      <trkpt lat="42.97659" lon="0.30712">
        <ele>1882.3</ele>
        <time>2026-07-07T08:57:51Z</time>
      </trkpt>
      <trkpt lat="42.97659" lon="0.30712">
        <ele>1882.3</ele>
        <time>2026-07-07T08:57:52Z</time>
      </trkpt>
      <trkpt lat="42.97659" lon="0.30711">
        <ele>1882.3</ele>
        <time>2026-07-07T08:57:52Z</time>
      </trkpt>
      <trkpt lat="42.97659" lon="0.3071">
        <ele>1882.3</ele>
        <time>2026-07-07T08:57:53Z</time>
      </trkpt>
      <trkpt lat="42.97659" lon="0.30709">
        <ele>1882.3</ele>
        <time>2026-07-07T08:57:54Z</time>
      </trkpt>
      <trkpt lat="42.97659" lon="0.30709">
        <ele>1883.3</ele>
        <time>2026-07-07T08:57:55Z</time>
      </trkpt>
      <trkpt lat="42.9766" lon="0.30708">
        <ele>1884.3</ele>
        <time>2026-07-07T08:57:56Z</time>
      </trkpt>
      <trkpt lat="42.9766" lon="0.30707">
        <ele>1884.3</ele>
        <time>2026-07-07T08:57:57Z</time>
      </trkpt>
      <trkpt lat="42.9766" lon="0.30707">
        <ele>1884.3</ele>
        <time>2026-07-07T08:57:58Z</time>
      </trkpt>
      <trkpt lat="42.9766" lon="0.30707">
        <ele>1884.3</ele>
        <time>2026-07-07T08:57:58Z</time>
      </trkpt>
      <trkpt lat="42.9766" lon="0.30706">
        <ele>1883.3</ele>
        <time>2026-07-07T08:57:59Z</time>
      </trkpt>
      <trkpt lat="42.9766" lon="0.30706">
        <ele>1884.3</ele>
        <time>2026-07-07T08:58:00Z</time>
      </trkpt>
      <trkpt lat="42.9766" lon="0.30705">
        <ele>1884.3</ele>
        <time>2026-07-07T08:58:01Z</time>
      </trkpt>
      <trkpt lat="42.9766" lon="0.30705">
        <ele>1883.3</ele>
        <time>2026-07-07T08:58:02Z</time>
      </trkpt>
      <trkpt lat="42.97661" lon="0.30704">
        <ele>1883.3</ele>
        <time>2026-07-07T08:58:03Z</time>
      </trkpt>
      <trkpt lat="42.97661" lon="0.30703">
        <ele>1883.3</ele>
        <time>2026-07-07T08:58:04Z</time>
      </trkpt>
      <trkpt lat="42.97661" lon="0.30703">
        <ele>1883.3</ele>
        <time>2026-07-07T08:58:05Z</time>
      </trkpt>
      <trkpt lat="42.97661" lon="0.30702">
        <ele>1883.3</ele>
        <time>2026-07-07T08:58:06Z</time>
      </trkpt>
      <trkpt lat="42.97661" lon="0.30702">
        <ele>1883.3</ele>
        <time>2026-07-07T08:58:07Z</time>
      </trkpt>
      <trkpt lat="42.97661" lon="0.30702">
        <ele>1883.3</ele>
        <time>2026-07-07T08:58:07Z</time>
      </trkpt>
      <trkpt lat="42.97661" lon="0.30701">
        <ele>1883.3</ele>
        <time>2026-07-07T08:58:08Z</time>
      </trkpt>
      <trkpt lat="42.97661" lon="0.30701">
        <ele>1883.3</ele>
        <time>2026-07-07T08:58:09Z</time>
      </trkpt>
      <trkpt lat="42.97662" lon="0.30701">
        <ele>1884.3</ele>
        <time>2026-07-07T08:58:09Z</time>
      </trkpt>
      <trkpt lat="42.97662" lon="0.307">
        <ele>1884.3</ele>
        <time>2026-07-07T08:58:10Z</time>
      </trkpt>
      <trkpt lat="42.97662" lon="0.30699">
        <ele>1884.3</ele>
        <time>2026-07-07T08:58:11Z</time>
      </trkpt>
      <trkpt lat="42.97663" lon="0.30698">
        <ele>1884.3</ele>
        <time>2026-07-07T08:58:12Z</time>
      </trkpt>
      <trkpt lat="42.97663" lon="0.30698">
        <ele>1884.3</ele>
        <time>2026-07-07T08:58:13Z</time>
      </trkpt>
      <trkpt lat="42.97664" lon="0.30697">
        <ele>1884.3</ele>
        <time>2026-07-07T08:58:14Z</time>
      </trkpt>
      <trkpt lat="42.97664" lon="0.30697">
        <ele>1884.3</ele>
        <time>2026-07-07T08:58:15Z</time>
      </trkpt>
      <trkpt lat="42.97664" lon="0.30696">
        <ele>1884.3</ele>
        <time>2026-07-07T08:58:16Z</time>
      </trkpt>
      <trkpt lat="42.97664" lon="0.30696">
        <ele>1884.3</ele>
        <time>2026-07-07T08:58:17Z</time>
      </trkpt>
      <trkpt lat="42.97664" lon="0.30695">
        <ele>1885.3</ele>
        <time>2026-07-07T08:58:18Z</time>
      </trkpt>
      <trkpt lat="42.97664" lon="0.30694">
        <ele>1885.3</ele>
        <time>2026-07-07T08:58:19Z</time>
      </trkpt>
      <trkpt lat="42.97665" lon="0.30694">
        <ele>1885.3</ele>
        <time>2026-07-07T08:58:20Z</time>
      </trkpt>
      <trkpt lat="42.97665" lon="0.30693">
        <ele>1885.3</ele>
        <time>2026-07-07T08:58:21Z</time>
      </trkpt>
      <trkpt lat="42.97665" lon="0.30693">
        <ele>1885.3</ele>
        <time>2026-07-07T08:58:22Z</time>
      </trkpt>
      <trkpt lat="42.97665" lon="0.30693">
        <ele>1885.3</ele>
        <time>2026-07-07T08:58:22Z</time>
      </trkpt>
      <trkpt lat="42.97665" lon="0.30692">
        <ele>1886.3</ele>
        <time>2026-07-07T08:58:23Z</time>
      </trkpt>
      <trkpt lat="42.97665" lon="0.30691">
        <ele>1886.3</ele>
        <time>2026-07-07T08:58:24Z</time>
      </trkpt>
      <trkpt lat="42.97665" lon="0.3069">
        <ele>1887.3</ele>
        <time>2026-07-07T08:58:25Z</time>
      </trkpt>
      <trkpt lat="42.97665" lon="0.30689">
        <ele>1887.3</ele>
        <time>2026-07-07T08:58:26Z</time>
      </trkpt>
      <trkpt lat="42.97666" lon="0.30688">
        <ele>1887.3</ele>
        <time>2026-07-07T08:58:27Z</time>
      </trkpt>
      <trkpt lat="42.97666" lon="0.30688">
        <ele>1887.3</ele>
        <time>2026-07-07T08:58:28Z</time>
      </trkpt>
      <trkpt lat="42.97666" lon="0.30688">
        <ele>1887.3</ele>
        <time>2026-07-07T08:58:29Z</time>
      </trkpt>
      <trkpt lat="42.97667" lon="0.30687">
        <ele>1887.3</ele>
        <time>2026-07-07T08:58:30Z</time>
      </trkpt>
      <trkpt lat="42.97667" lon="0.30687">
        <ele>1887.3</ele>
        <time>2026-07-07T08:58:31Z</time>
      </trkpt>
      <trkpt lat="42.97667" lon="0.30686">
        <ele>1887.3</ele>
        <time>2026-07-07T08:58:32Z</time>
      </trkpt>
      <trkpt lat="42.97668" lon="0.30686">
        <ele>1888.3</ele>
        <time>2026-07-07T08:58:33Z</time>
      </trkpt>
      <trkpt lat="42.97668" lon="0.30685">
        <ele>1888.3</ele>
        <time>2026-07-07T08:58:34Z</time>
      </trkpt>
      <trkpt lat="42.97669" lon="0.30685">
        <ele>1888.3</ele>
        <time>2026-07-07T08:58:35Z</time>
      </trkpt>
      <trkpt lat="42.97669" lon="0.30684">
        <ele>1887.3</ele>
        <time>2026-07-07T08:58:36Z</time>
      </trkpt>
      <trkpt lat="42.97669" lon="0.30684">
        <ele>1888.3</ele>
        <time>2026-07-07T08:58:37Z</time>
      </trkpt>
      <trkpt lat="42.97669" lon="0.30684">
        <ele>1888.3</ele>
        <time>2026-07-07T08:58:38Z</time>
      </trkpt>
      <trkpt lat="42.97669" lon="0.30684">
        <ele>1888.3</ele>
        <time>2026-07-07T08:58:39Z</time>
      </trkpt>
      <trkpt lat="42.97669" lon="0.30684">
        <ele>1889.3</ele>
        <time>2026-07-07T08:58:40Z</time>
      </trkpt>
      <trkpt lat="42.9767" lon="0.30683">
        <ele>1890.3</ele>
        <time>2026-07-07T08:58:41Z</time>
      </trkpt>
      <trkpt lat="42.9767" lon="0.30682">
        <ele>1890.3</ele>
        <time>2026-07-07T08:58:42Z</time>
      </trkpt>
      <trkpt lat="42.9767" lon="0.30681">
        <ele>1890.3</ele>
        <time>2026-07-07T08:58:43Z</time>
      </trkpt>
      <trkpt lat="42.97671" lon="0.3068">
        <ele>1891.3</ele>
        <time>2026-07-07T08:58:44Z</time>
      </trkpt>
      <trkpt lat="42.97671" lon="0.3068">
        <ele>1891.3</ele>
        <time>2026-07-07T08:58:45Z</time>
      </trkpt>
      <trkpt lat="42.97671" lon="0.3068">
        <ele>1891.3</ele>
        <time>2026-07-07T08:58:46Z</time>
      </trkpt>
      <trkpt lat="42.97671" lon="0.30679">
        <ele>1890.3</ele>
        <time>2026-07-07T08:58:46Z</time>
      </trkpt>
      <trkpt lat="42.97671" lon="0.30679">
        <ele>1890.3</ele>
        <time>2026-07-07T08:58:47Z</time>
      </trkpt>
      <trkpt lat="42.97671" lon="0.30679">
        <ele>1890.3</ele>
        <time>2026-07-07T08:58:48Z</time>
      </trkpt>
      <trkpt lat="42.97671" lon="0.30679">
        <ele>1890.3</ele>
        <time>2026-07-07T08:58:49Z</time>
      </trkpt>
      <trkpt lat="42.97671" lon="0.30679">
        <ele>1890.3</ele>
        <time>2026-07-07T08:58:50Z</time>
      </trkpt>
      <trkpt lat="42.97672" lon="0.30679">
        <ele>1890.3</ele>
        <time>2026-07-07T08:58:51Z</time>
      </trkpt>
      <trkpt lat="42.97672" lon="0.30679">
        <ele>1890.3</ele>
        <time>2026-07-07T08:58:51Z</time>
      </trkpt>
      <trkpt lat="42.97672" lon="0.30679">
        <ele>1890.3</ele>
        <time>2026-07-07T08:58:52Z</time>
      </trkpt>
      <trkpt lat="42.97672" lon="0.30678">
        <ele>1890.3</ele>
        <time>2026-07-07T08:58:53Z</time>
      </trkpt>
      <trkpt lat="42.97673" lon="0.30678">
        <ele>1891.3</ele>
        <time>2026-07-07T08:58:53Z</time>
      </trkpt>
      <trkpt lat="42.97673" lon="0.30678">
        <ele>1891.3</ele>
        <time>2026-07-07T08:58:54Z</time>
      </trkpt>
      <trkpt lat="42.97673" lon="0.30678">
        <ele>1892.3</ele>
        <time>2026-07-07T08:58:55Z</time>
      </trkpt>
      <trkpt lat="42.97673" lon="0.30677">
        <ele>1893.3</ele>
        <time>2026-07-07T08:58:55Z</time>
      </trkpt>
      <trkpt lat="42.97674" lon="0.30677">
        <ele>1893.3</ele>
        <time>2026-07-07T08:58:56Z</time>
      </trkpt>
      <trkpt lat="42.97674" lon="0.30676">
        <ele>1893.3</ele>
        <time>2026-07-07T08:58:57Z</time>
      </trkpt>
      <trkpt lat="42.97674" lon="0.30676">
        <ele>1893.3</ele>
        <time>2026-07-07T08:58:58Z</time>
      </trkpt>
      <trkpt lat="42.97674" lon="0.30675">
        <ele>1893.3</ele>
        <time>2026-07-07T08:58:59Z</time>
      </trkpt>
      <trkpt lat="42.97674" lon="0.30675">
        <ele>1893.3</ele>
        <time>2026-07-07T08:59:00Z</time>
      </trkpt>
      <trkpt lat="42.97674" lon="0.30674">
        <ele>1893.3</ele>
        <time>2026-07-07T08:59:01Z</time>
      </trkpt>
      <trkpt lat="42.97675" lon="0.30674">
        <ele>1892.3</ele>
        <time>2026-07-07T08:59:02Z</time>
      </trkpt>
      <trkpt lat="42.97675" lon="0.30674">
        <ele>1892.3</ele>
        <time>2026-07-07T08:59:03Z</time>
      </trkpt>
      <trkpt lat="42.97675" lon="0.30673">
        <ele>1893.3</ele>
        <time>2026-07-07T08:59:04Z</time>
      </trkpt>
      <trkpt lat="42.97675" lon="0.30672">
        <ele>1893.3</ele>
        <time>2026-07-07T08:59:05Z</time>
      </trkpt>
      <trkpt lat="42.97676" lon="0.30672">
        <ele>1893.3</ele>
        <time>2026-07-07T08:59:06Z</time>
      </trkpt>
      <trkpt lat="42.97676" lon="0.30672">
        <ele>1893.3</ele>
        <time>2026-07-07T08:59:07Z</time>
      </trkpt>
      <trkpt lat="42.97676" lon="0.30671">
        <ele>1893.3</ele>
        <time>2026-07-07T08:59:08Z</time>
      </trkpt>
      <trkpt lat="42.97676" lon="0.30671">
        <ele>1894.3</ele>
        <time>2026-07-07T08:59:09Z</time>
      </trkpt>
      <trkpt lat="42.97676" lon="0.3067">
        <ele>1894.3</ele>
        <time>2026-07-07T08:59:10Z</time>
      </trkpt>
      <trkpt lat="42.97676" lon="0.3067">
        <ele>1894.3</ele>
        <time>2026-07-07T08:59:11Z</time>
      </trkpt>
      <trkpt lat="42.97676" lon="0.30669">
        <ele>1894.3</ele>
        <time>2026-07-07T08:59:12Z</time>
      </trkpt>
      <trkpt lat="42.97677" lon="0.30669">
        <ele>1894.3</ele>
        <time>2026-07-07T08:59:13Z</time>
      </trkpt>
      <trkpt lat="42.97677" lon="0.30669">
        <ele>1894.3</ele>
        <time>2026-07-07T08:59:14Z</time>
      </trkpt>
      <trkpt lat="42.97676" lon="0.30668">
        <ele>1894.3</ele>
        <time>2026-07-07T08:59:15Z</time>
      </trkpt>
      <trkpt lat="42.97676" lon="0.30668">
        <ele>1894.3</ele>
        <time>2026-07-07T08:59:16Z</time>
      </trkpt>
      <trkpt lat="42.97676" lon="0.30668">
        <ele>1894.3</ele>
        <time>2026-07-07T08:59:17Z</time>
      </trkpt>
      <trkpt lat="42.97676" lon="0.30667">
        <ele>1894.3</ele>
        <time>2026-07-07T08:59:17Z</time>
      </trkpt>
      <trkpt lat="42.97676" lon="0.30667">
        <ele>1894.3</ele>
        <time>2026-07-07T08:59:18Z</time>
      </trkpt>
      <trkpt lat="42.97676" lon="0.30667">
        <ele>1894.3</ele>
        <time>2026-07-07T08:59:18Z</time>
      </trkpt>
      <trkpt lat="42.97677" lon="0.30666">
        <ele>1894.3</ele>
        <time>2026-07-07T08:59:19Z</time>
      </trkpt>
      <trkpt lat="42.97677" lon="0.30666">
        <ele>1894.3</ele>
        <time>2026-07-07T08:59:20Z</time>
      </trkpt>
      <trkpt lat="42.97678" lon="0.30666">
        <ele>1894.3</ele>
        <time>2026-07-07T08:59:21Z</time>
      </trkpt>
      <trkpt lat="42.97678" lon="0.30666">
        <ele>1894.3</ele>
        <time>2026-07-07T08:59:22Z</time>
      </trkpt>
      <trkpt lat="42.97678" lon="0.30666">
        <ele>1894.3</ele>
        <time>2026-07-07T08:59:23Z</time>
      </trkpt>
      <trkpt lat="42.97678" lon="0.30665">
        <ele>1895.3</ele>
        <time>2026-07-07T08:59:23Z</time>
      </trkpt>
      <trkpt lat="42.97678" lon="0.30665">
        <ele>1895.3</ele>
        <time>2026-07-07T08:59:24Z</time>
      </trkpt>
      <trkpt lat="42.97678" lon="0.30664">
        <ele>1896.3</ele>
        <time>2026-07-07T08:59:25Z</time>
      </trkpt>
      <trkpt lat="42.97678" lon="0.30663">
        <ele>1896.3</ele>
        <time>2026-07-07T08:59:26Z</time>
      </trkpt>
      <trkpt lat="42.97679" lon="0.30663">
        <ele>1896.3</ele>
        <time>2026-07-07T08:59:27Z</time>
      </trkpt>
      <trkpt lat="42.97679" lon="0.30662">
        <ele>1896.3</ele>
        <time>2026-07-07T08:59:28Z</time>
      </trkpt>
      <trkpt lat="42.97679" lon="0.30661">
        <ele>1896.3</ele>
        <time>2026-07-07T08:59:29Z</time>
      </trkpt>
      <trkpt lat="42.97679" lon="0.3066">
        <ele>1896.3</ele>
        <time>2026-07-07T08:59:30Z</time>
      </trkpt>
      <trkpt lat="42.97678" lon="0.30659">
        <ele>1896.3</ele>
        <time>2026-07-07T08:59:31Z</time>
      </trkpt>
      <trkpt lat="42.97678" lon="0.30658">
        <ele>1896.3</ele>
        <time>2026-07-07T08:59:32Z</time>
      </trkpt>
      <trkpt lat="42.97678" lon="0.30657">
        <ele>1896.3</ele>
        <time>2026-07-07T08:59:33Z</time>
      </trkpt>
      <trkpt lat="42.97679" lon="0.30657">
        <ele>1896.3</ele>
        <time>2026-07-07T08:59:34Z</time>
      </trkpt>
      <trkpt lat="42.97679" lon="0.30656">
        <ele>1896.3</ele>
        <time>2026-07-07T08:59:35Z</time>
      </trkpt>
      <trkpt lat="42.97679" lon="0.30655">
        <ele>1896.3</ele>
        <time>2026-07-07T08:59:36Z</time>
      </trkpt>
      <trkpt lat="42.9768" lon="0.30655">
        <ele>1895.3</ele>
        <time>2026-07-07T08:59:37Z</time>
      </trkpt>
      <trkpt lat="42.9768" lon="0.30655">
        <ele>1895.3</ele>
        <time>2026-07-07T08:59:37Z</time>
      </trkpt>
      <trkpt lat="42.97681" lon="0.30656">
        <ele>1895.3</ele>
        <time>2026-07-07T08:59:38Z</time>
      </trkpt>
      <trkpt lat="42.97681" lon="0.30656">
        <ele>1895.3</ele>
        <time>2026-07-07T08:59:39Z</time>
      </trkpt>
      <trkpt lat="42.97681" lon="0.30656">
        <ele>1895.3</ele>
        <time>2026-07-07T08:59:40Z</time>
      </trkpt>
      <trkpt lat="42.97681" lon="0.30655">
        <ele>1896.3</ele>
        <time>2026-07-07T08:59:41Z</time>
      </trkpt>
      <trkpt lat="42.97682" lon="0.30654">
        <ele>1897.3</ele>
        <time>2026-07-07T08:59:42Z</time>
      </trkpt>
      <trkpt lat="42.97682" lon="0.30654">
        <ele>1897.3</ele>
        <time>2026-07-07T08:59:43Z</time>
      </trkpt>
      <trkpt lat="42.97682" lon="0.30653">
        <ele>1897.3</ele>
        <time>2026-07-07T08:59:44Z</time>
      </trkpt>
      <trkpt lat="42.97682" lon="0.30652">
        <ele>1898.3</ele>
        <time>2026-07-07T08:59:45Z</time>
      </trkpt>
      <trkpt lat="42.97682" lon="0.30652">
        <ele>1898.3</ele>
        <time>2026-07-07T08:59:46Z</time>
      </trkpt>
      <trkpt lat="42.97683" lon="0.30651">
        <ele>1898.3</ele>
        <time>2026-07-07T08:59:47Z</time>
      </trkpt>
      <trkpt lat="42.97683" lon="0.30651">
        <ele>1899.3</ele>
        <time>2026-07-07T08:59:48Z</time>
      </trkpt>
      <trkpt lat="42.97683" lon="0.30651">
        <ele>1899.3</ele>
        <time>2026-07-07T08:59:49Z</time>
      </trkpt>
      <trkpt lat="42.97684" lon="0.3065">
        <ele>1899.3</ele>
        <time>2026-07-07T08:59:50Z</time>
      </trkpt>
      <trkpt lat="42.97685" lon="0.3065">
        <ele>1899.3</ele>
        <time>2026-07-07T08:59:51Z</time>
      </trkpt>
      <trkpt lat="42.97685" lon="0.30649">
        <ele>1900.3</ele>
        <time>2026-07-07T08:59:52Z</time>
      </trkpt>
      <trkpt lat="42.97686" lon="0.30649">
        <ele>1900.3</ele>
        <time>2026-07-07T08:59:53Z</time>
      </trkpt>
      <trkpt lat="42.97686" lon="0.30649">
        <ele>1900.3</ele>
        <time>2026-07-07T08:59:54Z</time>
      </trkpt>
      <trkpt lat="42.97686" lon="0.30649">
        <ele>1900.3</ele>
        <time>2026-07-07T08:59:55Z</time>
      </trkpt>
      <trkpt lat="42.97686" lon="0.30647">
        <ele>1900.3</ele>
        <time>2026-07-07T08:59:56Z</time>
      </trkpt>
      <trkpt lat="42.97686" lon="0.30646">
        <ele>1900.3</ele>
        <time>2026-07-07T08:59:57Z</time>
      </trkpt>
      <trkpt lat="42.97686" lon="0.30646">
        <ele>1900.3</ele>
        <time>2026-07-07T08:59:58Z</time>
      </trkpt>
      <trkpt lat="42.97686" lon="0.30646">
        <ele>1900.3</ele>
        <time>2026-07-07T08:59:59Z</time>
      </trkpt>
      <trkpt lat="42.97686" lon="0.30645">
        <ele>1900.3</ele>
        <time>2026-07-07T09:00:00Z</time>
      </trkpt>
      <trkpt lat="42.97687" lon="0.30645">
        <ele>1901.3</ele>
        <time>2026-07-07T09:00:01Z</time>
      </trkpt>
      <trkpt lat="42.97688" lon="0.30645">
        <ele>1901.3</ele>
        <time>2026-07-07T09:00:02Z</time>
      </trkpt>
      <trkpt lat="42.97688" lon="0.30644">
        <ele>1901.3</ele>
        <time>2026-07-07T09:00:03Z</time>
      </trkpt>
      <trkpt lat="42.97689" lon="0.30644">
        <ele>1901.3</ele>
        <time>2026-07-07T09:00:04Z</time>
      </trkpt>
      <trkpt lat="42.97689" lon="0.30644">
        <ele>1901.3</ele>
        <time>2026-07-07T09:00:05Z</time>
      </trkpt>
      <trkpt lat="42.97689" lon="0.30644">
        <ele>1901.3</ele>
        <time>2026-07-07T09:00:06Z</time>
      </trkpt>
      <trkpt lat="42.97689" lon="0.30643">
        <ele>1901.3</ele>
        <time>2026-07-07T09:00:07Z</time>
      </trkpt>
      <trkpt lat="42.97689" lon="0.30643">
        <ele>1901.3</ele>
        <time>2026-07-07T09:00:08Z</time>
      </trkpt>
      <trkpt lat="42.9769" lon="0.30642">
        <ele>1901.3</ele>
        <time>2026-07-07T09:00:09Z</time>
      </trkpt>
      <trkpt lat="42.9769" lon="0.30642">
        <ele>1901.3</ele>
        <time>2026-07-07T09:00:10Z</time>
      </trkpt>
      <trkpt lat="42.97691" lon="0.30641">
        <ele>1902.3</ele>
        <time>2026-07-07T09:00:11Z</time>
      </trkpt>
      <trkpt lat="42.97691" lon="0.3064">
        <ele>1902.3</ele>
        <time>2026-07-07T09:00:12Z</time>
      </trkpt>
      <trkpt lat="42.97691" lon="0.3064">
        <ele>1902.3</ele>
        <time>2026-07-07T09:00:13Z</time>
      </trkpt>
      <trkpt lat="42.97691" lon="0.3064">
        <ele>1902.3</ele>
        <time>2026-07-07T09:00:14Z</time>
      </trkpt>
      <trkpt lat="42.97691" lon="0.3064">
        <ele>1902.3</ele>
        <time>2026-07-07T09:00:15Z</time>
      </trkpt>
      <trkpt lat="42.97691" lon="0.3064">
        <ele>1902.3</ele>
        <time>2026-07-07T09:00:16Z</time>
      </trkpt>
      <trkpt lat="42.97691" lon="0.3064">
        <ele>1902.3</ele>
        <time>2026-07-07T09:00:17Z</time>
      </trkpt>
      <trkpt lat="42.97692" lon="0.30639">
        <ele>1902.3</ele>
        <time>2026-07-07T09:00:18Z</time>
      </trkpt>
      <trkpt lat="42.97692" lon="0.30638">
        <ele>1902.3</ele>
        <time>2026-07-07T09:00:19Z</time>
      </trkpt>
      <trkpt lat="42.97692" lon="0.30638">
        <ele>1903.3</ele>
        <time>2026-07-07T09:00:20Z</time>
      </trkpt>
      <trkpt lat="42.97692" lon="0.30637">
        <ele>1903.3</ele>
        <time>2026-07-07T09:00:21Z</time>
      </trkpt>
      <trkpt lat="42.97693" lon="0.30636">
        <ele>1903.3</ele>
        <time>2026-07-07T09:00:22Z</time>
      </trkpt>
      <trkpt lat="42.97693" lon="0.30635">
        <ele>1904.3</ele>
        <time>2026-07-07T09:00:23Z</time>
      </trkpt>
      <trkpt lat="42.97693" lon="0.30635">
        <ele>1904.3</ele>
        <time>2026-07-07T09:00:24Z</time>
      </trkpt>
      <trkpt lat="42.97693" lon="0.30634">
        <ele>1904.3</ele>
        <time>2026-07-07T09:00:25Z</time>
      </trkpt>
      <trkpt lat="42.97694" lon="0.30633">
        <ele>1904.3</ele>
        <time>2026-07-07T09:00:26Z</time>
      </trkpt>
      <trkpt lat="42.97694" lon="0.30632">
        <ele>1905.3</ele>
        <time>2026-07-07T09:00:27Z</time>
      </trkpt>
      <trkpt lat="42.97694" lon="0.30631">
        <ele>1905.3</ele>
        <time>2026-07-07T09:00:28Z</time>
      </trkpt>
      <trkpt lat="42.97694" lon="0.3063">
        <ele>1905.3</ele>
        <time>2026-07-07T09:00:29Z</time>
      </trkpt>
      <trkpt lat="42.97695" lon="0.30629">
        <ele>1905.3</ele>
        <time>2026-07-07T09:00:30Z</time>
      </trkpt>
      <trkpt lat="42.97695" lon="0.30629">
        <ele>1905.3</ele>
        <time>2026-07-07T09:00:31Z</time>
      </trkpt>
      <trkpt lat="42.97695" lon="0.30628">
        <ele>1905.3</ele>
        <time>2026-07-07T09:00:32Z</time>
      </trkpt>
      <trkpt lat="42.97696" lon="0.30627">
        <ele>1905.3</ele>
        <time>2026-07-07T09:00:33Z</time>
      </trkpt>
      <trkpt lat="42.97696" lon="0.30626">
        <ele>1905.3</ele>
        <time>2026-07-07T09:00:34Z</time>
      </trkpt>
      <trkpt lat="42.97696" lon="0.30625">
        <ele>1905.3</ele>
        <time>2026-07-07T09:00:35Z</time>
      </trkpt>
      <trkpt lat="42.97696" lon="0.30625">
        <ele>1905.3</ele>
        <time>2026-07-07T09:00:36Z</time>
      </trkpt>
      <trkpt lat="42.97697" lon="0.30623">
        <ele>1906.3</ele>
        <time>2026-07-07T09:00:37Z</time>
      </trkpt>
      <trkpt lat="42.97697" lon="0.30623">
        <ele>1906.3</ele>
        <time>2026-07-07T09:00:38Z</time>
      </trkpt>
      <trkpt lat="42.97697" lon="0.30623">
        <ele>1906.3</ele>
        <time>2026-07-07T09:00:39Z</time>
      </trkpt>
      <trkpt lat="42.97697" lon="0.30622">
        <ele>1907.3</ele>
        <time>2026-07-07T09:00:40Z</time>
      </trkpt>
      <trkpt lat="42.97698" lon="0.30622">
        <ele>1907.3</ele>
        <time>2026-07-07T09:00:41Z</time>
      </trkpt>
      <trkpt lat="42.97698" lon="0.30621">
        <ele>1907.3</ele>
        <time>2026-07-07T09:00:42Z</time>
      </trkpt>
      <trkpt lat="42.97699" lon="0.30622">
        <ele>1908.3</ele>
        <time>2026-07-07T09:00:43Z</time>
      </trkpt>
      <trkpt lat="42.97699" lon="0.30621">
        <ele>1909.3</ele>
        <time>2026-07-07T09:00:44Z</time>
      </trkpt>
      <trkpt lat="42.97699" lon="0.30621">
        <ele>1909.3</ele>
        <time>2026-07-07T09:00:45Z</time>
      </trkpt>
      <trkpt lat="42.97699" lon="0.30621">
        <ele>1909.3</ele>
        <time>2026-07-07T09:00:46Z</time>
      </trkpt>
      <trkpt lat="42.97699" lon="0.30621">
        <ele>1909.3</ele>
        <time>2026-07-07T09:00:47Z</time>
      </trkpt>
      <trkpt lat="42.97699" lon="0.30621">
        <ele>1909.3</ele>
        <time>2026-07-07T09:00:48Z</time>
      </trkpt>
      <trkpt lat="42.97699" lon="0.3062">
        <ele>1909.3</ele>
        <time>2026-07-07T09:00:49Z</time>
      </trkpt>
      <trkpt lat="42.97699" lon="0.3062">
        <ele>1909.3</ele>
        <time>2026-07-07T09:00:50Z</time>
      </trkpt>
      <trkpt lat="42.97699" lon="0.30619">
        <ele>1909.3</ele>
        <time>2026-07-07T09:00:51Z</time>
      </trkpt>
      <trkpt lat="42.97699" lon="0.30618">
        <ele>1909.3</ele>
        <time>2026-07-07T09:00:52Z</time>
      </trkpt>
      <trkpt lat="42.97699" lon="0.30618">
        <ele>1909.3</ele>
        <time>2026-07-07T09:00:53Z</time>
      </trkpt>
      <trkpt lat="42.97699" lon="0.30618">
        <ele>1909.3</ele>
        <time>2026-07-07T09:00:54Z</time>
      </trkpt>
      <trkpt lat="42.97699" lon="0.30618">
        <ele>1909.3</ele>
        <time>2026-07-07T09:00:55Z</time>
      </trkpt>
      <trkpt lat="42.97699" lon="0.30618">
        <ele>1909.3</ele>
        <time>2026-07-07T09:00:56Z</time>
      </trkpt>
      <trkpt lat="42.977" lon="0.30616">
        <ele>1909.3</ele>
        <time>2026-07-07T09:00:57Z</time>
      </trkpt>
      <trkpt lat="42.977" lon="0.30615">
        <ele>1910.3</ele>
        <time>2026-07-07T09:00:58Z</time>
      </trkpt>
      <trkpt lat="42.977" lon="0.30614">
        <ele>1910.3</ele>
        <time>2026-07-07T09:00:59Z</time>
      </trkpt>
      <trkpt lat="42.977" lon="0.30613">
        <ele>1909.3</ele>
        <time>2026-07-07T09:01:00Z</time>
      </trkpt>
      <trkpt lat="42.97701" lon="0.30612">
        <ele>1910.3</ele>
        <time>2026-07-07T09:01:01Z</time>
      </trkpt>
      <trkpt lat="42.97701" lon="0.30611">
        <ele>1911.3</ele>
        <time>2026-07-07T09:01:02Z</time>
      </trkpt>
      <trkpt lat="42.97701" lon="0.30611">
        <ele>1911.3</ele>
        <time>2026-07-07T09:01:03Z</time>
      </trkpt>
      <trkpt lat="42.97701" lon="0.30611">
        <ele>1911.3</ele>
        <time>2026-07-07T09:01:04Z</time>
      </trkpt>
      <trkpt lat="42.97701" lon="0.3061">
        <ele>1912.3</ele>
        <time>2026-07-07T09:01:05Z</time>
      </trkpt>
      <trkpt lat="42.97701" lon="0.3061">
        <ele>1912.3</ele>
        <time>2026-07-07T09:01:06Z</time>
      </trkpt>
      <trkpt lat="42.97701" lon="0.30609">
        <ele>1911.3</ele>
        <time>2026-07-07T09:01:07Z</time>
      </trkpt>
      <trkpt lat="42.97701" lon="0.30608">
        <ele>1911.3</ele>
        <time>2026-07-07T09:01:08Z</time>
      </trkpt>
      <trkpt lat="42.97701" lon="0.30607">
        <ele>1912.3</ele>
        <time>2026-07-07T09:01:09Z</time>
      </trkpt>
      <trkpt lat="42.97701" lon="0.30607">
        <ele>1912.3</ele>
        <time>2026-07-07T09:01:10Z</time>
      </trkpt>
      <trkpt lat="42.97702" lon="0.30607">
        <ele>1912.3</ele>
        <time>2026-07-07T09:01:11Z</time>
      </trkpt>
      <trkpt lat="42.97702" lon="0.30607">
        <ele>1912.3</ele>
        <time>2026-07-07T09:01:12Z</time>
      </trkpt>
      <trkpt lat="42.97702" lon="0.30606">
        <ele>1912.3</ele>
        <time>2026-07-07T09:01:13Z</time>
      </trkpt>
      <trkpt lat="42.97702" lon="0.30605">
        <ele>1911.3</ele>
        <time>2026-07-07T09:01:14Z</time>
      </trkpt>
      <trkpt lat="42.97702" lon="0.30604">
        <ele>1911.3</ele>
        <time>2026-07-07T09:01:15Z</time>
      </trkpt>
      <trkpt lat="42.97702" lon="0.30604">
        <ele>1911.3</ele>
        <time>2026-07-07T09:01:16Z</time>
      </trkpt>
      <trkpt lat="42.97702" lon="0.30604">
        <ele>1911.3</ele>
        <time>2026-07-07T09:01:17Z</time>
      </trkpt>
      <trkpt lat="42.97702" lon="0.30604">
        <ele>1911.3</ele>
        <time>2026-07-07T09:01:18Z</time>
      </trkpt>
      <trkpt lat="42.97702" lon="0.30601">
        <ele>1910.3</ele>
        <time>2026-07-07T09:01:19Z</time>
      </trkpt>
      <trkpt lat="42.97703" lon="0.306">
        <ele>1910.3</ele>
        <time>2026-07-07T09:01:20Z</time>
      </trkpt>
      <trkpt lat="42.97703" lon="0.30599">
        <ele>1910.3</ele>
        <time>2026-07-07T09:01:21Z</time>
      </trkpt>
      <trkpt lat="42.97704" lon="0.30598">
        <ele>1910.3</ele>
        <time>2026-07-07T09:01:22Z</time>
      </trkpt>
      <trkpt lat="42.97704" lon="0.30597">
        <ele>1910.3</ele>
        <time>2026-07-07T09:01:23Z</time>
      </trkpt>
      <trkpt lat="42.97704" lon="0.30596">
        <ele>1909.3</ele>
        <time>2026-07-07T09:01:24Z</time>
      </trkpt>
      <trkpt lat="42.97705" lon="0.30595">
        <ele>1910.3</ele>
        <time>2026-07-07T09:01:25Z</time>
      </trkpt>
      <trkpt lat="42.97705" lon="0.30594">
        <ele>1911.3</ele>
        <time>2026-07-07T09:01:26Z</time>
      </trkpt>
      <trkpt lat="42.97705" lon="0.30593">
        <ele>1911.3</ele>
        <time>2026-07-07T09:01:27Z</time>
      </trkpt>
      <trkpt lat="42.97705" lon="0.30593">
        <ele>1911.3</ele>
        <time>2026-07-07T09:01:28Z</time>
      </trkpt>
      <trkpt lat="42.97706" lon="0.30592">
        <ele>1911.3</ele>
        <time>2026-07-07T09:01:29Z</time>
      </trkpt>
      <trkpt lat="42.97706" lon="0.30591">
        <ele>1911.3</ele>
        <time>2026-07-07T09:01:30Z</time>
      </trkpt>
      <trkpt lat="42.97706" lon="0.30591">
        <ele>1911.3</ele>
        <time>2026-07-07T09:01:31Z</time>
      </trkpt>
      <trkpt lat="42.97707" lon="0.30591">
        <ele>1912.3</ele>
        <time>2026-07-07T09:01:32Z</time>
      </trkpt>
      <trkpt lat="42.97707" lon="0.3059">
        <ele>1913.3</ele>
        <time>2026-07-07T09:01:33Z</time>
      </trkpt>
      <trkpt lat="42.97707" lon="0.3059">
        <ele>1913.3</ele>
        <time>2026-07-07T09:01:34Z</time>
      </trkpt>
      <trkpt lat="42.97707" lon="0.3059">
        <ele>1913.3</ele>
        <time>2026-07-07T09:01:35Z</time>
      </trkpt>
      <trkpt lat="42.97707" lon="0.30589">
        <ele>1913.3</ele>
        <time>2026-07-07T09:01:36Z</time>
      </trkpt>
      <trkpt lat="42.97707" lon="0.30589">
        <ele>1913.3</ele>
        <time>2026-07-07T09:01:37Z</time>
      </trkpt>
      <trkpt lat="42.97707" lon="0.30589">
        <ele>1913.3</ele>
        <time>2026-07-07T09:01:38Z</time>
      </trkpt>
      <trkpt lat="42.97707" lon="0.30589">
        <ele>1913.3</ele>
        <time>2026-07-07T09:01:39Z</time>
      </trkpt>
      <trkpt lat="42.97707" lon="0.30589">
        <ele>1913.3</ele>
        <time>2026-07-07T09:01:40Z</time>
      </trkpt>
      <trkpt lat="42.97707" lon="0.30589">
        <ele>1913.3</ele>
        <time>2026-07-07T09:01:41Z</time>
      </trkpt>
      <trkpt lat="42.97707" lon="0.30589">
        <ele>1913.3</ele>
        <time>2026-07-07T09:01:42Z</time>
      </trkpt>
      <trkpt lat="42.97707" lon="0.30589">
        <ele>1913.3</ele>
        <time>2026-07-07T09:01:43Z</time>
      </trkpt>
      <trkpt lat="42.97707" lon="0.30589">
        <ele>1913.3</ele>
        <time>2026-07-07T09:01:44Z</time>
      </trkpt>
      <trkpt lat="42.97707" lon="0.30589">
        <ele>1913.3</ele>
        <time>2026-07-07T09:01:45Z</time>
      </trkpt>
      <trkpt lat="42.97707" lon="0.30589">
        <ele>1913.3</ele>
        <time>2026-07-07T09:01:46Z</time>
      </trkpt>
      <trkpt lat="42.97707" lon="0.30589">
        <ele>1913.3</ele>
        <time>2026-07-07T09:01:47Z</time>
      </trkpt>
      <trkpt lat="42.97707" lon="0.30589">
        <ele>1913.3</ele>
        <time>2026-07-07T09:01:48Z</time>
      </trkpt>
      <trkpt lat="42.97707" lon="0.30589">
        <ele>1913.3</ele>
        <time>2026-07-07T09:01:49Z</time>
      </trkpt>
      <trkpt lat="42.97707" lon="0.30589">
        <ele>1913.3</ele>
        <time>2026-07-07T09:01:50Z</time>
      </trkpt>
      <trkpt lat="42.97707" lon="0.30588">
        <ele>1914.3</ele>
        <time>2026-07-07T09:01:51Z</time>
      </trkpt>
      <trkpt lat="42.97707" lon="0.30588">
        <ele>1914.3</ele>
        <time>2026-07-07T09:01:52Z</time>
      </trkpt>
      <trkpt lat="42.97708" lon="0.30587">
        <ele>1914.3</ele>
        <time>2026-07-07T09:01:53Z</time>
      </trkpt>
      <trkpt lat="42.97708" lon="0.30587">
        <ele>1914.3</ele>
        <time>2026-07-07T09:01:54Z</time>
      </trkpt>
      <trkpt lat="42.97708" lon="0.30587">
        <ele>1914.3</ele>
        <time>2026-07-07T09:01:55Z</time>
      </trkpt>
      <trkpt lat="42.97708" lon="0.30587">
        <ele>1914.3</ele>
        <time>2026-07-07T09:01:56Z</time>
      </trkpt>
      <trkpt lat="42.97708" lon="0.30587">
        <ele>1914.3</ele>
        <time>2026-07-07T09:01:57Z</time>
      </trkpt>
      <trkpt lat="42.97709" lon="0.30588">
        <ele>1915.3</ele>
        <time>2026-07-07T09:01:58Z</time>
      </trkpt>
      <trkpt lat="42.9771" lon="0.30588">
        <ele>1915.3</ele>
        <time>2026-07-07T09:01:59Z</time>
      </trkpt>
      <trkpt lat="42.9771" lon="0.30588">
        <ele>1915.3</ele>
        <time>2026-07-07T09:02:00Z</time>
      </trkpt>
      <trkpt lat="42.97709" lon="0.30588">
        <ele>1914.3</ele>
        <time>2026-07-07T09:02:01Z</time>
      </trkpt>
      <trkpt lat="42.97708" lon="0.30588">
        <ele>1914.3</ele>
        <time>2026-07-07T09:02:02Z</time>
      </trkpt>
      <trkpt lat="42.97708" lon="0.30588">
        <ele>1915.3</ele>
        <time>2026-07-07T09:02:03Z</time>
      </trkpt>
      <trkpt lat="42.97707" lon="0.30586">
        <ele>1915.3</ele>
        <time>2026-07-07T09:02:04Z</time>
      </trkpt>
      <trkpt lat="42.97708" lon="0.30587">
        <ele>1916.3</ele>
        <time>2026-07-07T09:02:05Z</time>
      </trkpt>
      <trkpt lat="42.97708" lon="0.30587">
        <ele>1916.3</ele>
        <time>2026-07-07T09:02:06Z</time>
      </trkpt>
      <trkpt lat="42.97708" lon="0.30587">
        <ele>1916.3</ele>
        <time>2026-07-07T09:02:07Z</time>
      </trkpt>
      <trkpt lat="42.97708" lon="0.30586">
        <ele>1916.3</ele>
        <time>2026-07-07T09:02:08Z</time>
      </trkpt>
      <trkpt lat="42.97708" lon="0.30586">
        <ele>1916.3</ele>
        <time>2026-07-07T09:02:09Z</time>
      </trkpt>
      <trkpt lat="42.97708" lon="0.30586">
        <ele>1916.3</ele>
        <time>2026-07-07T09:02:10Z</time>
      </trkpt>
      <trkpt lat="42.97708" lon="0.30586">
        <ele>1916.3</ele>
        <time>2026-07-07T09:02:11Z</time>
      </trkpt>
      <trkpt lat="42.97708" lon="0.30586">
        <ele>1916.3</ele>
        <time>2026-07-07T09:02:12Z</time>
      </trkpt>
      <trkpt lat="42.97708" lon="0.30586">
        <ele>1916.3</ele>
        <time>2026-07-07T09:02:13Z</time>
      </trkpt>
      <trkpt lat="42.97708" lon="0.30586">
        <ele>1916.3</ele>
        <time>2026-07-07T09:02:14Z</time>
      </trkpt>
      <trkpt lat="42.97708" lon="0.30586">
        <ele>1916.3</ele>
        <time>2026-07-07T09:02:15Z</time>
      </trkpt>
      <trkpt lat="42.97708" lon="0.30586">
        <ele>1916.3</ele>
        <time>2026-07-07T09:02:16Z</time>
      </trkpt>
      <trkpt lat="42.97708" lon="0.30586">
        <ele>1916.3</ele>
        <time>2026-07-07T09:02:17Z</time>
      </trkpt>
      <trkpt lat="42.97708" lon="0.30586">
        <ele>1916.3</ele>
        <time>2026-07-07T09:02:18Z</time>
      </trkpt>
      <trkpt lat="42.97708" lon="0.30586">
        <ele>1916.3</ele>
        <time>2026-07-07T09:02:19Z</time>
      </trkpt>
      <trkpt lat="42.97708" lon="0.30586">
        <ele>1916.3</ele>
        <time>2026-07-07T09:02:20Z</time>
      </trkpt>
      <trkpt lat="42.97708" lon="0.30586">
        <ele>1916.3</ele>
        <time>2026-07-07T09:02:21Z</time>
      </trkpt>
      <trkpt lat="42.97708" lon="0.30586">
        <ele>1916.3</ele>
        <time>2026-07-07T09:02:22Z</time>
      </trkpt>
      <trkpt lat="42.97708" lon="0.30586">
        <ele>1916.3</ele>
        <time>2026-07-07T09:02:23Z</time>
      </trkpt>
      <trkpt lat="42.97708" lon="0.30586">
        <ele>1916.3</ele>
        <time>2026-07-07T09:02:24Z</time>
      </trkpt>
      <trkpt lat="42.97708" lon="0.30586">
        <ele>1916.3</ele>
        <time>2026-07-07T09:02:25Z</time>
      </trkpt>
      <trkpt lat="42.97708" lon="0.30586">
        <ele>1916.3</ele>
        <time>2026-07-07T09:02:26Z</time>
      </trkpt>
      <trkpt lat="42.97708" lon="0.30586">
        <ele>1916.3</ele>
        <time>2026-07-07T09:02:27Z</time>
      </trkpt>
      <trkpt lat="42.97708" lon="0.30586">
        <ele>1916.3</ele>
        <time>2026-07-07T09:02:28Z</time>
      </trkpt>
      <trkpt lat="42.97708" lon="0.30586">
        <ele>1916.3</ele>
        <time>2026-07-07T09:02:29Z</time>
      </trkpt>
      <trkpt lat="42.97708" lon="0.30586">
        <ele>1916.3</ele>
        <time>2026-07-07T09:02:30Z</time>
      </trkpt>
      <trkpt lat="42.97708" lon="0.30586">
        <ele>1916.3</ele>
        <time>2026-07-07T09:02:31Z</time>
      </trkpt>
      <trkpt lat="42.97708" lon="0.30586">
        <ele>1916.3</ele>
        <time>2026-07-07T09:02:32Z</time>
      </trkpt>
      <trkpt lat="42.97708" lon="0.30586">
        <ele>1916.3</ele>
        <time>2026-07-07T09:02:33Z</time>
      </trkpt>
      <trkpt lat="42.97708" lon="0.30586">
        <ele>1916.3</ele>
        <time>2026-07-07T09:02:34Z</time>
      </trkpt>
      <trkpt lat="42.97708" lon="0.30586">
        <ele>1916.3</ele>
        <time>2026-07-07T09:02:35Z</time>
      </trkpt>
      <trkpt lat="42.97708" lon="0.30586">
        <ele>1916.3</ele>
        <time>2026-07-07T09:02:36Z</time>
      </trkpt>
      <trkpt lat="42.97708" lon="0.30586">
        <ele>1916.3</ele>
        <time>2026-07-07T09:02:37Z</time>
      </trkpt>
      <trkpt lat="42.97708" lon="0.30586">
        <ele>1916.3</ele>
        <time>2026-07-07T09:02:38Z</time>
      </trkpt>
      <trkpt lat="42.97708" lon="0.30586">
        <ele>1916.3</ele>
        <time>2026-07-07T09:02:39Z</time>
      </trkpt>
      <trkpt lat="42.97708" lon="0.30586">
        <ele>1916.3</ele>
        <time>2026-07-07T09:02:40Z</time>
      </trkpt>
      <trkpt lat="42.97709" lon="0.30586">
        <ele>1917.3</ele>
        <time>2026-07-07T09:02:41Z</time>
      </trkpt>
      <trkpt lat="42.97709" lon="0.30587">
        <ele>1917.3</ele>
        <time>2026-07-07T09:02:42Z</time>
      </trkpt>
      <trkpt lat="42.97709" lon="0.30586">
        <ele>1917.3</ele>
        <time>2026-07-07T09:02:43Z</time>
      </trkpt>
      <trkpt lat="42.97709" lon="0.30586">
        <ele>1917.3</ele>
        <time>2026-07-07T09:02:44Z</time>
      </trkpt>
      <trkpt lat="42.97709" lon="0.30586">
        <ele>1918.3</ele>
        <time>2026-07-07T09:02:45Z</time>
      </trkpt>
      <trkpt lat="42.97709" lon="0.30586">
        <ele>1917.3</ele>
        <time>2026-07-07T09:02:46Z</time>
      </trkpt>
      <trkpt lat="42.97708" lon="0.30587">
        <ele>1918.3</ele>
        <time>2026-07-07T09:02:47Z</time>
      </trkpt>
      <trkpt lat="42.97708" lon="0.30586">
        <ele>1917.3</ele>
        <time>2026-07-07T09:02:48Z</time>
      </trkpt>
      <trkpt lat="42.97709" lon="0.30585">
        <ele>1917.3</ele>
        <time>2026-07-07T09:02:49Z</time>
      </trkpt>
      <trkpt lat="42.97709" lon="0.30585">
        <ele>1917.3</ele>
        <time>2026-07-07T09:02:50Z</time>
      </trkpt>
      <trkpt lat="42.97709" lon="0.30584">
        <ele>1916.3</ele>
        <time>2026-07-07T09:02:51Z</time>
      </trkpt>
      <trkpt lat="42.97709" lon="0.30583">
        <ele>1916.3</ele>
        <time>2026-07-07T09:02:52Z</time>
      </trkpt>
      <trkpt lat="42.97709" lon="0.30582">
        <ele>1916.3</ele>
        <time>2026-07-07T09:02:53Z</time>
      </trkpt>
      <trkpt lat="42.97709" lon="0.30581">
        <ele>1916.3</ele>
        <time>2026-07-07T09:02:54Z</time>
      </trkpt>
      <trkpt lat="42.97709" lon="0.3058">
        <ele>1916.3</ele>
        <time>2026-07-07T09:02:55Z</time>
      </trkpt>
      <trkpt lat="42.97709" lon="0.30579">
        <ele>1915.3</ele>
        <time>2026-07-07T09:02:56Z</time>
      </trkpt>
      <trkpt lat="42.97709" lon="0.30578">
        <ele>1915.3</ele>
        <time>2026-07-07T09:02:57Z</time>
      </trkpt>
      <trkpt lat="42.97709" lon="0.30578">
        <ele>1915.3</ele>
        <time>2026-07-07T09:02:58Z</time>
      </trkpt>
      <trkpt lat="42.9771" lon="0.30578">
        <ele>1915.3</ele>
        <time>2026-07-07T09:02:59Z</time>
      </trkpt>
      <trkpt lat="42.9771" lon="0.30577">
        <ele>1915.3</ele>
        <time>2026-07-07T09:03:00Z</time>
      </trkpt>
      <trkpt lat="42.97709" lon="0.30576">
        <ele>1915.3</ele>
        <time>2026-07-07T09:03:01Z</time>
      </trkpt>
      <trkpt lat="42.97709" lon="0.30575">
        <ele>1915.3</ele>
        <time>2026-07-07T09:03:02Z</time>
      </trkpt>
      <trkpt lat="42.97709" lon="0.30573">
        <ele>1915.3</ele>
        <time>2026-07-07T09:03:03Z</time>
      </trkpt>
      <trkpt lat="42.97709" lon="0.30572">
        <ele>1915.3</ele>
        <time>2026-07-07T09:03:04Z</time>
      </trkpt>
      <trkpt lat="42.9771" lon="0.30571">
        <ele>1915.3</ele>
        <time>2026-07-07T09:03:05Z</time>
      </trkpt>
      <trkpt lat="42.9771" lon="0.3057">
        <ele>1915.3</ele>
        <time>2026-07-07T09:03:06Z</time>
      </trkpt>
      <trkpt lat="42.9771" lon="0.30569">
        <ele>1915.3</ele>
        <time>2026-07-07T09:03:07Z</time>
      </trkpt>
      <trkpt lat="42.9771" lon="0.30566">
        <ele>1915.3</ele>
        <time>2026-07-07T09:03:08Z</time>
      </trkpt>
      <trkpt lat="42.9771" lon="0.30565">
        <ele>1915.3</ele>
        <time>2026-07-07T09:03:09Z</time>
      </trkpt>
      <trkpt lat="42.9771" lon="0.30564">
        <ele>1914.3</ele>
        <time>2026-07-07T09:03:10Z</time>
      </trkpt>
      <trkpt lat="42.9771" lon="0.30564">
        <ele>1915.3</ele>
        <time>2026-07-07T09:03:10Z</time>
      </trkpt>
      <trkpt lat="42.97711" lon="0.30563">
        <ele>1915.3</ele>
        <time>2026-07-07T09:03:11Z</time>
      </trkpt>
      <trkpt lat="42.97711" lon="0.30562">
        <ele>1915.3</ele>
        <time>2026-07-07T09:03:12Z</time>
      </trkpt>
      <trkpt lat="42.97711" lon="0.30561">
        <ele>1915.3</ele>
        <time>2026-07-07T09:03:12Z</time>
      </trkpt>
      <trkpt lat="42.97711" lon="0.3056">
        <ele>1915.3</ele>
        <time>2026-07-07T09:03:13Z</time>
      </trkpt>
      <trkpt lat="42.9771" lon="0.30559">
        <ele>1914.3</ele>
        <time>2026-07-07T09:03:14Z</time>
      </trkpt>
      <trkpt lat="42.9771" lon="0.30559">
        <ele>1914.3</ele>
        <time>2026-07-07T09:03:14Z</time>
      </trkpt>
      <trkpt lat="42.9771" lon="0.30557">
        <ele>1914.3</ele>
        <time>2026-07-07T09:03:15Z</time>
      </trkpt>
      <trkpt lat="42.9771" lon="0.30557">
        <ele>1915.3</ele>
        <time>2026-07-07T09:03:16Z</time>
      </trkpt>
      <trkpt lat="42.9771" lon="0.30556">
        <ele>1915.3</ele>
        <time>2026-07-07T09:03:16Z</time>
      </trkpt>
      <trkpt lat="42.9771" lon="0.30555">
        <ele>1915.3</ele>
        <time>2026-07-07T09:03:17Z</time>
      </trkpt>
      <trkpt lat="42.97709" lon="0.30554">
        <ele>1915.3</ele>
        <time>2026-07-07T09:03:17Z</time>
      </trkpt>
      <trkpt lat="42.97709" lon="0.30553">
        <ele>1915.3</ele>
        <time>2026-07-07T09:03:18Z</time>
      </trkpt>
      <trkpt lat="42.97709" lon="0.30553">
        <ele>1914.3</ele>
        <time>2026-07-07T09:03:19Z</time>
      </trkpt>
      <trkpt lat="42.97709" lon="0.30551">
        <ele>1915.3</ele>
        <time>2026-07-07T09:03:20Z</time>
      </trkpt>
      <trkpt lat="42.97709" lon="0.3055">
        <ele>1915.3</ele>
        <time>2026-07-07T09:03:21Z</time>
      </trkpt>
      <trkpt lat="42.97709" lon="0.30548">
        <ele>1915.3</ele>
        <time>2026-07-07T09:03:22Z</time>
      </trkpt>
      <trkpt lat="42.97709" lon="0.30547">
        <ele>1915.3</ele>
        <time>2026-07-07T09:03:23Z</time>
      </trkpt>
      <trkpt lat="42.97709" lon="0.30546">
        <ele>1915.3</ele>
        <time>2026-07-07T09:03:23Z</time>
      </trkpt>
      <trkpt lat="42.97709" lon="0.30545">
        <ele>1915.3</ele>
        <time>2026-07-07T09:03:24Z</time>
      </trkpt>
      <trkpt lat="42.97708" lon="0.30544">
        <ele>1915.3</ele>
        <time>2026-07-07T09:03:25Z</time>
      </trkpt>
      <trkpt lat="42.97708" lon="0.30543">
        <ele>1915.3</ele>
        <time>2026-07-07T09:03:26Z</time>
      </trkpt>
      <trkpt lat="42.97708" lon="0.30542">
        <ele>1915.3</ele>
        <time>2026-07-07T09:03:26Z</time>
      </trkpt>
      <trkpt lat="42.97708" lon="0.30542">
        <ele>1915.3</ele>
        <time>2026-07-07T09:03:27Z</time>
      </trkpt>
      <trkpt lat="42.97708" lon="0.30541">
        <ele>1916.3</ele>
        <time>2026-07-07T09:03:27Z</time>
      </trkpt>
      <trkpt lat="42.97708" lon="0.3054">
        <ele>1916.3</ele>
        <time>2026-07-07T09:03:28Z</time>
      </trkpt>
      <trkpt lat="42.97708" lon="0.30539">
        <ele>1915.3</ele>
        <time>2026-07-07T09:03:29Z</time>
      </trkpt>
      <trkpt lat="42.97708" lon="0.30539">
        <ele>1915.3</ele>
        <time>2026-07-07T09:03:29Z</time>
      </trkpt>
      <trkpt lat="42.97708" lon="0.30538">
        <ele>1915.3</ele>
        <time>2026-07-07T09:03:30Z</time>
      </trkpt>
      <trkpt lat="42.97708" lon="0.30537">
        <ele>1915.3</ele>
        <time>2026-07-07T09:03:30Z</time>
      </trkpt>
      <trkpt lat="42.97708" lon="0.30536">
        <ele>1915.3</ele>
        <time>2026-07-07T09:03:31Z</time>
      </trkpt>
      <trkpt lat="42.97708" lon="0.30535">
        <ele>1915.3</ele>
        <time>2026-07-07T09:03:32Z</time>
      </trkpt>
      <trkpt lat="42.97708" lon="0.30534">
        <ele>1915.3</ele>
        <time>2026-07-07T09:03:32Z</time>
      </trkpt>
      <trkpt lat="42.97708" lon="0.30533">
        <ele>1915.3</ele>
        <time>2026-07-07T09:03:33Z</time>
      </trkpt>
      <trkpt lat="42.97708" lon="0.30533">
        <ele>1915.3</ele>
        <time>2026-07-07T09:03:33Z</time>
      </trkpt>
      <trkpt lat="42.97708" lon="0.30532">
        <ele>1915.3</ele>
        <time>2026-07-07T09:03:34Z</time>
      </trkpt>
      <trkpt lat="42.97708" lon="0.30531">
        <ele>1915.3</ele>
        <time>2026-07-07T09:03:35Z</time>
      </trkpt>
      <trkpt lat="42.97708" lon="0.30531">
        <ele>1915.3</ele>
        <time>2026-07-07T09:03:35Z</time>
      </trkpt>
      <trkpt lat="42.97708" lon="0.3053">
        <ele>1915.3</ele>
        <time>2026-07-07T09:03:36Z</time>
      </trkpt>
      <trkpt lat="42.97708" lon="0.30529">
        <ele>1915.3</ele>
        <time>2026-07-07T09:03:37Z</time>
      </trkpt>
      <trkpt lat="42.97708" lon="0.30528">
        <ele>1915.3</ele>
        <time>2026-07-07T09:03:37Z</time>
      </trkpt>
      <trkpt lat="42.97708" lon="0.30527">
        <ele>1914.3</ele>
        <time>2026-07-07T09:03:38Z</time>
      </trkpt>
      <trkpt lat="42.97708" lon="0.30527">
        <ele>1914.3</ele>
        <time>2026-07-07T09:03:38Z</time>
      </trkpt>
      <trkpt lat="42.97708" lon="0.30526">
        <ele>1914.3</ele>
        <time>2026-07-07T09:03:39Z</time>
      </trkpt>
      <trkpt lat="42.97708" lon="0.30526">
        <ele>1914.3</ele>
        <time>2026-07-07T09:03:40Z</time>
      </trkpt>
      <trkpt lat="42.97708" lon="0.30526">
        <ele>1913.3</ele>
        <time>2026-07-07T09:03:40Z</time>
      </trkpt>
      <trkpt lat="42.97708" lon="0.30525">
        <ele>1913.3</ele>
        <time>2026-07-07T09:03:41Z</time>
      </trkpt>
      <trkpt lat="42.97708" lon="0.30525">
        <ele>1913.3</ele>
        <time>2026-07-07T09:03:41Z</time>
      </trkpt>
      <trkpt lat="42.97708" lon="0.30524">
        <ele>1913.3</ele>
        <time>2026-07-07T09:03:42Z</time>
      </trkpt>
      <trkpt lat="42.97708" lon="0.30523">
        <ele>1913.3</ele>
        <time>2026-07-07T09:03:43Z</time>
      </trkpt>
      <trkpt lat="42.97709" lon="0.30522">
        <ele>1913.3</ele>
        <time>2026-07-07T09:03:43Z</time>
      </trkpt>
      <trkpt lat="42.97709" lon="0.30521">
        <ele>1912.3</ele>
        <time>2026-07-07T09:03:44Z</time>
      </trkpt>
      <trkpt lat="42.97709" lon="0.30521">
        <ele>1913.3</ele>
        <time>2026-07-07T09:03:44Z</time>
      </trkpt>
      <trkpt lat="42.97709" lon="0.3052">
        <ele>1912.3</ele>
        <time>2026-07-07T09:03:45Z</time>
      </trkpt>
      <trkpt lat="42.97709" lon="0.30519">
        <ele>1912.3</ele>
        <time>2026-07-07T09:03:46Z</time>
      </trkpt>
      <trkpt lat="42.97709" lon="0.30518">
        <ele>1913.3</ele>
        <time>2026-07-07T09:03:47Z</time>
      </trkpt>
      <trkpt lat="42.97709" lon="0.30517">
        <ele>1913.3</ele>
        <time>2026-07-07T09:03:48Z</time>
      </trkpt>
      <trkpt lat="42.97708" lon="0.30518">
        <ele>1913.3</ele>
        <time>2026-07-07T09:03:49Z</time>
      </trkpt>
      <trkpt lat="42.97708" lon="0.30518">
        <ele>1913.3</ele>
        <time>2026-07-07T09:03:50Z</time>
      </trkpt>
      <trkpt lat="42.97708" lon="0.30518">
        <ele>1913.3</ele>
        <time>2026-07-07T09:03:51Z</time>
      </trkpt>
      <trkpt lat="42.97708" lon="0.30519">
        <ele>1913.3</ele>
        <time>2026-07-07T09:03:52Z</time>
      </trkpt>
      <trkpt lat="42.97709" lon="0.30519">
        <ele>1913.3</ele>
        <time>2026-07-07T09:03:53Z</time>
      </trkpt>
      <trkpt lat="42.97709" lon="0.30519">
        <ele>1913.3</ele>
        <time>2026-07-07T09:03:54Z</time>
      </trkpt>
      <trkpt lat="42.97709" lon="0.30519">
        <ele>1913.3</ele>
        <time>2026-07-07T09:03:55Z</time>
      </trkpt>
      <trkpt lat="42.97709" lon="0.30519">
        <ele>1913.3</ele>
        <time>2026-07-07T09:03:56Z</time>
      </trkpt>
      <trkpt lat="42.97709" lon="0.30519">
        <ele>1913.3</ele>
        <time>2026-07-07T09:03:57Z</time>
      </trkpt>
      <trkpt lat="42.97709" lon="0.30519">
        <ele>1913.3</ele>
        <time>2026-07-07T09:03:58Z</time>
      </trkpt>
      <trkpt lat="42.97709" lon="0.30519">
        <ele>1913.3</ele>
        <time>2026-07-07T09:03:59Z</time>
      </trkpt>
      <trkpt lat="42.97709" lon="0.30519">
        <ele>1913.3</ele>
        <time>2026-07-07T09:04:00Z</time>
      </trkpt>
      <trkpt lat="42.97709" lon="0.30519">
        <ele>1913.3</ele>
        <time>2026-07-07T09:04:01Z</time>
      </trkpt>
      <trkpt lat="42.97709" lon="0.30519">
        <ele>1913.3</ele>
        <time>2026-07-07T09:04:02Z</time>
      </trkpt>
      <trkpt lat="42.97709" lon="0.30519">
        <ele>1913.3</ele>
        <time>2026-07-07T09:04:03Z</time>
      </trkpt>
      <trkpt lat="42.97709" lon="0.30519">
        <ele>1913.3</ele>
        <time>2026-07-07T09:04:04Z</time>
      </trkpt>
      <trkpt lat="42.97709" lon="0.30519">
        <ele>1913.3</ele>
        <time>2026-07-07T09:04:05Z</time>
      </trkpt>
      <trkpt lat="42.97709" lon="0.30519">
        <ele>1914.3</ele>
        <time>2026-07-07T09:04:06Z</time>
      </trkpt>
      <trkpt lat="42.97709" lon="0.30518">
        <ele>1914.3</ele>
        <time>2026-07-07T09:04:07Z</time>
      </trkpt>
      <trkpt lat="42.97709" lon="0.30518">
        <ele>1912.3</ele>
        <time>2026-07-07T09:04:08Z</time>
      </trkpt>
      <trkpt lat="42.97709" lon="0.30518">
        <ele>1912.3</ele>
        <time>2026-07-07T09:04:09Z</time>
      </trkpt>
      <trkpt lat="42.97709" lon="0.30518">
        <ele>1912.3</ele>
        <time>2026-07-07T09:04:10Z</time>
      </trkpt>
      <trkpt lat="42.97709" lon="0.30518">
        <ele>1912.3</ele>
        <time>2026-07-07T09:04:11Z</time>
      </trkpt>
      <trkpt lat="42.97709" lon="0.30518">
        <ele>1912.3</ele>
        <time>2026-07-07T09:04:12Z</time>
      </trkpt>
      <trkpt lat="42.97709" lon="0.30518">
        <ele>1912.3</ele>
        <time>2026-07-07T09:04:13Z</time>
      </trkpt>
      <trkpt lat="42.97709" lon="0.30518">
        <ele>1912.3</ele>
        <time>2026-07-07T09:04:14Z</time>
      </trkpt>
      <trkpt lat="42.97709" lon="0.30518">
        <ele>1912.3</ele>
        <time>2026-07-07T09:04:15Z</time>
      </trkpt>
      <trkpt lat="42.97709" lon="0.30518">
        <ele>1912.3</ele>
        <time>2026-07-07T09:04:16Z</time>
      </trkpt>
      <trkpt lat="42.97709" lon="0.30518">
        <ele>1912.3</ele>
        <time>2026-07-07T09:04:17Z</time>
      </trkpt>
      <trkpt lat="42.97709" lon="0.30518">
        <ele>1912.3</ele>
        <time>2026-07-07T09:04:18Z</time>
      </trkpt>
      <trkpt lat="42.97709" lon="0.30518">
        <ele>1912.3</ele>
        <time>2026-07-07T09:04:19Z</time>
      </trkpt>
      <trkpt lat="42.97709" lon="0.30518">
        <ele>1912.3</ele>
        <time>2026-07-07T09:04:20Z</time>
      </trkpt>
      <trkpt lat="42.97709" lon="0.30518">
        <ele>1912.3</ele>
        <time>2026-07-07T09:04:21Z</time>
      </trkpt>
      <trkpt lat="42.97709" lon="0.30517">
        <ele>1913.3</ele>
        <time>2026-07-07T09:04:22Z</time>
      </trkpt>
      <trkpt lat="42.97709" lon="0.30517">
        <ele>1913.3</ele>
        <time>2026-07-07T09:04:23Z</time>
      </trkpt>
      <trkpt lat="42.97709" lon="0.30516">
        <ele>1913.3</ele>
        <time>2026-07-07T09:04:24Z</time>
      </trkpt>
      <trkpt lat="42.97709" lon="0.30516">
        <ele>1913.3</ele>
        <time>2026-07-07T09:04:25Z</time>
      </trkpt>
      <trkpt lat="42.9771" lon="0.30515">
        <ele>1913.3</ele>
        <time>2026-07-07T09:04:25Z</time>
      </trkpt>
      <trkpt lat="42.9771" lon="0.30514">
        <ele>1913.3</ele>
        <time>2026-07-07T09:04:26Z</time>
      </trkpt>
      <trkpt lat="42.9771" lon="0.30513">
        <ele>1913.3</ele>
        <time>2026-07-07T09:04:27Z</time>
      </trkpt>
      <trkpt lat="42.9771" lon="0.30512">
        <ele>1914.3</ele>
        <time>2026-07-07T09:04:27Z</time>
      </trkpt>
      <trkpt lat="42.9771" lon="0.30511">
        <ele>1914.3</ele>
        <time>2026-07-07T09:04:28Z</time>
      </trkpt>
      <trkpt lat="42.9771" lon="0.3051">
        <ele>1914.3</ele>
        <time>2026-07-07T09:04:29Z</time>
      </trkpt>
      <trkpt lat="42.9771" lon="0.30509">
        <ele>1914.3</ele>
        <time>2026-07-07T09:04:29Z</time>
      </trkpt>
      <trkpt lat="42.9771" lon="0.30508">
        <ele>1914.3</ele>
        <time>2026-07-07T09:04:30Z</time>
      </trkpt>
      <trkpt lat="42.9771" lon="0.30507">
        <ele>1913.3</ele>
        <time>2026-07-07T09:04:31Z</time>
      </trkpt>
      <trkpt lat="42.9771" lon="0.30506">
        <ele>1913.3</ele>
        <time>2026-07-07T09:04:31Z</time>
      </trkpt>
      <trkpt lat="42.9771" lon="0.30506">
        <ele>1913.3</ele>
        <time>2026-07-07T09:04:32Z</time>
      </trkpt>
      <trkpt lat="42.9771" lon="0.30505">
        <ele>1913.3</ele>
        <time>2026-07-07T09:04:32Z</time>
      </trkpt>
      <trkpt lat="42.9771" lon="0.30504">
        <ele>1913.3</ele>
        <time>2026-07-07T09:04:33Z</time>
      </trkpt>
      <trkpt lat="42.9771" lon="0.30503">
        <ele>1913.3</ele>
        <time>2026-07-07T09:04:34Z</time>
      </trkpt>
      <trkpt lat="42.9771" lon="0.30502">
        <ele>1913.3</ele>
        <time>2026-07-07T09:04:34Z</time>
      </trkpt>
      <trkpt lat="42.9771" lon="0.30501">
        <ele>1913.3</ele>
        <time>2026-07-07T09:04:35Z</time>
      </trkpt>
      <trkpt lat="42.97709" lon="0.305">
        <ele>1913.3</ele>
        <time>2026-07-07T09:04:36Z</time>
      </trkpt>
      <trkpt lat="42.97709" lon="0.30501">
        <ele>1913.3</ele>
        <time>2026-07-07T09:04:37Z</time>
      </trkpt>
      <trkpt lat="42.97709" lon="0.30501">
        <ele>1913.3</ele>
        <time>2026-07-07T09:04:38Z</time>
      </trkpt>
      <trkpt lat="42.97709" lon="0.30501">
        <ele>1913.3</ele>
        <time>2026-07-07T09:04:39Z</time>
      </trkpt>
      <trkpt lat="42.97709" lon="0.30501">
        <ele>1912.3</ele>
        <time>2026-07-07T09:04:40Z</time>
      </trkpt>
      <trkpt lat="42.97709" lon="0.30501">
        <ele>1913.3</ele>
        <time>2026-07-07T09:04:40Z</time>
      </trkpt>
      <trkpt lat="42.97709" lon="0.30501">
        <ele>1913.3</ele>
        <time>2026-07-07T09:04:41Z</time>
      </trkpt>
      <trkpt lat="42.97709" lon="0.30501">
        <ele>1913.3</ele>
        <time>2026-07-07T09:04:42Z</time>
      </trkpt>
      <trkpt lat="42.97709" lon="0.30501">
        <ele>1913.3</ele>
        <time>2026-07-07T09:04:43Z</time>
      </trkpt>
      <trkpt lat="42.97709" lon="0.305">
        <ele>1913.3</ele>
        <time>2026-07-07T09:04:44Z</time>
      </trkpt>
      <trkpt lat="42.9771" lon="0.30499">
        <ele>1913.3</ele>
        <time>2026-07-07T09:04:44Z</time>
      </trkpt>
      <trkpt lat="42.9771" lon="0.30498">
        <ele>1913.3</ele>
        <time>2026-07-07T09:04:45Z</time>
      </trkpt>
      <trkpt lat="42.9771" lon="0.30496">
        <ele>1913.3</ele>
        <time>2026-07-07T09:04:46Z</time>
      </trkpt>
      <trkpt lat="42.97711" lon="0.30496">
        <ele>1913.3</ele>
        <time>2026-07-07T09:04:46Z</time>
      </trkpt>
      <trkpt lat="42.97711" lon="0.30494">
        <ele>1913.3</ele>
        <time>2026-07-07T09:04:47Z</time>
      </trkpt>
      <trkpt lat="42.97711" lon="0.30494">
        <ele>1913.3</ele>
        <time>2026-07-07T09:04:47Z</time>
      </trkpt>
      <trkpt lat="42.97711" lon="0.30493">
        <ele>1913.3</ele>
        <time>2026-07-07T09:04:48Z</time>
      </trkpt>
      <trkpt lat="42.97712" lon="0.30492">
        <ele>1913.3</ele>
        <time>2026-07-07T09:04:49Z</time>
      </trkpt>
      <trkpt lat="42.97712" lon="0.30491">
        <ele>1913.3</ele>
        <time>2026-07-07T09:04:49Z</time>
      </trkpt>
      <trkpt lat="42.97712" lon="0.3049">
        <ele>1913.3</ele>
        <time>2026-07-07T09:04:50Z</time>
      </trkpt>
      <trkpt lat="42.97712" lon="0.30489">
        <ele>1913.3</ele>
        <time>2026-07-07T09:04:51Z</time>
      </trkpt>
      <trkpt lat="42.97712" lon="0.30489">
        <ele>1912.3</ele>
        <time>2026-07-07T09:04:51Z</time>
      </trkpt>
      <trkpt lat="42.97713" lon="0.30488">
        <ele>1912.3</ele>
        <time>2026-07-07T09:04:52Z</time>
      </trkpt>
      <trkpt lat="42.97713" lon="0.30487">
        <ele>1913.3</ele>
        <time>2026-07-07T09:04:53Z</time>
      </trkpt>
      <trkpt lat="42.97713" lon="0.30486">
        <ele>1913.3</ele>
        <time>2026-07-07T09:04:53Z</time>
      </trkpt>
      <trkpt lat="42.97713" lon="0.30485">
        <ele>1913.3</ele>
        <time>2026-07-07T09:04:54Z</time>
      </trkpt>
      <trkpt lat="42.97713" lon="0.30484">
        <ele>1913.3</ele>
        <time>2026-07-07T09:04:55Z</time>
      </trkpt>
      <trkpt lat="42.97713" lon="0.30483">
        <ele>1912.3</ele>
        <time>2026-07-07T09:04:55Z</time>
      </trkpt>
      <trkpt lat="42.97713" lon="0.30482">
        <ele>1912.3</ele>
        <time>2026-07-07T09:04:56Z</time>
      </trkpt>
      <trkpt lat="42.97713" lon="0.30481">
        <ele>1913.3</ele>
        <time>2026-07-07T09:04:57Z</time>
      </trkpt>
      <trkpt lat="42.97713" lon="0.3048">
        <ele>1912.3</ele>
        <time>2026-07-07T09:04:57Z</time>
      </trkpt>
      <trkpt lat="42.97713" lon="0.30479">
        <ele>1912.3</ele>
        <time>2026-07-07T09:04:58Z</time>
      </trkpt>
      <trkpt lat="42.97713" lon="0.30478">
        <ele>1912.3</ele>
        <time>2026-07-07T09:04:59Z</time>
      </trkpt>
      <trkpt lat="42.97713" lon="0.30477">
        <ele>1912.3</ele>
        <time>2026-07-07T09:05:00Z</time>
      </trkpt>
      <trkpt lat="42.97713" lon="0.30476">
        <ele>1912.3</ele>
        <time>2026-07-07T09:05:00Z</time>
      </trkpt>
      <trkpt lat="42.97713" lon="0.30475">
        <ele>1912.3</ele>
        <time>2026-07-07T09:05:01Z</time>
      </trkpt>
      <trkpt lat="42.97714" lon="0.30475">
        <ele>1913.3</ele>
        <time>2026-07-07T09:05:01Z</time>
      </trkpt>
      <trkpt lat="42.97714" lon="0.30474">
        <ele>1913.3</ele>
        <time>2026-07-07T09:05:02Z</time>
      </trkpt>
      <trkpt lat="42.97714" lon="0.30473">
        <ele>1913.3</ele>
        <time>2026-07-07T09:05:03Z</time>
      </trkpt>
      <trkpt lat="42.97714" lon="0.30472">
        <ele>1913.3</ele>
        <time>2026-07-07T09:05:03Z</time>
      </trkpt>
      <trkpt lat="42.97715" lon="0.30471">
        <ele>1913.3</ele>
        <time>2026-07-07T09:05:04Z</time>
      </trkpt>
      <trkpt lat="42.97715" lon="0.3047">
        <ele>1913.3</ele>
        <time>2026-07-07T09:05:04Z</time>
      </trkpt>
      <trkpt lat="42.97715" lon="0.30469">
        <ele>1913.3</ele>
        <time>2026-07-07T09:05:05Z</time>
      </trkpt>
      <trkpt lat="42.97715" lon="0.30468">
        <ele>1913.3</ele>
        <time>2026-07-07T09:05:06Z</time>
      </trkpt>
      <trkpt lat="42.97715" lon="0.30467">
        <ele>1913.3</ele>
        <time>2026-07-07T09:05:07Z</time>
      </trkpt>
      <trkpt lat="42.97715" lon="0.30466">
        <ele>1913.3</ele>
        <time>2026-07-07T09:05:07Z</time>
      </trkpt>
      <trkpt lat="42.97715" lon="0.30465">
        <ele>1913.3</ele>
        <time>2026-07-07T09:05:08Z</time>
      </trkpt>
      <trkpt lat="42.97715" lon="0.30465">
        <ele>1914.3</ele>
        <time>2026-07-07T09:05:08Z</time>
      </trkpt>
      <trkpt lat="42.97715" lon="0.30464">
        <ele>1914.3</ele>
        <time>2026-07-07T09:05:09Z</time>
      </trkpt>
      <trkpt lat="42.97715" lon="0.30463">
        <ele>1913.3</ele>
        <time>2026-07-07T09:05:10Z</time>
      </trkpt>
      <trkpt lat="42.97714" lon="0.30463">
        <ele>1914.3</ele>
        <time>2026-07-07T09:05:11Z</time>
      </trkpt>
      <trkpt lat="42.97714" lon="0.30462">
        <ele>1914.3</ele>
        <time>2026-07-07T09:05:11Z</time>
      </trkpt>
      <trkpt lat="42.97714" lon="0.30461">
        <ele>1914.3</ele>
        <time>2026-07-07T09:05:12Z</time>
      </trkpt>
      <trkpt lat="42.97714" lon="0.3046">
        <ele>1914.3</ele>
        <time>2026-07-07T09:05:13Z</time>
      </trkpt>
      <trkpt lat="42.97714" lon="0.30459">
        <ele>1913.3</ele>
        <time>2026-07-07T09:05:13Z</time>
      </trkpt>
      <trkpt lat="42.97714" lon="0.30458">
        <ele>1913.3</ele>
        <time>2026-07-07T09:05:14Z</time>
      </trkpt>
      <trkpt lat="42.97714" lon="0.30457">
        <ele>1913.3</ele>
        <time>2026-07-07T09:05:14Z</time>
      </trkpt>
      <trkpt lat="42.97714" lon="0.30456">
        <ele>1913.3</ele>
        <time>2026-07-07T09:05:15Z</time>
      </trkpt>
      <trkpt lat="42.97714" lon="0.30455">
        <ele>1913.3</ele>
        <time>2026-07-07T09:05:16Z</time>
      </trkpt>
      <trkpt lat="42.97714" lon="0.30454">
        <ele>1913.3</ele>
        <time>2026-07-07T09:05:17Z</time>
      </trkpt>
      <trkpt lat="42.97715" lon="0.30453">
        <ele>1914.3</ele>
        <time>2026-07-07T09:05:17Z</time>
      </trkpt>
      <trkpt lat="42.97715" lon="0.30452">
        <ele>1914.3</ele>
        <time>2026-07-07T09:05:18Z</time>
      </trkpt>
      <trkpt lat="42.97715" lon="0.30451">
        <ele>1914.3</ele>
        <time>2026-07-07T09:05:19Z</time>
      </trkpt>
      <trkpt lat="42.97715" lon="0.3045">
        <ele>1914.3</ele>
        <time>2026-07-07T09:05:20Z</time>
      </trkpt>
      <trkpt lat="42.97715" lon="0.30449">
        <ele>1914.3</ele>
        <time>2026-07-07T09:05:20Z</time>
      </trkpt>
      <trkpt lat="42.97715" lon="0.30448">
        <ele>1914.3</ele>
        <time>2026-07-07T09:05:21Z</time>
      </trkpt>
      <trkpt lat="42.97715" lon="0.30447">
        <ele>1914.3</ele>
        <time>2026-07-07T09:05:21Z</time>
      </trkpt>
      <trkpt lat="42.97715" lon="0.30446">
        <ele>1914.3</ele>
        <time>2026-07-07T09:05:22Z</time>
      </trkpt>
      <trkpt lat="42.97715" lon="0.30446">
        <ele>1914.3</ele>
        <time>2026-07-07T09:05:23Z</time>
      </trkpt>
      <trkpt lat="42.97715" lon="0.30445">
        <ele>1914.3</ele>
        <time>2026-07-07T09:05:23Z</time>
      </trkpt>
      <trkpt lat="42.97715" lon="0.30444">
        <ele>1914.3</ele>
        <time>2026-07-07T09:05:24Z</time>
      </trkpt>
      <trkpt lat="42.97715" lon="0.30444">
        <ele>1914.3</ele>
        <time>2026-07-07T09:05:25Z</time>
      </trkpt>
      <trkpt lat="42.97716" lon="0.30443">
        <ele>1914.3</ele>
        <time>2026-07-07T09:05:25Z</time>
      </trkpt>
      <trkpt lat="42.97716" lon="0.30442">
        <ele>1914.3</ele>
        <time>2026-07-07T09:05:26Z</time>
      </trkpt>
      <trkpt lat="42.97716" lon="0.30442">
        <ele>1914.3</ele>
        <time>2026-07-07T09:05:27Z</time>
      </trkpt>
      <trkpt lat="42.97716" lon="0.30441">
        <ele>1914.3</ele>
        <time>2026-07-07T09:05:27Z</time>
      </trkpt>
      <trkpt lat="42.97716" lon="0.3044">
        <ele>1914.3</ele>
        <time>2026-07-07T09:05:28Z</time>
      </trkpt>
      <trkpt lat="42.97717" lon="0.30439">
        <ele>1914.3</ele>
        <time>2026-07-07T09:05:29Z</time>
      </trkpt>
      <trkpt lat="42.97717" lon="0.30439">
        <ele>1914.3</ele>
        <time>2026-07-07T09:05:30Z</time>
      </trkpt>
      <trkpt lat="42.97717" lon="0.30438">
        <ele>1914.3</ele>
        <time>2026-07-07T09:05:30Z</time>
      </trkpt>
      <trkpt lat="42.97718" lon="0.30437">
        <ele>1914.3</ele>
        <time>2026-07-07T09:05:31Z</time>
      </trkpt>
      <trkpt lat="42.97718" lon="0.30436">
        <ele>1914.3</ele>
        <time>2026-07-07T09:05:32Z</time>
      </trkpt>
      <trkpt lat="42.97718" lon="0.30436">
        <ele>1914.3</ele>
        <time>2026-07-07T09:05:33Z</time>
      </trkpt>
      <trkpt lat="42.97718" lon="0.30435">
        <ele>1914.3</ele>
        <time>2026-07-07T09:05:34Z</time>
      </trkpt>
      <trkpt lat="42.97718" lon="0.30435">
        <ele>1914.3</ele>
        <time>2026-07-07T09:05:34Z</time>
      </trkpt>
      <trkpt lat="42.97719" lon="0.30434">
        <ele>1913.3</ele>
        <time>2026-07-07T09:05:35Z</time>
      </trkpt>
      <trkpt lat="42.97718" lon="0.30434">
        <ele>1913.3</ele>
        <time>2026-07-07T09:05:36Z</time>
      </trkpt>
      <trkpt lat="42.97718" lon="0.30433">
        <ele>1913.3</ele>
        <time>2026-07-07T09:05:37Z</time>
      </trkpt>
      <trkpt lat="42.97718" lon="0.30432">
        <ele>1913.3</ele>
        <time>2026-07-07T09:05:38Z</time>
      </trkpt>
      <trkpt lat="42.97718" lon="0.30431">
        <ele>1914.3</ele>
        <time>2026-07-07T09:05:39Z</time>
      </trkpt>
      <trkpt lat="42.97718" lon="0.3043">
        <ele>1914.3</ele>
        <time>2026-07-07T09:05:40Z</time>
      </trkpt>
      <trkpt lat="42.97718" lon="0.3043">
        <ele>1913.3</ele>
        <time>2026-07-07T09:05:40Z</time>
      </trkpt>
      <trkpt lat="42.97718" lon="0.30429">
        <ele>1913.3</ele>
        <time>2026-07-07T09:05:41Z</time>
      </trkpt>
      <trkpt lat="42.97718" lon="0.30428">
        <ele>1913.3</ele>
        <time>2026-07-07T09:05:42Z</time>
      </trkpt>
      <trkpt lat="42.97718" lon="0.30427">
        <ele>1914.3</ele>
        <time>2026-07-07T09:05:43Z</time>
      </trkpt>
      <trkpt lat="42.97718" lon="0.30426">
        <ele>1914.3</ele>
        <time>2026-07-07T09:05:44Z</time>
      </trkpt>
      <trkpt lat="42.97718" lon="0.30426">
        <ele>1913.3</ele>
        <time>2026-07-07T09:05:45Z</time>
      </trkpt>
      <trkpt lat="42.97718" lon="0.30425">
        <ele>1914.3</ele>
        <time>2026-07-07T09:05:45Z</time>
      </trkpt>
      <trkpt lat="42.97718" lon="0.30425">
        <ele>1914.3</ele>
        <time>2026-07-07T09:05:46Z</time>
      </trkpt>
      <trkpt lat="42.97718" lon="0.30424">
        <ele>1914.3</ele>
        <time>2026-07-07T09:05:47Z</time>
      </trkpt>
      <trkpt lat="42.97719" lon="0.30424">
        <ele>1914.3</ele>
        <time>2026-07-07T09:05:48Z</time>
      </trkpt>
      <trkpt lat="42.97719" lon="0.30424">
        <ele>1914.3</ele>
        <time>2026-07-07T09:05:48Z</time>
      </trkpt>
      <trkpt lat="42.97719" lon="0.30423">
        <ele>1914.3</ele>
        <time>2026-07-07T09:05:49Z</time>
      </trkpt>
      <trkpt lat="42.97719" lon="0.30423">
        <ele>1914.3</ele>
        <time>2026-07-07T09:05:50Z</time>
      </trkpt>
      <trkpt lat="42.97719" lon="0.30422">
        <ele>1914.3</ele>
        <time>2026-07-07T09:05:51Z</time>
      </trkpt>
      <trkpt lat="42.97719" lon="0.30422">
        <ele>1914.3</ele>
        <time>2026-07-07T09:05:52Z</time>
      </trkpt>
      <trkpt lat="42.97719" lon="0.30421">
        <ele>1914.3</ele>
        <time>2026-07-07T09:05:52Z</time>
      </trkpt>
      <trkpt lat="42.97719" lon="0.30421">
        <ele>1914.3</ele>
        <time>2026-07-07T09:05:53Z</time>
      </trkpt>
      <trkpt lat="42.97719" lon="0.3042">
        <ele>1914.3</ele>
        <time>2026-07-07T09:05:54Z</time>
      </trkpt>
      <trkpt lat="42.97719" lon="0.30419">
        <ele>1914.3</ele>
        <time>2026-07-07T09:05:55Z</time>
      </trkpt>
      <trkpt lat="42.97718" lon="0.30418">
        <ele>1914.3</ele>
        <time>2026-07-07T09:05:55Z</time>
      </trkpt>
      <trkpt lat="42.97718" lon="0.30417">
        <ele>1914.3</ele>
        <time>2026-07-07T09:05:56Z</time>
      </trkpt>
      <trkpt lat="42.97718" lon="0.30416">
        <ele>1914.3</ele>
        <time>2026-07-07T09:05:57Z</time>
      </trkpt>
      <trkpt lat="42.97717" lon="0.30416">
        <ele>1913.3</ele>
        <time>2026-07-07T09:05:58Z</time>
      </trkpt>
      <trkpt lat="42.97717" lon="0.30416">
        <ele>1913.3</ele>
        <time>2026-07-07T09:05:58Z</time>
      </trkpt>
      <trkpt lat="42.97717" lon="0.30415">
        <ele>1913.3</ele>
        <time>2026-07-07T09:05:59Z</time>
      </trkpt>
      <trkpt lat="42.97717" lon="0.30414">
        <ele>1913.3</ele>
        <time>2026-07-07T09:06:00Z</time>
      </trkpt>
      <trkpt lat="42.97717" lon="0.30413">
        <ele>1913.3</ele>
        <time>2026-07-07T09:06:00Z</time>
      </trkpt>
      <trkpt lat="42.97717" lon="0.30413">
        <ele>1913.3</ele>
        <time>2026-07-07T09:06:01Z</time>
      </trkpt>
      <trkpt lat="42.97717" lon="0.30412">
        <ele>1913.3</ele>
        <time>2026-07-07T09:06:02Z</time>
      </trkpt>
      <trkpt lat="42.97717" lon="0.30411">
        <ele>1913.3</ele>
        <time>2026-07-07T09:06:02Z</time>
      </trkpt>
      <trkpt lat="42.97717" lon="0.3041">
        <ele>1913.3</ele>
        <time>2026-07-07T09:06:03Z</time>
      </trkpt>
      <trkpt lat="42.97717" lon="0.3041">
        <ele>1914.3</ele>
        <time>2026-07-07T09:06:04Z</time>
      </trkpt>
      <trkpt lat="42.97717" lon="0.30409">
        <ele>1914.3</ele>
        <time>2026-07-07T09:06:04Z</time>
      </trkpt>
      <trkpt lat="42.97717" lon="0.30408">
        <ele>1914.3</ele>
        <time>2026-07-07T09:06:05Z</time>
      </trkpt>
      <trkpt lat="42.97717" lon="0.30407">
        <ele>1913.3</ele>
        <time>2026-07-07T09:06:06Z</time>
      </trkpt>
      <trkpt lat="42.97717" lon="0.30406">
        <ele>1913.3</ele>
        <time>2026-07-07T09:06:06Z</time>
      </trkpt>
      <trkpt lat="42.97718" lon="0.30406">
        <ele>1913.3</ele>
        <time>2026-07-07T09:06:07Z</time>
      </trkpt>
      <trkpt lat="42.97718" lon="0.30405">
        <ele>1913.3</ele>
        <time>2026-07-07T09:06:07Z</time>
      </trkpt>
      <trkpt lat="42.97718" lon="0.30405">
        <ele>1913.3</ele>
        <time>2026-07-07T09:06:08Z</time>
      </trkpt>
      <trkpt lat="42.97718" lon="0.30404">
        <ele>1913.3</ele>
        <time>2026-07-07T09:06:09Z</time>
      </trkpt>
      <trkpt lat="42.97718" lon="0.30404">
        <ele>1913.3</ele>
        <time>2026-07-07T09:06:09Z</time>
      </trkpt>
      <trkpt lat="42.97718" lon="0.30403">
        <ele>1913.3</ele>
        <time>2026-07-07T09:06:10Z</time>
      </trkpt>
      <trkpt lat="42.97717" lon="0.30402">
        <ele>1914.3</ele>
        <time>2026-07-07T09:06:11Z</time>
      </trkpt>
      <trkpt lat="42.97717" lon="0.30401">
        <ele>1914.3</ele>
        <time>2026-07-07T09:06:12Z</time>
      </trkpt>
      <trkpt lat="42.97717" lon="0.304">
        <ele>1914.3</ele>
        <time>2026-07-07T09:06:12Z</time>
      </trkpt>
      <trkpt lat="42.97718" lon="0.30399">
        <ele>1913.3</ele>
        <time>2026-07-07T09:06:13Z</time>
      </trkpt>
      <trkpt lat="42.97718" lon="0.30399">
        <ele>1913.3</ele>
        <time>2026-07-07T09:06:14Z</time>
      </trkpt>
      <trkpt lat="42.97718" lon="0.30398">
        <ele>1912.3</ele>
        <time>2026-07-07T09:06:14Z</time>
      </trkpt>
      <trkpt lat="42.97718" lon="0.30397">
        <ele>1912.3</ele>
        <time>2026-07-07T09:06:15Z</time>
      </trkpt>
      <trkpt lat="42.97718" lon="0.30397">
        <ele>1912.3</ele>
        <time>2026-07-07T09:06:15Z</time>
      </trkpt>
      <trkpt lat="42.97719" lon="0.30396">
        <ele>1912.3</ele>
        <time>2026-07-07T09:06:16Z</time>
      </trkpt>
      <trkpt lat="42.97719" lon="0.30396">
        <ele>1912.3</ele>
        <time>2026-07-07T09:06:17Z</time>
      </trkpt>
      <trkpt lat="42.97719" lon="0.30395">
        <ele>1912.3</ele>
        <time>2026-07-07T09:06:18Z</time>
      </trkpt>
      <trkpt lat="42.97719" lon="0.30395">
        <ele>1912.3</ele>
        <time>2026-07-07T09:06:19Z</time>
      </trkpt>
      <trkpt lat="42.97719" lon="0.30395">
        <ele>1912.3</ele>
        <time>2026-07-07T09:06:20Z</time>
      </trkpt>
      <trkpt lat="42.97719" lon="0.30395">
        <ele>1912.3</ele>
        <time>2026-07-07T09:06:21Z</time>
      </trkpt>
      <trkpt lat="42.97718" lon="0.30396">
        <ele>1912.3</ele>
        <time>2026-07-07T09:06:22Z</time>
      </trkpt>
      <trkpt lat="42.97718" lon="0.30396">
        <ele>1912.3</ele>
        <time>2026-07-07T09:06:23Z</time>
      </trkpt>
      <trkpt lat="42.97718" lon="0.30396">
        <ele>1912.3</ele>
        <time>2026-07-07T09:06:24Z</time>
      </trkpt>
      <trkpt lat="42.97718" lon="0.30396">
        <ele>1912.3</ele>
        <time>2026-07-07T09:06:25Z</time>
      </trkpt>
      <trkpt lat="42.97718" lon="0.30396">
        <ele>1912.3</ele>
        <time>2026-07-07T09:06:26Z</time>
      </trkpt>
      <trkpt lat="42.97718" lon="0.30396">
        <ele>1912.3</ele>
        <time>2026-07-07T09:06:27Z</time>
      </trkpt>
      <trkpt lat="42.97718" lon="0.30396">
        <ele>1912.3</ele>
        <time>2026-07-07T09:06:28Z</time>
      </trkpt>
      <trkpt lat="42.97718" lon="0.30396">
        <ele>1912.3</ele>
        <time>2026-07-07T09:06:29Z</time>
      </trkpt>
      <trkpt lat="42.97718" lon="0.30396">
        <ele>1912.3</ele>
        <time>2026-07-07T09:06:30Z</time>
      </trkpt>
      <trkpt lat="42.97719" lon="0.30396">
        <ele>1912.3</ele>
        <time>2026-07-07T09:06:31Z</time>
      </trkpt>
      <trkpt lat="42.97719" lon="0.30395">
        <ele>1912.3</ele>
        <time>2026-07-07T09:06:31Z</time>
      </trkpt>
      <trkpt lat="42.97719" lon="0.30395">
        <ele>1912.3</ele>
        <time>2026-07-07T09:06:32Z</time>
      </trkpt>
      <trkpt lat="42.97719" lon="0.30395">
        <ele>1912.3</ele>
        <time>2026-07-07T09:06:33Z</time>
      </trkpt>
      <trkpt lat="42.97719" lon="0.30394">
        <ele>1912.3</ele>
        <time>2026-07-07T09:06:33Z</time>
      </trkpt>
      <trkpt lat="42.97719" lon="0.30394">
        <ele>1912.3</ele>
        <time>2026-07-07T09:06:34Z</time>
      </trkpt>
      <trkpt lat="42.97719" lon="0.30394">
        <ele>1912.3</ele>
        <time>2026-07-07T09:06:35Z</time>
      </trkpt>
      <trkpt lat="42.97719" lon="0.30394">
        <ele>1912.3</ele>
        <time>2026-07-07T09:06:35Z</time>
      </trkpt>
      <trkpt lat="42.97719" lon="0.30393">
        <ele>1912.3</ele>
        <time>2026-07-07T09:06:36Z</time>
      </trkpt>
      <trkpt lat="42.97719" lon="0.30393">
        <ele>1912.3</ele>
        <time>2026-07-07T09:06:37Z</time>
      </trkpt>
      <trkpt lat="42.97719" lon="0.30393">
        <ele>1912.3</ele>
        <time>2026-07-07T09:06:37Z</time>
      </trkpt>
      <trkpt lat="42.97719" lon="0.30393">
        <ele>1912.3</ele>
        <time>2026-07-07T09:06:38Z</time>
      </trkpt>
      <trkpt lat="42.97719" lon="0.30392">
        <ele>1912.3</ele>
        <time>2026-07-07T09:06:39Z</time>
      </trkpt>
      <trkpt lat="42.9772" lon="0.30391">
        <ele>1912.3</ele>
        <time>2026-07-07T09:06:39Z</time>
      </trkpt>
      <trkpt lat="42.9772" lon="0.3039">
        <ele>1912.3</ele>
        <time>2026-07-07T09:06:40Z</time>
      </trkpt>
      <trkpt lat="42.9772" lon="0.30388">
        <ele>1912.3</ele>
        <time>2026-07-07T09:06:41Z</time>
      </trkpt>
      <trkpt lat="42.97721" lon="0.30388">
        <ele>1912.3</ele>
        <time>2026-07-07T09:06:41Z</time>
      </trkpt>
      <trkpt lat="42.97721" lon="0.30387">
        <ele>1912.3</ele>
        <time>2026-07-07T09:06:42Z</time>
      </trkpt>
      <trkpt lat="42.97721" lon="0.30386">
        <ele>1912.3</ele>
        <time>2026-07-07T09:06:43Z</time>
      </trkpt>
      <trkpt lat="42.97722" lon="0.30386">
        <ele>1912.3</ele>
        <time>2026-07-07T09:06:43Z</time>
      </trkpt>
      <trkpt lat="42.97722" lon="0.30386">
        <ele>1912.3</ele>
        <time>2026-07-07T09:06:44Z</time>
      </trkpt>
      <trkpt lat="42.97723" lon="0.30385">
        <ele>1911.3</ele>
        <time>2026-07-07T09:06:45Z</time>
      </trkpt>
      <trkpt lat="42.97723" lon="0.30385">
        <ele>1912.3</ele>
        <time>2026-07-07T09:06:45Z</time>
      </trkpt>
      <trkpt lat="42.97724" lon="0.30384">
        <ele>1912.3</ele>
        <time>2026-07-07T09:06:46Z</time>
      </trkpt>
      <trkpt lat="42.97725" lon="0.30384">
        <ele>1912.3</ele>
        <time>2026-07-07T09:06:47Z</time>
      </trkpt>
      <trkpt lat="42.97725" lon="0.30384">
        <ele>1913.3</ele>
        <time>2026-07-07T09:06:47Z</time>
      </trkpt>
      <trkpt lat="42.97726" lon="0.30384">
        <ele>1913.3</ele>
        <time>2026-07-07T09:06:48Z</time>
      </trkpt>
      <trkpt lat="42.97726" lon="0.30384">
        <ele>1913.3</ele>
        <time>2026-07-07T09:06:49Z</time>
      </trkpt>
      <trkpt lat="42.97726" lon="0.30384">
        <ele>1913.3</ele>
        <time>2026-07-07T09:06:49Z</time>
      </trkpt>
      <trkpt lat="42.97726" lon="0.30383">
        <ele>1913.3</ele>
        <time>2026-07-07T09:06:50Z</time>
      </trkpt>
      <trkpt lat="42.97726" lon="0.30382">
        <ele>1913.3</ele>
        <time>2026-07-07T09:06:51Z</time>
      </trkpt>
      <trkpt lat="42.97726" lon="0.30381">
        <ele>1913.3</ele>
        <time>2026-07-07T09:06:51Z</time>
      </trkpt>
      <trkpt lat="42.97726" lon="0.30381">
        <ele>1913.3</ele>
        <time>2026-07-07T09:06:52Z</time>
      </trkpt>
      <trkpt lat="42.97726" lon="0.3038">
        <ele>1912.3</ele>
        <time>2026-07-07T09:06:53Z</time>
      </trkpt>
      <trkpt lat="42.97726" lon="0.3038">
        <ele>1912.3</ele>
        <time>2026-07-07T09:06:54Z</time>
      </trkpt>
      <trkpt lat="42.97726" lon="0.30379">
        <ele>1912.3</ele>
        <time>2026-07-07T09:06:54Z</time>
      </trkpt>
      <trkpt lat="42.97726" lon="0.30379">
        <ele>1912.3</ele>
        <time>2026-07-07T09:06:55Z</time>
      </trkpt>
      <trkpt lat="42.97727" lon="0.30378">
        <ele>1912.3</ele>
        <time>2026-07-07T09:06:55Z</time>
      </trkpt>
      <trkpt lat="42.97727" lon="0.30378">
        <ele>1912.3</ele>
        <time>2026-07-07T09:06:56Z</time>
      </trkpt>
      <trkpt lat="42.97727" lon="0.30377">
        <ele>1912.3</ele>
        <time>2026-07-07T09:06:57Z</time>
      </trkpt>
      <trkpt lat="42.97727" lon="0.30376">
        <ele>1911.3</ele>
        <time>2026-07-07T09:06:58Z</time>
      </trkpt>
      <trkpt lat="42.97727" lon="0.30376">
        <ele>1911.3</ele>
        <time>2026-07-07T09:06:58Z</time>
      </trkpt>
      <trkpt lat="42.97728" lon="0.30375">
        <ele>1910.3</ele>
        <time>2026-07-07T09:06:59Z</time>
      </trkpt>
      <trkpt lat="42.97728" lon="0.30375">
        <ele>1910.3</ele>
        <time>2026-07-07T09:07:00Z</time>
      </trkpt>
      <trkpt lat="42.97728" lon="0.30374">
        <ele>1910.3</ele>
        <time>2026-07-07T09:07:01Z</time>
      </trkpt>
      <trkpt lat="42.97729" lon="0.30374">
        <ele>1910.3</ele>
        <time>2026-07-07T09:07:01Z</time>
      </trkpt>
      <trkpt lat="42.97729" lon="0.30373">
        <ele>1910.3</ele>
        <time>2026-07-07T09:07:02Z</time>
      </trkpt>
      <trkpt lat="42.97729" lon="0.30373">
        <ele>1910.3</ele>
        <time>2026-07-07T09:07:02Z</time>
      </trkpt>
      <trkpt lat="42.9773" lon="0.30372">
        <ele>1910.3</ele>
        <time>2026-07-07T09:07:03Z</time>
      </trkpt>
      <trkpt lat="42.9773" lon="0.30372">
        <ele>1910.3</ele>
        <time>2026-07-07T09:07:04Z</time>
      </trkpt>
      <trkpt lat="42.97729" lon="0.30373">
        <ele>1910.3</ele>
        <time>2026-07-07T09:07:05Z</time>
      </trkpt>
      <trkpt lat="42.97729" lon="0.30374">
        <ele>1910.3</ele>
        <time>2026-07-07T09:07:06Z</time>
      </trkpt>
      <trkpt lat="42.97729" lon="0.30375">
        <ele>1910.3</ele>
        <time>2026-07-07T09:07:07Z</time>
      </trkpt>
      <trkpt lat="42.97729" lon="0.30375">
        <ele>1910.3</ele>
        <time>2026-07-07T09:07:08Z</time>
      </trkpt>
      <trkpt lat="42.97729" lon="0.30375">
        <ele>1910.3</ele>
        <time>2026-07-07T09:07:09Z</time>
      </trkpt>
      <trkpt lat="42.97729" lon="0.30375">
        <ele>1910.3</ele>
        <time>2026-07-07T09:07:10Z</time>
      </trkpt>
      <trkpt lat="42.97729" lon="0.30375">
        <ele>1910.3</ele>
        <time>2026-07-07T09:07:11Z</time>
      </trkpt>
      <trkpt lat="42.97729" lon="0.30375">
        <ele>1910.3</ele>
        <time>2026-07-07T09:07:12Z</time>
      </trkpt>
      <trkpt lat="42.97729" lon="0.30375">
        <ele>1910.3</ele>
        <time>2026-07-07T09:07:13Z</time>
      </trkpt>
      <trkpt lat="42.97729" lon="0.30375">
        <ele>1910.3</ele>
        <time>2026-07-07T09:07:13Z</time>
      </trkpt>
      <trkpt lat="42.97729" lon="0.30375">
        <ele>1912.3</ele>
        <time>2026-07-07T09:07:14Z</time>
      </trkpt>
      <trkpt lat="42.97729" lon="0.30374">
        <ele>1912.3</ele>
        <time>2026-07-07T09:07:15Z</time>
      </trkpt>
      <trkpt lat="42.97729" lon="0.30374">
        <ele>1912.3</ele>
        <time>2026-07-07T09:07:16Z</time>
      </trkpt>
      <trkpt lat="42.97729" lon="0.30374">
        <ele>1912.3</ele>
        <time>2026-07-07T09:07:17Z</time>
      </trkpt>
      <trkpt lat="42.97729" lon="0.30374">
        <ele>1912.3</ele>
        <time>2026-07-07T09:07:18Z</time>
      </trkpt>
      <trkpt lat="42.97729" lon="0.30374">
        <ele>1912.3</ele>
        <time>2026-07-07T09:07:18Z</time>
      </trkpt>
      <trkpt lat="42.9773" lon="0.30374">
        <ele>1912.3</ele>
        <time>2026-07-07T09:07:19Z</time>
      </trkpt>
      <trkpt lat="42.9773" lon="0.30374">
        <ele>1912.3</ele>
        <time>2026-07-07T09:07:20Z</time>
      </trkpt>
      <trkpt lat="42.9773" lon="0.30374">
        <ele>1912.3</ele>
        <time>2026-07-07T09:07:21Z</time>
      </trkpt>
      <trkpt lat="42.9773" lon="0.30374">
        <ele>1912.3</ele>
        <time>2026-07-07T09:07:22Z</time>
      </trkpt>
      <trkpt lat="42.9773" lon="0.30374">
        <ele>1912.3</ele>
        <time>2026-07-07T09:07:23Z</time>
      </trkpt>
      <trkpt lat="42.9773" lon="0.30374">
        <ele>1912.3</ele>
        <time>2026-07-07T09:07:24Z</time>
      </trkpt>
      <trkpt lat="42.9773" lon="0.30374">
        <ele>1912.3</ele>
        <time>2026-07-07T09:07:25Z</time>
      </trkpt>
      <trkpt lat="42.9773" lon="0.30374">
        <ele>1912.3</ele>
        <time>2026-07-07T09:07:26Z</time>
      </trkpt>
      <trkpt lat="42.9773" lon="0.30374">
        <ele>1912.3</ele>
        <time>2026-07-07T09:07:27Z</time>
      </trkpt>
      <trkpt lat="42.9773" lon="0.30374">
        <ele>1912.3</ele>
        <time>2026-07-07T09:07:28Z</time>
      </trkpt>
      <trkpt lat="42.9773" lon="0.30374">
        <ele>1912.3</ele>
        <time>2026-07-07T09:07:29Z</time>
      </trkpt>
      <trkpt lat="42.9773" lon="0.30374">
        <ele>1912.3</ele>
        <time>2026-07-07T09:07:30Z</time>
      </trkpt>
      <trkpt lat="42.9773" lon="0.30374">
        <ele>1912.3</ele>
        <time>2026-07-07T09:07:31Z</time>
      </trkpt>
      <trkpt lat="42.9773" lon="0.30374">
        <ele>1912.3</ele>
        <time>2026-07-07T09:07:32Z</time>
      </trkpt>
      <trkpt lat="42.9773" lon="0.30374">
        <ele>1912.3</ele>
        <time>2026-07-07T09:07:33Z</time>
      </trkpt>
      <trkpt lat="42.9773" lon="0.30374">
        <ele>1912.3</ele>
        <time>2026-07-07T09:07:34Z</time>
      </trkpt>
      <trkpt lat="42.9773" lon="0.30374">
        <ele>1912.3</ele>
        <time>2026-07-07T09:07:35Z</time>
      </trkpt>
      <trkpt lat="42.9773" lon="0.30374">
        <ele>1912.3</ele>
        <time>2026-07-07T09:07:36Z</time>
      </trkpt>
      <trkpt lat="42.9773" lon="0.30374">
        <ele>1912.3</ele>
        <time>2026-07-07T09:07:37Z</time>
      </trkpt>
      <trkpt lat="42.9773" lon="0.30374">
        <ele>1912.3</ele>
        <time>2026-07-07T09:07:38Z</time>
      </trkpt>
      <trkpt lat="42.9773" lon="0.30374">
        <ele>1912.3</ele>
        <time>2026-07-07T09:07:39Z</time>
      </trkpt>
      <trkpt lat="42.9773" lon="0.30374">
        <ele>1912.3</ele>
        <time>2026-07-07T09:07:40Z</time>
      </trkpt>
      <trkpt lat="42.9773" lon="0.30374">
        <ele>1912.3</ele>
        <time>2026-07-07T09:07:41Z</time>
      </trkpt>
      <trkpt lat="42.9773" lon="0.30374">
        <ele>1912.3</ele>
        <time>2026-07-07T09:07:42Z</time>
      </trkpt>
      <trkpt lat="42.9773" lon="0.30374">
        <ele>1912.3</ele>
        <time>2026-07-07T09:07:43Z</time>
      </trkpt>
      <trkpt lat="42.9773" lon="0.30374">
        <ele>1912.3</ele>
        <time>2026-07-07T09:07:44Z</time>
      </trkpt>
      <trkpt lat="42.9773" lon="0.30374">
        <ele>1912.3</ele>
        <time>2026-07-07T09:07:45Z</time>
      </trkpt>
      <trkpt lat="42.9773" lon="0.30374">
        <ele>1912.3</ele>
        <time>2026-07-07T09:07:46Z</time>
      </trkpt>
      <trkpt lat="42.9773" lon="0.30374">
        <ele>1912.3</ele>
        <time>2026-07-07T09:07:47Z</time>
      </trkpt>
      <trkpt lat="42.9773" lon="0.30374">
        <ele>1912.3</ele>
        <time>2026-07-07T09:07:48Z</time>
      </trkpt>
      <trkpt lat="42.9773" lon="0.30374">
        <ele>1912.3</ele>
        <time>2026-07-07T09:07:49Z</time>
      </trkpt>
      <trkpt lat="42.9773" lon="0.30374">
        <ele>1912.3</ele>
        <time>2026-07-07T09:07:50Z</time>
      </trkpt>
      <trkpt lat="42.9773" lon="0.30374">
        <ele>1912.3</ele>
        <time>2026-07-07T09:07:51Z</time>
      </trkpt>
      <trkpt lat="42.9773" lon="0.30374">
        <ele>1912.3</ele>
        <time>2026-07-07T09:07:52Z</time>
      </trkpt>
      <trkpt lat="42.97729" lon="0.30374">
        <ele>1912.3</ele>
        <time>2026-07-07T09:07:53Z</time>
      </trkpt>
      <trkpt lat="42.97729" lon="0.30374">
        <ele>1912.3</ele>
        <time>2026-07-07T09:07:54Z</time>
      </trkpt>
      <trkpt lat="42.97729" lon="0.30374">
        <ele>1912.3</ele>
        <time>2026-07-07T09:07:55Z</time>
      </trkpt>
      <trkpt lat="42.97729" lon="0.30374">
        <ele>1912.3</ele>
        <time>2026-07-07T09:07:56Z</time>
      </trkpt>
      <trkpt lat="42.97729" lon="0.30374">
        <ele>1912.3</ele>
        <time>2026-07-07T09:07:57Z</time>
      </trkpt>
      <trkpt lat="42.97729" lon="0.30374">
        <ele>1912.3</ele>
        <time>2026-07-07T09:07:58Z</time>
      </trkpt>
      <trkpt lat="42.97729" lon="0.30374">
        <ele>1912.3</ele>
        <time>2026-07-07T09:07:59Z</time>
      </trkpt>
      <trkpt lat="42.97729" lon="0.30374">
        <ele>1912.3</ele>
        <time>2026-07-07T09:08:00Z</time>
      </trkpt>
      <trkpt lat="42.97729" lon="0.30374">
        <ele>1912.3</ele>
        <time>2026-07-07T09:08:01Z</time>
      </trkpt>
      <trkpt lat="42.97729" lon="0.30374">
        <ele>1912.3</ele>
        <time>2026-07-07T09:08:01Z</time>
      </trkpt>
      <trkpt lat="42.97729" lon="0.30374">
        <ele>1912.3</ele>
        <time>2026-07-07T09:08:02Z</time>
      </trkpt>
      <trkpt lat="42.97729" lon="0.30374">
        <ele>1911.3</ele>
        <time>2026-07-07T09:08:02Z</time>
      </trkpt>
      <trkpt lat="42.97728" lon="0.30373">
        <ele>1911.3</ele>
        <time>2026-07-07T09:08:03Z</time>
      </trkpt>
      <trkpt lat="42.97728" lon="0.30373">
        <ele>1910.3</ele>
        <time>2026-07-07T09:08:04Z</time>
      </trkpt>
      <trkpt lat="42.97728" lon="0.30372">
        <ele>1910.3</ele>
        <time>2026-07-07T09:08:04Z</time>
      </trkpt>
      <trkpt lat="42.97728" lon="0.30371">
        <ele>1910.3</ele>
        <time>2026-07-07T09:08:05Z</time>
      </trkpt>
      <trkpt lat="42.97728" lon="0.30371">
        <ele>1910.3</ele>
        <time>2026-07-07T09:08:05Z</time>
      </trkpt>
      <trkpt lat="42.97728" lon="0.30369">
        <ele>1910.3</ele>
        <time>2026-07-07T09:08:06Z</time>
      </trkpt>
      <trkpt lat="42.97728" lon="0.30368">
        <ele>1910.3</ele>
        <time>2026-07-07T09:08:07Z</time>
      </trkpt>
      <trkpt lat="42.97728" lon="0.30368">
        <ele>1910.3</ele>
        <time>2026-07-07T09:08:08Z</time>
      </trkpt>
      <trkpt lat="42.97728" lon="0.30367">
        <ele>1910.3</ele>
        <time>2026-07-07T09:08:08Z</time>
      </trkpt>
      <trkpt lat="42.97727" lon="0.30366">
        <ele>1909.3</ele>
        <time>2026-07-07T09:08:09Z</time>
      </trkpt>
      <trkpt lat="42.97726" lon="0.30365">
        <ele>1909.3</ele>
        <time>2026-07-07T09:08:10Z</time>
      </trkpt>
      <trkpt lat="42.97726" lon="0.30364">
        <ele>1908.3</ele>
        <time>2026-07-07T09:08:11Z</time>
      </trkpt>
      <trkpt lat="42.97726" lon="0.30364">
        <ele>1908.3</ele>
        <time>2026-07-07T09:08:11Z</time>
      </trkpt>
      <trkpt lat="42.97726" lon="0.30364">
        <ele>1908.3</ele>
        <time>2026-07-07T09:08:12Z</time>
      </trkpt>
      <trkpt lat="42.97726" lon="0.30363">
        <ele>1908.3</ele>
        <time>2026-07-07T09:08:13Z</time>
      </trkpt>
      <trkpt lat="42.97725" lon="0.30363">
        <ele>1908.3</ele>
        <time>2026-07-07T09:08:13Z</time>
      </trkpt>
      <trkpt lat="42.97725" lon="0.30362">
        <ele>1908.3</ele>
        <time>2026-07-07T09:08:14Z</time>
      </trkpt>
      <trkpt lat="42.97724" lon="0.30362">
        <ele>1908.3</ele>
        <time>2026-07-07T09:08:14Z</time>
      </trkpt>
      <trkpt lat="42.97724" lon="0.30362">
        <ele>1907.3</ele>
        <time>2026-07-07T09:08:15Z</time>
      </trkpt>
      <trkpt lat="42.97723" lon="0.30361">
        <ele>1907.3</ele>
        <time>2026-07-07T09:08:16Z</time>
      </trkpt>
      <trkpt lat="42.97723" lon="0.30361">
        <ele>1907.3</ele>
        <time>2026-07-07T09:08:17Z</time>
      </trkpt>
      <trkpt lat="42.97723" lon="0.3036">
        <ele>1907.3</ele>
        <time>2026-07-07T09:08:17Z</time>
      </trkpt>
      <trkpt lat="42.97723" lon="0.3036">
        <ele>1907.3</ele>
        <time>2026-07-07T09:08:18Z</time>
      </trkpt>
      <trkpt lat="42.97722" lon="0.30359">
        <ele>1906.3</ele>
        <time>2026-07-07T09:08:18Z</time>
      </trkpt>
      <trkpt lat="42.97722" lon="0.30359">
        <ele>1906.3</ele>
        <time>2026-07-07T09:08:19Z</time>
      </trkpt>
      <trkpt lat="42.97722" lon="0.30358">
        <ele>1906.3</ele>
        <time>2026-07-07T09:08:19Z</time>
      </trkpt>
      <trkpt lat="42.97721" lon="0.30358">
        <ele>1906.3</ele>
        <time>2026-07-07T09:08:20Z</time>
      </trkpt>
      <trkpt lat="42.9772" lon="0.30358">
        <ele>1905.3</ele>
        <time>2026-07-07T09:08:21Z</time>
      </trkpt>
      <trkpt lat="42.97719" lon="0.30358">
        <ele>1905.3</ele>
        <time>2026-07-07T09:08:22Z</time>
      </trkpt>
      <trkpt lat="42.97719" lon="0.30358">
        <ele>1905.3</ele>
        <time>2026-07-07T09:08:22Z</time>
      </trkpt>
      <trkpt lat="42.97718" lon="0.30358">
        <ele>1905.3</ele>
        <time>2026-07-07T09:08:23Z</time>
      </trkpt>
      <trkpt lat="42.97718" lon="0.30358">
        <ele>1905.3</ele>
        <time>2026-07-07T09:08:24Z</time>
      </trkpt>
      <trkpt lat="42.97717" lon="0.30358">
        <ele>1905.3</ele>
        <time>2026-07-07T09:08:24Z</time>
      </trkpt>
      <trkpt lat="42.97716" lon="0.30357">
        <ele>1905.3</ele>
        <time>2026-07-07T09:08:25Z</time>
      </trkpt>
      <trkpt lat="42.97716" lon="0.30357">
        <ele>1905.3</ele>
        <time>2026-07-07T09:08:26Z</time>
      </trkpt>
      <trkpt lat="42.97716" lon="0.30357">
        <ele>1905.3</ele>
        <time>2026-07-07T09:08:26Z</time>
      </trkpt>
      <trkpt lat="42.97715" lon="0.30356">
        <ele>1905.3</ele>
        <time>2026-07-07T09:08:27Z</time>
      </trkpt>
      <trkpt lat="42.97715" lon="0.30355">
        <ele>1905.3</ele>
        <time>2026-07-07T09:08:27Z</time>
      </trkpt>
      <trkpt lat="42.97714" lon="0.30355">
        <ele>1905.3</ele>
        <time>2026-07-07T09:08:28Z</time>
      </trkpt>
      <trkpt lat="42.97714" lon="0.30354">
        <ele>1905.3</ele>
        <time>2026-07-07T09:08:29Z</time>
      </trkpt>
      <trkpt lat="42.97713" lon="0.30352">
        <ele>1905.3</ele>
        <time>2026-07-07T09:08:30Z</time>
      </trkpt>
      <trkpt lat="42.97713" lon="0.30351">
        <ele>1905.3</ele>
        <time>2026-07-07T09:08:30Z</time>
      </trkpt>
      <trkpt lat="42.97712" lon="0.30351">
        <ele>1905.3</ele>
        <time>2026-07-07T09:08:31Z</time>
      </trkpt>
      <trkpt lat="42.97712" lon="0.3035">
        <ele>1905.3</ele>
        <time>2026-07-07T09:08:32Z</time>
      </trkpt>
      <trkpt lat="42.97711" lon="0.3035">
        <ele>1905.3</ele>
        <time>2026-07-07T09:08:32Z</time>
      </trkpt>
      <trkpt lat="42.97711" lon="0.30349">
        <ele>1905.3</ele>
        <time>2026-07-07T09:08:33Z</time>
      </trkpt>
      <trkpt lat="42.9771" lon="0.30349">
        <ele>1905.3</ele>
        <time>2026-07-07T09:08:34Z</time>
      </trkpt>
      <trkpt lat="42.97709" lon="0.30349">
        <ele>1905.3</ele>
        <time>2026-07-07T09:08:34Z</time>
      </trkpt>
      <trkpt lat="42.97709" lon="0.30349">
        <ele>1905.3</ele>
        <time>2026-07-07T09:08:35Z</time>
      </trkpt>
      <trkpt lat="42.97708" lon="0.30349">
        <ele>1906.3</ele>
        <time>2026-07-07T09:08:36Z</time>
      </trkpt>
      <trkpt lat="42.97707" lon="0.30349">
        <ele>1906.3</ele>
        <time>2026-07-07T09:08:36Z</time>
      </trkpt>
      <trkpt lat="42.97707" lon="0.30349">
        <ele>1906.3</ele>
        <time>2026-07-07T09:08:37Z</time>
      </trkpt>
      <trkpt lat="42.97706" lon="0.30349">
        <ele>1906.3</ele>
        <time>2026-07-07T09:08:37Z</time>
      </trkpt>
      <trkpt lat="42.97705" lon="0.30349">
        <ele>1906.3</ele>
        <time>2026-07-07T09:08:38Z</time>
      </trkpt>
      <trkpt lat="42.97705" lon="0.30348">
        <ele>1906.3</ele>
        <time>2026-07-07T09:08:39Z</time>
      </trkpt>
      <trkpt lat="42.97705" lon="0.30348">
        <ele>1906.3</ele>
        <time>2026-07-07T09:08:39Z</time>
      </trkpt>
      <trkpt lat="42.97704" lon="0.30347">
        <ele>1906.3</ele>
        <time>2026-07-07T09:08:40Z</time>
      </trkpt>
      <trkpt lat="42.97704" lon="0.30346">
        <ele>1907.3</ele>
        <time>2026-07-07T09:08:41Z</time>
      </trkpt>
      <trkpt lat="42.97703" lon="0.30346">
        <ele>1907.3</ele>
        <time>2026-07-07T09:08:41Z</time>
      </trkpt>
      <trkpt lat="42.97703" lon="0.30345">
        <ele>1907.3</ele>
        <time>2026-07-07T09:08:42Z</time>
      </trkpt>
      <trkpt lat="42.97703" lon="0.30345">
        <ele>1907.3</ele>
        <time>2026-07-07T09:08:42Z</time>
      </trkpt>
      <trkpt lat="42.97702" lon="0.30345">
        <ele>1907.3</ele>
        <time>2026-07-07T09:08:43Z</time>
      </trkpt>
      <trkpt lat="42.97702" lon="0.30345">
        <ele>1907.3</ele>
        <time>2026-07-07T09:08:44Z</time>
      </trkpt>
      <trkpt lat="42.97702" lon="0.30345">
        <ele>1907.3</ele>
        <time>2026-07-07T09:08:44Z</time>
      </trkpt>
      <trkpt lat="42.97701" lon="0.30345">
        <ele>1907.3</ele>
        <time>2026-07-07T09:08:45Z</time>
      </trkpt>
      <trkpt lat="42.97701" lon="0.30344">
        <ele>1907.3</ele>
        <time>2026-07-07T09:08:46Z</time>
      </trkpt>
      <trkpt lat="42.97701" lon="0.30344">
        <ele>1906.3</ele>
        <time>2026-07-07T09:08:46Z</time>
      </trkpt>
      <trkpt lat="42.977" lon="0.30344">
        <ele>1905.3</ele>
        <time>2026-07-07T09:08:47Z</time>
      </trkpt>
      <trkpt lat="42.977" lon="0.30344">
        <ele>1905.3</ele>
        <time>2026-07-07T09:08:48Z</time>
      </trkpt>
      <trkpt lat="42.977" lon="0.30344">
        <ele>1905.3</ele>
        <time>2026-07-07T09:08:48Z</time>
      </trkpt>
      <trkpt lat="42.97699" lon="0.30344">
        <ele>1905.3</ele>
        <time>2026-07-07T09:08:49Z</time>
      </trkpt>
      <trkpt lat="42.97698" lon="0.30343">
        <ele>1905.3</ele>
        <time>2026-07-07T09:08:50Z</time>
      </trkpt>
      <trkpt lat="42.97698" lon="0.30343">
        <ele>1905.3</ele>
        <time>2026-07-07T09:08:50Z</time>
      </trkpt>
      <trkpt lat="42.97698" lon="0.30343">
        <ele>1905.3</ele>
        <time>2026-07-07T09:08:51Z</time>
      </trkpt>
      <trkpt lat="42.97698" lon="0.30343">
        <ele>1905.3</ele>
        <time>2026-07-07T09:08:52Z</time>
      </trkpt>
      <trkpt lat="42.97697" lon="0.30343">
        <ele>1904.3</ele>
        <time>2026-07-07T09:08:52Z</time>
      </trkpt>
      <trkpt lat="42.97697" lon="0.30343">
        <ele>1904.3</ele>
        <time>2026-07-07T09:08:53Z</time>
      </trkpt>
      <trkpt lat="42.97697" lon="0.30343">
        <ele>1904.3</ele>
        <time>2026-07-07T09:08:54Z</time>
      </trkpt>
      <trkpt lat="42.97696" lon="0.30343">
        <ele>1903.3</ele>
        <time>2026-07-07T09:08:54Z</time>
      </trkpt>
      <trkpt lat="42.97696" lon="0.30342">
        <ele>1903.3</ele>
        <time>2026-07-07T09:08:55Z</time>
      </trkpt>
      <trkpt lat="42.97696" lon="0.30342">
        <ele>1903.3</ele>
        <time>2026-07-07T09:08:56Z</time>
      </trkpt>
      <trkpt lat="42.97696" lon="0.30342">
        <ele>1903.3</ele>
        <time>2026-07-07T09:08:57Z</time>
      </trkpt>
      <trkpt lat="42.97695" lon="0.30342">
        <ele>1902.3</ele>
        <time>2026-07-07T09:08:57Z</time>
      </trkpt>
      <trkpt lat="42.97695" lon="0.30341">
        <ele>1902.3</ele>
        <time>2026-07-07T09:08:58Z</time>
      </trkpt>
      <trkpt lat="42.97695" lon="0.30342">
        <ele>1902.3</ele>
        <time>2026-07-07T09:08:59Z</time>
      </trkpt>
      <trkpt lat="42.97695" lon="0.30342">
        <ele>1902.3</ele>
        <time>2026-07-07T09:09:00Z</time>
      </trkpt>
      <trkpt lat="42.97695" lon="0.30342">
        <ele>1902.3</ele>
        <time>2026-07-07T09:09:00Z</time>
      </trkpt>
      <trkpt lat="42.97695" lon="0.30342">
        <ele>1902.3</ele>
        <time>2026-07-07T09:09:01Z</time>
      </trkpt>
      <trkpt lat="42.97695" lon="0.30342">
        <ele>1903.3</ele>
        <time>2026-07-07T09:09:02Z</time>
      </trkpt>
      <trkpt lat="42.97695" lon="0.30342">
        <ele>1903.3</ele>
        <time>2026-07-07T09:09:02Z</time>
      </trkpt>
      <trkpt lat="42.97695" lon="0.30341">
        <ele>1902.3</ele>
        <time>2026-07-07T09:09:03Z</time>
      </trkpt>
      <trkpt lat="42.97695" lon="0.30341">
        <ele>1902.3</ele>
        <time>2026-07-07T09:09:04Z</time>
      </trkpt>
      <trkpt lat="42.97694" lon="0.3034">
        <ele>1902.3</ele>
        <time>2026-07-07T09:09:05Z</time>
      </trkpt>
      <trkpt lat="42.97694" lon="0.30339">
        <ele>1901.3</ele>
        <time>2026-07-07T09:09:06Z</time>
      </trkpt>
      <trkpt lat="42.97694" lon="0.30339">
        <ele>1901.3</ele>
        <time>2026-07-07T09:09:06Z</time>
      </trkpt>
      <trkpt lat="42.97694" lon="0.30338">
        <ele>1901.3</ele>
        <time>2026-07-07T09:09:07Z</time>
      </trkpt>
      <trkpt lat="42.97694" lon="0.30337">
        <ele>1901.3</ele>
        <time>2026-07-07T09:09:07Z</time>
      </trkpt>
      <trkpt lat="42.97693" lon="0.30336">
        <ele>1901.3</ele>
        <time>2026-07-07T09:09:08Z</time>
      </trkpt>
      <trkpt lat="42.97694" lon="0.30335">
        <ele>1900.3</ele>
        <time>2026-07-07T09:09:09Z</time>
      </trkpt>
      <trkpt lat="42.97694" lon="0.30334">
        <ele>1899.3</ele>
        <time>2026-07-07T09:09:09Z</time>
      </trkpt>
      <trkpt lat="42.97694" lon="0.30333">
        <ele>1899.3</ele>
        <time>2026-07-07T09:09:10Z</time>
      </trkpt>
      <trkpt lat="42.97694" lon="0.30333">
        <ele>1899.3</ele>
        <time>2026-07-07T09:09:11Z</time>
      </trkpt>
      <trkpt lat="42.97694" lon="0.30332">
        <ele>1899.3</ele>
        <time>2026-07-07T09:09:11Z</time>
      </trkpt>
      <trkpt lat="42.97694" lon="0.30332">
        <ele>1899.3</ele>
        <time>2026-07-07T09:09:12Z</time>
      </trkpt>
      <trkpt lat="42.97694" lon="0.30332">
        <ele>1899.3</ele>
        <time>2026-07-07T09:09:12Z</time>
      </trkpt>
      <trkpt lat="42.97695" lon="0.30331">
        <ele>1899.3</ele>
        <time>2026-07-07T09:09:13Z</time>
      </trkpt>
      <trkpt lat="42.97695" lon="0.3033">
        <ele>1898.3</ele>
        <time>2026-07-07T09:09:13Z</time>
      </trkpt>
      <trkpt lat="42.97694" lon="0.3033">
        <ele>1898.3</ele>
        <time>2026-07-07T09:09:14Z</time>
      </trkpt>
      <trkpt lat="42.97694" lon="0.30329">
        <ele>1898.3</ele>
        <time>2026-07-07T09:09:15Z</time>
      </trkpt>
      <trkpt lat="42.97694" lon="0.30329">
        <ele>1898.3</ele>
        <time>2026-07-07T09:09:15Z</time>
      </trkpt>
      <trkpt lat="42.97693" lon="0.30328">
        <ele>1898.3</ele>
        <time>2026-07-07T09:09:16Z</time>
      </trkpt>
      <trkpt lat="42.97693" lon="0.30328">
        <ele>1898.3</ele>
        <time>2026-07-07T09:09:17Z</time>
      </trkpt>
      <trkpt lat="42.97692" lon="0.30327">
        <ele>1898.3</ele>
        <time>2026-07-07T09:09:17Z</time>
      </trkpt>
      <trkpt lat="42.97692" lon="0.30327">
        <ele>1898.3</ele>
        <time>2026-07-07T09:09:18Z</time>
      </trkpt>
      <trkpt lat="42.97692" lon="0.30326">
        <ele>1898.3</ele>
        <time>2026-07-07T09:09:18Z</time>
      </trkpt>
      <trkpt lat="42.97691" lon="0.30325">
        <ele>1897.3</ele>
        <time>2026-07-07T09:09:19Z</time>
      </trkpt>
      <trkpt lat="42.97691" lon="0.30324">
        <ele>1897.3</ele>
        <time>2026-07-07T09:09:20Z</time>
      </trkpt>
      <trkpt lat="42.97691" lon="0.30324">
        <ele>1897.3</ele>
        <time>2026-07-07T09:09:21Z</time>
      </trkpt>
      <trkpt lat="42.97691" lon="0.30323">
        <ele>1897.3</ele>
        <time>2026-07-07T09:09:21Z</time>
      </trkpt>
      <trkpt lat="42.9769" lon="0.30323">
        <ele>1897.3</ele>
        <time>2026-07-07T09:09:22Z</time>
      </trkpt>
      <trkpt lat="42.9769" lon="0.30322">
        <ele>1897.3</ele>
        <time>2026-07-07T09:09:22Z</time>
      </trkpt>
      <trkpt lat="42.9769" lon="0.30321">
        <ele>1897.3</ele>
        <time>2026-07-07T09:09:23Z</time>
      </trkpt>
      <trkpt lat="42.9769" lon="0.30321">
        <ele>1897.3</ele>
        <time>2026-07-07T09:09:23Z</time>
      </trkpt>
      <trkpt lat="42.9769" lon="0.3032">
        <ele>1897.3</ele>
        <time>2026-07-07T09:09:24Z</time>
      </trkpt>
      <trkpt lat="42.97689" lon="0.3032">
        <ele>1897.3</ele>
        <time>2026-07-07T09:09:25Z</time>
      </trkpt>
      <trkpt lat="42.97689" lon="0.3032">
        <ele>1897.3</ele>
        <time>2026-07-07T09:09:26Z</time>
      </trkpt>
      <trkpt lat="42.97689" lon="0.30319">
        <ele>1897.3</ele>
        <time>2026-07-07T09:09:26Z</time>
      </trkpt>
      <trkpt lat="42.97689" lon="0.30318">
        <ele>1897.3</ele>
        <time>2026-07-07T09:09:27Z</time>
      </trkpt>
      <trkpt lat="42.97688" lon="0.30318">
        <ele>1897.3</ele>
        <time>2026-07-07T09:09:27Z</time>
      </trkpt>
      <trkpt lat="42.97688" lon="0.30317">
        <ele>1897.3</ele>
        <time>2026-07-07T09:09:28Z</time>
      </trkpt>
      <trkpt lat="42.97687" lon="0.30317">
        <ele>1896.3</ele>
        <time>2026-07-07T09:09:28Z</time>
      </trkpt>
      <trkpt lat="42.97687" lon="0.30316">
        <ele>1896.3</ele>
        <time>2026-07-07T09:09:29Z</time>
      </trkpt>
      <trkpt lat="42.97687" lon="0.30316">
        <ele>1896.3</ele>
        <time>2026-07-07T09:09:29Z</time>
      </trkpt>
      <trkpt lat="42.97687" lon="0.30315">
        <ele>1896.3</ele>
        <time>2026-07-07T09:09:30Z</time>
      </trkpt>
      <trkpt lat="42.97687" lon="0.30315">
        <ele>1896.3</ele>
        <time>2026-07-07T09:09:30Z</time>
      </trkpt>
      <trkpt lat="42.97687" lon="0.30314">
        <ele>1896.3</ele>
        <time>2026-07-07T09:09:31Z</time>
      </trkpt>
      <trkpt lat="42.97687" lon="0.30314">
        <ele>1896.3</ele>
        <time>2026-07-07T09:09:32Z</time>
      </trkpt>
      <trkpt lat="42.97687" lon="0.30313">
        <ele>1896.3</ele>
        <time>2026-07-07T09:09:32Z</time>
      </trkpt>
      <trkpt lat="42.97687" lon="0.30313">
        <ele>1896.3</ele>
        <time>2026-07-07T09:09:33Z</time>
      </trkpt>
      <trkpt lat="42.97686" lon="0.30312">
        <ele>1895.3</ele>
        <time>2026-07-07T09:09:33Z</time>
      </trkpt>
      <trkpt lat="42.97686" lon="0.30311">
        <ele>1895.3</ele>
        <time>2026-07-07T09:09:34Z</time>
      </trkpt>
      <trkpt lat="42.97685" lon="0.3031">
        <ele>1895.3</ele>
        <time>2026-07-07T09:09:35Z</time>
      </trkpt>
      <trkpt lat="42.97685" lon="0.3031">
        <ele>1895.3</ele>
        <time>2026-07-07T09:09:36Z</time>
      </trkpt>
      <trkpt lat="42.97684" lon="0.30309">
        <ele>1894.3</ele>
        <time>2026-07-07T09:09:36Z</time>
      </trkpt>
      <trkpt lat="42.97684" lon="0.30309">
        <ele>1894.3</ele>
        <time>2026-07-07T09:09:37Z</time>
      </trkpt>
      <trkpt lat="42.97684" lon="0.30308">
        <ele>1894.3</ele>
        <time>2026-07-07T09:09:37Z</time>
      </trkpt>
      <trkpt lat="42.97683" lon="0.30308">
        <ele>1894.3</ele>
        <time>2026-07-07T09:09:38Z</time>
      </trkpt>
      <trkpt lat="42.97683" lon="0.30307">
        <ele>1893.3</ele>
        <time>2026-07-07T09:09:38Z</time>
      </trkpt>
      <trkpt lat="42.97683" lon="0.30307">
        <ele>1893.3</ele>
        <time>2026-07-07T09:09:39Z</time>
      </trkpt>
      <trkpt lat="42.97683" lon="0.30306">
        <ele>1893.3</ele>
        <time>2026-07-07T09:09:39Z</time>
      </trkpt>
      <trkpt lat="42.97682" lon="0.30306">
        <ele>1893.3</ele>
        <time>2026-07-07T09:09:40Z</time>
      </trkpt>
      <trkpt lat="42.97682" lon="0.30305">
        <ele>1893.3</ele>
        <time>2026-07-07T09:09:40Z</time>
      </trkpt>
      <trkpt lat="42.97682" lon="0.30304">
        <ele>1893.3</ele>
        <time>2026-07-07T09:09:41Z</time>
      </trkpt>
      <trkpt lat="42.97682" lon="0.30304">
        <ele>1893.3</ele>
        <time>2026-07-07T09:09:41Z</time>
      </trkpt>
      <trkpt lat="42.97682" lon="0.30303">
        <ele>1892.3</ele>
        <time>2026-07-07T09:09:42Z</time>
      </trkpt>
      <trkpt lat="42.97682" lon="0.30302">
        <ele>1892.3</ele>
        <time>2026-07-07T09:09:43Z</time>
      </trkpt>
      <trkpt lat="42.97682" lon="0.30302">
        <ele>1891.3</ele>
        <time>2026-07-07T09:09:43Z</time>
      </trkpt>
      <trkpt lat="42.97681" lon="0.30301">
        <ele>1891.3</ele>
        <time>2026-07-07T09:09:44Z</time>
      </trkpt>
      <trkpt lat="42.97681" lon="0.303">
        <ele>1891.3</ele>
        <time>2026-07-07T09:09:45Z</time>
      </trkpt>
      <trkpt lat="42.97681" lon="0.303">
        <ele>1891.3</ele>
        <time>2026-07-07T09:09:45Z</time>
      </trkpt>
      <trkpt lat="42.9768" lon="0.30299">
        <ele>1891.3</ele>
        <time>2026-07-07T09:09:46Z</time>
      </trkpt>
      <trkpt lat="42.9768" lon="0.30299">
        <ele>1891.3</ele>
        <time>2026-07-07T09:09:46Z</time>
      </trkpt>
      <trkpt lat="42.9768" lon="0.30298">
        <ele>1891.3</ele>
        <time>2026-07-07T09:09:47Z</time>
      </trkpt>
      <trkpt lat="42.97679" lon="0.30298">
        <ele>1891.3</ele>
        <time>2026-07-07T09:09:47Z</time>
      </trkpt>
      <trkpt lat="42.97679" lon="0.30297">
        <ele>1891.3</ele>
        <time>2026-07-07T09:09:48Z</time>
      </trkpt>
      <trkpt lat="42.97679" lon="0.30296">
        <ele>1891.3</ele>
        <time>2026-07-07T09:09:49Z</time>
      </trkpt>
      <trkpt lat="42.97678" lon="0.30295">
        <ele>1891.3</ele>
        <time>2026-07-07T09:09:49Z</time>
      </trkpt>
      <trkpt lat="42.97678" lon="0.30295">
        <ele>1891.3</ele>
        <time>2026-07-07T09:09:50Z</time>
      </trkpt>
      <trkpt lat="42.97678" lon="0.30295">
        <ele>1891.3</ele>
        <time>2026-07-07T09:09:50Z</time>
      </trkpt>
      <trkpt lat="42.97678" lon="0.30294">
        <ele>1891.3</ele>
        <time>2026-07-07T09:09:51Z</time>
      </trkpt>
      <trkpt lat="42.97678" lon="0.30293">
        <ele>1891.3</ele>
        <time>2026-07-07T09:09:51Z</time>
      </trkpt>
      <trkpt lat="42.97677" lon="0.30293">
        <ele>1891.3</ele>
        <time>2026-07-07T09:09:52Z</time>
      </trkpt>
      <trkpt lat="42.97677" lon="0.30292">
        <ele>1891.3</ele>
        <time>2026-07-07T09:09:52Z</time>
      </trkpt>
      <trkpt lat="42.97677" lon="0.30291">
        <ele>1891.3</ele>
        <time>2026-07-07T09:09:53Z</time>
      </trkpt>
      <trkpt lat="42.97677" lon="0.30291">
        <ele>1891.3</ele>
        <time>2026-07-07T09:09:53Z</time>
      </trkpt>
      <trkpt lat="42.97677" lon="0.3029">
        <ele>1891.3</ele>
        <time>2026-07-07T09:09:54Z</time>
      </trkpt>
      <trkpt lat="42.97677" lon="0.30288">
        <ele>1890.3</ele>
        <time>2026-07-07T09:09:55Z</time>
      </trkpt>
      <trkpt lat="42.97678" lon="0.30288">
        <ele>1890.3</ele>
        <time>2026-07-07T09:09:56Z</time>
      </trkpt>
      <trkpt lat="42.97678" lon="0.30287">
        <ele>1890.3</ele>
        <time>2026-07-07T09:09:56Z</time>
      </trkpt>
      <trkpt lat="42.97678" lon="0.30287">
        <ele>1890.3</ele>
        <time>2026-07-07T09:09:57Z</time>
      </trkpt>
      <trkpt lat="42.97678" lon="0.30286">
        <ele>1890.3</ele>
        <time>2026-07-07T09:09:57Z</time>
      </trkpt>
      <trkpt lat="42.97678" lon="0.30285">
        <ele>1890.3</ele>
        <time>2026-07-07T09:09:58Z</time>
      </trkpt>
      <trkpt lat="42.97677" lon="0.30285">
        <ele>1889.3</ele>
        <time>2026-07-07T09:09:58Z</time>
      </trkpt>
      <trkpt lat="42.97677" lon="0.30284">
        <ele>1889.3</ele>
        <time>2026-07-07T09:09:59Z</time>
      </trkpt>
      <trkpt lat="42.97676" lon="0.30284">
        <ele>1889.3</ele>
        <time>2026-07-07T09:10:00Z</time>
      </trkpt>
      <trkpt lat="42.97676" lon="0.30283">
        <ele>1890.3</ele>
        <time>2026-07-07T09:10:00Z</time>
      </trkpt>
      <trkpt lat="42.97675" lon="0.30283">
        <ele>1890.3</ele>
        <time>2026-07-07T09:10:01Z</time>
      </trkpt>
      <trkpt lat="42.97675" lon="0.30282">
        <ele>1889.3</ele>
        <time>2026-07-07T09:10:02Z</time>
      </trkpt>
      <trkpt lat="42.97675" lon="0.30282">
        <ele>1889.3</ele>
        <time>2026-07-07T09:10:02Z</time>
      </trkpt>
      <trkpt lat="42.97674" lon="0.30281">
        <ele>1889.3</ele>
        <time>2026-07-07T09:10:03Z</time>
      </trkpt>
      <trkpt lat="42.97674" lon="0.3028">
        <ele>1889.3</ele>
        <time>2026-07-07T09:10:04Z</time>
      </trkpt>
      <trkpt lat="42.97674" lon="0.3028">
        <ele>1888.3</ele>
        <time>2026-07-07T09:10:04Z</time>
      </trkpt>
      <trkpt lat="42.97674" lon="0.30279">
        <ele>1888.3</ele>
        <time>2026-07-07T09:10:05Z</time>
      </trkpt>
      <trkpt lat="42.97674" lon="0.30278">
        <ele>1888.3</ele>
        <time>2026-07-07T09:10:05Z</time>
      </trkpt>
      <trkpt lat="42.97674" lon="0.30278">
        <ele>1888.3</ele>
        <time>2026-07-07T09:10:06Z</time>
      </trkpt>
      <trkpt lat="42.97674" lon="0.30277">
        <ele>1888.3</ele>
        <time>2026-07-07T09:10:07Z</time>
      </trkpt>
      <trkpt lat="42.97673" lon="0.30276">
        <ele>1888.3</ele>
        <time>2026-07-07T09:10:07Z</time>
      </trkpt>
      <trkpt lat="42.97673" lon="0.30275">
        <ele>1887.3</ele>
        <time>2026-07-07T09:10:08Z</time>
      </trkpt>
      <trkpt lat="42.97673" lon="0.30275">
        <ele>1886.3</ele>
        <time>2026-07-07T09:10:08Z</time>
      </trkpt>
      <trkpt lat="42.97673" lon="0.30274">
        <ele>1886.3</ele>
        <time>2026-07-07T09:10:09Z</time>
      </trkpt>
      <trkpt lat="42.97673" lon="0.30274">
        <ele>1886.3</ele>
        <time>2026-07-07T09:10:09Z</time>
      </trkpt>
      <trkpt lat="42.97672" lon="0.30273">
        <ele>1886.3</ele>
        <time>2026-07-07T09:10:10Z</time>
      </trkpt>
      <trkpt lat="42.97673" lon="0.30272">
        <ele>1886.3</ele>
        <time>2026-07-07T09:10:11Z</time>
      </trkpt>
      <trkpt lat="42.97673" lon="0.30272">
        <ele>1886.3</ele>
        <time>2026-07-07T09:10:11Z</time>
      </trkpt>
      <trkpt lat="42.97673" lon="0.30271">
        <ele>1886.3</ele>
        <time>2026-07-07T09:10:12Z</time>
      </trkpt>
      <trkpt lat="42.97672" lon="0.3027">
        <ele>1885.3</ele>
        <time>2026-07-07T09:10:13Z</time>
      </trkpt>
      <trkpt lat="42.97672" lon="0.3027">
        <ele>1885.3</ele>
        <time>2026-07-07T09:10:13Z</time>
      </trkpt>
      <trkpt lat="42.97672" lon="0.3027">
        <ele>1885.3</ele>
        <time>2026-07-07T09:10:14Z</time>
      </trkpt>
      <trkpt lat="42.97671" lon="0.30269">
        <ele>1885.3</ele>
        <time>2026-07-07T09:10:14Z</time>
      </trkpt>
      <trkpt lat="42.97671" lon="0.30269">
        <ele>1885.3</ele>
        <time>2026-07-07T09:10:15Z</time>
      </trkpt>
      <trkpt lat="42.9767" lon="0.30269">
        <ele>1885.3</ele>
        <time>2026-07-07T09:10:15Z</time>
      </trkpt>
      <trkpt lat="42.9767" lon="0.30268">
        <ele>1885.3</ele>
        <time>2026-07-07T09:10:16Z</time>
      </trkpt>
      <trkpt lat="42.9767" lon="0.30268">
        <ele>1884.3</ele>
        <time>2026-07-07T09:10:16Z</time>
      </trkpt>
      <trkpt lat="42.97669" lon="0.30267">
        <ele>1884.3</ele>
        <time>2026-07-07T09:10:17Z</time>
      </trkpt>
      <trkpt lat="42.97669" lon="0.30267">
        <ele>1884.3</ele>
        <time>2026-07-07T09:10:18Z</time>
      </trkpt>
      <trkpt lat="42.97669" lon="0.30267">
        <ele>1884.3</ele>
        <time>2026-07-07T09:10:19Z</time>
      </trkpt>
      <trkpt lat="42.97669" lon="0.30266">
        <ele>1884.3</ele>
        <time>2026-07-07T09:10:19Z</time>
      </trkpt>
      <trkpt lat="42.97669" lon="0.30266">
        <ele>1884.3</ele>
        <time>2026-07-07T09:10:20Z</time>
      </trkpt>
      <trkpt lat="42.97669" lon="0.30265">
        <ele>1884.3</ele>
        <time>2026-07-07T09:10:20Z</time>
      </trkpt>
      <trkpt lat="42.97669" lon="0.30264">
        <ele>1884.3</ele>
        <time>2026-07-07T09:10:21Z</time>
      </trkpt>
      <trkpt lat="42.97669" lon="0.30264">
        <ele>1884.3</ele>
        <time>2026-07-07T09:10:21Z</time>
      </trkpt>
      <trkpt lat="42.97668" lon="0.30263">
        <ele>1884.3</ele>
        <time>2026-07-07T09:10:22Z</time>
      </trkpt>
      <trkpt lat="42.97668" lon="0.30263">
        <ele>1884.3</ele>
        <time>2026-07-07T09:10:23Z</time>
      </trkpt>
      <trkpt lat="42.97667" lon="0.30262">
        <ele>1883.3</ele>
        <time>2026-07-07T09:10:23Z</time>
      </trkpt>
      <trkpt lat="42.97667" lon="0.30262">
        <ele>1883.3</ele>
        <time>2026-07-07T09:10:24Z</time>
      </trkpt>
      <trkpt lat="42.97667" lon="0.3026">
        <ele>1882.3</ele>
        <time>2026-07-07T09:10:25Z</time>
      </trkpt>
      <trkpt lat="42.97667" lon="0.30259">
        <ele>1882.3</ele>
        <time>2026-07-07T09:10:26Z</time>
      </trkpt>
      <trkpt lat="42.97667" lon="0.30258">
        <ele>1882.3</ele>
        <time>2026-07-07T09:10:27Z</time>
      </trkpt>
      <trkpt lat="42.97667" lon="0.30258">
        <ele>1882.3</ele>
        <time>2026-07-07T09:10:27Z</time>
      </trkpt>
      <trkpt lat="42.97667" lon="0.30257">
        <ele>1882.3</ele>
        <time>2026-07-07T09:10:28Z</time>
      </trkpt>
      <trkpt lat="42.97667" lon="0.30257">
        <ele>1881.3</ele>
        <time>2026-07-07T09:10:28Z</time>
      </trkpt>
      <trkpt lat="42.97667" lon="0.30256">
        <ele>1881.3</ele>
        <time>2026-07-07T09:10:29Z</time>
      </trkpt>
      <trkpt lat="42.97667" lon="0.30255">
        <ele>1880.3</ele>
        <time>2026-07-07T09:10:30Z</time>
      </trkpt>
      <trkpt lat="42.97668" lon="0.30255">
        <ele>1880.3</ele>
        <time>2026-07-07T09:10:30Z</time>
      </trkpt>
      <trkpt lat="42.97668" lon="0.30254">
        <ele>1880.3</ele>
        <time>2026-07-07T09:10:31Z</time>
      </trkpt>
      <trkpt lat="42.97668" lon="0.30254">
        <ele>1879.3</ele>
        <time>2026-07-07T09:10:31Z</time>
      </trkpt>
      <trkpt lat="42.97668" lon="0.30253">
        <ele>1879.3</ele>
        <time>2026-07-07T09:10:32Z</time>
      </trkpt>
      <trkpt lat="42.97668" lon="0.30253">
        <ele>1879.3</ele>
        <time>2026-07-07T09:10:33Z</time>
      </trkpt>
      <trkpt lat="42.97668" lon="0.30253">
        <ele>1879.3</ele>
        <time>2026-07-07T09:10:33Z</time>
      </trkpt>
      <trkpt lat="42.97668" lon="0.30252">
        <ele>1879.3</ele>
        <time>2026-07-07T09:10:34Z</time>
      </trkpt>
      <trkpt lat="42.97669" lon="0.30251">
        <ele>1878.3</ele>
        <time>2026-07-07T09:10:35Z</time>
      </trkpt>
      <trkpt lat="42.97669" lon="0.30251">
        <ele>1878.3</ele>
        <time>2026-07-07T09:10:35Z</time>
      </trkpt>
      <trkpt lat="42.97669" lon="0.3025">
        <ele>1878.3</ele>
        <time>2026-07-07T09:10:36Z</time>
      </trkpt>
      <trkpt lat="42.9767" lon="0.30249">
        <ele>1878.3</ele>
        <time>2026-07-07T09:10:37Z</time>
      </trkpt>
      <trkpt lat="42.9767" lon="0.30248">
        <ele>1878.3</ele>
        <time>2026-07-07T09:10:37Z</time>
      </trkpt>
      <trkpt lat="42.9767" lon="0.30248">
        <ele>1878.3</ele>
        <time>2026-07-07T09:10:38Z</time>
      </trkpt>
      <trkpt lat="42.9767" lon="0.30247">
        <ele>1878.3</ele>
        <time>2026-07-07T09:10:38Z</time>
      </trkpt>
      <trkpt lat="42.9767" lon="0.30246">
        <ele>1877.3</ele>
        <time>2026-07-07T09:10:39Z</time>
      </trkpt>
      <trkpt lat="42.9767" lon="0.30246">
        <ele>1877.3</ele>
        <time>2026-07-07T09:10:39Z</time>
      </trkpt>
      <trkpt lat="42.9767" lon="0.30245">
        <ele>1877.3</ele>
        <time>2026-07-07T09:10:40Z</time>
      </trkpt>
      <trkpt lat="42.9767" lon="0.30245">
        <ele>1876.3</ele>
        <time>2026-07-07T09:10:41Z</time>
      </trkpt>
      <trkpt lat="42.97669" lon="0.30245">
        <ele>1876.3</ele>
        <time>2026-07-07T09:10:42Z</time>
      </trkpt>
      <trkpt lat="42.97669" lon="0.30244">
        <ele>1876.3</ele>
        <time>2026-07-07T09:10:42Z</time>
      </trkpt>
      <trkpt lat="42.97669" lon="0.30243">
        <ele>1876.3</ele>
        <time>2026-07-07T09:10:43Z</time>
      </trkpt>
      <trkpt lat="42.97669" lon="0.30243">
        <ele>1876.3</ele>
        <time>2026-07-07T09:10:43Z</time>
      </trkpt>
      <trkpt lat="42.97669" lon="0.30243">
        <ele>1876.3</ele>
        <time>2026-07-07T09:10:44Z</time>
      </trkpt>
      <trkpt lat="42.97669" lon="0.30243">
        <ele>1876.3</ele>
        <time>2026-07-07T09:10:45Z</time>
      </trkpt>
      <trkpt lat="42.97669" lon="0.30242">
        <ele>1875.3</ele>
        <time>2026-07-07T09:10:45Z</time>
      </trkpt>
      <trkpt lat="42.97669" lon="0.30241">
        <ele>1875.3</ele>
        <time>2026-07-07T09:10:46Z</time>
      </trkpt>
      <trkpt lat="42.97669" lon="0.30241">
        <ele>1875.3</ele>
        <time>2026-07-07T09:10:47Z</time>
      </trkpt>
      <trkpt lat="42.97669" lon="0.30241">
        <ele>1875.3</ele>
        <time>2026-07-07T09:10:47Z</time>
      </trkpt>
      <trkpt lat="42.97669" lon="0.3024">
        <ele>1875.3</ele>
        <time>2026-07-07T09:10:48Z</time>
      </trkpt>
      <trkpt lat="42.97669" lon="0.3024">
        <ele>1875.3</ele>
        <time>2026-07-07T09:10:48Z</time>
      </trkpt>
      <trkpt lat="42.97669" lon="0.30239">
        <ele>1875.3</ele>
        <time>2026-07-07T09:10:49Z</time>
      </trkpt>
      <trkpt lat="42.97669" lon="0.30239">
        <ele>1876.3</ele>
        <time>2026-07-07T09:10:50Z</time>
      </trkpt>
      <trkpt lat="42.97669" lon="0.30239">
        <ele>1876.3</ele>
        <time>2026-07-07T09:10:50Z</time>
      </trkpt>
      <trkpt lat="42.9767" lon="0.30238">
        <ele>1876.3</ele>
        <time>2026-07-07T09:10:51Z</time>
      </trkpt>
      <trkpt lat="42.9767" lon="0.30238">
        <ele>1875.3</ele>
        <time>2026-07-07T09:10:52Z</time>
      </trkpt>
      <trkpt lat="42.9767" lon="0.30237">
        <ele>1875.3</ele>
        <time>2026-07-07T09:10:52Z</time>
      </trkpt>
      <trkpt lat="42.9767" lon="0.30237">
        <ele>1875.3</ele>
        <time>2026-07-07T09:10:53Z</time>
      </trkpt>
      <trkpt lat="42.97669" lon="0.30236">
        <ele>1874.3</ele>
        <time>2026-07-07T09:10:53Z</time>
      </trkpt>
      <trkpt lat="42.97669" lon="0.30235">
        <ele>1874.3</ele>
        <time>2026-07-07T09:10:54Z</time>
      </trkpt>
      <trkpt lat="42.97669" lon="0.30234">
        <ele>1874.3</ele>
        <time>2026-07-07T09:10:55Z</time>
      </trkpt>
      <trkpt lat="42.9767" lon="0.30234">
        <ele>1873.3</ele>
        <time>2026-07-07T09:10:56Z</time>
      </trkpt>
      <trkpt lat="42.9767" lon="0.30234">
        <ele>1873.3</ele>
        <time>2026-07-07T09:10:56Z</time>
      </trkpt>
      <trkpt lat="42.9767" lon="0.30233">
        <ele>1873.3</ele>
        <time>2026-07-07T09:10:57Z</time>
      </trkpt>
      <trkpt lat="42.97671" lon="0.30233">
        <ele>1873.3</ele>
        <time>2026-07-07T09:10:58Z</time>
      </trkpt>
      <trkpt lat="42.97671" lon="0.30233">
        <ele>1873.3</ele>
        <time>2026-07-07T09:10:58Z</time>
      </trkpt>
      <trkpt lat="42.97671" lon="0.30232">
        <ele>1873.3</ele>
        <time>2026-07-07T09:10:59Z</time>
      </trkpt>
      <trkpt lat="42.97671" lon="0.30232">
        <ele>1873.3</ele>
        <time>2026-07-07T09:10:59Z</time>
      </trkpt>
      <trkpt lat="42.97671" lon="0.30231">
        <ele>1873.3</ele>
        <time>2026-07-07T09:11:00Z</time>
      </trkpt>
      <trkpt lat="42.97671" lon="0.3023">
        <ele>1873.3</ele>
        <time>2026-07-07T09:11:01Z</time>
      </trkpt>
      <trkpt lat="42.9767" lon="0.3023">
        <ele>1872.3</ele>
        <time>2026-07-07T09:11:02Z</time>
      </trkpt>
      <trkpt lat="42.9767" lon="0.3023">
        <ele>1872.3</ele>
        <time>2026-07-07T09:11:02Z</time>
      </trkpt>
      <trkpt lat="42.97669" lon="0.3023">
        <ele>1872.3</ele>
        <time>2026-07-07T09:11:03Z</time>
      </trkpt>
      <trkpt lat="42.97669" lon="0.30229">
        <ele>1872.3</ele>
        <time>2026-07-07T09:11:04Z</time>
      </trkpt>
      <trkpt lat="42.97668" lon="0.30229">
        <ele>1872.3</ele>
        <time>2026-07-07T09:11:04Z</time>
      </trkpt>
      <trkpt lat="42.97668" lon="0.30228">
        <ele>1872.3</ele>
        <time>2026-07-07T09:11:05Z</time>
      </trkpt>
      <trkpt lat="42.97668" lon="0.30228">
        <ele>1871.3</ele>
        <time>2026-07-07T09:11:06Z</time>
      </trkpt>
      <trkpt lat="42.97667" lon="0.30227">
        <ele>1871.3</ele>
        <time>2026-07-07T09:11:06Z</time>
      </trkpt>
      <trkpt lat="42.97667" lon="0.30227">
        <ele>1871.3</ele>
        <time>2026-07-07T09:11:07Z</time>
      </trkpt>
      <trkpt lat="42.97666" lon="0.30227">
        <ele>1871.3</ele>
        <time>2026-07-07T09:11:07Z</time>
      </trkpt>
      <trkpt lat="42.97666" lon="0.30226">
        <ele>1871.3</ele>
        <time>2026-07-07T09:11:08Z</time>
      </trkpt>
      <trkpt lat="42.97665" lon="0.30226">
        <ele>1871.3</ele>
        <time>2026-07-07T09:11:09Z</time>
      </trkpt>
      <trkpt lat="42.97665" lon="0.30226">
        <ele>1871.3</ele>
        <time>2026-07-07T09:11:09Z</time>
      </trkpt>
      <trkpt lat="42.97664" lon="0.30225">
        <ele>1871.3</ele>
        <time>2026-07-07T09:11:10Z</time>
      </trkpt>
      <trkpt lat="42.97664" lon="0.30225">
        <ele>1871.3</ele>
        <time>2026-07-07T09:11:10Z</time>
      </trkpt>
      <trkpt lat="42.97663" lon="0.30225">
        <ele>1871.3</ele>
        <time>2026-07-07T09:11:11Z</time>
      </trkpt>
      <trkpt lat="42.97663" lon="0.30225">
        <ele>1871.3</ele>
        <time>2026-07-07T09:11:12Z</time>
      </trkpt>
      <trkpt lat="42.97662" lon="0.30224">
        <ele>1871.3</ele>
        <time>2026-07-07T09:11:12Z</time>
      </trkpt>
      <trkpt lat="42.97662" lon="0.30224">
        <ele>1871.3</ele>
        <time>2026-07-07T09:11:13Z</time>
      </trkpt>
      <trkpt lat="42.97661" lon="0.30223">
        <ele>1871.3</ele>
        <time>2026-07-07T09:11:14Z</time>
      </trkpt>
      <trkpt lat="42.97662" lon="0.30222">
        <ele>1870.3</ele>
        <time>2026-07-07T09:11:14Z</time>
      </trkpt>
      <trkpt lat="42.97661" lon="0.30221">
        <ele>1870.3</ele>
        <time>2026-07-07T09:11:15Z</time>
      </trkpt>
      <trkpt lat="42.97661" lon="0.3022">
        <ele>1870.3</ele>
        <time>2026-07-07T09:11:16Z</time>
      </trkpt>
      <trkpt lat="42.9766" lon="0.3022">
        <ele>1870.3</ele>
        <time>2026-07-07T09:11:17Z</time>
      </trkpt>
      <trkpt lat="42.9766" lon="0.30219">
        <ele>1870.3</ele>
        <time>2026-07-07T09:11:17Z</time>
      </trkpt>
      <trkpt lat="42.9766" lon="0.30219">
        <ele>1870.3</ele>
        <time>2026-07-07T09:11:18Z</time>
      </trkpt>
      <trkpt lat="42.97659" lon="0.30218">
        <ele>1870.3</ele>
        <time>2026-07-07T09:11:18Z</time>
      </trkpt>
      <trkpt lat="42.97659" lon="0.30218">
        <ele>1870.3</ele>
        <time>2026-07-07T09:11:19Z</time>
      </trkpt>
      <trkpt lat="42.97659" lon="0.30218">
        <ele>1870.3</ele>
        <time>2026-07-07T09:11:19Z</time>
      </trkpt>
      <trkpt lat="42.97658" lon="0.30217">
        <ele>1870.3</ele>
        <time>2026-07-07T09:11:20Z</time>
      </trkpt>
      <trkpt lat="42.97658" lon="0.30216">
        <ele>1870.3</ele>
        <time>2026-07-07T09:11:21Z</time>
      </trkpt>
      <trkpt lat="42.97658" lon="0.30216">
        <ele>1869.3</ele>
        <time>2026-07-07T09:11:22Z</time>
      </trkpt>
      <trkpt lat="42.97658" lon="0.30216">
        <ele>1870.3</ele>
        <time>2026-07-07T09:11:22Z</time>
      </trkpt>
      <trkpt lat="42.97657" lon="0.30215">
        <ele>1870.3</ele>
        <time>2026-07-07T09:11:23Z</time>
      </trkpt>
      <trkpt lat="42.97657" lon="0.30215">
        <ele>1870.3</ele>
        <time>2026-07-07T09:11:23Z</time>
      </trkpt>
      <trkpt lat="42.97657" lon="0.30215">
        <ele>1870.3</ele>
        <time>2026-07-07T09:11:24Z</time>
      </trkpt>
      <trkpt lat="42.97656" lon="0.30215">
        <ele>1869.3</ele>
        <time>2026-07-07T09:11:24Z</time>
      </trkpt>
      <trkpt lat="42.97656" lon="0.30215">
        <ele>1869.3</ele>
        <time>2026-07-07T09:11:25Z</time>
      </trkpt>
      <trkpt lat="42.97655" lon="0.30214">
        <ele>1869.3</ele>
        <time>2026-07-07T09:11:26Z</time>
      </trkpt>
      <trkpt lat="42.97654" lon="0.30214">
        <ele>1869.3</ele>
        <time>2026-07-07T09:11:26Z</time>
      </trkpt>
      <trkpt lat="42.97653" lon="0.30214">
        <ele>1869.3</ele>
        <time>2026-07-07T09:11:27Z</time>
      </trkpt>
      <trkpt lat="42.97653" lon="0.30215">
        <ele>1869.3</ele>
        <time>2026-07-07T09:11:27Z</time>
      </trkpt>
      <trkpt lat="42.97652" lon="0.30214">
        <ele>1869.3</ele>
        <time>2026-07-07T09:11:28Z</time>
      </trkpt>
      <trkpt lat="42.97652" lon="0.30215">
        <ele>1869.3</ele>
        <time>2026-07-07T09:11:29Z</time>
      </trkpt>
      <trkpt lat="42.97651" lon="0.30215">
        <ele>1868.3</ele>
        <time>2026-07-07T09:11:29Z</time>
      </trkpt>
      <trkpt lat="42.9765" lon="0.30215">
        <ele>1868.3</ele>
        <time>2026-07-07T09:11:30Z</time>
      </trkpt>
      <trkpt lat="42.9765" lon="0.30214">
        <ele>1868.3</ele>
        <time>2026-07-07T09:11:30Z</time>
      </trkpt>
      <trkpt lat="42.97649" lon="0.30214">
        <ele>1868.3</ele>
        <time>2026-07-07T09:11:31Z</time>
      </trkpt>
      <trkpt lat="42.97649" lon="0.30214">
        <ele>1869.3</ele>
        <time>2026-07-07T09:11:31Z</time>
      </trkpt>
      <trkpt lat="42.97649" lon="0.30214">
        <ele>1869.3</ele>
        <time>2026-07-07T09:11:32Z</time>
      </trkpt>
      <trkpt lat="42.97649" lon="0.30213">
        <ele>1869.3</ele>
        <time>2026-07-07T09:11:32Z</time>
      </trkpt>
      <trkpt lat="42.97649" lon="0.30213">
        <ele>1869.3</ele>
        <time>2026-07-07T09:11:33Z</time>
      </trkpt>
      <trkpt lat="42.97649" lon="0.30213">
        <ele>1868.3</ele>
        <time>2026-07-07T09:11:33Z</time>
      </trkpt>
      <trkpt lat="42.97649" lon="0.30212">
        <ele>1868.3</ele>
        <time>2026-07-07T09:11:34Z</time>
      </trkpt>
      <trkpt lat="42.97648" lon="0.30212">
        <ele>1868.3</ele>
        <time>2026-07-07T09:11:35Z</time>
      </trkpt>
      <trkpt lat="42.97648" lon="0.30211">
        <ele>1868.3</ele>
        <time>2026-07-07T09:11:35Z</time>
      </trkpt>
      <trkpt lat="42.97647" lon="0.30211">
        <ele>1868.3</ele>
        <time>2026-07-07T09:11:36Z</time>
      </trkpt>
      <trkpt lat="42.97647" lon="0.30211">
        <ele>1868.3</ele>
        <time>2026-07-07T09:11:37Z</time>
      </trkpt>
      <trkpt lat="42.97646" lon="0.30211">
        <ele>1867.3</ele>
        <time>2026-07-07T09:11:37Z</time>
      </trkpt>
      <trkpt lat="42.97646" lon="0.30211">
        <ele>1867.3</ele>
        <time>2026-07-07T09:11:38Z</time>
      </trkpt>
      <trkpt lat="42.97645" lon="0.3021">
        <ele>1867.3</ele>
        <time>2026-07-07T09:11:39Z</time>
      </trkpt>
      <trkpt lat="42.97645" lon="0.3021">
        <ele>1867.3</ele>
        <time>2026-07-07T09:11:39Z</time>
      </trkpt>
      <trkpt lat="42.97645" lon="0.3021">
        <ele>1867.3</ele>
        <time>2026-07-07T09:11:40Z</time>
      </trkpt>
      <trkpt lat="42.97644" lon="0.30209">
        <ele>1867.3</ele>
        <time>2026-07-07T09:11:40Z</time>
      </trkpt>
      <trkpt lat="42.97644" lon="0.30209">
        <ele>1867.3</ele>
        <time>2026-07-07T09:11:41Z</time>
      </trkpt>
      <trkpt lat="42.97644" lon="0.30209">
        <ele>1867.3</ele>
        <time>2026-07-07T09:11:42Z</time>
      </trkpt>
      <trkpt lat="42.97643" lon="0.30208">
        <ele>1867.3</ele>
        <time>2026-07-07T09:11:42Z</time>
      </trkpt>
      <trkpt lat="42.97643" lon="0.30208">
        <ele>1867.3</ele>
        <time>2026-07-07T09:11:43Z</time>
      </trkpt>
      <trkpt lat="42.97643" lon="0.30208">
        <ele>1866.3</ele>
        <time>2026-07-07T09:11:43Z</time>
      </trkpt>
      <trkpt lat="42.97642" lon="0.30207">
        <ele>1866.3</ele>
        <time>2026-07-07T09:11:44Z</time>
      </trkpt>
      <trkpt lat="42.97642" lon="0.30207">
        <ele>1866.3</ele>
        <time>2026-07-07T09:11:45Z</time>
      </trkpt>
      <trkpt lat="42.97641" lon="0.30207">
        <ele>1866.3</ele>
        <time>2026-07-07T09:11:45Z</time>
      </trkpt>
      <trkpt lat="42.9764" lon="0.30206">
        <ele>1865.3</ele>
        <time>2026-07-07T09:11:46Z</time>
      </trkpt>
      <trkpt lat="42.9764" lon="0.30206">
        <ele>1864.3</ele>
        <time>2026-07-07T09:11:47Z</time>
      </trkpt>
      <trkpt lat="42.9764" lon="0.30206">
        <ele>1865.3</ele>
        <time>2026-07-07T09:11:47Z</time>
      </trkpt>
      <trkpt lat="42.97639" lon="0.30206">
        <ele>1865.3</ele>
        <time>2026-07-07T09:11:48Z</time>
      </trkpt>
      <trkpt lat="42.97639" lon="0.30206">
        <ele>1865.3</ele>
        <time>2026-07-07T09:11:49Z</time>
      </trkpt>
      <trkpt lat="42.97639" lon="0.30206">
        <ele>1865.3</ele>
        <time>2026-07-07T09:11:49Z</time>
      </trkpt>
      <trkpt lat="42.97638" lon="0.30205">
        <ele>1865.3</ele>
        <time>2026-07-07T09:11:50Z</time>
      </trkpt>
      <trkpt lat="42.97638" lon="0.30204">
        <ele>1864.3</ele>
        <time>2026-07-07T09:11:50Z</time>
      </trkpt>
      <trkpt lat="42.97637" lon="0.30203">
        <ele>1864.3</ele>
        <time>2026-07-07T09:11:51Z</time>
      </trkpt>
      <trkpt lat="42.97637" lon="0.30203">
        <ele>1863.3</ele>
        <time>2026-07-07T09:11:52Z</time>
      </trkpt>
      <trkpt lat="42.97637" lon="0.30202">
        <ele>1863.3</ele>
        <time>2026-07-07T09:11:52Z</time>
      </trkpt>
      <trkpt lat="42.97637" lon="0.30202">
        <ele>1863.3</ele>
        <time>2026-07-07T09:11:53Z</time>
      </trkpt>
      <trkpt lat="42.97636" lon="0.30201">
        <ele>1863.3</ele>
        <time>2026-07-07T09:11:53Z</time>
      </trkpt>
      <trkpt lat="42.97636" lon="0.30201">
        <ele>1863.3</ele>
        <time>2026-07-07T09:11:54Z</time>
      </trkpt>
      <trkpt lat="42.97636" lon="0.30201">
        <ele>1863.3</ele>
        <time>2026-07-07T09:11:54Z</time>
      </trkpt>
      <trkpt lat="42.97635" lon="0.302">
        <ele>1863.3</ele>
        <time>2026-07-07T09:11:55Z</time>
      </trkpt>
      <trkpt lat="42.97635" lon="0.302">
        <ele>1863.3</ele>
        <time>2026-07-07T09:11:55Z</time>
      </trkpt>
      <trkpt lat="42.97634" lon="0.30199">
        <ele>1863.3</ele>
        <time>2026-07-07T09:11:56Z</time>
      </trkpt>
      <trkpt lat="42.97634" lon="0.30198">
        <ele>1862.3</ele>
        <time>2026-07-07T09:11:57Z</time>
      </trkpt>
      <trkpt lat="42.97633" lon="0.30197">
        <ele>1862.3</ele>
        <time>2026-07-07T09:11:58Z</time>
      </trkpt>
      <trkpt lat="42.97632" lon="0.30197">
        <ele>1862.3</ele>
        <time>2026-07-07T09:11:59Z</time>
      </trkpt>
      <trkpt lat="42.97632" lon="0.30197">
        <ele>1862.3</ele>
        <time>2026-07-07T09:11:59Z</time>
      </trkpt>
      <trkpt lat="42.97631" lon="0.30197">
        <ele>1862.3</ele>
        <time>2026-07-07T09:12:00Z</time>
      </trkpt>
      <trkpt lat="42.97631" lon="0.30196">
        <ele>1861.3</ele>
        <time>2026-07-07T09:12:00Z</time>
      </trkpt>
      <trkpt lat="42.97631" lon="0.30196">
        <ele>1861.3</ele>
        <time>2026-07-07T09:12:01Z</time>
      </trkpt>
      <trkpt lat="42.9763" lon="0.30196">
        <ele>1861.3</ele>
        <time>2026-07-07T09:12:01Z</time>
      </trkpt>
      <trkpt lat="42.9763" lon="0.30195">
        <ele>1861.3</ele>
        <time>2026-07-07T09:12:02Z</time>
      </trkpt>
      <trkpt lat="42.9763" lon="0.30194">
        <ele>1861.3</ele>
        <time>2026-07-07T09:12:02Z</time>
      </trkpt>
      <trkpt lat="42.97629" lon="0.30194">
        <ele>1861.3</ele>
        <time>2026-07-07T09:12:03Z</time>
      </trkpt>
      <trkpt lat="42.97629" lon="0.30193">
        <ele>1860.3</ele>
        <time>2026-07-07T09:12:04Z</time>
      </trkpt>
      <trkpt lat="42.97629" lon="0.30192">
        <ele>1860.3</ele>
        <time>2026-07-07T09:12:04Z</time>
      </trkpt>
      <trkpt lat="42.97628" lon="0.30192">
        <ele>1860.3</ele>
        <time>2026-07-07T09:12:05Z</time>
      </trkpt>
      <trkpt lat="42.97628" lon="0.30192">
        <ele>1860.3</ele>
        <time>2026-07-07T09:12:05Z</time>
      </trkpt>
      <trkpt lat="42.97628" lon="0.30191">
        <ele>1860.3</ele>
        <time>2026-07-07T09:12:06Z</time>
      </trkpt>
      <trkpt lat="42.97627" lon="0.30191">
        <ele>1860.3</ele>
        <time>2026-07-07T09:12:06Z</time>
      </trkpt>
      <trkpt lat="42.97627" lon="0.3019">
        <ele>1860.3</ele>
        <time>2026-07-07T09:12:07Z</time>
      </trkpt>
      <trkpt lat="42.97627" lon="0.3019">
        <ele>1860.3</ele>
        <time>2026-07-07T09:12:07Z</time>
      </trkpt>
      <trkpt lat="42.97626" lon="0.30189">
        <ele>1860.3</ele>
        <time>2026-07-07T09:12:08Z</time>
      </trkpt>
      <trkpt lat="42.97626" lon="0.30189">
        <ele>1860.3</ele>
        <time>2026-07-07T09:12:08Z</time>
      </trkpt>
      <trkpt lat="42.97626" lon="0.30188">
        <ele>1860.3</ele>
        <time>2026-07-07T09:12:09Z</time>
      </trkpt>
      <trkpt lat="42.97625" lon="0.30188">
        <ele>1859.3</ele>
        <time>2026-07-07T09:12:09Z</time>
      </trkpt>
      <trkpt lat="42.97625" lon="0.30188">
        <ele>1859.3</ele>
        <time>2026-07-07T09:12:10Z</time>
      </trkpt>
      <trkpt lat="42.97624" lon="0.30187">
        <ele>1860.3</ele>
        <time>2026-07-07T09:12:10Z</time>
      </trkpt>
      <trkpt lat="42.97624" lon="0.30187">
        <ele>1860.3</ele>
        <time>2026-07-07T09:12:11Z</time>
      </trkpt>
      <trkpt lat="42.97623" lon="0.30186">
        <ele>1859.3</ele>
        <time>2026-07-07T09:12:12Z</time>
      </trkpt>
      <trkpt lat="42.97623" lon="0.30186">
        <ele>1858.3</ele>
        <time>2026-07-07T09:12:12Z</time>
      </trkpt>
      <trkpt lat="42.97622" lon="0.30185">
        <ele>1858.3</ele>
        <time>2026-07-07T09:12:13Z</time>
      </trkpt>
      <trkpt lat="42.97622" lon="0.30185">
        <ele>1858.3</ele>
        <time>2026-07-07T09:12:13Z</time>
      </trkpt>
      <trkpt lat="42.97621" lon="0.30184">
        <ele>1858.3</ele>
        <time>2026-07-07T09:12:14Z</time>
      </trkpt>
      <trkpt lat="42.97621" lon="0.30184">
        <ele>1858.3</ele>
        <time>2026-07-07T09:12:14Z</time>
      </trkpt>
      <trkpt lat="42.97621" lon="0.30183">
        <ele>1858.3</ele>
        <time>2026-07-07T09:12:15Z</time>
      </trkpt>
      <trkpt lat="42.97621" lon="0.30182">
        <ele>1857.3</ele>
        <time>2026-07-07T09:12:16Z</time>
      </trkpt>
      <trkpt lat="42.97621" lon="0.30181">
        <ele>1857.3</ele>
        <time>2026-07-07T09:12:16Z</time>
      </trkpt>
      <trkpt lat="42.97621" lon="0.30181">
        <ele>1856.3</ele>
        <time>2026-07-07T09:12:16Z</time>
      </trkpt>
      <trkpt lat="42.97621" lon="0.3018">
        <ele>1856.3</ele>
        <time>2026-07-07T09:12:17Z</time>
      </trkpt>
      <trkpt lat="42.97621" lon="0.30179">
        <ele>1857.3</ele>
        <time>2026-07-07T09:12:18Z</time>
      </trkpt>
      <trkpt lat="42.9762" lon="0.30178">
        <ele>1857.3</ele>
        <time>2026-07-07T09:12:18Z</time>
      </trkpt>
      <trkpt lat="42.9762" lon="0.30177">
        <ele>1857.3</ele>
        <time>2026-07-07T09:12:19Z</time>
      </trkpt>
      <trkpt lat="42.9762" lon="0.30177">
        <ele>1857.3</ele>
        <time>2026-07-07T09:12:19Z</time>
      </trkpt>
      <trkpt lat="42.97619" lon="0.30176">
        <ele>1857.3</ele>
        <time>2026-07-07T09:12:20Z</time>
      </trkpt>
      <trkpt lat="42.97619" lon="0.30175">
        <ele>1857.3</ele>
        <time>2026-07-07T09:12:20Z</time>
      </trkpt>
      <trkpt lat="42.97618" lon="0.30175">
        <ele>1857.3</ele>
        <time>2026-07-07T09:12:21Z</time>
      </trkpt>
      <trkpt lat="42.97618" lon="0.30174">
        <ele>1857.3</ele>
        <time>2026-07-07T09:12:21Z</time>
      </trkpt>
      <trkpt lat="42.97617" lon="0.30173">
        <ele>1857.3</ele>
        <time>2026-07-07T09:12:22Z</time>
      </trkpt>
      <trkpt lat="42.97617" lon="0.30173">
        <ele>1856.3</ele>
        <time>2026-07-07T09:12:23Z</time>
      </trkpt>
      <trkpt lat="42.97617" lon="0.30172">
        <ele>1856.3</ele>
        <time>2026-07-07T09:12:23Z</time>
      </trkpt>
      <trkpt lat="42.97616" lon="0.30171">
        <ele>1856.3</ele>
        <time>2026-07-07T09:12:24Z</time>
      </trkpt>
      <trkpt lat="42.97616" lon="0.3017">
        <ele>1856.3</ele>
        <time>2026-07-07T09:12:24Z</time>
      </trkpt>
      <trkpt lat="42.97616" lon="0.30169">
        <ele>1856.3</ele>
        <time>2026-07-07T09:12:25Z</time>
      </trkpt>
      <trkpt lat="42.97615" lon="0.30169">
        <ele>1856.3</ele>
        <time>2026-07-07T09:12:25Z</time>
      </trkpt>
      <trkpt lat="42.97615" lon="0.30168">
        <ele>1856.3</ele>
        <time>2026-07-07T09:12:26Z</time>
      </trkpt>
      <trkpt lat="42.97615" lon="0.30167">
        <ele>1856.3</ele>
        <time>2026-07-07T09:12:26Z</time>
      </trkpt>
      <trkpt lat="42.97614" lon="0.30166">
        <ele>1856.3</ele>
        <time>2026-07-07T09:12:27Z</time>
      </trkpt>
      <trkpt lat="42.97614" lon="0.30165">
        <ele>1856.3</ele>
        <time>2026-07-07T09:12:28Z</time>
      </trkpt>
      <trkpt lat="42.97613" lon="0.30163">
        <ele>1856.3</ele>
        <time>2026-07-07T09:12:29Z</time>
      </trkpt>
      <trkpt lat="42.97613" lon="0.30163">
        <ele>1855.3</ele>
        <time>2026-07-07T09:12:30Z</time>
      </trkpt>
      <trkpt lat="42.97613" lon="0.30162">
        <ele>1855.3</ele>
        <time>2026-07-07T09:12:30Z</time>
      </trkpt>
      <trkpt lat="42.97613" lon="0.30162">
        <ele>1855.3</ele>
        <time>2026-07-07T09:12:31Z</time>
      </trkpt>
      <trkpt lat="42.97613" lon="0.30161">
        <ele>1855.3</ele>
        <time>2026-07-07T09:12:31Z</time>
      </trkpt>
      <trkpt lat="42.97612" lon="0.30161">
        <ele>1855.3</ele>
        <time>2026-07-07T09:12:32Z</time>
      </trkpt>
      <trkpt lat="42.97612" lon="0.3016">
        <ele>1854.3</ele>
        <time>2026-07-07T09:12:32Z</time>
      </trkpt>
      <trkpt lat="42.97611" lon="0.3016">
        <ele>1854.3</ele>
        <time>2026-07-07T09:12:33Z</time>
      </trkpt>
      <trkpt lat="42.97611" lon="0.30159">
        <ele>1854.3</ele>
        <time>2026-07-07T09:12:34Z</time>
      </trkpt>
      <trkpt lat="42.97611" lon="0.30158">
        <ele>1854.3</ele>
        <time>2026-07-07T09:12:34Z</time>
      </trkpt>
      <trkpt lat="42.97611" lon="0.30158">
        <ele>1854.3</ele>
        <time>2026-07-07T09:12:35Z</time>
      </trkpt>
      <trkpt lat="42.97611" lon="0.30157">
        <ele>1854.3</ele>
        <time>2026-07-07T09:12:35Z</time>
      </trkpt>
      <trkpt lat="42.97611" lon="0.30156">
        <ele>1854.3</ele>
        <time>2026-07-07T09:12:36Z</time>
      </trkpt>
      <trkpt lat="42.97611" lon="0.30155">
        <ele>1854.3</ele>
        <time>2026-07-07T09:12:36Z</time>
      </trkpt>
      <trkpt lat="42.97611" lon="0.30155">
        <ele>1854.3</ele>
        <time>2026-07-07T09:12:37Z</time>
      </trkpt>
      <trkpt lat="42.9761" lon="0.30153">
        <ele>1853.3</ele>
        <time>2026-07-07T09:12:38Z</time>
      </trkpt>
      <trkpt lat="42.9761" lon="0.30152">
        <ele>1853.3</ele>
        <time>2026-07-07T09:12:39Z</time>
      </trkpt>
      <trkpt lat="42.97611" lon="0.30151">
        <ele>1853.3</ele>
        <time>2026-07-07T09:12:39Z</time>
      </trkpt>
      <trkpt lat="42.9761" lon="0.30151">
        <ele>1853.3</ele>
        <time>2026-07-07T09:12:40Z</time>
      </trkpt>
      <trkpt lat="42.9761" lon="0.3015">
        <ele>1852.3</ele>
        <time>2026-07-07T09:12:41Z</time>
      </trkpt>
      <trkpt lat="42.9761" lon="0.30149">
        <ele>1852.3</ele>
        <time>2026-07-07T09:12:42Z</time>
      </trkpt>
      <trkpt lat="42.9761" lon="0.30149">
        <ele>1852.3</ele>
        <time>2026-07-07T09:12:42Z</time>
      </trkpt>
      <trkpt lat="42.9761" lon="0.30148">
        <ele>1852.3</ele>
        <time>2026-07-07T09:12:43Z</time>
      </trkpt>
      <trkpt lat="42.97609" lon="0.30148">
        <ele>1852.3</ele>
        <time>2026-07-07T09:12:43Z</time>
      </trkpt>
      <trkpt lat="42.97609" lon="0.30147">
        <ele>1852.3</ele>
        <time>2026-07-07T09:12:44Z</time>
      </trkpt>
      <trkpt lat="42.97609" lon="0.30147">
        <ele>1852.3</ele>
        <time>2026-07-07T09:12:44Z</time>
      </trkpt>
      <trkpt lat="42.97609" lon="0.30146">
        <ele>1852.3</ele>
        <time>2026-07-07T09:12:45Z</time>
      </trkpt>
      <trkpt lat="42.97608" lon="0.30146">
        <ele>1851.3</ele>
        <time>2026-07-07T09:12:46Z</time>
      </trkpt>
      <trkpt lat="42.97608" lon="0.30145">
        <ele>1851.3</ele>
        <time>2026-07-07T09:12:46Z</time>
      </trkpt>
      <trkpt lat="42.97607" lon="0.30145">
        <ele>1851.3</ele>
        <time>2026-07-07T09:12:47Z</time>
      </trkpt>
      <trkpt lat="42.97607" lon="0.30144">
        <ele>1851.3</ele>
        <time>2026-07-07T09:12:47Z</time>
      </trkpt>
      <trkpt lat="42.97607" lon="0.30144">
        <ele>1851.3</ele>
        <time>2026-07-07T09:12:48Z</time>
      </trkpt>
      <trkpt lat="42.97607" lon="0.30144">
        <ele>1851.3</ele>
        <time>2026-07-07T09:12:48Z</time>
      </trkpt>
      <trkpt lat="42.97607" lon="0.30144">
        <ele>1851.3</ele>
        <time>2026-07-07T09:12:49Z</time>
      </trkpt>
      <trkpt lat="42.97607" lon="0.30143">
        <ele>1850.3</ele>
        <time>2026-07-07T09:12:49Z</time>
      </trkpt>
      <trkpt lat="42.97606" lon="0.30142">
        <ele>1850.3</ele>
        <time>2026-07-07T09:12:50Z</time>
      </trkpt>
      <trkpt lat="42.97606" lon="0.30142">
        <ele>1851.3</ele>
        <time>2026-07-07T09:12:50Z</time>
      </trkpt>
      <trkpt lat="42.97606" lon="0.30141">
        <ele>1851.3</ele>
        <time>2026-07-07T09:12:51Z</time>
      </trkpt>
      <trkpt lat="42.97606" lon="0.3014">
        <ele>1850.3</ele>
        <time>2026-07-07T09:12:52Z</time>
      </trkpt>
      <trkpt lat="42.97606" lon="0.3014">
        <ele>1849.3</ele>
        <time>2026-07-07T09:12:53Z</time>
      </trkpt>
      <trkpt lat="42.97605" lon="0.3014">
        <ele>1849.3</ele>
        <time>2026-07-07T09:12:53Z</time>
      </trkpt>
      <trkpt lat="42.97605" lon="0.30139">
        <ele>1849.3</ele>
        <time>2026-07-07T09:12:54Z</time>
      </trkpt>
      <trkpt lat="42.97604" lon="0.30139">
        <ele>1849.3</ele>
        <time>2026-07-07T09:12:55Z</time>
      </trkpt>
      <trkpt lat="42.97604" lon="0.30139">
        <ele>1849.3</ele>
        <time>2026-07-07T09:12:55Z</time>
      </trkpt>
      <trkpt lat="42.97604" lon="0.30139">
        <ele>1849.3</ele>
        <time>2026-07-07T09:12:56Z</time>
      </trkpt>
      <trkpt lat="42.97603" lon="0.30138">
        <ele>1848.3</ele>
        <time>2026-07-07T09:12:56Z</time>
      </trkpt>
      <trkpt lat="42.97603" lon="0.30138">
        <ele>1848.3</ele>
        <time>2026-07-07T09:12:57Z</time>
      </trkpt>
      <trkpt lat="42.97603" lon="0.30137">
        <ele>1848.3</ele>
        <time>2026-07-07T09:12:57Z</time>
      </trkpt>
      <trkpt lat="42.97602" lon="0.30137">
        <ele>1848.3</ele>
        <time>2026-07-07T09:12:58Z</time>
      </trkpt>
      <trkpt lat="42.97601" lon="0.30136">
        <ele>1848.3</ele>
        <time>2026-07-07T09:12:59Z</time>
      </trkpt>
      <trkpt lat="42.97601" lon="0.30135">
        <ele>1847.3</ele>
        <time>2026-07-07T09:13:00Z</time>
      </trkpt>
      <trkpt lat="42.97601" lon="0.30135">
        <ele>1847.3</ele>
        <time>2026-07-07T09:13:00Z</time>
      </trkpt>
      <trkpt lat="42.976" lon="0.30134">
        <ele>1847.3</ele>
        <time>2026-07-07T09:13:01Z</time>
      </trkpt>
      <trkpt lat="42.976" lon="0.30134">
        <ele>1846.3</ele>
        <time>2026-07-07T09:13:01Z</time>
      </trkpt>
      <trkpt lat="42.97599" lon="0.30133">
        <ele>1846.3</ele>
        <time>2026-07-07T09:13:02Z</time>
      </trkpt>
      <trkpt lat="42.97599" lon="0.30133">
        <ele>1847.3</ele>
        <time>2026-07-07T09:13:02Z</time>
      </trkpt>
      <trkpt lat="42.97598" lon="0.30132">
        <ele>1847.3</ele>
        <time>2026-07-07T09:13:03Z</time>
      </trkpt>
      <trkpt lat="42.97598" lon="0.30132">
        <ele>1847.3</ele>
        <time>2026-07-07T09:13:04Z</time>
      </trkpt>
      <trkpt lat="42.97597" lon="0.30131">
        <ele>1846.3</ele>
        <time>2026-07-07T09:13:04Z</time>
      </trkpt>
      <trkpt lat="42.97598" lon="0.30131">
        <ele>1846.3</ele>
        <time>2026-07-07T09:13:05Z</time>
      </trkpt>
      <trkpt lat="42.97598" lon="0.30131">
        <ele>1846.3</ele>
        <time>2026-07-07T09:13:05Z</time>
      </trkpt>
      <trkpt lat="42.97598" lon="0.30131">
        <ele>1846.3</ele>
        <time>2026-07-07T09:13:06Z</time>
      </trkpt>
      <trkpt lat="42.97597" lon="0.30131">
        <ele>1845.3</ele>
        <time>2026-07-07T09:13:06Z</time>
      </trkpt>
      <trkpt lat="42.97597" lon="0.3013">
        <ele>1845.3</ele>
        <time>2026-07-07T09:13:07Z</time>
      </trkpt>
      <trkpt lat="42.97597" lon="0.3013">
        <ele>1845.3</ele>
        <time>2026-07-07T09:13:08Z</time>
      </trkpt>
      <trkpt lat="42.97597" lon="0.30129">
        <ele>1845.3</ele>
        <time>2026-07-07T09:13:08Z</time>
      </trkpt>
      <trkpt lat="42.97596" lon="0.30129">
        <ele>1845.3</ele>
        <time>2026-07-07T09:13:09Z</time>
      </trkpt>
      <trkpt lat="42.97596" lon="0.30129">
        <ele>1845.3</ele>
        <time>2026-07-07T09:13:09Z</time>
      </trkpt>
      <trkpt lat="42.97596" lon="0.30128">
        <ele>1845.3</ele>
        <time>2026-07-07T09:13:10Z</time>
      </trkpt>
      <trkpt lat="42.97596" lon="0.30128">
        <ele>1845.3</ele>
        <time>2026-07-07T09:13:11Z</time>
      </trkpt>
      <trkpt lat="42.97595" lon="0.30127">
        <ele>1845.3</ele>
        <time>2026-07-07T09:13:11Z</time>
      </trkpt>
      <trkpt lat="42.97595" lon="0.30127">
        <ele>1844.3</ele>
        <time>2026-07-07T09:13:12Z</time>
      </trkpt>
      <trkpt lat="42.97595" lon="0.30127">
        <ele>1844.3</ele>
        <time>2026-07-07T09:13:12Z</time>
      </trkpt>
      <trkpt lat="42.97594" lon="0.30126">
        <ele>1844.3</ele>
        <time>2026-07-07T09:13:13Z</time>
      </trkpt>
      <trkpt lat="42.97594" lon="0.30126">
        <ele>1844.3</ele>
        <time>2026-07-07T09:13:14Z</time>
      </trkpt>
      <trkpt lat="42.97594" lon="0.30126">
        <ele>1843.3</ele>
        <time>2026-07-07T09:13:14Z</time>
      </trkpt>
      <trkpt lat="42.97593" lon="0.30126">
        <ele>1843.3</ele>
        <time>2026-07-07T09:13:15Z</time>
      </trkpt>
      <trkpt lat="42.97592" lon="0.30125">
        <ele>1843.3</ele>
        <time>2026-07-07T09:13:16Z</time>
      </trkpt>
      <trkpt lat="42.97592" lon="0.30125">
        <ele>1843.3</ele>
        <time>2026-07-07T09:13:16Z</time>
      </trkpt>
      <trkpt lat="42.97591" lon="0.30124">
        <ele>1843.3</ele>
        <time>2026-07-07T09:13:17Z</time>
      </trkpt>
      <trkpt lat="42.97591" lon="0.30124">
        <ele>1843.3</ele>
        <time>2026-07-07T09:13:17Z</time>
      </trkpt>
      <trkpt lat="42.97591" lon="0.30123">
        <ele>1843.3</ele>
        <time>2026-07-07T09:13:18Z</time>
      </trkpt>
      <trkpt lat="42.9759" lon="0.30123">
        <ele>1843.3</ele>
        <time>2026-07-07T09:13:18Z</time>
      </trkpt>
      <trkpt lat="42.9759" lon="0.30122">
        <ele>1843.3</ele>
        <time>2026-07-07T09:13:19Z</time>
      </trkpt>
      <trkpt lat="42.9759" lon="0.30121">
        <ele>1843.3</ele>
        <time>2026-07-07T09:13:20Z</time>
      </trkpt>
      <trkpt lat="42.9759" lon="0.30121">
        <ele>1843.3</ele>
        <time>2026-07-07T09:13:20Z</time>
      </trkpt>
      <trkpt lat="42.9759" lon="0.3012">
        <ele>1843.3</ele>
        <time>2026-07-07T09:13:21Z</time>
      </trkpt>
      <trkpt lat="42.9759" lon="0.30119">
        <ele>1844.3</ele>
        <time>2026-07-07T09:13:22Z</time>
      </trkpt>
      <trkpt lat="42.9759" lon="0.30119">
        <ele>1844.3</ele>
        <time>2026-07-07T09:13:22Z</time>
      </trkpt>
      <trkpt lat="42.97589" lon="0.30118">
        <ele>1844.3</ele>
        <time>2026-07-07T09:13:23Z</time>
      </trkpt>
      <trkpt lat="42.97589" lon="0.30118">
        <ele>1844.3</ele>
        <time>2026-07-07T09:13:23Z</time>
      </trkpt>
      <trkpt lat="42.97588" lon="0.30118">
        <ele>1844.3</ele>
        <time>2026-07-07T09:13:24Z</time>
      </trkpt>
      <trkpt lat="42.97588" lon="0.30117">
        <ele>1843.3</ele>
        <time>2026-07-07T09:13:24Z</time>
      </trkpt>
      <trkpt lat="42.97588" lon="0.30117">
        <ele>1843.3</ele>
        <time>2026-07-07T09:13:25Z</time>
      </trkpt>
      <trkpt lat="42.97587" lon="0.30116">
        <ele>1843.3</ele>
        <time>2026-07-07T09:13:25Z</time>
      </trkpt>
      <trkpt lat="42.97587" lon="0.30115">
        <ele>1843.3</ele>
        <time>2026-07-07T09:13:26Z</time>
      </trkpt>
      <trkpt lat="42.97587" lon="0.30115">
        <ele>1842.3</ele>
        <time>2026-07-07T09:13:27Z</time>
      </trkpt>
      <trkpt lat="42.97586" lon="0.30114">
        <ele>1842.3</ele>
        <time>2026-07-07T09:13:27Z</time>
      </trkpt>
      <trkpt lat="42.97586" lon="0.30114">
        <ele>1842.3</ele>
        <time>2026-07-07T09:13:28Z</time>
      </trkpt>
      <trkpt lat="42.97585" lon="0.30113">
        <ele>1841.3</ele>
        <time>2026-07-07T09:13:29Z</time>
      </trkpt>
      <trkpt lat="42.97585" lon="0.30112">
        <ele>1841.3</ele>
        <time>2026-07-07T09:13:29Z</time>
      </trkpt>
      <trkpt lat="42.97585" lon="0.30112">
        <ele>1841.3</ele>
        <time>2026-07-07T09:13:30Z</time>
      </trkpt>
      <trkpt lat="42.97585" lon="0.30112">
        <ele>1841.3</ele>
        <time>2026-07-07T09:13:31Z</time>
      </trkpt>
      <trkpt lat="42.97584" lon="0.30112">
        <ele>1841.3</ele>
        <time>2026-07-07T09:13:31Z</time>
      </trkpt>
      <trkpt lat="42.97584" lon="0.30112">
        <ele>1841.3</ele>
        <time>2026-07-07T09:13:32Z</time>
      </trkpt>
      <trkpt lat="42.97584" lon="0.30112">
        <ele>1841.3</ele>
        <time>2026-07-07T09:13:32Z</time>
      </trkpt>
      <trkpt lat="42.97583" lon="0.30111">
        <ele>1841.3</ele>
        <time>2026-07-07T09:13:33Z</time>
      </trkpt>
      <trkpt lat="42.97583" lon="0.30111">
        <ele>1840.3</ele>
        <time>2026-07-07T09:13:33Z</time>
      </trkpt>
      <trkpt lat="42.97582" lon="0.3011">
        <ele>1840.3</ele>
        <time>2026-07-07T09:13:34Z</time>
      </trkpt>
      <trkpt lat="42.97582" lon="0.3011">
        <ele>1840.3</ele>
        <time>2026-07-07T09:13:35Z</time>
      </trkpt>
      <trkpt lat="42.97581" lon="0.3011">
        <ele>1840.3</ele>
        <time>2026-07-07T09:13:35Z</time>
      </trkpt>
      <trkpt lat="42.97581" lon="0.3011">
        <ele>1840.3</ele>
        <time>2026-07-07T09:13:36Z</time>
      </trkpt>
      <trkpt lat="42.9758" lon="0.30109">
        <ele>1840.3</ele>
        <time>2026-07-07T09:13:36Z</time>
      </trkpt>
      <trkpt lat="42.9758" lon="0.30109">
        <ele>1840.3</ele>
        <time>2026-07-07T09:13:37Z</time>
      </trkpt>
      <trkpt lat="42.97579" lon="0.30109">
        <ele>1840.3</ele>
        <time>2026-07-07T09:13:37Z</time>
      </trkpt>
      <trkpt lat="42.97579" lon="0.30108">
        <ele>1840.3</ele>
        <time>2026-07-07T09:13:38Z</time>
      </trkpt>
      <trkpt lat="42.97579" lon="0.30107">
        <ele>1840.3</ele>
        <time>2026-07-07T09:13:38Z</time>
      </trkpt>
      <trkpt lat="42.97578" lon="0.30106">
        <ele>1840.3</ele>
        <time>2026-07-07T09:13:39Z</time>
      </trkpt>
      <trkpt lat="42.97578" lon="0.30106">
        <ele>1839.3</ele>
        <time>2026-07-07T09:13:40Z</time>
      </trkpt>
      <trkpt lat="42.97578" lon="0.30105">
        <ele>1839.3</ele>
        <time>2026-07-07T09:13:40Z</time>
      </trkpt>
      <trkpt lat="42.97578" lon="0.30104">
        <ele>1838.3</ele>
        <time>2026-07-07T09:13:41Z</time>
      </trkpt>
      <trkpt lat="42.97577" lon="0.30102">
        <ele>1838.3</ele>
        <time>2026-07-07T09:13:42Z</time>
      </trkpt>
      <trkpt lat="42.97577" lon="0.30101">
        <ele>1838.3</ele>
        <time>2026-07-07T09:13:43Z</time>
      </trkpt>
      <trkpt lat="42.97578" lon="0.301">
        <ele>1838.3</ele>
        <time>2026-07-07T09:13:43Z</time>
      </trkpt>
      <trkpt lat="42.97578" lon="0.30099">
        <ele>1838.3</ele>
        <time>2026-07-07T09:13:44Z</time>
      </trkpt>
      <trkpt lat="42.97578" lon="0.30099">
        <ele>1836.3</ele>
        <time>2026-07-07T09:13:45Z</time>
      </trkpt>
      <trkpt lat="42.97579" lon="0.30098">
        <ele>1836.3</ele>
        <time>2026-07-07T09:13:45Z</time>
      </trkpt>
      <trkpt lat="42.97579" lon="0.30097">
        <ele>1836.3</ele>
        <time>2026-07-07T09:13:46Z</time>
      </trkpt>
      <trkpt lat="42.97578" lon="0.30097">
        <ele>1835.3</ele>
        <time>2026-07-07T09:13:46Z</time>
      </trkpt>
      <trkpt lat="42.97578" lon="0.30096">
        <ele>1835.3</ele>
        <time>2026-07-07T09:13:47Z</time>
      </trkpt>
      <trkpt lat="42.97578" lon="0.30095">
        <ele>1835.3</ele>
        <time>2026-07-07T09:13:48Z</time>
      </trkpt>
      <trkpt lat="42.97577" lon="0.30095">
        <ele>1835.3</ele>
        <time>2026-07-07T09:13:48Z</time>
      </trkpt>
      <trkpt lat="42.97577" lon="0.30094">
        <ele>1835.3</ele>
        <time>2026-07-07T09:13:49Z</time>
      </trkpt>
      <trkpt lat="42.97576" lon="0.30094">
        <ele>1835.3</ele>
        <time>2026-07-07T09:13:50Z</time>
      </trkpt>
      <trkpt lat="42.97576" lon="0.30093">
        <ele>1835.3</ele>
        <time>2026-07-07T09:13:50Z</time>
      </trkpt>
      <trkpt lat="42.97576" lon="0.30092">
        <ele>1834.3</ele>
        <time>2026-07-07T09:13:51Z</time>
      </trkpt>
      <trkpt lat="42.97575" lon="0.30091">
        <ele>1834.3</ele>
        <time>2026-07-07T09:13:51Z</time>
      </trkpt>
      <trkpt lat="42.97575" lon="0.30091">
        <ele>1834.3</ele>
        <time>2026-07-07T09:13:52Z</time>
      </trkpt>
      <trkpt lat="42.97574" lon="0.3009">
        <ele>1834.3</ele>
        <time>2026-07-07T09:13:53Z</time>
      </trkpt>
      <trkpt lat="42.97574" lon="0.3009">
        <ele>1834.3</ele>
        <time>2026-07-07T09:13:53Z</time>
      </trkpt>
      <trkpt lat="42.97574" lon="0.30089">
        <ele>1834.3</ele>
        <time>2026-07-07T09:13:54Z</time>
      </trkpt>
      <trkpt lat="42.97573" lon="0.30089">
        <ele>1834.3</ele>
        <time>2026-07-07T09:13:54Z</time>
      </trkpt>
      <trkpt lat="42.97573" lon="0.30088">
        <ele>1834.3</ele>
        <time>2026-07-07T09:13:55Z</time>
      </trkpt>
      <trkpt lat="42.97573" lon="0.30088">
        <ele>1834.3</ele>
        <time>2026-07-07T09:13:56Z</time>
      </trkpt>
      <trkpt lat="42.97572" lon="0.30087">
        <ele>1834.3</ele>
        <time>2026-07-07T09:13:56Z</time>
      </trkpt>
      <trkpt lat="42.97572" lon="0.30086">
        <ele>1834.3</ele>
        <time>2026-07-07T09:13:57Z</time>
      </trkpt>
      <trkpt lat="42.97572" lon="0.30085">
        <ele>1833.3</ele>
        <time>2026-07-07T09:13:58Z</time>
      </trkpt>
      <trkpt lat="42.97572" lon="0.30084">
        <ele>1833.3</ele>
        <time>2026-07-07T09:13:58Z</time>
      </trkpt>
      <trkpt lat="42.97572" lon="0.30084">
        <ele>1833.3</ele>
        <time>2026-07-07T09:13:59Z</time>
      </trkpt>
      <trkpt lat="42.97572" lon="0.30083">
        <ele>1833.3</ele>
        <time>2026-07-07T09:13:59Z</time>
      </trkpt>
      <trkpt lat="42.97572" lon="0.30082">
        <ele>1833.3</ele>
        <time>2026-07-07T09:14:00Z</time>
      </trkpt>
      <trkpt lat="42.97572" lon="0.30081">
        <ele>1833.3</ele>
        <time>2026-07-07T09:14:00Z</time>
      </trkpt>
      <trkpt lat="42.97572" lon="0.3008">
        <ele>1833.3</ele>
        <time>2026-07-07T09:14:01Z</time>
      </trkpt>
      <trkpt lat="42.97572" lon="0.3008">
        <ele>1833.3</ele>
        <time>2026-07-07T09:14:01Z</time>
      </trkpt>
      <trkpt lat="42.97572" lon="0.30079">
        <ele>1833.3</ele>
        <time>2026-07-07T09:14:02Z</time>
      </trkpt>
      <trkpt lat="42.97572" lon="0.30079">
        <ele>1834.3</ele>
        <time>2026-07-07T09:14:02Z</time>
      </trkpt>
      <trkpt lat="42.97572" lon="0.30078">
        <ele>1834.3</ele>
        <time>2026-07-07T09:14:03Z</time>
      </trkpt>
      <trkpt lat="42.97572" lon="0.30077">
        <ele>1834.3</ele>
        <time>2026-07-07T09:14:04Z</time>
      </trkpt>
      <trkpt lat="42.97572" lon="0.30076">
        <ele>1834.3</ele>
        <time>2026-07-07T09:14:04Z</time>
      </trkpt>
      <trkpt lat="42.97572" lon="0.30075">
        <ele>1834.3</ele>
        <time>2026-07-07T09:14:05Z</time>
      </trkpt>
      <trkpt lat="42.97571" lon="0.30075">
        <ele>1833.3</ele>
        <time>2026-07-07T09:14:06Z</time>
      </trkpt>
      <trkpt lat="42.97571" lon="0.30075">
        <ele>1833.3</ele>
        <time>2026-07-07T09:14:06Z</time>
      </trkpt>
      <trkpt lat="42.9757" lon="0.30074">
        <ele>1833.3</ele>
        <time>2026-07-07T09:14:07Z</time>
      </trkpt>
      <trkpt lat="42.9757" lon="0.30074">
        <ele>1833.3</ele>
        <time>2026-07-07T09:14:07Z</time>
      </trkpt>
      <trkpt lat="42.9757" lon="0.30073">
        <ele>1833.3</ele>
        <time>2026-07-07T09:14:08Z</time>
      </trkpt>
      <trkpt lat="42.97569" lon="0.30073">
        <ele>1832.3</ele>
        <time>2026-07-07T09:14:09Z</time>
      </trkpt>
      <trkpt lat="42.97569" lon="0.30072">
        <ele>1832.3</ele>
        <time>2026-07-07T09:14:09Z</time>
      </trkpt>
      <trkpt lat="42.97569" lon="0.30071">
        <ele>1832.3</ele>
        <time>2026-07-07T09:14:10Z</time>
      </trkpt>
      <trkpt lat="42.97568" lon="0.30071">
        <ele>1832.3</ele>
        <time>2026-07-07T09:14:10Z</time>
      </trkpt>
      <trkpt lat="42.97568" lon="0.3007">
        <ele>1832.3</ele>
        <time>2026-07-07T09:14:11Z</time>
      </trkpt>
      <trkpt lat="42.97567" lon="0.30069">
        <ele>1832.3</ele>
        <time>2026-07-07T09:14:12Z</time>
      </trkpt>
      <trkpt lat="42.97567" lon="0.30068">
        <ele>1831.3</ele>
        <time>2026-07-07T09:14:13Z</time>
      </trkpt>
      <trkpt lat="42.97567" lon="0.30067">
        <ele>1831.3</ele>
        <time>2026-07-07T09:14:13Z</time>
      </trkpt>
      <trkpt lat="42.97567" lon="0.30066">
        <ele>1831.3</ele>
        <time>2026-07-07T09:14:14Z</time>
      </trkpt>
      <trkpt lat="42.97567" lon="0.30066">
        <ele>1831.3</ele>
        <time>2026-07-07T09:14:14Z</time>
      </trkpt>
      <trkpt lat="42.97567" lon="0.30065">
        <ele>1831.3</ele>
        <time>2026-07-07T09:14:15Z</time>
      </trkpt>
      <trkpt lat="42.97567" lon="0.30064">
        <ele>1831.3</ele>
        <time>2026-07-07T09:14:16Z</time>
      </trkpt>
      <trkpt lat="42.97567" lon="0.30063">
        <ele>1831.3</ele>
        <time>2026-07-07T09:14:16Z</time>
      </trkpt>
      <trkpt lat="42.97567" lon="0.30062">
        <ele>1830.3</ele>
        <time>2026-07-07T09:14:17Z</time>
      </trkpt>
      <trkpt lat="42.97567" lon="0.30061">
        <ele>1830.3</ele>
        <time>2026-07-07T09:14:18Z</time>
      </trkpt>
      <trkpt lat="42.97567" lon="0.3006">
        <ele>1830.3</ele>
        <time>2026-07-07T09:14:18Z</time>
      </trkpt>
      <trkpt lat="42.97566" lon="0.3006">
        <ele>1830.3</ele>
        <time>2026-07-07T09:14:19Z</time>
      </trkpt>
      <trkpt lat="42.97566" lon="0.3006">
        <ele>1829.3</ele>
        <time>2026-07-07T09:14:19Z</time>
      </trkpt>
      <trkpt lat="42.97566" lon="0.30059">
        <ele>1829.3</ele>
        <time>2026-07-07T09:14:20Z</time>
      </trkpt>
      <trkpt lat="42.97565" lon="0.30059">
        <ele>1829.3</ele>
        <time>2026-07-07T09:14:20Z</time>
      </trkpt>
      <trkpt lat="42.97565" lon="0.30058">
        <ele>1829.3</ele>
        <time>2026-07-07T09:14:21Z</time>
      </trkpt>
      <trkpt lat="42.97564" lon="0.30057">
        <ele>1830.3</ele>
        <time>2026-07-07T09:14:22Z</time>
      </trkpt>
      <trkpt lat="42.97563" lon="0.30057">
        <ele>1830.3</ele>
        <time>2026-07-07T09:14:22Z</time>
      </trkpt>
      <trkpt lat="42.97563" lon="0.30056">
        <ele>1830.3</ele>
        <time>2026-07-07T09:14:23Z</time>
      </trkpt>
      <trkpt lat="42.97562" lon="0.30056">
        <ele>1830.3</ele>
        <time>2026-07-07T09:14:24Z</time>
      </trkpt>
      <trkpt lat="42.97562" lon="0.30055">
        <ele>1830.3</ele>
        <time>2026-07-07T09:14:24Z</time>
      </trkpt>
      <trkpt lat="42.97562" lon="0.30054">
        <ele>1830.3</ele>
        <time>2026-07-07T09:14:25Z</time>
      </trkpt>
      <trkpt lat="42.97562" lon="0.30053">
        <ele>1829.3</ele>
        <time>2026-07-07T09:14:25Z</time>
      </trkpt>
      <trkpt lat="42.97562" lon="0.30053">
        <ele>1829.3</ele>
        <time>2026-07-07T09:14:26Z</time>
      </trkpt>
      <trkpt lat="42.97562" lon="0.30052">
        <ele>1829.3</ele>
        <time>2026-07-07T09:14:26Z</time>
      </trkpt>
      <trkpt lat="42.97562" lon="0.30052">
        <ele>1829.3</ele>
        <time>2026-07-07T09:14:27Z</time>
      </trkpt>
      <trkpt lat="42.97562" lon="0.30051">
        <ele>1828.3</ele>
        <time>2026-07-07T09:14:27Z</time>
      </trkpt>
      <trkpt lat="42.97561" lon="0.3005">
        <ele>1828.3</ele>
        <time>2026-07-07T09:14:28Z</time>
      </trkpt>
      <trkpt lat="42.97561" lon="0.3005">
        <ele>1828.3</ele>
        <time>2026-07-07T09:14:29Z</time>
      </trkpt>
      <trkpt lat="42.97561" lon="0.30049">
        <ele>1828.3</ele>
        <time>2026-07-07T09:14:29Z</time>
      </trkpt>
      <trkpt lat="42.97561" lon="0.30048">
        <ele>1828.3</ele>
        <time>2026-07-07T09:14:30Z</time>
      </trkpt>
      <trkpt lat="42.9756" lon="0.30047">
        <ele>1828.3</ele>
        <time>2026-07-07T09:14:30Z</time>
      </trkpt>
      <trkpt lat="42.9756" lon="0.30046">
        <ele>1828.3</ele>
        <time>2026-07-07T09:14:31Z</time>
      </trkpt>
      <trkpt lat="42.9756" lon="0.30046">
        <ele>1828.3</ele>
        <time>2026-07-07T09:14:32Z</time>
      </trkpt>
      <trkpt lat="42.97559" lon="0.30045">
        <ele>1828.3</ele>
        <time>2026-07-07T09:14:32Z</time>
      </trkpt>
      <trkpt lat="42.97559" lon="0.30044">
        <ele>1828.3</ele>
        <time>2026-07-07T09:14:33Z</time>
      </trkpt>
      <trkpt lat="42.97559" lon="0.30043">
        <ele>1828.3</ele>
        <time>2026-07-07T09:14:33Z</time>
      </trkpt>
      <trkpt lat="42.97559" lon="0.30042">
        <ele>1827.3</ele>
        <time>2026-07-07T09:14:34Z</time>
      </trkpt>
      <trkpt lat="42.97559" lon="0.30042">
        <ele>1827.3</ele>
        <time>2026-07-07T09:14:34Z</time>
      </trkpt>
      <trkpt lat="42.97559" lon="0.30041">
        <ele>1827.3</ele>
        <time>2026-07-07T09:14:35Z</time>
      </trkpt>
      <trkpt lat="42.97559" lon="0.3004">
        <ele>1827.3</ele>
        <time>2026-07-07T09:14:35Z</time>
      </trkpt>
      <trkpt lat="42.97559" lon="0.30039">
        <ele>1827.3</ele>
        <time>2026-07-07T09:14:36Z</time>
      </trkpt>
      <trkpt lat="42.97559" lon="0.30038">
        <ele>1827.3</ele>
        <time>2026-07-07T09:14:36Z</time>
      </trkpt>
      <trkpt lat="42.97558" lon="0.30037">
        <ele>1827.3</ele>
        <time>2026-07-07T09:14:37Z</time>
      </trkpt>
      <trkpt lat="42.97558" lon="0.30036">
        <ele>1827.3</ele>
        <time>2026-07-07T09:14:38Z</time>
      </trkpt>
      <trkpt lat="42.97558" lon="0.30035">
        <ele>1827.3</ele>
        <time>2026-07-07T09:14:38Z</time>
      </trkpt>
      <trkpt lat="42.97558" lon="0.30034">
        <ele>1826.3</ele>
        <time>2026-07-07T09:14:39Z</time>
      </trkpt>
      <trkpt lat="42.97558" lon="0.30033">
        <ele>1826.3</ele>
        <time>2026-07-07T09:14:39Z</time>
      </trkpt>
      <trkpt lat="42.97558" lon="0.30033">
        <ele>1826.3</ele>
        <time>2026-07-07T09:14:40Z</time>
      </trkpt>
      <trkpt lat="42.97557" lon="0.30032">
        <ele>1826.3</ele>
        <time>2026-07-07T09:14:40Z</time>
      </trkpt>
      <trkpt lat="42.97557" lon="0.30032">
        <ele>1826.3</ele>
        <time>2026-07-07T09:14:41Z</time>
      </trkpt>
      <trkpt lat="42.97556" lon="0.3003">
        <ele>1826.3</ele>
        <time>2026-07-07T09:14:42Z</time>
      </trkpt>
      <trkpt lat="42.97556" lon="0.3003">
        <ele>1826.3</ele>
        <time>2026-07-07T09:14:42Z</time>
      </trkpt>
      <trkpt lat="42.97555" lon="0.30029">
        <ele>1826.3</ele>
        <time>2026-07-07T09:14:43Z</time>
      </trkpt>
      <trkpt lat="42.97555" lon="0.30028">
        <ele>1826.3</ele>
        <time>2026-07-07T09:14:44Z</time>
      </trkpt>
      <trkpt lat="42.97555" lon="0.30027">
        <ele>1826.3</ele>
        <time>2026-07-07T09:14:45Z</time>
      </trkpt>
      <trkpt lat="42.97554" lon="0.30026">
        <ele>1826.3</ele>
        <time>2026-07-07T09:14:45Z</time>
      </trkpt>
      <trkpt lat="42.97554" lon="0.30026">
        <ele>1825.3</ele>
        <time>2026-07-07T09:14:46Z</time>
      </trkpt>
      <trkpt lat="42.97553" lon="0.30025">
        <ele>1825.3</ele>
        <time>2026-07-07T09:14:46Z</time>
      </trkpt>
      <trkpt lat="42.97553" lon="0.30024">
        <ele>1825.3</ele>
        <time>2026-07-07T09:14:47Z</time>
      </trkpt>
      <trkpt lat="42.97553" lon="0.30024">
        <ele>1825.3</ele>
        <time>2026-07-07T09:14:47Z</time>
      </trkpt>
      <trkpt lat="42.97552" lon="0.30023">
        <ele>1825.3</ele>
        <time>2026-07-07T09:14:48Z</time>
      </trkpt>
      <trkpt lat="42.97552" lon="0.30022">
        <ele>1825.3</ele>
        <time>2026-07-07T09:14:49Z</time>
      </trkpt>
      <trkpt lat="42.97552" lon="0.30022">
        <ele>1825.3</ele>
        <time>2026-07-07T09:14:49Z</time>
      </trkpt>
      <trkpt lat="42.97551" lon="0.3002">
        <ele>1825.3</ele>
        <time>2026-07-07T09:14:50Z</time>
      </trkpt>
      <trkpt lat="42.97551" lon="0.30019">
        <ele>1825.3</ele>
        <time>2026-07-07T09:14:51Z</time>
      </trkpt>
      <trkpt lat="42.97551" lon="0.30019">
        <ele>1824.3</ele>
        <time>2026-07-07T09:14:51Z</time>
      </trkpt>
      <trkpt lat="42.97551" lon="0.30018">
        <ele>1824.3</ele>
        <time>2026-07-07T09:14:52Z</time>
      </trkpt>
      <trkpt lat="42.97551" lon="0.30017">
        <ele>1824.3</ele>
        <time>2026-07-07T09:14:53Z</time>
      </trkpt>
      <trkpt lat="42.97551" lon="0.30016">
        <ele>1824.3</ele>
        <time>2026-07-07T09:14:53Z</time>
      </trkpt>
      <trkpt lat="42.97551" lon="0.30016">
        <ele>1824.3</ele>
        <time>2026-07-07T09:14:54Z</time>
      </trkpt>
      <trkpt lat="42.9755" lon="0.30015">
        <ele>1825.3</ele>
        <time>2026-07-07T09:14:54Z</time>
      </trkpt>
      <trkpt lat="42.9755" lon="0.30014">
        <ele>1825.3</ele>
        <time>2026-07-07T09:14:55Z</time>
      </trkpt>
      <trkpt lat="42.9755" lon="0.30014">
        <ele>1825.3</ele>
        <time>2026-07-07T09:14:56Z</time>
      </trkpt>
      <trkpt lat="42.9755" lon="0.30014">
        <ele>1825.3</ele>
        <time>2026-07-07T09:14:56Z</time>
      </trkpt>
      <trkpt lat="42.9755" lon="0.30013">
        <ele>1825.3</ele>
        <time>2026-07-07T09:14:57Z</time>
      </trkpt>
      <trkpt lat="42.97549" lon="0.30013">
        <ele>1825.3</ele>
        <time>2026-07-07T09:14:58Z</time>
      </trkpt>
      <trkpt lat="42.97549" lon="0.30012">
        <ele>1825.3</ele>
        <time>2026-07-07T09:14:58Z</time>
      </trkpt>
      <trkpt lat="42.97548" lon="0.30011">
        <ele>1825.3</ele>
        <time>2026-07-07T09:14:59Z</time>
      </trkpt>
      <trkpt lat="42.97548" lon="0.3001">
        <ele>1824.3</ele>
        <time>2026-07-07T09:15:00Z</time>
      </trkpt>
      <trkpt lat="42.97547" lon="0.30009">
        <ele>1825.3</ele>
        <time>2026-07-07T09:15:00Z</time>
      </trkpt>
      <trkpt lat="42.97547" lon="0.30008">
        <ele>1825.3</ele>
        <time>2026-07-07T09:15:01Z</time>
      </trkpt>
      <trkpt lat="42.97546" lon="0.30008">
        <ele>1824.3</ele>
        <time>2026-07-07T09:15:02Z</time>
      </trkpt>
      <trkpt lat="42.97546" lon="0.30007">
        <ele>1824.3</ele>
        <time>2026-07-07T09:15:02Z</time>
      </trkpt>
      <trkpt lat="42.97545" lon="0.30006">
        <ele>1824.3</ele>
        <time>2026-07-07T09:15:03Z</time>
      </trkpt>
      <trkpt lat="42.97545" lon="0.30006">
        <ele>1823.3</ele>
        <time>2026-07-07T09:15:04Z</time>
      </trkpt>
      <trkpt lat="42.97544" lon="0.30005">
        <ele>1823.3</ele>
        <time>2026-07-07T09:15:04Z</time>
      </trkpt>
      <trkpt lat="42.97544" lon="0.30004">
        <ele>1824.3</ele>
        <time>2026-07-07T09:15:05Z</time>
      </trkpt>
      <trkpt lat="42.97543" lon="0.30004">
        <ele>1824.3</ele>
        <time>2026-07-07T09:15:05Z</time>
      </trkpt>
      <trkpt lat="42.97543" lon="0.30003">
        <ele>1824.3</ele>
        <time>2026-07-07T09:15:06Z</time>
      </trkpt>
      <trkpt lat="42.97542" lon="0.30002">
        <ele>1824.3</ele>
        <time>2026-07-07T09:15:07Z</time>
      </trkpt>
      <trkpt lat="42.97542" lon="0.30001">
        <ele>1824.3</ele>
        <time>2026-07-07T09:15:07Z</time>
      </trkpt>
      <trkpt lat="42.97542" lon="0.3">
        <ele>1824.3</ele>
        <time>2026-07-07T09:15:08Z</time>
      </trkpt>
      <trkpt lat="42.97541" lon="0.29999">
        <ele>1824.3</ele>
        <time>2026-07-07T09:15:09Z</time>
      </trkpt>
      <trkpt lat="42.97541" lon="0.29999">
        <ele>1824.3</ele>
        <time>2026-07-07T09:15:09Z</time>
      </trkpt>
      <trkpt lat="42.97541" lon="0.29998">
        <ele>1824.3</ele>
        <time>2026-07-07T09:15:10Z</time>
      </trkpt>
      <trkpt lat="42.97541" lon="0.29997">
        <ele>1824.3</ele>
        <time>2026-07-07T09:15:10Z</time>
      </trkpt>
      <trkpt lat="42.97541" lon="0.29996">
        <ele>1824.3</ele>
        <time>2026-07-07T09:15:11Z</time>
      </trkpt>
      <trkpt lat="42.97541" lon="0.29995">
        <ele>1824.3</ele>
        <time>2026-07-07T09:15:12Z</time>
      </trkpt>
      <trkpt lat="42.97541" lon="0.29994">
        <ele>1824.3</ele>
        <time>2026-07-07T09:15:13Z</time>
      </trkpt>
      <trkpt lat="42.97541" lon="0.29993">
        <ele>1824.3</ele>
        <time>2026-07-07T09:15:13Z</time>
      </trkpt>
      <trkpt lat="42.97541" lon="0.29992">
        <ele>1824.3</ele>
        <time>2026-07-07T09:15:14Z</time>
      </trkpt>
      <trkpt lat="42.97541" lon="0.29992">
        <ele>1824.3</ele>
        <time>2026-07-07T09:15:15Z</time>
      </trkpt>
      <trkpt lat="42.97541" lon="0.29991">
        <ele>1823.3</ele>
        <time>2026-07-07T09:15:15Z</time>
      </trkpt>
      <trkpt lat="42.97542" lon="0.29991">
        <ele>1823.3</ele>
        <time>2026-07-07T09:15:16Z</time>
      </trkpt>
      <trkpt lat="42.97542" lon="0.29991">
        <ele>1824.3</ele>
        <time>2026-07-07T09:15:17Z</time>
      </trkpt>
      <trkpt lat="42.97542" lon="0.2999">
        <ele>1824.3</ele>
        <time>2026-07-07T09:15:17Z</time>
      </trkpt>
      <trkpt lat="42.97542" lon="0.29989">
        <ele>1824.3</ele>
        <time>2026-07-07T09:15:18Z</time>
      </trkpt>
      <trkpt lat="42.97542" lon="0.29989">
        <ele>1824.3</ele>
        <time>2026-07-07T09:15:19Z</time>
      </trkpt>
      <trkpt lat="42.97541" lon="0.29988">
        <ele>1824.3</ele>
        <time>2026-07-07T09:15:20Z</time>
      </trkpt>
      <trkpt lat="42.97541" lon="0.29988">
        <ele>1823.3</ele>
        <time>2026-07-07T09:15:20Z</time>
      </trkpt>
      <trkpt lat="42.97541" lon="0.29987">
        <ele>1823.3</ele>
        <time>2026-07-07T09:15:21Z</time>
      </trkpt>
      <trkpt lat="42.97541" lon="0.29986">
        <ele>1823.3</ele>
        <time>2026-07-07T09:15:22Z</time>
      </trkpt>
      <trkpt lat="42.97541" lon="0.29985">
        <ele>1823.3</ele>
        <time>2026-07-07T09:15:22Z</time>
      </trkpt>
      <trkpt lat="42.97541" lon="0.29985">
        <ele>1823.3</ele>
        <time>2026-07-07T09:15:23Z</time>
      </trkpt>
      <trkpt lat="42.9754" lon="0.29984">
        <ele>1824.3</ele>
        <time>2026-07-07T09:15:24Z</time>
      </trkpt>
      <trkpt lat="42.9754" lon="0.29983">
        <ele>1824.3</ele>
        <time>2026-07-07T09:15:24Z</time>
      </trkpt>
      <trkpt lat="42.9754" lon="0.29983">
        <ele>1824.3</ele>
        <time>2026-07-07T09:15:25Z</time>
      </trkpt>
      <trkpt lat="42.9754" lon="0.29982">
        <ele>1824.3</ele>
        <time>2026-07-07T09:15:26Z</time>
      </trkpt>
      <trkpt lat="42.97539" lon="0.29981">
        <ele>1825.3</ele>
        <time>2026-07-07T09:15:27Z</time>
      </trkpt>
      <trkpt lat="42.97539" lon="0.29981">
        <ele>1825.3</ele>
        <time>2026-07-07T09:15:27Z</time>
      </trkpt>
      <trkpt lat="42.97538" lon="0.2998">
        <ele>1825.3</ele>
        <time>2026-07-07T09:15:28Z</time>
      </trkpt>
      <trkpt lat="42.97538" lon="0.2998">
        <ele>1825.3</ele>
        <time>2026-07-07T09:15:29Z</time>
      </trkpt>
      <trkpt lat="42.97538" lon="0.29979">
        <ele>1825.3</ele>
        <time>2026-07-07T09:15:30Z</time>
      </trkpt>
      <trkpt lat="42.97538" lon="0.29979">
        <ele>1826.3</ele>
        <time>2026-07-07T09:15:30Z</time>
      </trkpt>
      <trkpt lat="42.97537" lon="0.29978">
        <ele>1826.3</ele>
        <time>2026-07-07T09:15:31Z</time>
      </trkpt>
      <trkpt lat="42.97537" lon="0.29977">
        <ele>1826.3</ele>
        <time>2026-07-07T09:15:32Z</time>
      </trkpt>
      <trkpt lat="42.97537" lon="0.29977">
        <ele>1827.3</ele>
        <time>2026-07-07T09:15:32Z</time>
      </trkpt>
      <trkpt lat="42.97536" lon="0.29976">
        <ele>1827.3</ele>
        <time>2026-07-07T09:15:33Z</time>
      </trkpt>
      <trkpt lat="42.97536" lon="0.29975">
        <ele>1827.3</ele>
        <time>2026-07-07T09:15:34Z</time>
      </trkpt>
      <trkpt lat="42.97535" lon="0.29974">
        <ele>1827.3</ele>
        <time>2026-07-07T09:15:35Z</time>
      </trkpt>
      <trkpt lat="42.97535" lon="0.29974">
        <ele>1827.3</ele>
        <time>2026-07-07T09:15:35Z</time>
      </trkpt>
      <trkpt lat="42.97535" lon="0.29972">
        <ele>1827.3</ele>
        <time>2026-07-07T09:15:36Z</time>
      </trkpt>
      <trkpt lat="42.97534" lon="0.29972">
        <ele>1827.3</ele>
        <time>2026-07-07T09:15:37Z</time>
      </trkpt>
      <trkpt lat="42.97534" lon="0.29971">
        <ele>1827.3</ele>
        <time>2026-07-07T09:15:37Z</time>
      </trkpt>
      <trkpt lat="42.97534" lon="0.2997">
        <ele>1827.3</ele>
        <time>2026-07-07T09:15:38Z</time>
      </trkpt>
      <trkpt lat="42.97534" lon="0.29969">
        <ele>1827.3</ele>
        <time>2026-07-07T09:15:39Z</time>
      </trkpt>
      <trkpt lat="42.97534" lon="0.29968">
        <ele>1827.3</ele>
        <time>2026-07-07T09:15:40Z</time>
      </trkpt>
      <trkpt lat="42.97534" lon="0.29968">
        <ele>1827.3</ele>
        <time>2026-07-07T09:15:40Z</time>
      </trkpt>
      <trkpt lat="42.97534" lon="0.29967">
        <ele>1827.3</ele>
        <time>2026-07-07T09:15:41Z</time>
      </trkpt>
      <trkpt lat="42.97534" lon="0.29966">
        <ele>1828.3</ele>
        <time>2026-07-07T09:15:41Z</time>
      </trkpt>
      <trkpt lat="42.97534" lon="0.29965">
        <ele>1828.3</ele>
        <time>2026-07-07T09:15:42Z</time>
      </trkpt>
      <trkpt lat="42.97533" lon="0.29964">
        <ele>1828.3</ele>
        <time>2026-07-07T09:15:43Z</time>
      </trkpt>
      <trkpt lat="42.97533" lon="0.29963">
        <ele>1828.3</ele>
        <time>2026-07-07T09:15:43Z</time>
      </trkpt>
      <trkpt lat="42.97533" lon="0.29962">
        <ele>1828.3</ele>
        <time>2026-07-07T09:15:44Z</time>
      </trkpt>
      <trkpt lat="42.97533" lon="0.29962">
        <ele>1828.3</ele>
        <time>2026-07-07T09:15:45Z</time>
      </trkpt>
      <trkpt lat="42.97533" lon="0.29961">
        <ele>1828.3</ele>
        <time>2026-07-07T09:15:45Z</time>
      </trkpt>
      <trkpt lat="42.97532" lon="0.2996">
        <ele>1827.3</ele>
        <time>2026-07-07T09:15:46Z</time>
      </trkpt>
      <trkpt lat="42.97532" lon="0.2996">
        <ele>1828.3</ele>
        <time>2026-07-07T09:15:46Z</time>
      </trkpt>
      <trkpt lat="42.97532" lon="0.29958">
        <ele>1828.3</ele>
        <time>2026-07-07T09:15:47Z</time>
      </trkpt>
      <trkpt lat="42.97532" lon="0.29957">
        <ele>1827.3</ele>
        <time>2026-07-07T09:15:48Z</time>
      </trkpt>
      <trkpt lat="42.97532" lon="0.29957">
        <ele>1827.3</ele>
        <time>2026-07-07T09:15:48Z</time>
      </trkpt>
      <trkpt lat="42.97532" lon="0.29956">
        <ele>1828.3</ele>
        <time>2026-07-07T09:15:49Z</time>
      </trkpt>
      <trkpt lat="42.97532" lon="0.29955">
        <ele>1828.3</ele>
        <time>2026-07-07T09:15:49Z</time>
      </trkpt>
      <trkpt lat="42.97532" lon="0.29954">
        <ele>1828.3</ele>
        <time>2026-07-07T09:15:50Z</time>
      </trkpt>
      <trkpt lat="42.97532" lon="0.29953">
        <ele>1828.3</ele>
        <time>2026-07-07T09:15:51Z</time>
      </trkpt>
      <trkpt lat="42.97532" lon="0.29953">
        <ele>1828.3</ele>
        <time>2026-07-07T09:15:51Z</time>
      </trkpt>
      <trkpt lat="42.97531" lon="0.29952">
        <ele>1828.3</ele>
        <time>2026-07-07T09:15:52Z</time>
      </trkpt>
      <trkpt lat="42.97531" lon="0.29951">
        <ele>1828.3</ele>
        <time>2026-07-07T09:15:53Z</time>
      </trkpt>
      <trkpt lat="42.97531" lon="0.2995">
        <ele>1827.3</ele>
        <time>2026-07-07T09:15:53Z</time>
      </trkpt>
      <trkpt lat="42.97531" lon="0.29949">
        <ele>1827.3</ele>
        <time>2026-07-07T09:15:54Z</time>
      </trkpt>
      <trkpt lat="42.9753" lon="0.29949">
        <ele>1827.3</ele>
        <time>2026-07-07T09:15:54Z</time>
      </trkpt>
      <trkpt lat="42.9753" lon="0.29948">
        <ele>1827.3</ele>
        <time>2026-07-07T09:15:55Z</time>
      </trkpt>
      <trkpt lat="42.9753" lon="0.29947">
        <ele>1827.3</ele>
        <time>2026-07-07T09:15:56Z</time>
      </trkpt>
      <trkpt lat="42.97529" lon="0.29947">
        <ele>1828.3</ele>
        <time>2026-07-07T09:15:56Z</time>
      </trkpt>
      <trkpt lat="42.97529" lon="0.29946">
        <ele>1828.3</ele>
        <time>2026-07-07T09:15:57Z</time>
      </trkpt>
      <trkpt lat="42.97529" lon="0.29945">
        <ele>1828.3</ele>
        <time>2026-07-07T09:15:58Z</time>
      </trkpt>
      <trkpt lat="42.97528" lon="0.29945">
        <ele>1827.3</ele>
        <time>2026-07-07T09:15:58Z</time>
      </trkpt>
      <trkpt lat="42.97528" lon="0.29944">
        <ele>1827.3</ele>
        <time>2026-07-07T09:15:59Z</time>
      </trkpt>
      <trkpt lat="42.97528" lon="0.29943">
        <ele>1828.3</ele>
        <time>2026-07-07T09:16:00Z</time>
      </trkpt>
      <trkpt lat="42.97528" lon="0.29942">
        <ele>1828.3</ele>
        <time>2026-07-07T09:16:00Z</time>
      </trkpt>
      <trkpt lat="42.97527" lon="0.29941">
        <ele>1828.3</ele>
        <time>2026-07-07T09:16:01Z</time>
      </trkpt>
      <trkpt lat="42.97527" lon="0.2994">
        <ele>1828.3</ele>
        <time>2026-07-07T09:16:01Z</time>
      </trkpt>
      <trkpt lat="42.97527" lon="0.29939">
        <ele>1828.3</ele>
        <time>2026-07-07T09:16:02Z</time>
      </trkpt>
      <trkpt lat="42.97527" lon="0.29938">
        <ele>1828.3</ele>
        <time>2026-07-07T09:16:03Z</time>
      </trkpt>
      <trkpt lat="42.97526" lon="0.29938">
        <ele>1829.3</ele>
        <time>2026-07-07T09:16:03Z</time>
      </trkpt>
      <trkpt lat="42.97526" lon="0.29937">
        <ele>1829.3</ele>
        <time>2026-07-07T09:16:04Z</time>
      </trkpt>
      <trkpt lat="42.97526" lon="0.29936">
        <ele>1829.3</ele>
        <time>2026-07-07T09:16:05Z</time>
      </trkpt>
      <trkpt lat="42.97526" lon="0.29935">
        <ele>1829.3</ele>
        <time>2026-07-07T09:16:05Z</time>
      </trkpt>
      <trkpt lat="42.97526" lon="0.29934">
        <ele>1829.3</ele>
        <time>2026-07-07T09:16:06Z</time>
      </trkpt>
      <trkpt lat="42.97525" lon="0.29933">
        <ele>1829.3</ele>
        <time>2026-07-07T09:16:07Z</time>
      </trkpt>
      <trkpt lat="42.97525" lon="0.29932">
        <ele>1829.3</ele>
        <time>2026-07-07T09:16:07Z</time>
      </trkpt>
      <trkpt lat="42.97525" lon="0.29931">
        <ele>1829.3</ele>
        <time>2026-07-07T09:16:08Z</time>
      </trkpt>
      <trkpt lat="42.97525" lon="0.2993">
        <ele>1829.3</ele>
        <time>2026-07-07T09:16:09Z</time>
      </trkpt>
      <trkpt lat="42.97524" lon="0.2993">
        <ele>1830.3</ele>
        <time>2026-07-07T09:16:09Z</time>
      </trkpt>
      <trkpt lat="42.97524" lon="0.29929">
        <ele>1830.3</ele>
        <time>2026-07-07T09:16:10Z</time>
      </trkpt>
      <trkpt lat="42.97523" lon="0.29928">
        <ele>1830.3</ele>
        <time>2026-07-07T09:16:11Z</time>
      </trkpt>
      <trkpt lat="42.97522" lon="0.29928">
        <ele>1831.3</ele>
        <time>2026-07-07T09:16:12Z</time>
      </trkpt>
      <trkpt lat="42.97522" lon="0.29928">
        <ele>1830.3</ele>
        <time>2026-07-07T09:16:13Z</time>
      </trkpt>
      <trkpt lat="42.97522" lon="0.29928">
        <ele>1831.3</ele>
        <time>2026-07-07T09:16:14Z</time>
      </trkpt>
      <trkpt lat="42.97522" lon="0.29928">
        <ele>1831.3</ele>
        <time>2026-07-07T09:16:15Z</time>
      </trkpt>
      <trkpt lat="42.97522" lon="0.29928">
        <ele>1831.3</ele>
        <time>2026-07-07T09:16:16Z</time>
      </trkpt>
      <trkpt lat="42.97523" lon="0.29928">
        <ele>1831.3</ele>
        <time>2026-07-07T09:16:17Z</time>
      </trkpt>
      <trkpt lat="42.97523" lon="0.29929">
        <ele>1831.3</ele>
        <time>2026-07-07T09:16:18Z</time>
      </trkpt>
      <trkpt lat="42.97523" lon="0.29929">
        <ele>1831.3</ele>
        <time>2026-07-07T09:16:19Z</time>
      </trkpt>
      <trkpt lat="42.97523" lon="0.29929">
        <ele>1831.3</ele>
        <time>2026-07-07T09:16:20Z</time>
      </trkpt>
      <trkpt lat="42.97522" lon="0.29929">
        <ele>1831.3</ele>
        <time>2026-07-07T09:16:21Z</time>
      </trkpt>
      <trkpt lat="42.97522" lon="0.29929">
        <ele>1831.3</ele>
        <time>2026-07-07T09:16:22Z</time>
      </trkpt>
      <trkpt lat="42.97522" lon="0.29929">
        <ele>1831.3</ele>
        <time>2026-07-07T09:16:23Z</time>
      </trkpt>
      <trkpt lat="42.97522" lon="0.29929">
        <ele>1831.3</ele>
        <time>2026-07-07T09:16:24Z</time>
      </trkpt>
      <trkpt lat="42.97522" lon="0.29929">
        <ele>1831.3</ele>
        <time>2026-07-07T09:16:25Z</time>
      </trkpt>
      <trkpt lat="42.97522" lon="0.29929">
        <ele>1831.3</ele>
        <time>2026-07-07T09:16:26Z</time>
      </trkpt>
      <trkpt lat="42.97522" lon="0.29929">
        <ele>1831.3</ele>
        <time>2026-07-07T09:16:27Z</time>
      </trkpt>
      <trkpt lat="42.97522" lon="0.29928">
        <ele>1831.3</ele>
        <time>2026-07-07T09:16:28Z</time>
      </trkpt>
      <trkpt lat="42.97522" lon="0.29928">
        <ele>1831.3</ele>
        <time>2026-07-07T09:16:28Z</time>
      </trkpt>
      <trkpt lat="42.97522" lon="0.29928">
        <ele>1831.3</ele>
        <time>2026-07-07T09:16:29Z</time>
      </trkpt>
      <trkpt lat="42.97522" lon="0.29926">
        <ele>1831.3</ele>
        <time>2026-07-07T09:16:30Z</time>
      </trkpt>
      <trkpt lat="42.97522" lon="0.29925">
        <ele>1831.3</ele>
        <time>2026-07-07T09:16:30Z</time>
      </trkpt>
      <trkpt lat="42.97522" lon="0.29924">
        <ele>1831.3</ele>
        <time>2026-07-07T09:16:31Z</time>
      </trkpt>
      <trkpt lat="42.97522" lon="0.29923">
        <ele>1831.3</ele>
        <time>2026-07-07T09:16:32Z</time>
      </trkpt>
      <trkpt lat="42.97522" lon="0.29922">
        <ele>1830.3</ele>
        <time>2026-07-07T09:16:33Z</time>
      </trkpt>
      <trkpt lat="42.97522" lon="0.29921">
        <ele>1830.3</ele>
        <time>2026-07-07T09:16:33Z</time>
      </trkpt>
      <trkpt lat="42.97522" lon="0.2992">
        <ele>1830.3</ele>
        <time>2026-07-07T09:16:34Z</time>
      </trkpt>
      <trkpt lat="42.97522" lon="0.29919">
        <ele>1830.3</ele>
        <time>2026-07-07T09:16:34Z</time>
      </trkpt>
      <trkpt lat="42.97522" lon="0.29918">
        <ele>1830.3</ele>
        <time>2026-07-07T09:16:35Z</time>
      </trkpt>
      <trkpt lat="42.97522" lon="0.29917">
        <ele>1831.3</ele>
        <time>2026-07-07T09:16:36Z</time>
      </trkpt>
      <trkpt lat="42.97522" lon="0.29916">
        <ele>1831.3</ele>
        <time>2026-07-07T09:16:36Z</time>
      </trkpt>
      <trkpt lat="42.97522" lon="0.29915">
        <ele>1831.3</ele>
        <time>2026-07-07T09:16:37Z</time>
      </trkpt>
      <trkpt lat="42.97522" lon="0.29914">
        <ele>1831.3</ele>
        <time>2026-07-07T09:16:38Z</time>
      </trkpt>
      <trkpt lat="42.97522" lon="0.29913">
        <ele>1831.3</ele>
        <time>2026-07-07T09:16:38Z</time>
      </trkpt>
      <trkpt lat="42.97522" lon="0.29912">
        <ele>1831.3</ele>
        <time>2026-07-07T09:16:39Z</time>
      </trkpt>
      <trkpt lat="42.97522" lon="0.29912">
        <ele>1832.3</ele>
        <time>2026-07-07T09:16:40Z</time>
      </trkpt>
      <trkpt lat="42.97522" lon="0.29911">
        <ele>1831.3</ele>
        <time>2026-07-07T09:16:41Z</time>
      </trkpt>
      <trkpt lat="42.97521" lon="0.2991">
        <ele>1831.3</ele>
        <time>2026-07-07T09:16:42Z</time>
      </trkpt>
      <trkpt lat="42.97521" lon="0.2991">
        <ele>1831.3</ele>
        <time>2026-07-07T09:16:42Z</time>
      </trkpt>
      <trkpt lat="42.97521" lon="0.29908">
        <ele>1831.3</ele>
        <time>2026-07-07T09:16:43Z</time>
      </trkpt>
      <trkpt lat="42.97521" lon="0.29907">
        <ele>1831.3</ele>
        <time>2026-07-07T09:16:44Z</time>
      </trkpt>
      <trkpt lat="42.9752" lon="0.29907">
        <ele>1831.3</ele>
        <time>2026-07-07T09:16:45Z</time>
      </trkpt>
      <trkpt lat="42.9752" lon="0.29906">
        <ele>1831.3</ele>
        <time>2026-07-07T09:16:45Z</time>
      </trkpt>
      <trkpt lat="42.9752" lon="0.29905">
        <ele>1831.3</ele>
        <time>2026-07-07T09:16:46Z</time>
      </trkpt>
      <trkpt lat="42.9752" lon="0.29904">
        <ele>1831.3</ele>
        <time>2026-07-07T09:16:47Z</time>
      </trkpt>
      <trkpt lat="42.9752" lon="0.29903">
        <ele>1831.3</ele>
        <time>2026-07-07T09:16:48Z</time>
      </trkpt>
      <trkpt lat="42.97519" lon="0.29902">
        <ele>1831.3</ele>
        <time>2026-07-07T09:16:49Z</time>
      </trkpt>
      <trkpt lat="42.97519" lon="0.29902">
        <ele>1831.3</ele>
        <time>2026-07-07T09:16:49Z</time>
      </trkpt>
      <trkpt lat="42.97519" lon="0.29902">
        <ele>1831.3</ele>
        <time>2026-07-07T09:16:50Z</time>
      </trkpt>
      <trkpt lat="42.97519" lon="0.29901">
        <ele>1831.3</ele>
        <time>2026-07-07T09:16:51Z</time>
      </trkpt>
      <trkpt lat="42.97519" lon="0.29901">
        <ele>1832.3</ele>
        <time>2026-07-07T09:16:52Z</time>
      </trkpt>
      <trkpt lat="42.97519" lon="0.299">
        <ele>1832.3</ele>
        <time>2026-07-07T09:16:53Z</time>
      </trkpt>
      <trkpt lat="42.97519" lon="0.29899">
        <ele>1832.3</ele>
        <time>2026-07-07T09:16:53Z</time>
      </trkpt>
      <trkpt lat="42.97519" lon="0.29898">
        <ele>1832.3</ele>
        <time>2026-07-07T09:16:54Z</time>
      </trkpt>
      <trkpt lat="42.97519" lon="0.29898">
        <ele>1832.3</ele>
        <time>2026-07-07T09:16:55Z</time>
      </trkpt>
      <trkpt lat="42.97519" lon="0.29897">
        <ele>1832.3</ele>
        <time>2026-07-07T09:16:56Z</time>
      </trkpt>
      <trkpt lat="42.97518" lon="0.29897">
        <ele>1833.3</ele>
        <time>2026-07-07T09:16:56Z</time>
      </trkpt>
      <trkpt lat="42.97518" lon="0.29896">
        <ele>1833.3</ele>
        <time>2026-07-07T09:16:57Z</time>
      </trkpt>
      <trkpt lat="42.97518" lon="0.29895">
        <ele>1833.3</ele>
        <time>2026-07-07T09:16:58Z</time>
      </trkpt>
      <trkpt lat="42.97517" lon="0.29895">
        <ele>1832.3</ele>
        <time>2026-07-07T09:16:58Z</time>
      </trkpt>
      <trkpt lat="42.97517" lon="0.29894">
        <ele>1832.3</ele>
        <time>2026-07-07T09:16:59Z</time>
      </trkpt>
      <trkpt lat="42.97517" lon="0.29893">
        <ele>1833.3</ele>
        <time>2026-07-07T09:17:00Z</time>
      </trkpt>
      <trkpt lat="42.97517" lon="0.29892">
        <ele>1834.3</ele>
        <time>2026-07-07T09:17:00Z</time>
      </trkpt>
      <trkpt lat="42.97516" lon="0.29891">
        <ele>1834.3</ele>
        <time>2026-07-07T09:17:01Z</time>
      </trkpt>
      <trkpt lat="42.97516" lon="0.29891">
        <ele>1834.3</ele>
        <time>2026-07-07T09:17:02Z</time>
      </trkpt>
      <trkpt lat="42.97516" lon="0.2989">
        <ele>1833.3</ele>
        <time>2026-07-07T09:17:03Z</time>
      </trkpt>
      <trkpt lat="42.97516" lon="0.29889">
        <ele>1833.3</ele>
        <time>2026-07-07T09:17:04Z</time>
      </trkpt>
      <trkpt lat="42.97516" lon="0.29888">
        <ele>1833.3</ele>
        <time>2026-07-07T09:17:04Z</time>
      </trkpt>
      <trkpt lat="42.97515" lon="0.29887">
        <ele>1833.3</ele>
        <time>2026-07-07T09:17:05Z</time>
      </trkpt>
      <trkpt lat="42.97515" lon="0.29886">
        <ele>1833.3</ele>
        <time>2026-07-07T09:17:06Z</time>
      </trkpt>
      <trkpt lat="42.97515" lon="0.29886">
        <ele>1833.3</ele>
        <time>2026-07-07T09:17:07Z</time>
      </trkpt>
      <trkpt lat="42.97515" lon="0.29885">
        <ele>1834.3</ele>
        <time>2026-07-07T09:17:08Z</time>
      </trkpt>
      <trkpt lat="42.97515" lon="0.29885">
        <ele>1833.3</ele>
        <time>2026-07-07T09:17:08Z</time>
      </trkpt>
      <trkpt lat="42.97516" lon="0.29884">
        <ele>1833.3</ele>
        <time>2026-07-07T09:17:09Z</time>
      </trkpt>
      <trkpt lat="42.97516" lon="0.29883">
        <ele>1833.3</ele>
        <time>2026-07-07T09:17:10Z</time>
      </trkpt>
      <trkpt lat="42.97516" lon="0.29883">
        <ele>1833.3</ele>
        <time>2026-07-07T09:17:11Z</time>
      </trkpt>
      <trkpt lat="42.97516" lon="0.29882">
        <ele>1834.3</ele>
        <time>2026-07-07T09:17:11Z</time>
      </trkpt>
      <trkpt lat="42.97516" lon="0.29882">
        <ele>1834.3</ele>
        <time>2026-07-07T09:17:12Z</time>
      </trkpt>
      <trkpt lat="42.97516" lon="0.29881">
        <ele>1834.3</ele>
        <time>2026-07-07T09:17:13Z</time>
      </trkpt>
      <trkpt lat="42.97516" lon="0.2988">
        <ele>1834.3</ele>
        <time>2026-07-07T09:17:13Z</time>
      </trkpt>
      <trkpt lat="42.97516" lon="0.29879">
        <ele>1834.3</ele>
        <time>2026-07-07T09:17:14Z</time>
      </trkpt>
      <trkpt lat="42.97516" lon="0.29879">
        <ele>1834.3</ele>
        <time>2026-07-07T09:17:15Z</time>
      </trkpt>
      <trkpt lat="42.97516" lon="0.29878">
        <ele>1835.3</ele>
        <time>2026-07-07T09:17:16Z</time>
      </trkpt>
      <trkpt lat="42.97516" lon="0.29877">
        <ele>1835.3</ele>
        <time>2026-07-07T09:17:16Z</time>
      </trkpt>
      <trkpt lat="42.97515" lon="0.29876">
        <ele>1835.3</ele>
        <time>2026-07-07T09:17:17Z</time>
      </trkpt>
      <trkpt lat="42.97515" lon="0.29875">
        <ele>1834.3</ele>
        <time>2026-07-07T09:17:18Z</time>
      </trkpt>
      <trkpt lat="42.97515" lon="0.29875">
        <ele>1834.3</ele>
        <time>2026-07-07T09:17:19Z</time>
      </trkpt>
      <trkpt lat="42.97515" lon="0.29874">
        <ele>1835.3</ele>
        <time>2026-07-07T09:17:19Z</time>
      </trkpt>
      <trkpt lat="42.97515" lon="0.29874">
        <ele>1835.3</ele>
        <time>2026-07-07T09:17:20Z</time>
      </trkpt>
      <trkpt lat="42.97515" lon="0.29873">
        <ele>1835.3</ele>
        <time>2026-07-07T09:17:21Z</time>
      </trkpt>
      <trkpt lat="42.97515" lon="0.29872">
        <ele>1835.3</ele>
        <time>2026-07-07T09:17:21Z</time>
      </trkpt>
      <trkpt lat="42.97515" lon="0.29872">
        <ele>1835.3</ele>
        <time>2026-07-07T09:17:22Z</time>
      </trkpt>
      <trkpt lat="42.97515" lon="0.29871">
        <ele>1835.3</ele>
        <time>2026-07-07T09:17:23Z</time>
      </trkpt>
      <trkpt lat="42.97515" lon="0.2987">
        <ele>1836.3</ele>
        <time>2026-07-07T09:17:24Z</time>
      </trkpt>
      <trkpt lat="42.97515" lon="0.29869">
        <ele>1836.3</ele>
        <time>2026-07-07T09:17:25Z</time>
      </trkpt>
      <trkpt lat="42.97515" lon="0.29869">
        <ele>1835.3</ele>
        <time>2026-07-07T09:17:26Z</time>
      </trkpt>
      <trkpt lat="42.97515" lon="0.29868">
        <ele>1835.3</ele>
        <time>2026-07-07T09:17:27Z</time>
      </trkpt>
      <trkpt lat="42.97515" lon="0.29867">
        <ele>1836.3</ele>
        <time>2026-07-07T09:17:27Z</time>
      </trkpt>
      <trkpt lat="42.97516" lon="0.29866">
        <ele>1836.3</ele>
        <time>2026-07-07T09:17:28Z</time>
      </trkpt>
      <trkpt lat="42.97516" lon="0.29865">
        <ele>1836.3</ele>
        <time>2026-07-07T09:17:29Z</time>
      </trkpt>
      <trkpt lat="42.97515" lon="0.29865">
        <ele>1836.3</ele>
        <time>2026-07-07T09:17:29Z</time>
      </trkpt>
      <trkpt lat="42.97515" lon="0.29864">
        <ele>1836.3</ele>
        <time>2026-07-07T09:17:30Z</time>
      </trkpt>
      <trkpt lat="42.97515" lon="0.29864">
        <ele>1836.3</ele>
        <time>2026-07-07T09:17:31Z</time>
      </trkpt>
      <trkpt lat="42.97515" lon="0.29863">
        <ele>1836.3</ele>
        <time>2026-07-07T09:17:32Z</time>
      </trkpt>
      <trkpt lat="42.97515" lon="0.29863">
        <ele>1836.3</ele>
        <time>2026-07-07T09:17:32Z</time>
      </trkpt>
      <trkpt lat="42.97515" lon="0.29862">
        <ele>1836.3</ele>
        <time>2026-07-07T09:17:33Z</time>
      </trkpt>
      <trkpt lat="42.97515" lon="0.29861">
        <ele>1836.3</ele>
        <time>2026-07-07T09:17:34Z</time>
      </trkpt>
      <trkpt lat="42.97515" lon="0.2986">
        <ele>1836.3</ele>
        <time>2026-07-07T09:17:35Z</time>
      </trkpt>
      <trkpt lat="42.97514" lon="0.2986">
        <ele>1836.3</ele>
        <time>2026-07-07T09:17:36Z</time>
      </trkpt>
      <trkpt lat="42.97514" lon="0.2986">
        <ele>1836.3</ele>
        <time>2026-07-07T09:17:37Z</time>
      </trkpt>
      <trkpt lat="42.97514" lon="0.29859">
        <ele>1836.3</ele>
        <time>2026-07-07T09:17:37Z</time>
      </trkpt>
      <trkpt lat="42.97514" lon="0.29858">
        <ele>1836.3</ele>
        <time>2026-07-07T09:17:38Z</time>
      </trkpt>
      <trkpt lat="42.97514" lon="0.29857">
        <ele>1836.3</ele>
        <time>2026-07-07T09:17:39Z</time>
      </trkpt>
      <trkpt lat="42.97514" lon="0.29857">
        <ele>1836.3</ele>
        <time>2026-07-07T09:17:40Z</time>
      </trkpt>
      <trkpt lat="42.97514" lon="0.29857">
        <ele>1836.3</ele>
        <time>2026-07-07T09:17:41Z</time>
      </trkpt>
      <trkpt lat="42.97514" lon="0.29856">
        <ele>1836.3</ele>
        <time>2026-07-07T09:17:41Z</time>
      </trkpt>
      <trkpt lat="42.97514" lon="0.29856">
        <ele>1837.3</ele>
        <time>2026-07-07T09:17:42Z</time>
      </trkpt>
      <trkpt lat="42.97514" lon="0.29855">
        <ele>1837.3</ele>
        <time>2026-07-07T09:17:43Z</time>
      </trkpt>
      <trkpt lat="42.97514" lon="0.29854">
        <ele>1837.3</ele>
        <time>2026-07-07T09:17:44Z</time>
      </trkpt>
      <trkpt lat="42.97514" lon="0.29853">
        <ele>1837.3</ele>
        <time>2026-07-07T09:17:45Z</time>
      </trkpt>
      <trkpt lat="42.97514" lon="0.29853">
        <ele>1836.3</ele>
        <time>2026-07-07T09:17:46Z</time>
      </trkpt>
      <trkpt lat="42.97514" lon="0.29852">
        <ele>1836.3</ele>
        <time>2026-07-07T09:17:47Z</time>
      </trkpt>
      <trkpt lat="42.97514" lon="0.29852">
        <ele>1836.3</ele>
        <time>2026-07-07T09:17:47Z</time>
      </trkpt>
      <trkpt lat="42.97513" lon="0.29851">
        <ele>1837.3</ele>
        <time>2026-07-07T09:17:48Z</time>
      </trkpt>
      <trkpt lat="42.97513" lon="0.2985">
        <ele>1837.3</ele>
        <time>2026-07-07T09:17:49Z</time>
      </trkpt>
      <trkpt lat="42.97513" lon="0.29849">
        <ele>1837.3</ele>
        <time>2026-07-07T09:17:50Z</time>
      </trkpt>
      <trkpt lat="42.97513" lon="0.29848">
        <ele>1837.3</ele>
        <time>2026-07-07T09:17:51Z</time>
      </trkpt>
      <trkpt lat="42.97513" lon="0.29847">
        <ele>1838.3</ele>
        <time>2026-07-07T09:17:52Z</time>
      </trkpt>
      <trkpt lat="42.97513" lon="0.29846">
        <ele>1838.3</ele>
        <time>2026-07-07T09:17:53Z</time>
      </trkpt>
      <trkpt lat="42.97513" lon="0.29845">
        <ele>1838.3</ele>
        <time>2026-07-07T09:17:53Z</time>
      </trkpt>
      <trkpt lat="42.97513" lon="0.29844">
        <ele>1838.3</ele>
        <time>2026-07-07T09:17:54Z</time>
      </trkpt>
      <trkpt lat="42.97513" lon="0.29843">
        <ele>1839.3</ele>
        <time>2026-07-07T09:17:55Z</time>
      </trkpt>
      <trkpt lat="42.97513" lon="0.29842">
        <ele>1839.3</ele>
        <time>2026-07-07T09:17:56Z</time>
      </trkpt>
      <trkpt lat="42.97513" lon="0.29841">
        <ele>1838.3</ele>
        <time>2026-07-07T09:17:57Z</time>
      </trkpt>
      <trkpt lat="42.97513" lon="0.2984">
        <ele>1838.3</ele>
        <time>2026-07-07T09:17:58Z</time>
      </trkpt>
      <trkpt lat="42.97513" lon="0.2984">
        <ele>1839.3</ele>
        <time>2026-07-07T09:17:58Z</time>
      </trkpt>
      <trkpt lat="42.97513" lon="0.29839">
        <ele>1839.3</ele>
        <time>2026-07-07T09:17:59Z</time>
      </trkpt>
      <trkpt lat="42.97513" lon="0.29838">
        <ele>1839.3</ele>
        <time>2026-07-07T09:18:00Z</time>
      </trkpt>
      <trkpt lat="42.97513" lon="0.29837">
        <ele>1839.3</ele>
        <time>2026-07-07T09:18:01Z</time>
      </trkpt>
      <trkpt lat="42.97513" lon="0.29836">
        <ele>1839.3</ele>
        <time>2026-07-07T09:18:02Z</time>
      </trkpt>
      <trkpt lat="42.97513" lon="0.29835">
        <ele>1839.3</ele>
        <time>2026-07-07T09:18:02Z</time>
      </trkpt>
      <trkpt lat="42.97513" lon="0.29834">
        <ele>1839.3</ele>
        <time>2026-07-07T09:18:03Z</time>
      </trkpt>
      <trkpt lat="42.97513" lon="0.29833">
        <ele>1839.3</ele>
        <time>2026-07-07T09:18:04Z</time>
      </trkpt>
      <trkpt lat="42.97513" lon="0.29833">
        <ele>1838.3</ele>
        <time>2026-07-07T09:18:05Z</time>
      </trkpt>
      <trkpt lat="42.97513" lon="0.29832">
        <ele>1838.3</ele>
        <time>2026-07-07T09:18:05Z</time>
      </trkpt>
      <trkpt lat="42.97513" lon="0.29831">
        <ele>1838.3</ele>
        <time>2026-07-07T09:18:06Z</time>
      </trkpt>
      <trkpt lat="42.97513" lon="0.29831">
        <ele>1838.3</ele>
        <time>2026-07-07T09:18:07Z</time>
      </trkpt>
      <trkpt lat="42.97512" lon="0.29831">
        <ele>1838.3</ele>
        <time>2026-07-07T09:18:08Z</time>
      </trkpt>
      <trkpt lat="42.97512" lon="0.29831">
        <ele>1838.3</ele>
        <time>2026-07-07T09:18:08Z</time>
      </trkpt>
      <trkpt lat="42.97512" lon="0.2983">
        <ele>1839.3</ele>
        <time>2026-07-07T09:18:09Z</time>
      </trkpt>
      <trkpt lat="42.97512" lon="0.29829">
        <ele>1839.3</ele>
        <time>2026-07-07T09:18:10Z</time>
      </trkpt>
      <trkpt lat="42.97512" lon="0.29828">
        <ele>1839.3</ele>
        <time>2026-07-07T09:18:11Z</time>
      </trkpt>
      <trkpt lat="42.97512" lon="0.29828">
        <ele>1839.3</ele>
        <time>2026-07-07T09:18:12Z</time>
      </trkpt>
      <trkpt lat="42.97512" lon="0.29827">
        <ele>1840.3</ele>
        <time>2026-07-07T09:18:13Z</time>
      </trkpt>
      <trkpt lat="42.97512" lon="0.29826">
        <ele>1840.3</ele>
        <time>2026-07-07T09:18:14Z</time>
      </trkpt>
      <trkpt lat="42.97511" lon="0.29825">
        <ele>1840.3</ele>
        <time>2026-07-07T09:18:15Z</time>
      </trkpt>
      <trkpt lat="42.97511" lon="0.29824">
        <ele>1841.3</ele>
        <time>2026-07-07T09:18:16Z</time>
      </trkpt>
      <trkpt lat="42.97511" lon="0.29824">
        <ele>1842.3</ele>
        <time>2026-07-07T09:18:17Z</time>
      </trkpt>
      <trkpt lat="42.97511" lon="0.29823">
        <ele>1842.3</ele>
        <time>2026-07-07T09:18:18Z</time>
      </trkpt>
      <trkpt lat="42.97511" lon="0.29822">
        <ele>1843.3</ele>
        <time>2026-07-07T09:18:19Z</time>
      </trkpt>
      <trkpt lat="42.97511" lon="0.29822">
        <ele>1843.3</ele>
        <time>2026-07-07T09:18:20Z</time>
      </trkpt>
      <trkpt lat="42.97511" lon="0.29821">
        <ele>1842.3</ele>
        <time>2026-07-07T09:18:20Z</time>
      </trkpt>
      <trkpt lat="42.97511" lon="0.29821">
        <ele>1842.3</ele>
        <time>2026-07-07T09:18:21Z</time>
      </trkpt>
      <trkpt lat="42.97511" lon="0.2982">
        <ele>1843.3</ele>
        <time>2026-07-07T09:18:21Z</time>
      </trkpt>
      <trkpt lat="42.97511" lon="0.29819">
        <ele>1843.3</ele>
        <time>2026-07-07T09:18:22Z</time>
      </trkpt>
      <trkpt lat="42.97511" lon="0.29818">
        <ele>1842.3</ele>
        <time>2026-07-07T09:18:23Z</time>
      </trkpt>
      <trkpt lat="42.97512" lon="0.29817">
        <ele>1843.3</ele>
        <time>2026-07-07T09:18:24Z</time>
      </trkpt>
      <trkpt lat="42.97512" lon="0.29816">
        <ele>1843.3</ele>
        <time>2026-07-07T09:18:24Z</time>
      </trkpt>
      <trkpt lat="42.97512" lon="0.29815">
        <ele>1843.3</ele>
        <time>2026-07-07T09:18:25Z</time>
      </trkpt>
      <trkpt lat="42.97512" lon="0.29815">
        <ele>1843.3</ele>
        <time>2026-07-07T09:18:26Z</time>
      </trkpt>
      <trkpt lat="42.97512" lon="0.29814">
        <ele>1842.3</ele>
        <time>2026-07-07T09:18:26Z</time>
      </trkpt>
      <trkpt lat="42.97512" lon="0.29813">
        <ele>1842.3</ele>
        <time>2026-07-07T09:18:27Z</time>
      </trkpt>
      <trkpt lat="42.97512" lon="0.29812">
        <ele>1842.3</ele>
        <time>2026-07-07T09:18:28Z</time>
      </trkpt>
      <trkpt lat="42.97512" lon="0.29811">
        <ele>1842.3</ele>
        <time>2026-07-07T09:18:29Z</time>
      </trkpt>
      <trkpt lat="42.97512" lon="0.29811">
        <ele>1843.3</ele>
        <time>2026-07-07T09:18:29Z</time>
      </trkpt>
      <trkpt lat="42.97512" lon="0.2981">
        <ele>1843.3</ele>
        <time>2026-07-07T09:18:30Z</time>
      </trkpt>
      <trkpt lat="42.97512" lon="0.29809">
        <ele>1843.3</ele>
        <time>2026-07-07T09:18:31Z</time>
      </trkpt>
      <trkpt lat="42.97512" lon="0.29808">
        <ele>1843.3</ele>
        <time>2026-07-07T09:18:31Z</time>
      </trkpt>
      <trkpt lat="42.97512" lon="0.29807">
        <ele>1843.3</ele>
        <time>2026-07-07T09:18:32Z</time>
      </trkpt>
      <trkpt lat="42.97511" lon="0.29806">
        <ele>1843.3</ele>
        <time>2026-07-07T09:18:33Z</time>
      </trkpt>
      <trkpt lat="42.97512" lon="0.29806">
        <ele>1843.3</ele>
        <time>2026-07-07T09:18:34Z</time>
      </trkpt>
      <trkpt lat="42.97512" lon="0.29805">
        <ele>1843.3</ele>
        <time>2026-07-07T09:18:35Z</time>
      </trkpt>
      <trkpt lat="42.97512" lon="0.29804">
        <ele>1843.3</ele>
        <time>2026-07-07T09:18:36Z</time>
      </trkpt>
      <trkpt lat="42.97512" lon="0.29804">
        <ele>1843.3</ele>
        <time>2026-07-07T09:18:37Z</time>
      </trkpt>
      <trkpt lat="42.97512" lon="0.29804">
        <ele>1843.3</ele>
        <time>2026-07-07T09:18:37Z</time>
      </trkpt>
      <trkpt lat="42.97512" lon="0.29803">
        <ele>1843.3</ele>
        <time>2026-07-07T09:18:38Z</time>
      </trkpt>
      <trkpt lat="42.97512" lon="0.29802">
        <ele>1843.3</ele>
        <time>2026-07-07T09:18:39Z</time>
      </trkpt>
      <trkpt lat="42.97512" lon="0.29801">
        <ele>1843.3</ele>
        <time>2026-07-07T09:18:40Z</time>
      </trkpt>
      <trkpt lat="42.97511" lon="0.29801">
        <ele>1844.3</ele>
        <time>2026-07-07T09:18:41Z</time>
      </trkpt>
      <trkpt lat="42.97511" lon="0.298">
        <ele>1844.3</ele>
        <time>2026-07-07T09:18:42Z</time>
      </trkpt>
      <trkpt lat="42.97511" lon="0.29799">
        <ele>1844.3</ele>
        <time>2026-07-07T09:18:43Z</time>
      </trkpt>
      <trkpt lat="42.97511" lon="0.29799">
        <ele>1844.3</ele>
        <time>2026-07-07T09:18:43Z</time>
      </trkpt>
      <trkpt lat="42.97512" lon="0.29798">
        <ele>1844.3</ele>
        <time>2026-07-07T09:18:44Z</time>
      </trkpt>
      <trkpt lat="42.97512" lon="0.29797">
        <ele>1845.3</ele>
        <time>2026-07-07T09:18:45Z</time>
      </trkpt>
      <trkpt lat="42.97512" lon="0.29796">
        <ele>1845.3</ele>
        <time>2026-07-07T09:18:46Z</time>
      </trkpt>
      <trkpt lat="42.97512" lon="0.29795">
        <ele>1845.3</ele>
        <time>2026-07-07T09:18:47Z</time>
      </trkpt>
      <trkpt lat="42.97512" lon="0.29795">
        <ele>1846.3</ele>
        <time>2026-07-07T09:18:47Z</time>
      </trkpt>
      <trkpt lat="42.97512" lon="0.29794">
        <ele>1846.3</ele>
        <time>2026-07-07T09:18:48Z</time>
      </trkpt>
      <trkpt lat="42.97513" lon="0.29793">
        <ele>1846.3</ele>
        <time>2026-07-07T09:18:49Z</time>
      </trkpt>
      <trkpt lat="42.97513" lon="0.29793">
        <ele>1846.3</ele>
        <time>2026-07-07T09:18:50Z</time>
      </trkpt>
      <trkpt lat="42.97513" lon="0.29792">
        <ele>1846.3</ele>
        <time>2026-07-07T09:18:51Z</time>
      </trkpt>
      <trkpt lat="42.97513" lon="0.29792">
        <ele>1846.3</ele>
        <time>2026-07-07T09:18:51Z</time>
      </trkpt>
      <trkpt lat="42.97513" lon="0.29791">
        <ele>1847.3</ele>
        <time>2026-07-07T09:18:52Z</time>
      </trkpt>
      <trkpt lat="42.97513" lon="0.2979">
        <ele>1847.3</ele>
        <time>2026-07-07T09:18:53Z</time>
      </trkpt>
      <trkpt lat="42.97513" lon="0.29789">
        <ele>1847.3</ele>
        <time>2026-07-07T09:18:54Z</time>
      </trkpt>
      <trkpt lat="42.97513" lon="0.29789">
        <ele>1847.3</ele>
        <time>2026-07-07T09:18:55Z</time>
      </trkpt>
      <trkpt lat="42.97513" lon="0.29788">
        <ele>1847.3</ele>
        <time>2026-07-07T09:18:56Z</time>
      </trkpt>
      <trkpt lat="42.97513" lon="0.29787">
        <ele>1846.3</ele>
        <time>2026-07-07T09:18:57Z</time>
      </trkpt>
      <trkpt lat="42.97513" lon="0.29786">
        <ele>1847.3</ele>
        <time>2026-07-07T09:18:58Z</time>
      </trkpt>
      <trkpt lat="42.97513" lon="0.29786">
        <ele>1847.3</ele>
        <time>2026-07-07T09:18:58Z</time>
      </trkpt>
      <trkpt lat="42.97512" lon="0.29785">
        <ele>1847.3</ele>
        <time>2026-07-07T09:18:59Z</time>
      </trkpt>
      <trkpt lat="42.97513" lon="0.29784">
        <ele>1847.3</ele>
        <time>2026-07-07T09:19:00Z</time>
      </trkpt>
      <trkpt lat="42.97512" lon="0.29783">
        <ele>1848.3</ele>
        <time>2026-07-07T09:19:01Z</time>
      </trkpt>
      <trkpt lat="42.97512" lon="0.29782">
        <ele>1847.3</ele>
        <time>2026-07-07T09:19:02Z</time>
      </trkpt>
      <trkpt lat="42.97512" lon="0.29782">
        <ele>1847.3</ele>
        <time>2026-07-07T09:19:03Z</time>
      </trkpt>
      <trkpt lat="42.97512" lon="0.29782">
        <ele>1847.3</ele>
        <time>2026-07-07T09:19:03Z</time>
      </trkpt>
      <trkpt lat="42.97512" lon="0.29781">
        <ele>1847.3</ele>
        <time>2026-07-07T09:19:04Z</time>
      </trkpt>
      <trkpt lat="42.97511" lon="0.2978">
        <ele>1847.3</ele>
        <time>2026-07-07T09:19:05Z</time>
      </trkpt>
      <trkpt lat="42.97511" lon="0.29779">
        <ele>1847.3</ele>
        <time>2026-07-07T09:19:06Z</time>
      </trkpt>
      <trkpt lat="42.97511" lon="0.29779">
        <ele>1847.3</ele>
        <time>2026-07-07T09:19:07Z</time>
      </trkpt>
      <trkpt lat="42.97511" lon="0.29779">
        <ele>1847.3</ele>
        <time>2026-07-07T09:19:08Z</time>
      </trkpt>
      <trkpt lat="42.9751" lon="0.29778">
        <ele>1847.3</ele>
        <time>2026-07-07T09:19:08Z</time>
      </trkpt>
      <trkpt lat="42.9751" lon="0.29778">
        <ele>1848.3</ele>
        <time>2026-07-07T09:19:09Z</time>
      </trkpt>
      <trkpt lat="42.9751" lon="0.29777">
        <ele>1848.3</ele>
        <time>2026-07-07T09:19:10Z</time>
      </trkpt>
      <trkpt lat="42.97509" lon="0.29777">
        <ele>1848.3</ele>
        <time>2026-07-07T09:19:11Z</time>
      </trkpt>
      <trkpt lat="42.97509" lon="0.29776">
        <ele>1848.3</ele>
        <time>2026-07-07T09:19:12Z</time>
      </trkpt>
      <trkpt lat="42.97509" lon="0.29775">
        <ele>1848.3</ele>
        <time>2026-07-07T09:19:13Z</time>
      </trkpt>
      <trkpt lat="42.9751" lon="0.29774">
        <ele>1849.3</ele>
        <time>2026-07-07T09:19:14Z</time>
      </trkpt>
      <trkpt lat="42.9751" lon="0.29774">
        <ele>1849.3</ele>
        <time>2026-07-07T09:19:14Z</time>
      </trkpt>
      <trkpt lat="42.9751" lon="0.29772">
        <ele>1849.3</ele>
        <time>2026-07-07T09:19:15Z</time>
      </trkpt>
      <trkpt lat="42.9751" lon="0.29772">
        <ele>1848.3</ele>
        <time>2026-07-07T09:19:16Z</time>
      </trkpt>
      <trkpt lat="42.9751" lon="0.29771">
        <ele>1849.3</ele>
        <time>2026-07-07T09:19:17Z</time>
      </trkpt>
      <trkpt lat="42.9751" lon="0.2977">
        <ele>1849.3</ele>
        <time>2026-07-07T09:19:17Z</time>
      </trkpt>
      <trkpt lat="42.9751" lon="0.29768">
        <ele>1849.3</ele>
        <time>2026-07-07T09:19:18Z</time>
      </trkpt>
      <trkpt lat="42.9751" lon="0.29768">
        <ele>1849.3</ele>
        <time>2026-07-07T09:19:19Z</time>
      </trkpt>
      <trkpt lat="42.9751" lon="0.29767">
        <ele>1849.3</ele>
        <time>2026-07-07T09:19:20Z</time>
      </trkpt>
      <trkpt lat="42.9751" lon="0.29766">
        <ele>1849.3</ele>
        <time>2026-07-07T09:19:20Z</time>
      </trkpt>
      <trkpt lat="42.9751" lon="0.29765">
        <ele>1849.3</ele>
        <time>2026-07-07T09:19:21Z</time>
      </trkpt>
      <trkpt lat="42.9751" lon="0.29764">
        <ele>1849.3</ele>
        <time>2026-07-07T09:19:22Z</time>
      </trkpt>
      <trkpt lat="42.9751" lon="0.29763">
        <ele>1849.3</ele>
        <time>2026-07-07T09:19:23Z</time>
      </trkpt>
      <trkpt lat="42.9751" lon="0.29763">
        <ele>1849.3</ele>
        <time>2026-07-07T09:19:24Z</time>
      </trkpt>
      <trkpt lat="42.9751" lon="0.29762">
        <ele>1849.3</ele>
        <time>2026-07-07T09:19:24Z</time>
      </trkpt>
      <trkpt lat="42.9751" lon="0.29761">
        <ele>1849.3</ele>
        <time>2026-07-07T09:19:25Z</time>
      </trkpt>
      <trkpt lat="42.9751" lon="0.2976">
        <ele>1849.3</ele>
        <time>2026-07-07T09:19:26Z</time>
      </trkpt>
      <trkpt lat="42.9751" lon="0.29759">
        <ele>1849.3</ele>
        <time>2026-07-07T09:19:27Z</time>
      </trkpt>
      <trkpt lat="42.9751" lon="0.29758">
        <ele>1849.3</ele>
        <time>2026-07-07T09:19:28Z</time>
      </trkpt>
      <trkpt lat="42.9751" lon="0.29758">
        <ele>1849.3</ele>
        <time>2026-07-07T09:19:28Z</time>
      </trkpt>
      <trkpt lat="42.9751" lon="0.29757">
        <ele>1850.3</ele>
        <time>2026-07-07T09:19:29Z</time>
      </trkpt>
      <trkpt lat="42.9751" lon="0.29756">
        <ele>1850.3</ele>
        <time>2026-07-07T09:19:30Z</time>
      </trkpt>
      <trkpt lat="42.9751" lon="0.29755">
        <ele>1850.3</ele>
        <time>2026-07-07T09:19:31Z</time>
      </trkpt>
      <trkpt lat="42.9751" lon="0.29754">
        <ele>1850.3</ele>
        <time>2026-07-07T09:19:32Z</time>
      </trkpt>
      <trkpt lat="42.9751" lon="0.29754">
        <ele>1850.3</ele>
        <time>2026-07-07T09:19:32Z</time>
      </trkpt>
      <trkpt lat="42.9751" lon="0.29753">
        <ele>1850.3</ele>
        <time>2026-07-07T09:19:33Z</time>
      </trkpt>
      <trkpt lat="42.9751" lon="0.29752">
        <ele>1850.3</ele>
        <time>2026-07-07T09:19:34Z</time>
      </trkpt>
      <trkpt lat="42.9751" lon="0.29751">
        <ele>1851.3</ele>
        <time>2026-07-07T09:19:35Z</time>
      </trkpt>
      <trkpt lat="42.97511" lon="0.2975">
        <ele>1851.3</ele>
        <time>2026-07-07T09:19:35Z</time>
      </trkpt>
      <trkpt lat="42.97511" lon="0.29749">
        <ele>1850.3</ele>
        <time>2026-07-07T09:19:36Z</time>
      </trkpt>
      <trkpt lat="42.97511" lon="0.29748">
        <ele>1850.3</ele>
        <time>2026-07-07T09:19:37Z</time>
      </trkpt>
      <trkpt lat="42.97511" lon="0.29748">
        <ele>1850.3</ele>
        <time>2026-07-07T09:19:38Z</time>
      </trkpt>
      <trkpt lat="42.97511" lon="0.29747">
        <ele>1851.3</ele>
        <time>2026-07-07T09:19:39Z</time>
      </trkpt>
      <trkpt lat="42.9751" lon="0.29747">
        <ele>1851.3</ele>
        <time>2026-07-07T09:19:40Z</time>
      </trkpt>
      <trkpt lat="42.9751" lon="0.29747">
        <ele>1852.3</ele>
        <time>2026-07-07T09:19:41Z</time>
      </trkpt>
      <trkpt lat="42.9751" lon="0.29747">
        <ele>1852.3</ele>
        <time>2026-07-07T09:19:42Z</time>
      </trkpt>
      <trkpt lat="42.9751" lon="0.29746">
        <ele>1852.3</ele>
        <time>2026-07-07T09:19:43Z</time>
      </trkpt>
      <trkpt lat="42.97511" lon="0.29746">
        <ele>1851.3</ele>
        <time>2026-07-07T09:19:43Z</time>
      </trkpt>
      <trkpt lat="42.97511" lon="0.29745">
        <ele>1851.3</ele>
        <time>2026-07-07T09:19:44Z</time>
      </trkpt>
      <trkpt lat="42.97511" lon="0.29744">
        <ele>1851.3</ele>
        <time>2026-07-07T09:19:45Z</time>
      </trkpt>
      <trkpt lat="42.97511" lon="0.29743">
        <ele>1851.3</ele>
        <time>2026-07-07T09:19:46Z</time>
      </trkpt>
      <trkpt lat="42.97511" lon="0.29742">
        <ele>1851.3</ele>
        <time>2026-07-07T09:19:46Z</time>
      </trkpt>
      <trkpt lat="42.97511" lon="0.29741">
        <ele>1851.3</ele>
        <time>2026-07-07T09:19:47Z</time>
      </trkpt>
      <trkpt lat="42.97511" lon="0.29739">
        <ele>1851.3</ele>
        <time>2026-07-07T09:19:48Z</time>
      </trkpt>
      <trkpt lat="42.97511" lon="0.29738">
        <ele>1851.3</ele>
        <time>2026-07-07T09:19:48Z</time>
      </trkpt>
      <trkpt lat="42.9751" lon="0.29737">
        <ele>1852.3</ele>
        <time>2026-07-07T09:19:49Z</time>
      </trkpt>
      <trkpt lat="42.9751" lon="0.29736">
        <ele>1852.3</ele>
        <time>2026-07-07T09:19:50Z</time>
      </trkpt>
      <trkpt lat="42.9751" lon="0.29735">
        <ele>1852.3</ele>
        <time>2026-07-07T09:19:50Z</time>
      </trkpt>
      <trkpt lat="42.97511" lon="0.29734">
        <ele>1852.3</ele>
        <time>2026-07-07T09:19:51Z</time>
      </trkpt>
      <trkpt lat="42.97511" lon="0.29733">
        <ele>1852.3</ele>
        <time>2026-07-07T09:19:52Z</time>
      </trkpt>
      <trkpt lat="42.97511" lon="0.29732">
        <ele>1852.3</ele>
        <time>2026-07-07T09:19:53Z</time>
      </trkpt>
      <trkpt lat="42.97511" lon="0.29731">
        <ele>1853.3</ele>
        <time>2026-07-07T09:19:53Z</time>
      </trkpt>
      <trkpt lat="42.97511" lon="0.2973">
        <ele>1853.3</ele>
        <time>2026-07-07T09:19:54Z</time>
      </trkpt>
      <trkpt lat="42.97511" lon="0.29729">
        <ele>1854.3</ele>
        <time>2026-07-07T09:19:55Z</time>
      </trkpt>
      <trkpt lat="42.97511" lon="0.29728">
        <ele>1854.3</ele>
        <time>2026-07-07T09:19:56Z</time>
      </trkpt>
      <trkpt lat="42.97511" lon="0.29727">
        <ele>1854.3</ele>
        <time>2026-07-07T09:19:56Z</time>
      </trkpt>
      <trkpt lat="42.97511" lon="0.29726">
        <ele>1854.3</ele>
        <time>2026-07-07T09:19:57Z</time>
      </trkpt>
      <trkpt lat="42.97511" lon="0.29726">
        <ele>1854.3</ele>
        <time>2026-07-07T09:19:58Z</time>
      </trkpt>
      <trkpt lat="42.97511" lon="0.29725">
        <ele>1854.3</ele>
        <time>2026-07-07T09:19:58Z</time>
      </trkpt>
      <trkpt lat="42.97511" lon="0.29724">
        <ele>1854.3</ele>
        <time>2026-07-07T09:19:59Z</time>
      </trkpt>
      <trkpt lat="42.97511" lon="0.29724">
        <ele>1854.3</ele>
        <time>2026-07-07T09:20:00Z</time>
      </trkpt>
      <trkpt lat="42.97511" lon="0.29723">
        <ele>1855.3</ele>
        <time>2026-07-07T09:20:01Z</time>
      </trkpt>
      <trkpt lat="42.97511" lon="0.29722">
        <ele>1855.3</ele>
        <time>2026-07-07T09:20:01Z</time>
      </trkpt>
      <trkpt lat="42.97511" lon="0.29721">
        <ele>1855.3</ele>
        <time>2026-07-07T09:20:02Z</time>
      </trkpt>
      <trkpt lat="42.9751" lon="0.2972">
        <ele>1855.3</ele>
        <time>2026-07-07T09:20:03Z</time>
      </trkpt>
      <trkpt lat="42.9751" lon="0.29719">
        <ele>1855.3</ele>
        <time>2026-07-07T09:20:04Z</time>
      </trkpt>
      <trkpt lat="42.9751" lon="0.29719">
        <ele>1855.3</ele>
        <time>2026-07-07T09:20:04Z</time>
      </trkpt>
      <trkpt lat="42.9751" lon="0.29718">
        <ele>1855.3</ele>
        <time>2026-07-07T09:20:05Z</time>
      </trkpt>
      <trkpt lat="42.9751" lon="0.29717">
        <ele>1855.3</ele>
        <time>2026-07-07T09:20:06Z</time>
      </trkpt>
      <trkpt lat="42.97509" lon="0.29716">
        <ele>1856.3</ele>
        <time>2026-07-07T09:20:07Z</time>
      </trkpt>
      <trkpt lat="42.97509" lon="0.29715">
        <ele>1856.3</ele>
        <time>2026-07-07T09:20:07Z</time>
      </trkpt>
      <trkpt lat="42.97509" lon="0.29714">
        <ele>1856.3</ele>
        <time>2026-07-07T09:20:08Z</time>
      </trkpt>
      <trkpt lat="42.97509" lon="0.29714">
        <ele>1857.3</ele>
        <time>2026-07-07T09:20:09Z</time>
      </trkpt>
      <trkpt lat="42.97509" lon="0.29713">
        <ele>1856.3</ele>
        <time>2026-07-07T09:20:10Z</time>
      </trkpt>
      <trkpt lat="42.97508" lon="0.29712">
        <ele>1856.3</ele>
        <time>2026-07-07T09:20:10Z</time>
      </trkpt>
      <trkpt lat="42.97508" lon="0.29711">
        <ele>1856.3</ele>
        <time>2026-07-07T09:20:11Z</time>
      </trkpt>
      <trkpt lat="42.97508" lon="0.2971">
        <ele>1856.3</ele>
        <time>2026-07-07T09:20:12Z</time>
      </trkpt>
      <trkpt lat="42.97508" lon="0.2971">
        <ele>1856.3</ele>
        <time>2026-07-07T09:20:13Z</time>
      </trkpt>
      <trkpt lat="42.97508" lon="0.29709">
        <ele>1855.3</ele>
        <time>2026-07-07T09:20:13Z</time>
      </trkpt>
      <trkpt lat="42.97508" lon="0.29708">
        <ele>1855.3</ele>
        <time>2026-07-07T09:20:14Z</time>
      </trkpt>
      <trkpt lat="42.97508" lon="0.29708">
        <ele>1855.3</ele>
        <time>2026-07-07T09:20:15Z</time>
      </trkpt>
      <trkpt lat="42.97507" lon="0.29707">
        <ele>1855.3</ele>
        <time>2026-07-07T09:20:15Z</time>
      </trkpt>
      <trkpt lat="42.97507" lon="0.29706">
        <ele>1855.3</ele>
        <time>2026-07-07T09:20:16Z</time>
      </trkpt>
      <trkpt lat="42.97507" lon="0.29705">
        <ele>1856.3</ele>
        <time>2026-07-07T09:20:17Z</time>
      </trkpt>
      <trkpt lat="42.97506" lon="0.29705">
        <ele>1856.3</ele>
        <time>2026-07-07T09:20:18Z</time>
      </trkpt>
      <trkpt lat="42.97506" lon="0.29704">
        <ele>1856.3</ele>
        <time>2026-07-07T09:20:18Z</time>
      </trkpt>
      <trkpt lat="42.97506" lon="0.29703">
        <ele>1856.3</ele>
        <time>2026-07-07T09:20:19Z</time>
      </trkpt>
      <trkpt lat="42.97506" lon="0.29702">
        <ele>1856.3</ele>
        <time>2026-07-07T09:20:19Z</time>
      </trkpt>
      <trkpt lat="42.97507" lon="0.29701">
        <ele>1856.3</ele>
        <time>2026-07-07T09:20:20Z</time>
      </trkpt>
      <trkpt lat="42.97507" lon="0.297">
        <ele>1857.3</ele>
        <time>2026-07-07T09:20:21Z</time>
      </trkpt>
      <trkpt lat="42.97507" lon="0.29699">
        <ele>1857.3</ele>
        <time>2026-07-07T09:20:21Z</time>
      </trkpt>
      <trkpt lat="42.97507" lon="0.29698">
        <ele>1857.3</ele>
        <time>2026-07-07T09:20:22Z</time>
      </trkpt>
      <trkpt lat="42.97507" lon="0.29697">
        <ele>1857.3</ele>
        <time>2026-07-07T09:20:23Z</time>
      </trkpt>
      <trkpt lat="42.97507" lon="0.29696">
        <ele>1856.3</ele>
        <time>2026-07-07T09:20:23Z</time>
      </trkpt>
      <trkpt lat="42.97506" lon="0.29695">
        <ele>1856.3</ele>
        <time>2026-07-07T09:20:24Z</time>
      </trkpt>
      <trkpt lat="42.97506" lon="0.29694">
        <ele>1856.3</ele>
        <time>2026-07-07T09:20:25Z</time>
      </trkpt>
      <trkpt lat="42.97506" lon="0.29694">
        <ele>1856.3</ele>
        <time>2026-07-07T09:20:25Z</time>
      </trkpt>
      <trkpt lat="42.97507" lon="0.29693">
        <ele>1856.3</ele>
        <time>2026-07-07T09:20:26Z</time>
      </trkpt>
      <trkpt lat="42.97507" lon="0.29692">
        <ele>1856.3</ele>
        <time>2026-07-07T09:20:27Z</time>
      </trkpt>
      <trkpt lat="42.97507" lon="0.29691">
        <ele>1856.3</ele>
        <time>2026-07-07T09:20:27Z</time>
      </trkpt>
      <trkpt lat="42.97507" lon="0.2969">
        <ele>1857.3</ele>
        <time>2026-07-07T09:20:28Z</time>
      </trkpt>
      <trkpt lat="42.97506" lon="0.29689">
        <ele>1857.3</ele>
        <time>2026-07-07T09:20:28Z</time>
      </trkpt>
      <trkpt lat="42.97506" lon="0.29688">
        <ele>1857.3</ele>
        <time>2026-07-07T09:20:29Z</time>
      </trkpt>
      <trkpt lat="42.97505" lon="0.29687">
        <ele>1857.3</ele>
        <time>2026-07-07T09:20:30Z</time>
      </trkpt>
      <trkpt lat="42.97505" lon="0.29686">
        <ele>1856.3</ele>
        <time>2026-07-07T09:20:30Z</time>
      </trkpt>
      <trkpt lat="42.97505" lon="0.29685">
        <ele>1856.3</ele>
        <time>2026-07-07T09:20:31Z</time>
      </trkpt>
      <trkpt lat="42.97504" lon="0.29684">
        <ele>1856.3</ele>
        <time>2026-07-07T09:20:32Z</time>
      </trkpt>
      <trkpt lat="42.97504" lon="0.29683">
        <ele>1856.3</ele>
        <time>2026-07-07T09:20:32Z</time>
      </trkpt>
      <trkpt lat="42.97504" lon="0.29682">
        <ele>1856.3</ele>
        <time>2026-07-07T09:20:33Z</time>
      </trkpt>
      <trkpt lat="42.97504" lon="0.29682">
        <ele>1856.3</ele>
        <time>2026-07-07T09:20:33Z</time>
      </trkpt>
      <trkpt lat="42.97504" lon="0.29681">
        <ele>1856.3</ele>
        <time>2026-07-07T09:20:34Z</time>
      </trkpt>
      <trkpt lat="42.97503" lon="0.2968">
        <ele>1856.3</ele>
        <time>2026-07-07T09:20:34Z</time>
      </trkpt>
      <trkpt lat="42.97503" lon="0.29679">
        <ele>1856.3</ele>
        <time>2026-07-07T09:20:35Z</time>
      </trkpt>
      <trkpt lat="42.97503" lon="0.29678">
        <ele>1856.3</ele>
        <time>2026-07-07T09:20:36Z</time>
      </trkpt>
      <trkpt lat="42.97503" lon="0.29678">
        <ele>1856.3</ele>
        <time>2026-07-07T09:20:36Z</time>
      </trkpt>
      <trkpt lat="42.97503" lon="0.29677">
        <ele>1856.3</ele>
        <time>2026-07-07T09:20:37Z</time>
      </trkpt>
      <trkpt lat="42.97503" lon="0.29676">
        <ele>1856.3</ele>
        <time>2026-07-07T09:20:38Z</time>
      </trkpt>
      <trkpt lat="42.97503" lon="0.29675">
        <ele>1856.3</ele>
        <time>2026-07-07T09:20:38Z</time>
      </trkpt>
      <trkpt lat="42.97503" lon="0.29674">
        <ele>1856.3</ele>
        <time>2026-07-07T09:20:39Z</time>
      </trkpt>
      <trkpt lat="42.97503" lon="0.29673">
        <ele>1856.3</ele>
        <time>2026-07-07T09:20:39Z</time>
      </trkpt>
      <trkpt lat="42.97502" lon="0.29672">
        <ele>1856.3</ele>
        <time>2026-07-07T09:20:40Z</time>
      </trkpt>
      <trkpt lat="42.97502" lon="0.29671">
        <ele>1856.3</ele>
        <time>2026-07-07T09:20:41Z</time>
      </trkpt>
      <trkpt lat="42.97502" lon="0.2967">
        <ele>1857.3</ele>
        <time>2026-07-07T09:20:42Z</time>
      </trkpt>
      <trkpt lat="42.97502" lon="0.29669">
        <ele>1857.3</ele>
        <time>2026-07-07T09:20:42Z</time>
      </trkpt>
      <trkpt lat="42.97502" lon="0.29668">
        <ele>1856.3</ele>
        <time>2026-07-07T09:20:43Z</time>
      </trkpt>
      <trkpt lat="42.97502" lon="0.29668">
        <ele>1857.3</ele>
        <time>2026-07-07T09:20:44Z</time>
      </trkpt>
      <trkpt lat="42.97502" lon="0.29667">
        <ele>1857.3</ele>
        <time>2026-07-07T09:20:44Z</time>
      </trkpt>
      <trkpt lat="42.97502" lon="0.29666">
        <ele>1857.3</ele>
        <time>2026-07-07T09:20:45Z</time>
      </trkpt>
      <trkpt lat="42.97502" lon="0.29665">
        <ele>1858.3</ele>
        <time>2026-07-07T09:20:46Z</time>
      </trkpt>
      <trkpt lat="42.97502" lon="0.29664">
        <ele>1858.3</ele>
        <time>2026-07-07T09:20:47Z</time>
      </trkpt>
      <trkpt lat="42.97502" lon="0.29664">
        <ele>1858.3</ele>
        <time>2026-07-07T09:20:47Z</time>
      </trkpt>
      <trkpt lat="42.97502" lon="0.29663">
        <ele>1858.3</ele>
        <time>2026-07-07T09:20:48Z</time>
      </trkpt>
      <trkpt lat="42.97501" lon="0.29662">
        <ele>1858.3</ele>
        <time>2026-07-07T09:20:49Z</time>
      </trkpt>
      <trkpt lat="42.97501" lon="0.29661">
        <ele>1858.3</ele>
        <time>2026-07-07T09:20:49Z</time>
      </trkpt>
      <trkpt lat="42.97501" lon="0.2966">
        <ele>1858.3</ele>
        <time>2026-07-07T09:20:50Z</time>
      </trkpt>
      <trkpt lat="42.97501" lon="0.29659">
        <ele>1858.3</ele>
        <time>2026-07-07T09:20:51Z</time>
      </trkpt>
      <trkpt lat="42.975" lon="0.29659">
        <ele>1858.3</ele>
        <time>2026-07-07T09:20:51Z</time>
      </trkpt>
      <trkpt lat="42.975" lon="0.29658">
        <ele>1858.3</ele>
        <time>2026-07-07T09:20:52Z</time>
      </trkpt>
      <trkpt lat="42.975" lon="0.29657">
        <ele>1858.3</ele>
        <time>2026-07-07T09:20:53Z</time>
      </trkpt>
      <trkpt lat="42.975" lon="0.29656">
        <ele>1858.3</ele>
        <time>2026-07-07T09:20:54Z</time>
      </trkpt>
      <trkpt lat="42.975" lon="0.29655">
        <ele>1858.3</ele>
        <time>2026-07-07T09:20:54Z</time>
      </trkpt>
      <trkpt lat="42.975" lon="0.29654">
        <ele>1858.3</ele>
        <time>2026-07-07T09:20:55Z</time>
      </trkpt>
      <trkpt lat="42.975" lon="0.29654">
        <ele>1858.3</ele>
        <time>2026-07-07T09:20:56Z</time>
      </trkpt>
      <trkpt lat="42.975" lon="0.29653">
        <ele>1858.3</ele>
        <time>2026-07-07T09:20:56Z</time>
      </trkpt>
      <trkpt lat="42.975" lon="0.29652">
        <ele>1858.3</ele>
        <time>2026-07-07T09:20:57Z</time>
      </trkpt>
      <trkpt lat="42.975" lon="0.29652">
        <ele>1859.3</ele>
        <time>2026-07-07T09:20:58Z</time>
      </trkpt>
      <trkpt lat="42.975" lon="0.29651">
        <ele>1859.3</ele>
        <time>2026-07-07T09:20:58Z</time>
      </trkpt>
      <trkpt lat="42.975" lon="0.29651">
        <ele>1859.3</ele>
        <time>2026-07-07T09:20:59Z</time>
      </trkpt>
      <trkpt lat="42.975" lon="0.2965">
        <ele>1859.3</ele>
        <time>2026-07-07T09:21:00Z</time>
      </trkpt>
      <trkpt lat="42.97499" lon="0.29649">
        <ele>1860.3</ele>
        <time>2026-07-07T09:21:01Z</time>
      </trkpt>
      <trkpt lat="42.97499" lon="0.29649">
        <ele>1859.3</ele>
        <time>2026-07-07T09:21:02Z</time>
      </trkpt>
      <trkpt lat="42.97499" lon="0.29648">
        <ele>1859.3</ele>
        <time>2026-07-07T09:21:02Z</time>
      </trkpt>
      <trkpt lat="42.97499" lon="0.29648">
        <ele>1859.3</ele>
        <time>2026-07-07T09:21:03Z</time>
      </trkpt>
      <trkpt lat="42.97499" lon="0.29648">
        <ele>1859.3</ele>
        <time>2026-07-07T09:21:04Z</time>
      </trkpt>
      <trkpt lat="42.97499" lon="0.29648">
        <ele>1859.3</ele>
        <time>2026-07-07T09:21:05Z</time>
      </trkpt>
      <trkpt lat="42.97499" lon="0.29648">
        <ele>1861.3</ele>
        <time>2026-07-07T09:21:06Z</time>
      </trkpt>
      <trkpt lat="42.97499" lon="0.29648">
        <ele>1861.3</ele>
        <time>2026-07-07T09:21:07Z</time>
      </trkpt>
      <trkpt lat="42.97499" lon="0.29648">
        <ele>1861.3</ele>
        <time>2026-07-07T09:21:08Z</time>
      </trkpt>
      <trkpt lat="42.97499" lon="0.29648">
        <ele>1862.3</ele>
        <time>2026-07-07T09:21:09Z</time>
      </trkpt>
      <trkpt lat="42.97499" lon="0.29648">
        <ele>1862.3</ele>
        <time>2026-07-07T09:21:10Z</time>
      </trkpt>
      <trkpt lat="42.97499" lon="0.29648">
        <ele>1862.3</ele>
        <time>2026-07-07T09:21:11Z</time>
      </trkpt>
      <trkpt lat="42.97499" lon="0.29648">
        <ele>1862.3</ele>
        <time>2026-07-07T09:21:11Z</time>
      </trkpt>
      <trkpt lat="42.97499" lon="0.29647">
        <ele>1862.3</ele>
        <time>2026-07-07T09:21:12Z</time>
      </trkpt>
      <trkpt lat="42.97499" lon="0.29647">
        <ele>1862.3</ele>
        <time>2026-07-07T09:21:13Z</time>
      </trkpt>
      <trkpt lat="42.97499" lon="0.29647">
        <ele>1862.3</ele>
        <time>2026-07-07T09:21:14Z</time>
      </trkpt>
      <trkpt lat="42.97499" lon="0.29646">
        <ele>1862.3</ele>
        <time>2026-07-07T09:21:14Z</time>
      </trkpt>
      <trkpt lat="42.97499" lon="0.29646">
        <ele>1862.3</ele>
        <time>2026-07-07T09:21:15Z</time>
      </trkpt>
      <trkpt lat="42.97498" lon="0.29646">
        <ele>1862.3</ele>
        <time>2026-07-07T09:21:16Z</time>
      </trkpt>
      <trkpt lat="42.97498" lon="0.29646">
        <ele>1863.3</ele>
        <time>2026-07-07T09:21:17Z</time>
      </trkpt>
      <trkpt lat="42.97498" lon="0.29645">
        <ele>1862.3</ele>
        <time>2026-07-07T09:21:17Z</time>
      </trkpt>
      <trkpt lat="42.97498" lon="0.29644">
        <ele>1862.3</ele>
        <time>2026-07-07T09:21:18Z</time>
      </trkpt>
      <trkpt lat="42.97497" lon="0.29642">
        <ele>1862.3</ele>
        <time>2026-07-07T09:21:19Z</time>
      </trkpt>
      <trkpt lat="42.97497" lon="0.29641">
        <ele>1862.3</ele>
        <time>2026-07-07T09:21:19Z</time>
      </trkpt>
      <trkpt lat="42.97497" lon="0.2964">
        <ele>1862.3</ele>
        <time>2026-07-07T09:21:20Z</time>
      </trkpt>
      <trkpt lat="42.97497" lon="0.29639">
        <ele>1862.3</ele>
        <time>2026-07-07T09:21:21Z</time>
      </trkpt>
      <trkpt lat="42.97497" lon="0.29638">
        <ele>1862.3</ele>
        <time>2026-07-07T09:21:21Z</time>
      </trkpt>
      <trkpt lat="42.97497" lon="0.29637">
        <ele>1862.3</ele>
        <time>2026-07-07T09:21:22Z</time>
      </trkpt>
      <trkpt lat="42.97496" lon="0.29636">
        <ele>1862.3</ele>
        <time>2026-07-07T09:21:23Z</time>
      </trkpt>
      <trkpt lat="42.97496" lon="0.29636">
        <ele>1862.3</ele>
        <time>2026-07-07T09:21:23Z</time>
      </trkpt>
      <trkpt lat="42.97496" lon="0.29635">
        <ele>1862.3</ele>
        <time>2026-07-07T09:21:24Z</time>
      </trkpt>
      <trkpt lat="42.97496" lon="0.29634">
        <ele>1862.3</ele>
        <time>2026-07-07T09:21:25Z</time>
      </trkpt>
      <trkpt lat="42.97496" lon="0.29633">
        <ele>1862.3</ele>
        <time>2026-07-07T09:21:26Z</time>
      </trkpt>
      <trkpt lat="42.97496" lon="0.29632">
        <ele>1862.3</ele>
        <time>2026-07-07T09:21:26Z</time>
      </trkpt>
      <trkpt lat="42.97495" lon="0.29632">
        <ele>1862.3</ele>
        <time>2026-07-07T09:21:27Z</time>
      </trkpt>
      <trkpt lat="42.97495" lon="0.29631">
        <ele>1863.3</ele>
        <time>2026-07-07T09:21:28Z</time>
      </trkpt>
      <trkpt lat="42.97495" lon="0.2963">
        <ele>1863.3</ele>
        <time>2026-07-07T09:21:29Z</time>
      </trkpt>
      <trkpt lat="42.97495" lon="0.2963">
        <ele>1863.3</ele>
        <time>2026-07-07T09:21:29Z</time>
      </trkpt>
      <trkpt lat="42.97494" lon="0.29629">
        <ele>1863.3</ele>
        <time>2026-07-07T09:21:30Z</time>
      </trkpt>
      <trkpt lat="42.97494" lon="0.29629">
        <ele>1863.3</ele>
        <time>2026-07-07T09:21:30Z</time>
      </trkpt>
      <trkpt lat="42.97494" lon="0.29627">
        <ele>1863.3</ele>
        <time>2026-07-07T09:21:31Z</time>
      </trkpt>
      <trkpt lat="42.97494" lon="0.29627">
        <ele>1863.3</ele>
        <time>2026-07-07T09:21:32Z</time>
      </trkpt>
      <trkpt lat="42.97494" lon="0.29626">
        <ele>1863.3</ele>
        <time>2026-07-07T09:21:33Z</time>
      </trkpt>
      <trkpt lat="42.97494" lon="0.29625">
        <ele>1863.3</ele>
        <time>2026-07-07T09:21:33Z</time>
      </trkpt>
      <trkpt lat="42.97493" lon="0.29624">
        <ele>1863.3</ele>
        <time>2026-07-07T09:21:34Z</time>
      </trkpt>
      <trkpt lat="42.97493" lon="0.29624">
        <ele>1864.3</ele>
        <time>2026-07-07T09:21:35Z</time>
      </trkpt>
      <trkpt lat="42.97492" lon="0.29623">
        <ele>1864.3</ele>
        <time>2026-07-07T09:21:36Z</time>
      </trkpt>
      <trkpt lat="42.97492" lon="0.29623">
        <ele>1864.3</ele>
        <time>2026-07-07T09:21:36Z</time>
      </trkpt>
      <trkpt lat="42.97492" lon="0.29622">
        <ele>1864.3</ele>
        <time>2026-07-07T09:21:37Z</time>
      </trkpt>
      <trkpt lat="42.97491" lon="0.29622">
        <ele>1864.3</ele>
        <time>2026-07-07T09:21:38Z</time>
      </trkpt>
      <trkpt lat="42.97491" lon="0.29622">
        <ele>1864.3</ele>
        <time>2026-07-07T09:21:39Z</time>
      </trkpt>
      <trkpt lat="42.97491" lon="0.29622">
        <ele>1863.3</ele>
        <time>2026-07-07T09:21:39Z</time>
      </trkpt>
      <trkpt lat="42.9749" lon="0.29621">
        <ele>1864.3</ele>
        <time>2026-07-07T09:21:40Z</time>
      </trkpt>
      <trkpt lat="42.9749" lon="0.29621">
        <ele>1864.3</ele>
        <time>2026-07-07T09:21:41Z</time>
      </trkpt>
      <trkpt lat="42.9749" lon="0.29621">
        <ele>1864.3</ele>
        <time>2026-07-07T09:21:42Z</time>
      </trkpt>
      <trkpt lat="42.97491" lon="0.29621">
        <ele>1864.3</ele>
        <time>2026-07-07T09:21:43Z</time>
      </trkpt>
      <trkpt lat="42.97491" lon="0.29621">
        <ele>1864.3</ele>
        <time>2026-07-07T09:21:44Z</time>
      </trkpt>
      <trkpt lat="42.97491" lon="0.29621">
        <ele>1864.3</ele>
        <time>2026-07-07T09:21:45Z</time>
      </trkpt>
      <trkpt lat="42.9749" lon="0.29621">
        <ele>1864.3</ele>
        <time>2026-07-07T09:21:46Z</time>
      </trkpt>
      <trkpt lat="42.9749" lon="0.29621">
        <ele>1865.3</ele>
        <time>2026-07-07T09:21:46Z</time>
      </trkpt>
      <trkpt lat="42.97491" lon="0.29622">
        <ele>1864.3</ele>
        <time>2026-07-07T09:21:47Z</time>
      </trkpt>
      <trkpt lat="42.97491" lon="0.29622">
        <ele>1864.3</ele>
        <time>2026-07-07T09:21:48Z</time>
      </trkpt>
      <trkpt lat="42.9749" lon="0.29622">
        <ele>1864.3</ele>
        <time>2026-07-07T09:21:49Z</time>
      </trkpt>
      <trkpt lat="42.9749" lon="0.29622">
        <ele>1864.3</ele>
        <time>2026-07-07T09:21:49Z</time>
      </trkpt>
      <trkpt lat="42.9749" lon="0.29622">
        <ele>1865.3</ele>
        <time>2026-07-07T09:21:50Z</time>
      </trkpt>
      <trkpt lat="42.9749" lon="0.29622">
        <ele>1865.3</ele>
        <time>2026-07-07T09:21:51Z</time>
      </trkpt>
      <trkpt lat="42.9749" lon="0.29621">
        <ele>1865.3</ele>
        <time>2026-07-07T09:21:52Z</time>
      </trkpt>
      <trkpt lat="42.9749" lon="0.29622">
        <ele>1865.3</ele>
        <time>2026-07-07T09:21:52Z</time>
      </trkpt>
      <trkpt lat="42.9749" lon="0.29622">
        <ele>1865.3</ele>
        <time>2026-07-07T09:21:53Z</time>
      </trkpt>
      <trkpt lat="42.9749" lon="0.29622">
        <ele>1865.3</ele>
        <time>2026-07-07T09:21:54Z</time>
      </trkpt>
      <trkpt lat="42.9749" lon="0.29622">
        <ele>1865.3</ele>
        <time>2026-07-07T09:21:55Z</time>
      </trkpt>
      <trkpt lat="42.9749" lon="0.29622">
        <ele>1865.3</ele>
        <time>2026-07-07T09:21:56Z</time>
      </trkpt>
      <trkpt lat="42.9749" lon="0.29622">
        <ele>1865.3</ele>
        <time>2026-07-07T09:21:57Z</time>
      </trkpt>
      <trkpt lat="42.9749" lon="0.29622">
        <ele>1865.3</ele>
        <time>2026-07-07T09:21:58Z</time>
      </trkpt>
      <trkpt lat="42.9749" lon="0.29622">
        <ele>1864.3</ele>
        <time>2026-07-07T09:21:59Z</time>
      </trkpt>
      <trkpt lat="42.9749" lon="0.29622">
        <ele>1865.3</ele>
        <time>2026-07-07T09:22:00Z</time>
      </trkpt>
      <trkpt lat="42.9749" lon="0.29622">
        <ele>1866.3</ele>
        <time>2026-07-07T09:22:01Z</time>
      </trkpt>
      <trkpt lat="42.9749" lon="0.29622">
        <ele>1866.3</ele>
        <time>2026-07-07T09:22:02Z</time>
      </trkpt>
      <trkpt lat="42.9749" lon="0.29622">
        <ele>1866.3</ele>
        <time>2026-07-07T09:22:03Z</time>
      </trkpt>
      <trkpt lat="42.9749" lon="0.29622">
        <ele>1866.3</ele>
        <time>2026-07-07T09:22:04Z</time>
      </trkpt>
      <trkpt lat="42.9749" lon="0.29621">
        <ele>1866.3</ele>
        <time>2026-07-07T09:22:05Z</time>
      </trkpt>
      <trkpt lat="42.9749" lon="0.29621">
        <ele>1866.3</ele>
        <time>2026-07-07T09:22:06Z</time>
      </trkpt>
      <trkpt lat="42.9749" lon="0.29621">
        <ele>1866.3</ele>
        <time>2026-07-07T09:22:07Z</time>
      </trkpt>
      <trkpt lat="42.9749" lon="0.29621">
        <ele>1866.3</ele>
        <time>2026-07-07T09:22:08Z</time>
      </trkpt>
      <trkpt lat="42.9749" lon="0.29621">
        <ele>1866.3</ele>
        <time>2026-07-07T09:22:09Z</time>
      </trkpt>
      <trkpt lat="42.9749" lon="0.29622">
        <ele>1866.3</ele>
        <time>2026-07-07T09:22:10Z</time>
      </trkpt>
      <trkpt lat="42.9749" lon="0.29622">
        <ele>1867.3</ele>
        <time>2026-07-07T09:22:11Z</time>
      </trkpt>
      <trkpt lat="42.9749" lon="0.29622">
        <ele>1867.3</ele>
        <time>2026-07-07T09:22:12Z</time>
      </trkpt>
      <trkpt lat="42.9749" lon="0.29622">
        <ele>1867.3</ele>
        <time>2026-07-07T09:22:13Z</time>
      </trkpt>
      <trkpt lat="42.9749" lon="0.29622">
        <ele>1867.3</ele>
        <time>2026-07-07T09:22:14Z</time>
      </trkpt>
      <trkpt lat="42.9749" lon="0.29621">
        <ele>1867.3</ele>
        <time>2026-07-07T09:22:15Z</time>
      </trkpt>
      <trkpt lat="42.9749" lon="0.29621">
        <ele>1867.3</ele>
        <time>2026-07-07T09:22:16Z</time>
      </trkpt>
      <trkpt lat="42.9749" lon="0.29621">
        <ele>1867.3</ele>
        <time>2026-07-07T09:22:17Z</time>
      </trkpt>
      <trkpt lat="42.9749" lon="0.29622">
        <ele>1867.3</ele>
        <time>2026-07-07T09:22:18Z</time>
      </trkpt>
      <trkpt lat="42.9749" lon="0.29622">
        <ele>1867.3</ele>
        <time>2026-07-07T09:22:19Z</time>
      </trkpt>
      <trkpt lat="42.9749" lon="0.29622">
        <ele>1867.3</ele>
        <time>2026-07-07T09:22:20Z</time>
      </trkpt>
      <trkpt lat="42.9749" lon="0.29622">
        <ele>1867.3</ele>
        <time>2026-07-07T09:22:21Z</time>
      </trkpt>
      <trkpt lat="42.9749" lon="0.29622">
        <ele>1867.3</ele>
        <time>2026-07-07T09:22:22Z</time>
      </trkpt>
      <trkpt lat="42.9749" lon="0.29622">
        <ele>1867.3</ele>
        <time>2026-07-07T09:22:23Z</time>
      </trkpt>
      <trkpt lat="42.9749" lon="0.29622">
        <ele>1867.3</ele>
        <time>2026-07-07T09:22:24Z</time>
      </trkpt>
      <trkpt lat="42.9749" lon="0.29622">
        <ele>1867.3</ele>
        <time>2026-07-07T09:22:25Z</time>
      </trkpt>
      <trkpt lat="42.9749" lon="0.29622">
        <ele>1867.3</ele>
        <time>2026-07-07T09:22:26Z</time>
      </trkpt>
      <trkpt lat="42.9749" lon="0.29622">
        <ele>1867.3</ele>
        <time>2026-07-07T09:22:27Z</time>
      </trkpt>
      <trkpt lat="42.9749" lon="0.29622">
        <ele>1867.3</ele>
        <time>2026-07-07T09:22:28Z</time>
      </trkpt>
      <trkpt lat="42.9749" lon="0.29622">
        <ele>1867.3</ele>
        <time>2026-07-07T09:22:29Z</time>
      </trkpt>
      <trkpt lat="42.9749" lon="0.29622">
        <ele>1867.3</ele>
        <time>2026-07-07T09:22:30Z</time>
      </trkpt>
      <trkpt lat="42.9749" lon="0.29622">
        <ele>1867.3</ele>
        <time>2026-07-07T09:22:31Z</time>
      </trkpt>
      <trkpt lat="42.9749" lon="0.29622">
        <ele>1867.3</ele>
        <time>2026-07-07T09:22:32Z</time>
      </trkpt>
      <trkpt lat="42.9749" lon="0.29622">
        <ele>1867.3</ele>
        <time>2026-07-07T09:22:33Z</time>
      </trkpt>
      <trkpt lat="42.9749" lon="0.29622">
        <ele>1867.3</ele>
        <time>2026-07-07T09:22:34Z</time>
      </trkpt>
      <trkpt lat="42.9749" lon="0.29622">
        <ele>1867.3</ele>
        <time>2026-07-07T09:22:35Z</time>
      </trkpt>
      <trkpt lat="42.9749" lon="0.29622">
        <ele>1867.3</ele>
        <time>2026-07-07T09:22:36Z</time>
      </trkpt>
      <trkpt lat="42.9749" lon="0.29622">
        <ele>1867.3</ele>
        <time>2026-07-07T09:22:37Z</time>
      </trkpt>
      <trkpt lat="42.9749" lon="0.29622">
        <ele>1867.3</ele>
        <time>2026-07-07T09:22:38Z</time>
      </trkpt>
      <trkpt lat="42.9749" lon="0.29621">
        <ele>1867.3</ele>
        <time>2026-07-07T09:22:39Z</time>
      </trkpt>
      <trkpt lat="42.9749" lon="0.29621">
        <ele>1867.3</ele>
        <time>2026-07-07T09:22:40Z</time>
      </trkpt>
      <trkpt lat="42.9749" lon="0.29621">
        <ele>1867.3</ele>
        <time>2026-07-07T09:22:41Z</time>
      </trkpt>
      <trkpt lat="42.9749" lon="0.29621">
        <ele>1867.3</ele>
        <time>2026-07-07T09:22:42Z</time>
      </trkpt>
      <trkpt lat="42.9749" lon="0.29621">
        <ele>1867.3</ele>
        <time>2026-07-07T09:22:43Z</time>
      </trkpt>
      <trkpt lat="42.9749" lon="0.29621">
        <ele>1867.3</ele>
        <time>2026-07-07T09:22:44Z</time>
      </trkpt>
      <trkpt lat="42.9749" lon="0.29621">
        <ele>1867.3</ele>
        <time>2026-07-07T09:22:45Z</time>
      </trkpt>
      <trkpt lat="42.9749" lon="0.29621">
        <ele>1867.3</ele>
        <time>2026-07-07T09:22:46Z</time>
      </trkpt>
      <trkpt lat="42.97489" lon="0.29621">
        <ele>1867.3</ele>
        <time>2026-07-07T09:22:47Z</time>
      </trkpt>
      <trkpt lat="42.97489" lon="0.29622">
        <ele>1867.3</ele>
        <time>2026-07-07T09:22:48Z</time>
      </trkpt>
      <trkpt lat="42.97489" lon="0.29622">
        <ele>1866.3</ele>
        <time>2026-07-07T09:22:49Z</time>
      </trkpt>
      <trkpt lat="42.97488" lon="0.29621">
        <ele>1867.3</ele>
        <time>2026-07-07T09:22:50Z</time>
      </trkpt>
      <trkpt lat="42.97488" lon="0.29621">
        <ele>1867.3</ele>
        <time>2026-07-07T09:22:51Z</time>
      </trkpt>
      <trkpt lat="42.97488" lon="0.29621">
        <ele>1867.3</ele>
        <time>2026-07-07T09:22:52Z</time>
      </trkpt>
      <trkpt lat="42.97488" lon="0.2962">
        <ele>1867.3</ele>
        <time>2026-07-07T09:22:53Z</time>
      </trkpt>
      <trkpt lat="42.97488" lon="0.2962">
        <ele>1867.3</ele>
        <time>2026-07-07T09:22:54Z</time>
      </trkpt>
      <trkpt lat="42.97488" lon="0.2962">
        <ele>1867.3</ele>
        <time>2026-07-07T09:22:55Z</time>
      </trkpt>
      <trkpt lat="42.97487" lon="0.29621">
        <ele>1867.3</ele>
        <time>2026-07-07T09:22:55Z</time>
      </trkpt>
      <trkpt lat="42.97488" lon="0.2962">
        <ele>1866.3</ele>
        <time>2026-07-07T09:22:56Z</time>
      </trkpt>
      <trkpt lat="42.97488" lon="0.2962">
        <ele>1866.3</ele>
        <time>2026-07-07T09:22:57Z</time>
      </trkpt>
      <trkpt lat="42.97488" lon="0.2962">
        <ele>1865.3</ele>
        <time>2026-07-07T09:22:58Z</time>
      </trkpt>
      <trkpt lat="42.97488" lon="0.29621">
        <ele>1865.3</ele>
        <time>2026-07-07T09:22:59Z</time>
      </trkpt>
      <trkpt lat="42.97488" lon="0.29621">
        <ele>1865.3</ele>
        <time>2026-07-07T09:23:00Z</time>
      </trkpt>
      <trkpt lat="42.97489" lon="0.29621">
        <ele>1865.3</ele>
        <time>2026-07-07T09:23:01Z</time>
      </trkpt>
      <trkpt lat="42.97489" lon="0.29621">
        <ele>1865.3</ele>
        <time>2026-07-07T09:23:02Z</time>
      </trkpt>
      <trkpt lat="42.97489" lon="0.29621">
        <ele>1865.3</ele>
        <time>2026-07-07T09:23:03Z</time>
      </trkpt>
      <trkpt lat="42.97489" lon="0.29621">
        <ele>1865.3</ele>
        <time>2026-07-07T09:23:04Z</time>
      </trkpt>
      <trkpt lat="42.97489" lon="0.29621">
        <ele>1865.3</ele>
        <time>2026-07-07T09:23:05Z</time>
      </trkpt>
      <trkpt lat="42.97489" lon="0.29621">
        <ele>1865.3</ele>
        <time>2026-07-07T09:23:06Z</time>
      </trkpt>
      <trkpt lat="42.97489" lon="0.29621">
        <ele>1865.3</ele>
        <time>2026-07-07T09:23:07Z</time>
      </trkpt>
      <trkpt lat="42.97489" lon="0.29621">
        <ele>1865.3</ele>
        <time>2026-07-07T09:23:08Z</time>
      </trkpt>
      <trkpt lat="42.97489" lon="0.29621">
        <ele>1865.3</ele>
        <time>2026-07-07T09:23:09Z</time>
      </trkpt>
      <trkpt lat="42.97489" lon="0.29621">
        <ele>1865.3</ele>
        <time>2026-07-07T09:23:10Z</time>
      </trkpt>
      <trkpt lat="42.97489" lon="0.29621">
        <ele>1865.3</ele>
        <time>2026-07-07T09:23:11Z</time>
      </trkpt>
      <trkpt lat="42.97489" lon="0.29621">
        <ele>1865.3</ele>
        <time>2026-07-07T09:23:12Z</time>
      </trkpt>
      <trkpt lat="42.97489" lon="0.29621">
        <ele>1865.3</ele>
        <time>2026-07-07T09:23:13Z</time>
      </trkpt>
      <trkpt lat="42.97489" lon="0.29621">
        <ele>1865.3</ele>
        <time>2026-07-07T09:23:14Z</time>
      </trkpt>
      <trkpt lat="42.9749" lon="0.29621">
        <ele>1865.3</ele>
        <time>2026-07-07T09:23:15Z</time>
      </trkpt>
      <trkpt lat="42.9749" lon="0.29621">
        <ele>1865.3</ele>
        <time>2026-07-07T09:23:16Z</time>
      </trkpt>
      <trkpt lat="42.9749" lon="0.29621">
        <ele>1865.3</ele>
        <time>2026-07-07T09:23:17Z</time>
      </trkpt>
      <trkpt lat="42.9749" lon="0.29621">
        <ele>1865.3</ele>
        <time>2026-07-07T09:23:18Z</time>
      </trkpt>
      <trkpt lat="42.9749" lon="0.29621">
        <ele>1865.3</ele>
        <time>2026-07-07T09:23:19Z</time>
      </trkpt>
      <trkpt lat="42.9749" lon="0.29621">
        <ele>1865.3</ele>
        <time>2026-07-07T09:23:20Z</time>
      </trkpt>
      <trkpt lat="42.9749" lon="0.29621">
        <ele>1865.3</ele>
        <time>2026-07-07T09:23:21Z</time>
      </trkpt>
      <trkpt lat="42.9749" lon="0.29621">
        <ele>1865.3</ele>
        <time>2026-07-07T09:23:22Z</time>
      </trkpt>
      <trkpt lat="42.9749" lon="0.29621">
        <ele>1865.3</ele>
        <time>2026-07-07T09:23:23Z</time>
      </trkpt>
      <trkpt lat="42.9749" lon="0.29621">
        <ele>1865.3</ele>
        <time>2026-07-07T09:23:24Z</time>
      </trkpt>
      <trkpt lat="42.9749" lon="0.29621">
        <ele>1865.3</ele>
        <time>2026-07-07T09:23:25Z</time>
      </trkpt>
      <trkpt lat="42.9749" lon="0.29621">
        <ele>1865.3</ele>
        <time>2026-07-07T09:23:26Z</time>
      </trkpt>
      <trkpt lat="42.9749" lon="0.29621">
        <ele>1865.3</ele>
        <time>2026-07-07T09:23:27Z</time>
      </trkpt>
      <trkpt lat="42.9749" lon="0.29621">
        <ele>1865.3</ele>
        <time>2026-07-07T09:23:28Z</time>
      </trkpt>
      <trkpt lat="42.9749" lon="0.29621">
        <ele>1865.3</ele>
        <time>2026-07-07T09:23:29Z</time>
      </trkpt>
      <trkpt lat="42.9749" lon="0.29621">
        <ele>1865.3</ele>
        <time>2026-07-07T09:23:30Z</time>
      </trkpt>
      <trkpt lat="42.9749" lon="0.29621">
        <ele>1865.3</ele>
        <time>2026-07-07T09:23:31Z</time>
      </trkpt>
      <trkpt lat="42.9749" lon="0.29621">
        <ele>1865.3</ele>
        <time>2026-07-07T09:23:32Z</time>
      </trkpt>
      <trkpt lat="42.9749" lon="0.29621">
        <ele>1865.3</ele>
        <time>2026-07-07T09:23:33Z</time>
      </trkpt>
      <trkpt lat="42.9749" lon="0.29621">
        <ele>1865.3</ele>
        <time>2026-07-07T09:23:34Z</time>
      </trkpt>
      <trkpt lat="42.9749" lon="0.29621">
        <ele>1865.3</ele>
        <time>2026-07-07T09:23:35Z</time>
      </trkpt>
      <trkpt lat="42.9749" lon="0.29621">
        <ele>1865.3</ele>
        <time>2026-07-07T09:23:36Z</time>
      </trkpt>
      <trkpt lat="42.9749" lon="0.29621">
        <ele>1865.3</ele>
        <time>2026-07-07T09:23:37Z</time>
      </trkpt>
      <trkpt lat="42.9749" lon="0.29621">
        <ele>1865.3</ele>
        <time>2026-07-07T09:23:38Z</time>
      </trkpt>
      <trkpt lat="42.9749" lon="0.29621">
        <ele>1865.3</ele>
        <time>2026-07-07T09:23:39Z</time>
      </trkpt>
      <trkpt lat="42.9749" lon="0.29621">
        <ele>1865.3</ele>
        <time>2026-07-07T09:23:40Z</time>
      </trkpt>
      <trkpt lat="42.9749" lon="0.29621">
        <ele>1865.3</ele>
        <time>2026-07-07T09:23:41Z</time>
      </trkpt>
      <trkpt lat="42.9749" lon="0.29621">
        <ele>1865.3</ele>
        <time>2026-07-07T09:23:42Z</time>
      </trkpt>
      <trkpt lat="42.9749" lon="0.29621">
        <ele>1865.3</ele>
        <time>2026-07-07T09:23:43Z</time>
      </trkpt>
      <trkpt lat="42.9749" lon="0.29621">
        <ele>1865.3</ele>
        <time>2026-07-07T09:23:44Z</time>
      </trkpt>
      <trkpt lat="42.9749" lon="0.29621">
        <ele>1865.3</ele>
        <time>2026-07-07T09:23:45Z</time>
      </trkpt>
      <trkpt lat="42.9749" lon="0.29621">
        <ele>1865.3</ele>
        <time>2026-07-07T09:23:46Z</time>
      </trkpt>
      <trkpt lat="42.9749" lon="0.29621">
        <ele>1865.3</ele>
        <time>2026-07-07T09:23:47Z</time>
      </trkpt>
      <trkpt lat="42.9749" lon="0.29621">
        <ele>1865.3</ele>
        <time>2026-07-07T09:23:48Z</time>
      </trkpt>
      <trkpt lat="42.9749" lon="0.29621">
        <ele>1865.3</ele>
        <time>2026-07-07T09:23:49Z</time>
      </trkpt>
      <trkpt lat="42.9749" lon="0.29621">
        <ele>1865.3</ele>
        <time>2026-07-07T09:23:50Z</time>
      </trkpt>
      <trkpt lat="42.9749" lon="0.29621">
        <ele>1865.3</ele>
        <time>2026-07-07T09:23:51Z</time>
      </trkpt>
      <trkpt lat="42.9749" lon="0.29621">
        <ele>1865.3</ele>
        <time>2026-07-07T09:23:52Z</time>
      </trkpt>
      <trkpt lat="42.9749" lon="0.29621">
        <ele>1865.3</ele>
        <time>2026-07-07T09:23:53Z</time>
      </trkpt>
      <trkpt lat="42.9749" lon="0.29621">
        <ele>1865.3</ele>
        <time>2026-07-07T09:23:54Z</time>
      </trkpt>
      <trkpt lat="42.9749" lon="0.29621">
        <ele>1865.3</ele>
        <time>2026-07-07T09:23:55Z</time>
      </trkpt>
      <trkpt lat="42.9749" lon="0.29621">
        <ele>1865.3</ele>
        <time>2026-07-07T09:23:56Z</time>
      </trkpt>
      <trkpt lat="42.9749" lon="0.29621">
        <ele>1865.3</ele>
        <time>2026-07-07T09:23:57Z</time>
      </trkpt>
      <trkpt lat="42.9749" lon="0.29621">
        <ele>1865.3</ele>
        <time>2026-07-07T09:23:58Z</time>
      </trkpt>
      <trkpt lat="42.9749" lon="0.29621">
        <ele>1865.3</ele>
        <time>2026-07-07T09:23:59Z</time>
      </trkpt>
      <trkpt lat="42.9749" lon="0.29621">
        <ele>1865.3</ele>
        <time>2026-07-07T09:24:00Z</time>
      </trkpt>
      <trkpt lat="42.9749" lon="0.29621">
        <ele>1865.3</ele>
        <time>2026-07-07T09:24:01Z</time>
      </trkpt>
      <trkpt lat="42.9749" lon="0.29621">
        <ele>1865.3</ele>
        <time>2026-07-07T09:24:02Z</time>
      </trkpt>
      <trkpt lat="42.9749" lon="0.29621">
        <ele>1865.3</ele>
        <time>2026-07-07T09:24:03Z</time>
      </trkpt>
      <trkpt lat="42.9749" lon="0.29621">
        <ele>1865.3</ele>
        <time>2026-07-07T09:24:04Z</time>
      </trkpt>
      <trkpt lat="42.9749" lon="0.29621">
        <ele>1865.3</ele>
        <time>2026-07-07T09:24:05Z</time>
      </trkpt>
      <trkpt lat="42.9749" lon="0.29621">
        <ele>1865.3</ele>
        <time>2026-07-07T09:24:06Z</time>
      </trkpt>
      <trkpt lat="42.9749" lon="0.29621">
        <ele>1865.3</ele>
        <time>2026-07-07T09:24:07Z</time>
      </trkpt>
      <trkpt lat="42.9749" lon="0.29621">
        <ele>1865.3</ele>
        <time>2026-07-07T09:24:08Z</time>
      </trkpt>
      <trkpt lat="42.9749" lon="0.29621">
        <ele>1865.3</ele>
        <time>2026-07-07T09:24:09Z</time>
      </trkpt>
      <trkpt lat="42.9749" lon="0.29621">
        <ele>1865.3</ele>
        <time>2026-07-07T09:24:10Z</time>
      </trkpt>
      <trkpt lat="42.9749" lon="0.29621">
        <ele>1865.3</ele>
        <time>2026-07-07T09:24:11Z</time>
      </trkpt>
      <trkpt lat="42.9749" lon="0.29621">
        <ele>1865.3</ele>
        <time>2026-07-07T09:24:12Z</time>
      </trkpt>
      <trkpt lat="42.9749" lon="0.29621">
        <ele>1865.3</ele>
        <time>2026-07-07T09:24:13Z</time>
      </trkpt>
      <trkpt lat="42.9749" lon="0.29621">
        <ele>1865.3</ele>
        <time>2026-07-07T09:24:14Z</time>
      </trkpt>
      <trkpt lat="42.9749" lon="0.29621">
        <ele>1865.3</ele>
        <time>2026-07-07T09:24:15Z</time>
      </trkpt>
      <trkpt lat="42.9749" lon="0.29621">
        <ele>1865.3</ele>
        <time>2026-07-07T09:24:16Z</time>
      </trkpt>
      <trkpt lat="42.9749" lon="0.29621">
        <ele>1866.3</ele>
        <time>2026-07-07T09:24:17Z</time>
      </trkpt>
      <trkpt lat="42.97489" lon="0.29621">
        <ele>1866.3</ele>
        <time>2026-07-07T09:24:18Z</time>
      </trkpt>
      <trkpt lat="42.97489" lon="0.29621">
        <ele>1866.3</ele>
        <time>2026-07-07T09:24:18Z</time>
      </trkpt>
      <trkpt lat="42.97489" lon="0.29621">
        <ele>1866.3</ele>
        <time>2026-07-07T09:24:19Z</time>
      </trkpt>
      <trkpt lat="42.97489" lon="0.29621">
        <ele>1866.3</ele>
        <time>2026-07-07T09:24:20Z</time>
      </trkpt>
      <trkpt lat="42.9749" lon="0.29621">
        <ele>1866.3</ele>
        <time>2026-07-07T09:24:20Z</time>
      </trkpt>
      <trkpt lat="42.9749" lon="0.29621">
        <ele>1866.3</ele>
        <time>2026-07-07T09:24:21Z</time>
      </trkpt>
      <trkpt lat="42.9749" lon="0.29621">
        <ele>1866.3</ele>
        <time>2026-07-07T09:24:22Z</time>
      </trkpt>
      <trkpt lat="42.9749" lon="0.29621">
        <ele>1866.3</ele>
        <time>2026-07-07T09:24:23Z</time>
      </trkpt>
      <trkpt lat="42.9749" lon="0.29621">
        <ele>1866.3</ele>
        <time>2026-07-07T09:24:24Z</time>
      </trkpt>
      <trkpt lat="42.9749" lon="0.29621">
        <ele>1866.3</ele>
        <time>2026-07-07T09:24:25Z</time>
      </trkpt>
      <trkpt lat="42.9749" lon="0.29621">
        <ele>1866.3</ele>
        <time>2026-07-07T09:24:26Z</time>
      </trkpt>
      <trkpt lat="42.9749" lon="0.29621">
        <ele>1866.3</ele>
        <time>2026-07-07T09:24:27Z</time>
      </trkpt>
      <trkpt lat="42.9749" lon="0.29621">
        <ele>1866.3</ele>
        <time>2026-07-07T09:24:28Z</time>
      </trkpt>
      <trkpt lat="42.9749" lon="0.2962">
        <ele>1865.3</ele>
        <time>2026-07-07T09:24:29Z</time>
      </trkpt>
      <trkpt lat="42.9749" lon="0.2962">
        <ele>1864.3</ele>
        <time>2026-07-07T09:24:30Z</time>
      </trkpt>
      <trkpt lat="42.97489" lon="0.2962">
        <ele>1865.3</ele>
        <time>2026-07-07T09:24:31Z</time>
      </trkpt>
      <trkpt lat="42.9749" lon="0.2962">
        <ele>1865.3</ele>
        <time>2026-07-07T09:24:32Z</time>
      </trkpt>
      <trkpt lat="42.9749" lon="0.2962">
        <ele>1865.3</ele>
        <time>2026-07-07T09:24:33Z</time>
      </trkpt>
      <trkpt lat="42.9749" lon="0.2962">
        <ele>1865.3</ele>
        <time>2026-07-07T09:24:34Z</time>
      </trkpt>
      <trkpt lat="42.9749" lon="0.2962">
        <ele>1865.3</ele>
        <time>2026-07-07T09:24:35Z</time>
      </trkpt>
      <trkpt lat="42.9749" lon="0.2962">
        <ele>1865.3</ele>
        <time>2026-07-07T09:24:36Z</time>
      </trkpt>
      <trkpt lat="42.9749" lon="0.29619">
        <ele>1865.3</ele>
        <time>2026-07-07T09:24:37Z</time>
      </trkpt>
      <trkpt lat="42.9749" lon="0.29619">
        <ele>1866.3</ele>
        <time>2026-07-07T09:24:38Z</time>
      </trkpt>
      <trkpt lat="42.9749" lon="0.29619">
        <ele>1866.3</ele>
        <time>2026-07-07T09:24:39Z</time>
      </trkpt>
      <trkpt lat="42.9749" lon="0.29619">
        <ele>1865.3</ele>
        <time>2026-07-07T09:24:40Z</time>
      </trkpt>
      <trkpt lat="42.9749" lon="0.29619">
        <ele>1865.3</ele>
        <time>2026-07-07T09:24:41Z</time>
      </trkpt>
      <trkpt lat="42.9749" lon="0.29619">
        <ele>1865.3</ele>
        <time>2026-07-07T09:24:42Z</time>
      </trkpt>
      <trkpt lat="42.9749" lon="0.29619">
        <ele>1865.3</ele>
        <time>2026-07-07T09:24:42Z</time>
      </trkpt>
      <trkpt lat="42.9749" lon="0.29619">
        <ele>1865.3</ele>
        <time>2026-07-07T09:24:43Z</time>
      </trkpt>
      <trkpt lat="42.9749" lon="0.29619">
        <ele>1865.3</ele>
        <time>2026-07-07T09:24:44Z</time>
      </trkpt>
      <trkpt lat="42.9749" lon="0.29619">
        <ele>1864.3</ele>
        <time>2026-07-07T09:24:44Z</time>
      </trkpt>
      <trkpt lat="42.9749" lon="0.29619">
        <ele>1864.3</ele>
        <time>2026-07-07T09:24:45Z</time>
      </trkpt>
      <trkpt lat="42.9749" lon="0.29619">
        <ele>1864.3</ele>
        <time>2026-07-07T09:24:46Z</time>
      </trkpt>
      <trkpt lat="42.9749" lon="0.29619">
        <ele>1863.3</ele>
        <time>2026-07-07T09:24:47Z</time>
      </trkpt>
      <trkpt lat="42.97491" lon="0.29619">
        <ele>1864.3</ele>
        <time>2026-07-07T09:24:48Z</time>
      </trkpt>
      <trkpt lat="42.97491" lon="0.29619">
        <ele>1864.3</ele>
        <time>2026-07-07T09:24:49Z</time>
      </trkpt>
      <trkpt lat="42.97491" lon="0.29618">
        <ele>1864.3</ele>
        <time>2026-07-07T09:24:50Z</time>
      </trkpt>
      <trkpt lat="42.97491" lon="0.29618">
        <ele>1864.3</ele>
        <time>2026-07-07T09:24:51Z</time>
      </trkpt>
      <trkpt lat="42.97491" lon="0.29618">
        <ele>1864.3</ele>
        <time>2026-07-07T09:24:52Z</time>
      </trkpt>
      <trkpt lat="42.97491" lon="0.29618">
        <ele>1864.3</ele>
        <time>2026-07-07T09:24:53Z</time>
      </trkpt>
      <trkpt lat="42.97491" lon="0.29617">
        <ele>1864.3</ele>
        <time>2026-07-07T09:24:54Z</time>
      </trkpt>
      <trkpt lat="42.97491" lon="0.29617">
        <ele>1864.3</ele>
        <time>2026-07-07T09:24:54Z</time>
      </trkpt>
      <trkpt lat="42.97491" lon="0.29617">
        <ele>1864.3</ele>
        <time>2026-07-07T09:24:55Z</time>
      </trkpt>
      <trkpt lat="42.97491" lon="0.29617">
        <ele>1864.3</ele>
        <time>2026-07-07T09:24:55Z</time>
      </trkpt>
      <trkpt lat="42.97491" lon="0.29617">
        <ele>1864.3</ele>
        <time>2026-07-07T09:24:56Z</time>
      </trkpt>
      <trkpt lat="42.97491" lon="0.29617">
        <ele>1864.3</ele>
        <time>2026-07-07T09:24:57Z</time>
      </trkpt>
      <trkpt lat="42.9749" lon="0.29617">
        <ele>1864.3</ele>
        <time>2026-07-07T09:24:58Z</time>
      </trkpt>
      <trkpt lat="42.9749" lon="0.29617">
        <ele>1864.3</ele>
        <time>2026-07-07T09:24:58Z</time>
      </trkpt>
      <trkpt lat="42.9749" lon="0.29617">
        <ele>1864.3</ele>
        <time>2026-07-07T09:24:59Z</time>
      </trkpt>
      <trkpt lat="42.97489" lon="0.29617">
        <ele>1863.3</ele>
        <time>2026-07-07T09:25:00Z</time>
      </trkpt>
      <trkpt lat="42.97489" lon="0.29617">
        <ele>1863.3</ele>
        <time>2026-07-07T09:25:01Z</time>
      </trkpt>
      <trkpt lat="42.97489" lon="0.29617">
        <ele>1863.3</ele>
        <time>2026-07-07T09:25:02Z</time>
      </trkpt>
      <trkpt lat="42.97489" lon="0.29617">
        <ele>1863.3</ele>
        <time>2026-07-07T09:25:02Z</time>
      </trkpt>
      <trkpt lat="42.97488" lon="0.29617">
        <ele>1862.3</ele>
        <time>2026-07-07T09:25:03Z</time>
      </trkpt>
      <trkpt lat="42.97488" lon="0.29617">
        <ele>1862.3</ele>
        <time>2026-07-07T09:25:04Z</time>
      </trkpt>
      <trkpt lat="42.97488" lon="0.29617">
        <ele>1862.3</ele>
        <time>2026-07-07T09:25:05Z</time>
      </trkpt>
      <trkpt lat="42.97488" lon="0.29617">
        <ele>1863.3</ele>
        <time>2026-07-07T09:25:05Z</time>
      </trkpt>
      <trkpt lat="42.97488" lon="0.29617">
        <ele>1863.3</ele>
        <time>2026-07-07T09:25:06Z</time>
      </trkpt>
      <trkpt lat="42.97488" lon="0.29617">
        <ele>1863.3</ele>
        <time>2026-07-07T09:25:07Z</time>
      </trkpt>
      <trkpt lat="42.97488" lon="0.29617">
        <ele>1863.3</ele>
        <time>2026-07-07T09:25:08Z</time>
      </trkpt>
      <trkpt lat="42.97488" lon="0.29617">
        <ele>1862.3</ele>
        <time>2026-07-07T09:25:09Z</time>
      </trkpt>
      <trkpt lat="42.97488" lon="0.29617">
        <ele>1861.3</ele>
        <time>2026-07-07T09:25:10Z</time>
      </trkpt>
      <trkpt lat="42.97488" lon="0.29617">
        <ele>1862.3</ele>
        <time>2026-07-07T09:25:11Z</time>
      </trkpt>
      <trkpt lat="42.97488" lon="0.29617">
        <ele>1862.3</ele>
        <time>2026-07-07T09:25:12Z</time>
      </trkpt>
      <trkpt lat="42.97488" lon="0.29617">
        <ele>1862.3</ele>
        <time>2026-07-07T09:25:13Z</time>
      </trkpt>
      <trkpt lat="42.97488" lon="0.29617">
        <ele>1862.3</ele>
        <time>2026-07-07T09:25:14Z</time>
      </trkpt>
      <trkpt lat="42.97488" lon="0.29617">
        <ele>1862.3</ele>
        <time>2026-07-07T09:25:15Z</time>
      </trkpt>
      <trkpt lat="42.97488" lon="0.29617">
        <ele>1862.3</ele>
        <time>2026-07-07T09:25:16Z</time>
      </trkpt>
      <trkpt lat="42.97489" lon="0.29618">
        <ele>1862.3</ele>
        <time>2026-07-07T09:25:17Z</time>
      </trkpt>
      <trkpt lat="42.97489" lon="0.29618">
        <ele>1862.3</ele>
        <time>2026-07-07T09:25:18Z</time>
      </trkpt>
      <trkpt lat="42.97489" lon="0.29618">
        <ele>1862.3</ele>
        <time>2026-07-07T09:25:19Z</time>
      </trkpt>
      <trkpt lat="42.97489" lon="0.29618">
        <ele>1862.3</ele>
        <time>2026-07-07T09:25:20Z</time>
      </trkpt>
      <trkpt lat="42.97489" lon="0.29618">
        <ele>1862.3</ele>
        <time>2026-07-07T09:25:21Z</time>
      </trkpt>
      <trkpt lat="42.97489" lon="0.29618">
        <ele>1862.3</ele>
        <time>2026-07-07T09:25:22Z</time>
      </trkpt>
      <trkpt lat="42.97489" lon="0.29618">
        <ele>1862.3</ele>
        <time>2026-07-07T09:25:23Z</time>
      </trkpt>
      <trkpt lat="42.97489" lon="0.29618">
        <ele>1862.3</ele>
        <time>2026-07-07T09:25:24Z</time>
      </trkpt>
      <trkpt lat="42.97489" lon="0.29618">
        <ele>1862.3</ele>
        <time>2026-07-07T09:25:24Z</time>
      </trkpt>
      <trkpt lat="42.97489" lon="0.29618">
        <ele>1862.3</ele>
        <time>2026-07-07T09:25:25Z</time>
      </trkpt>
      <trkpt lat="42.97489" lon="0.29618">
        <ele>1862.3</ele>
        <time>2026-07-07T09:25:26Z</time>
      </trkpt>
      <trkpt lat="42.97489" lon="0.29618">
        <ele>1862.3</ele>
        <time>2026-07-07T09:25:27Z</time>
      </trkpt>
      <trkpt lat="42.97489" lon="0.29617">
        <ele>1862.3</ele>
        <time>2026-07-07T09:25:28Z</time>
      </trkpt>
      <trkpt lat="42.97489" lon="0.29617">
        <ele>1862.3</ele>
        <time>2026-07-07T09:25:29Z</time>
      </trkpt>
      <trkpt lat="42.97489" lon="0.29617">
        <ele>1862.3</ele>
        <time>2026-07-07T09:25:30Z</time>
      </trkpt>
      <trkpt lat="42.97489" lon="0.29617">
        <ele>1862.3</ele>
        <time>2026-07-07T09:25:31Z</time>
      </trkpt>
      <trkpt lat="42.97489" lon="0.29617">
        <ele>1862.3</ele>
        <time>2026-07-07T09:25:32Z</time>
      </trkpt>
      <trkpt lat="42.97488" lon="0.29617">
        <ele>1862.3</ele>
        <time>2026-07-07T09:25:33Z</time>
      </trkpt>
      <trkpt lat="42.97488" lon="0.29617">
        <ele>1862.3</ele>
        <time>2026-07-07T09:25:34Z</time>
      </trkpt>
      <trkpt lat="42.97488" lon="0.29617">
        <ele>1862.3</ele>
        <time>2026-07-07T09:25:35Z</time>
      </trkpt>
      <trkpt lat="42.97488" lon="0.29617">
        <ele>1862.3</ele>
        <time>2026-07-07T09:25:36Z</time>
      </trkpt>
      <trkpt lat="42.97488" lon="0.29617">
        <ele>1862.3</ele>
        <time>2026-07-07T09:25:37Z</time>
      </trkpt>
      <trkpt lat="42.97488" lon="0.29617">
        <ele>1862.3</ele>
        <time>2026-07-07T09:25:38Z</time>
      </trkpt>
      <trkpt lat="42.97488" lon="0.29617">
        <ele>1862.3</ele>
        <time>2026-07-07T09:25:39Z</time>
      </trkpt>
      <trkpt lat="42.97488" lon="0.29617">
        <ele>1863.3</ele>
        <time>2026-07-07T09:25:40Z</time>
      </trkpt>
      <trkpt lat="42.97488" lon="0.29617">
        <ele>1863.3</ele>
        <time>2026-07-07T09:25:41Z</time>
      </trkpt>
      <trkpt lat="42.97488" lon="0.29617">
        <ele>1863.3</ele>
        <time>2026-07-07T09:25:42Z</time>
      </trkpt>
      <trkpt lat="42.97488" lon="0.29617">
        <ele>1863.3</ele>
        <time>2026-07-07T09:25:43Z</time>
      </trkpt>
      <trkpt lat="42.97488" lon="0.29617">
        <ele>1863.3</ele>
        <time>2026-07-07T09:25:44Z</time>
      </trkpt>
      <trkpt lat="42.97488" lon="0.29617">
        <ele>1863.3</ele>
        <time>2026-07-07T09:25:45Z</time>
      </trkpt>
      <trkpt lat="42.97488" lon="0.29617">
        <ele>1863.3</ele>
        <time>2026-07-07T09:25:46Z</time>
      </trkpt>
      <trkpt lat="42.97488" lon="0.29617">
        <ele>1863.3</ele>
        <time>2026-07-07T09:25:47Z</time>
      </trkpt>
      <trkpt lat="42.97488" lon="0.29617">
        <ele>1862.3</ele>
        <time>2026-07-07T09:25:48Z</time>
      </trkpt>
      <trkpt lat="42.97488" lon="0.29617">
        <ele>1861.3</ele>
        <time>2026-07-07T09:25:49Z</time>
      </trkpt>
      <trkpt lat="42.97488" lon="0.29617">
        <ele>1861.3</ele>
        <time>2026-07-07T09:25:50Z</time>
      </trkpt>
      <trkpt lat="42.97488" lon="0.29617">
        <ele>1861.3</ele>
        <time>2026-07-07T09:25:51Z</time>
      </trkpt>
      <trkpt lat="42.97488" lon="0.29617">
        <ele>1861.3</ele>
        <time>2026-07-07T09:25:51Z</time>
      </trkpt>
      <trkpt lat="42.97488" lon="0.29617">
        <ele>1860.3</ele>
        <time>2026-07-07T09:25:52Z</time>
      </trkpt>
      <trkpt lat="42.97488" lon="0.29617">
        <ele>1860.3</ele>
        <time>2026-07-07T09:25:53Z</time>
      </trkpt>
      <trkpt lat="42.97488" lon="0.29617">
        <ele>1860.3</ele>
        <time>2026-07-07T09:25:54Z</time>
      </trkpt>
      <trkpt lat="42.97488" lon="0.29617">
        <ele>1860.3</ele>
        <time>2026-07-07T09:25:55Z</time>
      </trkpt>
      <trkpt lat="42.97487" lon="0.29617">
        <ele>1860.3</ele>
        <time>2026-07-07T09:25:56Z</time>
      </trkpt>
      <trkpt lat="42.97487" lon="0.29616">
        <ele>1860.3</ele>
        <time>2026-07-07T09:25:57Z</time>
      </trkpt>
      <trkpt lat="42.97487" lon="0.29616">
        <ele>1860.3</ele>
        <time>2026-07-07T09:25:57Z</time>
      </trkpt>
      <trkpt lat="42.97487" lon="0.29616">
        <ele>1860.3</ele>
        <time>2026-07-07T09:25:58Z</time>
      </trkpt>
      <trkpt lat="42.97487" lon="0.29616">
        <ele>1860.3</ele>
        <time>2026-07-07T09:25:59Z</time>
      </trkpt>
      <trkpt lat="42.97486" lon="0.29616">
        <ele>1860.3</ele>
        <time>2026-07-07T09:26:00Z</time>
      </trkpt>
      <trkpt lat="42.97486" lon="0.29615">
        <ele>1860.3</ele>
        <time>2026-07-07T09:26:00Z</time>
      </trkpt>
      <trkpt lat="42.97485" lon="0.29614">
        <ele>1859.3</ele>
        <time>2026-07-07T09:26:01Z</time>
      </trkpt>
      <trkpt lat="42.97484" lon="0.29614">
        <ele>1859.3</ele>
        <time>2026-07-07T09:26:02Z</time>
      </trkpt>
      <trkpt lat="42.97483" lon="0.29613">
        <ele>1859.3</ele>
        <time>2026-07-07T09:26:02Z</time>
      </trkpt>
      <trkpt lat="42.97483" lon="0.29612">
        <ele>1859.3</ele>
        <time>2026-07-07T09:26:03Z</time>
      </trkpt>
      <trkpt lat="42.97481" lon="0.29613">
        <ele>1859.3</ele>
        <time>2026-07-07T09:26:04Z</time>
      </trkpt>
      <trkpt lat="42.9748" lon="0.29612">
        <ele>1860.3</ele>
        <time>2026-07-07T09:26:04Z</time>
      </trkpt>
      <trkpt lat="42.9748" lon="0.29612">
        <ele>1860.3</ele>
        <time>2026-07-07T09:26:05Z</time>
      </trkpt>
      <trkpt lat="42.97479" lon="0.29612">
        <ele>1860.3</ele>
        <time>2026-07-07T09:26:05Z</time>
      </trkpt>
      <trkpt lat="42.97479" lon="0.29612">
        <ele>1860.3</ele>
        <time>2026-07-07T09:26:06Z</time>
      </trkpt>
      <trkpt lat="42.97478" lon="0.29612">
        <ele>1860.3</ele>
        <time>2026-07-07T09:26:06Z</time>
      </trkpt>
      <trkpt lat="42.97478" lon="0.29611">
        <ele>1860.3</ele>
        <time>2026-07-07T09:26:07Z</time>
      </trkpt>
      <trkpt lat="42.97477" lon="0.29612">
        <ele>1860.3</ele>
        <time>2026-07-07T09:26:08Z</time>
      </trkpt>
      <trkpt lat="42.97477" lon="0.29612">
        <ele>1860.3</ele>
        <time>2026-07-07T09:26:09Z</time>
      </trkpt>
      <trkpt lat="42.97477" lon="0.29612">
        <ele>1860.3</ele>
        <time>2026-07-07T09:26:09Z</time>
      </trkpt>
      <trkpt lat="42.97476" lon="0.29612">
        <ele>1860.3</ele>
        <time>2026-07-07T09:26:10Z</time>
      </trkpt>
      <trkpt lat="42.97476" lon="0.29612">
        <ele>1860.3</ele>
        <time>2026-07-07T09:26:11Z</time>
      </trkpt>
      <trkpt lat="42.97475" lon="0.29612">
        <ele>1859.3</ele>
        <time>2026-07-07T09:26:11Z</time>
      </trkpt>
      <trkpt lat="42.97474" lon="0.29612">
        <ele>1859.3</ele>
        <time>2026-07-07T09:26:12Z</time>
      </trkpt>
      <trkpt lat="42.97474" lon="0.29612">
        <ele>1858.3</ele>
        <time>2026-07-07T09:26:12Z</time>
      </trkpt>
      <trkpt lat="42.97473" lon="0.29613">
        <ele>1858.3</ele>
        <time>2026-07-07T09:26:13Z</time>
      </trkpt>
      <trkpt lat="42.97472" lon="0.29613">
        <ele>1858.3</ele>
        <time>2026-07-07T09:26:14Z</time>
      </trkpt>
      <trkpt lat="42.97471" lon="0.29614">
        <ele>1858.3</ele>
        <time>2026-07-07T09:26:15Z</time>
      </trkpt>
      <trkpt lat="42.97471" lon="0.29614">
        <ele>1858.3</ele>
        <time>2026-07-07T09:26:15Z</time>
      </trkpt>
      <trkpt lat="42.9747" lon="0.29615">
        <ele>1858.3</ele>
        <time>2026-07-07T09:26:16Z</time>
      </trkpt>
      <trkpt lat="42.97469" lon="0.29615">
        <ele>1857.3</ele>
        <time>2026-07-07T09:26:17Z</time>
      </trkpt>
      <trkpt lat="42.97469" lon="0.29615">
        <ele>1857.3</ele>
        <time>2026-07-07T09:26:17Z</time>
      </trkpt>
      <trkpt lat="42.97468" lon="0.29615">
        <ele>1857.3</ele>
        <time>2026-07-07T09:26:18Z</time>
      </trkpt>
      <trkpt lat="42.97467" lon="0.29615">
        <ele>1857.3</ele>
        <time>2026-07-07T09:26:18Z</time>
      </trkpt>
      <trkpt lat="42.97467" lon="0.29615">
        <ele>1856.3</ele>
        <time>2026-07-07T09:26:19Z</time>
      </trkpt>
      <trkpt lat="42.97467" lon="0.29615">
        <ele>1856.3</ele>
        <time>2026-07-07T09:26:19Z</time>
      </trkpt>
      <trkpt lat="42.97466" lon="0.29615">
        <ele>1856.3</ele>
        <time>2026-07-07T09:26:20Z</time>
      </trkpt>
      <trkpt lat="42.97465" lon="0.29615">
        <ele>1857.3</ele>
        <time>2026-07-07T09:26:21Z</time>
      </trkpt>
      <trkpt lat="42.97465" lon="0.29615">
        <ele>1856.3</ele>
        <time>2026-07-07T09:26:21Z</time>
      </trkpt>
      <trkpt lat="42.97464" lon="0.29615">
        <ele>1856.3</ele>
        <time>2026-07-07T09:26:22Z</time>
      </trkpt>
      <trkpt lat="42.97464" lon="0.29615">
        <ele>1856.3</ele>
        <time>2026-07-07T09:26:23Z</time>
      </trkpt>
      <trkpt lat="42.97463" lon="0.29616">
        <ele>1857.3</ele>
        <time>2026-07-07T09:26:23Z</time>
      </trkpt>
      <trkpt lat="42.97463" lon="0.29616">
        <ele>1857.3</ele>
        <time>2026-07-07T09:26:24Z</time>
      </trkpt>
      <trkpt lat="42.97462" lon="0.29616">
        <ele>1856.3</ele>
        <time>2026-07-07T09:26:24Z</time>
      </trkpt>
      <trkpt lat="42.97462" lon="0.29616">
        <ele>1856.3</ele>
        <time>2026-07-07T09:26:25Z</time>
      </trkpt>
      <trkpt lat="42.97461" lon="0.29616">
        <ele>1856.3</ele>
        <time>2026-07-07T09:26:26Z</time>
      </trkpt>
      <trkpt lat="42.97461" lon="0.29616">
        <ele>1856.3</ele>
        <time>2026-07-07T09:26:26Z</time>
      </trkpt>
      <trkpt lat="42.9746" lon="0.29616">
        <ele>1856.3</ele>
        <time>2026-07-07T09:26:27Z</time>
      </trkpt>
      <trkpt lat="42.97459" lon="0.29616">
        <ele>1855.3</ele>
        <time>2026-07-07T09:26:28Z</time>
      </trkpt>
      <trkpt lat="42.97459" lon="0.29616">
        <ele>1855.3</ele>
        <time>2026-07-07T09:26:28Z</time>
      </trkpt>
      <trkpt lat="42.97459" lon="0.29616">
        <ele>1855.3</ele>
        <time>2026-07-07T09:26:29Z</time>
      </trkpt>
      <trkpt lat="42.97458" lon="0.29616">
        <ele>1854.3</ele>
        <time>2026-07-07T09:26:29Z</time>
      </trkpt>
      <trkpt lat="42.97458" lon="0.29616">
        <ele>1854.3</ele>
        <time>2026-07-07T09:26:30Z</time>
      </trkpt>
      <trkpt lat="42.97457" lon="0.29616">
        <ele>1854.3</ele>
        <time>2026-07-07T09:26:31Z</time>
      </trkpt>
      <trkpt lat="42.97457" lon="0.29616">
        <ele>1854.3</ele>
        <time>2026-07-07T09:26:31Z</time>
      </trkpt>
      <trkpt lat="42.97456" lon="0.29616">
        <ele>1854.3</ele>
        <time>2026-07-07T09:26:32Z</time>
      </trkpt>
      <trkpt lat="42.97456" lon="0.29617">
        <ele>1854.3</ele>
        <time>2026-07-07T09:26:32Z</time>
      </trkpt>
      <trkpt lat="42.97455" lon="0.29617">
        <ele>1854.3</ele>
        <time>2026-07-07T09:26:33Z</time>
      </trkpt>
      <trkpt lat="42.97455" lon="0.29616">
        <ele>1854.3</ele>
        <time>2026-07-07T09:26:33Z</time>
      </trkpt>
      <trkpt lat="42.97455" lon="0.29616">
        <ele>1854.3</ele>
        <time>2026-07-07T09:26:34Z</time>
      </trkpt>
      <trkpt lat="42.97455" lon="0.29616">
        <ele>1854.3</ele>
        <time>2026-07-07T09:26:34Z</time>
      </trkpt>
      <trkpt lat="42.97454" lon="0.29616">
        <ele>1854.3</ele>
        <time>2026-07-07T09:26:35Z</time>
      </trkpt>
      <trkpt lat="42.97453" lon="0.29616">
        <ele>1854.3</ele>
        <time>2026-07-07T09:26:36Z</time>
      </trkpt>
      <trkpt lat="42.97453" lon="0.29616">
        <ele>1854.3</ele>
        <time>2026-07-07T09:26:37Z</time>
      </trkpt>
      <trkpt lat="42.97452" lon="0.29616">
        <ele>1854.3</ele>
        <time>2026-07-07T09:26:37Z</time>
      </trkpt>
      <trkpt lat="42.97452" lon="0.29616">
        <ele>1854.3</ele>
        <time>2026-07-07T09:26:38Z</time>
      </trkpt>
      <trkpt lat="42.97451" lon="0.29615">
        <ele>1854.3</ele>
        <time>2026-07-07T09:26:39Z</time>
      </trkpt>
      <trkpt lat="42.97451" lon="0.29615">
        <ele>1854.3</ele>
        <time>2026-07-07T09:26:39Z</time>
      </trkpt>
      <trkpt lat="42.97451" lon="0.29615">
        <ele>1854.3</ele>
        <time>2026-07-07T09:26:40Z</time>
      </trkpt>
      <trkpt lat="42.9745" lon="0.29615">
        <ele>1854.3</ele>
        <time>2026-07-07T09:26:40Z</time>
      </trkpt>
      <trkpt lat="42.9745" lon="0.29615">
        <ele>1854.3</ele>
        <time>2026-07-07T09:26:41Z</time>
      </trkpt>
      <trkpt lat="42.9745" lon="0.29615">
        <ele>1854.3</ele>
        <time>2026-07-07T09:26:42Z</time>
      </trkpt>
      <trkpt lat="42.9745" lon="0.29615">
        <ele>1854.3</ele>
        <time>2026-07-07T09:26:42Z</time>
      </trkpt>
      <trkpt lat="42.9745" lon="0.29615">
        <ele>1854.3</ele>
        <time>2026-07-07T09:26:43Z</time>
      </trkpt>
      <trkpt lat="42.97449" lon="0.29615">
        <ele>1854.3</ele>
        <time>2026-07-07T09:26:43Z</time>
      </trkpt>
      <trkpt lat="42.97449" lon="0.29615">
        <ele>1854.3</ele>
        <time>2026-07-07T09:26:44Z</time>
      </trkpt>
      <trkpt lat="42.97449" lon="0.29616">
        <ele>1854.3</ele>
        <time>2026-07-07T09:26:44Z</time>
      </trkpt>
      <trkpt lat="42.97448" lon="0.29616">
        <ele>1854.3</ele>
        <time>2026-07-07T09:26:45Z</time>
      </trkpt>
      <trkpt lat="42.97448" lon="0.29616">
        <ele>1854.3</ele>
        <time>2026-07-07T09:26:46Z</time>
      </trkpt>
      <trkpt lat="42.97447" lon="0.29615">
        <ele>1854.3</ele>
        <time>2026-07-07T09:26:47Z</time>
      </trkpt>
      <trkpt lat="42.97446" lon="0.29616">
        <ele>1853.3</ele>
        <time>2026-07-07T09:26:48Z</time>
      </trkpt>
      <trkpt lat="42.97446" lon="0.29616">
        <ele>1853.3</ele>
        <time>2026-07-07T09:26:48Z</time>
      </trkpt>
      <trkpt lat="42.97445" lon="0.29615">
        <ele>1853.3</ele>
        <time>2026-07-07T09:26:49Z</time>
      </trkpt>
      <trkpt lat="42.97445" lon="0.29615">
        <ele>1852.3</ele>
        <time>2026-07-07T09:26:49Z</time>
      </trkpt>
      <trkpt lat="42.97445" lon="0.29615">
        <ele>1852.3</ele>
        <time>2026-07-07T09:26:50Z</time>
      </trkpt>
      <trkpt lat="42.97444" lon="0.29615">
        <ele>1852.3</ele>
        <time>2026-07-07T09:26:51Z</time>
      </trkpt>
      <trkpt lat="42.97444" lon="0.29615">
        <ele>1852.3</ele>
        <time>2026-07-07T09:26:51Z</time>
      </trkpt>
      <trkpt lat="42.97443" lon="0.29614">
        <ele>1852.3</ele>
        <time>2026-07-07T09:26:52Z</time>
      </trkpt>
      <trkpt lat="42.97443" lon="0.29613">
        <ele>1852.3</ele>
        <time>2026-07-07T09:26:53Z</time>
      </trkpt>
      <trkpt lat="42.97442" lon="0.29613">
        <ele>1853.3</ele>
        <time>2026-07-07T09:26:53Z</time>
      </trkpt>
      <trkpt lat="42.97442" lon="0.29613">
        <ele>1852.3</ele>
        <time>2026-07-07T09:26:54Z</time>
      </trkpt>
      <trkpt lat="42.97441" lon="0.29613">
        <ele>1852.3</ele>
        <time>2026-07-07T09:26:55Z</time>
      </trkpt>
      <trkpt lat="42.9744" lon="0.29613">
        <ele>1852.3</ele>
        <time>2026-07-07T09:26:55Z</time>
      </trkpt>
      <trkpt lat="42.97439" lon="0.29614">
        <ele>1852.3</ele>
        <time>2026-07-07T09:26:56Z</time>
      </trkpt>
      <trkpt lat="42.97439" lon="0.29613">
        <ele>1852.3</ele>
        <time>2026-07-07T09:26:57Z</time>
      </trkpt>
      <trkpt lat="42.97438" lon="0.29613">
        <ele>1852.3</ele>
        <time>2026-07-07T09:26:58Z</time>
      </trkpt>
      <trkpt lat="42.97438" lon="0.29612">
        <ele>1852.3</ele>
        <time>2026-07-07T09:26:59Z</time>
      </trkpt>
      <trkpt lat="42.97437" lon="0.29612">
        <ele>1851.3</ele>
        <time>2026-07-07T09:26:59Z</time>
      </trkpt>
      <trkpt lat="42.97437" lon="0.29612">
        <ele>1851.3</ele>
        <time>2026-07-07T09:27:00Z</time>
      </trkpt>
      <trkpt lat="42.97436" lon="0.29612">
        <ele>1851.3</ele>
        <time>2026-07-07T09:27:00Z</time>
      </trkpt>
      <trkpt lat="42.97436" lon="0.29612">
        <ele>1851.3</ele>
        <time>2026-07-07T09:27:01Z</time>
      </trkpt>
      <trkpt lat="42.97436" lon="0.29612">
        <ele>1851.3</ele>
        <time>2026-07-07T09:27:01Z</time>
      </trkpt>
      <trkpt lat="42.97435" lon="0.29613">
        <ele>1851.3</ele>
        <time>2026-07-07T09:27:02Z</time>
      </trkpt>
      <trkpt lat="42.97435" lon="0.29613">
        <ele>1850.3</ele>
        <time>2026-07-07T09:27:03Z</time>
      </trkpt>
      <trkpt lat="42.97434" lon="0.29613">
        <ele>1849.3</ele>
        <time>2026-07-07T09:27:03Z</time>
      </trkpt>
      <trkpt lat="42.97434" lon="0.29614">
        <ele>1849.3</ele>
        <time>2026-07-07T09:27:04Z</time>
      </trkpt>
      <trkpt lat="42.97434" lon="0.29614">
        <ele>1849.3</ele>
        <time>2026-07-07T09:27:05Z</time>
      </trkpt>
      <trkpt lat="42.97434" lon="0.29613">
        <ele>1848.3</ele>
        <time>2026-07-07T09:27:05Z</time>
      </trkpt>
      <trkpt lat="42.97433" lon="0.29613">
        <ele>1848.3</ele>
        <time>2026-07-07T09:27:06Z</time>
      </trkpt>
      <trkpt lat="42.97433" lon="0.29613">
        <ele>1848.3</ele>
        <time>2026-07-07T09:27:06Z</time>
      </trkpt>
      <trkpt lat="42.97433" lon="0.29612">
        <ele>1848.3</ele>
        <time>2026-07-07T09:27:07Z</time>
      </trkpt>
      <trkpt lat="42.97433" lon="0.29612">
        <ele>1848.3</ele>
        <time>2026-07-07T09:27:07Z</time>
      </trkpt>
      <trkpt lat="42.97432" lon="0.29611">
        <ele>1848.3</ele>
        <time>2026-07-07T09:27:08Z</time>
      </trkpt>
      <trkpt lat="42.97432" lon="0.29611">
        <ele>1848.3</ele>
        <time>2026-07-07T09:27:09Z</time>
      </trkpt>
      <trkpt lat="42.97431" lon="0.2961">
        <ele>1847.3</ele>
        <time>2026-07-07T09:27:09Z</time>
      </trkpt>
      <trkpt lat="42.97431" lon="0.2961">
        <ele>1847.3</ele>
        <time>2026-07-07T09:27:10Z</time>
      </trkpt>
      <trkpt lat="42.97431" lon="0.2961">
        <ele>1847.3</ele>
        <time>2026-07-07T09:27:11Z</time>
      </trkpt>
      <trkpt lat="42.9743" lon="0.29609">
        <ele>1847.3</ele>
        <time>2026-07-07T09:27:11Z</time>
      </trkpt>
      <trkpt lat="42.9743" lon="0.29609">
        <ele>1847.3</ele>
        <time>2026-07-07T09:27:12Z</time>
      </trkpt>
      <trkpt lat="42.97429" lon="0.29608">
        <ele>1845.3</ele>
        <time>2026-07-07T09:27:13Z</time>
      </trkpt>
      <trkpt lat="42.97429" lon="0.29608">
        <ele>1845.3</ele>
        <time>2026-07-07T09:27:14Z</time>
      </trkpt>
      <trkpt lat="42.97429" lon="0.29608">
        <ele>1844.3</ele>
        <time>2026-07-07T09:27:15Z</time>
      </trkpt>
      <trkpt lat="42.97428" lon="0.29607">
        <ele>1844.3</ele>
        <time>2026-07-07T09:27:15Z</time>
      </trkpt>
      <trkpt lat="42.97428" lon="0.29608">
        <ele>1844.3</ele>
        <time>2026-07-07T09:27:16Z</time>
      </trkpt>
      <trkpt lat="42.97427" lon="0.29608">
        <ele>1844.3</ele>
        <time>2026-07-07T09:27:16Z</time>
      </trkpt>
      <trkpt lat="42.97427" lon="0.29609">
        <ele>1844.3</ele>
        <time>2026-07-07T09:27:17Z</time>
      </trkpt>
      <trkpt lat="42.97427" lon="0.29611">
        <ele>1844.3</ele>
        <time>2026-07-07T09:27:18Z</time>
      </trkpt>
      <trkpt lat="42.97427" lon="0.29613">
        <ele>1843.3</ele>
        <time>2026-07-07T09:27:19Z</time>
      </trkpt>
      <trkpt lat="42.97426" lon="0.29613">
        <ele>1843.3</ele>
        <time>2026-07-07T09:27:20Z</time>
      </trkpt>
      <trkpt lat="42.97426" lon="0.29613">
        <ele>1843.3</ele>
        <time>2026-07-07T09:27:21Z</time>
      </trkpt>
      <trkpt lat="42.97426" lon="0.29613">
        <ele>1843.3</ele>
        <time>2026-07-07T09:27:21Z</time>
      </trkpt>
      <trkpt lat="42.97425" lon="0.29613">
        <ele>1843.3</ele>
        <time>2026-07-07T09:27:22Z</time>
      </trkpt>
      <trkpt lat="42.97425" lon="0.29612">
        <ele>1842.3</ele>
        <time>2026-07-07T09:27:23Z</time>
      </trkpt>
      <trkpt lat="42.97424" lon="0.29612">
        <ele>1842.3</ele>
        <time>2026-07-07T09:27:23Z</time>
      </trkpt>
      <trkpt lat="42.97423" lon="0.29612">
        <ele>1842.3</ele>
        <time>2026-07-07T09:27:24Z</time>
      </trkpt>
      <trkpt lat="42.97423" lon="0.29611">
        <ele>1842.3</ele>
        <time>2026-07-07T09:27:25Z</time>
      </trkpt>
      <trkpt lat="42.97423" lon="0.29611">
        <ele>1842.3</ele>
        <time>2026-07-07T09:27:25Z</time>
      </trkpt>
      <trkpt lat="42.97422" lon="0.29611">
        <ele>1842.3</ele>
        <time>2026-07-07T09:27:26Z</time>
      </trkpt>
      <trkpt lat="42.97422" lon="0.2961">
        <ele>1843.3</ele>
        <time>2026-07-07T09:27:27Z</time>
      </trkpt>
      <trkpt lat="42.97422" lon="0.2961">
        <ele>1843.3</ele>
        <time>2026-07-07T09:27:27Z</time>
      </trkpt>
      <trkpt lat="42.97422" lon="0.29609">
        <ele>1843.3</ele>
        <time>2026-07-07T09:27:28Z</time>
      </trkpt>
      <trkpt lat="42.97422" lon="0.29609">
        <ele>1843.3</ele>
        <time>2026-07-07T09:27:28Z</time>
      </trkpt>
      <trkpt lat="42.97421" lon="0.29608">
        <ele>1843.3</ele>
        <time>2026-07-07T09:27:29Z</time>
      </trkpt>
      <trkpt lat="42.97421" lon="0.29608">
        <ele>1843.3</ele>
        <time>2026-07-07T09:27:29Z</time>
      </trkpt>
      <trkpt lat="42.9742" lon="0.29608">
        <ele>1843.3</ele>
        <time>2026-07-07T09:27:30Z</time>
      </trkpt>
      <trkpt lat="42.9742" lon="0.29609">
        <ele>1843.3</ele>
        <time>2026-07-07T09:27:31Z</time>
      </trkpt>
      <trkpt lat="42.9742" lon="0.29609">
        <ele>1843.3</ele>
        <time>2026-07-07T09:27:31Z</time>
      </trkpt>
      <trkpt lat="42.97419" lon="0.2961">
        <ele>1842.3</ele>
        <time>2026-07-07T09:27:32Z</time>
      </trkpt>
      <trkpt lat="42.97419" lon="0.2961">
        <ele>1842.3</ele>
        <time>2026-07-07T09:27:32Z</time>
      </trkpt>
      <trkpt lat="42.97418" lon="0.2961">
        <ele>1842.3</ele>
        <time>2026-07-07T09:27:33Z</time>
      </trkpt>
      <trkpt lat="42.97419" lon="0.2961">
        <ele>1842.3</ele>
        <time>2026-07-07T09:27:33Z</time>
      </trkpt>
      <trkpt lat="42.97418" lon="0.2961">
        <ele>1841.3</ele>
        <time>2026-07-07T09:27:34Z</time>
      </trkpt>
      <trkpt lat="42.97417" lon="0.2961">
        <ele>1841.3</ele>
        <time>2026-07-07T09:27:35Z</time>
      </trkpt>
      <trkpt lat="42.97417" lon="0.29609">
        <ele>1841.3</ele>
        <time>2026-07-07T09:27:36Z</time>
      </trkpt>
      <trkpt lat="42.97417" lon="0.29609">
        <ele>1841.3</ele>
        <time>2026-07-07T09:27:36Z</time>
      </trkpt>
      <trkpt lat="42.97417" lon="0.29609">
        <ele>1841.3</ele>
        <time>2026-07-07T09:27:37Z</time>
      </trkpt>
      <trkpt lat="42.97416" lon="0.29608">
        <ele>1841.3</ele>
        <time>2026-07-07T09:27:38Z</time>
      </trkpt>
      <trkpt lat="42.97416" lon="0.29608">
        <ele>1841.3</ele>
        <time>2026-07-07T09:27:38Z</time>
      </trkpt>
      <trkpt lat="42.97415" lon="0.29608">
        <ele>1841.3</ele>
        <time>2026-07-07T09:27:39Z</time>
      </trkpt>
      <trkpt lat="42.97415" lon="0.29608">
        <ele>1840.3</ele>
        <time>2026-07-07T09:27:39Z</time>
      </trkpt>
      <trkpt lat="42.97415" lon="0.29608">
        <ele>1840.3</ele>
        <time>2026-07-07T09:27:40Z</time>
      </trkpt>
      <trkpt lat="42.97415" lon="0.29608">
        <ele>1839.3</ele>
        <time>2026-07-07T09:27:40Z</time>
      </trkpt>
      <trkpt lat="42.97414" lon="0.29608">
        <ele>1839.3</ele>
        <time>2026-07-07T09:27:41Z</time>
      </trkpt>
      <trkpt lat="42.97413" lon="0.29607">
        <ele>1839.3</ele>
        <time>2026-07-07T09:27:42Z</time>
      </trkpt>
      <trkpt lat="42.97413" lon="0.29607">
        <ele>1839.3</ele>
        <time>2026-07-07T09:27:43Z</time>
      </trkpt>
      <trkpt lat="42.97413" lon="0.29607">
        <ele>1839.3</ele>
        <time>2026-07-07T09:27:44Z</time>
      </trkpt>
      <trkpt lat="42.97412" lon="0.29607">
        <ele>1839.3</ele>
        <time>2026-07-07T09:27:44Z</time>
      </trkpt>
      <trkpt lat="42.97412" lon="0.29607">
        <ele>1839.3</ele>
        <time>2026-07-07T09:27:45Z</time>
      </trkpt>
      <trkpt lat="42.97412" lon="0.29606">
        <ele>1839.3</ele>
        <time>2026-07-07T09:27:45Z</time>
      </trkpt>
      <trkpt lat="42.97411" lon="0.29605">
        <ele>1839.3</ele>
        <time>2026-07-07T09:27:46Z</time>
      </trkpt>
      <trkpt lat="42.9741" lon="0.29604">
        <ele>1839.3</ele>
        <time>2026-07-07T09:27:47Z</time>
      </trkpt>
      <trkpt lat="42.9741" lon="0.29604">
        <ele>1839.3</ele>
        <time>2026-07-07T09:27:48Z</time>
      </trkpt>
      <trkpt lat="42.9741" lon="0.29604">
        <ele>1839.3</ele>
        <time>2026-07-07T09:27:48Z</time>
      </trkpt>
      <trkpt lat="42.97409" lon="0.29603">
        <ele>1839.3</ele>
        <time>2026-07-07T09:27:49Z</time>
      </trkpt>
      <trkpt lat="42.97409" lon="0.29603">
        <ele>1838.3</ele>
        <time>2026-07-07T09:27:50Z</time>
      </trkpt>
      <trkpt lat="42.97409" lon="0.29603">
        <ele>1837.3</ele>
        <time>2026-07-07T09:27:50Z</time>
      </trkpt>
      <trkpt lat="42.97408" lon="0.29602">
        <ele>1837.3</ele>
        <time>2026-07-07T09:27:51Z</time>
      </trkpt>
      <trkpt lat="42.97408" lon="0.29602">
        <ele>1837.3</ele>
        <time>2026-07-07T09:27:52Z</time>
      </trkpt>
      <trkpt lat="42.97407" lon="0.29602">
        <ele>1837.3</ele>
        <time>2026-07-07T09:27:52Z</time>
      </trkpt>
      <trkpt lat="42.97407" lon="0.29602">
        <ele>1837.3</ele>
        <time>2026-07-07T09:27:53Z</time>
      </trkpt>
      <trkpt lat="42.97407" lon="0.29602">
        <ele>1837.3</ele>
        <time>2026-07-07T09:27:53Z</time>
      </trkpt>
      <trkpt lat="42.97406" lon="0.29602">
        <ele>1837.3</ele>
        <time>2026-07-07T09:27:54Z</time>
      </trkpt>
      <trkpt lat="42.97407" lon="0.29603">
        <ele>1838.3</ele>
        <time>2026-07-07T09:27:55Z</time>
      </trkpt>
      <trkpt lat="42.97406" lon="0.29603">
        <ele>1838.3</ele>
        <time>2026-07-07T09:27:55Z</time>
      </trkpt>
      <trkpt lat="42.97406" lon="0.29603">
        <ele>1838.3</ele>
        <time>2026-07-07T09:27:56Z</time>
      </trkpt>
      <trkpt lat="42.97406" lon="0.29603">
        <ele>1838.3</ele>
        <time>2026-07-07T09:27:57Z</time>
      </trkpt>
      <trkpt lat="42.97405" lon="0.29603">
        <ele>1837.3</ele>
        <time>2026-07-07T09:27:57Z</time>
      </trkpt>
      <trkpt lat="42.97405" lon="0.29603">
        <ele>1837.3</ele>
        <time>2026-07-07T09:27:58Z</time>
      </trkpt>
      <trkpt lat="42.97404" lon="0.29602">
        <ele>1837.3</ele>
        <time>2026-07-07T09:27:58Z</time>
      </trkpt>
      <trkpt lat="42.97404" lon="0.29602">
        <ele>1837.3</ele>
        <time>2026-07-07T09:27:59Z</time>
      </trkpt>
      <trkpt lat="42.97404" lon="0.29602">
        <ele>1837.3</ele>
        <time>2026-07-07T09:27:59Z</time>
      </trkpt>
      <trkpt lat="42.97403" lon="0.29602">
        <ele>1837.3</ele>
        <time>2026-07-07T09:28:00Z</time>
      </trkpt>
      <trkpt lat="42.97403" lon="0.29602">
        <ele>1837.3</ele>
        <time>2026-07-07T09:28:01Z</time>
      </trkpt>
      <trkpt lat="42.97403" lon="0.29602">
        <ele>1837.3</ele>
        <time>2026-07-07T09:28:01Z</time>
      </trkpt>
      <trkpt lat="42.97402" lon="0.29602">
        <ele>1837.3</ele>
        <time>2026-07-07T09:28:02Z</time>
      </trkpt>
      <trkpt lat="42.97402" lon="0.29602">
        <ele>1837.3</ele>
        <time>2026-07-07T09:28:02Z</time>
      </trkpt>
      <trkpt lat="42.97401" lon="0.29602">
        <ele>1837.3</ele>
        <time>2026-07-07T09:28:03Z</time>
      </trkpt>
      <trkpt lat="42.97401" lon="0.29602">
        <ele>1837.3</ele>
        <time>2026-07-07T09:28:03Z</time>
      </trkpt>
      <trkpt lat="42.974" lon="0.29602">
        <ele>1837.3</ele>
        <time>2026-07-07T09:28:04Z</time>
      </trkpt>
      <trkpt lat="42.974" lon="0.29603">
        <ele>1836.3</ele>
        <time>2026-07-07T09:28:05Z</time>
      </trkpt>
      <trkpt lat="42.97399" lon="0.29603">
        <ele>1836.3</ele>
        <time>2026-07-07T09:28:05Z</time>
      </trkpt>
      <trkpt lat="42.97399" lon="0.29603">
        <ele>1836.3</ele>
        <time>2026-07-07T09:28:06Z</time>
      </trkpt>
      <trkpt lat="42.97398" lon="0.29603">
        <ele>1836.3</ele>
        <time>2026-07-07T09:28:06Z</time>
      </trkpt>
      <trkpt lat="42.97398" lon="0.29603">
        <ele>1835.3</ele>
        <time>2026-07-07T09:28:07Z</time>
      </trkpt>
      <trkpt lat="42.97397" lon="0.29603">
        <ele>1835.3</ele>
        <time>2026-07-07T09:28:07Z</time>
      </trkpt>
      <trkpt lat="42.97396" lon="0.29603">
        <ele>1835.3</ele>
        <time>2026-07-07T09:28:08Z</time>
      </trkpt>
      <trkpt lat="42.97396" lon="0.29602">
        <ele>1834.3</ele>
        <time>2026-07-07T09:28:08Z</time>
      </trkpt>
      <trkpt lat="42.97395" lon="0.29602">
        <ele>1834.3</ele>
        <time>2026-07-07T09:28:09Z</time>
      </trkpt>
      <trkpt lat="42.97395" lon="0.29602">
        <ele>1835.3</ele>
        <time>2026-07-07T09:28:09Z</time>
      </trkpt>
      <trkpt lat="42.97394" lon="0.29601">
        <ele>1835.3</ele>
        <time>2026-07-07T09:28:10Z</time>
      </trkpt>
      <trkpt lat="42.97394" lon="0.29601">
        <ele>1835.3</ele>
        <time>2026-07-07T09:28:11Z</time>
      </trkpt>
      <trkpt lat="42.97393" lon="0.296">
        <ele>1835.3</ele>
        <time>2026-07-07T09:28:11Z</time>
      </trkpt>
      <trkpt lat="42.97393" lon="0.296">
        <ele>1835.3</ele>
        <time>2026-07-07T09:28:12Z</time>
      </trkpt>
      <trkpt lat="42.97392" lon="0.29599">
        <ele>1835.3</ele>
        <time>2026-07-07T09:28:12Z</time>
      </trkpt>
      <trkpt lat="42.97392" lon="0.29599">
        <ele>1835.3</ele>
        <time>2026-07-07T09:28:13Z</time>
      </trkpt>
      <trkpt lat="42.97391" lon="0.29598">
        <ele>1834.3</ele>
        <time>2026-07-07T09:28:13Z</time>
      </trkpt>
      <trkpt lat="42.97391" lon="0.29598">
        <ele>1834.3</ele>
        <time>2026-07-07T09:28:14Z</time>
      </trkpt>
      <trkpt lat="42.9739" lon="0.29598">
        <ele>1834.3</ele>
        <time>2026-07-07T09:28:14Z</time>
      </trkpt>
      <trkpt lat="42.9739" lon="0.29597">
        <ele>1834.3</ele>
        <time>2026-07-07T09:28:15Z</time>
      </trkpt>
      <trkpt lat="42.97389" lon="0.29597">
        <ele>1834.3</ele>
        <time>2026-07-07T09:28:16Z</time>
      </trkpt>
      <trkpt lat="42.97389" lon="0.29597">
        <ele>1834.3</ele>
        <time>2026-07-07T09:28:16Z</time>
      </trkpt>
      <trkpt lat="42.97388" lon="0.29597">
        <ele>1834.3</ele>
        <time>2026-07-07T09:28:17Z</time>
      </trkpt>
      <trkpt lat="42.97388" lon="0.29596">
        <ele>1833.3</ele>
        <time>2026-07-07T09:28:17Z</time>
      </trkpt>
      <trkpt lat="42.97387" lon="0.29596">
        <ele>1833.3</ele>
        <time>2026-07-07T09:28:18Z</time>
      </trkpt>
      <trkpt lat="42.97386" lon="0.29596">
        <ele>1833.3</ele>
        <time>2026-07-07T09:28:19Z</time>
      </trkpt>
      <trkpt lat="42.97386" lon="0.29595">
        <ele>1833.3</ele>
        <time>2026-07-07T09:28:19Z</time>
      </trkpt>
      <trkpt lat="42.97385" lon="0.29596">
        <ele>1832.3</ele>
        <time>2026-07-07T09:28:20Z</time>
      </trkpt>
      <trkpt lat="42.97385" lon="0.29596">
        <ele>1832.3</ele>
        <time>2026-07-07T09:28:20Z</time>
      </trkpt>
      <trkpt lat="42.97384" lon="0.29596">
        <ele>1832.3</ele>
        <time>2026-07-07T09:28:21Z</time>
      </trkpt>
      <trkpt lat="42.97384" lon="0.29595">
        <ele>1832.3</ele>
        <time>2026-07-07T09:28:22Z</time>
      </trkpt>
      <trkpt lat="42.97383" lon="0.29595">
        <ele>1832.3</ele>
        <time>2026-07-07T09:28:22Z</time>
      </trkpt>
      <trkpt lat="42.97382" lon="0.29594">
        <ele>1831.3</ele>
        <time>2026-07-07T09:28:23Z</time>
      </trkpt>
      <trkpt lat="42.97382" lon="0.29594">
        <ele>1831.3</ele>
        <time>2026-07-07T09:28:24Z</time>
      </trkpt>
      <trkpt lat="42.97381" lon="0.29594">
        <ele>1831.3</ele>
        <time>2026-07-07T09:28:25Z</time>
      </trkpt>
      <trkpt lat="42.9738" lon="0.29594">
        <ele>1830.3</ele>
        <time>2026-07-07T09:28:26Z</time>
      </trkpt>
      <trkpt lat="42.9738" lon="0.29594">
        <ele>1830.3</ele>
        <time>2026-07-07T09:28:26Z</time>
      </trkpt>
      <trkpt lat="42.97379" lon="0.29593">
        <ele>1830.3</ele>
        <time>2026-07-07T09:28:27Z</time>
      </trkpt>
      <trkpt lat="42.97378" lon="0.29593">
        <ele>1830.3</ele>
        <time>2026-07-07T09:28:27Z</time>
      </trkpt>
      <trkpt lat="42.97378" lon="0.29593">
        <ele>1829.3</ele>
        <time>2026-07-07T09:28:28Z</time>
      </trkpt>
      <trkpt lat="42.97377" lon="0.29593">
        <ele>1829.3</ele>
        <time>2026-07-07T09:28:28Z</time>
      </trkpt>
      <trkpt lat="42.97377" lon="0.29592">
        <ele>1829.3</ele>
        <time>2026-07-07T09:28:29Z</time>
      </trkpt>
      <trkpt lat="42.97376" lon="0.29592">
        <ele>1829.3</ele>
        <time>2026-07-07T09:28:29Z</time>
      </trkpt>
      <trkpt lat="42.97375" lon="0.29592">
        <ele>1829.3</ele>
        <time>2026-07-07T09:28:30Z</time>
      </trkpt>
      <trkpt lat="42.97375" lon="0.29591">
        <ele>1829.3</ele>
        <time>2026-07-07T09:28:31Z</time>
      </trkpt>
      <trkpt lat="42.97374" lon="0.2959">
        <ele>1829.3</ele>
        <time>2026-07-07T09:28:31Z</time>
      </trkpt>
      <trkpt lat="42.97374" lon="0.29589">
        <ele>1829.3</ele>
        <time>2026-07-07T09:28:32Z</time>
      </trkpt>
      <trkpt lat="42.97373" lon="0.29589">
        <ele>1829.3</ele>
        <time>2026-07-07T09:28:33Z</time>
      </trkpt>
      <trkpt lat="42.97373" lon="0.29588">
        <ele>1830.3</ele>
        <time>2026-07-07T09:28:33Z</time>
      </trkpt>
      <trkpt lat="42.97372" lon="0.29587">
        <ele>1830.3</ele>
        <time>2026-07-07T09:28:34Z</time>
      </trkpt>
      <trkpt lat="42.97372" lon="0.29587">
        <ele>1829.3</ele>
        <time>2026-07-07T09:28:34Z</time>
      </trkpt>
      <trkpt lat="42.97371" lon="0.29586">
        <ele>1829.3</ele>
        <time>2026-07-07T09:28:35Z</time>
      </trkpt>
      <trkpt lat="42.97371" lon="0.29586">
        <ele>1829.3</ele>
        <time>2026-07-07T09:28:36Z</time>
      </trkpt>
      <trkpt lat="42.9737" lon="0.29585">
        <ele>1829.3</ele>
        <time>2026-07-07T09:28:36Z</time>
      </trkpt>
      <trkpt lat="42.9737" lon="0.29584">
        <ele>1829.3</ele>
        <time>2026-07-07T09:28:37Z</time>
      </trkpt>
      <trkpt lat="42.97369" lon="0.29584">
        <ele>1829.3</ele>
        <time>2026-07-07T09:28:37Z</time>
      </trkpt>
      <trkpt lat="42.97369" lon="0.29583">
        <ele>1829.3</ele>
        <time>2026-07-07T09:28:38Z</time>
      </trkpt>
      <trkpt lat="42.97368" lon="0.29583">
        <ele>1829.3</ele>
        <time>2026-07-07T09:28:39Z</time>
      </trkpt>
      <trkpt lat="42.97367" lon="0.29582">
        <ele>1829.3</ele>
        <time>2026-07-07T09:28:39Z</time>
      </trkpt>
      <trkpt lat="42.97367" lon="0.29582">
        <ele>1828.3</ele>
        <time>2026-07-07T09:28:40Z</time>
      </trkpt>
      <trkpt lat="42.97366" lon="0.29581">
        <ele>1828.3</ele>
        <time>2026-07-07T09:28:40Z</time>
      </trkpt>
      <trkpt lat="42.97366" lon="0.29581">
        <ele>1828.3</ele>
        <time>2026-07-07T09:28:41Z</time>
      </trkpt>
      <trkpt lat="42.97365" lon="0.2958">
        <ele>1828.3</ele>
        <time>2026-07-07T09:28:42Z</time>
      </trkpt>
      <trkpt lat="42.97365" lon="0.2958">
        <ele>1827.3</ele>
        <time>2026-07-07T09:28:42Z</time>
      </trkpt>
      <trkpt lat="42.97364" lon="0.2958">
        <ele>1827.3</ele>
        <time>2026-07-07T09:28:43Z</time>
      </trkpt>
      <trkpt lat="42.97364" lon="0.2958">
        <ele>1827.3</ele>
        <time>2026-07-07T09:28:44Z</time>
      </trkpt>
      <trkpt lat="42.97363" lon="0.2958">
        <ele>1827.3</ele>
        <time>2026-07-07T09:28:44Z</time>
      </trkpt>
      <trkpt lat="42.97362" lon="0.2958">
        <ele>1827.3</ele>
        <time>2026-07-07T09:28:45Z</time>
      </trkpt>
      <trkpt lat="42.97362" lon="0.29579">
        <ele>1828.3</ele>
        <time>2026-07-07T09:28:46Z</time>
      </trkpt>
      <trkpt lat="42.97361" lon="0.29579">
        <ele>1828.3</ele>
        <time>2026-07-07T09:28:47Z</time>
      </trkpt>
      <trkpt lat="42.97361" lon="0.29579">
        <ele>1828.3</ele>
        <time>2026-07-07T09:28:47Z</time>
      </trkpt>
      <trkpt lat="42.97361" lon="0.29578">
        <ele>1828.3</ele>
        <time>2026-07-07T09:28:48Z</time>
      </trkpt>
      <trkpt lat="42.9736" lon="0.29578">
        <ele>1828.3</ele>
        <time>2026-07-07T09:28:49Z</time>
      </trkpt>
      <trkpt lat="42.9736" lon="0.29577">
        <ele>1828.3</ele>
        <time>2026-07-07T09:28:49Z</time>
      </trkpt>
      <trkpt lat="42.97359" lon="0.29576">
        <ele>1829.3</ele>
        <time>2026-07-07T09:28:50Z</time>
      </trkpt>
      <trkpt lat="42.97359" lon="0.29575">
        <ele>1829.3</ele>
        <time>2026-07-07T09:28:51Z</time>
      </trkpt>
      <trkpt lat="42.97358" lon="0.29575">
        <ele>1828.3</ele>
        <time>2026-07-07T09:28:52Z</time>
      </trkpt>
      <trkpt lat="42.97358" lon="0.29574">
        <ele>1828.3</ele>
        <time>2026-07-07T09:28:52Z</time>
      </trkpt>
      <trkpt lat="42.97357" lon="0.29574">
        <ele>1828.3</ele>
        <time>2026-07-07T09:28:53Z</time>
      </trkpt>
      <trkpt lat="42.97356" lon="0.29573">
        <ele>1828.3</ele>
        <time>2026-07-07T09:28:53Z</time>
      </trkpt>
      <trkpt lat="42.97356" lon="0.29573">
        <ele>1828.3</ele>
        <time>2026-07-07T09:28:54Z</time>
      </trkpt>
      <trkpt lat="42.97355" lon="0.29573">
        <ele>1828.3</ele>
        <time>2026-07-07T09:28:55Z</time>
      </trkpt>
      <trkpt lat="42.97355" lon="0.29572">
        <ele>1828.3</ele>
        <time>2026-07-07T09:28:55Z</time>
      </trkpt>
      <trkpt lat="42.97354" lon="0.29572">
        <ele>1828.3</ele>
        <time>2026-07-07T09:28:56Z</time>
      </trkpt>
      <trkpt lat="42.97354" lon="0.29572">
        <ele>1828.3</ele>
        <time>2026-07-07T09:28:56Z</time>
      </trkpt>
      <trkpt lat="42.97353" lon="0.29572">
        <ele>1828.3</ele>
        <time>2026-07-07T09:28:57Z</time>
      </trkpt>
      <trkpt lat="42.97353" lon="0.29571">
        <ele>1828.3</ele>
        <time>2026-07-07T09:28:58Z</time>
      </trkpt>
      <trkpt lat="42.97352" lon="0.29571">
        <ele>1828.3</ele>
        <time>2026-07-07T09:28:58Z</time>
      </trkpt>
      <trkpt lat="42.97352" lon="0.2957">
        <ele>1828.3</ele>
        <time>2026-07-07T09:28:59Z</time>
      </trkpt>
      <trkpt lat="42.97352" lon="0.2957">
        <ele>1828.3</ele>
        <time>2026-07-07T09:29:00Z</time>
      </trkpt>
      <trkpt lat="42.97351" lon="0.29569">
        <ele>1828.3</ele>
        <time>2026-07-07T09:29:00Z</time>
      </trkpt>
      <trkpt lat="42.97351" lon="0.29569">
        <ele>1828.3</ele>
        <time>2026-07-07T09:29:01Z</time>
      </trkpt>
      <trkpt lat="42.9735" lon="0.29568">
        <ele>1828.3</ele>
        <time>2026-07-07T09:29:02Z</time>
      </trkpt>
      <trkpt lat="42.9735" lon="0.29568">
        <ele>1828.3</ele>
        <time>2026-07-07T09:29:02Z</time>
      </trkpt>
      <trkpt lat="42.9735" lon="0.29567">
        <ele>1828.3</ele>
        <time>2026-07-07T09:29:03Z</time>
      </trkpt>
      <trkpt lat="42.97349" lon="0.29567">
        <ele>1828.3</ele>
        <time>2026-07-07T09:29:04Z</time>
      </trkpt>
      <trkpt lat="42.97349" lon="0.29567">
        <ele>1827.3</ele>
        <time>2026-07-07T09:29:04Z</time>
      </trkpt>
      <trkpt lat="42.97348" lon="0.29566">
        <ele>1827.3</ele>
        <time>2026-07-07T09:29:05Z</time>
      </trkpt>
      <trkpt lat="42.97348" lon="0.29566">
        <ele>1828.3</ele>
        <time>2026-07-07T09:29:06Z</time>
      </trkpt>
      <trkpt lat="42.97347" lon="0.29565">
        <ele>1828.3</ele>
        <time>2026-07-07T09:29:06Z</time>
      </trkpt>
      <trkpt lat="42.97347" lon="0.29564">
        <ele>1828.3</ele>
        <time>2026-07-07T09:29:07Z</time>
      </trkpt>
      <trkpt lat="42.97347" lon="0.29564">
        <ele>1828.3</ele>
        <time>2026-07-07T09:29:07Z</time>
      </trkpt>
      <trkpt lat="42.97346" lon="0.29563">
        <ele>1828.3</ele>
        <time>2026-07-07T09:29:08Z</time>
      </trkpt>
      <trkpt lat="42.97346" lon="0.29562">
        <ele>1829.3</ele>
        <time>2026-07-07T09:29:09Z</time>
      </trkpt>
      <trkpt lat="42.97345" lon="0.29561">
        <ele>1828.3</ele>
        <time>2026-07-07T09:29:10Z</time>
      </trkpt>
      <trkpt lat="42.97345" lon="0.29561">
        <ele>1828.3</ele>
        <time>2026-07-07T09:29:10Z</time>
      </trkpt>
      <trkpt lat="42.97345" lon="0.2956">
        <ele>1829.3</ele>
        <time>2026-07-07T09:29:11Z</time>
      </trkpt>
      <trkpt lat="42.97345" lon="0.2956">
        <ele>1829.3</ele>
        <time>2026-07-07T09:29:11Z</time>
      </trkpt>
      <trkpt lat="42.97346" lon="0.29558">
        <ele>1829.3</ele>
        <time>2026-07-07T09:29:12Z</time>
      </trkpt>
      <trkpt lat="42.97346" lon="0.29558">
        <ele>1828.3</ele>
        <time>2026-07-07T09:29:13Z</time>
      </trkpt>
      <trkpt lat="42.97346" lon="0.29557">
        <ele>1828.3</ele>
        <time>2026-07-07T09:29:14Z</time>
      </trkpt>
      <trkpt lat="42.97346" lon="0.29557">
        <ele>1828.3</ele>
        <time>2026-07-07T09:29:14Z</time>
      </trkpt>
      <trkpt lat="42.97345" lon="0.29556">
        <ele>1829.3</ele>
        <time>2026-07-07T09:29:15Z</time>
      </trkpt>
      <trkpt lat="42.97345" lon="0.29554">
        <ele>1829.3</ele>
        <time>2026-07-07T09:29:16Z</time>
      </trkpt>
      <trkpt lat="42.97345" lon="0.29554">
        <ele>1828.3</ele>
        <time>2026-07-07T09:29:17Z</time>
      </trkpt>
      <trkpt lat="42.97344" lon="0.29553">
        <ele>1828.3</ele>
        <time>2026-07-07T09:29:18Z</time>
      </trkpt>
      <trkpt lat="42.97344" lon="0.29553">
        <ele>1828.3</ele>
        <time>2026-07-07T09:29:18Z</time>
      </trkpt>
      <trkpt lat="42.97344" lon="0.29551">
        <ele>1828.3</ele>
        <time>2026-07-07T09:29:19Z</time>
      </trkpt>
      <trkpt lat="42.97345" lon="0.29551">
        <ele>1828.3</ele>
        <time>2026-07-07T09:29:20Z</time>
      </trkpt>
      <trkpt lat="42.97345" lon="0.2955">
        <ele>1828.3</ele>
        <time>2026-07-07T09:29:21Z</time>
      </trkpt>
      <trkpt lat="42.97345" lon="0.2955">
        <ele>1828.3</ele>
        <time>2026-07-07T09:29:21Z</time>
      </trkpt>
      <trkpt lat="42.97345" lon="0.29549">
        <ele>1828.3</ele>
        <time>2026-07-07T09:29:22Z</time>
      </trkpt>
      <trkpt lat="42.97345" lon="0.29548">
        <ele>1828.3</ele>
        <time>2026-07-07T09:29:23Z</time>
      </trkpt>
      <trkpt lat="42.97345" lon="0.29548">
        <ele>1828.3</ele>
        <time>2026-07-07T09:29:24Z</time>
      </trkpt>
      <trkpt lat="42.97345" lon="0.29548">
        <ele>1828.3</ele>
        <time>2026-07-07T09:29:25Z</time>
      </trkpt>
      <trkpt lat="42.97346" lon="0.29547">
        <ele>1828.3</ele>
        <time>2026-07-07T09:29:26Z</time>
      </trkpt>
      <trkpt lat="42.97346" lon="0.29547">
        <ele>1827.3</ele>
        <time>2026-07-07T09:29:27Z</time>
      </trkpt>
      <trkpt lat="42.97346" lon="0.29546">
        <ele>1827.3</ele>
        <time>2026-07-07T09:29:27Z</time>
      </trkpt>
      <trkpt lat="42.97346" lon="0.29545">
        <ele>1827.3</ele>
        <time>2026-07-07T09:29:28Z</time>
      </trkpt>
      <trkpt lat="42.97345" lon="0.29544">
        <ele>1827.3</ele>
        <time>2026-07-07T09:29:29Z</time>
      </trkpt>
      <trkpt lat="42.97345" lon="0.29544">
        <ele>1827.3</ele>
        <time>2026-07-07T09:29:29Z</time>
      </trkpt>
      <trkpt lat="42.97345" lon="0.29543">
        <ele>1827.3</ele>
        <time>2026-07-07T09:29:30Z</time>
      </trkpt>
      <trkpt lat="42.97345" lon="0.29543">
        <ele>1827.3</ele>
        <time>2026-07-07T09:29:30Z</time>
      </trkpt>
      <trkpt lat="42.97345" lon="0.29542">
        <ele>1827.3</ele>
        <time>2026-07-07T09:29:31Z</time>
      </trkpt>
      <trkpt lat="42.97345" lon="0.29541">
        <ele>1827.3</ele>
        <time>2026-07-07T09:29:32Z</time>
      </trkpt>
      <trkpt lat="42.97344" lon="0.29541">
        <ele>1828.3</ele>
        <time>2026-07-07T09:29:33Z</time>
      </trkpt>
      <trkpt lat="42.97344" lon="0.29541">
        <ele>1828.3</ele>
        <time>2026-07-07T09:29:33Z</time>
      </trkpt>
      <trkpt lat="42.97343" lon="0.29541">
        <ele>1828.3</ele>
        <time>2026-07-07T09:29:34Z</time>
      </trkpt>
      <trkpt lat="42.97343" lon="0.29541">
        <ele>1828.3</ele>
        <time>2026-07-07T09:29:35Z</time>
      </trkpt>
      <trkpt lat="42.97342" lon="0.2954">
        <ele>1827.3</ele>
        <time>2026-07-07T09:29:36Z</time>
      </trkpt>
      <trkpt lat="42.97342" lon="0.2954">
        <ele>1827.3</ele>
        <time>2026-07-07T09:29:37Z</time>
      </trkpt>
      <trkpt lat="42.97342" lon="0.2954">
        <ele>1828.3</ele>
        <time>2026-07-07T09:29:37Z</time>
      </trkpt>
      <trkpt lat="42.97342" lon="0.29539">
        <ele>1828.3</ele>
        <time>2026-07-07T09:29:38Z</time>
      </trkpt>
      <trkpt lat="42.97343" lon="0.29539">
        <ele>1828.3</ele>
        <time>2026-07-07T09:29:39Z</time>
      </trkpt>
      <trkpt lat="42.97343" lon="0.29538">
        <ele>1828.3</ele>
        <time>2026-07-07T09:29:39Z</time>
      </trkpt>
      <trkpt lat="42.97343" lon="0.29537">
        <ele>1828.3</ele>
        <time>2026-07-07T09:29:40Z</time>
      </trkpt>
      <trkpt lat="42.97343" lon="0.29536">
        <ele>1827.3</ele>
        <time>2026-07-07T09:29:41Z</time>
      </trkpt>
      <trkpt lat="42.97343" lon="0.29535">
        <ele>1827.3</ele>
        <time>2026-07-07T09:29:42Z</time>
      </trkpt>
      <trkpt lat="42.97344" lon="0.29535">
        <ele>1827.3</ele>
        <time>2026-07-07T09:29:43Z</time>
      </trkpt>
      <trkpt lat="42.97344" lon="0.29534">
        <ele>1827.3</ele>
        <time>2026-07-07T09:29:43Z</time>
      </trkpt>
      <trkpt lat="42.97344" lon="0.29533">
        <ele>1828.3</ele>
        <time>2026-07-07T09:29:44Z</time>
      </trkpt>
      <trkpt lat="42.97344" lon="0.29532">
        <ele>1828.3</ele>
        <time>2026-07-07T09:29:45Z</time>
      </trkpt>
      <trkpt lat="42.97344" lon="0.29531">
        <ele>1827.3</ele>
        <time>2026-07-07T09:29:46Z</time>
      </trkpt>
      <trkpt lat="42.97344" lon="0.29531">
        <ele>1827.3</ele>
        <time>2026-07-07T09:29:47Z</time>
      </trkpt>
      <trkpt lat="42.97343" lon="0.2953">
        <ele>1828.3</ele>
        <time>2026-07-07T09:29:48Z</time>
      </trkpt>
      <trkpt lat="42.97343" lon="0.2953">
        <ele>1827.3</ele>
        <time>2026-07-07T09:29:49Z</time>
      </trkpt>
      <trkpt lat="42.97342" lon="0.29529">
        <ele>1827.3</ele>
        <time>2026-07-07T09:29:50Z</time>
      </trkpt>
      <trkpt lat="42.97342" lon="0.29529">
        <ele>1828.3</ele>
        <time>2026-07-07T09:29:51Z</time>
      </trkpt>
      <trkpt lat="42.97342" lon="0.29529">
        <ele>1828.3</ele>
        <time>2026-07-07T09:29:52Z</time>
      </trkpt>
      <trkpt lat="42.97342" lon="0.29528">
        <ele>1828.3</ele>
        <time>2026-07-07T09:29:53Z</time>
      </trkpt>
      <trkpt lat="42.97342" lon="0.29527">
        <ele>1827.3</ele>
        <time>2026-07-07T09:29:54Z</time>
      </trkpt>
      <trkpt lat="42.97342" lon="0.29527">
        <ele>1827.3</ele>
        <time>2026-07-07T09:29:55Z</time>
      </trkpt>
      <trkpt lat="42.97342" lon="0.29527">
        <ele>1827.3</ele>
        <time>2026-07-07T09:29:55Z</time>
      </trkpt>
      <trkpt lat="42.97341" lon="0.29527">
        <ele>1827.3</ele>
        <time>2026-07-07T09:29:56Z</time>
      </trkpt>
      <trkpt lat="42.97341" lon="0.29526">
        <ele>1827.3</ele>
        <time>2026-07-07T09:29:57Z</time>
      </trkpt>
      <trkpt lat="42.97341" lon="0.29526">
        <ele>1827.3</ele>
        <time>2026-07-07T09:29:58Z</time>
      </trkpt>
      <trkpt lat="42.9734" lon="0.29527">
        <ele>1827.3</ele>
        <time>2026-07-07T09:29:58Z</time>
      </trkpt>
      <trkpt lat="42.97339" lon="0.29527">
        <ele>1827.3</ele>
        <time>2026-07-07T09:29:59Z</time>
      </trkpt>
      <trkpt lat="42.97338" lon="0.29528">
        <ele>1827.3</ele>
        <time>2026-07-07T09:30:00Z</time>
      </trkpt>
      <trkpt lat="42.97338" lon="0.29528">
        <ele>1827.3</ele>
        <time>2026-07-07T09:30:01Z</time>
      </trkpt>
      <trkpt lat="42.97337" lon="0.29529">
        <ele>1827.3</ele>
        <time>2026-07-07T09:30:01Z</time>
      </trkpt>
      <trkpt lat="42.97337" lon="0.29529">
        <ele>1827.3</ele>
        <time>2026-07-07T09:30:02Z</time>
      </trkpt>
      <trkpt lat="42.97337" lon="0.29529">
        <ele>1828.3</ele>
        <time>2026-07-07T09:30:02Z</time>
      </trkpt>
      <trkpt lat="42.97336" lon="0.2953">
        <ele>1829.3</ele>
        <time>2026-07-07T09:30:03Z</time>
      </trkpt>
      <trkpt lat="42.97336" lon="0.2953">
        <ele>1829.3</ele>
        <time>2026-07-07T09:30:04Z</time>
      </trkpt>
      <trkpt lat="42.97335" lon="0.29531">
        <ele>1829.3</ele>
        <time>2026-07-07T09:30:05Z</time>
      </trkpt>
      <trkpt lat="42.97335" lon="0.29531">
        <ele>1829.3</ele>
        <time>2026-07-07T09:30:06Z</time>
      </trkpt>
      <trkpt lat="42.97335" lon="0.29532">
        <ele>1830.3</ele>
        <time>2026-07-07T09:30:06Z</time>
      </trkpt>
      <trkpt lat="42.97335" lon="0.29532">
        <ele>1830.3</ele>
        <time>2026-07-07T09:30:07Z</time>
      </trkpt>
      <trkpt lat="42.97335" lon="0.29533">
        <ele>1830.3</ele>
        <time>2026-07-07T09:30:08Z</time>
      </trkpt>
      <trkpt lat="42.97335" lon="0.29534">
        <ele>1829.3</ele>
        <time>2026-07-07T09:30:09Z</time>
      </trkpt>
      <trkpt lat="42.97334" lon="0.29534">
        <ele>1829.3</ele>
        <time>2026-07-07T09:30:10Z</time>
      </trkpt>
      <trkpt lat="42.97334" lon="0.29535">
        <ele>1830.3</ele>
        <time>2026-07-07T09:30:10Z</time>
      </trkpt>
      <trkpt lat="42.97334" lon="0.29535">
        <ele>1830.3</ele>
        <time>2026-07-07T09:30:11Z</time>
      </trkpt>
      <trkpt lat="42.97333" lon="0.29535">
        <ele>1830.3</ele>
        <time>2026-07-07T09:30:12Z</time>
      </trkpt>
      <trkpt lat="42.97333" lon="0.29536">
        <ele>1830.3</ele>
        <time>2026-07-07T09:30:13Z</time>
      </trkpt>
      <trkpt lat="42.97332" lon="0.29536">
        <ele>1831.3</ele>
        <time>2026-07-07T09:30:13Z</time>
      </trkpt>
      <trkpt lat="42.97332" lon="0.29536">
        <ele>1831.3</ele>
        <time>2026-07-07T09:30:14Z</time>
      </trkpt>
      <trkpt lat="42.97331" lon="0.29537">
        <ele>1831.3</ele>
        <time>2026-07-07T09:30:15Z</time>
      </trkpt>
      <trkpt lat="42.97331" lon="0.29537">
        <ele>1831.3</ele>
        <time>2026-07-07T09:30:16Z</time>
      </trkpt>
      <trkpt lat="42.97331" lon="0.29538">
        <ele>1831.3</ele>
        <time>2026-07-07T09:30:16Z</time>
      </trkpt>
      <trkpt lat="42.9733" lon="0.29539">
        <ele>1831.3</ele>
        <time>2026-07-07T09:30:17Z</time>
      </trkpt>
      <trkpt lat="42.9733" lon="0.29539">
        <ele>1831.3</ele>
        <time>2026-07-07T09:30:18Z</time>
      </trkpt>
      <trkpt lat="42.9733" lon="0.2954">
        <ele>1831.3</ele>
        <time>2026-07-07T09:30:18Z</time>
      </trkpt>
      <trkpt lat="42.9733" lon="0.29541">
        <ele>1831.3</ele>
        <time>2026-07-07T09:30:19Z</time>
      </trkpt>
      <trkpt lat="42.97329" lon="0.29542">
        <ele>1832.3</ele>
        <time>2026-07-07T09:30:20Z</time>
      </trkpt>
      <trkpt lat="42.97329" lon="0.29542">
        <ele>1832.3</ele>
        <time>2026-07-07T09:30:21Z</time>
      </trkpt>
      <trkpt lat="42.97329" lon="0.29543">
        <ele>1833.3</ele>
        <time>2026-07-07T09:30:21Z</time>
      </trkpt>
      <trkpt lat="42.97329" lon="0.29544">
        <ele>1833.3</ele>
        <time>2026-07-07T09:30:22Z</time>
      </trkpt>
      <trkpt lat="42.97328" lon="0.29545">
        <ele>1832.3</ele>
        <time>2026-07-07T09:30:23Z</time>
      </trkpt>
      <trkpt lat="42.97328" lon="0.29545">
        <ele>1832.3</ele>
        <time>2026-07-07T09:30:23Z</time>
      </trkpt>
      <trkpt lat="42.97328" lon="0.29547">
        <ele>1832.3</ele>
        <time>2026-07-07T09:30:24Z</time>
      </trkpt>
      <trkpt lat="42.97327" lon="0.29547">
        <ele>1832.3</ele>
        <time>2026-07-07T09:30:25Z</time>
      </trkpt>
      <trkpt lat="42.97327" lon="0.29548">
        <ele>1832.3</ele>
        <time>2026-07-07T09:30:25Z</time>
      </trkpt>
      <trkpt lat="42.97327" lon="0.29549">
        <ele>1832.3</ele>
        <time>2026-07-07T09:30:26Z</time>
      </trkpt>
      <trkpt lat="42.97326" lon="0.2955">
        <ele>1833.3</ele>
        <time>2026-07-07T09:30:27Z</time>
      </trkpt>
      <trkpt lat="42.97326" lon="0.2955">
        <ele>1833.3</ele>
        <time>2026-07-07T09:30:27Z</time>
      </trkpt>
      <trkpt lat="42.97326" lon="0.29551">
        <ele>1833.3</ele>
        <time>2026-07-07T09:30:28Z</time>
      </trkpt>
      <trkpt lat="42.97326" lon="0.29552">
        <ele>1834.3</ele>
        <time>2026-07-07T09:30:29Z</time>
      </trkpt>
      <trkpt lat="42.97326" lon="0.29552">
        <ele>1834.3</ele>
        <time>2026-07-07T09:30:29Z</time>
      </trkpt>
      <trkpt lat="42.97326" lon="0.29553">
        <ele>1834.3</ele>
        <time>2026-07-07T09:30:30Z</time>
      </trkpt>
      <trkpt lat="42.97326" lon="0.29554">
        <ele>1833.3</ele>
        <time>2026-07-07T09:30:31Z</time>
      </trkpt>
      <trkpt lat="42.97327" lon="0.29554">
        <ele>1834.3</ele>
        <time>2026-07-07T09:30:32Z</time>
      </trkpt>
      <trkpt lat="42.97327" lon="0.29554">
        <ele>1833.3</ele>
        <time>2026-07-07T09:30:32Z</time>
      </trkpt>
      <trkpt lat="42.97327" lon="0.29554">
        <ele>1833.3</ele>
        <time>2026-07-07T09:30:33Z</time>
      </trkpt>
      <trkpt lat="42.97328" lon="0.29555">
        <ele>1832.3</ele>
        <time>2026-07-07T09:30:34Z</time>
      </trkpt>
      <trkpt lat="42.97329" lon="0.29556">
        <ele>1832.3</ele>
        <time>2026-07-07T09:30:35Z</time>
      </trkpt>
      <trkpt lat="42.97329" lon="0.29557">
        <ele>1832.3</ele>
        <time>2026-07-07T09:30:36Z</time>
      </trkpt>
      <trkpt lat="42.97328" lon="0.29557">
        <ele>1832.3</ele>
        <time>2026-07-07T09:30:36Z</time>
      </trkpt>
      <trkpt lat="42.97328" lon="0.29557">
        <ele>1832.3</ele>
        <time>2026-07-07T09:30:37Z</time>
      </trkpt>
      <trkpt lat="42.97327" lon="0.29557">
        <ele>1832.3</ele>
        <time>2026-07-07T09:30:38Z</time>
      </trkpt>
      <trkpt lat="42.97327" lon="0.29557">
        <ele>1832.3</ele>
        <time>2026-07-07T09:30:39Z</time>
      </trkpt>
      <trkpt lat="42.97327" lon="0.29558">
        <ele>1832.3</ele>
        <time>2026-07-07T09:30:39Z</time>
      </trkpt>
      <trkpt lat="42.97326" lon="0.29558">
        <ele>1832.3</ele>
        <time>2026-07-07T09:30:40Z</time>
      </trkpt>
      <trkpt lat="42.97326" lon="0.29559">
        <ele>1832.3</ele>
        <time>2026-07-07T09:30:41Z</time>
      </trkpt>
      <trkpt lat="42.97325" lon="0.2956">
        <ele>1832.3</ele>
        <time>2026-07-07T09:30:42Z</time>
      </trkpt>
      <trkpt lat="42.97325" lon="0.2956">
        <ele>1832.3</ele>
        <time>2026-07-07T09:30:43Z</time>
      </trkpt>
      <trkpt lat="42.97325" lon="0.29561">
        <ele>1832.3</ele>
        <time>2026-07-07T09:30:44Z</time>
      </trkpt>
      <trkpt lat="42.97324" lon="0.29561">
        <ele>1833.3</ele>
        <time>2026-07-07T09:30:44Z</time>
      </trkpt>
      <trkpt lat="42.97324" lon="0.29562">
        <ele>1833.3</ele>
        <time>2026-07-07T09:30:45Z</time>
      </trkpt>
      <trkpt lat="42.97324" lon="0.29563">
        <ele>1833.3</ele>
        <time>2026-07-07T09:30:46Z</time>
      </trkpt>
      <trkpt lat="42.97324" lon="0.29563">
        <ele>1833.3</ele>
        <time>2026-07-07T09:30:46Z</time>
      </trkpt>
      <trkpt lat="42.97324" lon="0.29564">
        <ele>1833.3</ele>
        <time>2026-07-07T09:30:47Z</time>
      </trkpt>
      <trkpt lat="42.97324" lon="0.29565">
        <ele>1833.3</ele>
        <time>2026-07-07T09:30:48Z</time>
      </trkpt>
      <trkpt lat="42.97323" lon="0.29566">
        <ele>1833.3</ele>
        <time>2026-07-07T09:30:48Z</time>
      </trkpt>
      <trkpt lat="42.97323" lon="0.29567">
        <ele>1833.3</ele>
        <time>2026-07-07T09:30:49Z</time>
      </trkpt>
      <trkpt lat="42.97323" lon="0.29567">
        <ele>1833.3</ele>
        <time>2026-07-07T09:30:50Z</time>
      </trkpt>
      <trkpt lat="42.97323" lon="0.29568">
        <ele>1833.3</ele>
        <time>2026-07-07T09:30:50Z</time>
      </trkpt>
      <trkpt lat="42.97322" lon="0.29569">
        <ele>1832.3</ele>
        <time>2026-07-07T09:30:51Z</time>
      </trkpt>
      <trkpt lat="42.97322" lon="0.2957">
        <ele>1832.3</ele>
        <time>2026-07-07T09:30:51Z</time>
      </trkpt>
      <trkpt lat="42.97321" lon="0.2957">
        <ele>1832.3</ele>
        <time>2026-07-07T09:30:52Z</time>
      </trkpt>
      <trkpt lat="42.97321" lon="0.29571">
        <ele>1832.3</ele>
        <time>2026-07-07T09:30:53Z</time>
      </trkpt>
      <trkpt lat="42.9732" lon="0.29571">
        <ele>1832.3</ele>
        <time>2026-07-07T09:30:53Z</time>
      </trkpt>
      <trkpt lat="42.9732" lon="0.29572">
        <ele>1832.3</ele>
        <time>2026-07-07T09:30:54Z</time>
      </trkpt>
      <trkpt lat="42.9732" lon="0.29572">
        <ele>1832.3</ele>
        <time>2026-07-07T09:30:54Z</time>
      </trkpt>
      <trkpt lat="42.97319" lon="0.29573">
        <ele>1832.3</ele>
        <time>2026-07-07T09:30:55Z</time>
      </trkpt>
      <trkpt lat="42.97319" lon="0.29574">
        <ele>1832.3</ele>
        <time>2026-07-07T09:30:55Z</time>
      </trkpt>
      <trkpt lat="42.97318" lon="0.29574">
        <ele>1832.3</ele>
        <time>2026-07-07T09:30:56Z</time>
      </trkpt>
      <trkpt lat="42.97318" lon="0.29574">
        <ele>1832.3</ele>
        <time>2026-07-07T09:30:57Z</time>
      </trkpt>
      <trkpt lat="42.97318" lon="0.29575">
        <ele>1832.3</ele>
        <time>2026-07-07T09:30:57Z</time>
      </trkpt>
      <trkpt lat="42.97317" lon="0.29575">
        <ele>1831.3</ele>
        <time>2026-07-07T09:30:58Z</time>
      </trkpt>
      <trkpt lat="42.97317" lon="0.29576">
        <ele>1831.3</ele>
        <time>2026-07-07T09:30:59Z</time>
      </trkpt>
      <trkpt lat="42.97317" lon="0.29576">
        <ele>1831.3</ele>
        <time>2026-07-07T09:30:59Z</time>
      </trkpt>
      <trkpt lat="42.97316" lon="0.29577">
        <ele>1831.3</ele>
        <time>2026-07-07T09:31:00Z</time>
      </trkpt>
      <trkpt lat="42.97316" lon="0.29577">
        <ele>1831.3</ele>
        <time>2026-07-07T09:31:01Z</time>
      </trkpt>
      <trkpt lat="42.97316" lon="0.29578">
        <ele>1830.3</ele>
        <time>2026-07-07T09:31:01Z</time>
      </trkpt>
      <trkpt lat="42.97316" lon="0.29578">
        <ele>1830.3</ele>
        <time>2026-07-07T09:31:02Z</time>
      </trkpt>
      <trkpt lat="42.97316" lon="0.29578">
        <ele>1830.3</ele>
        <time>2026-07-07T09:31:02Z</time>
      </trkpt>
      <trkpt lat="42.97317" lon="0.29578">
        <ele>1830.3</ele>
        <time>2026-07-07T09:31:03Z</time>
      </trkpt>
      <trkpt lat="42.97316" lon="0.29578">
        <ele>1830.3</ele>
        <time>2026-07-07T09:31:03Z</time>
      </trkpt>
      <trkpt lat="42.97316" lon="0.29579">
        <ele>1830.3</ele>
        <time>2026-07-07T09:31:04Z</time>
      </trkpt>
      <trkpt lat="42.97315" lon="0.29579">
        <ele>1830.3</ele>
        <time>2026-07-07T09:31:05Z</time>
      </trkpt>
      <trkpt lat="42.97315" lon="0.29579">
        <ele>1830.3</ele>
        <time>2026-07-07T09:31:06Z</time>
      </trkpt>
      <trkpt lat="42.97315" lon="0.29579">
        <ele>1829.3</ele>
        <time>2026-07-07T09:31:07Z</time>
      </trkpt>
      <trkpt lat="42.97315" lon="0.29579">
        <ele>1829.3</ele>
        <time>2026-07-07T09:31:08Z</time>
      </trkpt>
      <trkpt lat="42.97315" lon="0.29579">
        <ele>1829.3</ele>
        <time>2026-07-07T09:31:09Z</time>
      </trkpt>
      <trkpt lat="42.97314" lon="0.29578">
        <ele>1829.3</ele>
        <time>2026-07-07T09:31:10Z</time>
      </trkpt>
      <trkpt lat="42.97314" lon="0.29579">
        <ele>1828.3</ele>
        <time>2026-07-07T09:31:10Z</time>
      </trkpt>
      <trkpt lat="42.97314" lon="0.29579">
        <ele>1828.3</ele>
        <time>2026-07-07T09:31:11Z</time>
      </trkpt>
      <trkpt lat="42.97313" lon="0.29579">
        <ele>1828.3</ele>
        <time>2026-07-07T09:31:11Z</time>
      </trkpt>
      <trkpt lat="42.97313" lon="0.2958">
        <ele>1829.3</ele>
        <time>2026-07-07T09:31:12Z</time>
      </trkpt>
      <trkpt lat="42.97312" lon="0.29581">
        <ele>1829.3</ele>
        <time>2026-07-07T09:31:13Z</time>
      </trkpt>
      <trkpt lat="42.97311" lon="0.29581">
        <ele>1829.3</ele>
        <time>2026-07-07T09:31:14Z</time>
      </trkpt>
      <trkpt lat="42.97311" lon="0.29581">
        <ele>1829.3</ele>
        <time>2026-07-07T09:31:14Z</time>
      </trkpt>
      <trkpt lat="42.9731" lon="0.29582">
        <ele>1829.3</ele>
        <time>2026-07-07T09:31:15Z</time>
      </trkpt>
      <trkpt lat="42.9731" lon="0.29582">
        <ele>1829.3</ele>
        <time>2026-07-07T09:31:16Z</time>
      </trkpt>
      <trkpt lat="42.97309" lon="0.29583">
        <ele>1829.3</ele>
        <time>2026-07-07T09:31:16Z</time>
      </trkpt>
      <trkpt lat="42.97309" lon="0.29583">
        <ele>1829.3</ele>
        <time>2026-07-07T09:31:17Z</time>
      </trkpt>
      <trkpt lat="42.97308" lon="0.29584">
        <ele>1829.3</ele>
        <time>2026-07-07T09:31:17Z</time>
      </trkpt>
      <trkpt lat="42.97308" lon="0.29584">
        <ele>1830.3</ele>
        <time>2026-07-07T09:31:18Z</time>
      </trkpt>
      <trkpt lat="42.97307" lon="0.29584">
        <ele>1830.3</ele>
        <time>2026-07-07T09:31:19Z</time>
      </trkpt>
      <trkpt lat="42.97307" lon="0.29584">
        <ele>1829.3</ele>
        <time>2026-07-07T09:31:20Z</time>
      </trkpt>
      <trkpt lat="42.97306" lon="0.29584">
        <ele>1829.3</ele>
        <time>2026-07-07T09:31:20Z</time>
      </trkpt>
      <trkpt lat="42.97306" lon="0.29584">
        <ele>1829.3</ele>
        <time>2026-07-07T09:31:21Z</time>
      </trkpt>
      <trkpt lat="42.97306" lon="0.29585">
        <ele>1829.3</ele>
        <time>2026-07-07T09:31:21Z</time>
      </trkpt>
      <trkpt lat="42.97306" lon="0.29585">
        <ele>1829.3</ele>
        <time>2026-07-07T09:31:22Z</time>
      </trkpt>
      <trkpt lat="42.97306" lon="0.29587">
        <ele>1828.3</ele>
        <time>2026-07-07T09:31:23Z</time>
      </trkpt>
      <trkpt lat="42.97306" lon="0.29587">
        <ele>1828.3</ele>
        <time>2026-07-07T09:31:24Z</time>
      </trkpt>
      <trkpt lat="42.97305" lon="0.29588">
        <ele>1827.3</ele>
        <time>2026-07-07T09:31:24Z</time>
      </trkpt>
      <trkpt lat="42.97305" lon="0.29588">
        <ele>1827.3</ele>
        <time>2026-07-07T09:31:25Z</time>
      </trkpt>
      <trkpt lat="42.97304" lon="0.29588">
        <ele>1828.3</ele>
        <time>2026-07-07T09:31:26Z</time>
      </trkpt>
      <trkpt lat="42.97304" lon="0.29588">
        <ele>1828.3</ele>
        <time>2026-07-07T09:31:27Z</time>
      </trkpt>
      <trkpt lat="42.97303" lon="0.29588">
        <ele>1828.3</ele>
        <time>2026-07-07T09:31:27Z</time>
      </trkpt>
      <trkpt lat="42.97303" lon="0.29588">
        <ele>1828.3</ele>
        <time>2026-07-07T09:31:28Z</time>
      </trkpt>
      <trkpt lat="42.97302" lon="0.29588">
        <ele>1828.3</ele>
        <time>2026-07-07T09:31:29Z</time>
      </trkpt>
      <trkpt lat="42.97302" lon="0.29588">
        <ele>1828.3</ele>
        <time>2026-07-07T09:31:29Z</time>
      </trkpt>
      <trkpt lat="42.97301" lon="0.29588">
        <ele>1828.3</ele>
        <time>2026-07-07T09:31:30Z</time>
      </trkpt>
      <trkpt lat="42.97301" lon="0.29589">
        <ele>1828.3</ele>
        <time>2026-07-07T09:31:31Z</time>
      </trkpt>
      <trkpt lat="42.973" lon="0.29591">
        <ele>1828.3</ele>
        <time>2026-07-07T09:31:31Z</time>
      </trkpt>
      <trkpt lat="42.973" lon="0.29591">
        <ele>1828.3</ele>
        <time>2026-07-07T09:31:32Z</time>
      </trkpt>
      <trkpt lat="42.973" lon="0.29592">
        <ele>1828.3</ele>
        <time>2026-07-07T09:31:32Z</time>
      </trkpt>
      <trkpt lat="42.973" lon="0.29593">
        <ele>1828.3</ele>
        <time>2026-07-07T09:31:33Z</time>
      </trkpt>
      <trkpt lat="42.973" lon="0.29594">
        <ele>1827.3</ele>
        <time>2026-07-07T09:31:34Z</time>
      </trkpt>
      <trkpt lat="42.973" lon="0.29594">
        <ele>1828.3</ele>
        <time>2026-07-07T09:31:34Z</time>
      </trkpt>
      <trkpt lat="42.97299" lon="0.29595">
        <ele>1828.3</ele>
        <time>2026-07-07T09:31:35Z</time>
      </trkpt>
      <trkpt lat="42.97299" lon="0.29596">
        <ele>1827.3</ele>
        <time>2026-07-07T09:31:36Z</time>
      </trkpt>
      <trkpt lat="42.97298" lon="0.29596">
        <ele>1827.3</ele>
        <time>2026-07-07T09:31:37Z</time>
      </trkpt>
      <trkpt lat="42.97298" lon="0.29596">
        <ele>1827.3</ele>
        <time>2026-07-07T09:31:37Z</time>
      </trkpt>
      <trkpt lat="42.97298" lon="0.29597">
        <ele>1827.3</ele>
        <time>2026-07-07T09:31:38Z</time>
      </trkpt>
      <trkpt lat="42.97298" lon="0.29598">
        <ele>1827.3</ele>
        <time>2026-07-07T09:31:39Z</time>
      </trkpt>
      <trkpt lat="42.97297" lon="0.29599">
        <ele>1827.3</ele>
        <time>2026-07-07T09:31:39Z</time>
      </trkpt>
      <trkpt lat="42.97297" lon="0.29599">
        <ele>1827.3</ele>
        <time>2026-07-07T09:31:40Z</time>
      </trkpt>
      <trkpt lat="42.97297" lon="0.29599">
        <ele>1827.3</ele>
        <time>2026-07-07T09:31:40Z</time>
      </trkpt>
      <trkpt lat="42.97297" lon="0.296">
        <ele>1827.3</ele>
        <time>2026-07-07T09:31:41Z</time>
      </trkpt>
      <trkpt lat="42.97296" lon="0.296">
        <ele>1827.3</ele>
        <time>2026-07-07T09:31:42Z</time>
      </trkpt>
      <trkpt lat="42.97296" lon="0.296">
        <ele>1826.3</ele>
        <time>2026-07-07T09:31:42Z</time>
      </trkpt>
      <trkpt lat="42.97296" lon="0.29601">
        <ele>1826.3</ele>
        <time>2026-07-07T09:31:43Z</time>
      </trkpt>
      <trkpt lat="42.97295" lon="0.29601">
        <ele>1826.3</ele>
        <time>2026-07-07T09:31:44Z</time>
      </trkpt>
      <trkpt lat="42.97295" lon="0.29602">
        <ele>1826.3</ele>
        <time>2026-07-07T09:31:44Z</time>
      </trkpt>
      <trkpt lat="42.97295" lon="0.29603">
        <ele>1826.3</ele>
        <time>2026-07-07T09:31:45Z</time>
      </trkpt>
      <trkpt lat="42.97295" lon="0.29603">
        <ele>1825.3</ele>
        <time>2026-07-07T09:31:46Z</time>
      </trkpt>
      <trkpt lat="42.97295" lon="0.29604">
        <ele>1826.3</ele>
        <time>2026-07-07T09:31:46Z</time>
      </trkpt>
      <trkpt lat="42.97295" lon="0.29605">
        <ele>1826.3</ele>
        <time>2026-07-07T09:31:47Z</time>
      </trkpt>
      <trkpt lat="42.97295" lon="0.29605">
        <ele>1826.3</ele>
        <time>2026-07-07T09:31:47Z</time>
      </trkpt>
      <trkpt lat="42.97294" lon="0.29606">
        <ele>1826.3</ele>
        <time>2026-07-07T09:31:48Z</time>
      </trkpt>
      <trkpt lat="42.97294" lon="0.29606">
        <ele>1826.3</ele>
        <time>2026-07-07T09:31:49Z</time>
      </trkpt>
      <trkpt lat="42.97294" lon="0.29607">
        <ele>1825.3</ele>
        <time>2026-07-07T09:31:49Z</time>
      </trkpt>
      <trkpt lat="42.97293" lon="0.29607">
        <ele>1825.3</ele>
        <time>2026-07-07T09:31:50Z</time>
      </trkpt>
      <trkpt lat="42.97293" lon="0.29607">
        <ele>1826.3</ele>
        <time>2026-07-07T09:31:50Z</time>
      </trkpt>
      <trkpt lat="42.97292" lon="0.29607">
        <ele>1826.3</ele>
        <time>2026-07-07T09:31:51Z</time>
      </trkpt>
      <trkpt lat="42.97292" lon="0.29607">
        <ele>1825.3</ele>
        <time>2026-07-07T09:31:52Z</time>
      </trkpt>
      <trkpt lat="42.97291" lon="0.29608">
        <ele>1825.3</ele>
        <time>2026-07-07T09:31:52Z</time>
      </trkpt>
      <trkpt lat="42.97291" lon="0.29608">
        <ele>1825.3</ele>
        <time>2026-07-07T09:31:53Z</time>
      </trkpt>
      <trkpt lat="42.9729" lon="0.29608">
        <ele>1825.3</ele>
        <time>2026-07-07T09:31:53Z</time>
      </trkpt>
      <trkpt lat="42.9729" lon="0.29608">
        <ele>1825.3</ele>
        <time>2026-07-07T09:31:54Z</time>
      </trkpt>
      <trkpt lat="42.97289" lon="0.29608">
        <ele>1825.3</ele>
        <time>2026-07-07T09:31:54Z</time>
      </trkpt>
      <trkpt lat="42.97289" lon="0.29609">
        <ele>1824.3</ele>
        <time>2026-07-07T09:31:55Z</time>
      </trkpt>
      <trkpt lat="42.97288" lon="0.29609">
        <ele>1824.3</ele>
        <time>2026-07-07T09:31:55Z</time>
      </trkpt>
      <trkpt lat="42.97288" lon="0.29609">
        <ele>1824.3</ele>
        <time>2026-07-07T09:31:56Z</time>
      </trkpt>
      <trkpt lat="42.97288" lon="0.2961">
        <ele>1824.3</ele>
        <time>2026-07-07T09:31:57Z</time>
      </trkpt>
      <trkpt lat="42.97288" lon="0.2961">
        <ele>1824.3</ele>
        <time>2026-07-07T09:31:57Z</time>
      </trkpt>
      <trkpt lat="42.97287" lon="0.2961">
        <ele>1825.3</ele>
        <time>2026-07-07T09:31:58Z</time>
      </trkpt>
      <trkpt lat="42.97287" lon="0.29609">
        <ele>1825.3</ele>
        <time>2026-07-07T09:31:58Z</time>
      </trkpt>
      <trkpt lat="42.97286" lon="0.29609">
        <ele>1825.3</ele>
        <time>2026-07-07T09:31:59Z</time>
      </trkpt>
      <trkpt lat="42.97286" lon="0.29609">
        <ele>1825.3</ele>
        <time>2026-07-07T09:32:00Z</time>
      </trkpt>
      <trkpt lat="42.97285" lon="0.29609">
        <ele>1825.3</ele>
        <time>2026-07-07T09:32:00Z</time>
      </trkpt>
      <trkpt lat="42.97285" lon="0.29609">
        <ele>1825.3</ele>
        <time>2026-07-07T09:32:01Z</time>
      </trkpt>
      <trkpt lat="42.97284" lon="0.29609">
        <ele>1825.3</ele>
        <time>2026-07-07T09:32:01Z</time>
      </trkpt>
      <trkpt lat="42.97284" lon="0.2961">
        <ele>1825.3</ele>
        <time>2026-07-07T09:32:02Z</time>
      </trkpt>
      <trkpt lat="42.97283" lon="0.2961">
        <ele>1824.3</ele>
        <time>2026-07-07T09:32:03Z</time>
      </trkpt>
      <trkpt lat="42.97283" lon="0.2961">
        <ele>1824.3</ele>
        <time>2026-07-07T09:32:03Z</time>
      </trkpt>
      <trkpt lat="42.97283" lon="0.2961">
        <ele>1824.3</ele>
        <time>2026-07-07T09:32:04Z</time>
      </trkpt>
      <trkpt lat="42.97283" lon="0.29611">
        <ele>1823.3</ele>
        <time>2026-07-07T09:32:04Z</time>
      </trkpt>
      <trkpt lat="42.97282" lon="0.29611">
        <ele>1823.3</ele>
        <time>2026-07-07T09:32:05Z</time>
      </trkpt>
      <trkpt lat="42.97282" lon="0.29612">
        <ele>1822.3</ele>
        <time>2026-07-07T09:32:06Z</time>
      </trkpt>
      <trkpt lat="42.97282" lon="0.29613">
        <ele>1821.3</ele>
        <time>2026-07-07T09:32:06Z</time>
      </trkpt>
      <trkpt lat="42.97281" lon="0.29613">
        <ele>1821.3</ele>
        <time>2026-07-07T09:32:07Z</time>
      </trkpt>
      <trkpt lat="42.97281" lon="0.29613">
        <ele>1821.3</ele>
        <time>2026-07-07T09:32:07Z</time>
      </trkpt>
      <trkpt lat="42.9728" lon="0.29613">
        <ele>1821.3</ele>
        <time>2026-07-07T09:32:08Z</time>
      </trkpt>
      <trkpt lat="42.9728" lon="0.29613">
        <ele>1821.3</ele>
        <time>2026-07-07T09:32:09Z</time>
      </trkpt>
      <trkpt lat="42.97279" lon="0.29613">
        <ele>1821.3</ele>
        <time>2026-07-07T09:32:09Z</time>
      </trkpt>
      <trkpt lat="42.97278" lon="0.29612">
        <ele>1821.3</ele>
        <time>2026-07-07T09:32:10Z</time>
      </trkpt>
      <trkpt lat="42.97278" lon="0.29612">
        <ele>1820.3</ele>
        <time>2026-07-07T09:32:11Z</time>
      </trkpt>
      <trkpt lat="42.97278" lon="0.29612">
        <ele>1820.3</ele>
        <time>2026-07-07T09:32:11Z</time>
      </trkpt>
      <trkpt lat="42.97277" lon="0.29612">
        <ele>1820.3</ele>
        <time>2026-07-07T09:32:12Z</time>
      </trkpt>
      <trkpt lat="42.97277" lon="0.29612">
        <ele>1821.3</ele>
        <time>2026-07-07T09:32:12Z</time>
      </trkpt>
      <trkpt lat="42.97276" lon="0.29611">
        <ele>1821.3</ele>
        <time>2026-07-07T09:32:13Z</time>
      </trkpt>
      <trkpt lat="42.97276" lon="0.29611">
        <ele>1821.3</ele>
        <time>2026-07-07T09:32:14Z</time>
      </trkpt>
      <trkpt lat="42.97275" lon="0.29611">
        <ele>1821.3</ele>
        <time>2026-07-07T09:32:14Z</time>
      </trkpt>
      <trkpt lat="42.97275" lon="0.29611">
        <ele>1821.3</ele>
        <time>2026-07-07T09:32:15Z</time>
      </trkpt>
      <trkpt lat="42.97274" lon="0.29611">
        <ele>1821.3</ele>
        <time>2026-07-07T09:32:15Z</time>
      </trkpt>
      <trkpt lat="42.97274" lon="0.29612">
        <ele>1820.3</ele>
        <time>2026-07-07T09:32:16Z</time>
      </trkpt>
      <trkpt lat="42.97274" lon="0.29613">
        <ele>1819.3</ele>
        <time>2026-07-07T09:32:16Z</time>
      </trkpt>
      <trkpt lat="42.97274" lon="0.29613">
        <ele>1819.3</ele>
        <time>2026-07-07T09:32:17Z</time>
      </trkpt>
      <trkpt lat="42.97273" lon="0.29613">
        <ele>1819.3</ele>
        <time>2026-07-07T09:32:17Z</time>
      </trkpt>
      <trkpt lat="42.97273" lon="0.29613">
        <ele>1819.3</ele>
        <time>2026-07-07T09:32:18Z</time>
      </trkpt>
      <trkpt lat="42.97272" lon="0.29614">
        <ele>1819.3</ele>
        <time>2026-07-07T09:32:19Z</time>
      </trkpt>
      <trkpt lat="42.97271" lon="0.29614">
        <ele>1819.3</ele>
        <time>2026-07-07T09:32:20Z</time>
      </trkpt>
      <trkpt lat="42.97271" lon="0.29615">
        <ele>1819.3</ele>
        <time>2026-07-07T09:32:21Z</time>
      </trkpt>
      <trkpt lat="42.97271" lon="0.29615">
        <ele>1819.3</ele>
        <time>2026-07-07T09:32:21Z</time>
      </trkpt>
      <trkpt lat="42.9727" lon="0.29615">
        <ele>1819.3</ele>
        <time>2026-07-07T09:32:22Z</time>
      </trkpt>
      <trkpt lat="42.9727" lon="0.29615">
        <ele>1819.3</ele>
        <time>2026-07-07T09:32:22Z</time>
      </trkpt>
      <trkpt lat="42.97269" lon="0.29616">
        <ele>1819.3</ele>
        <time>2026-07-07T09:32:23Z</time>
      </trkpt>
      <trkpt lat="42.97269" lon="0.29615">
        <ele>1819.3</ele>
        <time>2026-07-07T09:32:24Z</time>
      </trkpt>
      <trkpt lat="42.97268" lon="0.29616">
        <ele>1819.3</ele>
        <time>2026-07-07T09:32:24Z</time>
      </trkpt>
      <trkpt lat="42.97267" lon="0.29616">
        <ele>1819.3</ele>
        <time>2026-07-07T09:32:25Z</time>
      </trkpt>
      <trkpt lat="42.97267" lon="0.29616">
        <ele>1819.3</ele>
        <time>2026-07-07T09:32:25Z</time>
      </trkpt>
      <trkpt lat="42.97266" lon="0.29616">
        <ele>1818.3</ele>
        <time>2026-07-07T09:32:26Z</time>
      </trkpt>
      <trkpt lat="42.97266" lon="0.29616">
        <ele>1818.3</ele>
        <time>2026-07-07T09:32:26Z</time>
      </trkpt>
      <trkpt lat="42.97265" lon="0.29617">
        <ele>1818.3</ele>
        <time>2026-07-07T09:32:27Z</time>
      </trkpt>
      <trkpt lat="42.97265" lon="0.29617">
        <ele>1818.3</ele>
        <time>2026-07-07T09:32:28Z</time>
      </trkpt>
      <trkpt lat="42.97264" lon="0.29617">
        <ele>1817.3</ele>
        <time>2026-07-07T09:32:28Z</time>
      </trkpt>
      <trkpt lat="42.97263" lon="0.29617">
        <ele>1817.3</ele>
        <time>2026-07-07T09:32:29Z</time>
      </trkpt>
      <trkpt lat="42.97263" lon="0.29617">
        <ele>1817.3</ele>
        <time>2026-07-07T09:32:29Z</time>
      </trkpt>
      <trkpt lat="42.97262" lon="0.29617">
        <ele>1817.3</ele>
        <time>2026-07-07T09:32:30Z</time>
      </trkpt>
      <trkpt lat="42.97262" lon="0.29617">
        <ele>1817.3</ele>
        <time>2026-07-07T09:32:31Z</time>
      </trkpt>
      <trkpt lat="42.97261" lon="0.29617">
        <ele>1816.3</ele>
        <time>2026-07-07T09:32:31Z</time>
      </trkpt>
      <trkpt lat="42.9726" lon="0.29618">
        <ele>1815.3</ele>
        <time>2026-07-07T09:32:32Z</time>
      </trkpt>
      <trkpt lat="42.9726" lon="0.29618">
        <ele>1815.3</ele>
        <time>2026-07-07T09:32:33Z</time>
      </trkpt>
      <trkpt lat="42.97259" lon="0.29619">
        <ele>1815.3</ele>
        <time>2026-07-07T09:32:33Z</time>
      </trkpt>
      <trkpt lat="42.97259" lon="0.29619">
        <ele>1815.3</ele>
        <time>2026-07-07T09:32:34Z</time>
      </trkpt>
      <trkpt lat="42.97258" lon="0.2962">
        <ele>1815.3</ele>
        <time>2026-07-07T09:32:35Z</time>
      </trkpt>
      <trkpt lat="42.97258" lon="0.2962">
        <ele>1814.3</ele>
        <time>2026-07-07T09:32:35Z</time>
      </trkpt>
      <trkpt lat="42.97257" lon="0.2962">
        <ele>1814.3</ele>
        <time>2026-07-07T09:32:36Z</time>
      </trkpt>
      <trkpt lat="42.97257" lon="0.29621">
        <ele>1814.3</ele>
        <time>2026-07-07T09:32:37Z</time>
      </trkpt>
      <trkpt lat="42.97256" lon="0.29621">
        <ele>1813.3</ele>
        <time>2026-07-07T09:32:37Z</time>
      </trkpt>
      <trkpt lat="42.97256" lon="0.29622">
        <ele>1813.3</ele>
        <time>2026-07-07T09:32:38Z</time>
      </trkpt>
      <trkpt lat="42.97255" lon="0.29622">
        <ele>1813.3</ele>
        <time>2026-07-07T09:32:38Z</time>
      </trkpt>
      <trkpt lat="42.97255" lon="0.29623">
        <ele>1813.3</ele>
        <time>2026-07-07T09:32:39Z</time>
      </trkpt>
      <trkpt lat="42.97254" lon="0.29623">
        <ele>1812.3</ele>
        <time>2026-07-07T09:32:40Z</time>
      </trkpt>
      <trkpt lat="42.97254" lon="0.29623">
        <ele>1812.3</ele>
        <time>2026-07-07T09:32:40Z</time>
      </trkpt>
      <trkpt lat="42.97253" lon="0.29623">
        <ele>1812.3</ele>
        <time>2026-07-07T09:32:41Z</time>
      </trkpt>
      <trkpt lat="42.97253" lon="0.29624">
        <ele>1812.3</ele>
        <time>2026-07-07T09:32:42Z</time>
      </trkpt>
      <trkpt lat="42.97253" lon="0.29624">
        <ele>1812.3</ele>
        <time>2026-07-07T09:32:42Z</time>
      </trkpt>
      <trkpt lat="42.97252" lon="0.29624">
        <ele>1812.3</ele>
        <time>2026-07-07T09:32:43Z</time>
      </trkpt>
      <trkpt lat="42.97252" lon="0.29624">
        <ele>1812.3</ele>
        <time>2026-07-07T09:32:44Z</time>
      </trkpt>
      <trkpt lat="42.97251" lon="0.29625">
        <ele>1812.3</ele>
        <time>2026-07-07T09:32:44Z</time>
      </trkpt>
      <trkpt lat="42.9725" lon="0.29625">
        <ele>1812.3</ele>
        <time>2026-07-07T09:32:45Z</time>
      </trkpt>
      <trkpt lat="42.9725" lon="0.29625">
        <ele>1811.3</ele>
        <time>2026-07-07T09:32:46Z</time>
      </trkpt>
      <trkpt lat="42.9725" lon="0.29626">
        <ele>1811.3</ele>
        <time>2026-07-07T09:32:46Z</time>
      </trkpt>
      <trkpt lat="42.9725" lon="0.29626">
        <ele>1811.3</ele>
        <time>2026-07-07T09:32:47Z</time>
      </trkpt>
      <trkpt lat="42.9725" lon="0.29626">
        <ele>1811.3</ele>
        <time>2026-07-07T09:32:47Z</time>
      </trkpt>
      <trkpt lat="42.97249" lon="0.29627">
        <ele>1811.3</ele>
        <time>2026-07-07T09:32:48Z</time>
      </trkpt>
      <trkpt lat="42.97249" lon="0.29627">
        <ele>1810.3</ele>
        <time>2026-07-07T09:32:48Z</time>
      </trkpt>
      <trkpt lat="42.97248" lon="0.29627">
        <ele>1810.3</ele>
        <time>2026-07-07T09:32:49Z</time>
      </trkpt>
      <trkpt lat="42.97247" lon="0.29627">
        <ele>1810.3</ele>
        <time>2026-07-07T09:32:50Z</time>
      </trkpt>
      <trkpt lat="42.97248" lon="0.29627">
        <ele>1810.3</ele>
        <time>2026-07-07T09:32:50Z</time>
      </trkpt>
      <trkpt lat="42.97247" lon="0.29627">
        <ele>1810.3</ele>
        <time>2026-07-07T09:32:51Z</time>
      </trkpt>
      <trkpt lat="42.97247" lon="0.29627">
        <ele>1810.3</ele>
        <time>2026-07-07T09:32:52Z</time>
      </trkpt>
      <trkpt lat="42.97246" lon="0.29628">
        <ele>1810.3</ele>
        <time>2026-07-07T09:32:52Z</time>
      </trkpt>
      <trkpt lat="42.97246" lon="0.29628">
        <ele>1810.3</ele>
        <time>2026-07-07T09:32:53Z</time>
      </trkpt>
      <trkpt lat="42.97245" lon="0.29629">
        <ele>1810.3</ele>
        <time>2026-07-07T09:32:53Z</time>
      </trkpt>
      <trkpt lat="42.97245" lon="0.2963">
        <ele>1810.3</ele>
        <time>2026-07-07T09:32:54Z</time>
      </trkpt>
      <trkpt lat="42.97245" lon="0.2963">
        <ele>1809.3</ele>
        <time>2026-07-07T09:32:54Z</time>
      </trkpt>
      <trkpt lat="42.97245" lon="0.29631">
        <ele>1809.3</ele>
        <time>2026-07-07T09:32:55Z</time>
      </trkpt>
      <trkpt lat="42.97244" lon="0.29632">
        <ele>1809.3</ele>
        <time>2026-07-07T09:32:56Z</time>
      </trkpt>
      <trkpt lat="42.97244" lon="0.29632">
        <ele>1809.3</ele>
        <time>2026-07-07T09:32:56Z</time>
      </trkpt>
      <trkpt lat="42.97244" lon="0.29633">
        <ele>1809.3</ele>
        <time>2026-07-07T09:32:57Z</time>
      </trkpt>
      <trkpt lat="42.97244" lon="0.29633">
        <ele>1809.3</ele>
        <time>2026-07-07T09:32:57Z</time>
      </trkpt>
      <trkpt lat="42.97243" lon="0.29634">
        <ele>1809.3</ele>
        <time>2026-07-07T09:32:58Z</time>
      </trkpt>
      <trkpt lat="42.97243" lon="0.29634">
        <ele>1808.3</ele>
        <time>2026-07-07T09:32:59Z</time>
      </trkpt>
      <trkpt lat="42.97242" lon="0.29634">
        <ele>1808.3</ele>
        <time>2026-07-07T09:32:59Z</time>
      </trkpt>
      <trkpt lat="42.97242" lon="0.29634">
        <ele>1808.3</ele>
        <time>2026-07-07T09:33:00Z</time>
      </trkpt>
      <trkpt lat="42.97241" lon="0.29634">
        <ele>1808.3</ele>
        <time>2026-07-07T09:33:01Z</time>
      </trkpt>
      <trkpt lat="42.9724" lon="0.29633">
        <ele>1808.3</ele>
        <time>2026-07-07T09:33:02Z</time>
      </trkpt>
      <trkpt lat="42.9724" lon="0.29634">
        <ele>1808.3</ele>
        <time>2026-07-07T09:33:02Z</time>
      </trkpt>
      <trkpt lat="42.9724" lon="0.29634">
        <ele>1808.3</ele>
        <time>2026-07-07T09:33:03Z</time>
      </trkpt>
      <trkpt lat="42.97239" lon="0.29634">
        <ele>1807.3</ele>
        <time>2026-07-07T09:33:03Z</time>
      </trkpt>
      <trkpt lat="42.97239" lon="0.29634">
        <ele>1807.3</ele>
        <time>2026-07-07T09:33:04Z</time>
      </trkpt>
      <trkpt lat="42.97238" lon="0.29634">
        <ele>1807.3</ele>
        <time>2026-07-07T09:33:04Z</time>
      </trkpt>
      <trkpt lat="42.97238" lon="0.29635">
        <ele>1807.3</ele>
        <time>2026-07-07T09:33:05Z</time>
      </trkpt>
      <trkpt lat="42.97238" lon="0.29635">
        <ele>1806.3</ele>
        <time>2026-07-07T09:33:05Z</time>
      </trkpt>
      <trkpt lat="42.97238" lon="0.29636">
        <ele>1806.3</ele>
        <time>2026-07-07T09:33:06Z</time>
      </trkpt>
      <trkpt lat="42.97237" lon="0.29636">
        <ele>1806.3</ele>
        <time>2026-07-07T09:33:07Z</time>
      </trkpt>
      <trkpt lat="42.97237" lon="0.29636">
        <ele>1806.3</ele>
        <time>2026-07-07T09:33:07Z</time>
      </trkpt>
      <trkpt lat="42.97236" lon="0.29637">
        <ele>1806.3</ele>
        <time>2026-07-07T09:33:08Z</time>
      </trkpt>
      <trkpt lat="42.97235" lon="0.29637">
        <ele>1806.3</ele>
        <time>2026-07-07T09:33:09Z</time>
      </trkpt>
      <trkpt lat="42.97235" lon="0.29637">
        <ele>1805.3</ele>
        <time>2026-07-07T09:33:10Z</time>
      </trkpt>
      <trkpt lat="42.97235" lon="0.29637">
        <ele>1805.3</ele>
        <time>2026-07-07T09:33:10Z</time>
      </trkpt>
      <trkpt lat="42.97234" lon="0.29638">
        <ele>1805.3</ele>
        <time>2026-07-07T09:33:11Z</time>
      </trkpt>
      <trkpt lat="42.97234" lon="0.29638">
        <ele>1804.3</ele>
        <time>2026-07-07T09:33:11Z</time>
      </trkpt>
      <trkpt lat="42.97233" lon="0.29639">
        <ele>1804.3</ele>
        <time>2026-07-07T09:33:12Z</time>
      </trkpt>
      <trkpt lat="42.97233" lon="0.29639">
        <ele>1804.3</ele>
        <time>2026-07-07T09:33:13Z</time>
      </trkpt>
      <trkpt lat="42.97233" lon="0.2964">
        <ele>1804.3</ele>
        <time>2026-07-07T09:33:13Z</time>
      </trkpt>
      <trkpt lat="42.97233" lon="0.2964">
        <ele>1804.3</ele>
        <time>2026-07-07T09:33:14Z</time>
      </trkpt>
      <trkpt lat="42.97233" lon="0.2964">
        <ele>1803.3</ele>
        <time>2026-07-07T09:33:14Z</time>
      </trkpt>
      <trkpt lat="42.97232" lon="0.29641">
        <ele>1803.3</ele>
        <time>2026-07-07T09:33:15Z</time>
      </trkpt>
      <trkpt lat="42.97232" lon="0.29642">
        <ele>1803.3</ele>
        <time>2026-07-07T09:33:15Z</time>
      </trkpt>
      <trkpt lat="42.97231" lon="0.29642">
        <ele>1803.3</ele>
        <time>2026-07-07T09:33:16Z</time>
      </trkpt>
      <trkpt lat="42.97231" lon="0.29642">
        <ele>1802.3</ele>
        <time>2026-07-07T09:33:16Z</time>
      </trkpt>
      <trkpt lat="42.9723" lon="0.29643">
        <ele>1802.3</ele>
        <time>2026-07-07T09:33:17Z</time>
      </trkpt>
      <trkpt lat="42.9723" lon="0.29643">
        <ele>1803.3</ele>
        <time>2026-07-07T09:33:18Z</time>
      </trkpt>
      <trkpt lat="42.97229" lon="0.29643">
        <ele>1803.3</ele>
        <time>2026-07-07T09:33:18Z</time>
      </trkpt>
      <trkpt lat="42.97229" lon="0.29643">
        <ele>1803.3</ele>
        <time>2026-07-07T09:33:19Z</time>
      </trkpt>
      <trkpt lat="42.97228" lon="0.29643">
        <ele>1803.3</ele>
        <time>2026-07-07T09:33:19Z</time>
      </trkpt>
      <trkpt lat="42.97228" lon="0.29643">
        <ele>1803.3</ele>
        <time>2026-07-07T09:33:20Z</time>
      </trkpt>
      <trkpt lat="42.97227" lon="0.29643">
        <ele>1803.3</ele>
        <time>2026-07-07T09:33:21Z</time>
      </trkpt>
      <trkpt lat="42.97227" lon="0.29643">
        <ele>1803.3</ele>
        <time>2026-07-07T09:33:21Z</time>
      </trkpt>
      <trkpt lat="42.97226" lon="0.29642">
        <ele>1804.3</ele>
        <time>2026-07-07T09:33:22Z</time>
      </trkpt>
      <trkpt lat="42.97226" lon="0.29642">
        <ele>1804.3</ele>
        <time>2026-07-07T09:33:22Z</time>
      </trkpt>
      <trkpt lat="42.97225" lon="0.29642">
        <ele>1803.3</ele>
        <time>2026-07-07T09:33:23Z</time>
      </trkpt>
      <trkpt lat="42.97225" lon="0.29642">
        <ele>1803.3</ele>
        <time>2026-07-07T09:33:23Z</time>
      </trkpt>
      <trkpt lat="42.97224" lon="0.29642">
        <ele>1803.3</ele>
        <time>2026-07-07T09:33:24Z</time>
      </trkpt>
      <trkpt lat="42.97224" lon="0.29642">
        <ele>1802.3</ele>
        <time>2026-07-07T09:33:24Z</time>
      </trkpt>
      <trkpt lat="42.97223" lon="0.29642">
        <ele>1802.3</ele>
        <time>2026-07-07T09:33:25Z</time>
      </trkpt>
      <trkpt lat="42.97223" lon="0.29642">
        <ele>1802.3</ele>
        <time>2026-07-07T09:33:25Z</time>
      </trkpt>
      <trkpt lat="42.97223" lon="0.29642">
        <ele>1802.3</ele>
        <time>2026-07-07T09:33:26Z</time>
      </trkpt>
      <trkpt lat="42.97222" lon="0.29641">
        <ele>1802.3</ele>
        <time>2026-07-07T09:33:26Z</time>
      </trkpt>
      <trkpt lat="42.97222" lon="0.29641">
        <ele>1802.3</ele>
        <time>2026-07-07T09:33:27Z</time>
      </trkpt>
      <trkpt lat="42.97221" lon="0.29641">
        <ele>1801.3</ele>
        <time>2026-07-07T09:33:28Z</time>
      </trkpt>
      <trkpt lat="42.97221" lon="0.29641">
        <ele>1801.3</ele>
        <time>2026-07-07T09:33:28Z</time>
      </trkpt>
      <trkpt lat="42.9722" lon="0.29641">
        <ele>1801.3</ele>
        <time>2026-07-07T09:33:29Z</time>
      </trkpt>
      <trkpt lat="42.9722" lon="0.29641">
        <ele>1801.3</ele>
        <time>2026-07-07T09:33:29Z</time>
      </trkpt>
      <trkpt lat="42.97219" lon="0.29641">
        <ele>1801.3</ele>
        <time>2026-07-07T09:33:30Z</time>
      </trkpt>
      <trkpt lat="42.97219" lon="0.29641">
        <ele>1800.3</ele>
        <time>2026-07-07T09:33:30Z</time>
      </trkpt>
      <trkpt lat="42.97218" lon="0.29641">
        <ele>1799.3</ele>
        <time>2026-07-07T09:33:31Z</time>
      </trkpt>
      <trkpt lat="42.97217" lon="0.29641">
        <ele>1799.3</ele>
        <time>2026-07-07T09:33:32Z</time>
      </trkpt>
      <trkpt lat="42.97217" lon="0.2964">
        <ele>1799.3</ele>
        <time>2026-07-07T09:33:32Z</time>
      </trkpt>
      <trkpt lat="42.97216" lon="0.2964">
        <ele>1799.3</ele>
        <time>2026-07-07T09:33:33Z</time>
      </trkpt>
      <trkpt lat="42.97216" lon="0.2964">
        <ele>1799.3</ele>
        <time>2026-07-07T09:33:33Z</time>
      </trkpt>
      <trkpt lat="42.97215" lon="0.2964">
        <ele>1799.3</ele>
        <time>2026-07-07T09:33:34Z</time>
      </trkpt>
      <trkpt lat="42.97215" lon="0.2964">
        <ele>1799.3</ele>
        <time>2026-07-07T09:33:35Z</time>
      </trkpt>
      <trkpt lat="42.97214" lon="0.2964">
        <ele>1799.3</ele>
        <time>2026-07-07T09:33:36Z</time>
      </trkpt>
      <trkpt lat="42.97213" lon="0.2964">
        <ele>1798.3</ele>
        <time>2026-07-07T09:33:37Z</time>
      </trkpt>
      <trkpt lat="42.97212" lon="0.2964">
        <ele>1798.3</ele>
        <time>2026-07-07T09:33:38Z</time>
      </trkpt>
      <trkpt lat="42.97212" lon="0.29639">
        <ele>1797.3</ele>
        <time>2026-07-07T09:33:39Z</time>
      </trkpt>
      <trkpt lat="42.97211" lon="0.29639">
        <ele>1797.3</ele>
        <time>2026-07-07T09:33:39Z</time>
      </trkpt>
      <trkpt lat="42.97211" lon="0.29639">
        <ele>1797.3</ele>
        <time>2026-07-07T09:33:40Z</time>
      </trkpt>
      <trkpt lat="42.97211" lon="0.29639">
        <ele>1797.3</ele>
        <time>2026-07-07T09:33:40Z</time>
      </trkpt>
      <trkpt lat="42.9721" lon="0.29639">
        <ele>1797.3</ele>
        <time>2026-07-07T09:33:41Z</time>
      </trkpt>
      <trkpt lat="42.9721" lon="0.29639">
        <ele>1797.3</ele>
        <time>2026-07-07T09:33:41Z</time>
      </trkpt>
      <trkpt lat="42.97209" lon="0.29639">
        <ele>1796.3</ele>
        <time>2026-07-07T09:33:42Z</time>
      </trkpt>
      <trkpt lat="42.97209" lon="0.29639">
        <ele>1796.3</ele>
        <time>2026-07-07T09:33:42Z</time>
      </trkpt>
      <trkpt lat="42.97208" lon="0.29639">
        <ele>1796.3</ele>
        <time>2026-07-07T09:33:43Z</time>
      </trkpt>
      <trkpt lat="42.97208" lon="0.29639">
        <ele>1795.3</ele>
        <time>2026-07-07T09:33:44Z</time>
      </trkpt>
      <trkpt lat="42.97207" lon="0.29638">
        <ele>1795.3</ele>
        <time>2026-07-07T09:33:44Z</time>
      </trkpt>
      <trkpt lat="42.97207" lon="0.29638">
        <ele>1795.3</ele>
        <time>2026-07-07T09:33:45Z</time>
      </trkpt>
      <trkpt lat="42.97206" lon="0.29638">
        <ele>1795.3</ele>
        <time>2026-07-07T09:33:45Z</time>
      </trkpt>
      <trkpt lat="42.97206" lon="0.29639">
        <ele>1794.3</ele>
        <time>2026-07-07T09:33:46Z</time>
      </trkpt>
      <trkpt lat="42.97205" lon="0.29639">
        <ele>1794.3</ele>
        <time>2026-07-07T09:33:47Z</time>
      </trkpt>
      <trkpt lat="42.97205" lon="0.29639">
        <ele>1794.3</ele>
        <time>2026-07-07T09:33:47Z</time>
      </trkpt>
      <trkpt lat="42.97204" lon="0.2964">
        <ele>1794.3</ele>
        <time>2026-07-07T09:33:48Z</time>
      </trkpt>
      <trkpt lat="42.97204" lon="0.2964">
        <ele>1794.3</ele>
        <time>2026-07-07T09:33:48Z</time>
      </trkpt>
      <trkpt lat="42.97204" lon="0.2964">
        <ele>1794.3</ele>
        <time>2026-07-07T09:33:49Z</time>
      </trkpt>
      <trkpt lat="42.97203" lon="0.29641">
        <ele>1794.3</ele>
        <time>2026-07-07T09:33:50Z</time>
      </trkpt>
      <trkpt lat="42.97203" lon="0.29641">
        <ele>1794.3</ele>
        <time>2026-07-07T09:33:50Z</time>
      </trkpt>
      <trkpt lat="42.97202" lon="0.29642">
        <ele>1794.3</ele>
        <time>2026-07-07T09:33:51Z</time>
      </trkpt>
      <trkpt lat="42.97202" lon="0.29642">
        <ele>1793.3</ele>
        <time>2026-07-07T09:33:52Z</time>
      </trkpt>
      <trkpt lat="42.97201" lon="0.29643">
        <ele>1793.3</ele>
        <time>2026-07-07T09:33:52Z</time>
      </trkpt>
      <trkpt lat="42.972" lon="0.29643">
        <ele>1793.3</ele>
        <time>2026-07-07T09:33:53Z</time>
      </trkpt>
      <trkpt lat="42.972" lon="0.29642">
        <ele>1793.3</ele>
        <time>2026-07-07T09:33:53Z</time>
      </trkpt>
      <trkpt lat="42.972" lon="0.29642">
        <ele>1793.3</ele>
        <time>2026-07-07T09:33:54Z</time>
      </trkpt>
      <trkpt lat="42.97199" lon="0.29642">
        <ele>1792.3</ele>
        <time>2026-07-07T09:33:55Z</time>
      </trkpt>
      <trkpt lat="42.97199" lon="0.29641">
        <ele>1792.3</ele>
        <time>2026-07-07T09:33:55Z</time>
      </trkpt>
      <trkpt lat="42.97198" lon="0.29641">
        <ele>1793.3</ele>
        <time>2026-07-07T09:33:56Z</time>
      </trkpt>
      <trkpt lat="42.97198" lon="0.29642">
        <ele>1793.3</ele>
        <time>2026-07-07T09:33:56Z</time>
      </trkpt>
      <trkpt lat="42.97198" lon="0.29643">
        <ele>1793.3</ele>
        <time>2026-07-07T09:33:57Z</time>
      </trkpt>
      <trkpt lat="42.97198" lon="0.29643">
        <ele>1793.3</ele>
        <time>2026-07-07T09:33:57Z</time>
      </trkpt>
      <trkpt lat="42.97198" lon="0.29644">
        <ele>1793.3</ele>
        <time>2026-07-07T09:33:58Z</time>
      </trkpt>
      <trkpt lat="42.97199" lon="0.29645">
        <ele>1793.3</ele>
        <time>2026-07-07T09:33:59Z</time>
      </trkpt>
      <trkpt lat="42.97199" lon="0.29646">
        <ele>1792.3</ele>
        <time>2026-07-07T09:33:59Z</time>
      </trkpt>
      <trkpt lat="42.97199" lon="0.29646">
        <ele>1792.3</ele>
        <time>2026-07-07T09:34:00Z</time>
      </trkpt>
      <trkpt lat="42.97199" lon="0.29646">
        <ele>1792.3</ele>
        <time>2026-07-07T09:34:00Z</time>
      </trkpt>
      <trkpt lat="42.97198" lon="0.29646">
        <ele>1792.3</ele>
        <time>2026-07-07T09:34:01Z</time>
      </trkpt>
      <trkpt lat="42.97198" lon="0.29646">
        <ele>1792.3</ele>
        <time>2026-07-07T09:34:02Z</time>
      </trkpt>
      <trkpt lat="42.97197" lon="0.29646">
        <ele>1792.3</ele>
        <time>2026-07-07T09:34:02Z</time>
      </trkpt>
      <trkpt lat="42.97197" lon="0.29646">
        <ele>1792.3</ele>
        <time>2026-07-07T09:34:03Z</time>
      </trkpt>
      <trkpt lat="42.97197" lon="0.29646">
        <ele>1792.3</ele>
        <time>2026-07-07T09:34:03Z</time>
      </trkpt>
      <trkpt lat="42.97196" lon="0.29645">
        <ele>1792.3</ele>
        <time>2026-07-07T09:34:04Z</time>
      </trkpt>
      <trkpt lat="42.97195" lon="0.29645">
        <ele>1791.3</ele>
        <time>2026-07-07T09:34:04Z</time>
      </trkpt>
      <trkpt lat="42.97195" lon="0.29645">
        <ele>1791.3</ele>
        <time>2026-07-07T09:34:05Z</time>
      </trkpt>
      <trkpt lat="42.97194" lon="0.29645">
        <ele>1791.3</ele>
        <time>2026-07-07T09:34:06Z</time>
      </trkpt>
      <trkpt lat="42.97194" lon="0.29646">
        <ele>1791.3</ele>
        <time>2026-07-07T09:34:07Z</time>
      </trkpt>
      <trkpt lat="42.97194" lon="0.29646">
        <ele>1791.3</ele>
        <time>2026-07-07T09:34:07Z</time>
      </trkpt>
      <trkpt lat="42.97193" lon="0.29646">
        <ele>1790.3</ele>
        <time>2026-07-07T09:34:08Z</time>
      </trkpt>
      <trkpt lat="42.97193" lon="0.29646">
        <ele>1790.3</ele>
        <time>2026-07-07T09:34:09Z</time>
      </trkpt>
      <trkpt lat="42.97192" lon="0.29646">
        <ele>1790.3</ele>
        <time>2026-07-07T09:34:10Z</time>
      </trkpt>
      <trkpt lat="42.97191" lon="0.29646">
        <ele>1790.3</ele>
        <time>2026-07-07T09:34:10Z</time>
      </trkpt>
      <trkpt lat="42.97191" lon="0.29646">
        <ele>1790.3</ele>
        <time>2026-07-07T09:34:11Z</time>
      </trkpt>
      <trkpt lat="42.9719" lon="0.29646">
        <ele>1790.3</ele>
        <time>2026-07-07T09:34:11Z</time>
      </trkpt>
      <trkpt lat="42.9719" lon="0.29646">
        <ele>1790.3</ele>
        <time>2026-07-07T09:34:12Z</time>
      </trkpt>
      <trkpt lat="42.97189" lon="0.29646">
        <ele>1790.3</ele>
        <time>2026-07-07T09:34:12Z</time>
      </trkpt>
      <trkpt lat="42.97189" lon="0.29645">
        <ele>1790.3</ele>
        <time>2026-07-07T09:34:13Z</time>
      </trkpt>
      <trkpt lat="42.97188" lon="0.29645">
        <ele>1789.3</ele>
        <time>2026-07-07T09:34:13Z</time>
      </trkpt>
      <trkpt lat="42.97188" lon="0.29645">
        <ele>1789.3</ele>
        <time>2026-07-07T09:34:14Z</time>
      </trkpt>
      <trkpt lat="42.97187" lon="0.29645">
        <ele>1789.3</ele>
        <time>2026-07-07T09:34:14Z</time>
      </trkpt>
      <trkpt lat="42.97187" lon="0.29644">
        <ele>1789.3</ele>
        <time>2026-07-07T09:34:15Z</time>
      </trkpt>
      <trkpt lat="42.97186" lon="0.29644">
        <ele>1788.3</ele>
        <time>2026-07-07T09:34:16Z</time>
      </trkpt>
      <trkpt lat="42.97186" lon="0.29644">
        <ele>1788.3</ele>
        <time>2026-07-07T09:34:16Z</time>
      </trkpt>
      <trkpt lat="42.97185" lon="0.29643">
        <ele>1788.3</ele>
        <time>2026-07-07T09:34:17Z</time>
      </trkpt>
      <trkpt lat="42.97185" lon="0.29643">
        <ele>1788.3</ele>
        <time>2026-07-07T09:34:17Z</time>
      </trkpt>
      <trkpt lat="42.97184" lon="0.29644">
        <ele>1788.3</ele>
        <time>2026-07-07T09:34:18Z</time>
      </trkpt>
      <trkpt lat="42.97183" lon="0.29643">
        <ele>1787.3</ele>
        <time>2026-07-07T09:34:19Z</time>
      </trkpt>
      <trkpt lat="42.97183" lon="0.29643">
        <ele>1787.3</ele>
        <time>2026-07-07T09:34:20Z</time>
      </trkpt>
      <trkpt lat="42.97182" lon="0.29643">
        <ele>1787.3</ele>
        <time>2026-07-07T09:34:20Z</time>
      </trkpt>
      <trkpt lat="42.97182" lon="0.29643">
        <ele>1786.3</ele>
        <time>2026-07-07T09:34:21Z</time>
      </trkpt>
      <trkpt lat="42.97181" lon="0.29642">
        <ele>1786.3</ele>
        <time>2026-07-07T09:34:22Z</time>
      </trkpt>
      <trkpt lat="42.97181" lon="0.29642">
        <ele>1787.3</ele>
        <time>2026-07-07T09:34:22Z</time>
      </trkpt>
      <trkpt lat="42.9718" lon="0.29641">
        <ele>1787.3</ele>
        <time>2026-07-07T09:34:23Z</time>
      </trkpt>
      <trkpt lat="42.97179" lon="0.29641">
        <ele>1787.3</ele>
        <time>2026-07-07T09:34:24Z</time>
      </trkpt>
      <trkpt lat="42.97179" lon="0.29641">
        <ele>1787.3</ele>
        <time>2026-07-07T09:34:25Z</time>
      </trkpt>
      <trkpt lat="42.97178" lon="0.29641">
        <ele>1787.3</ele>
        <time>2026-07-07T09:34:25Z</time>
      </trkpt>
      <trkpt lat="42.97178" lon="0.29641">
        <ele>1787.3</ele>
        <time>2026-07-07T09:34:26Z</time>
      </trkpt>
      <trkpt lat="42.97178" lon="0.29642">
        <ele>1788.3</ele>
        <time>2026-07-07T09:34:27Z</time>
      </trkpt>
      <trkpt lat="42.97178" lon="0.29642">
        <ele>1788.3</ele>
        <time>2026-07-07T09:34:27Z</time>
      </trkpt>
      <trkpt lat="42.97177" lon="0.29643">
        <ele>1787.3</ele>
        <time>2026-07-07T09:34:28Z</time>
      </trkpt>
      <trkpt lat="42.97178" lon="0.29644">
        <ele>1787.3</ele>
        <time>2026-07-07T09:34:28Z</time>
      </trkpt>
      <trkpt lat="42.97177" lon="0.29645">
        <ele>1787.3</ele>
        <time>2026-07-07T09:34:29Z</time>
      </trkpt>
      <trkpt lat="42.97177" lon="0.29646">
        <ele>1786.3</ele>
        <time>2026-07-07T09:34:30Z</time>
      </trkpt>
      <trkpt lat="42.97177" lon="0.29647">
        <ele>1786.3</ele>
        <time>2026-07-07T09:34:31Z</time>
      </trkpt>
      <trkpt lat="42.97177" lon="0.29648">
        <ele>1786.3</ele>
        <time>2026-07-07T09:34:31Z</time>
      </trkpt>
      <trkpt lat="42.97177" lon="0.29648">
        <ele>1786.3</ele>
        <time>2026-07-07T09:34:32Z</time>
      </trkpt>
      <trkpt lat="42.97176" lon="0.29649">
        <ele>1786.3</ele>
        <time>2026-07-07T09:34:32Z</time>
      </trkpt>
      <trkpt lat="42.97176" lon="0.29649">
        <ele>1786.3</ele>
        <time>2026-07-07T09:34:33Z</time>
      </trkpt>
      <trkpt lat="42.97176" lon="0.2965">
        <ele>1786.3</ele>
        <time>2026-07-07T09:34:33Z</time>
      </trkpt>
      <trkpt lat="42.97176" lon="0.2965">
        <ele>1786.3</ele>
        <time>2026-07-07T09:34:34Z</time>
      </trkpt>
      <trkpt lat="42.97175" lon="0.29651">
        <ele>1786.3</ele>
        <time>2026-07-07T09:34:34Z</time>
      </trkpt>
      <trkpt lat="42.97175" lon="0.29652">
        <ele>1786.3</ele>
        <time>2026-07-07T09:34:35Z</time>
      </trkpt>
      <trkpt lat="42.97175" lon="0.29652">
        <ele>1786.3</ele>
        <time>2026-07-07T09:34:35Z</time>
      </trkpt>
      <trkpt lat="42.97175" lon="0.29653">
        <ele>1786.3</ele>
        <time>2026-07-07T09:34:36Z</time>
      </trkpt>
      <trkpt lat="42.97175" lon="0.29654">
        <ele>1785.3</ele>
        <time>2026-07-07T09:34:37Z</time>
      </trkpt>
      <trkpt lat="42.97174" lon="0.29654">
        <ele>1785.3</ele>
        <time>2026-07-07T09:34:37Z</time>
      </trkpt>
      <trkpt lat="42.97174" lon="0.29655">
        <ele>1785.3</ele>
        <time>2026-07-07T09:34:38Z</time>
      </trkpt>
      <trkpt lat="42.97174" lon="0.29655">
        <ele>1785.3</ele>
        <time>2026-07-07T09:34:38Z</time>
      </trkpt>
      <trkpt lat="42.97174" lon="0.29656">
        <ele>1785.3</ele>
        <time>2026-07-07T09:34:39Z</time>
      </trkpt>
      <trkpt lat="42.97174" lon="0.29656">
        <ele>1784.3</ele>
        <time>2026-07-07T09:34:39Z</time>
      </trkpt>
      <trkpt lat="42.97174" lon="0.29657">
        <ele>1784.3</ele>
        <time>2026-07-07T09:34:40Z</time>
      </trkpt>
      <trkpt lat="42.97173" lon="0.29658">
        <ele>1784.3</ele>
        <time>2026-07-07T09:34:40Z</time>
      </trkpt>
      <trkpt lat="42.97173" lon="0.29658">
        <ele>1784.3</ele>
        <time>2026-07-07T09:34:41Z</time>
      </trkpt>
      <trkpt lat="42.97173" lon="0.29659">
        <ele>1784.3</ele>
        <time>2026-07-07T09:34:41Z</time>
      </trkpt>
      <trkpt lat="42.97173" lon="0.29659">
        <ele>1784.3</ele>
        <time>2026-07-07T09:34:42Z</time>
      </trkpt>
      <trkpt lat="42.97173" lon="0.29659">
        <ele>1783.3</ele>
        <time>2026-07-07T09:34:42Z</time>
      </trkpt>
      <trkpt lat="42.97173" lon="0.2966">
        <ele>1783.3</ele>
        <time>2026-07-07T09:34:43Z</time>
      </trkpt>
      <trkpt lat="42.97172" lon="0.2966">
        <ele>1783.3</ele>
        <time>2026-07-07T09:34:43Z</time>
      </trkpt>
      <trkpt lat="42.97172" lon="0.2966">
        <ele>1783.3</ele>
        <time>2026-07-07T09:34:44Z</time>
      </trkpt>
      <trkpt lat="42.97171" lon="0.2966">
        <ele>1782.3</ele>
        <time>2026-07-07T09:34:44Z</time>
      </trkpt>
      <trkpt lat="42.97171" lon="0.29661">
        <ele>1782.3</ele>
        <time>2026-07-07T09:34:45Z</time>
      </trkpt>
      <trkpt lat="42.9717" lon="0.29661">
        <ele>1782.3</ele>
        <time>2026-07-07T09:34:46Z</time>
      </trkpt>
      <trkpt lat="42.9717" lon="0.29661">
        <ele>1782.3</ele>
        <time>2026-07-07T09:34:46Z</time>
      </trkpt>
      <trkpt lat="42.97169" lon="0.29661">
        <ele>1781.3</ele>
        <time>2026-07-07T09:34:47Z</time>
      </trkpt>
      <trkpt lat="42.97168" lon="0.29661">
        <ele>1780.3</ele>
        <time>2026-07-07T09:34:48Z</time>
      </trkpt>
      <trkpt lat="42.97167" lon="0.29661">
        <ele>1780.3</ele>
        <time>2026-07-07T09:34:49Z</time>
      </trkpt>
      <trkpt lat="42.97167" lon="0.29661">
        <ele>1780.3</ele>
        <time>2026-07-07T09:34:49Z</time>
      </trkpt>
      <trkpt lat="42.97166" lon="0.29661">
        <ele>1780.3</ele>
        <time>2026-07-07T09:34:50Z</time>
      </trkpt>
      <trkpt lat="42.97166" lon="0.29662">
        <ele>1780.3</ele>
        <time>2026-07-07T09:34:50Z</time>
      </trkpt>
      <trkpt lat="42.97166" lon="0.29662">
        <ele>1780.3</ele>
        <time>2026-07-07T09:34:51Z</time>
      </trkpt>
      <trkpt lat="42.97166" lon="0.29662">
        <ele>1780.3</ele>
        <time>2026-07-07T09:34:51Z</time>
      </trkpt>
      <trkpt lat="42.97165" lon="0.29663">
        <ele>1780.3</ele>
        <time>2026-07-07T09:34:52Z</time>
      </trkpt>
      <trkpt lat="42.97165" lon="0.29663">
        <ele>1780.3</ele>
        <time>2026-07-07T09:34:53Z</time>
      </trkpt>
      <trkpt lat="42.97165" lon="0.29664">
        <ele>1780.3</ele>
        <time>2026-07-07T09:34:53Z</time>
      </trkpt>
      <trkpt lat="42.97164" lon="0.29664">
        <ele>1780.3</ele>
        <time>2026-07-07T09:34:54Z</time>
      </trkpt>
      <trkpt lat="42.97164" lon="0.29664">
        <ele>1779.3</ele>
        <time>2026-07-07T09:34:55Z</time>
      </trkpt>
      <trkpt lat="42.97163" lon="0.29665">
        <ele>1779.3</ele>
        <time>2026-07-07T09:34:55Z</time>
      </trkpt>
      <trkpt lat="42.97163" lon="0.29665">
        <ele>1779.3</ele>
        <time>2026-07-07T09:34:56Z</time>
      </trkpt>
      <trkpt lat="42.97162" lon="0.29666">
        <ele>1778.3</ele>
        <time>2026-07-07T09:34:57Z</time>
      </trkpt>
      <trkpt lat="42.97162" lon="0.29666">
        <ele>1778.3</ele>
        <time>2026-07-07T09:34:57Z</time>
      </trkpt>
      <trkpt lat="42.97161" lon="0.29666">
        <ele>1778.3</ele>
        <time>2026-07-07T09:34:58Z</time>
      </trkpt>
      <trkpt lat="42.97161" lon="0.29666">
        <ele>1777.3</ele>
        <time>2026-07-07T09:34:59Z</time>
      </trkpt>
      <trkpt lat="42.9716" lon="0.29666">
        <ele>1777.3</ele>
        <time>2026-07-07T09:34:59Z</time>
      </trkpt>
      <trkpt lat="42.97159" lon="0.29666">
        <ele>1777.3</ele>
        <time>2026-07-07T09:35:00Z</time>
      </trkpt>
      <trkpt lat="42.97159" lon="0.29666">
        <ele>1776.3</ele>
        <time>2026-07-07T09:35:01Z</time>
      </trkpt>
      <trkpt lat="42.97158" lon="0.29666">
        <ele>1776.3</ele>
        <time>2026-07-07T09:35:02Z</time>
      </trkpt>
      <trkpt lat="42.97158" lon="0.29666">
        <ele>1776.3</ele>
        <time>2026-07-07T09:35:03Z</time>
      </trkpt>
      <trkpt lat="42.97157" lon="0.29666">
        <ele>1776.3</ele>
        <time>2026-07-07T09:35:04Z</time>
      </trkpt>
      <trkpt lat="42.97157" lon="0.29666">
        <ele>1776.3</ele>
        <time>2026-07-07T09:35:04Z</time>
      </trkpt>
      <trkpt lat="42.97156" lon="0.29666">
        <ele>1776.3</ele>
        <time>2026-07-07T09:35:05Z</time>
      </trkpt>
      <trkpt lat="42.97155" lon="0.29666">
        <ele>1776.3</ele>
        <time>2026-07-07T09:35:05Z</time>
      </trkpt>
      <trkpt lat="42.97155" lon="0.29666">
        <ele>1774.3</ele>
        <time>2026-07-07T09:35:06Z</time>
      </trkpt>
      <trkpt lat="42.97155" lon="0.29667">
        <ele>1774.3</ele>
        <time>2026-07-07T09:35:07Z</time>
      </trkpt>
      <trkpt lat="42.97154" lon="0.29667">
        <ele>1773.3</ele>
        <time>2026-07-07T09:35:07Z</time>
      </trkpt>
      <trkpt lat="42.97154" lon="0.29667">
        <ele>1773.3</ele>
        <time>2026-07-07T09:35:08Z</time>
      </trkpt>
      <trkpt lat="42.97154" lon="0.29667">
        <ele>1773.3</ele>
        <time>2026-07-07T09:35:08Z</time>
      </trkpt>
      <trkpt lat="42.97153" lon="0.29667">
        <ele>1773.3</ele>
        <time>2026-07-07T09:35:09Z</time>
      </trkpt>
      <trkpt lat="42.97153" lon="0.29666">
        <ele>1773.3</ele>
        <time>2026-07-07T09:35:10Z</time>
      </trkpt>
      <trkpt lat="42.97152" lon="0.29666">
        <ele>1773.3</ele>
        <time>2026-07-07T09:35:10Z</time>
      </trkpt>
      <trkpt lat="42.97152" lon="0.29667">
        <ele>1773.3</ele>
        <time>2026-07-07T09:35:11Z</time>
      </trkpt>
      <trkpt lat="42.97152" lon="0.29667">
        <ele>1772.3</ele>
        <time>2026-07-07T09:35:11Z</time>
      </trkpt>
      <trkpt lat="42.97151" lon="0.29668">
        <ele>1772.3</ele>
        <time>2026-07-07T09:35:12Z</time>
      </trkpt>
      <trkpt lat="42.9715" lon="0.29669">
        <ele>1772.3</ele>
        <time>2026-07-07T09:35:13Z</time>
      </trkpt>
      <trkpt lat="42.9715" lon="0.29669">
        <ele>1773.3</ele>
        <time>2026-07-07T09:35:14Z</time>
      </trkpt>
      <trkpt lat="42.9715" lon="0.2967">
        <ele>1773.3</ele>
        <time>2026-07-07T09:35:14Z</time>
      </trkpt>
      <trkpt lat="42.9715" lon="0.2967">
        <ele>1773.3</ele>
        <time>2026-07-07T09:35:15Z</time>
      </trkpt>
      <trkpt lat="42.97149" lon="0.2967">
        <ele>1772.3</ele>
        <time>2026-07-07T09:35:15Z</time>
      </trkpt>
      <trkpt lat="42.97149" lon="0.29671">
        <ele>1772.3</ele>
        <time>2026-07-07T09:35:16Z</time>
      </trkpt>
      <trkpt lat="42.97149" lon="0.29671">
        <ele>1772.3</ele>
        <time>2026-07-07T09:35:16Z</time>
      </trkpt>
      <trkpt lat="42.97148" lon="0.29672">
        <ele>1772.3</ele>
        <time>2026-07-07T09:35:17Z</time>
      </trkpt>
      <trkpt lat="42.97148" lon="0.29673">
        <ele>1772.3</ele>
        <time>2026-07-07T09:35:18Z</time>
      </trkpt>
      <trkpt lat="42.97148" lon="0.29673">
        <ele>1772.3</ele>
        <time>2026-07-07T09:35:18Z</time>
      </trkpt>
      <trkpt lat="42.97147" lon="0.29673">
        <ele>1772.3</ele>
        <time>2026-07-07T09:35:19Z</time>
      </trkpt>
      <trkpt lat="42.97147" lon="0.29673">
        <ele>1771.3</ele>
        <time>2026-07-07T09:35:20Z</time>
      </trkpt>
      <trkpt lat="42.97147" lon="0.29673">
        <ele>1771.3</ele>
        <time>2026-07-07T09:35:20Z</time>
      </trkpt>
      <trkpt lat="42.97146" lon="0.29672">
        <ele>1771.3</ele>
        <time>2026-07-07T09:35:21Z</time>
      </trkpt>
      <trkpt lat="42.97146" lon="0.29672">
        <ele>1772.3</ele>
        <time>2026-07-07T09:35:21Z</time>
      </trkpt>
      <trkpt lat="42.97145" lon="0.29672">
        <ele>1771.3</ele>
        <time>2026-07-07T09:35:22Z</time>
      </trkpt>
      <trkpt lat="42.97145" lon="0.29673">
        <ele>1771.3</ele>
        <time>2026-07-07T09:35:23Z</time>
      </trkpt>
      <trkpt lat="42.97144" lon="0.29673">
        <ele>1771.3</ele>
        <time>2026-07-07T09:35:24Z</time>
      </trkpt>
      <trkpt lat="42.97144" lon="0.29673">
        <ele>1771.3</ele>
        <time>2026-07-07T09:35:24Z</time>
      </trkpt>
      <trkpt lat="42.97143" lon="0.29673">
        <ele>1771.3</ele>
        <time>2026-07-07T09:35:25Z</time>
      </trkpt>
      <trkpt lat="42.97143" lon="0.29673">
        <ele>1771.3</ele>
        <time>2026-07-07T09:35:25Z</time>
      </trkpt>
      <trkpt lat="42.97143" lon="0.29674">
        <ele>1770.3</ele>
        <time>2026-07-07T09:35:26Z</time>
      </trkpt>
      <trkpt lat="42.97142" lon="0.29675">
        <ele>1770.3</ele>
        <time>2026-07-07T09:35:26Z</time>
      </trkpt>
      <trkpt lat="42.97142" lon="0.29675">
        <ele>1770.3</ele>
        <time>2026-07-07T09:35:27Z</time>
      </trkpt>
      <trkpt lat="42.97142" lon="0.29676">
        <ele>1769.3</ele>
        <time>2026-07-07T09:35:28Z</time>
      </trkpt>
      <trkpt lat="42.97141" lon="0.29676">
        <ele>1769.3</ele>
        <time>2026-07-07T09:35:28Z</time>
      </trkpt>
      <trkpt lat="42.97141" lon="0.29676">
        <ele>1769.3</ele>
        <time>2026-07-07T09:35:29Z</time>
      </trkpt>
      <trkpt lat="42.97141" lon="0.29676">
        <ele>1768.3</ele>
        <time>2026-07-07T09:35:30Z</time>
      </trkpt>
      <trkpt lat="42.9714" lon="0.29676">
        <ele>1769.3</ele>
        <time>2026-07-07T09:35:30Z</time>
      </trkpt>
      <trkpt lat="42.9714" lon="0.29676">
        <ele>1769.3</ele>
        <time>2026-07-07T09:35:31Z</time>
      </trkpt>
      <trkpt lat="42.97139" lon="0.29677">
        <ele>1769.3</ele>
        <time>2026-07-07T09:35:31Z</time>
      </trkpt>
      <trkpt lat="42.97139" lon="0.29677">
        <ele>1769.3</ele>
        <time>2026-07-07T09:35:32Z</time>
      </trkpt>
      <trkpt lat="42.97139" lon="0.29678">
        <ele>1768.3</ele>
        <time>2026-07-07T09:35:32Z</time>
      </trkpt>
      <trkpt lat="42.97139" lon="0.29678">
        <ele>1768.3</ele>
        <time>2026-07-07T09:35:33Z</time>
      </trkpt>
      <trkpt lat="42.97138" lon="0.29679">
        <ele>1768.3</ele>
        <time>2026-07-07T09:35:33Z</time>
      </trkpt>
      <trkpt lat="42.97138" lon="0.29679">
        <ele>1768.3</ele>
        <time>2026-07-07T09:35:34Z</time>
      </trkpt>
      <trkpt lat="42.97138" lon="0.2968">
        <ele>1768.3</ele>
        <time>2026-07-07T09:35:34Z</time>
      </trkpt>
      <trkpt lat="42.97138" lon="0.2968">
        <ele>1768.3</ele>
        <time>2026-07-07T09:35:35Z</time>
      </trkpt>
      <trkpt lat="42.97137" lon="0.29681">
        <ele>1767.3</ele>
        <time>2026-07-07T09:35:36Z</time>
      </trkpt>
      <trkpt lat="42.97137" lon="0.29681">
        <ele>1767.3</ele>
        <time>2026-07-07T09:35:37Z</time>
      </trkpt>
      <trkpt lat="42.97137" lon="0.29682">
        <ele>1767.3</ele>
        <time>2026-07-07T09:35:37Z</time>
      </trkpt>
      <trkpt lat="42.97136" lon="0.29682">
        <ele>1766.3</ele>
        <time>2026-07-07T09:35:38Z</time>
      </trkpt>
      <trkpt lat="42.97136" lon="0.29683">
        <ele>1766.3</ele>
        <time>2026-07-07T09:35:38Z</time>
      </trkpt>
      <trkpt lat="42.97136" lon="0.29684">
        <ele>1766.3</ele>
        <time>2026-07-07T09:35:39Z</time>
      </trkpt>
      <trkpt lat="42.97135" lon="0.29684">
        <ele>1766.3</ele>
        <time>2026-07-07T09:35:39Z</time>
      </trkpt>
      <trkpt lat="42.97135" lon="0.29685">
        <ele>1766.3</ele>
        <time>2026-07-07T09:35:40Z</time>
      </trkpt>
      <trkpt lat="42.97135" lon="0.29686">
        <ele>1765.3</ele>
        <time>2026-07-07T09:35:41Z</time>
      </trkpt>
      <trkpt lat="42.97134" lon="0.29685">
        <ele>1765.3</ele>
        <time>2026-07-07T09:35:42Z</time>
      </trkpt>
      <trkpt lat="42.97134" lon="0.29686">
        <ele>1765.3</ele>
        <time>2026-07-07T09:35:42Z</time>
      </trkpt>
      <trkpt lat="42.97134" lon="0.29687">
        <ele>1765.3</ele>
        <time>2026-07-07T09:35:43Z</time>
      </trkpt>
      <trkpt lat="42.97134" lon="0.29687">
        <ele>1764.3</ele>
        <time>2026-07-07T09:35:43Z</time>
      </trkpt>
      <trkpt lat="42.97134" lon="0.29688">
        <ele>1764.3</ele>
        <time>2026-07-07T09:35:44Z</time>
      </trkpt>
      <trkpt lat="42.97134" lon="0.29689">
        <ele>1764.3</ele>
        <time>2026-07-07T09:35:44Z</time>
      </trkpt>
      <trkpt lat="42.97133" lon="0.2969">
        <ele>1764.3</ele>
        <time>2026-07-07T09:35:45Z</time>
      </trkpt>
      <trkpt lat="42.97133" lon="0.2969">
        <ele>1764.3</ele>
        <time>2026-07-07T09:35:46Z</time>
      </trkpt>
      <trkpt lat="42.97133" lon="0.29691">
        <ele>1764.3</ele>
        <time>2026-07-07T09:35:47Z</time>
      </trkpt>
      <trkpt lat="42.97133" lon="0.29692">
        <ele>1764.3</ele>
        <time>2026-07-07T09:35:47Z</time>
      </trkpt>
      <trkpt lat="42.97133" lon="0.29692">
        <ele>1764.3</ele>
        <time>2026-07-07T09:35:48Z</time>
      </trkpt>
      <trkpt lat="42.97133" lon="0.29693">
        <ele>1764.3</ele>
        <time>2026-07-07T09:35:48Z</time>
      </trkpt>
      <trkpt lat="42.97133" lon="0.29693">
        <ele>1763.3</ele>
        <time>2026-07-07T09:35:49Z</time>
      </trkpt>
      <trkpt lat="42.97133" lon="0.29694">
        <ele>1763.3</ele>
        <time>2026-07-07T09:35:49Z</time>
      </trkpt>
      <trkpt lat="42.97133" lon="0.29694">
        <ele>1762.3</ele>
        <time>2026-07-07T09:35:50Z</time>
      </trkpt>
      <trkpt lat="42.97132" lon="0.29695">
        <ele>1762.3</ele>
        <time>2026-07-07T09:35:51Z</time>
      </trkpt>
      <trkpt lat="42.97132" lon="0.29695">
        <ele>1762.3</ele>
        <time>2026-07-07T09:35:52Z</time>
      </trkpt>
      <trkpt lat="42.97132" lon="0.29695">
        <ele>1762.3</ele>
        <time>2026-07-07T09:35:52Z</time>
      </trkpt>
      <trkpt lat="42.97131" lon="0.29696">
        <ele>1762.3</ele>
        <time>2026-07-07T09:35:53Z</time>
      </trkpt>
      <trkpt lat="42.97131" lon="0.29696">
        <ele>1762.3</ele>
        <time>2026-07-07T09:35:54Z</time>
      </trkpt>
      <trkpt lat="42.97131" lon="0.29696">
        <ele>1762.3</ele>
        <time>2026-07-07T09:35:54Z</time>
      </trkpt>
      <trkpt lat="42.9713" lon="0.29697">
        <ele>1762.3</ele>
        <time>2026-07-07T09:35:55Z</time>
      </trkpt>
      <trkpt lat="42.9713" lon="0.29697">
        <ele>1762.3</ele>
        <time>2026-07-07T09:35:56Z</time>
      </trkpt>
      <trkpt lat="42.97129" lon="0.29697">
        <ele>1762.3</ele>
        <time>2026-07-07T09:35:56Z</time>
      </trkpt>
      <trkpt lat="42.97129" lon="0.29697">
        <ele>1762.3</ele>
        <time>2026-07-07T09:35:57Z</time>
      </trkpt>
      <trkpt lat="42.97129" lon="0.29697">
        <ele>1762.3</ele>
        <time>2026-07-07T09:35:58Z</time>
      </trkpt>
      <trkpt lat="42.97128" lon="0.29698">
        <ele>1762.3</ele>
        <time>2026-07-07T09:35:58Z</time>
      </trkpt>
      <trkpt lat="42.97128" lon="0.29698">
        <ele>1762.3</ele>
        <time>2026-07-07T09:35:59Z</time>
      </trkpt>
      <trkpt lat="42.97127" lon="0.29697">
        <ele>1762.3</ele>
        <time>2026-07-07T09:36:00Z</time>
      </trkpt>
      <trkpt lat="42.97126" lon="0.29697">
        <ele>1762.3</ele>
        <time>2026-07-07T09:36:00Z</time>
      </trkpt>
      <trkpt lat="42.97126" lon="0.29697">
        <ele>1762.3</ele>
        <time>2026-07-07T09:36:01Z</time>
      </trkpt>
      <trkpt lat="42.97125" lon="0.29697">
        <ele>1762.3</ele>
        <time>2026-07-07T09:36:02Z</time>
      </trkpt>
      <trkpt lat="42.97125" lon="0.29697">
        <ele>1761.3</ele>
        <time>2026-07-07T09:36:02Z</time>
      </trkpt>
      <trkpt lat="42.97124" lon="0.29697">
        <ele>1761.3</ele>
        <time>2026-07-07T09:36:03Z</time>
      </trkpt>
      <trkpt lat="42.97123" lon="0.29698">
        <ele>1762.3</ele>
        <time>2026-07-07T09:36:04Z</time>
      </trkpt>
      <trkpt lat="42.97123" lon="0.29698">
        <ele>1762.3</ele>
        <time>2026-07-07T09:36:04Z</time>
      </trkpt>
      <trkpt lat="42.97122" lon="0.29698">
        <ele>1761.3</ele>
        <time>2026-07-07T09:36:05Z</time>
      </trkpt>
      <trkpt lat="42.97122" lon="0.29697">
        <ele>1761.3</ele>
        <time>2026-07-07T09:36:05Z</time>
      </trkpt>
      <trkpt lat="42.97122" lon="0.29697">
        <ele>1761.3</ele>
        <time>2026-07-07T09:36:06Z</time>
      </trkpt>
      <trkpt lat="42.97121" lon="0.29696">
        <ele>1761.3</ele>
        <time>2026-07-07T09:36:06Z</time>
      </trkpt>
      <trkpt lat="42.97121" lon="0.29696">
        <ele>1761.3</ele>
        <time>2026-07-07T09:36:07Z</time>
      </trkpt>
      <trkpt lat="42.9712" lon="0.29696">
        <ele>1760.3</ele>
        <time>2026-07-07T09:36:07Z</time>
      </trkpt>
      <trkpt lat="42.9712" lon="0.29696">
        <ele>1760.3</ele>
        <time>2026-07-07T09:36:08Z</time>
      </trkpt>
      <trkpt lat="42.97119" lon="0.29696">
        <ele>1761.3</ele>
        <time>2026-07-07T09:36:09Z</time>
      </trkpt>
      <trkpt lat="42.97119" lon="0.29696">
        <ele>1760.3</ele>
        <time>2026-07-07T09:36:10Z</time>
      </trkpt>
      <trkpt lat="42.97118" lon="0.29697">
        <ele>1760.3</ele>
        <time>2026-07-07T09:36:10Z</time>
      </trkpt>
      <trkpt lat="42.97118" lon="0.29697">
        <ele>1760.3</ele>
        <time>2026-07-07T09:36:11Z</time>
      </trkpt>
      <trkpt lat="42.97117" lon="0.29697">
        <ele>1760.3</ele>
        <time>2026-07-07T09:36:12Z</time>
      </trkpt>
      <trkpt lat="42.97117" lon="0.29697">
        <ele>1760.3</ele>
        <time>2026-07-07T09:36:12Z</time>
      </trkpt>
      <trkpt lat="42.97117" lon="0.29697">
        <ele>1760.3</ele>
        <time>2026-07-07T09:36:13Z</time>
      </trkpt>
      <trkpt lat="42.97116" lon="0.29698">
        <ele>1760.3</ele>
        <time>2026-07-07T09:36:14Z</time>
      </trkpt>
      <trkpt lat="42.97116" lon="0.29698">
        <ele>1760.3</ele>
        <time>2026-07-07T09:36:14Z</time>
      </trkpt>
      <trkpt lat="42.97116" lon="0.29699">
        <ele>1760.3</ele>
        <time>2026-07-07T09:36:15Z</time>
      </trkpt>
      <trkpt lat="42.97116" lon="0.29699">
        <ele>1759.3</ele>
        <time>2026-07-07T09:36:15Z</time>
      </trkpt>
      <trkpt lat="42.97115" lon="0.297">
        <ele>1759.3</ele>
        <time>2026-07-07T09:36:16Z</time>
      </trkpt>
      <trkpt lat="42.97115" lon="0.29701">
        <ele>1759.3</ele>
        <time>2026-07-07T09:36:17Z</time>
      </trkpt>
      <trkpt lat="42.97115" lon="0.29701">
        <ele>1758.3</ele>
        <time>2026-07-07T09:36:17Z</time>
      </trkpt>
      <trkpt lat="42.97115" lon="0.29702">
        <ele>1758.3</ele>
        <time>2026-07-07T09:36:18Z</time>
      </trkpt>
      <trkpt lat="42.97115" lon="0.29703">
        <ele>1757.3</ele>
        <time>2026-07-07T09:36:19Z</time>
      </trkpt>
      <trkpt lat="42.97114" lon="0.29703">
        <ele>1757.3</ele>
        <time>2026-07-07T09:36:20Z</time>
      </trkpt>
      <trkpt lat="42.97114" lon="0.29702">
        <ele>1757.3</ele>
        <time>2026-07-07T09:36:21Z</time>
      </trkpt>
      <trkpt lat="42.97113" lon="0.29702">
        <ele>1757.3</ele>
        <time>2026-07-07T09:36:21Z</time>
      </trkpt>
      <trkpt lat="42.97113" lon="0.29702">
        <ele>1756.3</ele>
        <time>2026-07-07T09:36:22Z</time>
      </trkpt>
      <trkpt lat="42.97112" lon="0.29702">
        <ele>1756.3</ele>
        <time>2026-07-07T09:36:23Z</time>
      </trkpt>
      <trkpt lat="42.97112" lon="0.29702">
        <ele>1756.3</ele>
        <time>2026-07-07T09:36:23Z</time>
      </trkpt>
      <trkpt lat="42.97111" lon="0.29701">
        <ele>1755.3</ele>
        <time>2026-07-07T09:36:24Z</time>
      </trkpt>
      <trkpt lat="42.97111" lon="0.29701">
        <ele>1755.3</ele>
        <time>2026-07-07T09:36:24Z</time>
      </trkpt>
      <trkpt lat="42.97111" lon="0.29701">
        <ele>1755.3</ele>
        <time>2026-07-07T09:36:25Z</time>
      </trkpt>
      <trkpt lat="42.9711" lon="0.29701">
        <ele>1755.3</ele>
        <time>2026-07-07T09:36:25Z</time>
      </trkpt>
      <trkpt lat="42.9711" lon="0.29701">
        <ele>1755.3</ele>
        <time>2026-07-07T09:36:26Z</time>
      </trkpt>
      <trkpt lat="42.97109" lon="0.29701">
        <ele>1755.3</ele>
        <time>2026-07-07T09:36:26Z</time>
      </trkpt>
      <trkpt lat="42.97109" lon="0.29701">
        <ele>1755.3</ele>
        <time>2026-07-07T09:36:27Z</time>
      </trkpt>
      <trkpt lat="42.97109" lon="0.29701">
        <ele>1755.3</ele>
        <time>2026-07-07T09:36:27Z</time>
      </trkpt>
      <trkpt lat="42.97108" lon="0.29702">
        <ele>1755.3</ele>
        <time>2026-07-07T09:36:28Z</time>
      </trkpt>
      <trkpt lat="42.97107" lon="0.29702">
        <ele>1755.3</ele>
        <time>2026-07-07T09:36:29Z</time>
      </trkpt>
      <trkpt lat="42.97107" lon="0.29703">
        <ele>1754.3</ele>
        <time>2026-07-07T09:36:30Z</time>
      </trkpt>
      <trkpt lat="42.97107" lon="0.29704">
        <ele>1754.3</ele>
        <time>2026-07-07T09:36:30Z</time>
      </trkpt>
      <trkpt lat="42.97106" lon="0.29704">
        <ele>1754.3</ele>
        <time>2026-07-07T09:36:31Z</time>
      </trkpt>
      <trkpt lat="42.97105" lon="0.29705">
        <ele>1754.3</ele>
        <time>2026-07-07T09:36:32Z</time>
      </trkpt>
      <trkpt lat="42.97105" lon="0.29705">
        <ele>1754.3</ele>
        <time>2026-07-07T09:36:33Z</time>
      </trkpt>
      <trkpt lat="42.97105" lon="0.29706">
        <ele>1753.3</ele>
        <time>2026-07-07T09:36:33Z</time>
      </trkpt>
      <trkpt lat="42.97104" lon="0.29707">
        <ele>1753.3</ele>
        <time>2026-07-07T09:36:34Z</time>
      </trkpt>
      <trkpt lat="42.97104" lon="0.29707">
        <ele>1753.3</ele>
        <time>2026-07-07T09:36:35Z</time>
      </trkpt>
      <trkpt lat="42.97104" lon="0.29708">
        <ele>1753.3</ele>
        <time>2026-07-07T09:36:35Z</time>
      </trkpt>
      <trkpt lat="42.97103" lon="0.29708">
        <ele>1753.3</ele>
        <time>2026-07-07T09:36:36Z</time>
      </trkpt>
      <trkpt lat="42.97103" lon="0.29709">
        <ele>1752.3</ele>
        <time>2026-07-07T09:36:36Z</time>
      </trkpt>
      <trkpt lat="42.97102" lon="0.29709">
        <ele>1752.3</ele>
        <time>2026-07-07T09:36:37Z</time>
      </trkpt>
      <trkpt lat="42.97102" lon="0.2971">
        <ele>1752.3</ele>
        <time>2026-07-07T09:36:38Z</time>
      </trkpt>
      <trkpt lat="42.97102" lon="0.2971">
        <ele>1752.3</ele>
        <time>2026-07-07T09:36:38Z</time>
      </trkpt>
      <trkpt lat="42.97101" lon="0.29711">
        <ele>1752.3</ele>
        <time>2026-07-07T09:36:39Z</time>
      </trkpt>
      <trkpt lat="42.97101" lon="0.29711">
        <ele>1751.3</ele>
        <time>2026-07-07T09:36:39Z</time>
      </trkpt>
      <trkpt lat="42.97101" lon="0.29712">
        <ele>1751.3</ele>
        <time>2026-07-07T09:36:40Z</time>
      </trkpt>
      <trkpt lat="42.97101" lon="0.29712">
        <ele>1750.3</ele>
        <time>2026-07-07T09:36:41Z</time>
      </trkpt>
      <trkpt lat="42.97101" lon="0.29712">
        <ele>1750.3</ele>
        <time>2026-07-07T09:36:41Z</time>
      </trkpt>
      <trkpt lat="42.971" lon="0.29713">
        <ele>1750.3</ele>
        <time>2026-07-07T09:36:42Z</time>
      </trkpt>
      <trkpt lat="42.971" lon="0.29713">
        <ele>1749.3</ele>
        <time>2026-07-07T09:36:43Z</time>
      </trkpt>
      <trkpt lat="42.971" lon="0.29714">
        <ele>1749.3</ele>
        <time>2026-07-07T09:36:43Z</time>
      </trkpt>
      <trkpt lat="42.97099" lon="0.29714">
        <ele>1750.3</ele>
        <time>2026-07-07T09:36:44Z</time>
      </trkpt>
      <trkpt lat="42.97099" lon="0.29715">
        <ele>1749.3</ele>
        <time>2026-07-07T09:36:44Z</time>
      </trkpt>
      <trkpt lat="42.97099" lon="0.29715">
        <ele>1749.3</ele>
        <time>2026-07-07T09:36:45Z</time>
      </trkpt>
      <trkpt lat="42.97098" lon="0.29716">
        <ele>1749.3</ele>
        <time>2026-07-07T09:36:46Z</time>
      </trkpt>
      <trkpt lat="42.97098" lon="0.29716">
        <ele>1749.3</ele>
        <time>2026-07-07T09:36:46Z</time>
      </trkpt>
      <trkpt lat="42.97097" lon="0.29716">
        <ele>1749.3</ele>
        <time>2026-07-07T09:36:47Z</time>
      </trkpt>
      <trkpt lat="42.97097" lon="0.29716">
        <ele>1749.3</ele>
        <time>2026-07-07T09:36:48Z</time>
      </trkpt>
      <trkpt lat="42.97096" lon="0.29716">
        <ele>1749.3</ele>
        <time>2026-07-07T09:36:49Z</time>
      </trkpt>
      <trkpt lat="42.97096" lon="0.29717">
        <ele>1749.3</ele>
        <time>2026-07-07T09:36:49Z</time>
      </trkpt>
      <trkpt lat="42.97096" lon="0.29717">
        <ele>1749.3</ele>
        <time>2026-07-07T09:36:50Z</time>
      </trkpt>
      <trkpt lat="42.97096" lon="0.29718">
        <ele>1749.3</ele>
        <time>2026-07-07T09:36:51Z</time>
      </trkpt>
      <trkpt lat="42.97096" lon="0.29719">
        <ele>1749.3</ele>
        <time>2026-07-07T09:36:51Z</time>
      </trkpt>
      <trkpt lat="42.97096" lon="0.2972">
        <ele>1748.3</ele>
        <time>2026-07-07T09:36:52Z</time>
      </trkpt>
      <trkpt lat="42.97096" lon="0.2972">
        <ele>1748.3</ele>
        <time>2026-07-07T09:36:52Z</time>
      </trkpt>
      <trkpt lat="42.97095" lon="0.29721">
        <ele>1748.3</ele>
        <time>2026-07-07T09:36:53Z</time>
      </trkpt>
      <trkpt lat="42.97095" lon="0.29721">
        <ele>1748.3</ele>
        <time>2026-07-07T09:36:54Z</time>
      </trkpt>
      <trkpt lat="42.97095" lon="0.29721">
        <ele>1748.3</ele>
        <time>2026-07-07T09:36:55Z</time>
      </trkpt>
      <trkpt lat="42.97095" lon="0.29722">
        <ele>1748.3</ele>
        <time>2026-07-07T09:36:55Z</time>
      </trkpt>
      <trkpt lat="42.97095" lon="0.29723">
        <ele>1748.3</ele>
        <time>2026-07-07T09:36:56Z</time>
      </trkpt>
      <trkpt lat="42.97094" lon="0.29724">
        <ele>1748.3</ele>
        <time>2026-07-07T09:36:56Z</time>
      </trkpt>
      <trkpt lat="42.97094" lon="0.29724">
        <ele>1747.3</ele>
        <time>2026-07-07T09:36:57Z</time>
      </trkpt>
      <trkpt lat="42.97094" lon="0.29724">
        <ele>1747.3</ele>
        <time>2026-07-07T09:36:57Z</time>
      </trkpt>
      <trkpt lat="42.97094" lon="0.29725">
        <ele>1747.3</ele>
        <time>2026-07-07T09:36:58Z</time>
      </trkpt>
      <trkpt lat="42.97094" lon="0.29726">
        <ele>1747.3</ele>
        <time>2026-07-07T09:36:59Z</time>
      </trkpt>
      <trkpt lat="42.97094" lon="0.29726">
        <ele>1747.3</ele>
        <time>2026-07-07T09:37:00Z</time>
      </trkpt>
      <trkpt lat="42.97093" lon="0.29727">
        <ele>1747.3</ele>
        <time>2026-07-07T09:37:00Z</time>
      </trkpt>
      <trkpt lat="42.97093" lon="0.29727">
        <ele>1747.3</ele>
        <time>2026-07-07T09:37:01Z</time>
      </trkpt>
      <trkpt lat="42.97093" lon="0.29728">
        <ele>1746.3</ele>
        <time>2026-07-07T09:37:01Z</time>
      </trkpt>
      <trkpt lat="42.97093" lon="0.29728">
        <ele>1746.3</ele>
        <time>2026-07-07T09:37:02Z</time>
      </trkpt>
      <trkpt lat="42.97092" lon="0.29728">
        <ele>1746.3</ele>
        <time>2026-07-07T09:37:02Z</time>
      </trkpt>
      <trkpt lat="42.97092" lon="0.29729">
        <ele>1746.3</ele>
        <time>2026-07-07T09:37:03Z</time>
      </trkpt>
      <trkpt lat="42.97091" lon="0.29729">
        <ele>1746.3</ele>
        <time>2026-07-07T09:37:03Z</time>
      </trkpt>
      <trkpt lat="42.97091" lon="0.2973">
        <ele>1746.3</ele>
        <time>2026-07-07T09:37:04Z</time>
      </trkpt>
      <trkpt lat="42.97091" lon="0.2973">
        <ele>1745.3</ele>
        <time>2026-07-07T09:37:05Z</time>
      </trkpt>
      <trkpt lat="42.9709" lon="0.29731">
        <ele>1745.3</ele>
        <time>2026-07-07T09:37:05Z</time>
      </trkpt>
      <trkpt lat="42.9709" lon="0.29731">
        <ele>1745.3</ele>
        <time>2026-07-07T09:37:06Z</time>
      </trkpt>
      <trkpt lat="42.9709" lon="0.29732">
        <ele>1744.3</ele>
        <time>2026-07-07T09:37:06Z</time>
      </trkpt>
      <trkpt lat="42.97089" lon="0.29732">
        <ele>1744.3</ele>
        <time>2026-07-07T09:37:07Z</time>
      </trkpt>
      <trkpt lat="42.97089" lon="0.29733">
        <ele>1744.3</ele>
        <time>2026-07-07T09:37:07Z</time>
      </trkpt>
      <trkpt lat="42.97089" lon="0.29733">
        <ele>1744.3</ele>
        <time>2026-07-07T09:37:08Z</time>
      </trkpt>
      <trkpt lat="42.97089" lon="0.29734">
        <ele>1744.3</ele>
        <time>2026-07-07T09:37:09Z</time>
      </trkpt>
      <trkpt lat="42.97088" lon="0.29734">
        <ele>1744.3</ele>
        <time>2026-07-07T09:37:09Z</time>
      </trkpt>
      <trkpt lat="42.97088" lon="0.29735">
        <ele>1744.3</ele>
        <time>2026-07-07T09:37:10Z</time>
      </trkpt>
      <trkpt lat="42.97088" lon="0.29735">
        <ele>1744.3</ele>
        <time>2026-07-07T09:37:10Z</time>
      </trkpt>
      <trkpt lat="42.97087" lon="0.29735">
        <ele>1743.3</ele>
        <time>2026-07-07T09:37:11Z</time>
      </trkpt>
      <trkpt lat="42.97087" lon="0.29736">
        <ele>1743.3</ele>
        <time>2026-07-07T09:37:11Z</time>
      </trkpt>
      <trkpt lat="42.97087" lon="0.29736">
        <ele>1743.3</ele>
        <time>2026-07-07T09:37:12Z</time>
      </trkpt>
      <trkpt lat="42.97087" lon="0.29737">
        <ele>1743.3</ele>
        <time>2026-07-07T09:37:13Z</time>
      </trkpt>
      <trkpt lat="42.97087" lon="0.29737">
        <ele>1743.3</ele>
        <time>2026-07-07T09:37:13Z</time>
      </trkpt>
      <trkpt lat="42.97086" lon="0.29737">
        <ele>1743.3</ele>
        <time>2026-07-07T09:37:14Z</time>
      </trkpt>
      <trkpt lat="42.97086" lon="0.29738">
        <ele>1742.3</ele>
        <time>2026-07-07T09:37:15Z</time>
      </trkpt>
      <trkpt lat="42.97086" lon="0.29738">
        <ele>1742.3</ele>
        <time>2026-07-07T09:37:15Z</time>
      </trkpt>
      <trkpt lat="42.97086" lon="0.2974">
        <ele>1742.3</ele>
        <time>2026-07-07T09:37:16Z</time>
      </trkpt>
      <trkpt lat="42.97086" lon="0.2974">
        <ele>1742.3</ele>
        <time>2026-07-07T09:37:17Z</time>
      </trkpt>
      <trkpt lat="42.97086" lon="0.2974">
        <ele>1741.3</ele>
        <time>2026-07-07T09:37:17Z</time>
      </trkpt>
      <trkpt lat="42.97086" lon="0.2974">
        <ele>1741.3</ele>
        <time>2026-07-07T09:37:18Z</time>
      </trkpt>
      <trkpt lat="42.97085" lon="0.2974">
        <ele>1741.3</ele>
        <time>2026-07-07T09:37:19Z</time>
      </trkpt>
      <trkpt lat="42.97085" lon="0.2974">
        <ele>1741.3</ele>
        <time>2026-07-07T09:37:19Z</time>
      </trkpt>
      <trkpt lat="42.97084" lon="0.2974">
        <ele>1741.3</ele>
        <time>2026-07-07T09:37:20Z</time>
      </trkpt>
      <trkpt lat="42.97084" lon="0.29739">
        <ele>1741.3</ele>
        <time>2026-07-07T09:37:20Z</time>
      </trkpt>
      <trkpt lat="42.97083" lon="0.29739">
        <ele>1741.3</ele>
        <time>2026-07-07T09:37:21Z</time>
      </trkpt>
      <trkpt lat="42.97083" lon="0.2974">
        <ele>1741.3</ele>
        <time>2026-07-07T09:37:21Z</time>
      </trkpt>
      <trkpt lat="42.97082" lon="0.2974">
        <ele>1741.3</ele>
        <time>2026-07-07T09:37:22Z</time>
      </trkpt>
      <trkpt lat="42.97082" lon="0.2974">
        <ele>1741.3</ele>
        <time>2026-07-07T09:37:23Z</time>
      </trkpt>
      <trkpt lat="42.97081" lon="0.29741">
        <ele>1740.3</ele>
        <time>2026-07-07T09:37:23Z</time>
      </trkpt>
      <trkpt lat="42.97081" lon="0.29742">
        <ele>1740.3</ele>
        <time>2026-07-07T09:37:24Z</time>
      </trkpt>
      <trkpt lat="42.97081" lon="0.29742">
        <ele>1740.3</ele>
        <time>2026-07-07T09:37:25Z</time>
      </trkpt>
      <trkpt lat="42.9708" lon="0.29743">
        <ele>1740.3</ele>
        <time>2026-07-07T09:37:25Z</time>
      </trkpt>
      <trkpt lat="42.9708" lon="0.29743">
        <ele>1739.3</ele>
        <time>2026-07-07T09:37:26Z</time>
      </trkpt>
      <trkpt lat="42.9708" lon="0.29744">
        <ele>1739.3</ele>
        <time>2026-07-07T09:37:27Z</time>
      </trkpt>
      <trkpt lat="42.9708" lon="0.29744">
        <ele>1738.3</ele>
        <time>2026-07-07T09:37:27Z</time>
      </trkpt>
      <trkpt lat="42.9708" lon="0.29745">
        <ele>1738.3</ele>
        <time>2026-07-07T09:37:28Z</time>
      </trkpt>
      <trkpt lat="42.9708" lon="0.29745">
        <ele>1738.3</ele>
        <time>2026-07-07T09:37:29Z</time>
      </trkpt>
      <trkpt lat="42.9708" lon="0.29745">
        <ele>1738.3</ele>
        <time>2026-07-07T09:37:29Z</time>
      </trkpt>
      <trkpt lat="42.97079" lon="0.29746">
        <ele>1738.3</ele>
        <time>2026-07-07T09:37:30Z</time>
      </trkpt>
      <trkpt lat="42.97079" lon="0.29746">
        <ele>1739.3</ele>
        <time>2026-07-07T09:37:30Z</time>
      </trkpt>
      <trkpt lat="42.97078" lon="0.29746">
        <ele>1739.3</ele>
        <time>2026-07-07T09:37:31Z</time>
      </trkpt>
      <trkpt lat="42.97078" lon="0.29746">
        <ele>1739.3</ele>
        <time>2026-07-07T09:37:32Z</time>
      </trkpt>
      <trkpt lat="42.97077" lon="0.29746">
        <ele>1738.3</ele>
        <time>2026-07-07T09:37:32Z</time>
      </trkpt>
      <trkpt lat="42.97077" lon="0.29746">
        <ele>1738.3</ele>
        <time>2026-07-07T09:37:33Z</time>
      </trkpt>
      <trkpt lat="42.97076" lon="0.29747">
        <ele>1738.3</ele>
        <time>2026-07-07T09:37:33Z</time>
      </trkpt>
      <trkpt lat="42.97076" lon="0.29747">
        <ele>1738.3</ele>
        <time>2026-07-07T09:37:34Z</time>
      </trkpt>
      <trkpt lat="42.97076" lon="0.29747">
        <ele>1738.3</ele>
        <time>2026-07-07T09:37:35Z</time>
      </trkpt>
      <trkpt lat="42.97075" lon="0.29748">
        <ele>1738.3</ele>
        <time>2026-07-07T09:37:35Z</time>
      </trkpt>
      <trkpt lat="42.97074" lon="0.29748">
        <ele>1738.3</ele>
        <time>2026-07-07T09:37:36Z</time>
      </trkpt>
      <trkpt lat="42.97074" lon="0.29748">
        <ele>1737.3</ele>
        <time>2026-07-07T09:37:36Z</time>
      </trkpt>
      <trkpt lat="42.97073" lon="0.29749">
        <ele>1737.3</ele>
        <time>2026-07-07T09:37:37Z</time>
      </trkpt>
      <trkpt lat="42.97073" lon="0.29749">
        <ele>1736.3</ele>
        <time>2026-07-07T09:37:38Z</time>
      </trkpt>
      <trkpt lat="42.97072" lon="0.2975">
        <ele>1736.3</ele>
        <time>2026-07-07T09:37:38Z</time>
      </trkpt>
      <trkpt lat="42.97072" lon="0.29751">
        <ele>1736.3</ele>
        <time>2026-07-07T09:37:39Z</time>
      </trkpt>
      <trkpt lat="42.97072" lon="0.29751">
        <ele>1736.3</ele>
        <time>2026-07-07T09:37:39Z</time>
      </trkpt>
      <trkpt lat="42.97071" lon="0.29751">
        <ele>1736.3</ele>
        <time>2026-07-07T09:37:40Z</time>
      </trkpt>
      <trkpt lat="42.97071" lon="0.29752">
        <ele>1736.3</ele>
        <time>2026-07-07T09:37:41Z</time>
      </trkpt>
      <trkpt lat="42.9707" lon="0.29752">
        <ele>1736.3</ele>
        <time>2026-07-07T09:37:41Z</time>
      </trkpt>
      <trkpt lat="42.9707" lon="0.29752">
        <ele>1735.3</ele>
        <time>2026-07-07T09:37:42Z</time>
      </trkpt>
      <trkpt lat="42.97069" lon="0.29753">
        <ele>1735.3</ele>
        <time>2026-07-07T09:37:42Z</time>
      </trkpt>
      <trkpt lat="42.97069" lon="0.29753">
        <ele>1735.3</ele>
        <time>2026-07-07T09:37:43Z</time>
      </trkpt>
      <trkpt lat="42.97069" lon="0.29753">
        <ele>1734.3</ele>
        <time>2026-07-07T09:37:43Z</time>
      </trkpt>
      <trkpt lat="42.97069" lon="0.29753">
        <ele>1734.3</ele>
        <time>2026-07-07T09:37:44Z</time>
      </trkpt>
      <trkpt lat="42.97069" lon="0.29754">
        <ele>1734.3</ele>
        <time>2026-07-07T09:37:44Z</time>
      </trkpt>
      <trkpt lat="42.97068" lon="0.29755">
        <ele>1734.3</ele>
        <time>2026-07-07T09:37:45Z</time>
      </trkpt>
      <trkpt lat="42.97068" lon="0.29755">
        <ele>1734.3</ele>
        <time>2026-07-07T09:37:46Z</time>
      </trkpt>
      <trkpt lat="42.97067" lon="0.29756">
        <ele>1735.3</ele>
        <time>2026-07-07T09:37:46Z</time>
      </trkpt>
      <trkpt lat="42.97067" lon="0.29756">
        <ele>1735.3</ele>
        <time>2026-07-07T09:37:47Z</time>
      </trkpt>
      <trkpt lat="42.97067" lon="0.29756">
        <ele>1735.3</ele>
        <time>2026-07-07T09:37:47Z</time>
      </trkpt>
      <trkpt lat="42.97066" lon="0.29756">
        <ele>1735.3</ele>
        <time>2026-07-07T09:37:48Z</time>
      </trkpt>
      <trkpt lat="42.97066" lon="0.29756">
        <ele>1735.3</ele>
        <time>2026-07-07T09:37:49Z</time>
      </trkpt>
      <trkpt lat="42.97066" lon="0.29756">
        <ele>1735.3</ele>
        <time>2026-07-07T09:37:49Z</time>
      </trkpt>
      <trkpt lat="42.97065" lon="0.29757">
        <ele>1735.3</ele>
        <time>2026-07-07T09:37:50Z</time>
      </trkpt>
      <trkpt lat="42.97065" lon="0.29757">
        <ele>1735.3</ele>
        <time>2026-07-07T09:37:50Z</time>
      </trkpt>
      <trkpt lat="42.97065" lon="0.29757">
        <ele>1735.3</ele>
        <time>2026-07-07T09:37:51Z</time>
      </trkpt>
      <trkpt lat="42.97064" lon="0.29758">
        <ele>1734.3</ele>
        <time>2026-07-07T09:37:52Z</time>
      </trkpt>
      <trkpt lat="42.97064" lon="0.29759">
        <ele>1734.3</ele>
        <time>2026-07-07T09:37:52Z</time>
      </trkpt>
      <trkpt lat="42.97063" lon="0.29759">
        <ele>1734.3</ele>
        <time>2026-07-07T09:37:53Z</time>
      </trkpt>
      <trkpt lat="42.97063" lon="0.2976">
        <ele>1734.3</ele>
        <time>2026-07-07T09:37:53Z</time>
      </trkpt>
      <trkpt lat="42.97063" lon="0.2976">
        <ele>1734.3</ele>
        <time>2026-07-07T09:37:54Z</time>
      </trkpt>
      <trkpt lat="42.97063" lon="0.2976">
        <ele>1733.3</ele>
        <time>2026-07-07T09:37:54Z</time>
      </trkpt>
      <trkpt lat="42.97062" lon="0.29761">
        <ele>1733.3</ele>
        <time>2026-07-07T09:37:55Z</time>
      </trkpt>
      <trkpt lat="42.97062" lon="0.29761">
        <ele>1733.3</ele>
        <time>2026-07-07T09:37:55Z</time>
      </trkpt>
      <trkpt lat="42.97062" lon="0.29762">
        <ele>1733.3</ele>
        <time>2026-07-07T09:37:56Z</time>
      </trkpt>
      <trkpt lat="42.97061" lon="0.29762">
        <ele>1732.3</ele>
        <time>2026-07-07T09:37:57Z</time>
      </trkpt>
      <trkpt lat="42.97061" lon="0.29763">
        <ele>1731.3</ele>
        <time>2026-07-07T09:37:57Z</time>
      </trkpt>
      <trkpt lat="42.97061" lon="0.29763">
        <ele>1731.3</ele>
        <time>2026-07-07T09:37:58Z</time>
      </trkpt>
      <trkpt lat="42.9706" lon="0.29764">
        <ele>1731.3</ele>
        <time>2026-07-07T09:37:59Z</time>
      </trkpt>
      <trkpt lat="42.9706" lon="0.29764">
        <ele>1730.3</ele>
        <time>2026-07-07T09:37:59Z</time>
      </trkpt>
      <trkpt lat="42.97059" lon="0.29764">
        <ele>1730.3</ele>
        <time>2026-07-07T09:38:00Z</time>
      </trkpt>
      <trkpt lat="42.97059" lon="0.29764">
        <ele>1730.3</ele>
        <time>2026-07-07T09:38:00Z</time>
      </trkpt>
      <trkpt lat="42.97058" lon="0.29765">
        <ele>1730.3</ele>
        <time>2026-07-07T09:38:01Z</time>
      </trkpt>
      <trkpt lat="42.97058" lon="0.29764">
        <ele>1730.3</ele>
        <time>2026-07-07T09:38:02Z</time>
      </trkpt>
      <trkpt lat="42.97058" lon="0.29764">
        <ele>1730.3</ele>
        <time>2026-07-07T09:38:02Z</time>
      </trkpt>
      <trkpt lat="42.97057" lon="0.29765">
        <ele>1730.3</ele>
        <time>2026-07-07T09:38:03Z</time>
      </trkpt>
      <trkpt lat="42.97057" lon="0.29765">
        <ele>1729.3</ele>
        <time>2026-07-07T09:38:03Z</time>
      </trkpt>
      <trkpt lat="42.97057" lon="0.29766">
        <ele>1729.3</ele>
        <time>2026-07-07T09:38:04Z</time>
      </trkpt>
      <trkpt lat="42.97057" lon="0.29766">
        <ele>1728.3</ele>
        <time>2026-07-07T09:38:04Z</time>
      </trkpt>
      <trkpt lat="42.97056" lon="0.29767">
        <ele>1728.3</ele>
        <time>2026-07-07T09:38:05Z</time>
      </trkpt>
      <trkpt lat="42.97056" lon="0.29767">
        <ele>1728.3</ele>
        <time>2026-07-07T09:38:05Z</time>
      </trkpt>
      <trkpt lat="42.97056" lon="0.29768">
        <ele>1728.3</ele>
        <time>2026-07-07T09:38:06Z</time>
      </trkpt>
      <trkpt lat="42.97055" lon="0.29768">
        <ele>1727.3</ele>
        <time>2026-07-07T09:38:07Z</time>
      </trkpt>
      <trkpt lat="42.97055" lon="0.29768">
        <ele>1727.3</ele>
        <time>2026-07-07T09:38:07Z</time>
      </trkpt>
      <trkpt lat="42.97055" lon="0.29768">
        <ele>1727.3</ele>
        <time>2026-07-07T09:38:08Z</time>
      </trkpt>
      <trkpt lat="42.97054" lon="0.29769">
        <ele>1727.3</ele>
        <time>2026-07-07T09:38:08Z</time>
      </trkpt>
      <trkpt lat="42.97054" lon="0.2977">
        <ele>1726.3</ele>
        <time>2026-07-07T09:38:09Z</time>
      </trkpt>
      <trkpt lat="42.97055" lon="0.2977">
        <ele>1726.3</ele>
        <time>2026-07-07T09:38:09Z</time>
      </trkpt>
      <trkpt lat="42.97054" lon="0.29771">
        <ele>1726.3</ele>
        <time>2026-07-07T09:38:10Z</time>
      </trkpt>
      <trkpt lat="42.97054" lon="0.29772">
        <ele>1726.3</ele>
        <time>2026-07-07T09:38:11Z</time>
      </trkpt>
      <trkpt lat="42.97053" lon="0.29772">
        <ele>1726.3</ele>
        <time>2026-07-07T09:38:11Z</time>
      </trkpt>
      <trkpt lat="42.97053" lon="0.29772">
        <ele>1726.3</ele>
        <time>2026-07-07T09:38:12Z</time>
      </trkpt>
      <trkpt lat="42.97053" lon="0.29772">
        <ele>1726.3</ele>
        <time>2026-07-07T09:38:12Z</time>
      </trkpt>
      <trkpt lat="42.97052" lon="0.29773">
        <ele>1725.3</ele>
        <time>2026-07-07T09:38:13Z</time>
      </trkpt>
      <trkpt lat="42.97051" lon="0.29773">
        <ele>1725.3</ele>
        <time>2026-07-07T09:38:14Z</time>
      </trkpt>
      <trkpt lat="42.97051" lon="0.29773">
        <ele>1725.3</ele>
        <time>2026-07-07T09:38:14Z</time>
      </trkpt>
      <trkpt lat="42.9705" lon="0.29773">
        <ele>1725.3</ele>
        <time>2026-07-07T09:38:15Z</time>
      </trkpt>
      <trkpt lat="42.9705" lon="0.29773">
        <ele>1725.3</ele>
        <time>2026-07-07T09:38:16Z</time>
      </trkpt>
      <trkpt lat="42.97049" lon="0.29773">
        <ele>1725.3</ele>
        <time>2026-07-07T09:38:16Z</time>
      </trkpt>
      <trkpt lat="42.97048" lon="0.29773">
        <ele>1724.3</ele>
        <time>2026-07-07T09:38:17Z</time>
      </trkpt>
      <trkpt lat="42.97047" lon="0.29772">
        <ele>1724.3</ele>
        <time>2026-07-07T09:38:18Z</time>
      </trkpt>
      <trkpt lat="42.97047" lon="0.29772">
        <ele>1724.3</ele>
        <time>2026-07-07T09:38:18Z</time>
      </trkpt>
      <trkpt lat="42.97046" lon="0.29772">
        <ele>1724.3</ele>
        <time>2026-07-07T09:38:19Z</time>
      </trkpt>
      <trkpt lat="42.97045" lon="0.29772">
        <ele>1724.3</ele>
        <time>2026-07-07T09:38:20Z</time>
      </trkpt>
      <trkpt lat="42.97045" lon="0.29773">
        <ele>1723.3</ele>
        <time>2026-07-07T09:38:20Z</time>
      </trkpt>
      <trkpt lat="42.97044" lon="0.29773">
        <ele>1723.3</ele>
        <time>2026-07-07T09:38:21Z</time>
      </trkpt>
      <trkpt lat="42.97044" lon="0.29774">
        <ele>1723.3</ele>
        <time>2026-07-07T09:38:22Z</time>
      </trkpt>
      <trkpt lat="42.97044" lon="0.29774">
        <ele>1723.3</ele>
        <time>2026-07-07T09:38:23Z</time>
      </trkpt>
      <trkpt lat="42.97043" lon="0.29775">
        <ele>1723.3</ele>
        <time>2026-07-07T09:38:23Z</time>
      </trkpt>
      <trkpt lat="42.97043" lon="0.29775">
        <ele>1723.3</ele>
        <time>2026-07-07T09:38:24Z</time>
      </trkpt>
      <trkpt lat="42.97043" lon="0.29776">
        <ele>1723.3</ele>
        <time>2026-07-07T09:38:24Z</time>
      </trkpt>
      <trkpt lat="42.97042" lon="0.29776">
        <ele>1723.3</ele>
        <time>2026-07-07T09:38:25Z</time>
      </trkpt>
      <trkpt lat="42.97042" lon="0.29776">
        <ele>1723.3</ele>
        <time>2026-07-07T09:38:25Z</time>
      </trkpt>
      <trkpt lat="42.97042" lon="0.29777">
        <ele>1723.3</ele>
        <time>2026-07-07T09:38:26Z</time>
      </trkpt>
      <trkpt lat="42.97042" lon="0.29777">
        <ele>1723.3</ele>
        <time>2026-07-07T09:38:26Z</time>
      </trkpt>
      <trkpt lat="42.97042" lon="0.29778">
        <ele>1723.3</ele>
        <time>2026-07-07T09:38:27Z</time>
      </trkpt>
      <trkpt lat="42.97042" lon="0.29778">
        <ele>1723.3</ele>
        <time>2026-07-07T09:38:27Z</time>
      </trkpt>
      <trkpt lat="42.97041" lon="0.29779">
        <ele>1723.3</ele>
        <time>2026-07-07T09:38:28Z</time>
      </trkpt>
      <trkpt lat="42.97041" lon="0.29779">
        <ele>1723.3</ele>
        <time>2026-07-07T09:38:28Z</time>
      </trkpt>
      <trkpt lat="42.97041" lon="0.2978">
        <ele>1723.3</ele>
        <time>2026-07-07T09:38:29Z</time>
      </trkpt>
      <trkpt lat="42.97041" lon="0.2978">
        <ele>1722.3</ele>
        <time>2026-07-07T09:38:30Z</time>
      </trkpt>
      <trkpt lat="42.9704" lon="0.29781">
        <ele>1722.3</ele>
        <time>2026-07-07T09:38:30Z</time>
      </trkpt>
      <trkpt lat="42.9704" lon="0.29782">
        <ele>1721.3</ele>
        <time>2026-07-07T09:38:31Z</time>
      </trkpt>
      <trkpt lat="42.9704" lon="0.29782">
        <ele>1721.3</ele>
        <time>2026-07-07T09:38:31Z</time>
      </trkpt>
      <trkpt lat="42.9704" lon="0.29782">
        <ele>1721.3</ele>
        <time>2026-07-07T09:38:32Z</time>
      </trkpt>
      <trkpt lat="42.97039" lon="0.29783">
        <ele>1721.3</ele>
        <time>2026-07-07T09:38:32Z</time>
      </trkpt>
      <trkpt lat="42.97039" lon="0.29784">
        <ele>1721.3</ele>
        <time>2026-07-07T09:38:33Z</time>
      </trkpt>
      <trkpt lat="42.97039" lon="0.29784">
        <ele>1721.3</ele>
        <time>2026-07-07T09:38:34Z</time>
      </trkpt>
      <trkpt lat="42.97038" lon="0.29785">
        <ele>1721.3</ele>
        <time>2026-07-07T09:38:34Z</time>
      </trkpt>
      <trkpt lat="42.97038" lon="0.29785">
        <ele>1721.3</ele>
        <time>2026-07-07T09:38:34Z</time>
      </trkpt>
      <trkpt lat="42.97038" lon="0.29786">
        <ele>1721.3</ele>
        <time>2026-07-07T09:38:35Z</time>
      </trkpt>
      <trkpt lat="42.97038" lon="0.29787">
        <ele>1721.3</ele>
        <time>2026-07-07T09:38:36Z</time>
      </trkpt>
      <trkpt lat="42.97037" lon="0.29787">
        <ele>1721.3</ele>
        <time>2026-07-07T09:38:36Z</time>
      </trkpt>
      <trkpt lat="42.97037" lon="0.29788">
        <ele>1720.3</ele>
        <time>2026-07-07T09:38:37Z</time>
      </trkpt>
      <trkpt lat="42.97037" lon="0.29788">
        <ele>1721.3</ele>
        <time>2026-07-07T09:38:37Z</time>
      </trkpt>
      <trkpt lat="42.97036" lon="0.29788">
        <ele>1721.3</ele>
        <time>2026-07-07T09:38:38Z</time>
      </trkpt>
      <trkpt lat="42.97036" lon="0.29789">
        <ele>1720.3</ele>
        <time>2026-07-07T09:38:39Z</time>
      </trkpt>
      <trkpt lat="42.97035" lon="0.29789">
        <ele>1719.3</ele>
        <time>2026-07-07T09:38:39Z</time>
      </trkpt>
      <trkpt lat="42.97035" lon="0.2979">
        <ele>1719.3</ele>
        <time>2026-07-07T09:38:40Z</time>
      </trkpt>
      <trkpt lat="42.97035" lon="0.2979">
        <ele>1718.3</ele>
        <time>2026-07-07T09:38:41Z</time>
      </trkpt>
      <trkpt lat="42.97034" lon="0.2979">
        <ele>1718.3</ele>
        <time>2026-07-07T09:38:41Z</time>
      </trkpt>
      <trkpt lat="42.97034" lon="0.2979">
        <ele>1718.3</ele>
        <time>2026-07-07T09:38:42Z</time>
      </trkpt>
      <trkpt lat="42.97034" lon="0.2979">
        <ele>1718.3</ele>
        <time>2026-07-07T09:38:42Z</time>
      </trkpt>
      <trkpt lat="42.97033" lon="0.2979">
        <ele>1718.3</ele>
        <time>2026-07-07T09:38:43Z</time>
      </trkpt>
      <trkpt lat="42.97032" lon="0.2979">
        <ele>1717.3</ele>
        <time>2026-07-07T09:38:44Z</time>
      </trkpt>
      <trkpt lat="42.97032" lon="0.2979">
        <ele>1718.3</ele>
        <time>2026-07-07T09:38:44Z</time>
      </trkpt>
      <trkpt lat="42.97031" lon="0.29791">
        <ele>1718.3</ele>
        <time>2026-07-07T09:38:45Z</time>
      </trkpt>
      <trkpt lat="42.97031" lon="0.29791">
        <ele>1718.3</ele>
        <time>2026-07-07T09:38:46Z</time>
      </trkpt>
      <trkpt lat="42.97031" lon="0.29792">
        <ele>1718.3</ele>
        <time>2026-07-07T09:38:46Z</time>
      </trkpt>
      <trkpt lat="42.9703" lon="0.29792">
        <ele>1718.3</ele>
        <time>2026-07-07T09:38:47Z</time>
      </trkpt>
      <trkpt lat="42.9703" lon="0.29793">
        <ele>1718.3</ele>
        <time>2026-07-07T09:38:47Z</time>
      </trkpt>
      <trkpt lat="42.97029" lon="0.29793">
        <ele>1718.3</ele>
        <time>2026-07-07T09:38:48Z</time>
      </trkpt>
      <trkpt lat="42.97029" lon="0.29794">
        <ele>1717.3</ele>
        <time>2026-07-07T09:38:49Z</time>
      </trkpt>
      <trkpt lat="42.97029" lon="0.29794">
        <ele>1717.3</ele>
        <time>2026-07-07T09:38:49Z</time>
      </trkpt>
      <trkpt lat="42.97028" lon="0.29795">
        <ele>1717.3</ele>
        <time>2026-07-07T09:38:50Z</time>
      </trkpt>
      <trkpt lat="42.97028" lon="0.29795">
        <ele>1717.3</ele>
        <time>2026-07-07T09:38:50Z</time>
      </trkpt>
      <trkpt lat="42.97027" lon="0.29796">
        <ele>1716.3</ele>
        <time>2026-07-07T09:38:51Z</time>
      </trkpt>
      <trkpt lat="42.97027" lon="0.29796">
        <ele>1716.3</ele>
        <time>2026-07-07T09:38:51Z</time>
      </trkpt>
      <trkpt lat="42.97026" lon="0.29797">
        <ele>1716.3</ele>
        <time>2026-07-07T09:38:52Z</time>
      </trkpt>
      <trkpt lat="42.97026" lon="0.29797">
        <ele>1715.3</ele>
        <time>2026-07-07T09:38:52Z</time>
      </trkpt>
      <trkpt lat="42.97026" lon="0.29798">
        <ele>1715.3</ele>
        <time>2026-07-07T09:38:53Z</time>
      </trkpt>
      <trkpt lat="42.97026" lon="0.29799">
        <ele>1715.3</ele>
        <time>2026-07-07T09:38:53Z</time>
      </trkpt>
      <trkpt lat="42.97025" lon="0.298">
        <ele>1715.3</ele>
        <time>2026-07-07T09:38:54Z</time>
      </trkpt>
      <trkpt lat="42.97025" lon="0.298">
        <ele>1714.3</ele>
        <time>2026-07-07T09:38:55Z</time>
      </trkpt>
      <trkpt lat="42.97025" lon="0.29801">
        <ele>1714.3</ele>
        <time>2026-07-07T09:38:55Z</time>
      </trkpt>
      <trkpt lat="42.97024" lon="0.29801">
        <ele>1714.3</ele>
        <time>2026-07-07T09:38:56Z</time>
      </trkpt>
      <trkpt lat="42.97024" lon="0.29802">
        <ele>1714.3</ele>
        <time>2026-07-07T09:38:56Z</time>
      </trkpt>
      <trkpt lat="42.97024" lon="0.29803">
        <ele>1714.3</ele>
        <time>2026-07-07T09:38:57Z</time>
      </trkpt>
      <trkpt lat="42.97024" lon="0.29803">
        <ele>1714.3</ele>
        <time>2026-07-07T09:38:57Z</time>
      </trkpt>
      <trkpt lat="42.97023" lon="0.29804">
        <ele>1714.3</ele>
        <time>2026-07-07T09:38:58Z</time>
      </trkpt>
      <trkpt lat="42.97023" lon="0.29805">
        <ele>1713.3</ele>
        <time>2026-07-07T09:38:58Z</time>
      </trkpt>
      <trkpt lat="42.97023" lon="0.29805">
        <ele>1713.3</ele>
        <time>2026-07-07T09:38:59Z</time>
      </trkpt>
      <trkpt lat="42.97023" lon="0.29806">
        <ele>1713.3</ele>
        <time>2026-07-07T09:39:00Z</time>
      </trkpt>
      <trkpt lat="42.97023" lon="0.29806">
        <ele>1712.3</ele>
        <time>2026-07-07T09:39:00Z</time>
      </trkpt>
      <trkpt lat="42.97022" lon="0.29807">
        <ele>1712.3</ele>
        <time>2026-07-07T09:39:01Z</time>
      </trkpt>
      <trkpt lat="42.97022" lon="0.29808">
        <ele>1712.3</ele>
        <time>2026-07-07T09:39:02Z</time>
      </trkpt>
      <trkpt lat="42.97022" lon="0.29808">
        <ele>1712.3</ele>
        <time>2026-07-07T09:39:02Z</time>
      </trkpt>
      <trkpt lat="42.97021" lon="0.29809">
        <ele>1712.3</ele>
        <time>2026-07-07T09:39:03Z</time>
      </trkpt>
      <trkpt lat="42.97021" lon="0.29809">
        <ele>1711.3</ele>
        <time>2026-07-07T09:39:03Z</time>
      </trkpt>
      <trkpt lat="42.97021" lon="0.2981">
        <ele>1711.3</ele>
        <time>2026-07-07T09:39:04Z</time>
      </trkpt>
      <trkpt lat="42.97021" lon="0.2981">
        <ele>1710.3</ele>
        <time>2026-07-07T09:39:04Z</time>
      </trkpt>
      <trkpt lat="42.9702" lon="0.29811">
        <ele>1710.3</ele>
        <time>2026-07-07T09:39:05Z</time>
      </trkpt>
      <trkpt lat="42.9702" lon="0.29811">
        <ele>1710.3</ele>
        <time>2026-07-07T09:39:05Z</time>
      </trkpt>
      <trkpt lat="42.9702" lon="0.29812">
        <ele>1710.3</ele>
        <time>2026-07-07T09:39:06Z</time>
      </trkpt>
      <trkpt lat="42.9702" lon="0.29813">
        <ele>1710.3</ele>
        <time>2026-07-07T09:39:07Z</time>
      </trkpt>
      <trkpt lat="42.9702" lon="0.29814">
        <ele>1710.3</ele>
        <time>2026-07-07T09:39:07Z</time>
      </trkpt>
      <trkpt lat="42.9702" lon="0.29815">
        <ele>1709.3</ele>
        <time>2026-07-07T09:39:08Z</time>
      </trkpt>
      <trkpt lat="42.9702" lon="0.29815">
        <ele>1708.3</ele>
        <time>2026-07-07T09:39:09Z</time>
      </trkpt>
      <trkpt lat="42.97019" lon="0.29816">
        <ele>1708.3</ele>
        <time>2026-07-07T09:39:09Z</time>
      </trkpt>
      <trkpt lat="42.97019" lon="0.29817">
        <ele>1708.3</ele>
        <time>2026-07-07T09:39:10Z</time>
      </trkpt>
      <trkpt lat="42.97019" lon="0.29817">
        <ele>1708.3</ele>
        <time>2026-07-07T09:39:10Z</time>
      </trkpt>
      <trkpt lat="42.97019" lon="0.29818">
        <ele>1708.3</ele>
        <time>2026-07-07T09:39:11Z</time>
      </trkpt>
      <trkpt lat="42.97019" lon="0.29818">
        <ele>1708.3</ele>
        <time>2026-07-07T09:39:11Z</time>
      </trkpt>
      <trkpt lat="42.97019" lon="0.29819">
        <ele>1708.3</ele>
        <time>2026-07-07T09:39:12Z</time>
      </trkpt>
      <trkpt lat="42.97019" lon="0.2982">
        <ele>1709.3</ele>
        <time>2026-07-07T09:39:12Z</time>
      </trkpt>
      <trkpt lat="42.97019" lon="0.2982">
        <ele>1709.3</ele>
        <time>2026-07-07T09:39:13Z</time>
      </trkpt>
      <trkpt lat="42.97019" lon="0.29821">
        <ele>1709.3</ele>
        <time>2026-07-07T09:39:14Z</time>
      </trkpt>
      <trkpt lat="42.97019" lon="0.29821">
        <ele>1710.3</ele>
        <time>2026-07-07T09:39:14Z</time>
      </trkpt>
      <trkpt lat="42.97019" lon="0.29822">
        <ele>1710.3</ele>
        <time>2026-07-07T09:39:15Z</time>
      </trkpt>
      <trkpt lat="42.97019" lon="0.29822">
        <ele>1709.3</ele>
        <time>2026-07-07T09:39:15Z</time>
      </trkpt>
      <trkpt lat="42.97019" lon="0.29823">
        <ele>1709.3</ele>
        <time>2026-07-07T09:39:16Z</time>
      </trkpt>
      <trkpt lat="42.97018" lon="0.29823">
        <ele>1708.3</ele>
        <time>2026-07-07T09:39:17Z</time>
      </trkpt>
      <trkpt lat="42.97018" lon="0.29824">
        <ele>1708.3</ele>
        <time>2026-07-07T09:39:17Z</time>
      </trkpt>
      <trkpt lat="42.97017" lon="0.29824">
        <ele>1708.3</ele>
        <time>2026-07-07T09:39:18Z</time>
      </trkpt>
      <trkpt lat="42.97017" lon="0.29825">
        <ele>1707.3</ele>
        <time>2026-07-07T09:39:19Z</time>
      </trkpt>
      <trkpt lat="42.97016" lon="0.29825">
        <ele>1707.3</ele>
        <time>2026-07-07T09:39:19Z</time>
      </trkpt>
      <trkpt lat="42.97016" lon="0.29826">
        <ele>1707.3</ele>
        <time>2026-07-07T09:39:20Z</time>
      </trkpt>
      <trkpt lat="42.97015" lon="0.29827">
        <ele>1707.3</ele>
        <time>2026-07-07T09:39:21Z</time>
      </trkpt>
      <trkpt lat="42.97014" lon="0.29828">
        <ele>1707.3</ele>
        <time>2026-07-07T09:39:22Z</time>
      </trkpt>
      <trkpt lat="42.97014" lon="0.29829">
        <ele>1707.3</ele>
        <time>2026-07-07T09:39:22Z</time>
      </trkpt>
      <trkpt lat="42.97014" lon="0.29829">
        <ele>1707.3</ele>
        <time>2026-07-07T09:39:23Z</time>
      </trkpt>
      <trkpt lat="42.97014" lon="0.2983">
        <ele>1707.3</ele>
        <time>2026-07-07T09:39:24Z</time>
      </trkpt>
      <trkpt lat="42.97013" lon="0.2983">
        <ele>1707.3</ele>
        <time>2026-07-07T09:39:24Z</time>
      </trkpt>
      <trkpt lat="42.97012" lon="0.29832">
        <ele>1707.3</ele>
        <time>2026-07-07T09:39:25Z</time>
      </trkpt>
      <trkpt lat="42.97012" lon="0.29832">
        <ele>1706.3</ele>
        <time>2026-07-07T09:39:26Z</time>
      </trkpt>
      <trkpt lat="42.97012" lon="0.29832">
        <ele>1706.3</ele>
        <time>2026-07-07T09:39:26Z</time>
      </trkpt>
      <trkpt lat="42.97012" lon="0.29833">
        <ele>1706.3</ele>
        <time>2026-07-07T09:39:27Z</time>
      </trkpt>
      <trkpt lat="42.97011" lon="0.29833">
        <ele>1706.3</ele>
        <time>2026-07-07T09:39:27Z</time>
      </trkpt>
      <trkpt lat="42.97011" lon="0.29834">
        <ele>1706.3</ele>
        <time>2026-07-07T09:39:28Z</time>
      </trkpt>
      <trkpt lat="42.9701" lon="0.29834">
        <ele>1706.3</ele>
        <time>2026-07-07T09:39:29Z</time>
      </trkpt>
      <trkpt lat="42.9701" lon="0.29835">
        <ele>1705.3</ele>
        <time>2026-07-07T09:39:30Z</time>
      </trkpt>
      <trkpt lat="42.97009" lon="0.29836">
        <ele>1705.3</ele>
        <time>2026-07-07T09:39:30Z</time>
      </trkpt>
      <trkpt lat="42.97008" lon="0.29836">
        <ele>1705.3</ele>
        <time>2026-07-07T09:39:31Z</time>
      </trkpt>
      <trkpt lat="42.97008" lon="0.29837">
        <ele>1705.3</ele>
        <time>2026-07-07T09:39:32Z</time>
      </trkpt>
      <trkpt lat="42.97008" lon="0.29837">
        <ele>1704.3</ele>
        <time>2026-07-07T09:39:32Z</time>
      </trkpt>
      <trkpt lat="42.97007" lon="0.29837">
        <ele>1704.3</ele>
        <time>2026-07-07T09:39:33Z</time>
      </trkpt>
      <trkpt lat="42.97007" lon="0.29838">
        <ele>1704.3</ele>
        <time>2026-07-07T09:39:33Z</time>
      </trkpt>
      <trkpt lat="42.97007" lon="0.29838">
        <ele>1704.3</ele>
        <time>2026-07-07T09:39:34Z</time>
      </trkpt>
      <trkpt lat="42.97006" lon="0.29838">
        <ele>1704.3</ele>
        <time>2026-07-07T09:39:35Z</time>
      </trkpt>
      <trkpt lat="42.97006" lon="0.29839">
        <ele>1704.3</ele>
        <time>2026-07-07T09:39:35Z</time>
      </trkpt>
      <trkpt lat="42.97005" lon="0.29839">
        <ele>1704.3</ele>
        <time>2026-07-07T09:39:36Z</time>
      </trkpt>
      <trkpt lat="42.97005" lon="0.29839">
        <ele>1704.3</ele>
        <time>2026-07-07T09:39:36Z</time>
      </trkpt>
      <trkpt lat="42.97004" lon="0.29839">
        <ele>1704.3</ele>
        <time>2026-07-07T09:39:37Z</time>
      </trkpt>
      <trkpt lat="42.97004" lon="0.29839">
        <ele>1704.3</ele>
        <time>2026-07-07T09:39:38Z</time>
      </trkpt>
      <trkpt lat="42.97003" lon="0.29839">
        <ele>1704.3</ele>
        <time>2026-07-07T09:39:38Z</time>
      </trkpt>
      <trkpt lat="42.97003" lon="0.2984">
        <ele>1704.3</ele>
        <time>2026-07-07T09:39:39Z</time>
      </trkpt>
      <trkpt lat="42.97003" lon="0.2984">
        <ele>1704.3</ele>
        <time>2026-07-07T09:39:40Z</time>
      </trkpt>
      <trkpt lat="42.97002" lon="0.2984">
        <ele>1704.3</ele>
        <time>2026-07-07T09:39:40Z</time>
      </trkpt>
      <trkpt lat="42.97002" lon="0.2984">
        <ele>1704.3</ele>
        <time>2026-07-07T09:39:41Z</time>
      </trkpt>
      <trkpt lat="42.97002" lon="0.2984">
        <ele>1704.3</ele>
        <time>2026-07-07T09:39:41Z</time>
      </trkpt>
      <trkpt lat="42.97001" lon="0.29841">
        <ele>1704.3</ele>
        <time>2026-07-07T09:39:42Z</time>
      </trkpt>
      <trkpt lat="42.97001" lon="0.29842">
        <ele>1704.3</ele>
        <time>2026-07-07T09:39:42Z</time>
      </trkpt>
      <trkpt lat="42.97001" lon="0.29842">
        <ele>1704.3</ele>
        <time>2026-07-07T09:39:43Z</time>
      </trkpt>
      <trkpt lat="42.97" lon="0.29843">
        <ele>1704.3</ele>
        <time>2026-07-07T09:39:43Z</time>
      </trkpt>
      <trkpt lat="42.97" lon="0.29844">
        <ele>1704.3</ele>
        <time>2026-07-07T09:39:44Z</time>
      </trkpt>
      <trkpt lat="42.97" lon="0.29845">
        <ele>1704.3</ele>
        <time>2026-07-07T09:39:45Z</time>
      </trkpt>
      <trkpt lat="42.97" lon="0.29846">
        <ele>1703.3</ele>
        <time>2026-07-07T09:39:46Z</time>
      </trkpt>
      <trkpt lat="42.96999" lon="0.29847">
        <ele>1703.3</ele>
        <time>2026-07-07T09:39:46Z</time>
      </trkpt>
      <trkpt lat="42.96999" lon="0.29847">
        <ele>1702.3</ele>
        <time>2026-07-07T09:39:47Z</time>
      </trkpt>
      <trkpt lat="42.96999" lon="0.29848">
        <ele>1702.3</ele>
        <time>2026-07-07T09:39:47Z</time>
      </trkpt>
      <trkpt lat="42.96999" lon="0.29849">
        <ele>1702.3</ele>
        <time>2026-07-07T09:39:48Z</time>
      </trkpt>
      <trkpt lat="42.96999" lon="0.29849">
        <ele>1702.3</ele>
        <time>2026-07-07T09:39:48Z</time>
      </trkpt>
      <trkpt lat="42.96998" lon="0.2985">
        <ele>1702.3</ele>
        <time>2026-07-07T09:39:49Z</time>
      </trkpt>
      <trkpt lat="42.96999" lon="0.2985">
        <ele>1702.3</ele>
        <time>2026-07-07T09:39:50Z</time>
      </trkpt>
      <trkpt lat="42.96999" lon="0.29851">
        <ele>1703.3</ele>
        <time>2026-07-07T09:39:50Z</time>
      </trkpt>
      <trkpt lat="42.96999" lon="0.29852">
        <ele>1703.3</ele>
        <time>2026-07-07T09:39:51Z</time>
      </trkpt>
      <trkpt lat="42.96999" lon="0.29853">
        <ele>1702.3</ele>
        <time>2026-07-07T09:39:52Z</time>
      </trkpt>
      <trkpt lat="42.96999" lon="0.29853">
        <ele>1702.3</ele>
        <time>2026-07-07T09:39:52Z</time>
      </trkpt>
      <trkpt lat="42.96999" lon="0.29854">
        <ele>1702.3</ele>
        <time>2026-07-07T09:39:53Z</time>
      </trkpt>
      <trkpt lat="42.96999" lon="0.29855">
        <ele>1702.3</ele>
        <time>2026-07-07T09:39:54Z</time>
      </trkpt>
      <trkpt lat="42.96999" lon="0.29855">
        <ele>1702.3</ele>
        <time>2026-07-07T09:39:55Z</time>
      </trkpt>
      <trkpt lat="42.96999" lon="0.29856">
        <ele>1702.3</ele>
        <time>2026-07-07T09:39:56Z</time>
      </trkpt>
      <trkpt lat="42.96999" lon="0.29856">
        <ele>1701.3</ele>
        <time>2026-07-07T09:39:57Z</time>
      </trkpt>
      <trkpt lat="42.96999" lon="0.29857">
        <ele>1701.3</ele>
        <time>2026-07-07T09:39:57Z</time>
      </trkpt>
      <trkpt lat="42.96999" lon="0.29857">
        <ele>1701.3</ele>
        <time>2026-07-07T09:39:58Z</time>
      </trkpt>
      <trkpt lat="42.96999" lon="0.29857">
        <ele>1702.3</ele>
        <time>2026-07-07T09:39:58Z</time>
      </trkpt>
      <trkpt lat="42.96999" lon="0.29858">
        <ele>1702.3</ele>
        <time>2026-07-07T09:39:59Z</time>
      </trkpt>
      <trkpt lat="42.96999" lon="0.29858">
        <ele>1702.3</ele>
        <time>2026-07-07T09:40:00Z</time>
      </trkpt>
      <trkpt lat="42.96999" lon="0.29858">
        <ele>1702.3</ele>
        <time>2026-07-07T09:40:01Z</time>
      </trkpt>
      <trkpt lat="42.97" lon="0.29857">
        <ele>1702.3</ele>
        <time>2026-07-07T09:40:02Z</time>
      </trkpt>
      <trkpt lat="42.97" lon="0.29857">
        <ele>1702.3</ele>
        <time>2026-07-07T09:40:03Z</time>
      </trkpt>
      <trkpt lat="42.97" lon="0.29857">
        <ele>1701.3</ele>
        <time>2026-07-07T09:40:04Z</time>
      </trkpt>
      <trkpt lat="42.97" lon="0.29856">
        <ele>1700.3</ele>
        <time>2026-07-07T09:40:05Z</time>
      </trkpt>
      <trkpt lat="42.97" lon="0.29856">
        <ele>1700.3</ele>
        <time>2026-07-07T09:40:06Z</time>
      </trkpt>
      <trkpt lat="42.96999" lon="0.29856">
        <ele>1700.3</ele>
        <time>2026-07-07T09:40:07Z</time>
      </trkpt>
      <trkpt lat="42.96999" lon="0.29856">
        <ele>1700.3</ele>
        <time>2026-07-07T09:40:07Z</time>
      </trkpt>
      <trkpt lat="42.96999" lon="0.29856">
        <ele>1700.3</ele>
        <time>2026-07-07T09:40:08Z</time>
      </trkpt>
      <trkpt lat="42.96999" lon="0.29856">
        <ele>1700.3</ele>
        <time>2026-07-07T09:40:09Z</time>
      </trkpt>
      <trkpt lat="42.96999" lon="0.29856">
        <ele>1700.3</ele>
        <time>2026-07-07T09:40:10Z</time>
      </trkpt>
      <trkpt lat="42.96999" lon="0.29856">
        <ele>1700.3</ele>
        <time>2026-07-07T09:40:11Z</time>
      </trkpt>
      <trkpt lat="42.96999" lon="0.29856">
        <ele>1700.3</ele>
        <time>2026-07-07T09:40:12Z</time>
      </trkpt>
      <trkpt lat="42.96999" lon="0.29856">
        <ele>1700.3</ele>
        <time>2026-07-07T09:40:13Z</time>
      </trkpt>
      <trkpt lat="42.96999" lon="0.29856">
        <ele>1700.3</ele>
        <time>2026-07-07T09:40:14Z</time>
      </trkpt>
      <trkpt lat="42.96999" lon="0.29856">
        <ele>1700.3</ele>
        <time>2026-07-07T09:40:15Z</time>
      </trkpt>
      <trkpt lat="42.96999" lon="0.29856">
        <ele>1700.3</ele>
        <time>2026-07-07T09:40:16Z</time>
      </trkpt>
      <trkpt lat="42.96999" lon="0.29856">
        <ele>1700.3</ele>
        <time>2026-07-07T09:40:17Z</time>
      </trkpt>
      <trkpt lat="42.96999" lon="0.29855">
        <ele>1701.3</ele>
        <time>2026-07-07T09:40:18Z</time>
      </trkpt>
      <trkpt lat="42.96999" lon="0.29855">
        <ele>1700.3</ele>
        <time>2026-07-07T09:40:19Z</time>
      </trkpt>
      <trkpt lat="42.96999" lon="0.29855">
        <ele>1700.3</ele>
        <time>2026-07-07T09:40:20Z</time>
      </trkpt>
      <trkpt lat="42.96999" lon="0.29855">
        <ele>1701.3</ele>
        <time>2026-07-07T09:40:21Z</time>
      </trkpt>
      <trkpt lat="42.96999" lon="0.29855">
        <ele>1701.3</ele>
        <time>2026-07-07T09:40:22Z</time>
      </trkpt>
      <trkpt lat="42.96999" lon="0.29855">
        <ele>1701.3</ele>
        <time>2026-07-07T09:40:23Z</time>
      </trkpt>
      <trkpt lat="42.96999" lon="0.29855">
        <ele>1701.3</ele>
        <time>2026-07-07T09:40:24Z</time>
      </trkpt>
      <trkpt lat="42.96999" lon="0.29855">
        <ele>1701.3</ele>
        <time>2026-07-07T09:40:25Z</time>
      </trkpt>
      <trkpt lat="42.96999" lon="0.29855">
        <ele>1701.3</ele>
        <time>2026-07-07T09:40:26Z</time>
      </trkpt>
      <trkpt lat="42.96999" lon="0.29855">
        <ele>1701.3</ele>
        <time>2026-07-07T09:40:27Z</time>
      </trkpt>
      <trkpt lat="42.96999" lon="0.29855">
        <ele>1701.3</ele>
        <time>2026-07-07T09:40:28Z</time>
      </trkpt>
      <trkpt lat="42.96999" lon="0.29855">
        <ele>1701.3</ele>
        <time>2026-07-07T09:40:29Z</time>
      </trkpt>
      <trkpt lat="42.96999" lon="0.29855">
        <ele>1701.3</ele>
        <time>2026-07-07T09:40:30Z</time>
      </trkpt>
      <trkpt lat="42.96999" lon="0.29855">
        <ele>1701.3</ele>
        <time>2026-07-07T09:40:31Z</time>
      </trkpt>
      <trkpt lat="42.96999" lon="0.29855">
        <ele>1701.3</ele>
        <time>2026-07-07T09:40:32Z</time>
      </trkpt>
      <trkpt lat="42.96999" lon="0.29855">
        <ele>1701.3</ele>
        <time>2026-07-07T09:40:33Z</time>
      </trkpt>
      <trkpt lat="42.96999" lon="0.29854">
        <ele>1701.3</ele>
        <time>2026-07-07T09:40:34Z</time>
      </trkpt>
      <trkpt lat="42.96999" lon="0.29855">
        <ele>1701.3</ele>
        <time>2026-07-07T09:40:35Z</time>
      </trkpt>
      <trkpt lat="42.96999" lon="0.29854">
        <ele>1701.3</ele>
        <time>2026-07-07T09:40:36Z</time>
      </trkpt>
      <trkpt lat="42.96999" lon="0.29855">
        <ele>1701.3</ele>
        <time>2026-07-07T09:40:37Z</time>
      </trkpt>
      <trkpt lat="42.96999" lon="0.29855">
        <ele>1701.3</ele>
        <time>2026-07-07T09:40:38Z</time>
      </trkpt>
      <trkpt lat="42.96999" lon="0.29855">
        <ele>1701.3</ele>
        <time>2026-07-07T09:40:39Z</time>
      </trkpt>
      <trkpt lat="42.96999" lon="0.29855">
        <ele>1701.3</ele>
        <time>2026-07-07T09:40:40Z</time>
      </trkpt>
      <trkpt lat="42.96999" lon="0.29855">
        <ele>1701.3</ele>
        <time>2026-07-07T09:40:41Z</time>
      </trkpt>
      <trkpt lat="42.96999" lon="0.29855">
        <ele>1701.3</ele>
        <time>2026-07-07T09:40:42Z</time>
      </trkpt>
      <trkpt lat="42.96999" lon="0.29855">
        <ele>1701.3</ele>
        <time>2026-07-07T09:40:43Z</time>
      </trkpt>
      <trkpt lat="42.96999" lon="0.29855">
        <ele>1701.3</ele>
        <time>2026-07-07T09:40:44Z</time>
      </trkpt>
      <trkpt lat="42.96999" lon="0.29855">
        <ele>1701.3</ele>
        <time>2026-07-07T09:40:45Z</time>
      </trkpt>
      <trkpt lat="42.96999" lon="0.29855">
        <ele>1701.3</ele>
        <time>2026-07-07T09:40:46Z</time>
      </trkpt>
      <trkpt lat="42.96999" lon="0.29855">
        <ele>1701.3</ele>
        <time>2026-07-07T09:40:47Z</time>
      </trkpt>
      <trkpt lat="42.96999" lon="0.29855">
        <ele>1701.3</ele>
        <time>2026-07-07T09:40:48Z</time>
      </trkpt>
      <trkpt lat="42.96999" lon="0.29855">
        <ele>1701.3</ele>
        <time>2026-07-07T09:40:49Z</time>
      </trkpt>
      <trkpt lat="42.96999" lon="0.29855">
        <ele>1701.3</ele>
        <time>2026-07-07T09:40:50Z</time>
      </trkpt>
      <trkpt lat="42.96999" lon="0.29855">
        <ele>1701.3</ele>
        <time>2026-07-07T09:40:51Z</time>
      </trkpt>
      <trkpt lat="42.96999" lon="0.29855">
        <ele>1701.3</ele>
        <time>2026-07-07T09:40:52Z</time>
      </trkpt>
      <trkpt lat="42.96999" lon="0.29855">
        <ele>1701.3</ele>
        <time>2026-07-07T09:40:53Z</time>
      </trkpt>
      <trkpt lat="42.96999" lon="0.29855">
        <ele>1701.3</ele>
        <time>2026-07-07T09:40:54Z</time>
      </trkpt>
      <trkpt lat="42.96999" lon="0.29855">
        <ele>1701.3</ele>
        <time>2026-07-07T09:40:55Z</time>
      </trkpt>
      <trkpt lat="42.96999" lon="0.29855">
        <ele>1701.3</ele>
        <time>2026-07-07T09:40:56Z</time>
      </trkpt>
      <trkpt lat="42.96999" lon="0.29855">
        <ele>1701.3</ele>
        <time>2026-07-07T09:40:57Z</time>
      </trkpt>
      <trkpt lat="42.96999" lon="0.29855">
        <ele>1701.3</ele>
        <time>2026-07-07T09:40:58Z</time>
      </trkpt>
      <trkpt lat="42.96999" lon="0.29855">
        <ele>1701.3</ele>
        <time>2026-07-07T09:40:59Z</time>
      </trkpt>
      <trkpt lat="42.96999" lon="0.29855">
        <ele>1701.3</ele>
        <time>2026-07-07T09:41:00Z</time>
      </trkpt>
      <trkpt lat="42.96999" lon="0.29855">
        <ele>1701.3</ele>
        <time>2026-07-07T09:41:01Z</time>
      </trkpt>
      <trkpt lat="42.96999" lon="0.29855">
        <ele>1701.3</ele>
        <time>2026-07-07T09:41:02Z</time>
      </trkpt>
      <trkpt lat="42.96999" lon="0.29855">
        <ele>1701.3</ele>
        <time>2026-07-07T09:41:03Z</time>
      </trkpt>
      <trkpt lat="42.96999" lon="0.29855">
        <ele>1701.3</ele>
        <time>2026-07-07T09:41:04Z</time>
      </trkpt>
      <trkpt lat="42.96999" lon="0.29855">
        <ele>1701.3</ele>
        <time>2026-07-07T09:41:05Z</time>
      </trkpt>
      <trkpt lat="42.96999" lon="0.29855">
        <ele>1701.3</ele>
        <time>2026-07-07T09:41:06Z</time>
      </trkpt>
      <trkpt lat="42.96999" lon="0.29855">
        <ele>1701.3</ele>
        <time>2026-07-07T09:41:07Z</time>
      </trkpt>
      <trkpt lat="42.96999" lon="0.29855">
        <ele>1701.3</ele>
        <time>2026-07-07T09:41:08Z</time>
      </trkpt>
      <trkpt lat="42.96999" lon="0.29855">
        <ele>1701.3</ele>
        <time>2026-07-07T09:41:09Z</time>
      </trkpt>
      <trkpt lat="42.96999" lon="0.29855">
        <ele>1701.3</ele>
        <time>2026-07-07T09:41:10Z</time>
      </trkpt>
      <trkpt lat="42.96999" lon="0.29855">
        <ele>1701.3</ele>
        <time>2026-07-07T09:41:11Z</time>
      </trkpt>
      <trkpt lat="42.96999" lon="0.29855">
        <ele>1701.3</ele>
        <time>2026-07-07T09:41:12Z</time>
      </trkpt>
      <trkpt lat="42.96999" lon="0.29855">
        <ele>1701.3</ele>
        <time>2026-07-07T09:41:13Z</time>
      </trkpt>
      <trkpt lat="42.96999" lon="0.29855">
        <ele>1701.3</ele>
        <time>2026-07-07T09:41:14Z</time>
      </trkpt>
      <trkpt lat="42.96999" lon="0.29855">
        <ele>1701.3</ele>
        <time>2026-07-07T09:41:15Z</time>
      </trkpt>
      <trkpt lat="42.96999" lon="0.29855">
        <ele>1701.3</ele>
        <time>2026-07-07T09:41:16Z</time>
      </trkpt>
      <trkpt lat="42.96999" lon="0.29855">
        <ele>1701.3</ele>
        <time>2026-07-07T09:41:17Z</time>
      </trkpt>
      <trkpt lat="42.96999" lon="0.29855">
        <ele>1701.3</ele>
        <time>2026-07-07T09:41:18Z</time>
      </trkpt>
      <trkpt lat="42.96999" lon="0.29855">
        <ele>1701.3</ele>
        <time>2026-07-07T09:41:19Z</time>
      </trkpt>
      <trkpt lat="42.96998" lon="0.29855">
        <ele>1701.3</ele>
        <time>2026-07-07T09:41:20Z</time>
      </trkpt>
      <trkpt lat="42.96998" lon="0.29855">
        <ele>1701.3</ele>
        <time>2026-07-07T09:41:21Z</time>
      </trkpt>
      <trkpt lat="42.96998" lon="0.29855">
        <ele>1701.3</ele>
        <time>2026-07-07T09:41:22Z</time>
      </trkpt>
      <trkpt lat="42.96998" lon="0.29855">
        <ele>1701.3</ele>
        <time>2026-07-07T09:41:23Z</time>
      </trkpt>
      <trkpt lat="42.96999" lon="0.29855">
        <ele>1701.3</ele>
        <time>2026-07-07T09:41:24Z</time>
      </trkpt>
      <trkpt lat="42.96999" lon="0.29855">
        <ele>1701.3</ele>
        <time>2026-07-07T09:41:25Z</time>
      </trkpt>
      <trkpt lat="42.96999" lon="0.29855">
        <ele>1701.3</ele>
        <time>2026-07-07T09:41:26Z</time>
      </trkpt>
      <trkpt lat="42.96999" lon="0.29855">
        <ele>1701.3</ele>
        <time>2026-07-07T09:41:27Z</time>
      </trkpt>
      <trkpt lat="42.96999" lon="0.29855">
        <ele>1701.3</ele>
        <time>2026-07-07T09:41:28Z</time>
      </trkpt>
      <trkpt lat="42.96999" lon="0.29855">
        <ele>1701.3</ele>
        <time>2026-07-07T09:41:29Z</time>
      </trkpt>
      <trkpt lat="42.96999" lon="0.29855">
        <ele>1701.3</ele>
        <time>2026-07-07T09:41:30Z</time>
      </trkpt>
      <trkpt lat="42.96999" lon="0.29855">
        <ele>1701.3</ele>
        <time>2026-07-07T09:41:31Z</time>
      </trkpt>
      <trkpt lat="42.96999" lon="0.29855">
        <ele>1701.3</ele>
        <time>2026-07-07T09:41:32Z</time>
      </trkpt>
      <trkpt lat="42.96999" lon="0.29855">
        <ele>1701.3</ele>
        <time>2026-07-07T09:41:33Z</time>
      </trkpt>
      <trkpt lat="42.96999" lon="0.29855">
        <ele>1701.3</ele>
        <time>2026-07-07T09:41:34Z</time>
      </trkpt>
      <trkpt lat="42.96999" lon="0.29855">
        <ele>1701.3</ele>
        <time>2026-07-07T09:41:35Z</time>
      </trkpt>
      <trkpt lat="42.96999" lon="0.29855">
        <ele>1701.3</ele>
        <time>2026-07-07T09:41:35Z</time>
      </trkpt>
      <trkpt lat="42.96999" lon="0.29855">
        <ele>1701.3</ele>
        <time>2026-07-07T09:41:36Z</time>
      </trkpt>
      <trkpt lat="42.96998" lon="0.29855">
        <ele>1701.3</ele>
        <time>2026-07-07T09:41:37Z</time>
      </trkpt>
      <trkpt lat="42.96998" lon="0.29855">
        <ele>1700.3</ele>
        <time>2026-07-07T09:41:38Z</time>
      </trkpt>
      <trkpt lat="42.96998" lon="0.29855">
        <ele>1700.3</ele>
        <time>2026-07-07T09:41:39Z</time>
      </trkpt>
      <trkpt lat="42.96998" lon="0.29855">
        <ele>1701.3</ele>
        <time>2026-07-07T09:41:40Z</time>
      </trkpt>
      <trkpt lat="42.96998" lon="0.29855">
        <ele>1701.3</ele>
        <time>2026-07-07T09:41:41Z</time>
      </trkpt>
      <trkpt lat="42.96998" lon="0.29855">
        <ele>1701.3</ele>
        <time>2026-07-07T09:41:42Z</time>
      </trkpt>
      <trkpt lat="42.96998" lon="0.29855">
        <ele>1701.3</ele>
        <time>2026-07-07T09:41:42Z</time>
      </trkpt>
      <trkpt lat="42.96998" lon="0.29855">
        <ele>1701.3</ele>
        <time>2026-07-07T09:41:43Z</time>
      </trkpt>
      <trkpt lat="42.96999" lon="0.29855">
        <ele>1701.3</ele>
        <time>2026-07-07T09:41:44Z</time>
      </trkpt>
      <trkpt lat="42.96999" lon="0.29855">
        <ele>1701.3</ele>
        <time>2026-07-07T09:41:45Z</time>
      </trkpt>
      <trkpt lat="42.96999" lon="0.29855">
        <ele>1701.3</ele>
        <time>2026-07-07T09:41:46Z</time>
      </trkpt>
      <trkpt lat="42.96999" lon="0.29855">
        <ele>1701.3</ele>
        <time>2026-07-07T09:41:47Z</time>
      </trkpt>
      <trkpt lat="42.96999" lon="0.29855">
        <ele>1701.3</ele>
        <time>2026-07-07T09:41:48Z</time>
      </trkpt>
      <trkpt lat="42.96999" lon="0.29855">
        <ele>1701.3</ele>
        <time>2026-07-07T09:41:49Z</time>
      </trkpt>
      <trkpt lat="42.96999" lon="0.29855">
        <ele>1701.3</ele>
        <time>2026-07-07T09:41:50Z</time>
      </trkpt>
      <trkpt lat="42.96999" lon="0.29855">
        <ele>1701.3</ele>
        <time>2026-07-07T09:41:51Z</time>
      </trkpt>
      <trkpt lat="42.96999" lon="0.29855">
        <ele>1701.3</ele>
        <time>2026-07-07T09:41:52Z</time>
      </trkpt>
      <trkpt lat="42.96999" lon="0.29855">
        <ele>1701.3</ele>
        <time>2026-07-07T09:41:53Z</time>
      </trkpt>
      <trkpt lat="42.96999" lon="0.29855">
        <ele>1700.3</ele>
        <time>2026-07-07T09:41:54Z</time>
      </trkpt>
      <trkpt lat="42.96999" lon="0.29855">
        <ele>1699.3</ele>
        <time>2026-07-07T09:41:55Z</time>
      </trkpt>
      <trkpt lat="42.96999" lon="0.29855">
        <ele>1699.3</ele>
        <time>2026-07-07T09:41:56Z</time>
      </trkpt>
      <trkpt lat="42.96999" lon="0.29855">
        <ele>1699.3</ele>
        <time>2026-07-07T09:41:57Z</time>
      </trkpt>
      <trkpt lat="42.96999" lon="0.29855">
        <ele>1699.3</ele>
        <time>2026-07-07T09:41:58Z</time>
      </trkpt>
      <trkpt lat="42.96999" lon="0.29855">
        <ele>1699.3</ele>
        <time>2026-07-07T09:41:59Z</time>
      </trkpt>
      <trkpt lat="42.96999" lon="0.29855">
        <ele>1700.3</ele>
        <time>2026-07-07T09:42:00Z</time>
      </trkpt>
      <trkpt lat="42.96999" lon="0.29855">
        <ele>1700.3</ele>
        <time>2026-07-07T09:42:01Z</time>
      </trkpt>
      <trkpt lat="42.96999" lon="0.29855">
        <ele>1700.3</ele>
        <time>2026-07-07T09:42:02Z</time>
      </trkpt>
      <trkpt lat="42.96999" lon="0.29855">
        <ele>1701.3</ele>
        <time>2026-07-07T09:42:03Z</time>
      </trkpt>
      <trkpt lat="42.96999" lon="0.29855">
        <ele>1701.3</ele>
        <time>2026-07-07T09:42:04Z</time>
      </trkpt>
      <trkpt lat="42.96999" lon="0.29856">
        <ele>1701.3</ele>
        <time>2026-07-07T09:42:05Z</time>
      </trkpt>
      <trkpt lat="42.97" lon="0.29856">
        <ele>1701.3</ele>
        <time>2026-07-07T09:42:06Z</time>
      </trkpt>
      <trkpt lat="42.97" lon="0.29856">
        <ele>1701.3</ele>
        <time>2026-07-07T09:42:07Z</time>
      </trkpt>
      <trkpt lat="42.97" lon="0.29856">
        <ele>1701.3</ele>
        <time>2026-07-07T09:42:08Z</time>
      </trkpt>
      <trkpt lat="42.97" lon="0.29857">
        <ele>1701.3</ele>
        <time>2026-07-07T09:42:09Z</time>
      </trkpt>
      <trkpt lat="42.97001" lon="0.29857">
        <ele>1701.3</ele>
        <time>2026-07-07T09:42:10Z</time>
      </trkpt>
      <trkpt lat="42.97001" lon="0.29857">
        <ele>1701.3</ele>
        <time>2026-07-07T09:42:11Z</time>
      </trkpt>
      <trkpt lat="42.97001" lon="0.29857">
        <ele>1701.3</ele>
        <time>2026-07-07T09:42:12Z</time>
      </trkpt>
      <trkpt lat="42.97001" lon="0.29857">
        <ele>1701.3</ele>
        <time>2026-07-07T09:42:13Z</time>
      </trkpt>
      <trkpt lat="42.97001" lon="0.29857">
        <ele>1701.3</ele>
        <time>2026-07-07T09:42:14Z</time>
      </trkpt>
      <trkpt lat="42.97001" lon="0.29857">
        <ele>1701.3</ele>
        <time>2026-07-07T09:42:15Z</time>
      </trkpt>
      <trkpt lat="42.97001" lon="0.29858">
        <ele>1701.3</ele>
        <time>2026-07-07T09:42:16Z</time>
      </trkpt>
      <trkpt lat="42.97001" lon="0.29858">
        <ele>1701.3</ele>
        <time>2026-07-07T09:42:17Z</time>
      </trkpt>
      <trkpt lat="42.97001" lon="0.29858">
        <ele>1701.3</ele>
        <time>2026-07-07T09:42:18Z</time>
      </trkpt>
      <trkpt lat="42.97001" lon="0.29858">
        <ele>1701.3</ele>
        <time>2026-07-07T09:42:19Z</time>
      </trkpt>
      <trkpt lat="42.97001" lon="0.29858">
        <ele>1701.3</ele>
        <time>2026-07-07T09:42:20Z</time>
      </trkpt>
      <trkpt lat="42.97001" lon="0.29858">
        <ele>1701.3</ele>
        <time>2026-07-07T09:42:21Z</time>
      </trkpt>
      <trkpt lat="42.97001" lon="0.29858">
        <ele>1701.3</ele>
        <time>2026-07-07T09:42:22Z</time>
      </trkpt>
      <trkpt lat="42.97001" lon="0.29858">
        <ele>1701.3</ele>
        <time>2026-07-07T09:42:23Z</time>
      </trkpt>
      <trkpt lat="42.97001" lon="0.29858">
        <ele>1701.3</ele>
        <time>2026-07-07T09:42:24Z</time>
      </trkpt>
      <trkpt lat="42.97001" lon="0.29858">
        <ele>1701.3</ele>
        <time>2026-07-07T09:42:25Z</time>
      </trkpt>
      <trkpt lat="42.97001" lon="0.29858">
        <ele>1701.3</ele>
        <time>2026-07-07T09:42:26Z</time>
      </trkpt>
      <trkpt lat="42.97001" lon="0.29858">
        <ele>1701.3</ele>
        <time>2026-07-07T09:42:27Z</time>
      </trkpt>
      <trkpt lat="42.97002" lon="0.29859">
        <ele>1700.3</ele>
        <time>2026-07-07T09:42:28Z</time>
      </trkpt>
      <trkpt lat="42.97002" lon="0.29859">
        <ele>1700.3</ele>
        <time>2026-07-07T09:42:29Z</time>
      </trkpt>
      <trkpt lat="42.97002" lon="0.29859">
        <ele>1700.3</ele>
        <time>2026-07-07T09:42:30Z</time>
      </trkpt>
      <trkpt lat="42.97002" lon="0.29859">
        <ele>1700.3</ele>
        <time>2026-07-07T09:42:31Z</time>
      </trkpt>
      <trkpt lat="42.97002" lon="0.29859">
        <ele>1700.3</ele>
        <time>2026-07-07T09:42:32Z</time>
      </trkpt>
      <trkpt lat="42.97002" lon="0.29859">
        <ele>1699.3</ele>
        <time>2026-07-07T09:42:33Z</time>
      </trkpt>
      <trkpt lat="42.97002" lon="0.29859">
        <ele>1699.3</ele>
        <time>2026-07-07T09:42:34Z</time>
      </trkpt>
      <trkpt lat="42.97002" lon="0.29859">
        <ele>1699.3</ele>
        <time>2026-07-07T09:42:35Z</time>
      </trkpt>
      <trkpt lat="42.97002" lon="0.29859">
        <ele>1699.3</ele>
        <time>2026-07-07T09:42:36Z</time>
      </trkpt>
      <trkpt lat="42.97002" lon="0.29859">
        <ele>1699.3</ele>
        <time>2026-07-07T09:42:37Z</time>
      </trkpt>
      <trkpt lat="42.97002" lon="0.29859">
        <ele>1699.3</ele>
        <time>2026-07-07T09:42:38Z</time>
      </trkpt>
      <trkpt lat="42.97002" lon="0.29859">
        <ele>1699.3</ele>
        <time>2026-07-07T09:42:39Z</time>
      </trkpt>
      <trkpt lat="42.97002" lon="0.29859">
        <ele>1699.3</ele>
        <time>2026-07-07T09:42:40Z</time>
      </trkpt>
      <trkpt lat="42.97001" lon="0.29859">
        <ele>1699.3</ele>
        <time>2026-07-07T09:42:41Z</time>
      </trkpt>
      <trkpt lat="42.97001" lon="0.29859">
        <ele>1699.3</ele>
        <time>2026-07-07T09:42:42Z</time>
      </trkpt>
      <trkpt lat="42.97001" lon="0.29859">
        <ele>1699.3</ele>
        <time>2026-07-07T09:42:43Z</time>
      </trkpt>
      <trkpt lat="42.97001" lon="0.29859">
        <ele>1699.3</ele>
        <time>2026-07-07T09:42:44Z</time>
      </trkpt>
      <trkpt lat="42.97001" lon="0.29859">
        <ele>1699.3</ele>
        <time>2026-07-07T09:42:45Z</time>
      </trkpt>
      <trkpt lat="42.97001" lon="0.29859">
        <ele>1699.3</ele>
        <time>2026-07-07T09:42:46Z</time>
      </trkpt>
      <trkpt lat="42.97001" lon="0.29859">
        <ele>1699.3</ele>
        <time>2026-07-07T09:42:47Z</time>
      </trkpt>
      <trkpt lat="42.97001" lon="0.29859">
        <ele>1699.3</ele>
        <time>2026-07-07T09:42:48Z</time>
      </trkpt>
      <trkpt lat="42.97001" lon="0.29859">
        <ele>1699.3</ele>
        <time>2026-07-07T09:42:49Z</time>
      </trkpt>
      <trkpt lat="42.97001" lon="0.29859">
        <ele>1699.3</ele>
        <time>2026-07-07T09:42:50Z</time>
      </trkpt>
      <trkpt lat="42.97001" lon="0.29859">
        <ele>1699.3</ele>
        <time>2026-07-07T09:42:51Z</time>
      </trkpt>
      <trkpt lat="42.97001" lon="0.29859">
        <ele>1699.3</ele>
        <time>2026-07-07T09:42:52Z</time>
      </trkpt>
      <trkpt lat="42.97001" lon="0.29859">
        <ele>1699.3</ele>
        <time>2026-07-07T09:42:53Z</time>
      </trkpt>
      <trkpt lat="42.97001" lon="0.29859">
        <ele>1699.3</ele>
        <time>2026-07-07T09:42:54Z</time>
      </trkpt>
      <trkpt lat="42.97001" lon="0.29859">
        <ele>1699.3</ele>
        <time>2026-07-07T09:42:55Z</time>
      </trkpt>
      <trkpt lat="42.97001" lon="0.29859">
        <ele>1699.3</ele>
        <time>2026-07-07T09:42:56Z</time>
      </trkpt>
      <trkpt lat="42.97001" lon="0.29859">
        <ele>1699.3</ele>
        <time>2026-07-07T09:42:57Z</time>
      </trkpt>
      <trkpt lat="42.97001" lon="0.29859">
        <ele>1699.3</ele>
        <time>2026-07-07T09:42:58Z</time>
      </trkpt>
      <trkpt lat="42.97001" lon="0.29859">
        <ele>1699.3</ele>
        <time>2026-07-07T09:42:59Z</time>
      </trkpt>
      <trkpt lat="42.97001" lon="0.29859">
        <ele>1699.3</ele>
        <time>2026-07-07T09:43:00Z</time>
      </trkpt>
      <trkpt lat="42.97001" lon="0.29859">
        <ele>1699.3</ele>
        <time>2026-07-07T09:43:01Z</time>
      </trkpt>
      <trkpt lat="42.97001" lon="0.29859">
        <ele>1699.3</ele>
        <time>2026-07-07T09:43:02Z</time>
      </trkpt>
      <trkpt lat="42.97001" lon="0.29859">
        <ele>1699.3</ele>
        <time>2026-07-07T09:43:03Z</time>
      </trkpt>
      <trkpt lat="42.97001" lon="0.29859">
        <ele>1699.3</ele>
        <time>2026-07-07T09:43:04Z</time>
      </trkpt>
      <trkpt lat="42.97001" lon="0.29859">
        <ele>1699.3</ele>
        <time>2026-07-07T09:43:05Z</time>
      </trkpt>
      <trkpt lat="42.97001" lon="0.2986">
        <ele>1699.3</ele>
        <time>2026-07-07T09:43:06Z</time>
      </trkpt>
      <trkpt lat="42.97" lon="0.29861">
        <ele>1699.3</ele>
        <time>2026-07-07T09:43:07Z</time>
      </trkpt>
      <trkpt lat="42.97" lon="0.29862">
        <ele>1699.3</ele>
        <time>2026-07-07T09:43:08Z</time>
      </trkpt>
      <trkpt lat="42.97" lon="0.29862">
        <ele>1699.3</ele>
        <time>2026-07-07T09:43:09Z</time>
      </trkpt>
      <trkpt lat="42.97" lon="0.29862">
        <ele>1699.3</ele>
        <time>2026-07-07T09:43:10Z</time>
      </trkpt>
      <trkpt lat="42.97" lon="0.29862">
        <ele>1699.3</ele>
        <time>2026-07-07T09:43:10Z</time>
      </trkpt>
      <trkpt lat="42.97" lon="0.29862">
        <ele>1699.3</ele>
        <time>2026-07-07T09:43:11Z</time>
      </trkpt>
      <trkpt lat="42.96999" lon="0.29861">
        <ele>1698.3</ele>
        <time>2026-07-07T09:43:12Z</time>
      </trkpt>
      <trkpt lat="42.96999" lon="0.29861">
        <ele>1698.3</ele>
        <time>2026-07-07T09:43:12Z</time>
      </trkpt>
      <trkpt lat="42.96999" lon="0.2986">
        <ele>1698.3</ele>
        <time>2026-07-07T09:43:13Z</time>
      </trkpt>
      <trkpt lat="42.96998" lon="0.2986">
        <ele>1698.3</ele>
        <time>2026-07-07T09:43:14Z</time>
      </trkpt>
      <trkpt lat="42.96998" lon="0.29859">
        <ele>1698.3</ele>
        <time>2026-07-07T09:43:15Z</time>
      </trkpt>
      <trkpt lat="42.96998" lon="0.29859">
        <ele>1698.3</ele>
        <time>2026-07-07T09:43:16Z</time>
      </trkpt>
      <trkpt lat="42.96998" lon="0.29859">
        <ele>1698.3</ele>
        <time>2026-07-07T09:43:17Z</time>
      </trkpt>
      <trkpt lat="42.96998" lon="0.29859">
        <ele>1698.3</ele>
        <time>2026-07-07T09:43:18Z</time>
      </trkpt>
      <trkpt lat="42.96998" lon="0.29859">
        <ele>1698.3</ele>
        <time>2026-07-07T09:43:18Z</time>
      </trkpt>
      <trkpt lat="42.96998" lon="0.29859">
        <ele>1698.3</ele>
        <time>2026-07-07T09:43:19Z</time>
      </trkpt>
      <trkpt lat="42.96998" lon="0.29859">
        <ele>1698.3</ele>
        <time>2026-07-07T09:43:20Z</time>
      </trkpt>
      <trkpt lat="42.96998" lon="0.29859">
        <ele>1698.3</ele>
        <time>2026-07-07T09:43:20Z</time>
      </trkpt>
      <trkpt lat="42.96998" lon="0.29859">
        <ele>1698.3</ele>
        <time>2026-07-07T09:43:21Z</time>
      </trkpt>
      <trkpt lat="42.96998" lon="0.29859">
        <ele>1697.3</ele>
        <time>2026-07-07T09:43:22Z</time>
      </trkpt>
      <trkpt lat="42.96998" lon="0.29859">
        <ele>1697.3</ele>
        <time>2026-07-07T09:43:23Z</time>
      </trkpt>
      <trkpt lat="42.96998" lon="0.29859">
        <ele>1696.3</ele>
        <time>2026-07-07T09:43:23Z</time>
      </trkpt>
      <trkpt lat="42.96997" lon="0.29859">
        <ele>1696.3</ele>
        <time>2026-07-07T09:43:24Z</time>
      </trkpt>
      <trkpt lat="42.96997" lon="0.29859">
        <ele>1696.3</ele>
        <time>2026-07-07T09:43:25Z</time>
      </trkpt>
      <trkpt lat="42.96997" lon="0.29859">
        <ele>1696.3</ele>
        <time>2026-07-07T09:43:26Z</time>
      </trkpt>
      <trkpt lat="42.96997" lon="0.29859">
        <ele>1696.3</ele>
        <time>2026-07-07T09:43:27Z</time>
      </trkpt>
      <trkpt lat="42.96997" lon="0.29859">
        <ele>1697.3</ele>
        <time>2026-07-07T09:43:28Z</time>
      </trkpt>
      <trkpt lat="42.96995" lon="0.29858">
        <ele>1697.3</ele>
        <time>2026-07-07T09:43:29Z</time>
      </trkpt>
      <trkpt lat="42.96995" lon="0.29858">
        <ele>1696.3</ele>
        <time>2026-07-07T09:43:30Z</time>
      </trkpt>
      <trkpt lat="42.96995" lon="0.29858">
        <ele>1696.3</ele>
        <time>2026-07-07T09:43:31Z</time>
      </trkpt>
      <trkpt lat="42.96994" lon="0.29858">
        <ele>1696.3</ele>
        <time>2026-07-07T09:43:32Z</time>
      </trkpt>
      <trkpt lat="42.96994" lon="0.29858">
        <ele>1696.3</ele>
        <time>2026-07-07T09:43:33Z</time>
      </trkpt>
      <trkpt lat="42.96995" lon="0.29859">
        <ele>1696.3</ele>
        <time>2026-07-07T09:43:34Z</time>
      </trkpt>
      <trkpt lat="42.96994" lon="0.29859">
        <ele>1696.3</ele>
        <time>2026-07-07T09:43:35Z</time>
      </trkpt>
      <trkpt lat="42.96994" lon="0.29859">
        <ele>1696.3</ele>
        <time>2026-07-07T09:43:36Z</time>
      </trkpt>
      <trkpt lat="42.96994" lon="0.29859">
        <ele>1696.3</ele>
        <time>2026-07-07T09:43:37Z</time>
      </trkpt>
      <trkpt lat="42.96994" lon="0.29859">
        <ele>1696.3</ele>
        <time>2026-07-07T09:43:38Z</time>
      </trkpt>
      <trkpt lat="42.96994" lon="0.29859">
        <ele>1696.3</ele>
        <time>2026-07-07T09:43:39Z</time>
      </trkpt>
      <trkpt lat="42.96994" lon="0.29859">
        <ele>1696.3</ele>
        <time>2026-07-07T09:43:40Z</time>
      </trkpt>
      <trkpt lat="42.96994" lon="0.29859">
        <ele>1696.3</ele>
        <time>2026-07-07T09:43:41Z</time>
      </trkpt>
      <trkpt lat="42.96994" lon="0.29859">
        <ele>1696.3</ele>
        <time>2026-07-07T09:43:42Z</time>
      </trkpt>
      <trkpt lat="42.96994" lon="0.29859">
        <ele>1696.3</ele>
        <time>2026-07-07T09:43:43Z</time>
      </trkpt>
      <trkpt lat="42.96993" lon="0.2986">
        <ele>1696.3</ele>
        <time>2026-07-07T09:43:44Z</time>
      </trkpt>
      <trkpt lat="42.96993" lon="0.2986">
        <ele>1696.3</ele>
        <time>2026-07-07T09:43:45Z</time>
      </trkpt>
      <trkpt lat="42.96993" lon="0.2986">
        <ele>1696.3</ele>
        <time>2026-07-07T09:43:46Z</time>
      </trkpt>
      <trkpt lat="42.96992" lon="0.2986">
        <ele>1696.3</ele>
        <time>2026-07-07T09:43:47Z</time>
      </trkpt>
      <trkpt lat="42.96992" lon="0.2986">
        <ele>1696.3</ele>
        <time>2026-07-07T09:43:48Z</time>
      </trkpt>
      <trkpt lat="42.96991" lon="0.29861">
        <ele>1695.3</ele>
        <time>2026-07-07T09:43:49Z</time>
      </trkpt>
      <trkpt lat="42.9699" lon="0.29861">
        <ele>1695.3</ele>
        <time>2026-07-07T09:43:50Z</time>
      </trkpt>
      <trkpt lat="42.9699" lon="0.29861">
        <ele>1694.3</ele>
        <time>2026-07-07T09:43:51Z</time>
      </trkpt>
      <trkpt lat="42.96989" lon="0.29861">
        <ele>1693.3</ele>
        <time>2026-07-07T09:43:52Z</time>
      </trkpt>
      <trkpt lat="42.96989" lon="0.29862">
        <ele>1692.3</ele>
        <time>2026-07-07T09:43:53Z</time>
      </trkpt>
      <trkpt lat="42.96989" lon="0.29863">
        <ele>1692.3</ele>
        <time>2026-07-07T09:43:54Z</time>
      </trkpt>
      <trkpt lat="42.96988" lon="0.29863">
        <ele>1692.3</ele>
        <time>2026-07-07T09:43:55Z</time>
      </trkpt>
      <trkpt lat="42.96988" lon="0.29863">
        <ele>1692.3</ele>
        <time>2026-07-07T09:43:56Z</time>
      </trkpt>
      <trkpt lat="42.96987" lon="0.29864">
        <ele>1692.3</ele>
        <time>2026-07-07T09:43:57Z</time>
      </trkpt>
      <trkpt lat="42.96987" lon="0.29864">
        <ele>1692.3</ele>
        <time>2026-07-07T09:43:58Z</time>
      </trkpt>
      <trkpt lat="42.96987" lon="0.29865">
        <ele>1692.3</ele>
        <time>2026-07-07T09:43:59Z</time>
      </trkpt>
      <trkpt lat="42.96987" lon="0.29866">
        <ele>1692.3</ele>
        <time>2026-07-07T09:44:00Z</time>
      </trkpt>
      <trkpt lat="42.96987" lon="0.29867">
        <ele>1692.3</ele>
        <time>2026-07-07T09:44:01Z</time>
      </trkpt>
      <trkpt lat="42.96986" lon="0.29867">
        <ele>1692.3</ele>
        <time>2026-07-07T09:44:02Z</time>
      </trkpt>
      <trkpt lat="42.96986" lon="0.29867">
        <ele>1692.3</ele>
        <time>2026-07-07T09:44:03Z</time>
      </trkpt>
      <trkpt lat="42.96986" lon="0.29867">
        <ele>1691.3</ele>
        <time>2026-07-07T09:44:04Z</time>
      </trkpt>
      <trkpt lat="42.96986" lon="0.29867">
        <ele>1691.3</ele>
        <time>2026-07-07T09:44:05Z</time>
      </trkpt>
      <trkpt lat="42.96986" lon="0.29867">
        <ele>1691.3</ele>
        <time>2026-07-07T09:44:06Z</time>
      </trkpt>
      <trkpt lat="42.96985" lon="0.29867">
        <ele>1691.3</ele>
        <time>2026-07-07T09:44:07Z</time>
      </trkpt>
      <trkpt lat="42.96985" lon="0.29868">
        <ele>1691.3</ele>
        <time>2026-07-07T09:44:08Z</time>
      </trkpt>
      <trkpt lat="42.96984" lon="0.29868">
        <ele>1690.3</ele>
        <time>2026-07-07T09:44:09Z</time>
      </trkpt>
      <trkpt lat="42.96983" lon="0.29868">
        <ele>1690.3</ele>
        <time>2026-07-07T09:44:10Z</time>
      </trkpt>
      <trkpt lat="42.96982" lon="0.29868">
        <ele>1690.3</ele>
        <time>2026-07-07T09:44:11Z</time>
      </trkpt>
      <trkpt lat="42.96982" lon="0.29867">
        <ele>1690.3</ele>
        <time>2026-07-07T09:44:12Z</time>
      </trkpt>
      <trkpt lat="42.96981" lon="0.29867">
        <ele>1690.3</ele>
        <time>2026-07-07T09:44:13Z</time>
      </trkpt>
      <trkpt lat="42.9698" lon="0.29867">
        <ele>1689.3</ele>
        <time>2026-07-07T09:44:14Z</time>
      </trkpt>
      <trkpt lat="42.9698" lon="0.29868">
        <ele>1689.3</ele>
        <time>2026-07-07T09:44:15Z</time>
      </trkpt>
      <trkpt lat="42.96979" lon="0.29869">
        <ele>1689.3</ele>
        <time>2026-07-07T09:44:16Z</time>
      </trkpt>
      <trkpt lat="42.9698" lon="0.2987">
        <ele>1688.3</ele>
        <time>2026-07-07T09:44:17Z</time>
      </trkpt>
      <trkpt lat="42.96979" lon="0.29872">
        <ele>1687.3</ele>
        <time>2026-07-07T09:44:18Z</time>
      </trkpt>
      <trkpt lat="42.96978" lon="0.29874">
        <ele>1687.3</ele>
        <time>2026-07-07T09:44:19Z</time>
      </trkpt>
      <trkpt lat="42.96977" lon="0.29875">
        <ele>1686.3</ele>
        <time>2026-07-07T09:44:20Z</time>
      </trkpt>
      <trkpt lat="42.96976" lon="0.29875">
        <ele>1686.3</ele>
        <time>2026-07-07T09:44:20Z</time>
      </trkpt>
      <trkpt lat="42.96976" lon="0.29875">
        <ele>1686.3</ele>
        <time>2026-07-07T09:44:21Z</time>
      </trkpt>
      <trkpt lat="42.96975" lon="0.29875">
        <ele>1686.3</ele>
        <time>2026-07-07T09:44:22Z</time>
      </trkpt>
      <trkpt lat="42.96974" lon="0.29875">
        <ele>1685.3</ele>
        <time>2026-07-07T09:44:23Z</time>
      </trkpt>
      <trkpt lat="42.96974" lon="0.29876">
        <ele>1685.3</ele>
        <time>2026-07-07T09:44:23Z</time>
      </trkpt>
      <trkpt lat="42.96973" lon="0.29876">
        <ele>1684.3</ele>
        <time>2026-07-07T09:44:24Z</time>
      </trkpt>
      <trkpt lat="42.96973" lon="0.29877">
        <ele>1685.3</ele>
        <time>2026-07-07T09:44:25Z</time>
      </trkpt>
      <trkpt lat="42.96973" lon="0.29877">
        <ele>1684.3</ele>
        <time>2026-07-07T09:44:25Z</time>
      </trkpt>
      <trkpt lat="42.96972" lon="0.29878">
        <ele>1684.3</ele>
        <time>2026-07-07T09:44:26Z</time>
      </trkpt>
      <trkpt lat="42.96972" lon="0.29878">
        <ele>1684.3</ele>
        <time>2026-07-07T09:44:26Z</time>
      </trkpt>
      <trkpt lat="42.96972" lon="0.29879">
        <ele>1684.3</ele>
        <time>2026-07-07T09:44:27Z</time>
      </trkpt>
      <trkpt lat="42.96971" lon="0.29879">
        <ele>1683.3</ele>
        <time>2026-07-07T09:44:28Z</time>
      </trkpt>
      <trkpt lat="42.96971" lon="0.29879">
        <ele>1683.3</ele>
        <time>2026-07-07T09:44:28Z</time>
      </trkpt>
      <trkpt lat="42.96971" lon="0.2988">
        <ele>1683.3</ele>
        <time>2026-07-07T09:44:29Z</time>
      </trkpt>
      <trkpt lat="42.96971" lon="0.2988">
        <ele>1683.3</ele>
        <time>2026-07-07T09:44:29Z</time>
      </trkpt>
      <trkpt lat="42.9697" lon="0.29881">
        <ele>1683.3</ele>
        <time>2026-07-07T09:44:30Z</time>
      </trkpt>
      <trkpt lat="42.9697" lon="0.29881">
        <ele>1683.3</ele>
        <time>2026-07-07T09:44:31Z</time>
      </trkpt>
      <trkpt lat="42.96969" lon="0.29881">
        <ele>1683.3</ele>
        <time>2026-07-07T09:44:31Z</time>
      </trkpt>
      <trkpt lat="42.96969" lon="0.29881">
        <ele>1682.3</ele>
        <time>2026-07-07T09:44:32Z</time>
      </trkpt>
      <trkpt lat="42.96968" lon="0.29881">
        <ele>1682.3</ele>
        <time>2026-07-07T09:44:32Z</time>
      </trkpt>
      <trkpt lat="42.96968" lon="0.29881">
        <ele>1682.3</ele>
        <time>2026-07-07T09:44:33Z</time>
      </trkpt>
      <trkpt lat="42.96967" lon="0.29881">
        <ele>1682.3</ele>
        <time>2026-07-07T09:44:34Z</time>
      </trkpt>
      <trkpt lat="42.96966" lon="0.29881">
        <ele>1682.3</ele>
        <time>2026-07-07T09:44:34Z</time>
      </trkpt>
      <trkpt lat="42.96966" lon="0.29881">
        <ele>1682.3</ele>
        <time>2026-07-07T09:44:35Z</time>
      </trkpt>
      <trkpt lat="42.96966" lon="0.29881">
        <ele>1681.3</ele>
        <time>2026-07-07T09:44:35Z</time>
      </trkpt>
      <trkpt lat="42.96965" lon="0.29881">
        <ele>1681.3</ele>
        <time>2026-07-07T09:44:36Z</time>
      </trkpt>
      <trkpt lat="42.96965" lon="0.29881">
        <ele>1681.3</ele>
        <time>2026-07-07T09:44:36Z</time>
      </trkpt>
      <trkpt lat="42.96964" lon="0.29882">
        <ele>1681.3</ele>
        <time>2026-07-07T09:44:37Z</time>
      </trkpt>
      <trkpt lat="42.96964" lon="0.29882">
        <ele>1681.3</ele>
        <time>2026-07-07T09:44:38Z</time>
      </trkpt>
      <trkpt lat="42.96963" lon="0.29882">
        <ele>1681.3</ele>
        <time>2026-07-07T09:44:38Z</time>
      </trkpt>
      <trkpt lat="42.96963" lon="0.29882">
        <ele>1681.3</ele>
        <time>2026-07-07T09:44:39Z</time>
      </trkpt>
      <trkpt lat="42.96963" lon="0.29882">
        <ele>1681.3</ele>
        <time>2026-07-07T09:44:39Z</time>
      </trkpt>
      <trkpt lat="42.96962" lon="0.29882">
        <ele>1681.3</ele>
        <time>2026-07-07T09:44:40Z</time>
      </trkpt>
      <trkpt lat="42.96962" lon="0.29882">
        <ele>1681.3</ele>
        <time>2026-07-07T09:44:40Z</time>
      </trkpt>
      <trkpt lat="42.96961" lon="0.29882">
        <ele>1681.3</ele>
        <time>2026-07-07T09:44:41Z</time>
      </trkpt>
      <trkpt lat="42.96961" lon="0.29882">
        <ele>1681.3</ele>
        <time>2026-07-07T09:44:41Z</time>
      </trkpt>
      <trkpt lat="42.96961" lon="0.29882">
        <ele>1681.3</ele>
        <time>2026-07-07T09:44:42Z</time>
      </trkpt>
      <trkpt lat="42.9696" lon="0.29882">
        <ele>1681.3</ele>
        <time>2026-07-07T09:44:42Z</time>
      </trkpt>
      <trkpt lat="42.9696" lon="0.29882">
        <ele>1681.3</ele>
        <time>2026-07-07T09:44:43Z</time>
      </trkpt>
      <trkpt lat="42.96959" lon="0.29882">
        <ele>1680.3</ele>
        <time>2026-07-07T09:44:43Z</time>
      </trkpt>
      <trkpt lat="42.96959" lon="0.29882">
        <ele>1680.3</ele>
        <time>2026-07-07T09:44:44Z</time>
      </trkpt>
      <trkpt lat="42.96959" lon="0.29882">
        <ele>1680.3</ele>
        <time>2026-07-07T09:44:44Z</time>
      </trkpt>
      <trkpt lat="42.96958" lon="0.29883">
        <ele>1680.3</ele>
        <time>2026-07-07T09:44:45Z</time>
      </trkpt>
      <trkpt lat="42.96958" lon="0.29883">
        <ele>1680.3</ele>
        <time>2026-07-07T09:44:46Z</time>
      </trkpt>
      <trkpt lat="42.96957" lon="0.29883">
        <ele>1679.3</ele>
        <time>2026-07-07T09:44:46Z</time>
      </trkpt>
      <trkpt lat="42.96957" lon="0.29884">
        <ele>1679.3</ele>
        <time>2026-07-07T09:44:47Z</time>
      </trkpt>
      <trkpt lat="42.96957" lon="0.29884">
        <ele>1678.3</ele>
        <time>2026-07-07T09:44:48Z</time>
      </trkpt>
      <trkpt lat="42.96957" lon="0.29884">
        <ele>1678.3</ele>
        <time>2026-07-07T09:44:48Z</time>
      </trkpt>
      <trkpt lat="42.96956" lon="0.29885">
        <ele>1678.3</ele>
        <time>2026-07-07T09:44:49Z</time>
      </trkpt>
      <trkpt lat="42.96956" lon="0.29885">
        <ele>1678.3</ele>
        <time>2026-07-07T09:44:49Z</time>
      </trkpt>
      <trkpt lat="42.96956" lon="0.29885">
        <ele>1678.3</ele>
        <time>2026-07-07T09:44:50Z</time>
      </trkpt>
      <trkpt lat="42.96956" lon="0.29885">
        <ele>1675.3</ele>
        <time>2026-07-07T09:44:51Z</time>
      </trkpt>
      <trkpt lat="42.96955" lon="0.29886">
        <ele>1674.3</ele>
        <time>2026-07-07T09:44:51Z</time>
      </trkpt>
      <trkpt lat="42.96955" lon="0.29886">
        <ele>1674.3</ele>
        <time>2026-07-07T09:44:52Z</time>
      </trkpt>
      <trkpt lat="42.96954" lon="0.29887">
        <ele>1675.3</ele>
        <time>2026-07-07T09:44:53Z</time>
      </trkpt>
      <trkpt lat="42.96954" lon="0.29887">
        <ele>1674.3</ele>
        <time>2026-07-07T09:44:54Z</time>
      </trkpt>
      <trkpt lat="42.96953" lon="0.29887">
        <ele>1674.3</ele>
        <time>2026-07-07T09:44:54Z</time>
      </trkpt>
      <trkpt lat="42.96953" lon="0.29888">
        <ele>1674.3</ele>
        <time>2026-07-07T09:44:55Z</time>
      </trkpt>
      <trkpt lat="42.96953" lon="0.29888">
        <ele>1674.3</ele>
        <time>2026-07-07T09:44:55Z</time>
      </trkpt>
      <trkpt lat="42.96952" lon="0.29888">
        <ele>1674.3</ele>
        <time>2026-07-07T09:44:56Z</time>
      </trkpt>
      <trkpt lat="42.96952" lon="0.29889">
        <ele>1674.3</ele>
        <time>2026-07-07T09:44:56Z</time>
      </trkpt>
      <trkpt lat="42.96951" lon="0.29889">
        <ele>1674.3</ele>
        <time>2026-07-07T09:44:57Z</time>
      </trkpt>
      <trkpt lat="42.96951" lon="0.29889">
        <ele>1673.3</ele>
        <time>2026-07-07T09:44:58Z</time>
      </trkpt>
      <trkpt lat="42.9695" lon="0.2989">
        <ele>1673.3</ele>
        <time>2026-07-07T09:44:58Z</time>
      </trkpt>
      <trkpt lat="42.96951" lon="0.2989">
        <ele>1673.3</ele>
        <time>2026-07-07T09:44:59Z</time>
      </trkpt>
      <trkpt lat="42.96951" lon="0.2989">
        <ele>1673.3</ele>
        <time>2026-07-07T09:44:59Z</time>
      </trkpt>
      <trkpt lat="42.96951" lon="0.29891">
        <ele>1673.3</ele>
        <time>2026-07-07T09:45:00Z</time>
      </trkpt>
      <trkpt lat="42.9695" lon="0.29892">
        <ele>1672.3</ele>
        <time>2026-07-07T09:45:01Z</time>
      </trkpt>
      <trkpt lat="42.9695" lon="0.29892">
        <ele>1672.3</ele>
        <time>2026-07-07T09:45:01Z</time>
      </trkpt>
      <trkpt lat="42.9695" lon="0.29893">
        <ele>1672.3</ele>
        <time>2026-07-07T09:45:02Z</time>
      </trkpt>
      <trkpt lat="42.96949" lon="0.29894">
        <ele>1672.3</ele>
        <time>2026-07-07T09:45:03Z</time>
      </trkpt>
      <trkpt lat="42.96949" lon="0.29894">
        <ele>1671.3</ele>
        <time>2026-07-07T09:45:03Z</time>
      </trkpt>
      <trkpt lat="42.96948" lon="0.29894">
        <ele>1671.3</ele>
        <time>2026-07-07T09:45:04Z</time>
      </trkpt>
      <trkpt lat="42.96947" lon="0.29894">
        <ele>1672.3</ele>
        <time>2026-07-07T09:45:05Z</time>
      </trkpt>
      <trkpt lat="42.96947" lon="0.29894">
        <ele>1672.3</ele>
        <time>2026-07-07T09:45:05Z</time>
      </trkpt>
      <trkpt lat="42.96946" lon="0.29894">
        <ele>1672.3</ele>
        <time>2026-07-07T09:45:06Z</time>
      </trkpt>
      <trkpt lat="42.96946" lon="0.29894">
        <ele>1672.3</ele>
        <time>2026-07-07T09:45:06Z</time>
      </trkpt>
      <trkpt lat="42.96945" lon="0.29895">
        <ele>1671.3</ele>
        <time>2026-07-07T09:45:07Z</time>
      </trkpt>
      <trkpt lat="42.96944" lon="0.29895">
        <ele>1671.3</ele>
        <time>2026-07-07T09:45:08Z</time>
      </trkpt>
      <trkpt lat="42.96944" lon="0.29895">
        <ele>1671.3</ele>
        <time>2026-07-07T09:45:09Z</time>
      </trkpt>
      <trkpt lat="42.96943" lon="0.29896">
        <ele>1671.3</ele>
        <time>2026-07-07T09:45:09Z</time>
      </trkpt>
      <trkpt lat="42.96943" lon="0.29896">
        <ele>1671.3</ele>
        <time>2026-07-07T09:45:10Z</time>
      </trkpt>
      <trkpt lat="42.96942" lon="0.29896">
        <ele>1671.3</ele>
        <time>2026-07-07T09:45:10Z</time>
      </trkpt>
      <trkpt lat="42.96942" lon="0.29896">
        <ele>1671.3</ele>
        <time>2026-07-07T09:45:11Z</time>
      </trkpt>
      <trkpt lat="42.96941" lon="0.29896">
        <ele>1671.3</ele>
        <time>2026-07-07T09:45:11Z</time>
      </trkpt>
      <trkpt lat="42.96941" lon="0.29896">
        <ele>1671.3</ele>
        <time>2026-07-07T09:45:12Z</time>
      </trkpt>
      <trkpt lat="42.9694" lon="0.29896">
        <ele>1671.3</ele>
        <time>2026-07-07T09:45:12Z</time>
      </trkpt>
      <trkpt lat="42.9694" lon="0.29896">
        <ele>1670.3</ele>
        <time>2026-07-07T09:45:13Z</time>
      </trkpt>
      <trkpt lat="42.96939" lon="0.29896">
        <ele>1670.3</ele>
        <time>2026-07-07T09:45:13Z</time>
      </trkpt>
      <trkpt lat="42.96939" lon="0.29897">
        <ele>1669.3</ele>
        <time>2026-07-07T09:45:14Z</time>
      </trkpt>
      <trkpt lat="42.96938" lon="0.29897">
        <ele>1668.3</ele>
        <time>2026-07-07T09:45:15Z</time>
      </trkpt>
      <trkpt lat="42.96937" lon="0.29898">
        <ele>1668.3</ele>
        <time>2026-07-07T09:45:16Z</time>
      </trkpt>
      <trkpt lat="42.96937" lon="0.29899">
        <ele>1668.3</ele>
        <time>2026-07-07T09:45:16Z</time>
      </trkpt>
      <trkpt lat="42.96937" lon="0.29899">
        <ele>1668.3</ele>
        <time>2026-07-07T09:45:17Z</time>
      </trkpt>
      <trkpt lat="42.96936" lon="0.29898">
        <ele>1668.3</ele>
        <time>2026-07-07T09:45:17Z</time>
      </trkpt>
      <trkpt lat="42.96936" lon="0.29899">
        <ele>1668.3</ele>
        <time>2026-07-07T09:45:18Z</time>
      </trkpt>
      <trkpt lat="42.96935" lon="0.29899">
        <ele>1668.3</ele>
        <time>2026-07-07T09:45:19Z</time>
      </trkpt>
      <trkpt lat="42.96935" lon="0.29899">
        <ele>1668.3</ele>
        <time>2026-07-07T09:45:19Z</time>
      </trkpt>
      <trkpt lat="42.96935" lon="0.29899">
        <ele>1668.3</ele>
        <time>2026-07-07T09:45:20Z</time>
      </trkpt>
      <trkpt lat="42.96935" lon="0.29899">
        <ele>1668.3</ele>
        <time>2026-07-07T09:45:20Z</time>
      </trkpt>
      <trkpt lat="42.96935" lon="0.299">
        <ele>1668.3</ele>
        <time>2026-07-07T09:45:21Z</time>
      </trkpt>
      <trkpt lat="42.96935" lon="0.299">
        <ele>1669.3</ele>
        <time>2026-07-07T09:45:22Z</time>
      </trkpt>
      <trkpt lat="42.96934" lon="0.29901">
        <ele>1668.3</ele>
        <time>2026-07-07T09:45:22Z</time>
      </trkpt>
      <trkpt lat="42.96935" lon="0.29902">
        <ele>1668.3</ele>
        <time>2026-07-07T09:45:23Z</time>
      </trkpt>
      <trkpt lat="42.96934" lon="0.29903">
        <ele>1668.3</ele>
        <time>2026-07-07T09:45:24Z</time>
      </trkpt>
      <trkpt lat="42.96934" lon="0.29903">
        <ele>1668.3</ele>
        <time>2026-07-07T09:45:25Z</time>
      </trkpt>
      <trkpt lat="42.96934" lon="0.29904">
        <ele>1668.3</ele>
        <time>2026-07-07T09:45:26Z</time>
      </trkpt>
      <trkpt lat="42.96933" lon="0.29905">
        <ele>1668.3</ele>
        <time>2026-07-07T09:45:27Z</time>
      </trkpt>
      <trkpt lat="42.96933" lon="0.29905">
        <ele>1667.3</ele>
        <time>2026-07-07T09:45:27Z</time>
      </trkpt>
      <trkpt lat="42.96933" lon="0.29906">
        <ele>1667.3</ele>
        <time>2026-07-07T09:45:28Z</time>
      </trkpt>
      <trkpt lat="42.96932" lon="0.29906">
        <ele>1666.3</ele>
        <time>2026-07-07T09:45:29Z</time>
      </trkpt>
      <trkpt lat="42.96932" lon="0.29906">
        <ele>1666.3</ele>
        <time>2026-07-07T09:45:30Z</time>
      </trkpt>
      <trkpt lat="42.96932" lon="0.29906">
        <ele>1666.3</ele>
        <time>2026-07-07T09:45:30Z</time>
      </trkpt>
      <trkpt lat="42.96932" lon="0.29906">
        <ele>1666.3</ele>
        <time>2026-07-07T09:45:31Z</time>
      </trkpt>
      <trkpt lat="42.96932" lon="0.29906">
        <ele>1666.3</ele>
        <time>2026-07-07T09:45:31Z</time>
      </trkpt>
      <trkpt lat="42.96931" lon="0.29907">
        <ele>1665.3</ele>
        <time>2026-07-07T09:45:32Z</time>
      </trkpt>
      <trkpt lat="42.96931" lon="0.29908">
        <ele>1665.3</ele>
        <time>2026-07-07T09:45:33Z</time>
      </trkpt>
      <trkpt lat="42.9693" lon="0.29908">
        <ele>1665.3</ele>
        <time>2026-07-07T09:45:34Z</time>
      </trkpt>
      <trkpt lat="42.9693" lon="0.29909">
        <ele>1665.3</ele>
        <time>2026-07-07T09:45:35Z</time>
      </trkpt>
      <trkpt lat="42.9693" lon="0.29908">
        <ele>1664.3</ele>
        <time>2026-07-07T09:45:35Z</time>
      </trkpt>
      <trkpt lat="42.96929" lon="0.29909">
        <ele>1664.3</ele>
        <time>2026-07-07T09:45:36Z</time>
      </trkpt>
      <trkpt lat="42.96929" lon="0.29909">
        <ele>1664.3</ele>
        <time>2026-07-07T09:45:36Z</time>
      </trkpt>
      <trkpt lat="42.96929" lon="0.29909">
        <ele>1664.3</ele>
        <time>2026-07-07T09:45:37Z</time>
      </trkpt>
      <trkpt lat="42.96928" lon="0.29909">
        <ele>1664.3</ele>
        <time>2026-07-07T09:45:37Z</time>
      </trkpt>
      <trkpt lat="42.96928" lon="0.2991">
        <ele>1664.3</ele>
        <time>2026-07-07T09:45:38Z</time>
      </trkpt>
      <trkpt lat="42.96928" lon="0.2991">
        <ele>1664.3</ele>
        <time>2026-07-07T09:45:39Z</time>
      </trkpt>
      <trkpt lat="42.96927" lon="0.29911">
        <ele>1663.3</ele>
        <time>2026-07-07T09:45:40Z</time>
      </trkpt>
      <trkpt lat="42.96927" lon="0.29911">
        <ele>1663.3</ele>
        <time>2026-07-07T09:45:40Z</time>
      </trkpt>
      <trkpt lat="42.96927" lon="0.29911">
        <ele>1664.3</ele>
        <time>2026-07-07T09:45:41Z</time>
      </trkpt>
      <trkpt lat="42.96927" lon="0.29912">
        <ele>1663.3</ele>
        <time>2026-07-07T09:45:41Z</time>
      </trkpt>
      <trkpt lat="42.96926" lon="0.29912">
        <ele>1663.3</ele>
        <time>2026-07-07T09:45:42Z</time>
      </trkpt>
      <trkpt lat="42.96926" lon="0.29912">
        <ele>1663.3</ele>
        <time>2026-07-07T09:45:43Z</time>
      </trkpt>
      <trkpt lat="42.96926" lon="0.29912">
        <ele>1663.3</ele>
        <time>2026-07-07T09:45:44Z</time>
      </trkpt>
      <trkpt lat="42.96926" lon="0.29912">
        <ele>1663.3</ele>
        <time>2026-07-07T09:45:45Z</time>
      </trkpt>
      <trkpt lat="42.96927" lon="0.29912">
        <ele>1663.3</ele>
        <time>2026-07-07T09:45:46Z</time>
      </trkpt>
      <trkpt lat="42.96927" lon="0.29912">
        <ele>1663.3</ele>
        <time>2026-07-07T09:45:47Z</time>
      </trkpt>
      <trkpt lat="42.96927" lon="0.29911">
        <ele>1663.3</ele>
        <time>2026-07-07T09:45:48Z</time>
      </trkpt>
      <trkpt lat="42.96927" lon="0.29911">
        <ele>1662.3</ele>
        <time>2026-07-07T09:45:49Z</time>
      </trkpt>
      <trkpt lat="42.96927" lon="0.29911">
        <ele>1663.3</ele>
        <time>2026-07-07T09:45:50Z</time>
      </trkpt>
      <trkpt lat="42.96927" lon="0.29911">
        <ele>1663.3</ele>
        <time>2026-07-07T09:45:51Z</time>
      </trkpt>
      <trkpt lat="42.96928" lon="0.29912">
        <ele>1663.3</ele>
        <time>2026-07-07T09:45:51Z</time>
      </trkpt>
      <trkpt lat="42.96928" lon="0.29912">
        <ele>1663.3</ele>
        <time>2026-07-07T09:45:52Z</time>
      </trkpt>
      <trkpt lat="42.96928" lon="0.29912">
        <ele>1662.3</ele>
        <time>2026-07-07T09:45:52Z</time>
      </trkpt>
      <trkpt lat="42.96928" lon="0.29912">
        <ele>1662.3</ele>
        <time>2026-07-07T09:45:53Z</time>
      </trkpt>
      <trkpt lat="42.96928" lon="0.29912">
        <ele>1662.3</ele>
        <time>2026-07-07T09:45:54Z</time>
      </trkpt>
      <trkpt lat="42.96928" lon="0.29912">
        <ele>1663.3</ele>
        <time>2026-07-07T09:45:54Z</time>
      </trkpt>
      <trkpt lat="42.96928" lon="0.29912">
        <ele>1663.3</ele>
        <time>2026-07-07T09:45:55Z</time>
      </trkpt>
      <trkpt lat="42.96928" lon="0.29913">
        <ele>1663.3</ele>
        <time>2026-07-07T09:45:56Z</time>
      </trkpt>
      <trkpt lat="42.96928" lon="0.29913">
        <ele>1663.3</ele>
        <time>2026-07-07T09:45:57Z</time>
      </trkpt>
      <trkpt lat="42.96928" lon="0.29913">
        <ele>1663.3</ele>
        <time>2026-07-07T09:45:58Z</time>
      </trkpt>
      <trkpt lat="42.96928" lon="0.29913">
        <ele>1663.3</ele>
        <time>2026-07-07T09:45:58Z</time>
      </trkpt>
      <trkpt lat="42.96928" lon="0.29913">
        <ele>1663.3</ele>
        <time>2026-07-07T09:45:59Z</time>
      </trkpt>
      <trkpt lat="42.96929" lon="0.29913">
        <ele>1663.3</ele>
        <time>2026-07-07T09:46:00Z</time>
      </trkpt>
      <trkpt lat="42.96929" lon="0.29913">
        <ele>1663.3</ele>
        <time>2026-07-07T09:46:01Z</time>
      </trkpt>
      <trkpt lat="42.96929" lon="0.29913">
        <ele>1663.3</ele>
        <time>2026-07-07T09:46:01Z</time>
      </trkpt>
      <trkpt lat="42.96929" lon="0.29914">
        <ele>1663.3</ele>
        <time>2026-07-07T09:46:02Z</time>
      </trkpt>
      <trkpt lat="42.96929" lon="0.29914">
        <ele>1663.3</ele>
        <time>2026-07-07T09:46:03Z</time>
      </trkpt>
      <trkpt lat="42.96929" lon="0.29914">
        <ele>1664.3</ele>
        <time>2026-07-07T09:46:04Z</time>
      </trkpt>
      <trkpt lat="42.96929" lon="0.29914">
        <ele>1664.3</ele>
        <time>2026-07-07T09:46:05Z</time>
      </trkpt>
      <trkpt lat="42.96929" lon="0.29914">
        <ele>1665.3</ele>
        <time>2026-07-07T09:46:06Z</time>
      </trkpt>
      <trkpt lat="42.96929" lon="0.29914">
        <ele>1665.3</ele>
        <time>2026-07-07T09:46:07Z</time>
      </trkpt>
      <trkpt lat="42.96929" lon="0.29915">
        <ele>1665.3</ele>
        <time>2026-07-07T09:46:08Z</time>
      </trkpt>
      <trkpt lat="42.96929" lon="0.29915">
        <ele>1665.3</ele>
        <time>2026-07-07T09:46:09Z</time>
      </trkpt>
      <trkpt lat="42.96929" lon="0.29915">
        <ele>1665.3</ele>
        <time>2026-07-07T09:46:10Z</time>
      </trkpt>
      <trkpt lat="42.96929" lon="0.29915">
        <ele>1665.3</ele>
        <time>2026-07-07T09:46:11Z</time>
      </trkpt>
      <trkpt lat="42.96929" lon="0.29915">
        <ele>1665.3</ele>
        <time>2026-07-07T09:46:12Z</time>
      </trkpt>
      <trkpt lat="42.96929" lon="0.29915">
        <ele>1665.3</ele>
        <time>2026-07-07T09:46:13Z</time>
      </trkpt>
      <trkpt lat="42.96929" lon="0.29915">
        <ele>1665.3</ele>
        <time>2026-07-07T09:46:14Z</time>
      </trkpt>
      <trkpt lat="42.96929" lon="0.29915">
        <ele>1665.3</ele>
        <time>2026-07-07T09:46:15Z</time>
      </trkpt>
      <trkpt lat="42.96929" lon="0.29915">
        <ele>1665.3</ele>
        <time>2026-07-07T09:46:16Z</time>
      </trkpt>
      <trkpt lat="42.96929" lon="0.29915">
        <ele>1665.3</ele>
        <time>2026-07-07T09:46:17Z</time>
      </trkpt>
      <trkpt lat="42.96929" lon="0.29916">
        <ele>1665.3</ele>
        <time>2026-07-07T09:46:18Z</time>
      </trkpt>
      <trkpt lat="42.9693" lon="0.29916">
        <ele>1665.3</ele>
        <time>2026-07-07T09:46:19Z</time>
      </trkpt>
      <trkpt lat="42.9693" lon="0.29916">
        <ele>1665.3</ele>
        <time>2026-07-07T09:46:20Z</time>
      </trkpt>
      <trkpt lat="42.9693" lon="0.29916">
        <ele>1665.3</ele>
        <time>2026-07-07T09:46:21Z</time>
      </trkpt>
      <trkpt lat="42.96929" lon="0.29916">
        <ele>1665.3</ele>
        <time>2026-07-07T09:46:22Z</time>
      </trkpt>
      <trkpt lat="42.9693" lon="0.29916">
        <ele>1665.3</ele>
        <time>2026-07-07T09:46:23Z</time>
      </trkpt>
      <trkpt lat="42.9693" lon="0.29916">
        <ele>1665.3</ele>
        <time>2026-07-07T09:46:24Z</time>
      </trkpt>
      <trkpt lat="42.9693" lon="0.29916">
        <ele>1665.3</ele>
        <time>2026-07-07T09:46:25Z</time>
      </trkpt>
      <trkpt lat="42.9693" lon="0.29916">
        <ele>1665.3</ele>
        <time>2026-07-07T09:46:26Z</time>
      </trkpt>
      <trkpt lat="42.9693" lon="0.29916">
        <ele>1665.3</ele>
        <time>2026-07-07T09:46:27Z</time>
      </trkpt>
      <trkpt lat="42.9693" lon="0.29917">
        <ele>1665.3</ele>
        <time>2026-07-07T09:46:28Z</time>
      </trkpt>
      <trkpt lat="42.9693" lon="0.29917">
        <ele>1665.3</ele>
        <time>2026-07-07T09:46:29Z</time>
      </trkpt>
      <trkpt lat="42.9693" lon="0.29917">
        <ele>1665.3</ele>
        <time>2026-07-07T09:46:30Z</time>
      </trkpt>
      <trkpt lat="42.9693" lon="0.29917">
        <ele>1665.3</ele>
        <time>2026-07-07T09:46:30Z</time>
      </trkpt>
      <trkpt lat="42.9693" lon="0.29917">
        <ele>1665.3</ele>
        <time>2026-07-07T09:46:31Z</time>
      </trkpt>
      <trkpt lat="42.9693" lon="0.29917">
        <ele>1665.3</ele>
        <time>2026-07-07T09:46:32Z</time>
      </trkpt>
      <trkpt lat="42.9693" lon="0.29917">
        <ele>1665.3</ele>
        <time>2026-07-07T09:46:33Z</time>
      </trkpt>
      <trkpt lat="42.9693" lon="0.29917">
        <ele>1663.3</ele>
        <time>2026-07-07T09:46:33Z</time>
      </trkpt>
      <trkpt lat="42.9693" lon="0.29917">
        <ele>1663.3</ele>
        <time>2026-07-07T09:46:34Z</time>
      </trkpt>
      <trkpt lat="42.9693" lon="0.29917">
        <ele>1663.3</ele>
        <time>2026-07-07T09:46:35Z</time>
      </trkpt>
      <trkpt lat="42.9693" lon="0.29917">
        <ele>1662.3</ele>
        <time>2026-07-07T09:46:35Z</time>
      </trkpt>
      <trkpt lat="42.9693" lon="0.29917">
        <ele>1663.3</ele>
        <time>2026-07-07T09:46:36Z</time>
      </trkpt>
      <trkpt lat="42.96931" lon="0.29917">
        <ele>1663.3</ele>
        <time>2026-07-07T09:46:37Z</time>
      </trkpt>
      <trkpt lat="42.96931" lon="0.29918">
        <ele>1662.3</ele>
        <time>2026-07-07T09:46:38Z</time>
      </trkpt>
      <trkpt lat="42.96931" lon="0.29918">
        <ele>1662.3</ele>
        <time>2026-07-07T09:46:38Z</time>
      </trkpt>
      <trkpt lat="42.96931" lon="0.29918">
        <ele>1662.3</ele>
        <time>2026-07-07T09:46:39Z</time>
      </trkpt>
      <trkpt lat="42.96931" lon="0.29918">
        <ele>1661.3</ele>
        <time>2026-07-07T09:46:40Z</time>
      </trkpt>
      <trkpt lat="42.96931" lon="0.29919">
        <ele>1661.3</ele>
        <time>2026-07-07T09:46:40Z</time>
      </trkpt>
      <trkpt lat="42.96931" lon="0.29919">
        <ele>1661.3</ele>
        <time>2026-07-07T09:46:41Z</time>
      </trkpt>
      <trkpt lat="42.96931" lon="0.2992">
        <ele>1661.3</ele>
        <time>2026-07-07T09:46:41Z</time>
      </trkpt>
      <trkpt lat="42.96931" lon="0.2992">
        <ele>1661.3</ele>
        <time>2026-07-07T09:46:42Z</time>
      </trkpt>
      <trkpt lat="42.96931" lon="0.2992">
        <ele>1661.3</ele>
        <time>2026-07-07T09:46:43Z</time>
      </trkpt>
      <trkpt lat="42.96931" lon="0.29921">
        <ele>1661.3</ele>
        <time>2026-07-07T09:46:44Z</time>
      </trkpt>
      <trkpt lat="42.96931" lon="0.29921">
        <ele>1663.3</ele>
        <time>2026-07-07T09:46:44Z</time>
      </trkpt>
      <trkpt lat="42.96931" lon="0.29922">
        <ele>1663.3</ele>
        <time>2026-07-07T09:46:45Z</time>
      </trkpt>
      <trkpt lat="42.96931" lon="0.29922">
        <ele>1663.3</ele>
        <time>2026-07-07T09:46:46Z</time>
      </trkpt>
      <trkpt lat="42.96931" lon="0.29922">
        <ele>1663.3</ele>
        <time>2026-07-07T09:46:46Z</time>
      </trkpt>
      <trkpt lat="42.96931" lon="0.29922">
        <ele>1663.3</ele>
        <time>2026-07-07T09:46:47Z</time>
      </trkpt>
      <trkpt lat="42.96932" lon="0.29923">
        <ele>1663.3</ele>
        <time>2026-07-07T09:46:48Z</time>
      </trkpt>
      <trkpt lat="42.96932" lon="0.29923">
        <ele>1663.3</ele>
        <time>2026-07-07T09:46:48Z</time>
      </trkpt>
      <trkpt lat="42.96933" lon="0.29923">
        <ele>1663.3</ele>
        <time>2026-07-07T09:46:49Z</time>
      </trkpt>
      <trkpt lat="42.96933" lon="0.29924">
        <ele>1663.3</ele>
        <time>2026-07-07T09:46:50Z</time>
      </trkpt>
      <trkpt lat="42.96934" lon="0.29923">
        <ele>1664.3</ele>
        <time>2026-07-07T09:46:51Z</time>
      </trkpt>
      <trkpt lat="42.96934" lon="0.29923">
        <ele>1664.3</ele>
        <time>2026-07-07T09:46:51Z</time>
      </trkpt>
      <trkpt lat="42.96935" lon="0.29923">
        <ele>1665.3</ele>
        <time>2026-07-07T09:46:52Z</time>
      </trkpt>
      <trkpt lat="42.96936" lon="0.29923">
        <ele>1665.3</ele>
        <time>2026-07-07T09:46:53Z</time>
      </trkpt>
      <trkpt lat="42.96936" lon="0.29924">
        <ele>1665.3</ele>
        <time>2026-07-07T09:46:54Z</time>
      </trkpt>
      <trkpt lat="42.96936" lon="0.29925">
        <ele>1665.3</ele>
        <time>2026-07-07T09:46:55Z</time>
      </trkpt>
      <trkpt lat="42.96936" lon="0.29926">
        <ele>1666.3</ele>
        <time>2026-07-07T09:46:55Z</time>
      </trkpt>
      <trkpt lat="42.96937" lon="0.29928">
        <ele>1666.3</ele>
        <time>2026-07-07T09:46:56Z</time>
      </trkpt>
      <trkpt lat="42.96937" lon="0.29929">
        <ele>1666.3</ele>
        <time>2026-07-07T09:46:57Z</time>
      </trkpt>
      <trkpt lat="42.96938" lon="0.2993">
        <ele>1665.3</ele>
        <time>2026-07-07T09:46:58Z</time>
      </trkpt>
      <trkpt lat="42.96938" lon="0.29931">
        <ele>1665.3</ele>
        <time>2026-07-07T09:46:58Z</time>
      </trkpt>
      <trkpt lat="42.96939" lon="0.29932">
        <ele>1665.3</ele>
        <time>2026-07-07T09:46:59Z</time>
      </trkpt>
      <trkpt lat="42.96939" lon="0.29932">
        <ele>1666.3</ele>
        <time>2026-07-07T09:47:00Z</time>
      </trkpt>
      <trkpt lat="42.96939" lon="0.29933">
        <ele>1666.3</ele>
        <time>2026-07-07T09:47:00Z</time>
      </trkpt>
      <trkpt lat="42.96939" lon="0.29933">
        <ele>1666.3</ele>
        <time>2026-07-07T09:47:01Z</time>
      </trkpt>
      <trkpt lat="42.9694" lon="0.29934">
        <ele>1665.3</ele>
        <time>2026-07-07T09:47:02Z</time>
      </trkpt>
      <trkpt lat="42.9694" lon="0.29934">
        <ele>1665.3</ele>
        <time>2026-07-07T09:47:02Z</time>
      </trkpt>
      <trkpt lat="42.9694" lon="0.29935">
        <ele>1665.3</ele>
        <time>2026-07-07T09:47:03Z</time>
      </trkpt>
      <trkpt lat="42.96941" lon="0.29936">
        <ele>1665.3</ele>
        <time>2026-07-07T09:47:04Z</time>
      </trkpt>
      <trkpt lat="42.96941" lon="0.29936">
        <ele>1666.3</ele>
        <time>2026-07-07T09:47:04Z</time>
      </trkpt>
      <trkpt lat="42.96942" lon="0.29936">
        <ele>1666.3</ele>
        <time>2026-07-07T09:47:05Z</time>
      </trkpt>
      <trkpt lat="42.96943" lon="0.29936">
        <ele>1666.3</ele>
        <time>2026-07-07T09:47:06Z</time>
      </trkpt>
      <trkpt lat="42.96943" lon="0.29936">
        <ele>1666.3</ele>
        <time>2026-07-07T09:47:07Z</time>
      </trkpt>
      <trkpt lat="42.96944" lon="0.29936">
        <ele>1666.3</ele>
        <time>2026-07-07T09:47:08Z</time>
      </trkpt>
      <trkpt lat="42.96944" lon="0.29936">
        <ele>1666.3</ele>
        <time>2026-07-07T09:47:09Z</time>
      </trkpt>
      <trkpt lat="42.96944" lon="0.29936">
        <ele>1665.3</ele>
        <time>2026-07-07T09:47:09Z</time>
      </trkpt>
      <trkpt lat="42.96944" lon="0.29936">
        <ele>1665.3</ele>
        <time>2026-07-07T09:47:10Z</time>
      </trkpt>
      <trkpt lat="42.96945" lon="0.29936">
        <ele>1666.3</ele>
        <time>2026-07-07T09:47:10Z</time>
      </trkpt>
      <trkpt lat="42.96945" lon="0.29936">
        <ele>1666.3</ele>
        <time>2026-07-07T09:47:11Z</time>
      </trkpt>
      <trkpt lat="42.96945" lon="0.29937">
        <ele>1665.3</ele>
        <time>2026-07-07T09:47:12Z</time>
      </trkpt>
      <trkpt lat="42.96946" lon="0.29937">
        <ele>1666.3</ele>
        <time>2026-07-07T09:47:12Z</time>
      </trkpt>
      <trkpt lat="42.96946" lon="0.29937">
        <ele>1666.3</ele>
        <time>2026-07-07T09:47:13Z</time>
      </trkpt>
      <trkpt lat="42.96946" lon="0.29937">
        <ele>1666.3</ele>
        <time>2026-07-07T09:47:14Z</time>
      </trkpt>
      <trkpt lat="42.96947" lon="0.29937">
        <ele>1667.3</ele>
        <time>2026-07-07T09:47:15Z</time>
      </trkpt>
      <trkpt lat="42.96947" lon="0.29937">
        <ele>1668.3</ele>
        <time>2026-07-07T09:47:16Z</time>
      </trkpt>
      <trkpt lat="42.96947" lon="0.29937">
        <ele>1668.3</ele>
        <time>2026-07-07T09:47:17Z</time>
      </trkpt>
      <trkpt lat="42.96947" lon="0.29937">
        <ele>1668.3</ele>
        <time>2026-07-07T09:47:18Z</time>
      </trkpt>
      <trkpt lat="42.96946" lon="0.29937">
        <ele>1668.3</ele>
        <time>2026-07-07T09:47:19Z</time>
      </trkpt>
      <trkpt lat="42.96946" lon="0.29937">
        <ele>1668.3</ele>
        <time>2026-07-07T09:47:20Z</time>
      </trkpt>
      <trkpt lat="42.96946" lon="0.29937">
        <ele>1668.3</ele>
        <time>2026-07-07T09:47:21Z</time>
      </trkpt>
      <trkpt lat="42.96946" lon="0.29937">
        <ele>1668.3</ele>
        <time>2026-07-07T09:47:22Z</time>
      </trkpt>
      <trkpt lat="42.96946" lon="0.29937">
        <ele>1668.3</ele>
        <time>2026-07-07T09:47:23Z</time>
      </trkpt>
      <trkpt lat="42.96946" lon="0.29937">
        <ele>1668.3</ele>
        <time>2026-07-07T09:47:24Z</time>
      </trkpt>
      <trkpt lat="42.96946" lon="0.29937">
        <ele>1668.3</ele>
        <time>2026-07-07T09:47:25Z</time>
      </trkpt>
      <trkpt lat="42.96946" lon="0.29937">
        <ele>1668.3</ele>
        <time>2026-07-07T09:47:26Z</time>
      </trkpt>
      <trkpt lat="42.96946" lon="0.29937">
        <ele>1668.3</ele>
        <time>2026-07-07T09:47:27Z</time>
      </trkpt>
      <trkpt lat="42.96946" lon="0.29937">
        <ele>1668.3</ele>
        <time>2026-07-07T09:47:28Z</time>
      </trkpt>
      <trkpt lat="42.96946" lon="0.29937">
        <ele>1668.3</ele>
        <time>2026-07-07T09:47:29Z</time>
      </trkpt>
      <trkpt lat="42.96946" lon="0.29937">
        <ele>1668.3</ele>
        <time>2026-07-07T09:47:30Z</time>
      </trkpt>
      <trkpt lat="42.96946" lon="0.29937">
        <ele>1668.3</ele>
        <time>2026-07-07T09:47:31Z</time>
      </trkpt>
      <trkpt lat="42.96945" lon="0.29937">
        <ele>1668.3</ele>
        <time>2026-07-07T09:47:32Z</time>
      </trkpt>
      <trkpt lat="42.96945" lon="0.29937">
        <ele>1668.3</ele>
        <time>2026-07-07T09:47:33Z</time>
      </trkpt>
      <trkpt lat="42.96945" lon="0.29937">
        <ele>1668.3</ele>
        <time>2026-07-07T09:47:34Z</time>
      </trkpt>
      <trkpt lat="42.96945" lon="0.29937">
        <ele>1668.3</ele>
        <time>2026-07-07T09:47:35Z</time>
      </trkpt>
      <trkpt lat="42.96945" lon="0.29937">
        <ele>1668.3</ele>
        <time>2026-07-07T09:47:36Z</time>
      </trkpt>
      <trkpt lat="42.96945" lon="0.29937">
        <ele>1668.3</ele>
        <time>2026-07-07T09:47:37Z</time>
      </trkpt>
      <trkpt lat="42.96945" lon="0.29937">
        <ele>1668.3</ele>
        <time>2026-07-07T09:47:38Z</time>
      </trkpt>
      <trkpt lat="42.96945" lon="0.29937">
        <ele>1668.3</ele>
        <time>2026-07-07T09:47:39Z</time>
      </trkpt>
      <trkpt lat="42.96945" lon="0.29937">
        <ele>1667.3</ele>
        <time>2026-07-07T09:47:39Z</time>
      </trkpt>
      <trkpt lat="42.96945" lon="0.29938">
        <ele>1667.3</ele>
        <time>2026-07-07T09:47:40Z</time>
      </trkpt>
      <trkpt lat="42.96945" lon="0.29938">
        <ele>1667.3</ele>
        <time>2026-07-07T09:47:41Z</time>
      </trkpt>
      <trkpt lat="42.96944" lon="0.29939">
        <ele>1667.3</ele>
        <time>2026-07-07T09:47:41Z</time>
      </trkpt>
      <trkpt lat="42.96944" lon="0.2994">
        <ele>1667.3</ele>
        <time>2026-07-07T09:47:42Z</time>
      </trkpt>
      <trkpt lat="42.96944" lon="0.2994">
        <ele>1666.3</ele>
        <time>2026-07-07T09:47:43Z</time>
      </trkpt>
      <trkpt lat="42.96943" lon="0.29941">
        <ele>1665.3</ele>
        <time>2026-07-07T09:47:44Z</time>
      </trkpt>
      <trkpt lat="42.96943" lon="0.29942">
        <ele>1666.3</ele>
        <time>2026-07-07T09:47:45Z</time>
      </trkpt>
      <trkpt lat="42.96942" lon="0.29943">
        <ele>1666.3</ele>
        <time>2026-07-07T09:47:46Z</time>
      </trkpt>
      <trkpt lat="42.96943" lon="0.29943">
        <ele>1667.3</ele>
        <time>2026-07-07T09:47:47Z</time>
      </trkpt>
      <trkpt lat="42.96943" lon="0.29943">
        <ele>1667.3</ele>
        <time>2026-07-07T09:47:48Z</time>
      </trkpt>
      <trkpt lat="42.96943" lon="0.29943">
        <ele>1667.3</ele>
        <time>2026-07-07T09:47:49Z</time>
      </trkpt>
      <trkpt lat="42.96943" lon="0.29943">
        <ele>1667.3</ele>
        <time>2026-07-07T09:47:50Z</time>
      </trkpt>
      <trkpt lat="42.96943" lon="0.29943">
        <ele>1667.3</ele>
        <time>2026-07-07T09:47:50Z</time>
      </trkpt>
      <trkpt lat="42.96943" lon="0.29944">
        <ele>1667.3</ele>
        <time>2026-07-07T09:47:51Z</time>
      </trkpt>
      <trkpt lat="42.96943" lon="0.29944">
        <ele>1667.3</ele>
        <time>2026-07-07T09:47:52Z</time>
      </trkpt>
      <trkpt lat="42.96943" lon="0.29944">
        <ele>1667.3</ele>
        <time>2026-07-07T09:47:53Z</time>
      </trkpt>
      <trkpt lat="42.96943" lon="0.29944">
        <ele>1667.3</ele>
        <time>2026-07-07T09:47:54Z</time>
      </trkpt>
      <trkpt lat="42.96943" lon="0.29944">
        <ele>1667.3</ele>
        <time>2026-07-07T09:47:55Z</time>
      </trkpt>
      <trkpt lat="42.96943" lon="0.29944">
        <ele>1668.3</ele>
        <time>2026-07-07T09:47:56Z</time>
      </trkpt>
      <trkpt lat="42.96943" lon="0.29944">
        <ele>1668.3</ele>
        <time>2026-07-07T09:47:57Z</time>
      </trkpt>
      <trkpt lat="42.96944" lon="0.29944">
        <ele>1668.3</ele>
        <time>2026-07-07T09:47:58Z</time>
      </trkpt>
      <trkpt lat="42.96944" lon="0.29944">
        <ele>1668.3</ele>
        <time>2026-07-07T09:47:59Z</time>
      </trkpt>
      <trkpt lat="42.96944" lon="0.29944">
        <ele>1667.3</ele>
        <time>2026-07-07T09:48:00Z</time>
      </trkpt>
      <trkpt lat="42.96944" lon="0.29944">
        <ele>1667.3</ele>
        <time>2026-07-07T09:48:01Z</time>
      </trkpt>
      <trkpt lat="42.96944" lon="0.29944">
        <ele>1667.3</ele>
        <time>2026-07-07T09:48:02Z</time>
      </trkpt>
      <trkpt lat="42.96944" lon="0.29944">
        <ele>1667.3</ele>
        <time>2026-07-07T09:48:02Z</time>
      </trkpt>
      <trkpt lat="42.96944" lon="0.29944">
        <ele>1667.3</ele>
        <time>2026-07-07T09:48:03Z</time>
      </trkpt>
      <trkpt lat="42.96944" lon="0.29944">
        <ele>1667.3</ele>
        <time>2026-07-07T09:48:04Z</time>
      </trkpt>
      <trkpt lat="42.96944" lon="0.29943">
        <ele>1668.3</ele>
        <time>2026-07-07T09:48:05Z</time>
      </trkpt>
      <trkpt lat="42.96945" lon="0.29943">
        <ele>1667.3</ele>
        <time>2026-07-07T09:48:06Z</time>
      </trkpt>
      <trkpt lat="42.96945" lon="0.29943">
        <ele>1667.3</ele>
        <time>2026-07-07T09:48:07Z</time>
      </trkpt>
      <trkpt lat="42.96945" lon="0.29943">
        <ele>1667.3</ele>
        <time>2026-07-07T09:48:08Z</time>
      </trkpt>
      <trkpt lat="42.96945" lon="0.29943">
        <ele>1667.3</ele>
        <time>2026-07-07T09:48:09Z</time>
      </trkpt>
      <trkpt lat="42.96945" lon="0.29943">
        <ele>1667.3</ele>
        <time>2026-07-07T09:48:10Z</time>
      </trkpt>
      <trkpt lat="42.96945" lon="0.29943">
        <ele>1667.3</ele>
        <time>2026-07-07T09:48:11Z</time>
      </trkpt>
      <trkpt lat="42.96945" lon="0.29943">
        <ele>1667.3</ele>
        <time>2026-07-07T09:48:12Z</time>
      </trkpt>
      <trkpt lat="42.96946" lon="0.29943">
        <ele>1667.3</ele>
        <time>2026-07-07T09:48:13Z</time>
      </trkpt>
      <trkpt lat="42.96946" lon="0.29942">
        <ele>1667.3</ele>
        <time>2026-07-07T09:48:13Z</time>
      </trkpt>
      <trkpt lat="42.96946" lon="0.29942">
        <ele>1667.3</ele>
        <time>2026-07-07T09:48:14Z</time>
      </trkpt>
      <trkpt lat="42.96946" lon="0.29942">
        <ele>1667.3</ele>
        <time>2026-07-07T09:48:15Z</time>
      </trkpt>
      <trkpt lat="42.96946" lon="0.29942">
        <ele>1667.3</ele>
        <time>2026-07-07T09:48:16Z</time>
      </trkpt>
      <trkpt lat="42.96946" lon="0.29942">
        <ele>1667.3</ele>
        <time>2026-07-07T09:48:17Z</time>
      </trkpt>
      <trkpt lat="42.96946" lon="0.29942">
        <ele>1667.3</ele>
        <time>2026-07-07T09:48:18Z</time>
      </trkpt>
      <trkpt lat="42.96947" lon="0.29942">
        <ele>1667.3</ele>
        <time>2026-07-07T09:48:19Z</time>
      </trkpt>
      <trkpt lat="42.96947" lon="0.29941">
        <ele>1668.3</ele>
        <time>2026-07-07T09:48:20Z</time>
      </trkpt>
      <trkpt lat="42.96947" lon="0.29941">
        <ele>1668.3</ele>
        <time>2026-07-07T09:48:21Z</time>
      </trkpt>
      <trkpt lat="42.96947" lon="0.29941">
        <ele>1668.3</ele>
        <time>2026-07-07T09:48:22Z</time>
      </trkpt>
      <trkpt lat="42.96947" lon="0.29941">
        <ele>1668.3</ele>
        <time>2026-07-07T09:48:23Z</time>
      </trkpt>
      <trkpt lat="42.96947" lon="0.29941">
        <ele>1668.3</ele>
        <time>2026-07-07T09:48:24Z</time>
      </trkpt>
      <trkpt lat="42.96948" lon="0.2994">
        <ele>1665.3</ele>
        <time>2026-07-07T09:48:25Z</time>
      </trkpt>
      <trkpt lat="42.96948" lon="0.2994">
        <ele>1665.3</ele>
        <time>2026-07-07T09:48:26Z</time>
      </trkpt>
      <trkpt lat="42.96949" lon="0.2994">
        <ele>1665.3</ele>
        <time>2026-07-07T09:48:27Z</time>
      </trkpt>
      <trkpt lat="42.96949" lon="0.2994">
        <ele>1664.3</ele>
        <time>2026-07-07T09:48:28Z</time>
      </trkpt>
      <trkpt lat="42.9695" lon="0.2994">
        <ele>1664.3</ele>
        <time>2026-07-07T09:48:29Z</time>
      </trkpt>
      <trkpt lat="42.9695" lon="0.2994">
        <ele>1663.3</ele>
        <time>2026-07-07T09:48:30Z</time>
      </trkpt>
      <trkpt lat="42.9695" lon="0.2994">
        <ele>1665.3</ele>
        <time>2026-07-07T09:48:31Z</time>
      </trkpt>
      <trkpt lat="42.9695" lon="0.2994">
        <ele>1665.3</ele>
        <time>2026-07-07T09:48:32Z</time>
      </trkpt>
      <trkpt lat="42.9695" lon="0.2994">
        <ele>1665.3</ele>
        <time>2026-07-07T09:48:33Z</time>
      </trkpt>
      <trkpt lat="42.9695" lon="0.2994">
        <ele>1666.3</ele>
        <time>2026-07-07T09:48:34Z</time>
      </trkpt>
      <trkpt lat="42.96951" lon="0.2994">
        <ele>1666.3</ele>
        <time>2026-07-07T09:48:35Z</time>
      </trkpt>
      <trkpt lat="42.96951" lon="0.29941">
        <ele>1666.3</ele>
        <time>2026-07-07T09:48:36Z</time>
      </trkpt>
      <trkpt lat="42.96952" lon="0.2994">
        <ele>1666.3</ele>
        <time>2026-07-07T09:48:37Z</time>
      </trkpt>
      <trkpt lat="42.96952" lon="0.2994">
        <ele>1666.3</ele>
        <time>2026-07-07T09:48:38Z</time>
      </trkpt>
      <trkpt lat="42.96953" lon="0.2994">
        <ele>1665.3</ele>
        <time>2026-07-07T09:48:39Z</time>
      </trkpt>
      <trkpt lat="42.96953" lon="0.29939">
        <ele>1665.3</ele>
        <time>2026-07-07T09:48:40Z</time>
      </trkpt>
      <trkpt lat="42.96953" lon="0.29939">
        <ele>1665.3</ele>
        <time>2026-07-07T09:48:41Z</time>
      </trkpt>
      <trkpt lat="42.96954" lon="0.29939">
        <ele>1665.3</ele>
        <time>2026-07-07T09:48:42Z</time>
      </trkpt>
      <trkpt lat="42.96955" lon="0.29938">
        <ele>1665.3</ele>
        <time>2026-07-07T09:48:43Z</time>
      </trkpt>
      <trkpt lat="42.96956" lon="0.29938">
        <ele>1665.3</ele>
        <time>2026-07-07T09:48:44Z</time>
      </trkpt>
      <trkpt lat="42.96956" lon="0.29938">
        <ele>1666.3</ele>
        <time>2026-07-07T09:48:45Z</time>
      </trkpt>
      <trkpt lat="42.96956" lon="0.29938">
        <ele>1666.3</ele>
        <time>2026-07-07T09:48:46Z</time>
      </trkpt>
      <trkpt lat="42.96956" lon="0.29938">
        <ele>1666.3</ele>
        <time>2026-07-07T09:48:47Z</time>
      </trkpt>
      <trkpt lat="42.96956" lon="0.29936">
        <ele>1666.3</ele>
        <time>2026-07-07T09:48:48Z</time>
      </trkpt>
      <trkpt lat="42.96955" lon="0.29936">
        <ele>1665.3</ele>
        <time>2026-07-07T09:48:49Z</time>
      </trkpt>
      <trkpt lat="42.96955" lon="0.29935">
        <ele>1665.3</ele>
        <time>2026-07-07T09:48:50Z</time>
      </trkpt>
      <trkpt lat="42.96955" lon="0.29934">
        <ele>1664.3</ele>
        <time>2026-07-07T09:48:51Z</time>
      </trkpt>
      <trkpt lat="42.96955" lon="0.29934">
        <ele>1664.3</ele>
        <time>2026-07-07T09:48:52Z</time>
      </trkpt>
      <trkpt lat="42.96955" lon="0.29934">
        <ele>1664.3</ele>
        <time>2026-07-07T09:48:53Z</time>
      </trkpt>
      <trkpt lat="42.96955" lon="0.29934">
        <ele>1664.3</ele>
        <time>2026-07-07T09:48:54Z</time>
      </trkpt>
      <trkpt lat="42.96955" lon="0.29934">
        <ele>1665.3</ele>
        <time>2026-07-07T09:48:55Z</time>
      </trkpt>
      <trkpt lat="42.96955" lon="0.29934">
        <ele>1665.3</ele>
        <time>2026-07-07T09:48:56Z</time>
      </trkpt>
      <trkpt lat="42.96955" lon="0.29935">
        <ele>1664.3</ele>
        <time>2026-07-07T09:48:57Z</time>
      </trkpt>
      <trkpt lat="42.96956" lon="0.29935">
        <ele>1664.3</ele>
        <time>2026-07-07T09:48:58Z</time>
      </trkpt>
      <trkpt lat="42.96956" lon="0.29934">
        <ele>1663.3</ele>
        <time>2026-07-07T09:48:59Z</time>
      </trkpt>
      <trkpt lat="42.96957" lon="0.29933">
        <ele>1662.3</ele>
        <time>2026-07-07T09:49:00Z</time>
      </trkpt>
      <trkpt lat="42.96957" lon="0.29932">
        <ele>1662.3</ele>
        <time>2026-07-07T09:49:01Z</time>
      </trkpt>
      <trkpt lat="42.96956" lon="0.29932">
        <ele>1662.3</ele>
        <time>2026-07-07T09:49:02Z</time>
      </trkpt>
      <trkpt lat="42.96956" lon="0.29932">
        <ele>1661.3</ele>
        <time>2026-07-07T09:49:03Z</time>
      </trkpt>
      <trkpt lat="42.96956" lon="0.29932">
        <ele>1661.3</ele>
        <time>2026-07-07T09:49:04Z</time>
      </trkpt>
      <trkpt lat="42.96957" lon="0.29932">
        <ele>1661.3</ele>
        <time>2026-07-07T09:49:05Z</time>
      </trkpt>
      <trkpt lat="42.96958" lon="0.29931">
        <ele>1661.3</ele>
        <time>2026-07-07T09:49:06Z</time>
      </trkpt>
      <trkpt lat="42.96958" lon="0.29931">
        <ele>1661.3</ele>
        <time>2026-07-07T09:49:07Z</time>
      </trkpt>
      <trkpt lat="42.9696" lon="0.2993">
        <ele>1662.3</ele>
        <time>2026-07-07T09:49:08Z</time>
      </trkpt>
      <trkpt lat="42.96961" lon="0.29929">
        <ele>1662.3</ele>
        <time>2026-07-07T09:49:09Z</time>
      </trkpt>
      <trkpt lat="42.96962" lon="0.29929">
        <ele>1663.3</ele>
        <time>2026-07-07T09:49:10Z</time>
      </trkpt>
      <trkpt lat="42.96963" lon="0.29929">
        <ele>1663.3</ele>
        <time>2026-07-07T09:49:11Z</time>
      </trkpt>
      <trkpt lat="42.96964" lon="0.29928">
        <ele>1663.3</ele>
        <time>2026-07-07T09:49:12Z</time>
      </trkpt>
      <trkpt lat="42.96965" lon="0.29929">
        <ele>1663.3</ele>
        <time>2026-07-07T09:49:13Z</time>
      </trkpt>
      <trkpt lat="42.96965" lon="0.29929">
        <ele>1662.3</ele>
        <time>2026-07-07T09:49:14Z</time>
      </trkpt>
      <trkpt lat="42.96966" lon="0.2993">
        <ele>1663.3</ele>
        <time>2026-07-07T09:49:15Z</time>
      </trkpt>
      <trkpt lat="42.96966" lon="0.2993">
        <ele>1663.3</ele>
        <time>2026-07-07T09:49:16Z</time>
      </trkpt>
      <trkpt lat="42.96967" lon="0.2993">
        <ele>1663.3</ele>
        <time>2026-07-07T09:49:17Z</time>
      </trkpt>
      <trkpt lat="42.96968" lon="0.29931">
        <ele>1662.3</ele>
        <time>2026-07-07T09:49:18Z</time>
      </trkpt>
      <trkpt lat="42.96968" lon="0.29931">
        <ele>1662.3</ele>
        <time>2026-07-07T09:49:19Z</time>
      </trkpt>
      <trkpt lat="42.96968" lon="0.29932">
        <ele>1662.3</ele>
        <time>2026-07-07T09:49:20Z</time>
      </trkpt>
      <trkpt lat="42.96969" lon="0.29932">
        <ele>1663.3</ele>
        <time>2026-07-07T09:49:21Z</time>
      </trkpt>
      <trkpt lat="42.96969" lon="0.29932">
        <ele>1663.3</ele>
        <time>2026-07-07T09:49:22Z</time>
      </trkpt>
      <trkpt lat="42.96969" lon="0.29932">
        <ele>1664.3</ele>
        <time>2026-07-07T09:49:23Z</time>
      </trkpt>
      <trkpt lat="42.96969" lon="0.29932">
        <ele>1665.3</ele>
        <time>2026-07-07T09:49:24Z</time>
      </trkpt>
      <trkpt lat="42.96969" lon="0.29933">
        <ele>1664.3</ele>
        <time>2026-07-07T09:49:25Z</time>
      </trkpt>
      <trkpt lat="42.96969" lon="0.29933">
        <ele>1664.3</ele>
        <time>2026-07-07T09:49:26Z</time>
      </trkpt>
      <trkpt lat="42.96969" lon="0.29933">
        <ele>1664.3</ele>
        <time>2026-07-07T09:49:27Z</time>
      </trkpt>
      <trkpt lat="42.96969" lon="0.29933">
        <ele>1664.3</ele>
        <time>2026-07-07T09:49:28Z</time>
      </trkpt>
      <trkpt lat="42.96969" lon="0.29932">
        <ele>1663.3</ele>
        <time>2026-07-07T09:49:29Z</time>
      </trkpt>
      <trkpt lat="42.9697" lon="0.29932">
        <ele>1662.3</ele>
        <time>2026-07-07T09:49:30Z</time>
      </trkpt>
      <trkpt lat="42.9697" lon="0.29931">
        <ele>1663.3</ele>
        <time>2026-07-07T09:49:31Z</time>
      </trkpt>
      <trkpt lat="42.96971" lon="0.29931">
        <ele>1663.3</ele>
        <time>2026-07-07T09:49:32Z</time>
      </trkpt>
      <trkpt lat="42.96971" lon="0.29931">
        <ele>1662.3</ele>
        <time>2026-07-07T09:49:33Z</time>
      </trkpt>
      <trkpt lat="42.96972" lon="0.29931">
        <ele>1662.3</ele>
        <time>2026-07-07T09:49:34Z</time>
      </trkpt>
      <trkpt lat="42.96972" lon="0.29931">
        <ele>1662.3</ele>
        <time>2026-07-07T09:49:35Z</time>
      </trkpt>
      <trkpt lat="42.96972" lon="0.29931">
        <ele>1662.3</ele>
        <time>2026-07-07T09:49:36Z</time>
      </trkpt>
      <trkpt lat="42.96972" lon="0.29931">
        <ele>1662.3</ele>
        <time>2026-07-07T09:49:37Z</time>
      </trkpt>
      <trkpt lat="42.96972" lon="0.29931">
        <ele>1662.3</ele>
        <time>2026-07-07T09:49:38Z</time>
      </trkpt>
      <trkpt lat="42.96972" lon="0.29931">
        <ele>1662.3</ele>
        <time>2026-07-07T09:49:39Z</time>
      </trkpt>
      <trkpt lat="42.96972" lon="0.29931">
        <ele>1662.3</ele>
        <time>2026-07-07T09:49:40Z</time>
      </trkpt>
      <trkpt lat="42.96973" lon="0.29932">
        <ele>1662.3</ele>
        <time>2026-07-07T09:49:41Z</time>
      </trkpt>
      <trkpt lat="42.96973" lon="0.29931">
        <ele>1662.3</ele>
        <time>2026-07-07T09:49:42Z</time>
      </trkpt>
      <trkpt lat="42.96974" lon="0.29931">
        <ele>1662.3</ele>
        <time>2026-07-07T09:49:43Z</time>
      </trkpt>
      <trkpt lat="42.96974" lon="0.29931">
        <ele>1662.3</ele>
        <time>2026-07-07T09:49:44Z</time>
      </trkpt>
      <trkpt lat="42.96974" lon="0.29931">
        <ele>1662.3</ele>
        <time>2026-07-07T09:49:45Z</time>
      </trkpt>
      <trkpt lat="42.96974" lon="0.29931">
        <ele>1662.3</ele>
        <time>2026-07-07T09:49:46Z</time>
      </trkpt>
      <trkpt lat="42.96974" lon="0.29931">
        <ele>1662.3</ele>
        <time>2026-07-07T09:49:47Z</time>
      </trkpt>
      <trkpt lat="42.96975" lon="0.29932">
        <ele>1661.3</ele>
        <time>2026-07-07T09:49:48Z</time>
      </trkpt>
      <trkpt lat="42.96976" lon="0.29933">
        <ele>1661.3</ele>
        <time>2026-07-07T09:49:49Z</time>
      </trkpt>
      <trkpt lat="42.96976" lon="0.29934">
        <ele>1660.3</ele>
        <time>2026-07-07T09:49:50Z</time>
      </trkpt>
      <trkpt lat="42.96977" lon="0.29934">
        <ele>1660.3</ele>
        <time>2026-07-07T09:49:51Z</time>
      </trkpt>
      <trkpt lat="42.96977" lon="0.29935">
        <ele>1660.3</ele>
        <time>2026-07-07T09:49:52Z</time>
      </trkpt>
      <trkpt lat="42.96978" lon="0.29935">
        <ele>1660.3</ele>
        <time>2026-07-07T09:49:53Z</time>
      </trkpt>
      <trkpt lat="42.96978" lon="0.29935">
        <ele>1660.3</ele>
        <time>2026-07-07T09:49:54Z</time>
      </trkpt>
      <trkpt lat="42.96978" lon="0.29936">
        <ele>1659.3</ele>
        <time>2026-07-07T09:49:55Z</time>
      </trkpt>
      <trkpt lat="42.96979" lon="0.29937">
        <ele>1658.3</ele>
        <time>2026-07-07T09:49:56Z</time>
      </trkpt>
      <trkpt lat="42.96979" lon="0.29937">
        <ele>1658.3</ele>
        <time>2026-07-07T09:49:57Z</time>
      </trkpt>
      <trkpt lat="42.96979" lon="0.29937">
        <ele>1658.3</ele>
        <time>2026-07-07T09:49:58Z</time>
      </trkpt>
      <trkpt lat="42.96979" lon="0.29938">
        <ele>1657.3</ele>
        <time>2026-07-07T09:49:59Z</time>
      </trkpt>
      <trkpt lat="42.96978" lon="0.29938">
        <ele>1657.3</ele>
        <time>2026-07-07T09:50:00Z</time>
      </trkpt>
      <trkpt lat="42.96978" lon="0.29938">
        <ele>1656.3</ele>
        <time>2026-07-07T09:50:01Z</time>
      </trkpt>
      <trkpt lat="42.96978" lon="0.29939">
        <ele>1656.3</ele>
        <time>2026-07-07T09:50:02Z</time>
      </trkpt>
      <trkpt lat="42.96978" lon="0.29939">
        <ele>1656.3</ele>
        <time>2026-07-07T09:50:03Z</time>
      </trkpt>
      <trkpt lat="42.96977" lon="0.2994">
        <ele>1656.3</ele>
        <time>2026-07-07T09:50:04Z</time>
      </trkpt>
      <trkpt lat="42.96977" lon="0.2994">
        <ele>1656.3</ele>
        <time>2026-07-07T09:50:05Z</time>
      </trkpt>
      <trkpt lat="42.96976" lon="0.29941">
        <ele>1656.3</ele>
        <time>2026-07-07T09:50:06Z</time>
      </trkpt>
      <trkpt lat="42.96976" lon="0.29941">
        <ele>1656.3</ele>
        <time>2026-07-07T09:50:07Z</time>
      </trkpt>
      <trkpt lat="42.96975" lon="0.29942">
        <ele>1655.3</ele>
        <time>2026-07-07T09:50:08Z</time>
      </trkpt>
      <trkpt lat="42.96975" lon="0.29942">
        <ele>1656.3</ele>
        <time>2026-07-07T09:50:09Z</time>
      </trkpt>
      <trkpt lat="42.96975" lon="0.29942">
        <ele>1655.3</ele>
        <time>2026-07-07T09:50:10Z</time>
      </trkpt>
      <trkpt lat="42.96975" lon="0.29942">
        <ele>1655.3</ele>
        <time>2026-07-07T09:50:11Z</time>
      </trkpt>
      <trkpt lat="42.96975" lon="0.29942">
        <ele>1655.3</ele>
        <time>2026-07-07T09:50:12Z</time>
      </trkpt>
      <trkpt lat="42.96976" lon="0.29944">
        <ele>1656.3</ele>
        <time>2026-07-07T09:50:13Z</time>
      </trkpt>
      <trkpt lat="42.96976" lon="0.29944">
        <ele>1655.3</ele>
        <time>2026-07-07T09:50:14Z</time>
      </trkpt>
      <trkpt lat="42.96976" lon="0.29945">
        <ele>1655.3</ele>
        <time>2026-07-07T09:50:15Z</time>
      </trkpt>
      <trkpt lat="42.96976" lon="0.29946">
        <ele>1656.3</ele>
        <time>2026-07-07T09:50:16Z</time>
      </trkpt>
      <trkpt lat="42.96976" lon="0.29947">
        <ele>1656.3</ele>
        <time>2026-07-07T09:50:17Z</time>
      </trkpt>
      <trkpt lat="42.96976" lon="0.29947">
        <ele>1656.3</ele>
        <time>2026-07-07T09:50:18Z</time>
      </trkpt>
      <trkpt lat="42.96976" lon="0.29948">
        <ele>1656.3</ele>
        <time>2026-07-07T09:50:19Z</time>
      </trkpt>
      <trkpt lat="42.96976" lon="0.29949">
        <ele>1655.3</ele>
        <time>2026-07-07T09:50:20Z</time>
      </trkpt>
      <trkpt lat="42.96976" lon="0.2995">
        <ele>1654.3</ele>
        <time>2026-07-07T09:50:21Z</time>
      </trkpt>
      <trkpt lat="42.96976" lon="0.29951">
        <ele>1654.3</ele>
        <time>2026-07-07T09:50:22Z</time>
      </trkpt>
      <trkpt lat="42.96976" lon="0.29952">
        <ele>1653.3</ele>
        <time>2026-07-07T09:50:23Z</time>
      </trkpt>
      <trkpt lat="42.96976" lon="0.29953">
        <ele>1653.3</ele>
        <time>2026-07-07T09:50:24Z</time>
      </trkpt>
      <trkpt lat="42.96976" lon="0.29953">
        <ele>1653.3</ele>
        <time>2026-07-07T09:50:25Z</time>
      </trkpt>
      <trkpt lat="42.96976" lon="0.29954">
        <ele>1653.3</ele>
        <time>2026-07-07T09:50:26Z</time>
      </trkpt>
      <trkpt lat="42.96976" lon="0.29954">
        <ele>1653.3</ele>
        <time>2026-07-07T09:50:27Z</time>
      </trkpt>
      <trkpt lat="42.96976" lon="0.29954">
        <ele>1654.3</ele>
        <time>2026-07-07T09:50:28Z</time>
      </trkpt>
      <trkpt lat="42.96976" lon="0.29954">
        <ele>1654.3</ele>
        <time>2026-07-07T09:50:29Z</time>
      </trkpt>
      <trkpt lat="42.96976" lon="0.29954">
        <ele>1654.3</ele>
        <time>2026-07-07T09:50:30Z</time>
      </trkpt>
      <trkpt lat="42.96976" lon="0.29954">
        <ele>1654.3</ele>
        <time>2026-07-07T09:50:31Z</time>
      </trkpt>
      <trkpt lat="42.96975" lon="0.29955">
        <ele>1652.3</ele>
        <time>2026-07-07T09:50:32Z</time>
      </trkpt>
      <trkpt lat="42.96975" lon="0.29956">
        <ele>1652.3</ele>
        <time>2026-07-07T09:50:33Z</time>
      </trkpt>
      <trkpt lat="42.96975" lon="0.29956">
        <ele>1651.3</ele>
        <time>2026-07-07T09:50:34Z</time>
      </trkpt>
      <trkpt lat="42.96975" lon="0.29956">
        <ele>1651.3</ele>
        <time>2026-07-07T09:50:35Z</time>
      </trkpt>
      <trkpt lat="42.96974" lon="0.29957">
        <ele>1650.3</ele>
        <time>2026-07-07T09:50:36Z</time>
      </trkpt>
      <trkpt lat="42.96973" lon="0.29957">
        <ele>1649.3</ele>
        <time>2026-07-07T09:50:37Z</time>
      </trkpt>
      <trkpt lat="42.96973" lon="0.29958">
        <ele>1649.3</ele>
        <time>2026-07-07T09:50:38Z</time>
      </trkpt>
      <trkpt lat="42.96972" lon="0.29958">
        <ele>1648.3</ele>
        <time>2026-07-07T09:50:39Z</time>
      </trkpt>
      <trkpt lat="42.96972" lon="0.29958">
        <ele>1649.3</ele>
        <time>2026-07-07T09:50:40Z</time>
      </trkpt>
      <trkpt lat="42.96972" lon="0.29958">
        <ele>1648.3</ele>
        <time>2026-07-07T09:50:41Z</time>
      </trkpt>
      <trkpt lat="42.96971" lon="0.29959">
        <ele>1648.3</ele>
        <time>2026-07-07T09:50:42Z</time>
      </trkpt>
      <trkpt lat="42.96971" lon="0.29959">
        <ele>1647.3</ele>
        <time>2026-07-07T09:50:43Z</time>
      </trkpt>
      <trkpt lat="42.9697" lon="0.2996">
        <ele>1648.3</ele>
        <time>2026-07-07T09:50:44Z</time>
      </trkpt>
      <trkpt lat="42.9697" lon="0.2996">
        <ele>1648.3</ele>
        <time>2026-07-07T09:50:45Z</time>
      </trkpt>
      <trkpt lat="42.96969" lon="0.29961">
        <ele>1648.3</ele>
        <time>2026-07-07T09:50:46Z</time>
      </trkpt>
      <trkpt lat="42.96969" lon="0.29961">
        <ele>1648.3</ele>
        <time>2026-07-07T09:50:47Z</time>
      </trkpt>
      <trkpt lat="42.96968" lon="0.29961">
        <ele>1647.3</ele>
        <time>2026-07-07T09:50:48Z</time>
      </trkpt>
      <trkpt lat="42.96967" lon="0.29962">
        <ele>1648.3</ele>
        <time>2026-07-07T09:50:49Z</time>
      </trkpt>
      <trkpt lat="42.96967" lon="0.29963">
        <ele>1647.3</ele>
        <time>2026-07-07T09:50:50Z</time>
      </trkpt>
      <trkpt lat="42.96967" lon="0.29963">
        <ele>1647.3</ele>
        <time>2026-07-07T09:50:51Z</time>
      </trkpt>
      <trkpt lat="42.96967" lon="0.29963">
        <ele>1647.3</ele>
        <time>2026-07-07T09:50:52Z</time>
      </trkpt>
      <trkpt lat="42.96966" lon="0.29963">
        <ele>1647.3</ele>
        <time>2026-07-07T09:50:53Z</time>
      </trkpt>
      <trkpt lat="42.96966" lon="0.29963">
        <ele>1646.3</ele>
        <time>2026-07-07T09:50:54Z</time>
      </trkpt>
      <trkpt lat="42.96966" lon="0.29963">
        <ele>1646.3</ele>
        <time>2026-07-07T09:50:55Z</time>
      </trkpt>
      <trkpt lat="42.96965" lon="0.29964">
        <ele>1645.3</ele>
        <time>2026-07-07T09:50:56Z</time>
      </trkpt>
      <trkpt lat="42.96965" lon="0.29964">
        <ele>1645.3</ele>
        <time>2026-07-07T09:50:57Z</time>
      </trkpt>
      <trkpt lat="42.96964" lon="0.29964">
        <ele>1644.3</ele>
        <time>2026-07-07T09:50:58Z</time>
      </trkpt>
      <trkpt lat="42.96963" lon="0.29965">
        <ele>1644.3</ele>
        <time>2026-07-07T09:50:59Z</time>
      </trkpt>
      <trkpt lat="42.96963" lon="0.29965">
        <ele>1643.3</ele>
        <time>2026-07-07T09:51:00Z</time>
      </trkpt>
      <trkpt lat="42.96963" lon="0.29966">
        <ele>1643.3</ele>
        <time>2026-07-07T09:51:01Z</time>
      </trkpt>
      <trkpt lat="42.96963" lon="0.29966">
        <ele>1643.3</ele>
        <time>2026-07-07T09:51:02Z</time>
      </trkpt>
      <trkpt lat="42.96963" lon="0.29966">
        <ele>1643.3</ele>
        <time>2026-07-07T09:51:03Z</time>
      </trkpt>
      <trkpt lat="42.96963" lon="0.29966">
        <ele>1643.3</ele>
        <time>2026-07-07T09:51:04Z</time>
      </trkpt>
      <trkpt lat="42.96963" lon="0.29969">
        <ele>1641.3</ele>
        <time>2026-07-07T09:51:05Z</time>
      </trkpt>
      <trkpt lat="42.96964" lon="0.2997">
        <ele>1640.3</ele>
        <time>2026-07-07T09:51:06Z</time>
      </trkpt>
      <trkpt lat="42.96964" lon="0.2997">
        <ele>1641.3</ele>
        <time>2026-07-07T09:51:07Z</time>
      </trkpt>
      <trkpt lat="42.96964" lon="0.29971">
        <ele>1641.3</ele>
        <time>2026-07-07T09:51:08Z</time>
      </trkpt>
      <trkpt lat="42.96964" lon="0.29971">
        <ele>1641.3</ele>
        <time>2026-07-07T09:51:09Z</time>
      </trkpt>
      <trkpt lat="42.96964" lon="0.29971">
        <ele>1641.3</ele>
        <time>2026-07-07T09:51:10Z</time>
      </trkpt>
      <trkpt lat="42.96965" lon="0.29971">
        <ele>1641.3</ele>
        <time>2026-07-07T09:51:11Z</time>
      </trkpt>
      <trkpt lat="42.96965" lon="0.29972">
        <ele>1640.3</ele>
        <time>2026-07-07T09:51:12Z</time>
      </trkpt>
      <trkpt lat="42.96965" lon="0.29973">
        <ele>1640.3</ele>
        <time>2026-07-07T09:51:13Z</time>
      </trkpt>
      <trkpt lat="42.96965" lon="0.29974">
        <ele>1640.3</ele>
        <time>2026-07-07T09:51:14Z</time>
      </trkpt>
      <trkpt lat="42.96966" lon="0.29975">
        <ele>1640.3</ele>
        <time>2026-07-07T09:51:15Z</time>
      </trkpt>
      <trkpt lat="42.96966" lon="0.29976">
        <ele>1640.3</ele>
        <time>2026-07-07T09:51:16Z</time>
      </trkpt>
      <trkpt lat="42.96966" lon="0.29977">
        <ele>1641.3</ele>
        <time>2026-07-07T09:51:17Z</time>
      </trkpt>
      <trkpt lat="42.96966" lon="0.29977">
        <ele>1641.3</ele>
        <time>2026-07-07T09:51:18Z</time>
      </trkpt>
      <trkpt lat="42.96966" lon="0.29977">
        <ele>1640.3</ele>
        <time>2026-07-07T09:51:19Z</time>
      </trkpt>
      <trkpt lat="42.96966" lon="0.29979">
        <ele>1639.3</ele>
        <time>2026-07-07T09:51:20Z</time>
      </trkpt>
      <trkpt lat="42.96966" lon="0.2998">
        <ele>1638.3</ele>
        <time>2026-07-07T09:51:21Z</time>
      </trkpt>
      <trkpt lat="42.96967" lon="0.29981">
        <ele>1639.3</ele>
        <time>2026-07-07T09:51:22Z</time>
      </trkpt>
      <trkpt lat="42.96967" lon="0.29982">
        <ele>1639.3</ele>
        <time>2026-07-07T09:51:23Z</time>
      </trkpt>
      <trkpt lat="42.96968" lon="0.29983">
        <ele>1639.3</ele>
        <time>2026-07-07T09:51:24Z</time>
      </trkpt>
      <trkpt lat="42.96968" lon="0.29984">
        <ele>1639.3</ele>
        <time>2026-07-07T09:51:25Z</time>
      </trkpt>
      <trkpt lat="42.96969" lon="0.29985">
        <ele>1638.3</ele>
        <time>2026-07-07T09:51:26Z</time>
      </trkpt>
      <trkpt lat="42.96969" lon="0.29986">
        <ele>1639.3</ele>
        <time>2026-07-07T09:51:27Z</time>
      </trkpt>
      <trkpt lat="42.96969" lon="0.29987">
        <ele>1639.3</ele>
        <time>2026-07-07T09:51:28Z</time>
      </trkpt>
      <trkpt lat="42.9697" lon="0.29988">
        <ele>1639.3</ele>
        <time>2026-07-07T09:51:29Z</time>
      </trkpt>
      <trkpt lat="42.9697" lon="0.29988">
        <ele>1639.3</ele>
        <time>2026-07-07T09:51:30Z</time>
      </trkpt>
      <trkpt lat="42.9697" lon="0.29988">
        <ele>1639.3</ele>
        <time>2026-07-07T09:51:31Z</time>
      </trkpt>
      <trkpt lat="42.9697" lon="0.29988">
        <ele>1638.3</ele>
        <time>2026-07-07T09:51:32Z</time>
      </trkpt>
      <trkpt lat="42.9697" lon="0.29989">
        <ele>1638.3</ele>
        <time>2026-07-07T09:51:33Z</time>
      </trkpt>
      <trkpt lat="42.9697" lon="0.29989">
        <ele>1638.3</ele>
        <time>2026-07-07T09:51:34Z</time>
      </trkpt>
      <trkpt lat="42.96971" lon="0.29989">
        <ele>1638.3</ele>
        <time>2026-07-07T09:51:35Z</time>
      </trkpt>
      <trkpt lat="42.9697" lon="0.2999">
        <ele>1638.3</ele>
        <time>2026-07-07T09:51:36Z</time>
      </trkpt>
      <trkpt lat="42.96971" lon="0.29991">
        <ele>1638.3</ele>
        <time>2026-07-07T09:51:37Z</time>
      </trkpt>
      <trkpt lat="42.9697" lon="0.29991">
        <ele>1637.3</ele>
        <time>2026-07-07T09:51:38Z</time>
      </trkpt>
      <trkpt lat="42.9697" lon="0.29991">
        <ele>1637.3</ele>
        <time>2026-07-07T09:51:39Z</time>
      </trkpt>
      <trkpt lat="42.9697" lon="0.29992">
        <ele>1636.3</ele>
        <time>2026-07-07T09:51:40Z</time>
      </trkpt>
      <trkpt lat="42.9697" lon="0.29992">
        <ele>1636.3</ele>
        <time>2026-07-07T09:51:41Z</time>
      </trkpt>
      <trkpt lat="42.9697" lon="0.29993">
        <ele>1636.3</ele>
        <time>2026-07-07T09:51:42Z</time>
      </trkpt>
      <trkpt lat="42.9697" lon="0.29993">
        <ele>1635.3</ele>
        <time>2026-07-07T09:51:43Z</time>
      </trkpt>
      <trkpt lat="42.9697" lon="0.29994">
        <ele>1635.3</ele>
        <time>2026-07-07T09:51:44Z</time>
      </trkpt>
      <trkpt lat="42.9697" lon="0.29995">
        <ele>1635.3</ele>
        <time>2026-07-07T09:51:45Z</time>
      </trkpt>
      <trkpt lat="42.9697" lon="0.29996">
        <ele>1635.3</ele>
        <time>2026-07-07T09:51:46Z</time>
      </trkpt>
      <trkpt lat="42.96971" lon="0.29997">
        <ele>1635.3</ele>
        <time>2026-07-07T09:51:47Z</time>
      </trkpt>
      <trkpt lat="42.96971" lon="0.29998">
        <ele>1635.3</ele>
        <time>2026-07-07T09:51:48Z</time>
      </trkpt>
      <trkpt lat="42.9697" lon="0.29997">
        <ele>1636.3</ele>
        <time>2026-07-07T09:51:49Z</time>
      </trkpt>
      <trkpt lat="42.9697" lon="0.29997">
        <ele>1635.3</ele>
        <time>2026-07-07T09:51:50Z</time>
      </trkpt>
      <trkpt lat="42.9697" lon="0.29996">
        <ele>1634.3</ele>
        <time>2026-07-07T09:51:51Z</time>
      </trkpt>
      <trkpt lat="42.96971" lon="0.29997">
        <ele>1635.3</ele>
        <time>2026-07-07T09:51:52Z</time>
      </trkpt>
      <trkpt lat="42.96971" lon="0.29997">
        <ele>1635.3</ele>
        <time>2026-07-07T09:51:53Z</time>
      </trkpt>
      <trkpt lat="42.96971" lon="0.29997">
        <ele>1635.3</ele>
        <time>2026-07-07T09:51:54Z</time>
      </trkpt>
      <trkpt lat="42.96971" lon="0.29997">
        <ele>1635.3</ele>
        <time>2026-07-07T09:51:55Z</time>
      </trkpt>
      <trkpt lat="42.96971" lon="0.29997">
        <ele>1635.3</ele>
        <time>2026-07-07T09:51:56Z</time>
      </trkpt>
      <trkpt lat="42.96971" lon="0.29998">
        <ele>1634.3</ele>
        <time>2026-07-07T09:51:57Z</time>
      </trkpt>
      <trkpt lat="42.96971" lon="0.29998">
        <ele>1633.3</ele>
        <time>2026-07-07T09:51:58Z</time>
      </trkpt>
      <trkpt lat="42.96971" lon="0.29999">
        <ele>1632.3</ele>
        <time>2026-07-07T09:51:59Z</time>
      </trkpt>
      <trkpt lat="42.96971" lon="0.29999">
        <ele>1632.3</ele>
        <time>2026-07-07T09:52:00Z</time>
      </trkpt>
      <trkpt lat="42.96972" lon="0.29999">
        <ele>1631.3</ele>
        <time>2026-07-07T09:52:01Z</time>
      </trkpt>
      <trkpt lat="42.96972" lon="0.29999">
        <ele>1631.3</ele>
        <time>2026-07-07T09:52:02Z</time>
      </trkpt>
      <trkpt lat="42.96972" lon="0.29999">
        <ele>1631.3</ele>
        <time>2026-07-07T09:52:03Z</time>
      </trkpt>
      <trkpt lat="42.96972" lon="0.29999">
        <ele>1631.3</ele>
        <time>2026-07-07T09:52:04Z</time>
      </trkpt>
      <trkpt lat="42.96971" lon="0.29999">
        <ele>1632.3</ele>
        <time>2026-07-07T09:52:05Z</time>
      </trkpt>
      <trkpt lat="42.96971" lon="0.3">
        <ele>1632.3</ele>
        <time>2026-07-07T09:52:06Z</time>
      </trkpt>
      <trkpt lat="42.9697" lon="0.30001">
        <ele>1632.3</ele>
        <time>2026-07-07T09:52:07Z</time>
      </trkpt>
      <trkpt lat="42.9697" lon="0.30002">
        <ele>1631.3</ele>
        <time>2026-07-07T09:52:08Z</time>
      </trkpt>
      <trkpt lat="42.9697" lon="0.30002">
        <ele>1632.3</ele>
        <time>2026-07-07T09:52:09Z</time>
      </trkpt>
      <trkpt lat="42.96969" lon="0.30002">
        <ele>1632.3</ele>
        <time>2026-07-07T09:52:10Z</time>
      </trkpt>
      <trkpt lat="42.96969" lon="0.30003">
        <ele>1631.3</ele>
        <time>2026-07-07T09:52:11Z</time>
      </trkpt>
      <trkpt lat="42.96968" lon="0.30003">
        <ele>1631.3</ele>
        <time>2026-07-07T09:52:12Z</time>
      </trkpt>
      <trkpt lat="42.96968" lon="0.30004">
        <ele>1631.3</ele>
        <time>2026-07-07T09:52:13Z</time>
      </trkpt>
      <trkpt lat="42.96967" lon="0.30004">
        <ele>1631.3</ele>
        <time>2026-07-07T09:52:14Z</time>
      </trkpt>
      <trkpt lat="42.96966" lon="0.30005">
        <ele>1632.3</ele>
        <time>2026-07-07T09:52:15Z</time>
      </trkpt>
      <trkpt lat="42.96966" lon="0.30005">
        <ele>1631.3</ele>
        <time>2026-07-07T09:52:16Z</time>
      </trkpt>
      <trkpt lat="42.96965" lon="0.30006">
        <ele>1631.3</ele>
        <time>2026-07-07T09:52:17Z</time>
      </trkpt>
      <trkpt lat="42.96965" lon="0.30006">
        <ele>1632.3</ele>
        <time>2026-07-07T09:52:18Z</time>
      </trkpt>
      <trkpt lat="42.96964" lon="0.30006">
        <ele>1631.3</ele>
        <time>2026-07-07T09:52:19Z</time>
      </trkpt>
      <trkpt lat="42.96964" lon="0.30006">
        <ele>1631.3</ele>
        <time>2026-07-07T09:52:20Z</time>
      </trkpt>
      <trkpt lat="42.96964" lon="0.30006">
        <ele>1630.3</ele>
        <time>2026-07-07T09:52:21Z</time>
      </trkpt>
      <trkpt lat="42.96964" lon="0.30007">
        <ele>1631.3</ele>
        <time>2026-07-07T09:52:22Z</time>
      </trkpt>
      <trkpt lat="42.96964" lon="0.30007">
        <ele>1631.3</ele>
        <time>2026-07-07T09:52:23Z</time>
      </trkpt>
      <trkpt lat="42.96964" lon="0.30007">
        <ele>1631.3</ele>
        <time>2026-07-07T09:52:24Z</time>
      </trkpt>
      <trkpt lat="42.96965" lon="0.30008">
        <ele>1630.3</ele>
        <time>2026-07-07T09:52:25Z</time>
      </trkpt>
      <trkpt lat="42.96965" lon="0.30008">
        <ele>1629.3</ele>
        <time>2026-07-07T09:52:26Z</time>
      </trkpt>
      <trkpt lat="42.96964" lon="0.30009">
        <ele>1630.3</ele>
        <time>2026-07-07T09:52:27Z</time>
      </trkpt>
      <trkpt lat="42.96964" lon="0.30009">
        <ele>1630.3</ele>
        <time>2026-07-07T09:52:28Z</time>
      </trkpt>
      <trkpt lat="42.96964" lon="0.3001">
        <ele>1630.3</ele>
        <time>2026-07-07T09:52:29Z</time>
      </trkpt>
      <trkpt lat="42.96964" lon="0.3001">
        <ele>1630.3</ele>
        <time>2026-07-07T09:52:30Z</time>
      </trkpt>
      <trkpt lat="42.96965" lon="0.3001">
        <ele>1630.3</ele>
        <time>2026-07-07T09:52:31Z</time>
      </trkpt>
      <trkpt lat="42.96966" lon="0.3001">
        <ele>1628.3</ele>
        <time>2026-07-07T09:52:32Z</time>
      </trkpt>
      <trkpt lat="42.96965" lon="0.3001">
        <ele>1628.3</ele>
        <time>2026-07-07T09:52:33Z</time>
      </trkpt>
      <trkpt lat="42.96965" lon="0.3001">
        <ele>1629.3</ele>
        <time>2026-07-07T09:52:34Z</time>
      </trkpt>
      <trkpt lat="42.96965" lon="0.30011">
        <ele>1628.3</ele>
        <time>2026-07-07T09:52:35Z</time>
      </trkpt>
      <trkpt lat="42.96965" lon="0.3001">
        <ele>1629.3</ele>
        <time>2026-07-07T09:52:36Z</time>
      </trkpt>
      <trkpt lat="42.96964" lon="0.3001">
        <ele>1629.3</ele>
        <time>2026-07-07T09:52:37Z</time>
      </trkpt>
      <trkpt lat="42.96964" lon="0.3001">
        <ele>1629.3</ele>
        <time>2026-07-07T09:52:38Z</time>
      </trkpt>
      <trkpt lat="42.96964" lon="0.3001">
        <ele>1629.3</ele>
        <time>2026-07-07T09:52:39Z</time>
      </trkpt>
      <trkpt lat="42.96963" lon="0.30011">
        <ele>1629.3</ele>
        <time>2026-07-07T09:52:40Z</time>
      </trkpt>
      <trkpt lat="42.96963" lon="0.30012">
        <ele>1628.3</ele>
        <time>2026-07-07T09:52:41Z</time>
      </trkpt>
      <trkpt lat="42.96963" lon="0.30013">
        <ele>1628.3</ele>
        <time>2026-07-07T09:52:42Z</time>
      </trkpt>
      <trkpt lat="42.96962" lon="0.30015">
        <ele>1627.3</ele>
        <time>2026-07-07T09:52:43Z</time>
      </trkpt>
      <trkpt lat="42.96962" lon="0.30015">
        <ele>1627.3</ele>
        <time>2026-07-07T09:52:44Z</time>
      </trkpt>
      <trkpt lat="42.96962" lon="0.30015">
        <ele>1626.3</ele>
        <time>2026-07-07T09:52:45Z</time>
      </trkpt>
      <trkpt lat="42.96962" lon="0.30016">
        <ele>1626.3</ele>
        <time>2026-07-07T09:52:46Z</time>
      </trkpt>
      <trkpt lat="42.96962" lon="0.30017">
        <ele>1625.3</ele>
        <time>2026-07-07T09:52:47Z</time>
      </trkpt>
      <trkpt lat="42.96963" lon="0.30017">
        <ele>1625.3</ele>
        <time>2026-07-07T09:52:48Z</time>
      </trkpt>
      <trkpt lat="42.96963" lon="0.30017">
        <ele>1625.3</ele>
        <time>2026-07-07T09:52:49Z</time>
      </trkpt>
      <trkpt lat="42.96963" lon="0.30018">
        <ele>1624.3</ele>
        <time>2026-07-07T09:52:50Z</time>
      </trkpt>
      <trkpt lat="42.96963" lon="0.30018">
        <ele>1624.3</ele>
        <time>2026-07-07T09:52:51Z</time>
      </trkpt>
      <trkpt lat="42.96963" lon="0.30018">
        <ele>1624.3</ele>
        <time>2026-07-07T09:52:52Z</time>
      </trkpt>
      <trkpt lat="42.96963" lon="0.30019">
        <ele>1622.3</ele>
        <time>2026-07-07T09:52:53Z</time>
      </trkpt>
      <trkpt lat="42.96963" lon="0.3002">
        <ele>1623.3</ele>
        <time>2026-07-07T09:52:54Z</time>
      </trkpt>
      <trkpt lat="42.96962" lon="0.3002">
        <ele>1622.3</ele>
        <time>2026-07-07T09:52:55Z</time>
      </trkpt>
      <trkpt lat="42.96962" lon="0.3002">
        <ele>1623.3</ele>
        <time>2026-07-07T09:52:56Z</time>
      </trkpt>
      <trkpt lat="42.96962" lon="0.3002">
        <ele>1622.3</ele>
        <time>2026-07-07T09:52:57Z</time>
      </trkpt>
      <trkpt lat="42.96962" lon="0.30021">
        <ele>1622.3</ele>
        <time>2026-07-07T09:52:58Z</time>
      </trkpt>
      <trkpt lat="42.96962" lon="0.30022">
        <ele>1621.3</ele>
        <time>2026-07-07T09:52:59Z</time>
      </trkpt>
      <trkpt lat="42.96962" lon="0.30022">
        <ele>1621.3</ele>
        <time>2026-07-07T09:53:00Z</time>
      </trkpt>
      <trkpt lat="42.96962" lon="0.30022">
        <ele>1621.3</ele>
        <time>2026-07-07T09:53:01Z</time>
      </trkpt>
      <trkpt lat="42.96962" lon="0.30022">
        <ele>1621.3</ele>
        <time>2026-07-07T09:53:02Z</time>
      </trkpt>
      <trkpt lat="42.96963" lon="0.30022">
        <ele>1620.3</ele>
        <time>2026-07-07T09:53:03Z</time>
      </trkpt>
      <trkpt lat="42.96963" lon="0.30022">
        <ele>1620.3</ele>
        <time>2026-07-07T09:53:04Z</time>
      </trkpt>
      <trkpt lat="42.96963" lon="0.30022">
        <ele>1620.3</ele>
        <time>2026-07-07T09:53:05Z</time>
      </trkpt>
      <trkpt lat="42.96963" lon="0.30022">
        <ele>1620.3</ele>
        <time>2026-07-07T09:53:06Z</time>
      </trkpt>
      <trkpt lat="42.96963" lon="0.30022">
        <ele>1620.3</ele>
        <time>2026-07-07T09:53:07Z</time>
      </trkpt>
      <trkpt lat="42.96963" lon="0.30022">
        <ele>1620.3</ele>
        <time>2026-07-07T09:53:08Z</time>
      </trkpt>
      <trkpt lat="42.96963" lon="0.30022">
        <ele>1620.3</ele>
        <time>2026-07-07T09:53:09Z</time>
      </trkpt>
      <trkpt lat="42.96963" lon="0.30022">
        <ele>1620.3</ele>
        <time>2026-07-07T09:53:10Z</time>
      </trkpt>
      <trkpt lat="42.96963" lon="0.30022">
        <ele>1620.3</ele>
        <time>2026-07-07T09:53:11Z</time>
      </trkpt>
      <trkpt lat="42.96963" lon="0.30022">
        <ele>1620.3</ele>
        <time>2026-07-07T09:53:12Z</time>
      </trkpt>
      <trkpt lat="42.96963" lon="0.30022">
        <ele>1620.3</ele>
        <time>2026-07-07T09:53:13Z</time>
      </trkpt>
      <trkpt lat="42.96963" lon="0.30022">
        <ele>1620.3</ele>
        <time>2026-07-07T09:53:14Z</time>
      </trkpt>
      <trkpt lat="42.96963" lon="0.30022">
        <ele>1620.3</ele>
        <time>2026-07-07T09:53:15Z</time>
      </trkpt>
      <trkpt lat="42.96963" lon="0.30022">
        <ele>1620.3</ele>
        <time>2026-07-07T09:53:16Z</time>
      </trkpt>
      <trkpt lat="42.96963" lon="0.30022">
        <ele>1620.3</ele>
        <time>2026-07-07T09:53:17Z</time>
      </trkpt>
      <trkpt lat="42.96963" lon="0.30022">
        <ele>1620.3</ele>
        <time>2026-07-07T09:53:18Z</time>
      </trkpt>
      <trkpt lat="42.96963" lon="0.30022">
        <ele>1620.3</ele>
        <time>2026-07-07T09:53:19Z</time>
      </trkpt>
      <trkpt lat="42.96963" lon="0.30022">
        <ele>1620.3</ele>
        <time>2026-07-07T09:53:20Z</time>
      </trkpt>
      <trkpt lat="42.96963" lon="0.30022">
        <ele>1620.3</ele>
        <time>2026-07-07T09:53:21Z</time>
      </trkpt>
      <trkpt lat="42.96963" lon="0.30022">
        <ele>1620.3</ele>
        <time>2026-07-07T09:53:22Z</time>
      </trkpt>
      <trkpt lat="42.96964" lon="0.30023">
        <ele>1620.3</ele>
        <time>2026-07-07T09:53:23Z</time>
      </trkpt>
      <trkpt lat="42.96964" lon="0.30024">
        <ele>1620.3</ele>
        <time>2026-07-07T09:53:24Z</time>
      </trkpt>
      <trkpt lat="42.96965" lon="0.30024">
        <ele>1620.3</ele>
        <time>2026-07-07T09:53:25Z</time>
      </trkpt>
      <trkpt lat="42.96965" lon="0.30024">
        <ele>1620.3</ele>
        <time>2026-07-07T09:53:26Z</time>
      </trkpt>
      <trkpt lat="42.96965" lon="0.30024">
        <ele>1621.3</ele>
        <time>2026-07-07T09:53:27Z</time>
      </trkpt>
      <trkpt lat="42.96964" lon="0.30024">
        <ele>1621.3</ele>
        <time>2026-07-07T09:53:28Z</time>
      </trkpt>
      <trkpt lat="42.96963" lon="0.30024">
        <ele>1620.3</ele>
        <time>2026-07-07T09:53:29Z</time>
      </trkpt>
      <trkpt lat="42.96963" lon="0.30024">
        <ele>1620.3</ele>
        <time>2026-07-07T09:53:30Z</time>
      </trkpt>
      <trkpt lat="42.96962" lon="0.30025">
        <ele>1620.3</ele>
        <time>2026-07-07T09:53:31Z</time>
      </trkpt>
      <trkpt lat="42.96961" lon="0.30025">
        <ele>1620.3</ele>
        <time>2026-07-07T09:53:32Z</time>
      </trkpt>
      <trkpt lat="42.9696" lon="0.30025">
        <ele>1620.3</ele>
        <time>2026-07-07T09:53:33Z</time>
      </trkpt>
      <trkpt lat="42.96958" lon="0.30025">
        <ele>1619.3</ele>
        <time>2026-07-07T09:53:34Z</time>
      </trkpt>
      <trkpt lat="42.96956" lon="0.30021">
        <ele>1619.3</ele>
        <time>2026-07-07T09:53:35Z</time>
      </trkpt>
      <trkpt lat="42.96955" lon="0.30022">
        <ele>1619.3</ele>
        <time>2026-07-07T09:53:36Z</time>
      </trkpt>
      <trkpt lat="42.96954" lon="0.30023">
        <ele>1620.3</ele>
        <time>2026-07-07T09:53:36Z</time>
      </trkpt>
      <trkpt lat="42.96953" lon="0.30023">
        <ele>1620.3</ele>
        <time>2026-07-07T09:53:37Z</time>
      </trkpt>
      <trkpt lat="42.96953" lon="0.30024">
        <ele>1620.3</ele>
        <time>2026-07-07T09:53:37Z</time>
      </trkpt>
      <trkpt lat="42.96952" lon="0.30025">
        <ele>1620.3</ele>
        <time>2026-07-07T09:53:38Z</time>
      </trkpt>
      <trkpt lat="42.96951" lon="0.30025">
        <ele>1621.3</ele>
        <time>2026-07-07T09:53:39Z</time>
      </trkpt>
      <trkpt lat="42.96951" lon="0.30025">
        <ele>1621.3</ele>
        <time>2026-07-07T09:53:39Z</time>
      </trkpt>
      <trkpt lat="42.9695" lon="0.30026">
        <ele>1620.3</ele>
        <time>2026-07-07T09:53:40Z</time>
      </trkpt>
      <trkpt lat="42.9695" lon="0.30026">
        <ele>1620.3</ele>
        <time>2026-07-07T09:53:40Z</time>
      </trkpt>
      <trkpt lat="42.96949" lon="0.30027">
        <ele>1620.3</ele>
        <time>2026-07-07T09:53:41Z</time>
      </trkpt>
      <trkpt lat="42.96948" lon="0.30027">
        <ele>1620.3</ele>
        <time>2026-07-07T09:53:42Z</time>
      </trkpt>
      <trkpt lat="42.96948" lon="0.30027">
        <ele>1620.3</ele>
        <time>2026-07-07T09:53:42Z</time>
      </trkpt>
      <trkpt lat="42.96948" lon="0.30027">
        <ele>1620.3</ele>
        <time>2026-07-07T09:53:43Z</time>
      </trkpt>
      <trkpt lat="42.96947" lon="0.30027">
        <ele>1620.3</ele>
        <time>2026-07-07T09:53:44Z</time>
      </trkpt>
      <trkpt lat="42.96946" lon="0.30027">
        <ele>1620.3</ele>
        <time>2026-07-07T09:53:45Z</time>
      </trkpt>
      <trkpt lat="42.96946" lon="0.30027">
        <ele>1619.3</ele>
        <time>2026-07-07T09:53:45Z</time>
      </trkpt>
      <trkpt lat="42.96945" lon="0.30027">
        <ele>1619.3</ele>
        <time>2026-07-07T09:53:46Z</time>
      </trkpt>
      <trkpt lat="42.96945" lon="0.30027">
        <ele>1620.3</ele>
        <time>2026-07-07T09:53:47Z</time>
      </trkpt>
      <trkpt lat="42.96944" lon="0.30027">
        <ele>1620.3</ele>
        <time>2026-07-07T09:53:47Z</time>
      </trkpt>
      <trkpt lat="42.96943" lon="0.30027">
        <ele>1620.3</ele>
        <time>2026-07-07T09:53:48Z</time>
      </trkpt>
      <trkpt lat="42.96943" lon="0.30027">
        <ele>1620.3</ele>
        <time>2026-07-07T09:53:48Z</time>
      </trkpt>
      <trkpt lat="42.96942" lon="0.30028">
        <ele>1620.3</ele>
        <time>2026-07-07T09:53:49Z</time>
      </trkpt>
      <trkpt lat="42.96942" lon="0.30028">
        <ele>1620.3</ele>
        <time>2026-07-07T09:53:50Z</time>
      </trkpt>
      <trkpt lat="42.96941" lon="0.30028">
        <ele>1621.3</ele>
        <time>2026-07-07T09:53:51Z</time>
      </trkpt>
      <trkpt lat="42.96941" lon="0.30028">
        <ele>1621.3</ele>
        <time>2026-07-07T09:53:51Z</time>
      </trkpt>
      <trkpt lat="42.9694" lon="0.30028">
        <ele>1621.3</ele>
        <time>2026-07-07T09:53:52Z</time>
      </trkpt>
      <trkpt lat="42.9694" lon="0.30027">
        <ele>1621.3</ele>
        <time>2026-07-07T09:53:53Z</time>
      </trkpt>
      <trkpt lat="42.9694" lon="0.30027">
        <ele>1621.3</ele>
        <time>2026-07-07T09:53:53Z</time>
      </trkpt>
      <trkpt lat="42.96939" lon="0.30027">
        <ele>1621.3</ele>
        <time>2026-07-07T09:53:54Z</time>
      </trkpt>
      <trkpt lat="42.96939" lon="0.30027">
        <ele>1621.3</ele>
        <time>2026-07-07T09:53:54Z</time>
      </trkpt>
      <trkpt lat="42.96938" lon="0.30027">
        <ele>1621.3</ele>
        <time>2026-07-07T09:53:55Z</time>
      </trkpt>
      <trkpt lat="42.96938" lon="0.30027">
        <ele>1621.3</ele>
        <time>2026-07-07T09:53:56Z</time>
      </trkpt>
      <trkpt lat="42.96937" lon="0.30027">
        <ele>1621.3</ele>
        <time>2026-07-07T09:53:56Z</time>
      </trkpt>
      <trkpt lat="42.96937" lon="0.30027">
        <ele>1621.3</ele>
        <time>2026-07-07T09:53:57Z</time>
      </trkpt>
      <trkpt lat="42.96936" lon="0.30027">
        <ele>1621.3</ele>
        <time>2026-07-07T09:53:57Z</time>
      </trkpt>
      <trkpt lat="42.96936" lon="0.30027">
        <ele>1621.3</ele>
        <time>2026-07-07T09:53:58Z</time>
      </trkpt>
      <trkpt lat="42.96935" lon="0.30028">
        <ele>1621.3</ele>
        <time>2026-07-07T09:53:58Z</time>
      </trkpt>
      <trkpt lat="42.96935" lon="0.30028">
        <ele>1621.3</ele>
        <time>2026-07-07T09:53:59Z</time>
      </trkpt>
      <trkpt lat="42.96934" lon="0.30028">
        <ele>1620.3</ele>
        <time>2026-07-07T09:53:59Z</time>
      </trkpt>
      <trkpt lat="42.96933" lon="0.30029">
        <ele>1620.3</ele>
        <time>2026-07-07T09:54:00Z</time>
      </trkpt>
      <trkpt lat="42.96933" lon="0.30029">
        <ele>1620.3</ele>
        <time>2026-07-07T09:54:00Z</time>
      </trkpt>
      <trkpt lat="42.96932" lon="0.30029">
        <ele>1620.3</ele>
        <time>2026-07-07T09:54:01Z</time>
      </trkpt>
      <trkpt lat="42.96932" lon="0.30029">
        <ele>1620.3</ele>
        <time>2026-07-07T09:54:02Z</time>
      </trkpt>
      <trkpt lat="42.96931" lon="0.30029">
        <ele>1620.3</ele>
        <time>2026-07-07T09:54:02Z</time>
      </trkpt>
      <trkpt lat="42.96931" lon="0.3003">
        <ele>1620.3</ele>
        <time>2026-07-07T09:54:03Z</time>
      </trkpt>
      <trkpt lat="42.9693" lon="0.3003">
        <ele>1620.3</ele>
        <time>2026-07-07T09:54:03Z</time>
      </trkpt>
      <trkpt lat="42.9693" lon="0.3003">
        <ele>1620.3</ele>
        <time>2026-07-07T09:54:04Z</time>
      </trkpt>
      <trkpt lat="42.96929" lon="0.30031">
        <ele>1620.3</ele>
        <time>2026-07-07T09:54:05Z</time>
      </trkpt>
      <trkpt lat="42.96929" lon="0.30031">
        <ele>1620.3</ele>
        <time>2026-07-07T09:54:05Z</time>
      </trkpt>
      <trkpt lat="42.96928" lon="0.30031">
        <ele>1620.3</ele>
        <time>2026-07-07T09:54:06Z</time>
      </trkpt>
      <trkpt lat="42.96928" lon="0.30032">
        <ele>1620.3</ele>
        <time>2026-07-07T09:54:06Z</time>
      </trkpt>
      <trkpt lat="42.96928" lon="0.30032">
        <ele>1620.3</ele>
        <time>2026-07-07T09:54:07Z</time>
      </trkpt>
      <trkpt lat="42.96927" lon="0.30033">
        <ele>1621.3</ele>
        <time>2026-07-07T09:54:07Z</time>
      </trkpt>
      <trkpt lat="42.96927" lon="0.30033">
        <ele>1621.3</ele>
        <time>2026-07-07T09:54:08Z</time>
      </trkpt>
      <trkpt lat="42.96927" lon="0.30034">
        <ele>1621.3</ele>
        <time>2026-07-07T09:54:08Z</time>
      </trkpt>
      <trkpt lat="42.96926" lon="0.30034">
        <ele>1621.3</ele>
        <time>2026-07-07T09:54:09Z</time>
      </trkpt>
      <trkpt lat="42.96926" lon="0.30034">
        <ele>1620.3</ele>
        <time>2026-07-07T09:54:10Z</time>
      </trkpt>
      <trkpt lat="42.96926" lon="0.30035">
        <ele>1620.3</ele>
        <time>2026-07-07T09:54:11Z</time>
      </trkpt>
      <trkpt lat="42.96925" lon="0.30035">
        <ele>1620.3</ele>
        <time>2026-07-07T09:54:12Z</time>
      </trkpt>
      <trkpt lat="42.96925" lon="0.30035">
        <ele>1621.3</ele>
        <time>2026-07-07T09:54:12Z</time>
      </trkpt>
      <trkpt lat="42.96925" lon="0.30035">
        <ele>1621.3</ele>
        <time>2026-07-07T09:54:13Z</time>
      </trkpt>
      <trkpt lat="42.96925" lon="0.30035">
        <ele>1621.3</ele>
        <time>2026-07-07T09:54:14Z</time>
      </trkpt>
      <trkpt lat="42.96924" lon="0.30035">
        <ele>1621.3</ele>
        <time>2026-07-07T09:54:14Z</time>
      </trkpt>
      <trkpt lat="42.96923" lon="0.30035">
        <ele>1621.3</ele>
        <time>2026-07-07T09:54:15Z</time>
      </trkpt>
      <trkpt lat="42.96923" lon="0.30035">
        <ele>1620.3</ele>
        <time>2026-07-07T09:54:16Z</time>
      </trkpt>
      <trkpt lat="42.96922" lon="0.30035">
        <ele>1620.3</ele>
        <time>2026-07-07T09:54:16Z</time>
      </trkpt>
      <trkpt lat="42.96921" lon="0.30034">
        <ele>1620.3</ele>
        <time>2026-07-07T09:54:17Z</time>
      </trkpt>
      <trkpt lat="42.96921" lon="0.30034">
        <ele>1620.3</ele>
        <time>2026-07-07T09:54:17Z</time>
      </trkpt>
      <trkpt lat="42.9692" lon="0.30034">
        <ele>1620.3</ele>
        <time>2026-07-07T09:54:18Z</time>
      </trkpt>
      <trkpt lat="42.96919" lon="0.30034">
        <ele>1620.3</ele>
        <time>2026-07-07T09:54:19Z</time>
      </trkpt>
      <trkpt lat="42.96918" lon="0.30034">
        <ele>1620.3</ele>
        <time>2026-07-07T09:54:19Z</time>
      </trkpt>
      <trkpt lat="42.96918" lon="0.30034">
        <ele>1620.3</ele>
        <time>2026-07-07T09:54:20Z</time>
      </trkpt>
      <trkpt lat="42.96917" lon="0.30033">
        <ele>1620.3</ele>
        <time>2026-07-07T09:54:20Z</time>
      </trkpt>
      <trkpt lat="42.96917" lon="0.30033">
        <ele>1620.3</ele>
        <time>2026-07-07T09:54:21Z</time>
      </trkpt>
      <trkpt lat="42.96916" lon="0.30033">
        <ele>1619.3</ele>
        <time>2026-07-07T09:54:22Z</time>
      </trkpt>
      <trkpt lat="42.96916" lon="0.30033">
        <ele>1619.3</ele>
        <time>2026-07-07T09:54:23Z</time>
      </trkpt>
      <trkpt lat="42.96916" lon="0.30033">
        <ele>1620.3</ele>
        <time>2026-07-07T09:54:23Z</time>
      </trkpt>
      <trkpt lat="42.96915" lon="0.30033">
        <ele>1620.3</ele>
        <time>2026-07-07T09:54:24Z</time>
      </trkpt>
      <trkpt lat="42.96914" lon="0.30033">
        <ele>1621.3</ele>
        <time>2026-07-07T09:54:25Z</time>
      </trkpt>
      <trkpt lat="42.96914" lon="0.30033">
        <ele>1621.3</ele>
        <time>2026-07-07T09:54:25Z</time>
      </trkpt>
      <trkpt lat="42.96913" lon="0.30033">
        <ele>1621.3</ele>
        <time>2026-07-07T09:54:26Z</time>
      </trkpt>
      <trkpt lat="42.96913" lon="0.30033">
        <ele>1621.3</ele>
        <time>2026-07-07T09:54:27Z</time>
      </trkpt>
      <trkpt lat="42.96912" lon="0.30033">
        <ele>1621.3</ele>
        <time>2026-07-07T09:54:27Z</time>
      </trkpt>
      <trkpt lat="42.96912" lon="0.30034">
        <ele>1621.3</ele>
        <time>2026-07-07T09:54:28Z</time>
      </trkpt>
      <trkpt lat="42.96911" lon="0.30034">
        <ele>1620.3</ele>
        <time>2026-07-07T09:54:29Z</time>
      </trkpt>
      <trkpt lat="42.96911" lon="0.30034">
        <ele>1620.3</ele>
        <time>2026-07-07T09:54:30Z</time>
      </trkpt>
      <trkpt lat="42.96911" lon="0.30034">
        <ele>1620.3</ele>
        <time>2026-07-07T09:54:31Z</time>
      </trkpt>
      <trkpt lat="42.96912" lon="0.30035">
        <ele>1620.3</ele>
        <time>2026-07-07T09:54:32Z</time>
      </trkpt>
      <trkpt lat="42.96912" lon="0.30035">
        <ele>1620.3</ele>
        <time>2026-07-07T09:54:33Z</time>
      </trkpt>
      <trkpt lat="42.96912" lon="0.30035">
        <ele>1621.3</ele>
        <time>2026-07-07T09:54:34Z</time>
      </trkpt>
      <trkpt lat="42.96912" lon="0.30035">
        <ele>1621.3</ele>
        <time>2026-07-07T09:54:35Z</time>
      </trkpt>
      <trkpt lat="42.96912" lon="0.30036">
        <ele>1621.3</ele>
        <time>2026-07-07T09:54:36Z</time>
      </trkpt>
      <trkpt lat="42.96912" lon="0.30036">
        <ele>1621.3</ele>
        <time>2026-07-07T09:54:37Z</time>
      </trkpt>
      <trkpt lat="42.96912" lon="0.30036">
        <ele>1620.3</ele>
        <time>2026-07-07T09:54:38Z</time>
      </trkpt>
      <trkpt lat="42.96912" lon="0.30036">
        <ele>1620.3</ele>
        <time>2026-07-07T09:54:39Z</time>
      </trkpt>
      <trkpt lat="42.96912" lon="0.30036">
        <ele>1621.3</ele>
        <time>2026-07-07T09:54:40Z</time>
      </trkpt>
      <trkpt lat="42.96913" lon="0.30036">
        <ele>1621.3</ele>
        <time>2026-07-07T09:54:41Z</time>
      </trkpt>
      <trkpt lat="42.96912" lon="0.30037">
        <ele>1620.3</ele>
        <time>2026-07-07T09:54:42Z</time>
      </trkpt>
      <trkpt lat="42.96912" lon="0.30037">
        <ele>1620.3</ele>
        <time>2026-07-07T09:54:43Z</time>
      </trkpt>
      <trkpt lat="42.96912" lon="0.30037">
        <ele>1620.3</ele>
        <time>2026-07-07T09:54:44Z</time>
      </trkpt>
      <trkpt lat="42.96912" lon="0.30037">
        <ele>1620.3</ele>
        <time>2026-07-07T09:54:44Z</time>
      </trkpt>
      <trkpt lat="42.96912" lon="0.30038">
        <ele>1620.3</ele>
        <time>2026-07-07T09:54:45Z</time>
      </trkpt>
      <trkpt lat="42.96912" lon="0.30038">
        <ele>1620.3</ele>
        <time>2026-07-07T09:54:45Z</time>
      </trkpt>
      <trkpt lat="42.96912" lon="0.30038">
        <ele>1619.3</ele>
        <time>2026-07-07T09:54:46Z</time>
      </trkpt>
      <trkpt lat="42.96912" lon="0.30039">
        <ele>1620.3</ele>
        <time>2026-07-07T09:54:47Z</time>
      </trkpt>
      <trkpt lat="42.96912" lon="0.3004">
        <ele>1620.3</ele>
        <time>2026-07-07T09:54:48Z</time>
      </trkpt>
      <trkpt lat="42.96912" lon="0.3004">
        <ele>1619.3</ele>
        <time>2026-07-07T09:54:48Z</time>
      </trkpt>
      <trkpt lat="42.96911" lon="0.3004">
        <ele>1619.3</ele>
        <time>2026-07-07T09:54:49Z</time>
      </trkpt>
      <trkpt lat="42.96911" lon="0.30041">
        <ele>1618.3</ele>
        <time>2026-07-07T09:54:50Z</time>
      </trkpt>
      <trkpt lat="42.96912" lon="0.3004">
        <ele>1618.3</ele>
        <time>2026-07-07T09:54:51Z</time>
      </trkpt>
      <trkpt lat="42.96912" lon="0.3004">
        <ele>1618.3</ele>
        <time>2026-07-07T09:54:52Z</time>
      </trkpt>
      <trkpt lat="42.96912" lon="0.3004">
        <ele>1617.3</ele>
        <time>2026-07-07T09:54:53Z</time>
      </trkpt>
      <trkpt lat="42.96912" lon="0.3004">
        <ele>1617.3</ele>
        <time>2026-07-07T09:54:54Z</time>
      </trkpt>
      <trkpt lat="42.96912" lon="0.3004">
        <ele>1617.3</ele>
        <time>2026-07-07T09:54:55Z</time>
      </trkpt>
      <trkpt lat="42.96912" lon="0.3004">
        <ele>1617.3</ele>
        <time>2026-07-07T09:54:56Z</time>
      </trkpt>
      <trkpt lat="42.96912" lon="0.3004">
        <ele>1617.3</ele>
        <time>2026-07-07T09:54:56Z</time>
      </trkpt>
      <trkpt lat="42.96912" lon="0.3004">
        <ele>1616.3</ele>
        <time>2026-07-07T09:54:57Z</time>
      </trkpt>
      <trkpt lat="42.96912" lon="0.3004">
        <ele>1616.3</ele>
        <time>2026-07-07T09:54:58Z</time>
      </trkpt>
      <trkpt lat="42.96912" lon="0.3004">
        <ele>1616.3</ele>
        <time>2026-07-07T09:54:59Z</time>
      </trkpt>
      <trkpt lat="42.96912" lon="0.3004">
        <ele>1615.3</ele>
        <time>2026-07-07T09:55:00Z</time>
      </trkpt>
      <trkpt lat="42.96912" lon="0.3004">
        <ele>1616.3</ele>
        <time>2026-07-07T09:55:00Z</time>
      </trkpt>
      <trkpt lat="42.96912" lon="0.30041">
        <ele>1616.3</ele>
        <time>2026-07-07T09:55:01Z</time>
      </trkpt>
      <trkpt lat="42.96912" lon="0.30041">
        <ele>1616.3</ele>
        <time>2026-07-07T09:55:02Z</time>
      </trkpt>
      <trkpt lat="42.96912" lon="0.30041">
        <ele>1616.3</ele>
        <time>2026-07-07T09:55:03Z</time>
      </trkpt>
      <trkpt lat="42.96912" lon="0.30041">
        <ele>1616.3</ele>
        <time>2026-07-07T09:55:04Z</time>
      </trkpt>
      <trkpt lat="42.96912" lon="0.30041">
        <ele>1615.3</ele>
        <time>2026-07-07T09:55:05Z</time>
      </trkpt>
      <trkpt lat="42.96913" lon="0.30041">
        <ele>1615.3</ele>
        <time>2026-07-07T09:55:06Z</time>
      </trkpt>
      <trkpt lat="42.96913" lon="0.30041">
        <ele>1614.3</ele>
        <time>2026-07-07T09:55:07Z</time>
      </trkpt>
      <trkpt lat="42.96913" lon="0.30041">
        <ele>1614.3</ele>
        <time>2026-07-07T09:55:08Z</time>
      </trkpt>
      <trkpt lat="42.96913" lon="0.30041">
        <ele>1614.3</ele>
        <time>2026-07-07T09:55:08Z</time>
      </trkpt>
      <trkpt lat="42.96913" lon="0.30041">
        <ele>1614.3</ele>
        <time>2026-07-07T09:55:09Z</time>
      </trkpt>
      <trkpt lat="42.96913" lon="0.30041">
        <ele>1613.3</ele>
        <time>2026-07-07T09:55:10Z</time>
      </trkpt>
      <trkpt lat="42.96913" lon="0.30041">
        <ele>1612.3</ele>
        <time>2026-07-07T09:55:11Z</time>
      </trkpt>
      <trkpt lat="42.96913" lon="0.30041">
        <ele>1612.3</ele>
        <time>2026-07-07T09:55:12Z</time>
      </trkpt>
      <trkpt lat="42.96913" lon="0.30041">
        <ele>1612.3</ele>
        <time>2026-07-07T09:55:12Z</time>
      </trkpt>
      <trkpt lat="42.96914" lon="0.30041">
        <ele>1612.3</ele>
        <time>2026-07-07T09:55:13Z</time>
      </trkpt>
      <trkpt lat="42.96913" lon="0.30042">
        <ele>1612.3</ele>
        <time>2026-07-07T09:55:14Z</time>
      </trkpt>
      <trkpt lat="42.96913" lon="0.30042">
        <ele>1611.3</ele>
        <time>2026-07-07T09:55:15Z</time>
      </trkpt>
      <trkpt lat="42.96914" lon="0.30042">
        <ele>1612.3</ele>
        <time>2026-07-07T09:55:15Z</time>
      </trkpt>
      <trkpt lat="42.96914" lon="0.30042">
        <ele>1612.3</ele>
        <time>2026-07-07T09:55:16Z</time>
      </trkpt>
      <trkpt lat="42.96914" lon="0.30043">
        <ele>1612.3</ele>
        <time>2026-07-07T09:55:16Z</time>
      </trkpt>
      <trkpt lat="42.96914" lon="0.30043">
        <ele>1612.3</ele>
        <time>2026-07-07T09:55:17Z</time>
      </trkpt>
      <trkpt lat="42.96914" lon="0.30043">
        <ele>1612.3</ele>
        <time>2026-07-07T09:55:18Z</time>
      </trkpt>
      <trkpt lat="42.96915" lon="0.30043">
        <ele>1611.3</ele>
        <time>2026-07-07T09:55:19Z</time>
      </trkpt>
      <trkpt lat="42.96915" lon="0.30044">
        <ele>1612.3</ele>
        <time>2026-07-07T09:55:20Z</time>
      </trkpt>
      <trkpt lat="42.96915" lon="0.30044">
        <ele>1611.3</ele>
        <time>2026-07-07T09:55:20Z</time>
      </trkpt>
      <trkpt lat="42.96916" lon="0.30045">
        <ele>1611.3</ele>
        <time>2026-07-07T09:55:21Z</time>
      </trkpt>
      <trkpt lat="42.96916" lon="0.30046">
        <ele>1611.3</ele>
        <time>2026-07-07T09:55:22Z</time>
      </trkpt>
      <trkpt lat="42.96916" lon="0.30047">
        <ele>1611.3</ele>
        <time>2026-07-07T09:55:22Z</time>
      </trkpt>
      <trkpt lat="42.96917" lon="0.30047">
        <ele>1611.3</ele>
        <time>2026-07-07T09:55:23Z</time>
      </trkpt>
      <trkpt lat="42.96918" lon="0.30049">
        <ele>1611.3</ele>
        <time>2026-07-07T09:55:24Z</time>
      </trkpt>
      <trkpt lat="42.96918" lon="0.3005">
        <ele>1611.3</ele>
        <time>2026-07-07T09:55:25Z</time>
      </trkpt>
      <trkpt lat="42.96919" lon="0.30051">
        <ele>1609.3</ele>
        <time>2026-07-07T09:55:26Z</time>
      </trkpt>
      <trkpt lat="42.96918" lon="0.30051">
        <ele>1609.3</ele>
        <time>2026-07-07T09:55:27Z</time>
      </trkpt>
      <trkpt lat="42.96919" lon="0.30051">
        <ele>1608.3</ele>
        <time>2026-07-07T09:55:28Z</time>
      </trkpt>
      <trkpt lat="42.96919" lon="0.30052">
        <ele>1608.3</ele>
        <time>2026-07-07T09:55:28Z</time>
      </trkpt>
      <trkpt lat="42.96919" lon="0.30052">
        <ele>1608.3</ele>
        <time>2026-07-07T09:55:29Z</time>
      </trkpt>
      <trkpt lat="42.96919" lon="0.30053">
        <ele>1608.3</ele>
        <time>2026-07-07T09:55:29Z</time>
      </trkpt>
      <trkpt lat="42.96919" lon="0.30054">
        <ele>1608.3</ele>
        <time>2026-07-07T09:55:30Z</time>
      </trkpt>
      <trkpt lat="42.96919" lon="0.30054">
        <ele>1607.3</ele>
        <time>2026-07-07T09:55:31Z</time>
      </trkpt>
      <trkpt lat="42.96918" lon="0.30055">
        <ele>1606.3</ele>
        <time>2026-07-07T09:55:32Z</time>
      </trkpt>
      <trkpt lat="42.96917" lon="0.30055">
        <ele>1606.3</ele>
        <time>2026-07-07T09:55:32Z</time>
      </trkpt>
      <trkpt lat="42.96917" lon="0.30054">
        <ele>1606.3</ele>
        <time>2026-07-07T09:55:33Z</time>
      </trkpt>
      <trkpt lat="42.96916" lon="0.30055">
        <ele>1606.3</ele>
        <time>2026-07-07T09:55:34Z</time>
      </trkpt>
      <trkpt lat="42.96916" lon="0.30055">
        <ele>1605.3</ele>
        <time>2026-07-07T09:55:34Z</time>
      </trkpt>
      <trkpt lat="42.96916" lon="0.30056">
        <ele>1605.3</ele>
        <time>2026-07-07T09:55:35Z</time>
      </trkpt>
      <trkpt lat="42.96915" lon="0.30056">
        <ele>1605.3</ele>
        <time>2026-07-07T09:55:36Z</time>
      </trkpt>
      <trkpt lat="42.96915" lon="0.30057">
        <ele>1605.3</ele>
        <time>2026-07-07T09:55:37Z</time>
      </trkpt>
      <trkpt lat="42.96915" lon="0.30057">
        <ele>1605.3</ele>
        <time>2026-07-07T09:55:38Z</time>
      </trkpt>
      <trkpt lat="42.96915" lon="0.30057">
        <ele>1605.3</ele>
        <time>2026-07-07T09:55:38Z</time>
      </trkpt>
      <trkpt lat="42.96915" lon="0.30057">
        <ele>1605.3</ele>
        <time>2026-07-07T09:55:39Z</time>
      </trkpt>
      <trkpt lat="42.96915" lon="0.30058">
        <ele>1605.3</ele>
        <time>2026-07-07T09:55:39Z</time>
      </trkpt>
      <trkpt lat="42.96915" lon="0.30058">
        <ele>1606.3</ele>
        <time>2026-07-07T09:55:40Z</time>
      </trkpt>
      <trkpt lat="42.96915" lon="0.30059">
        <ele>1606.3</ele>
        <time>2026-07-07T09:55:40Z</time>
      </trkpt>
      <trkpt lat="42.96915" lon="0.3006">
        <ele>1606.3</ele>
        <time>2026-07-07T09:55:41Z</time>
      </trkpt>
      <trkpt lat="42.96915" lon="0.3006">
        <ele>1606.3</ele>
        <time>2026-07-07T09:55:41Z</time>
      </trkpt>
      <trkpt lat="42.96915" lon="0.30061">
        <ele>1607.3</ele>
        <time>2026-07-07T09:55:42Z</time>
      </trkpt>
      <trkpt lat="42.96915" lon="0.30062">
        <ele>1607.3</ele>
        <time>2026-07-07T09:55:42Z</time>
      </trkpt>
      <trkpt lat="42.96915" lon="0.30063">
        <ele>1607.3</ele>
        <time>2026-07-07T09:55:43Z</time>
      </trkpt>
      <trkpt lat="42.96916" lon="0.30064">
        <ele>1607.3</ele>
        <time>2026-07-07T09:55:44Z</time>
      </trkpt>
      <trkpt lat="42.96916" lon="0.30064">
        <ele>1607.3</ele>
        <time>2026-07-07T09:55:45Z</time>
      </trkpt>
      <trkpt lat="42.96916" lon="0.30065">
        <ele>1607.3</ele>
        <time>2026-07-07T09:55:45Z</time>
      </trkpt>
      <trkpt lat="42.96917" lon="0.30066">
        <ele>1607.3</ele>
        <time>2026-07-07T09:55:46Z</time>
      </trkpt>
      <trkpt lat="42.96917" lon="0.30066">
        <ele>1607.3</ele>
        <time>2026-07-07T09:55:46Z</time>
      </trkpt>
      <trkpt lat="42.96917" lon="0.30067">
        <ele>1607.3</ele>
        <time>2026-07-07T09:55:47Z</time>
      </trkpt>
      <trkpt lat="42.96917" lon="0.30068">
        <ele>1607.3</ele>
        <time>2026-07-07T09:55:48Z</time>
      </trkpt>
      <trkpt lat="42.96917" lon="0.30069">
        <ele>1607.3</ele>
        <time>2026-07-07T09:55:48Z</time>
      </trkpt>
      <trkpt lat="42.96917" lon="0.30069">
        <ele>1607.3</ele>
        <time>2026-07-07T09:55:49Z</time>
      </trkpt>
      <trkpt lat="42.96917" lon="0.3007">
        <ele>1607.3</ele>
        <time>2026-07-07T09:55:50Z</time>
      </trkpt>
      <trkpt lat="42.96917" lon="0.3007">
        <ele>1607.3</ele>
        <time>2026-07-07T09:55:50Z</time>
      </trkpt>
      <trkpt lat="42.96917" lon="0.30071">
        <ele>1607.3</ele>
        <time>2026-07-07T09:55:51Z</time>
      </trkpt>
      <trkpt lat="42.96917" lon="0.30071">
        <ele>1607.3</ele>
        <time>2026-07-07T09:55:51Z</time>
      </trkpt>
      <trkpt lat="42.96917" lon="0.30072">
        <ele>1607.3</ele>
        <time>2026-07-07T09:55:52Z</time>
      </trkpt>
      <trkpt lat="42.96918" lon="0.30073">
        <ele>1607.3</ele>
        <time>2026-07-07T09:55:53Z</time>
      </trkpt>
      <trkpt lat="42.96918" lon="0.30073">
        <ele>1607.3</ele>
        <time>2026-07-07T09:55:54Z</time>
      </trkpt>
      <trkpt lat="42.96919" lon="0.30074">
        <ele>1607.3</ele>
        <time>2026-07-07T09:55:54Z</time>
      </trkpt>
      <trkpt lat="42.96919" lon="0.30075">
        <ele>1607.3</ele>
        <time>2026-07-07T09:55:55Z</time>
      </trkpt>
      <trkpt lat="42.9692" lon="0.30076">
        <ele>1607.3</ele>
        <time>2026-07-07T09:55:56Z</time>
      </trkpt>
      <trkpt lat="42.9692" lon="0.30077">
        <ele>1606.3</ele>
        <time>2026-07-07T09:55:56Z</time>
      </trkpt>
      <trkpt lat="42.9692" lon="0.30077">
        <ele>1606.3</ele>
        <time>2026-07-07T09:55:57Z</time>
      </trkpt>
      <trkpt lat="42.96921" lon="0.30078">
        <ele>1605.3</ele>
        <time>2026-07-07T09:55:57Z</time>
      </trkpt>
      <trkpt lat="42.96921" lon="0.30079">
        <ele>1605.3</ele>
        <time>2026-07-07T09:55:58Z</time>
      </trkpt>
      <trkpt lat="42.96921" lon="0.3008">
        <ele>1605.3</ele>
        <time>2026-07-07T09:55:59Z</time>
      </trkpt>
      <trkpt lat="42.96921" lon="0.3008">
        <ele>1604.3</ele>
        <time>2026-07-07T09:56:00Z</time>
      </trkpt>
      <trkpt lat="42.96922" lon="0.30081">
        <ele>1604.3</ele>
        <time>2026-07-07T09:56:01Z</time>
      </trkpt>
      <trkpt lat="42.96922" lon="0.30081">
        <ele>1604.3</ele>
        <time>2026-07-07T09:56:01Z</time>
      </trkpt>
      <trkpt lat="42.96922" lon="0.30082">
        <ele>1604.3</ele>
        <time>2026-07-07T09:56:02Z</time>
      </trkpt>
      <trkpt lat="42.96922" lon="0.30082">
        <ele>1604.3</ele>
        <time>2026-07-07T09:56:03Z</time>
      </trkpt>
      <trkpt lat="42.96921" lon="0.30083">
        <ele>1604.3</ele>
        <time>2026-07-07T09:56:03Z</time>
      </trkpt>
      <trkpt lat="42.96921" lon="0.30084">
        <ele>1604.3</ele>
        <time>2026-07-07T09:56:04Z</time>
      </trkpt>
      <trkpt lat="42.96921" lon="0.30085">
        <ele>1604.3</ele>
        <time>2026-07-07T09:56:05Z</time>
      </trkpt>
      <trkpt lat="42.9692" lon="0.30086">
        <ele>1604.3</ele>
        <time>2026-07-07T09:56:05Z</time>
      </trkpt>
      <trkpt lat="42.9692" lon="0.30086">
        <ele>1604.3</ele>
        <time>2026-07-07T09:56:06Z</time>
      </trkpt>
      <trkpt lat="42.9692" lon="0.30088">
        <ele>1604.3</ele>
        <time>2026-07-07T09:56:07Z</time>
      </trkpt>
      <trkpt lat="42.9692" lon="0.30088">
        <ele>1604.3</ele>
        <time>2026-07-07T09:56:07Z</time>
      </trkpt>
      <trkpt lat="42.9692" lon="0.30089">
        <ele>1604.3</ele>
        <time>2026-07-07T09:56:08Z</time>
      </trkpt>
      <trkpt lat="42.9692" lon="0.30089">
        <ele>1604.3</ele>
        <time>2026-07-07T09:56:08Z</time>
      </trkpt>
      <trkpt lat="42.96921" lon="0.3009">
        <ele>1604.3</ele>
        <time>2026-07-07T09:56:09Z</time>
      </trkpt>
      <trkpt lat="42.96921" lon="0.30091">
        <ele>1604.3</ele>
        <time>2026-07-07T09:56:10Z</time>
      </trkpt>
      <trkpt lat="42.96921" lon="0.30092">
        <ele>1604.3</ele>
        <time>2026-07-07T09:56:11Z</time>
      </trkpt>
      <trkpt lat="42.9692" lon="0.30093">
        <ele>1604.3</ele>
        <time>2026-07-07T09:56:12Z</time>
      </trkpt>
      <trkpt lat="42.9692" lon="0.30095">
        <ele>1603.3</ele>
        <time>2026-07-07T09:56:13Z</time>
      </trkpt>
      <trkpt lat="42.96919" lon="0.30095">
        <ele>1603.3</ele>
        <time>2026-07-07T09:56:14Z</time>
      </trkpt>
      <trkpt lat="42.96919" lon="0.30094">
        <ele>1603.3</ele>
        <time>2026-07-07T09:56:15Z</time>
      </trkpt>
      <trkpt lat="42.96918" lon="0.30095">
        <ele>1603.3</ele>
        <time>2026-07-07T09:56:15Z</time>
      </trkpt>
      <trkpt lat="42.96918" lon="0.30095">
        <ele>1603.3</ele>
        <time>2026-07-07T09:56:16Z</time>
      </trkpt>
      <trkpt lat="42.96917" lon="0.30096">
        <ele>1603.3</ele>
        <time>2026-07-07T09:56:17Z</time>
      </trkpt>
      <trkpt lat="42.96916" lon="0.30095">
        <ele>1603.3</ele>
        <time>2026-07-07T09:56:18Z</time>
      </trkpt>
      <trkpt lat="42.96916" lon="0.30094">
        <ele>1603.3</ele>
        <time>2026-07-07T09:56:19Z</time>
      </trkpt>
      <trkpt lat="42.96917" lon="0.30094">
        <ele>1603.3</ele>
        <time>2026-07-07T09:56:20Z</time>
      </trkpt>
      <trkpt lat="42.96917" lon="0.30093">
        <ele>1602.3</ele>
        <time>2026-07-07T09:56:21Z</time>
      </trkpt>
      <trkpt lat="42.96917" lon="0.30093">
        <ele>1604.3</ele>
        <time>2026-07-07T09:56:22Z</time>
      </trkpt>
      <trkpt lat="42.96917" lon="0.30093">
        <ele>1605.3</ele>
        <time>2026-07-07T09:56:23Z</time>
      </trkpt>
      <trkpt lat="42.96917" lon="0.30093">
        <ele>1605.3</ele>
        <time>2026-07-07T09:56:23Z</time>
      </trkpt>
      <trkpt lat="42.96917" lon="0.30093">
        <ele>1604.3</ele>
        <time>2026-07-07T09:56:24Z</time>
      </trkpt>
      <trkpt lat="42.96917" lon="0.30093">
        <ele>1604.3</ele>
        <time>2026-07-07T09:56:25Z</time>
      </trkpt>
      <trkpt lat="42.96918" lon="0.30093">
        <ele>1604.3</ele>
        <time>2026-07-07T09:56:26Z</time>
      </trkpt>
      <trkpt lat="42.96918" lon="0.30093">
        <ele>1604.3</ele>
        <time>2026-07-07T09:56:27Z</time>
      </trkpt>
      <trkpt lat="42.96918" lon="0.30092">
        <ele>1604.3</ele>
        <time>2026-07-07T09:56:28Z</time>
      </trkpt>
      <trkpt lat="42.96918" lon="0.30092">
        <ele>1604.3</ele>
        <time>2026-07-07T09:56:29Z</time>
      </trkpt>
      <trkpt lat="42.96918" lon="0.30093">
        <ele>1604.3</ele>
        <time>2026-07-07T09:56:29Z</time>
      </trkpt>
      <trkpt lat="42.96918" lon="0.30093">
        <ele>1604.3</ele>
        <time>2026-07-07T09:56:30Z</time>
      </trkpt>
      <trkpt lat="42.96919" lon="0.30093">
        <ele>1604.3</ele>
        <time>2026-07-07T09:56:31Z</time>
      </trkpt>
      <trkpt lat="42.96919" lon="0.30093">
        <ele>1604.3</ele>
        <time>2026-07-07T09:56:32Z</time>
      </trkpt>
      <trkpt lat="42.96919" lon="0.30093">
        <ele>1604.3</ele>
        <time>2026-07-07T09:56:33Z</time>
      </trkpt>
      <trkpt lat="42.96919" lon="0.30094">
        <ele>1604.3</ele>
        <time>2026-07-07T09:56:34Z</time>
      </trkpt>
      <trkpt lat="42.9692" lon="0.30094">
        <ele>1604.3</ele>
        <time>2026-07-07T09:56:35Z</time>
      </trkpt>
      <trkpt lat="42.9692" lon="0.30087">
        <ele>1603.3</ele>
        <time>2026-07-07T09:56:36Z</time>
      </trkpt>
      <trkpt lat="42.9692" lon="0.30088">
        <ele>1603.3</ele>
        <time>2026-07-07T09:56:37Z</time>
      </trkpt>
      <trkpt lat="42.9692" lon="0.30089">
        <ele>1603.3</ele>
        <time>2026-07-07T09:56:38Z</time>
      </trkpt>
      <trkpt lat="42.96921" lon="0.3009">
        <ele>1603.3</ele>
        <time>2026-07-07T09:56:39Z</time>
      </trkpt>
      <trkpt lat="42.96921" lon="0.30091">
        <ele>1603.3</ele>
        <time>2026-07-07T09:56:40Z</time>
      </trkpt>
      <trkpt lat="42.9692" lon="0.30091">
        <ele>1602.3</ele>
        <time>2026-07-07T09:56:41Z</time>
      </trkpt>
      <trkpt lat="42.9692" lon="0.30092">
        <ele>1602.3</ele>
        <time>2026-07-07T09:56:42Z</time>
      </trkpt>
      <trkpt lat="42.9692" lon="0.30092">
        <ele>1602.3</ele>
        <time>2026-07-07T09:56:43Z</time>
      </trkpt>
      <trkpt lat="42.96919" lon="0.30093">
        <ele>1601.3</ele>
        <time>2026-07-07T09:56:44Z</time>
      </trkpt>
      <trkpt lat="42.96919" lon="0.30093">
        <ele>1601.3</ele>
        <time>2026-07-07T09:56:45Z</time>
      </trkpt>
      <trkpt lat="42.96919" lon="0.30094">
        <ele>1601.3</ele>
        <time>2026-07-07T09:56:46Z</time>
      </trkpt>
      <trkpt lat="42.96919" lon="0.30094">
        <ele>1601.3</ele>
        <time>2026-07-07T09:56:47Z</time>
      </trkpt>
      <trkpt lat="42.9692" lon="0.30095">
        <ele>1601.3</ele>
        <time>2026-07-07T09:56:48Z</time>
      </trkpt>
      <trkpt lat="42.9692" lon="0.30097">
        <ele>1601.3</ele>
        <time>2026-07-07T09:56:49Z</time>
      </trkpt>
      <trkpt lat="42.96919" lon="0.30098">
        <ele>1600.3</ele>
        <time>2026-07-07T09:56:50Z</time>
      </trkpt>
      <trkpt lat="42.96919" lon="0.30098">
        <ele>1600.3</ele>
        <time>2026-07-07T09:56:51Z</time>
      </trkpt>
      <trkpt lat="42.96918" lon="0.301">
        <ele>1599.3</ele>
        <time>2026-07-07T09:56:52Z</time>
      </trkpt>
      <trkpt lat="42.96918" lon="0.301">
        <ele>1599.3</ele>
        <time>2026-07-07T09:56:53Z</time>
      </trkpt>
      <trkpt lat="42.96918" lon="0.301">
        <ele>1599.3</ele>
        <time>2026-07-07T09:56:54Z</time>
      </trkpt>
      <trkpt lat="42.96919" lon="0.30099">
        <ele>1599.3</ele>
        <time>2026-07-07T09:56:55Z</time>
      </trkpt>
      <trkpt lat="42.9692" lon="0.30099">
        <ele>1599.3</ele>
        <time>2026-07-07T09:56:56Z</time>
      </trkpt>
      <trkpt lat="42.96921" lon="0.30099">
        <ele>1599.3</ele>
        <time>2026-07-07T09:56:57Z</time>
      </trkpt>
      <trkpt lat="42.9692" lon="0.30099">
        <ele>1598.3</ele>
        <time>2026-07-07T09:56:58Z</time>
      </trkpt>
      <trkpt lat="42.96921" lon="0.301">
        <ele>1597.3</ele>
        <time>2026-07-07T09:56:59Z</time>
      </trkpt>
      <trkpt lat="42.96921" lon="0.301">
        <ele>1597.3</ele>
        <time>2026-07-07T09:57:00Z</time>
      </trkpt>
      <trkpt lat="42.96922" lon="0.30099">
        <ele>1595.3</ele>
        <time>2026-07-07T09:57:01Z</time>
      </trkpt>
      <trkpt lat="42.96922" lon="0.301">
        <ele>1595.3</ele>
        <time>2026-07-07T09:57:02Z</time>
      </trkpt>
      <trkpt lat="42.96922" lon="0.301">
        <ele>1594.3</ele>
        <time>2026-07-07T09:57:03Z</time>
      </trkpt>
      <trkpt lat="42.96922" lon="0.301">
        <ele>1594.3</ele>
        <time>2026-07-07T09:57:04Z</time>
      </trkpt>
      <trkpt lat="42.96922" lon="0.301">
        <ele>1594.3</ele>
        <time>2026-07-07T09:57:05Z</time>
      </trkpt>
      <trkpt lat="42.96922" lon="0.30101">
        <ele>1594.3</ele>
        <time>2026-07-07T09:57:06Z</time>
      </trkpt>
      <trkpt lat="42.96922" lon="0.30101">
        <ele>1594.3</ele>
        <time>2026-07-07T09:57:07Z</time>
      </trkpt>
      <trkpt lat="42.96923" lon="0.30102">
        <ele>1593.3</ele>
        <time>2026-07-07T09:57:08Z</time>
      </trkpt>
      <trkpt lat="42.96923" lon="0.30102">
        <ele>1593.3</ele>
        <time>2026-07-07T09:57:09Z</time>
      </trkpt>
      <trkpt lat="42.96923" lon="0.30103">
        <ele>1593.3</ele>
        <time>2026-07-07T09:57:10Z</time>
      </trkpt>
      <trkpt lat="42.96923" lon="0.30104">
        <ele>1593.3</ele>
        <time>2026-07-07T09:57:11Z</time>
      </trkpt>
      <trkpt lat="42.96923" lon="0.30104">
        <ele>1593.3</ele>
        <time>2026-07-07T09:57:12Z</time>
      </trkpt>
      <trkpt lat="42.96923" lon="0.30104">
        <ele>1593.3</ele>
        <time>2026-07-07T09:57:13Z</time>
      </trkpt>
      <trkpt lat="42.96923" lon="0.30106">
        <ele>1592.3</ele>
        <time>2026-07-07T09:57:14Z</time>
      </trkpt>
      <trkpt lat="42.96923" lon="0.30107">
        <ele>1592.3</ele>
        <time>2026-07-07T09:57:15Z</time>
      </trkpt>
      <trkpt lat="42.96923" lon="0.30107">
        <ele>1591.3</ele>
        <time>2026-07-07T09:57:16Z</time>
      </trkpt>
      <trkpt lat="42.96923" lon="0.30107">
        <ele>1591.3</ele>
        <time>2026-07-07T09:57:17Z</time>
      </trkpt>
      <trkpt lat="42.96923" lon="0.30107">
        <ele>1591.3</ele>
        <time>2026-07-07T09:57:18Z</time>
      </trkpt>
      <trkpt lat="42.96923" lon="0.30107">
        <ele>1591.3</ele>
        <time>2026-07-07T09:57:19Z</time>
      </trkpt>
      <trkpt lat="42.96923" lon="0.30107">
        <ele>1591.3</ele>
        <time>2026-07-07T09:57:20Z</time>
      </trkpt>
      <trkpt lat="42.96925" lon="0.30115">
        <ele>1591.3</ele>
        <time>2026-07-07T09:57:21Z</time>
      </trkpt>
      <trkpt lat="42.96925" lon="0.30117">
        <ele>1591.3</ele>
        <time>2026-07-07T09:57:22Z</time>
      </trkpt>
      <trkpt lat="42.96924" lon="0.30118">
        <ele>1591.3</ele>
        <time>2026-07-07T09:57:22Z</time>
      </trkpt>
      <trkpt lat="42.96924" lon="0.30119">
        <ele>1591.3</ele>
        <time>2026-07-07T09:57:23Z</time>
      </trkpt>
      <trkpt lat="42.96924" lon="0.3012">
        <ele>1591.3</ele>
        <time>2026-07-07T09:57:24Z</time>
      </trkpt>
      <trkpt lat="42.96924" lon="0.30121">
        <ele>1591.3</ele>
        <time>2026-07-07T09:57:25Z</time>
      </trkpt>
      <trkpt lat="42.96924" lon="0.30122">
        <ele>1591.3</ele>
        <time>2026-07-07T09:57:25Z</time>
      </trkpt>
      <trkpt lat="42.96924" lon="0.30122">
        <ele>1589.3</ele>
        <time>2026-07-07T09:57:26Z</time>
      </trkpt>
      <trkpt lat="42.96923" lon="0.30122">
        <ele>1589.3</ele>
        <time>2026-07-07T09:57:26Z</time>
      </trkpt>
      <trkpt lat="42.96923" lon="0.30122">
        <ele>1589.3</ele>
        <time>2026-07-07T09:57:27Z</time>
      </trkpt>
      <trkpt lat="42.96923" lon="0.30122">
        <ele>1588.3</ele>
        <time>2026-07-07T09:57:27Z</time>
      </trkpt>
      <trkpt lat="42.96922" lon="0.30123">
        <ele>1588.3</ele>
        <time>2026-07-07T09:57:28Z</time>
      </trkpt>
      <trkpt lat="42.96922" lon="0.30123">
        <ele>1588.3</ele>
        <time>2026-07-07T09:57:29Z</time>
      </trkpt>
      <trkpt lat="42.96921" lon="0.30122">
        <ele>1588.3</ele>
        <time>2026-07-07T09:57:29Z</time>
      </trkpt>
      <trkpt lat="42.9692" lon="0.30122">
        <ele>1588.3</ele>
        <time>2026-07-07T09:57:30Z</time>
      </trkpt>
      <trkpt lat="42.96919" lon="0.30122">
        <ele>1587.3</ele>
        <time>2026-07-07T09:57:30Z</time>
      </trkpt>
      <trkpt lat="42.96918" lon="0.30122">
        <ele>1586.3</ele>
        <time>2026-07-07T09:57:31Z</time>
      </trkpt>
      <trkpt lat="42.96918" lon="0.30122">
        <ele>1586.3</ele>
        <time>2026-07-07T09:57:32Z</time>
      </trkpt>
      <trkpt lat="42.96917" lon="0.30123">
        <ele>1587.3</ele>
        <time>2026-07-07T09:57:33Z</time>
      </trkpt>
      <trkpt lat="42.96917" lon="0.30123">
        <ele>1587.3</ele>
        <time>2026-07-07T09:57:33Z</time>
      </trkpt>
      <trkpt lat="42.96917" lon="0.30124">
        <ele>1586.3</ele>
        <time>2026-07-07T09:57:34Z</time>
      </trkpt>
      <trkpt lat="42.96917" lon="0.30124">
        <ele>1586.3</ele>
        <time>2026-07-07T09:57:34Z</time>
      </trkpt>
      <trkpt lat="42.96916" lon="0.30124">
        <ele>1586.3</ele>
        <time>2026-07-07T09:57:35Z</time>
      </trkpt>
      <trkpt lat="42.96916" lon="0.30124">
        <ele>1585.3</ele>
        <time>2026-07-07T09:57:36Z</time>
      </trkpt>
      <trkpt lat="42.96915" lon="0.30124">
        <ele>1585.3</ele>
        <time>2026-07-07T09:57:36Z</time>
      </trkpt>
      <trkpt lat="42.96915" lon="0.30124">
        <ele>1586.3</ele>
        <time>2026-07-07T09:57:37Z</time>
      </trkpt>
      <trkpt lat="42.96915" lon="0.30125">
        <ele>1586.3</ele>
        <time>2026-07-07T09:57:37Z</time>
      </trkpt>
      <trkpt lat="42.96915" lon="0.30126">
        <ele>1586.3</ele>
        <time>2026-07-07T09:57:38Z</time>
      </trkpt>
      <trkpt lat="42.96914" lon="0.30126">
        <ele>1585.3</ele>
        <time>2026-07-07T09:57:38Z</time>
      </trkpt>
      <trkpt lat="42.96914" lon="0.30126">
        <ele>1585.3</ele>
        <time>2026-07-07T09:57:39Z</time>
      </trkpt>
      <trkpt lat="42.96914" lon="0.30127">
        <ele>1585.3</ele>
        <time>2026-07-07T09:57:40Z</time>
      </trkpt>
      <trkpt lat="42.96913" lon="0.30128">
        <ele>1585.3</ele>
        <time>2026-07-07T09:57:40Z</time>
      </trkpt>
      <trkpt lat="42.96913" lon="0.30128">
        <ele>1585.3</ele>
        <time>2026-07-07T09:57:41Z</time>
      </trkpt>
      <trkpt lat="42.96912" lon="0.30129">
        <ele>1585.3</ele>
        <time>2026-07-07T09:57:41Z</time>
      </trkpt>
      <trkpt lat="42.96912" lon="0.3013">
        <ele>1584.3</ele>
        <time>2026-07-07T09:57:42Z</time>
      </trkpt>
      <trkpt lat="42.96912" lon="0.3013">
        <ele>1584.3</ele>
        <time>2026-07-07T09:57:43Z</time>
      </trkpt>
      <trkpt lat="42.96911" lon="0.30131">
        <ele>1584.3</ele>
        <time>2026-07-07T09:57:43Z</time>
      </trkpt>
      <trkpt lat="42.96911" lon="0.30131">
        <ele>1584.3</ele>
        <time>2026-07-07T09:57:44Z</time>
      </trkpt>
      <trkpt lat="42.96911" lon="0.30131">
        <ele>1584.3</ele>
        <time>2026-07-07T09:57:44Z</time>
      </trkpt>
      <trkpt lat="42.9691" lon="0.30132">
        <ele>1584.3</ele>
        <time>2026-07-07T09:57:45Z</time>
      </trkpt>
      <trkpt lat="42.9691" lon="0.30132">
        <ele>1584.3</ele>
        <time>2026-07-07T09:57:46Z</time>
      </trkpt>
      <trkpt lat="42.96909" lon="0.30132">
        <ele>1584.3</ele>
        <time>2026-07-07T09:57:46Z</time>
      </trkpt>
      <trkpt lat="42.96909" lon="0.30133">
        <ele>1584.3</ele>
        <time>2026-07-07T09:57:47Z</time>
      </trkpt>
      <trkpt lat="42.96908" lon="0.30134">
        <ele>1584.3</ele>
        <time>2026-07-07T09:57:48Z</time>
      </trkpt>
      <trkpt lat="42.96908" lon="0.30134">
        <ele>1584.3</ele>
        <time>2026-07-07T09:57:48Z</time>
      </trkpt>
      <trkpt lat="42.96908" lon="0.30134">
        <ele>1584.3</ele>
        <time>2026-07-07T09:57:49Z</time>
      </trkpt>
      <trkpt lat="42.96907" lon="0.30135">
        <ele>1583.3</ele>
        <time>2026-07-07T09:57:49Z</time>
      </trkpt>
      <trkpt lat="42.96907" lon="0.30135">
        <ele>1583.3</ele>
        <time>2026-07-07T09:57:50Z</time>
      </trkpt>
      <trkpt lat="42.96906" lon="0.30135">
        <ele>1583.3</ele>
        <time>2026-07-07T09:57:51Z</time>
      </trkpt>
      <trkpt lat="42.96906" lon="0.30135">
        <ele>1583.3</ele>
        <time>2026-07-07T09:57:51Z</time>
      </trkpt>
      <trkpt lat="42.96905" lon="0.30136">
        <ele>1583.3</ele>
        <time>2026-07-07T09:57:52Z</time>
      </trkpt>
      <trkpt lat="42.96905" lon="0.30136">
        <ele>1583.3</ele>
        <time>2026-07-07T09:57:52Z</time>
      </trkpt>
      <trkpt lat="42.96905" lon="0.30136">
        <ele>1583.3</ele>
        <time>2026-07-07T09:57:53Z</time>
      </trkpt>
      <trkpt lat="42.96904" lon="0.30136">
        <ele>1583.3</ele>
        <time>2026-07-07T09:57:53Z</time>
      </trkpt>
      <trkpt lat="42.96904" lon="0.30136">
        <ele>1583.3</ele>
        <time>2026-07-07T09:57:54Z</time>
      </trkpt>
      <trkpt lat="42.96903" lon="0.30137">
        <ele>1583.3</ele>
        <time>2026-07-07T09:57:55Z</time>
      </trkpt>
      <trkpt lat="42.96903" lon="0.30137">
        <ele>1582.3</ele>
        <time>2026-07-07T09:57:56Z</time>
      </trkpt>
      <trkpt lat="42.96903" lon="0.30137">
        <ele>1582.3</ele>
        <time>2026-07-07T09:57:57Z</time>
      </trkpt>
      <trkpt lat="42.96903" lon="0.30138">
        <ele>1581.3</ele>
        <time>2026-07-07T09:57:57Z</time>
      </trkpt>
      <trkpt lat="42.96903" lon="0.30138">
        <ele>1581.3</ele>
        <time>2026-07-07T09:57:58Z</time>
      </trkpt>
      <trkpt lat="42.96902" lon="0.30138">
        <ele>1581.3</ele>
        <time>2026-07-07T09:57:59Z</time>
      </trkpt>
      <trkpt lat="42.96902" lon="0.30138">
        <ele>1580.3</ele>
        <time>2026-07-07T09:58:00Z</time>
      </trkpt>
      <trkpt lat="42.96902" lon="0.30139">
        <ele>1579.3</ele>
        <time>2026-07-07T09:58:00Z</time>
      </trkpt>
      <trkpt lat="42.96901" lon="0.30139">
        <ele>1578.3</ele>
        <time>2026-07-07T09:58:01Z</time>
      </trkpt>
      <trkpt lat="42.96901" lon="0.30139">
        <ele>1578.3</ele>
        <time>2026-07-07T09:58:02Z</time>
      </trkpt>
      <trkpt lat="42.969" lon="0.30139">
        <ele>1577.3</ele>
        <time>2026-07-07T09:58:02Z</time>
      </trkpt>
      <trkpt lat="42.96899" lon="0.3014">
        <ele>1578.3</ele>
        <time>2026-07-07T09:58:03Z</time>
      </trkpt>
      <trkpt lat="42.96899" lon="0.3014">
        <ele>1578.3</ele>
        <time>2026-07-07T09:58:04Z</time>
      </trkpt>
      <trkpt lat="42.96898" lon="0.3014">
        <ele>1577.3</ele>
        <time>2026-07-07T09:58:05Z</time>
      </trkpt>
      <trkpt lat="42.96897" lon="0.30139">
        <ele>1577.3</ele>
        <time>2026-07-07T09:58:06Z</time>
      </trkpt>
      <trkpt lat="42.96897" lon="0.30139">
        <ele>1577.3</ele>
        <time>2026-07-07T09:58:07Z</time>
      </trkpt>
      <trkpt lat="42.96897" lon="0.3014">
        <ele>1577.3</ele>
        <time>2026-07-07T09:58:07Z</time>
      </trkpt>
      <trkpt lat="42.96897" lon="0.30139">
        <ele>1577.3</ele>
        <time>2026-07-07T09:58:08Z</time>
      </trkpt>
      <trkpt lat="42.96896" lon="0.30139">
        <ele>1576.3</ele>
        <time>2026-07-07T09:58:09Z</time>
      </trkpt>
      <trkpt lat="42.96897" lon="0.30138">
        <ele>1576.3</ele>
        <time>2026-07-07T09:58:10Z</time>
      </trkpt>
      <trkpt lat="42.96897" lon="0.30137">
        <ele>1576.3</ele>
        <time>2026-07-07T09:58:11Z</time>
      </trkpt>
      <trkpt lat="42.96897" lon="0.30137">
        <ele>1576.3</ele>
        <time>2026-07-07T09:58:12Z</time>
      </trkpt>
      <trkpt lat="42.96897" lon="0.30137">
        <ele>1576.3</ele>
        <time>2026-07-07T09:58:12Z</time>
      </trkpt>
      <trkpt lat="42.96896" lon="0.30138">
        <ele>1576.3</ele>
        <time>2026-07-07T09:58:13Z</time>
      </trkpt>
      <trkpt lat="42.96896" lon="0.30138">
        <ele>1576.3</ele>
        <time>2026-07-07T09:58:14Z</time>
      </trkpt>
      <trkpt lat="42.96896" lon="0.30139">
        <ele>1576.3</ele>
        <time>2026-07-07T09:58:15Z</time>
      </trkpt>
      <trkpt lat="42.96896" lon="0.30138">
        <ele>1575.3</ele>
        <time>2026-07-07T09:58:16Z</time>
      </trkpt>
      <trkpt lat="42.96896" lon="0.30138">
        <ele>1575.3</ele>
        <time>2026-07-07T09:58:17Z</time>
      </trkpt>
      <trkpt lat="42.96896" lon="0.30138">
        <ele>1575.3</ele>
        <time>2026-07-07T09:58:18Z</time>
      </trkpt>
      <trkpt lat="42.96897" lon="0.30137">
        <ele>1575.3</ele>
        <time>2026-07-07T09:58:19Z</time>
      </trkpt>
      <trkpt lat="42.96896" lon="0.30137">
        <ele>1575.3</ele>
        <time>2026-07-07T09:58:19Z</time>
      </trkpt>
      <trkpt lat="42.96896" lon="0.30137">
        <ele>1575.3</ele>
        <time>2026-07-07T09:58:20Z</time>
      </trkpt>
      <trkpt lat="42.96895" lon="0.30138">
        <ele>1575.3</ele>
        <time>2026-07-07T09:58:21Z</time>
      </trkpt>
      <trkpt lat="42.96895" lon="0.30137">
        <ele>1574.3</ele>
        <time>2026-07-07T09:58:22Z</time>
      </trkpt>
      <trkpt lat="42.96894" lon="0.30137">
        <ele>1574.3</ele>
        <time>2026-07-07T09:58:22Z</time>
      </trkpt>
      <trkpt lat="42.96894" lon="0.30137">
        <ele>1574.3</ele>
        <time>2026-07-07T09:58:23Z</time>
      </trkpt>
      <trkpt lat="42.96893" lon="0.30137">
        <ele>1573.3</ele>
        <time>2026-07-07T09:58:24Z</time>
      </trkpt>
      <trkpt lat="42.96893" lon="0.30137">
        <ele>1573.3</ele>
        <time>2026-07-07T09:58:24Z</time>
      </trkpt>
      <trkpt lat="42.96893" lon="0.30136">
        <ele>1573.3</ele>
        <time>2026-07-07T09:58:25Z</time>
      </trkpt>
      <trkpt lat="42.96893" lon="0.30135">
        <ele>1573.3</ele>
        <time>2026-07-07T09:58:26Z</time>
      </trkpt>
      <trkpt lat="42.96894" lon="0.30134">
        <ele>1572.3</ele>
        <time>2026-07-07T09:58:26Z</time>
      </trkpt>
      <trkpt lat="42.96894" lon="0.30134">
        <ele>1572.3</ele>
        <time>2026-07-07T09:58:27Z</time>
      </trkpt>
      <trkpt lat="42.96893" lon="0.30133">
        <ele>1572.3</ele>
        <time>2026-07-07T09:58:28Z</time>
      </trkpt>
      <trkpt lat="42.96893" lon="0.30133">
        <ele>1572.3</ele>
        <time>2026-07-07T09:58:29Z</time>
      </trkpt>
      <trkpt lat="42.96893" lon="0.30132">
        <ele>1572.3</ele>
        <time>2026-07-07T09:58:30Z</time>
      </trkpt>
      <trkpt lat="42.96893" lon="0.30131">
        <ele>1571.3</ele>
        <time>2026-07-07T09:58:31Z</time>
      </trkpt>
      <trkpt lat="42.96893" lon="0.30131">
        <ele>1571.3</ele>
        <time>2026-07-07T09:58:31Z</time>
      </trkpt>
      <trkpt lat="42.96893" lon="0.30131">
        <ele>1571.3</ele>
        <time>2026-07-07T09:58:32Z</time>
      </trkpt>
      <trkpt lat="42.96893" lon="0.30131">
        <ele>1571.3</ele>
        <time>2026-07-07T09:58:32Z</time>
      </trkpt>
      <trkpt lat="42.96893" lon="0.30131">
        <ele>1570.3</ele>
        <time>2026-07-07T09:58:33Z</time>
      </trkpt>
      <trkpt lat="42.96892" lon="0.30131">
        <ele>1569.3</ele>
        <time>2026-07-07T09:58:34Z</time>
      </trkpt>
      <trkpt lat="42.96892" lon="0.30131">
        <ele>1569.3</ele>
        <time>2026-07-07T09:58:34Z</time>
      </trkpt>
      <trkpt lat="42.96891" lon="0.30131">
        <ele>1569.3</ele>
        <time>2026-07-07T09:58:35Z</time>
      </trkpt>
      <trkpt lat="42.96891" lon="0.30131">
        <ele>1569.3</ele>
        <time>2026-07-07T09:58:36Z</time>
      </trkpt>
      <trkpt lat="42.9689" lon="0.30131">
        <ele>1569.3</ele>
        <time>2026-07-07T09:58:36Z</time>
      </trkpt>
      <trkpt lat="42.9689" lon="0.30132">
        <ele>1569.3</ele>
        <time>2026-07-07T09:58:37Z</time>
      </trkpt>
      <trkpt lat="42.96889" lon="0.30133">
        <ele>1569.3</ele>
        <time>2026-07-07T09:58:37Z</time>
      </trkpt>
      <trkpt lat="42.96889" lon="0.30133">
        <ele>1569.3</ele>
        <time>2026-07-07T09:58:38Z</time>
      </trkpt>
      <trkpt lat="42.96888" lon="0.30134">
        <ele>1569.3</ele>
        <time>2026-07-07T09:58:39Z</time>
      </trkpt>
      <trkpt lat="42.96888" lon="0.30134">
        <ele>1569.3</ele>
        <time>2026-07-07T09:58:39Z</time>
      </trkpt>
      <trkpt lat="42.96887" lon="0.30134">
        <ele>1569.3</ele>
        <time>2026-07-07T09:58:40Z</time>
      </trkpt>
      <trkpt lat="42.96887" lon="0.30135">
        <ele>1569.3</ele>
        <time>2026-07-07T09:58:41Z</time>
      </trkpt>
      <trkpt lat="42.96887" lon="0.30135">
        <ele>1568.3</ele>
        <time>2026-07-07T09:58:41Z</time>
      </trkpt>
      <trkpt lat="42.96886" lon="0.30136">
        <ele>1568.3</ele>
        <time>2026-07-07T09:58:42Z</time>
      </trkpt>
      <trkpt lat="42.96886" lon="0.30138">
        <ele>1568.3</ele>
        <time>2026-07-07T09:58:43Z</time>
      </trkpt>
      <trkpt lat="42.96886" lon="0.30139">
        <ele>1567.3</ele>
        <time>2026-07-07T09:58:44Z</time>
      </trkpt>
      <trkpt lat="42.96885" lon="0.30139">
        <ele>1567.3</ele>
        <time>2026-07-07T09:58:44Z</time>
      </trkpt>
      <trkpt lat="42.96885" lon="0.30141">
        <ele>1568.3</ele>
        <time>2026-07-07T09:58:45Z</time>
      </trkpt>
      <trkpt lat="42.96885" lon="0.30142">
        <ele>1567.3</ele>
        <time>2026-07-07T09:58:46Z</time>
      </trkpt>
      <trkpt lat="42.96885" lon="0.30143">
        <ele>1567.3</ele>
        <time>2026-07-07T09:58:46Z</time>
      </trkpt>
      <trkpt lat="42.96885" lon="0.30143">
        <ele>1567.3</ele>
        <time>2026-07-07T09:58:47Z</time>
      </trkpt>
      <trkpt lat="42.96885" lon="0.30144">
        <ele>1567.3</ele>
        <time>2026-07-07T09:58:47Z</time>
      </trkpt>
      <trkpt lat="42.96885" lon="0.30145">
        <ele>1567.3</ele>
        <time>2026-07-07T09:58:48Z</time>
      </trkpt>
      <trkpt lat="42.96885" lon="0.30145">
        <ele>1566.3</ele>
        <time>2026-07-07T09:58:49Z</time>
      </trkpt>
      <trkpt lat="42.96885" lon="0.30146">
        <ele>1565.3</ele>
        <time>2026-07-07T09:58:49Z</time>
      </trkpt>
      <trkpt lat="42.96885" lon="0.30147">
        <ele>1565.3</ele>
        <time>2026-07-07T09:58:50Z</time>
      </trkpt>
      <trkpt lat="42.96885" lon="0.30148">
        <ele>1565.3</ele>
        <time>2026-07-07T09:58:51Z</time>
      </trkpt>
      <trkpt lat="42.96885" lon="0.30149">
        <ele>1566.3</ele>
        <time>2026-07-07T09:58:52Z</time>
      </trkpt>
      <trkpt lat="42.96885" lon="0.3015">
        <ele>1566.3</ele>
        <time>2026-07-07T09:58:52Z</time>
      </trkpt>
      <trkpt lat="42.96885" lon="0.30151">
        <ele>1566.3</ele>
        <time>2026-07-07T09:58:53Z</time>
      </trkpt>
      <trkpt lat="42.96885" lon="0.30152">
        <ele>1565.3</ele>
        <time>2026-07-07T09:58:54Z</time>
      </trkpt>
      <trkpt lat="42.96885" lon="0.30152">
        <ele>1565.3</ele>
        <time>2026-07-07T09:58:54Z</time>
      </trkpt>
      <trkpt lat="42.96885" lon="0.30153">
        <ele>1566.3</ele>
        <time>2026-07-07T09:58:55Z</time>
      </trkpt>
      <trkpt lat="42.96885" lon="0.30154">
        <ele>1566.3</ele>
        <time>2026-07-07T09:58:56Z</time>
      </trkpt>
      <trkpt lat="42.96886" lon="0.30154">
        <ele>1566.3</ele>
        <time>2026-07-07T09:58:56Z</time>
      </trkpt>
      <trkpt lat="42.96886" lon="0.30155">
        <ele>1566.3</ele>
        <time>2026-07-07T09:58:57Z</time>
      </trkpt>
      <trkpt lat="42.96886" lon="0.30156">
        <ele>1566.3</ele>
        <time>2026-07-07T09:58:58Z</time>
      </trkpt>
      <trkpt lat="42.96886" lon="0.30157">
        <ele>1566.3</ele>
        <time>2026-07-07T09:58:59Z</time>
      </trkpt>
      <trkpt lat="42.96886" lon="0.30157">
        <ele>1566.3</ele>
        <time>2026-07-07T09:58:59Z</time>
      </trkpt>
      <trkpt lat="42.96886" lon="0.30158">
        <ele>1566.3</ele>
        <time>2026-07-07T09:59:00Z</time>
      </trkpt>
      <trkpt lat="42.96886" lon="0.30159">
        <ele>1566.3</ele>
        <time>2026-07-07T09:59:00Z</time>
      </trkpt>
      <trkpt lat="42.96886" lon="0.3016">
        <ele>1566.3</ele>
        <time>2026-07-07T09:59:01Z</time>
      </trkpt>
      <trkpt lat="42.96886" lon="0.3016">
        <ele>1565.3</ele>
        <time>2026-07-07T09:59:02Z</time>
      </trkpt>
      <trkpt lat="42.96886" lon="0.30161">
        <ele>1565.3</ele>
        <time>2026-07-07T09:59:02Z</time>
      </trkpt>
      <trkpt lat="42.96886" lon="0.30163">
        <ele>1566.3</ele>
        <time>2026-07-07T09:59:03Z</time>
      </trkpt>
      <trkpt lat="42.96885" lon="0.30164">
        <ele>1566.3</ele>
        <time>2026-07-07T09:59:04Z</time>
      </trkpt>
      <trkpt lat="42.96885" lon="0.30164">
        <ele>1566.3</ele>
        <time>2026-07-07T09:59:04Z</time>
      </trkpt>
      <trkpt lat="42.96885" lon="0.30165">
        <ele>1566.3</ele>
        <time>2026-07-07T09:59:05Z</time>
      </trkpt>
      <trkpt lat="42.96884" lon="0.30165">
        <ele>1565.3</ele>
        <time>2026-07-07T09:59:05Z</time>
      </trkpt>
      <trkpt lat="42.96884" lon="0.30166">
        <ele>1565.3</ele>
        <time>2026-07-07T09:59:06Z</time>
      </trkpt>
      <trkpt lat="42.96883" lon="0.30167">
        <ele>1566.3</ele>
        <time>2026-07-07T09:59:07Z</time>
      </trkpt>
      <trkpt lat="42.96883" lon="0.30169">
        <ele>1566.3</ele>
        <time>2026-07-07T09:59:08Z</time>
      </trkpt>
      <trkpt lat="42.96883" lon="0.30169">
        <ele>1565.3</ele>
        <time>2026-07-07T09:59:09Z</time>
      </trkpt>
      <trkpt lat="42.96883" lon="0.3017">
        <ele>1564.3</ele>
        <time>2026-07-07T09:59:10Z</time>
      </trkpt>
      <trkpt lat="42.96883" lon="0.30171">
        <ele>1564.3</ele>
        <time>2026-07-07T09:59:10Z</time>
      </trkpt>
      <trkpt lat="42.96883" lon="0.30171">
        <ele>1564.3</ele>
        <time>2026-07-07T09:59:11Z</time>
      </trkpt>
      <trkpt lat="42.96882" lon="0.30172">
        <ele>1563.3</ele>
        <time>2026-07-07T09:59:11Z</time>
      </trkpt>
      <trkpt lat="42.96882" lon="0.30172">
        <ele>1563.3</ele>
        <time>2026-07-07T09:59:12Z</time>
      </trkpt>
      <trkpt lat="42.96882" lon="0.30172">
        <ele>1564.3</ele>
        <time>2026-07-07T09:59:12Z</time>
      </trkpt>
      <trkpt lat="42.96883" lon="0.30173">
        <ele>1564.3</ele>
        <time>2026-07-07T09:59:13Z</time>
      </trkpt>
      <trkpt lat="42.96882" lon="0.30172">
        <ele>1564.3</ele>
        <time>2026-07-07T09:59:13Z</time>
      </trkpt>
      <trkpt lat="42.96883" lon="0.30172">
        <ele>1564.3</ele>
        <time>2026-07-07T09:59:14Z</time>
      </trkpt>
      <trkpt lat="42.96882" lon="0.30172">
        <ele>1565.3</ele>
        <time>2026-07-07T09:59:15Z</time>
      </trkpt>
      <trkpt lat="42.96882" lon="0.30172">
        <ele>1563.3</ele>
        <time>2026-07-07T09:59:16Z</time>
      </trkpt>
      <trkpt lat="42.96882" lon="0.30173">
        <ele>1563.3</ele>
        <time>2026-07-07T09:59:16Z</time>
      </trkpt>
      <trkpt lat="42.96882" lon="0.30174">
        <ele>1563.3</ele>
        <time>2026-07-07T09:59:17Z</time>
      </trkpt>
      <trkpt lat="42.96882" lon="0.30174">
        <ele>1563.3</ele>
        <time>2026-07-07T09:59:17Z</time>
      </trkpt>
      <trkpt lat="42.96882" lon="0.30175">
        <ele>1563.3</ele>
        <time>2026-07-07T09:59:18Z</time>
      </trkpt>
      <trkpt lat="42.96882" lon="0.30176">
        <ele>1563.3</ele>
        <time>2026-07-07T09:59:19Z</time>
      </trkpt>
      <trkpt lat="42.96882" lon="0.30177">
        <ele>1562.3</ele>
        <time>2026-07-07T09:59:19Z</time>
      </trkpt>
      <trkpt lat="42.96882" lon="0.30177">
        <ele>1562.3</ele>
        <time>2026-07-07T09:59:20Z</time>
      </trkpt>
      <trkpt lat="42.96882" lon="0.30177">
        <ele>1561.3</ele>
        <time>2026-07-07T09:59:20Z</time>
      </trkpt>
      <trkpt lat="42.96882" lon="0.30178">
        <ele>1561.3</ele>
        <time>2026-07-07T09:59:21Z</time>
      </trkpt>
      <trkpt lat="42.96882" lon="0.30178">
        <ele>1561.3</ele>
        <time>2026-07-07T09:59:21Z</time>
      </trkpt>
      <trkpt lat="42.96881" lon="0.30179">
        <ele>1561.3</ele>
        <time>2026-07-07T09:59:22Z</time>
      </trkpt>
      <trkpt lat="42.9688" lon="0.30179">
        <ele>1561.3</ele>
        <time>2026-07-07T09:59:23Z</time>
      </trkpt>
      <trkpt lat="42.96879" lon="0.30179">
        <ele>1561.3</ele>
        <time>2026-07-07T09:59:24Z</time>
      </trkpt>
      <trkpt lat="42.96878" lon="0.30179">
        <ele>1561.3</ele>
        <time>2026-07-07T09:59:25Z</time>
      </trkpt>
      <trkpt lat="42.96878" lon="0.30179">
        <ele>1562.3</ele>
        <time>2026-07-07T09:59:25Z</time>
      </trkpt>
      <trkpt lat="42.96877" lon="0.30179">
        <ele>1562.3</ele>
        <time>2026-07-07T09:59:26Z</time>
      </trkpt>
      <trkpt lat="42.96876" lon="0.30179">
        <ele>1562.3</ele>
        <time>2026-07-07T09:59:27Z</time>
      </trkpt>
      <trkpt lat="42.96876" lon="0.30179">
        <ele>1561.3</ele>
        <time>2026-07-07T09:59:27Z</time>
      </trkpt>
      <trkpt lat="42.96875" lon="0.3018">
        <ele>1561.3</ele>
        <time>2026-07-07T09:59:28Z</time>
      </trkpt>
      <trkpt lat="42.96875" lon="0.3018">
        <ele>1561.3</ele>
        <time>2026-07-07T09:59:29Z</time>
      </trkpt>
      <trkpt lat="42.96875" lon="0.30181">
        <ele>1560.3</ele>
        <time>2026-07-07T09:59:29Z</time>
      </trkpt>
      <trkpt lat="42.96875" lon="0.30181">
        <ele>1560.3</ele>
        <time>2026-07-07T09:59:30Z</time>
      </trkpt>
      <trkpt lat="42.96875" lon="0.30182">
        <ele>1560.3</ele>
        <time>2026-07-07T09:59:30Z</time>
      </trkpt>
      <trkpt lat="42.96875" lon="0.30183">
        <ele>1560.3</ele>
        <time>2026-07-07T09:59:31Z</time>
      </trkpt>
      <trkpt lat="42.96875" lon="0.30183">
        <ele>1560.3</ele>
        <time>2026-07-07T09:59:31Z</time>
      </trkpt>
      <trkpt lat="42.96875" lon="0.30184">
        <ele>1560.3</ele>
        <time>2026-07-07T09:59:32Z</time>
      </trkpt>
      <trkpt lat="42.96875" lon="0.30185">
        <ele>1560.3</ele>
        <time>2026-07-07T09:59:32Z</time>
      </trkpt>
      <trkpt lat="42.96875" lon="0.30186">
        <ele>1560.3</ele>
        <time>2026-07-07T09:59:33Z</time>
      </trkpt>
      <trkpt lat="42.96875" lon="0.30187">
        <ele>1559.3</ele>
        <time>2026-07-07T09:59:33Z</time>
      </trkpt>
      <trkpt lat="42.96875" lon="0.30187">
        <ele>1559.3</ele>
        <time>2026-07-07T09:59:34Z</time>
      </trkpt>
      <trkpt lat="42.96874" lon="0.30188">
        <ele>1559.3</ele>
        <time>2026-07-07T09:59:35Z</time>
      </trkpt>
      <trkpt lat="42.96874" lon="0.30189">
        <ele>1558.3</ele>
        <time>2026-07-07T09:59:35Z</time>
      </trkpt>
      <trkpt lat="42.96874" lon="0.3019">
        <ele>1558.3</ele>
        <time>2026-07-07T09:59:36Z</time>
      </trkpt>
      <trkpt lat="42.96875" lon="0.30191">
        <ele>1558.3</ele>
        <time>2026-07-07T09:59:37Z</time>
      </trkpt>
      <trkpt lat="42.96876" lon="0.30192">
        <ele>1559.3</ele>
        <time>2026-07-07T09:59:38Z</time>
      </trkpt>
      <trkpt lat="42.96876" lon="0.30192">
        <ele>1559.3</ele>
        <time>2026-07-07T09:59:39Z</time>
      </trkpt>
      <trkpt lat="42.96876" lon="0.30192">
        <ele>1559.3</ele>
        <time>2026-07-07T09:59:40Z</time>
      </trkpt>
      <trkpt lat="42.96876" lon="0.30192">
        <ele>1560.3</ele>
        <time>2026-07-07T09:59:40Z</time>
      </trkpt>
      <trkpt lat="42.96875" lon="0.30192">
        <ele>1559.3</ele>
        <time>2026-07-07T09:59:41Z</time>
      </trkpt>
      <trkpt lat="42.96875" lon="0.30192">
        <ele>1559.3</ele>
        <time>2026-07-07T09:59:42Z</time>
      </trkpt>
      <trkpt lat="42.96875" lon="0.30191">
        <ele>1559.3</ele>
        <time>2026-07-07T09:59:43Z</time>
      </trkpt>
      <trkpt lat="42.96874" lon="0.30191">
        <ele>1559.3</ele>
        <time>2026-07-07T09:59:43Z</time>
      </trkpt>
      <trkpt lat="42.96873" lon="0.30191">
        <ele>1559.3</ele>
        <time>2026-07-07T09:59:44Z</time>
      </trkpt>
      <trkpt lat="42.96873" lon="0.30191">
        <ele>1559.3</ele>
        <time>2026-07-07T09:59:45Z</time>
      </trkpt>
      <trkpt lat="42.96872" lon="0.30191">
        <ele>1559.3</ele>
        <time>2026-07-07T09:59:46Z</time>
      </trkpt>
      <trkpt lat="42.96872" lon="0.30191">
        <ele>1559.3</ele>
        <time>2026-07-07T09:59:46Z</time>
      </trkpt>
      <trkpt lat="42.96872" lon="0.3019">
        <ele>1559.3</ele>
        <time>2026-07-07T09:59:47Z</time>
      </trkpt>
      <trkpt lat="42.96871" lon="0.3019">
        <ele>1559.3</ele>
        <time>2026-07-07T09:59:48Z</time>
      </trkpt>
      <trkpt lat="42.96871" lon="0.3019">
        <ele>1559.3</ele>
        <time>2026-07-07T09:59:49Z</time>
      </trkpt>
      <trkpt lat="42.96872" lon="0.3019">
        <ele>1559.3</ele>
        <time>2026-07-07T09:59:50Z</time>
      </trkpt>
      <trkpt lat="42.96872" lon="0.30189">
        <ele>1559.3</ele>
        <time>2026-07-07T09:59:50Z</time>
      </trkpt>
      <trkpt lat="42.96872" lon="0.30189">
        <ele>1556.3</ele>
        <time>2026-07-07T09:59:51Z</time>
      </trkpt>
      <trkpt lat="42.96873" lon="0.30189">
        <ele>1557.3</ele>
        <time>2026-07-07T09:59:52Z</time>
      </trkpt>
      <trkpt lat="42.96873" lon="0.30189">
        <ele>1557.3</ele>
        <time>2026-07-07T09:59:53Z</time>
      </trkpt>
      <trkpt lat="42.96874" lon="0.30188">
        <ele>1557.3</ele>
        <time>2026-07-07T09:59:54Z</time>
      </trkpt>
      <trkpt lat="42.96874" lon="0.30187">
        <ele>1557.3</ele>
        <time>2026-07-07T09:59:55Z</time>
      </trkpt>
      <trkpt lat="42.96875" lon="0.30187">
        <ele>1557.3</ele>
        <time>2026-07-07T09:59:56Z</time>
      </trkpt>
      <trkpt lat="42.96875" lon="0.30187">
        <ele>1557.3</ele>
        <time>2026-07-07T09:59:57Z</time>
      </trkpt>
      <trkpt lat="42.96875" lon="0.30186">
        <ele>1557.3</ele>
        <time>2026-07-07T09:59:58Z</time>
      </trkpt>
      <trkpt lat="42.96875" lon="0.30186">
        <ele>1557.3</ele>
        <time>2026-07-07T09:59:59Z</time>
      </trkpt>
      <trkpt lat="42.96875" lon="0.30186">
        <ele>1557.3</ele>
        <time>2026-07-07T10:00:00Z</time>
      </trkpt>
      <trkpt lat="42.96875" lon="0.30186">
        <ele>1557.3</ele>
        <time>2026-07-07T10:00:01Z</time>
      </trkpt>
      <trkpt lat="42.96876" lon="0.30186">
        <ele>1557.3</ele>
        <time>2026-07-07T10:00:02Z</time>
      </trkpt>
      <trkpt lat="42.96876" lon="0.30186">
        <ele>1557.3</ele>
        <time>2026-07-07T10:00:03Z</time>
      </trkpt>
      <trkpt lat="42.96876" lon="0.30186">
        <ele>1557.3</ele>
        <time>2026-07-07T10:00:04Z</time>
      </trkpt>
      <trkpt lat="42.96876" lon="0.30186">
        <ele>1557.3</ele>
        <time>2026-07-07T10:00:05Z</time>
      </trkpt>
      <trkpt lat="42.96876" lon="0.30186">
        <ele>1557.3</ele>
        <time>2026-07-07T10:00:06Z</time>
      </trkpt>
      <trkpt lat="42.96876" lon="0.30186">
        <ele>1557.3</ele>
        <time>2026-07-07T10:00:07Z</time>
      </trkpt>
      <trkpt lat="42.96876" lon="0.30186">
        <ele>1557.3</ele>
        <time>2026-07-07T10:00:08Z</time>
      </trkpt>
      <trkpt lat="42.96876" lon="0.30186">
        <ele>1557.3</ele>
        <time>2026-07-07T10:00:09Z</time>
      </trkpt>
      <trkpt lat="42.96876" lon="0.30186">
        <ele>1557.3</ele>
        <time>2026-07-07T10:00:10Z</time>
      </trkpt>
      <trkpt lat="42.96876" lon="0.30186">
        <ele>1556.3</ele>
        <time>2026-07-07T10:00:10Z</time>
      </trkpt>
      <trkpt lat="42.96876" lon="0.30186">
        <ele>1556.3</ele>
        <time>2026-07-07T10:00:11Z</time>
      </trkpt>
      <trkpt lat="42.96876" lon="0.30186">
        <ele>1556.3</ele>
        <time>2026-07-07T10:00:12Z</time>
      </trkpt>
      <trkpt lat="42.96876" lon="0.30186">
        <ele>1557.3</ele>
        <time>2026-07-07T10:00:13Z</time>
      </trkpt>
      <trkpt lat="42.96876" lon="0.30186">
        <ele>1557.3</ele>
        <time>2026-07-07T10:00:13Z</time>
      </trkpt>
      <trkpt lat="42.96876" lon="0.30186">
        <ele>1557.3</ele>
        <time>2026-07-07T10:00:14Z</time>
      </trkpt>
      <trkpt lat="42.96876" lon="0.30186">
        <ele>1556.3</ele>
        <time>2026-07-07T10:00:15Z</time>
      </trkpt>
      <trkpt lat="42.96876" lon="0.30186">
        <ele>1557.3</ele>
        <time>2026-07-07T10:00:16Z</time>
      </trkpt>
      <trkpt lat="42.96876" lon="0.30186">
        <ele>1557.3</ele>
        <time>2026-07-07T10:00:17Z</time>
      </trkpt>
      <trkpt lat="42.96876" lon="0.30186">
        <ele>1557.3</ele>
        <time>2026-07-07T10:00:17Z</time>
      </trkpt>
      <trkpt lat="42.96876" lon="0.30186">
        <ele>1557.3</ele>
        <time>2026-07-07T10:00:18Z</time>
      </trkpt>
      <trkpt lat="42.96876" lon="0.30186">
        <ele>1556.3</ele>
        <time>2026-07-07T10:00:18Z</time>
      </trkpt>
      <trkpt lat="42.96876" lon="0.30186">
        <ele>1556.3</ele>
        <time>2026-07-07T10:00:19Z</time>
      </trkpt>
      <trkpt lat="42.96875" lon="0.30186">
        <ele>1556.3</ele>
        <time>2026-07-07T10:00:20Z</time>
      </trkpt>
      <trkpt lat="42.96875" lon="0.30186">
        <ele>1556.3</ele>
        <time>2026-07-07T10:00:20Z</time>
      </trkpt>
      <trkpt lat="42.96875" lon="0.30187">
        <ele>1557.3</ele>
        <time>2026-07-07T10:00:21Z</time>
      </trkpt>
      <trkpt lat="42.96875" lon="0.30187">
        <ele>1557.3</ele>
        <time>2026-07-07T10:00:21Z</time>
      </trkpt>
      <trkpt lat="42.96875" lon="0.30189">
        <ele>1557.3</ele>
        <time>2026-07-07T10:00:22Z</time>
      </trkpt>
      <trkpt lat="42.96875" lon="0.30189">
        <ele>1557.3</ele>
        <time>2026-07-07T10:00:23Z</time>
      </trkpt>
      <trkpt lat="42.96875" lon="0.3019">
        <ele>1557.3</ele>
        <time>2026-07-07T10:00:23Z</time>
      </trkpt>
      <trkpt lat="42.96874" lon="0.30191">
        <ele>1557.3</ele>
        <time>2026-07-07T10:00:24Z</time>
      </trkpt>
      <trkpt lat="42.96874" lon="0.30191">
        <ele>1557.3</ele>
        <time>2026-07-07T10:00:24Z</time>
      </trkpt>
      <trkpt lat="42.96874" lon="0.30192">
        <ele>1557.3</ele>
        <time>2026-07-07T10:00:25Z</time>
      </trkpt>
      <trkpt lat="42.96874" lon="0.30193">
        <ele>1557.3</ele>
        <time>2026-07-07T10:00:26Z</time>
      </trkpt>
      <trkpt lat="42.96874" lon="0.30193">
        <ele>1557.3</ele>
        <time>2026-07-07T10:00:26Z</time>
      </trkpt>
      <trkpt lat="42.96873" lon="0.30194">
        <ele>1559.3</ele>
        <time>2026-07-07T10:00:27Z</time>
      </trkpt>
      <trkpt lat="42.96873" lon="0.30194">
        <ele>1559.3</ele>
        <time>2026-07-07T10:00:28Z</time>
      </trkpt>
      <trkpt lat="42.96872" lon="0.30195">
        <ele>1559.3</ele>
        <time>2026-07-07T10:00:29Z</time>
      </trkpt>
      <trkpt lat="42.96871" lon="0.30196">
        <ele>1559.3</ele>
        <time>2026-07-07T10:00:30Z</time>
      </trkpt>
      <trkpt lat="42.96871" lon="0.30196">
        <ele>1559.3</ele>
        <time>2026-07-07T10:00:30Z</time>
      </trkpt>
      <trkpt lat="42.9687" lon="0.30196">
        <ele>1558.3</ele>
        <time>2026-07-07T10:00:31Z</time>
      </trkpt>
      <trkpt lat="42.9687" lon="0.30197">
        <ele>1558.3</ele>
        <time>2026-07-07T10:00:32Z</time>
      </trkpt>
      <trkpt lat="42.96869" lon="0.30197">
        <ele>1558.3</ele>
        <time>2026-07-07T10:00:33Z</time>
      </trkpt>
      <trkpt lat="42.96868" lon="0.30197">
        <ele>1559.3</ele>
        <time>2026-07-07T10:00:34Z</time>
      </trkpt>
      <trkpt lat="42.96868" lon="0.30197">
        <ele>1559.3</ele>
        <time>2026-07-07T10:00:34Z</time>
      </trkpt>
      <trkpt lat="42.96867" lon="0.30197">
        <ele>1559.3</ele>
        <time>2026-07-07T10:00:35Z</time>
      </trkpt>
      <trkpt lat="42.96867" lon="0.30196">
        <ele>1559.3</ele>
        <time>2026-07-07T10:00:35Z</time>
      </trkpt>
      <trkpt lat="42.96866" lon="0.30196">
        <ele>1559.3</ele>
        <time>2026-07-07T10:00:36Z</time>
      </trkpt>
      <trkpt lat="42.96866" lon="0.30196">
        <ele>1559.3</ele>
        <time>2026-07-07T10:00:37Z</time>
      </trkpt>
      <trkpt lat="42.96866" lon="0.30196">
        <ele>1559.3</ele>
        <time>2026-07-07T10:00:38Z</time>
      </trkpt>
      <trkpt lat="42.96865" lon="0.30196">
        <ele>1559.3</ele>
        <time>2026-07-07T10:00:38Z</time>
      </trkpt>
      <trkpt lat="42.96865" lon="0.30197">
        <ele>1559.3</ele>
        <time>2026-07-07T10:00:39Z</time>
      </trkpt>
      <trkpt lat="42.96864" lon="0.30197">
        <ele>1558.3</ele>
        <time>2026-07-07T10:00:40Z</time>
      </trkpt>
      <trkpt lat="42.96864" lon="0.30198">
        <ele>1558.3</ele>
        <time>2026-07-07T10:00:41Z</time>
      </trkpt>
      <trkpt lat="42.96863" lon="0.30198">
        <ele>1558.3</ele>
        <time>2026-07-07T10:00:41Z</time>
      </trkpt>
      <trkpt lat="42.96863" lon="0.30198">
        <ele>1558.3</ele>
        <time>2026-07-07T10:00:42Z</time>
      </trkpt>
      <trkpt lat="42.96863" lon="0.30198">
        <ele>1558.3</ele>
        <time>2026-07-07T10:00:42Z</time>
      </trkpt>
      <trkpt lat="42.96862" lon="0.30198">
        <ele>1558.3</ele>
        <time>2026-07-07T10:00:43Z</time>
      </trkpt>
      <trkpt lat="42.96862" lon="0.30198">
        <ele>1558.3</ele>
        <time>2026-07-07T10:00:44Z</time>
      </trkpt>
      <trkpt lat="42.96861" lon="0.30199">
        <ele>1559.3</ele>
        <time>2026-07-07T10:00:45Z</time>
      </trkpt>
      <trkpt lat="42.96861" lon="0.30199">
        <ele>1559.3</ele>
        <time>2026-07-07T10:00:45Z</time>
      </trkpt>
      <trkpt lat="42.96861" lon="0.30199">
        <ele>1559.3</ele>
        <time>2026-07-07T10:00:46Z</time>
      </trkpt>
      <trkpt lat="42.9686" lon="0.30199">
        <ele>1558.3</ele>
        <time>2026-07-07T10:00:47Z</time>
      </trkpt>
      <trkpt lat="42.9686" lon="0.30199">
        <ele>1558.3</ele>
        <time>2026-07-07T10:00:47Z</time>
      </trkpt>
      <trkpt lat="42.96859" lon="0.30199">
        <ele>1558.3</ele>
        <time>2026-07-07T10:00:48Z</time>
      </trkpt>
      <trkpt lat="42.96859" lon="0.30199">
        <ele>1557.3</ele>
        <time>2026-07-07T10:00:48Z</time>
      </trkpt>
      <trkpt lat="42.96858" lon="0.30199">
        <ele>1557.3</ele>
        <time>2026-07-07T10:00:49Z</time>
      </trkpt>
      <trkpt lat="42.96858" lon="0.30199">
        <ele>1557.3</ele>
        <time>2026-07-07T10:00:50Z</time>
      </trkpt>
      <trkpt lat="42.96858" lon="0.30198">
        <ele>1557.3</ele>
        <time>2026-07-07T10:00:51Z</time>
      </trkpt>
      <trkpt lat="42.9686" lon="0.30197">
        <ele>1557.3</ele>
        <time>2026-07-07T10:00:52Z</time>
      </trkpt>
      <trkpt lat="42.96861" lon="0.30196">
        <ele>1557.3</ele>
        <time>2026-07-07T10:00:53Z</time>
      </trkpt>
      <trkpt lat="42.96862" lon="0.30195">
        <ele>1556.3</ele>
        <time>2026-07-07T10:00:54Z</time>
      </trkpt>
      <trkpt lat="42.96863" lon="0.30195">
        <ele>1556.3</ele>
        <time>2026-07-07T10:00:55Z</time>
      </trkpt>
      <trkpt lat="42.96863" lon="0.30195">
        <ele>1556.3</ele>
        <time>2026-07-07T10:00:56Z</time>
      </trkpt>
      <trkpt lat="42.96863" lon="0.30196">
        <ele>1555.3</ele>
        <time>2026-07-07T10:00:57Z</time>
      </trkpt>
      <trkpt lat="42.96863" lon="0.30196">
        <ele>1555.3</ele>
        <time>2026-07-07T10:00:57Z</time>
      </trkpt>
      <trkpt lat="42.96863" lon="0.30197">
        <ele>1555.3</ele>
        <time>2026-07-07T10:00:58Z</time>
      </trkpt>
      <trkpt lat="42.96863" lon="0.30198">
        <ele>1555.3</ele>
        <time>2026-07-07T10:00:58Z</time>
      </trkpt>
      <trkpt lat="42.96863" lon="0.30198">
        <ele>1555.3</ele>
        <time>2026-07-07T10:00:59Z</time>
      </trkpt>
      <trkpt lat="42.96862" lon="0.30198">
        <ele>1555.3</ele>
        <time>2026-07-07T10:01:00Z</time>
      </trkpt>
      <trkpt lat="42.96862" lon="0.30198">
        <ele>1555.3</ele>
        <time>2026-07-07T10:01:01Z</time>
      </trkpt>
      <trkpt lat="42.96862" lon="0.30198">
        <ele>1555.3</ele>
        <time>2026-07-07T10:01:02Z</time>
      </trkpt>
      <trkpt lat="42.96861" lon="0.30199">
        <ele>1554.3</ele>
        <time>2026-07-07T10:01:03Z</time>
      </trkpt>
      <trkpt lat="42.96861" lon="0.302">
        <ele>1553.3</ele>
        <time>2026-07-07T10:01:03Z</time>
      </trkpt>
      <trkpt lat="42.96861" lon="0.30201">
        <ele>1553.3</ele>
        <time>2026-07-07T10:01:04Z</time>
      </trkpt>
      <trkpt lat="42.96861" lon="0.30202">
        <ele>1554.3</ele>
        <time>2026-07-07T10:01:05Z</time>
      </trkpt>
      <trkpt lat="42.96861" lon="0.30202">
        <ele>1554.3</ele>
        <time>2026-07-07T10:01:06Z</time>
      </trkpt>
      <trkpt lat="42.96861" lon="0.30202">
        <ele>1554.3</ele>
        <time>2026-07-07T10:01:07Z</time>
      </trkpt>
      <trkpt lat="42.96861" lon="0.30202">
        <ele>1554.3</ele>
        <time>2026-07-07T10:01:08Z</time>
      </trkpt>
      <trkpt lat="42.96861" lon="0.30202">
        <ele>1553.3</ele>
        <time>2026-07-07T10:01:09Z</time>
      </trkpt>
      <trkpt lat="42.96861" lon="0.30202">
        <ele>1553.3</ele>
        <time>2026-07-07T10:01:09Z</time>
      </trkpt>
      <trkpt lat="42.96861" lon="0.30202">
        <ele>1553.3</ele>
        <time>2026-07-07T10:01:10Z</time>
      </trkpt>
      <trkpt lat="42.96861" lon="0.30202">
        <ele>1553.3</ele>
        <time>2026-07-07T10:01:10Z</time>
      </trkpt>
      <trkpt lat="42.96861" lon="0.30202">
        <ele>1553.3</ele>
        <time>2026-07-07T10:01:11Z</time>
      </trkpt>
      <trkpt lat="42.96861" lon="0.30202">
        <ele>1553.3</ele>
        <time>2026-07-07T10:01:12Z</time>
      </trkpt>
      <trkpt lat="42.96861" lon="0.30202">
        <ele>1554.3</ele>
        <time>2026-07-07T10:01:13Z</time>
      </trkpt>
      <trkpt lat="42.96861" lon="0.30203">
        <ele>1553.3</ele>
        <time>2026-07-07T10:01:13Z</time>
      </trkpt>
      <trkpt lat="42.96861" lon="0.30203">
        <ele>1553.3</ele>
        <time>2026-07-07T10:01:14Z</time>
      </trkpt>
      <trkpt lat="42.96861" lon="0.30203">
        <ele>1553.3</ele>
        <time>2026-07-07T10:01:15Z</time>
      </trkpt>
      <trkpt lat="42.9686" lon="0.30203">
        <ele>1553.3</ele>
        <time>2026-07-07T10:01:16Z</time>
      </trkpt>
      <trkpt lat="42.9686" lon="0.30204">
        <ele>1553.3</ele>
        <time>2026-07-07T10:01:17Z</time>
      </trkpt>
      <trkpt lat="42.9686" lon="0.30204">
        <ele>1553.3</ele>
        <time>2026-07-07T10:01:18Z</time>
      </trkpt>
      <trkpt lat="42.9686" lon="0.30204">
        <ele>1552.3</ele>
        <time>2026-07-07T10:01:19Z</time>
      </trkpt>
      <trkpt lat="42.9686" lon="0.30204">
        <ele>1552.3</ele>
        <time>2026-07-07T10:01:20Z</time>
      </trkpt>
      <trkpt lat="42.9686" lon="0.30204">
        <ele>1552.3</ele>
        <time>2026-07-07T10:01:21Z</time>
      </trkpt>
      <trkpt lat="42.9686" lon="0.30204">
        <ele>1552.3</ele>
        <time>2026-07-07T10:01:22Z</time>
      </trkpt>
      <trkpt lat="42.9686" lon="0.30204">
        <ele>1552.3</ele>
        <time>2026-07-07T10:01:23Z</time>
      </trkpt>
      <trkpt lat="42.96859" lon="0.30204">
        <ele>1551.3</ele>
        <time>2026-07-07T10:01:24Z</time>
      </trkpt>
      <trkpt lat="42.96859" lon="0.30204">
        <ele>1551.3</ele>
        <time>2026-07-07T10:01:25Z</time>
      </trkpt>
      <trkpt lat="42.96859" lon="0.30205">
        <ele>1551.3</ele>
        <time>2026-07-07T10:01:25Z</time>
      </trkpt>
      <trkpt lat="42.96859" lon="0.30205">
        <ele>1551.3</ele>
        <time>2026-07-07T10:01:26Z</time>
      </trkpt>
      <trkpt lat="42.96858" lon="0.30205">
        <ele>1551.3</ele>
        <time>2026-07-07T10:01:27Z</time>
      </trkpt>
      <trkpt lat="42.96858" lon="0.30205">
        <ele>1551.3</ele>
        <time>2026-07-07T10:01:27Z</time>
      </trkpt>
      <trkpt lat="42.96858" lon="0.30205">
        <ele>1551.3</ele>
        <time>2026-07-07T10:01:28Z</time>
      </trkpt>
      <trkpt lat="42.96857" lon="0.30206">
        <ele>1551.3</ele>
        <time>2026-07-07T10:01:29Z</time>
      </trkpt>
      <trkpt lat="42.96857" lon="0.30206">
        <ele>1550.3</ele>
        <time>2026-07-07T10:01:29Z</time>
      </trkpt>
      <trkpt lat="42.96856" lon="0.30206">
        <ele>1550.3</ele>
        <time>2026-07-07T10:01:30Z</time>
      </trkpt>
      <trkpt lat="42.96856" lon="0.30206">
        <ele>1550.3</ele>
        <time>2026-07-07T10:01:31Z</time>
      </trkpt>
      <trkpt lat="42.96855" lon="0.30207">
        <ele>1550.3</ele>
        <time>2026-07-07T10:01:31Z</time>
      </trkpt>
      <trkpt lat="42.96855" lon="0.30207">
        <ele>1550.3</ele>
        <time>2026-07-07T10:01:32Z</time>
      </trkpt>
      <trkpt lat="42.96855" lon="0.30208">
        <ele>1549.3</ele>
        <time>2026-07-07T10:01:33Z</time>
      </trkpt>
      <trkpt lat="42.96855" lon="0.30209">
        <ele>1548.3</ele>
        <time>2026-07-07T10:01:34Z</time>
      </trkpt>
      <trkpt lat="42.96855" lon="0.30209">
        <ele>1548.3</ele>
        <time>2026-07-07T10:01:35Z</time>
      </trkpt>
      <trkpt lat="42.96855" lon="0.30209">
        <ele>1548.3</ele>
        <time>2026-07-07T10:01:35Z</time>
      </trkpt>
      <trkpt lat="42.96854" lon="0.30215">
        <ele>1548.3</ele>
        <time>2026-07-07T10:01:36Z</time>
      </trkpt>
      <trkpt lat="42.96853" lon="0.30215">
        <ele>1548.3</ele>
        <time>2026-07-07T10:01:37Z</time>
      </trkpt>
      <trkpt lat="42.96853" lon="0.30217">
        <ele>1548.3</ele>
        <time>2026-07-07T10:01:38Z</time>
      </trkpt>
      <trkpt lat="42.96853" lon="0.30218">
        <ele>1547.3</ele>
        <time>2026-07-07T10:01:39Z</time>
      </trkpt>
      <trkpt lat="42.96853" lon="0.30219">
        <ele>1547.3</ele>
        <time>2026-07-07T10:01:40Z</time>
      </trkpt>
      <trkpt lat="42.96853" lon="0.30219">
        <ele>1547.3</ele>
        <time>2026-07-07T10:01:41Z</time>
      </trkpt>
      <trkpt lat="42.96853" lon="0.3022">
        <ele>1548.3</ele>
        <time>2026-07-07T10:01:42Z</time>
      </trkpt>
      <trkpt lat="42.96853" lon="0.3022">
        <ele>1546.3</ele>
        <time>2026-07-07T10:01:43Z</time>
      </trkpt>
      <trkpt lat="42.96853" lon="0.3022">
        <ele>1546.3</ele>
        <time>2026-07-07T10:01:44Z</time>
      </trkpt>
      <trkpt lat="42.96854" lon="0.3022">
        <ele>1546.3</ele>
        <time>2026-07-07T10:01:45Z</time>
      </trkpt>
      <trkpt lat="42.96853" lon="0.3022">
        <ele>1547.3</ele>
        <time>2026-07-07T10:01:46Z</time>
      </trkpt>
      <trkpt lat="42.96853" lon="0.3022">
        <ele>1547.3</ele>
        <time>2026-07-07T10:01:47Z</time>
      </trkpt>
      <trkpt lat="42.96853" lon="0.3022">
        <ele>1547.3</ele>
        <time>2026-07-07T10:01:48Z</time>
      </trkpt>
      <trkpt lat="42.96854" lon="0.3022">
        <ele>1547.3</ele>
        <time>2026-07-07T10:01:49Z</time>
      </trkpt>
      <trkpt lat="42.96854" lon="0.30221">
        <ele>1547.3</ele>
        <time>2026-07-07T10:01:50Z</time>
      </trkpt>
      <trkpt lat="42.96854" lon="0.30221">
        <ele>1547.3</ele>
        <time>2026-07-07T10:01:51Z</time>
      </trkpt>
      <trkpt lat="42.96853" lon="0.30222">
        <ele>1547.3</ele>
        <time>2026-07-07T10:01:52Z</time>
      </trkpt>
      <trkpt lat="42.96853" lon="0.30222">
        <ele>1547.3</ele>
        <time>2026-07-07T10:01:53Z</time>
      </trkpt>
      <trkpt lat="42.96852" lon="0.30222">
        <ele>1547.3</ele>
        <time>2026-07-07T10:01:54Z</time>
      </trkpt>
      <trkpt lat="42.96851" lon="0.30224">
        <ele>1546.3</ele>
        <time>2026-07-07T10:01:55Z</time>
      </trkpt>
      <trkpt lat="42.96851" lon="0.30225">
        <ele>1546.3</ele>
        <time>2026-07-07T10:01:56Z</time>
      </trkpt>
      <trkpt lat="42.9685" lon="0.30225">
        <ele>1546.3</ele>
        <time>2026-07-07T10:01:57Z</time>
      </trkpt>
      <trkpt lat="42.9685" lon="0.30225">
        <ele>1545.3</ele>
        <time>2026-07-07T10:01:58Z</time>
      </trkpt>
      <trkpt lat="42.96849" lon="0.30225">
        <ele>1545.3</ele>
        <time>2026-07-07T10:01:59Z</time>
      </trkpt>
      <trkpt lat="42.96849" lon="0.30226">
        <ele>1544.3</ele>
        <time>2026-07-07T10:02:00Z</time>
      </trkpt>
      <trkpt lat="42.96849" lon="0.30228">
        <ele>1544.3</ele>
        <time>2026-07-07T10:02:01Z</time>
      </trkpt>
      <trkpt lat="42.96849" lon="0.30229">
        <ele>1543.3</ele>
        <time>2026-07-07T10:02:04Z</time>
      </trkpt>
      <trkpt lat="42.96849" lon="0.30231">
        <ele>1543.3</ele>
        <time>2026-07-07T10:02:05Z</time>
      </trkpt>
      <trkpt lat="42.96851" lon="0.30234">
        <ele>1544.3</ele>
        <time>2026-07-07T10:02:08Z</time>
      </trkpt>
      <trkpt lat="42.96851" lon="0.30234">
        <ele>1544.3</ele>
        <time>2026-07-07T10:02:09Z</time>
      </trkpt>
      <trkpt lat="42.96851" lon="0.30234">
        <ele>1544.3</ele>
        <time>2026-07-07T10:02:10Z</time>
      </trkpt>
      <trkpt lat="42.9685" lon="0.30234">
        <ele>1543.3</ele>
        <time>2026-07-07T10:02:11Z</time>
      </trkpt>
      <trkpt lat="42.96849" lon="0.30236">
        <ele>1542.3</ele>
        <time>2026-07-07T10:02:12Z</time>
      </trkpt>
      <trkpt lat="42.96848" lon="0.30236">
        <ele>1542.3</ele>
        <time>2026-07-07T10:02:13Z</time>
      </trkpt>
      <trkpt lat="42.96848" lon="0.30237">
        <ele>1541.3</ele>
        <time>2026-07-07T10:02:14Z</time>
      </trkpt>
      <trkpt lat="42.96847" lon="0.30237">
        <ele>1540.3</ele>
        <time>2026-07-07T10:02:15Z</time>
      </trkpt>
      <trkpt lat="42.96847" lon="0.30236">
        <ele>1540.3</ele>
        <time>2026-07-07T10:02:16Z</time>
      </trkpt>
      <trkpt lat="42.96847" lon="0.30236">
        <ele>1540.3</ele>
        <time>2026-07-07T10:02:17Z</time>
      </trkpt>
      <trkpt lat="42.96847" lon="0.30236">
        <ele>1540.3</ele>
        <time>2026-07-07T10:02:18Z</time>
      </trkpt>
      <trkpt lat="42.96846" lon="0.30236">
        <ele>1539.3</ele>
        <time>2026-07-07T10:02:19Z</time>
      </trkpt>
      <trkpt lat="42.96846" lon="0.30235">
        <ele>1538.3</ele>
        <time>2026-07-07T10:02:20Z</time>
      </trkpt>
      <trkpt lat="42.96846" lon="0.30236">
        <ele>1538.3</ele>
        <time>2026-07-07T10:02:21Z</time>
      </trkpt>
      <trkpt lat="42.96845" lon="0.30237">
        <ele>1537.3</ele>
        <time>2026-07-07T10:02:22Z</time>
      </trkpt>
      <trkpt lat="42.96845" lon="0.30237">
        <ele>1537.3</ele>
        <time>2026-07-07T10:02:23Z</time>
      </trkpt>
      <trkpt lat="42.96843" lon="0.30238">
        <ele>1536.3</ele>
        <time>2026-07-07T10:02:24Z</time>
      </trkpt>
      <trkpt lat="42.96843" lon="0.30239">
        <ele>1536.3</ele>
        <time>2026-07-07T10:02:25Z</time>
      </trkpt>
      <trkpt lat="42.96842" lon="0.3024">
        <ele>1535.3</ele>
        <time>2026-07-07T10:02:26Z</time>
      </trkpt>
      <trkpt lat="42.96842" lon="0.3024">
        <ele>1536.3</ele>
        <time>2026-07-07T10:02:27Z</time>
      </trkpt>
      <trkpt lat="42.96842" lon="0.30241">
        <ele>1536.3</ele>
        <time>2026-07-07T10:02:28Z</time>
      </trkpt>
      <trkpt lat="42.96842" lon="0.30242">
        <ele>1535.3</ele>
        <time>2026-07-07T10:02:29Z</time>
      </trkpt>
      <trkpt lat="42.96842" lon="0.30242">
        <ele>1535.3</ele>
        <time>2026-07-07T10:02:30Z</time>
      </trkpt>
      <trkpt lat="42.96841" lon="0.30243">
        <ele>1534.3</ele>
        <time>2026-07-07T10:02:31Z</time>
      </trkpt>
      <trkpt lat="42.9684" lon="0.30243">
        <ele>1533.3</ele>
        <time>2026-07-07T10:02:32Z</time>
      </trkpt>
      <trkpt lat="42.96841" lon="0.30243">
        <ele>1533.3</ele>
        <time>2026-07-07T10:02:33Z</time>
      </trkpt>
      <trkpt lat="42.9684" lon="0.30243">
        <ele>1533.3</ele>
        <time>2026-07-07T10:02:34Z</time>
      </trkpt>
      <trkpt lat="42.9684" lon="0.30244">
        <ele>1533.3</ele>
        <time>2026-07-07T10:02:35Z</time>
      </trkpt>
      <trkpt lat="42.9684" lon="0.30245">
        <ele>1534.3</ele>
        <time>2026-07-07T10:02:36Z</time>
      </trkpt>
      <trkpt lat="42.9684" lon="0.30245">
        <ele>1533.3</ele>
        <time>2026-07-07T10:02:37Z</time>
      </trkpt>
      <trkpt lat="42.96839" lon="0.30245">
        <ele>1534.3</ele>
        <time>2026-07-07T10:02:38Z</time>
      </trkpt>
      <trkpt lat="42.96839" lon="0.30245">
        <ele>1533.3</ele>
        <time>2026-07-07T10:02:39Z</time>
      </trkpt>
      <trkpt lat="42.96839" lon="0.30245">
        <ele>1533.3</ele>
        <time>2026-07-07T10:02:40Z</time>
      </trkpt>
      <trkpt lat="42.96839" lon="0.30245">
        <ele>1533.3</ele>
        <time>2026-07-07T10:02:41Z</time>
      </trkpt>
      <trkpt lat="42.96839" lon="0.30245">
        <ele>1532.3</ele>
        <time>2026-07-07T10:02:42Z</time>
      </trkpt>
      <trkpt lat="42.96839" lon="0.30246">
        <ele>1532.3</ele>
        <time>2026-07-07T10:02:43Z</time>
      </trkpt>
      <trkpt lat="42.96838" lon="0.30246">
        <ele>1532.3</ele>
        <time>2026-07-07T10:02:44Z</time>
      </trkpt>
      <trkpt lat="42.96837" lon="0.30247">
        <ele>1532.3</ele>
        <time>2026-07-07T10:02:45Z</time>
      </trkpt>
      <trkpt lat="42.96837" lon="0.30247">
        <ele>1532.3</ele>
        <time>2026-07-07T10:02:46Z</time>
      </trkpt>
      <trkpt lat="42.96837" lon="0.30247">
        <ele>1532.3</ele>
        <time>2026-07-07T10:02:47Z</time>
      </trkpt>
      <trkpt lat="42.96836" lon="0.30247">
        <ele>1531.3</ele>
        <time>2026-07-07T10:02:48Z</time>
      </trkpt>
      <trkpt lat="42.96835" lon="0.30247">
        <ele>1531.3</ele>
        <time>2026-07-07T10:02:49Z</time>
      </trkpt>
      <trkpt lat="42.96834" lon="0.30247">
        <ele>1530.3</ele>
        <time>2026-07-07T10:02:50Z</time>
      </trkpt>
      <trkpt lat="42.96828" lon="0.30252">
        <ele>1530.3</ele>
        <time>2026-07-07T10:02:51Z</time>
      </trkpt>
      <trkpt lat="42.96828" lon="0.30252">
        <ele>1530.3</ele>
        <time>2026-07-07T10:02:52Z</time>
      </trkpt>
      <trkpt lat="42.96827" lon="0.30252">
        <ele>1530.3</ele>
        <time>2026-07-07T10:02:52Z</time>
      </trkpt>
      <trkpt lat="42.96826" lon="0.30252">
        <ele>1530.3</ele>
        <time>2026-07-07T10:02:53Z</time>
      </trkpt>
      <trkpt lat="42.96827" lon="0.30251">
        <ele>1530.3</ele>
        <time>2026-07-07T10:02:53Z</time>
      </trkpt>
      <trkpt lat="42.96827" lon="0.30251">
        <ele>1530.3</ele>
        <time>2026-07-07T10:02:54Z</time>
      </trkpt>
      <trkpt lat="42.96826" lon="0.30252">
        <ele>1530.3</ele>
        <time>2026-07-07T10:02:55Z</time>
      </trkpt>
      <trkpt lat="42.96826" lon="0.30252">
        <ele>1530.3</ele>
        <time>2026-07-07T10:02:55Z</time>
      </trkpt>
      <trkpt lat="42.96826" lon="0.30252">
        <ele>1529.3</ele>
        <time>2026-07-07T10:02:55Z</time>
      </trkpt>
      <trkpt lat="42.96825" lon="0.30253">
        <ele>1529.3</ele>
        <time>2026-07-07T10:02:56Z</time>
      </trkpt>
      <trkpt lat="42.96825" lon="0.30253">
        <ele>1529.3</ele>
        <time>2026-07-07T10:02:57Z</time>
      </trkpt>
      <trkpt lat="42.96825" lon="0.30254">
        <ele>1529.3</ele>
        <time>2026-07-07T10:02:57Z</time>
      </trkpt>
      <trkpt lat="42.96825" lon="0.30255">
        <ele>1529.3</ele>
        <time>2026-07-07T10:02:58Z</time>
      </trkpt>
      <trkpt lat="42.96825" lon="0.30255">
        <ele>1529.3</ele>
        <time>2026-07-07T10:02:59Z</time>
      </trkpt>
      <trkpt lat="42.96825" lon="0.30256">
        <ele>1530.3</ele>
        <time>2026-07-07T10:02:59Z</time>
      </trkpt>
      <trkpt lat="42.96825" lon="0.30256">
        <ele>1530.3</ele>
        <time>2026-07-07T10:03:00Z</time>
      </trkpt>
      <trkpt lat="42.96824" lon="0.30256">
        <ele>1530.3</ele>
        <time>2026-07-07T10:03:00Z</time>
      </trkpt>
      <trkpt lat="42.96824" lon="0.30256">
        <ele>1530.3</ele>
        <time>2026-07-07T10:03:01Z</time>
      </trkpt>
      <trkpt lat="42.96823" lon="0.30256">
        <ele>1530.3</ele>
        <time>2026-07-07T10:03:01Z</time>
      </trkpt>
      <trkpt lat="42.96823" lon="0.30256">
        <ele>1530.3</ele>
        <time>2026-07-07T10:03:02Z</time>
      </trkpt>
      <trkpt lat="42.96823" lon="0.30256">
        <ele>1530.3</ele>
        <time>2026-07-07T10:03:03Z</time>
      </trkpt>
      <trkpt lat="42.96823" lon="0.30256">
        <ele>1530.3</ele>
        <time>2026-07-07T10:03:03Z</time>
      </trkpt>
      <trkpt lat="42.96823" lon="0.30257">
        <ele>1529.3</ele>
        <time>2026-07-07T10:03:04Z</time>
      </trkpt>
      <trkpt lat="42.96823" lon="0.30257">
        <ele>1528.3</ele>
        <time>2026-07-07T10:03:04Z</time>
      </trkpt>
      <trkpt lat="42.96823" lon="0.30257">
        <ele>1528.3</ele>
        <time>2026-07-07T10:03:05Z</time>
      </trkpt>
      <trkpt lat="42.96824" lon="0.30257">
        <ele>1528.3</ele>
        <time>2026-07-07T10:03:05Z</time>
      </trkpt>
      <trkpt lat="42.96824" lon="0.30258">
        <ele>1528.3</ele>
        <time>2026-07-07T10:03:06Z</time>
      </trkpt>
      <trkpt lat="42.96825" lon="0.30258">
        <ele>1526.3</ele>
        <time>2026-07-07T10:03:07Z</time>
      </trkpt>
      <trkpt lat="42.96825" lon="0.30259">
        <ele>1526.3</ele>
        <time>2026-07-07T10:03:08Z</time>
      </trkpt>
      <trkpt lat="42.96826" lon="0.30259">
        <ele>1525.3</ele>
        <time>2026-07-07T10:03:09Z</time>
      </trkpt>
      <trkpt lat="42.96826" lon="0.30259">
        <ele>1525.3</ele>
        <time>2026-07-07T10:03:09Z</time>
      </trkpt>
      <trkpt lat="42.96828" lon="0.30258">
        <ele>1525.3</ele>
        <time>2026-07-07T10:03:10Z</time>
      </trkpt>
      <trkpt lat="42.96828" lon="0.30258">
        <ele>1525.3</ele>
        <time>2026-07-07T10:03:11Z</time>
      </trkpt>
      <trkpt lat="42.96829" lon="0.30258">
        <ele>1524.3</ele>
        <time>2026-07-07T10:03:12Z</time>
      </trkpt>
      <trkpt lat="42.9683" lon="0.30259">
        <ele>1523.3</ele>
        <time>2026-07-07T10:03:13Z</time>
      </trkpt>
      <trkpt lat="42.96831" lon="0.30259">
        <ele>1523.3</ele>
        <time>2026-07-07T10:03:14Z</time>
      </trkpt>
      <trkpt lat="42.96831" lon="0.30259">
        <ele>1523.3</ele>
        <time>2026-07-07T10:03:15Z</time>
      </trkpt>
      <trkpt lat="42.96832" lon="0.3026">
        <ele>1523.3</ele>
        <time>2026-07-07T10:03:16Z</time>
      </trkpt>
      <trkpt lat="42.96832" lon="0.30261">
        <ele>1523.3</ele>
        <time>2026-07-07T10:03:17Z</time>
      </trkpt>
      <trkpt lat="42.96833" lon="0.30262">
        <ele>1523.3</ele>
        <time>2026-07-07T10:03:18Z</time>
      </trkpt>
      <trkpt lat="42.96833" lon="0.30262">
        <ele>1523.3</ele>
        <time>2026-07-07T10:03:19Z</time>
      </trkpt>
      <trkpt lat="42.96833" lon="0.30263">
        <ele>1523.3</ele>
        <time>2026-07-07T10:03:20Z</time>
      </trkpt>
      <trkpt lat="42.96833" lon="0.30263">
        <ele>1523.3</ele>
        <time>2026-07-07T10:03:20Z</time>
      </trkpt>
      <trkpt lat="42.96833" lon="0.30264">
        <ele>1523.3</ele>
        <time>2026-07-07T10:03:21Z</time>
      </trkpt>
      <trkpt lat="42.96834" lon="0.30263">
        <ele>1522.3</ele>
        <time>2026-07-07T10:03:22Z</time>
      </trkpt>
      <trkpt lat="42.96834" lon="0.30263">
        <ele>1523.3</ele>
        <time>2026-07-07T10:03:22Z</time>
      </trkpt>
      <trkpt lat="42.96834" lon="0.30263">
        <ele>1523.3</ele>
        <time>2026-07-07T10:03:23Z</time>
      </trkpt>
      <trkpt lat="42.96833" lon="0.30263">
        <ele>1523.3</ele>
        <time>2026-07-07T10:03:24Z</time>
      </trkpt>
      <trkpt lat="42.96833" lon="0.30264">
        <ele>1523.3</ele>
        <time>2026-07-07T10:03:24Z</time>
      </trkpt>
      <trkpt lat="42.96833" lon="0.30263">
        <ele>1523.3</ele>
        <time>2026-07-07T10:03:25Z</time>
      </trkpt>
      <trkpt lat="42.96833" lon="0.30263">
        <ele>1523.3</ele>
        <time>2026-07-07T10:03:26Z</time>
      </trkpt>
      <trkpt lat="42.96832" lon="0.30264">
        <ele>1522.3</ele>
        <time>2026-07-07T10:03:27Z</time>
      </trkpt>
      <trkpt lat="42.96832" lon="0.30263">
        <ele>1522.3</ele>
        <time>2026-07-07T10:03:27Z</time>
      </trkpt>
      <trkpt lat="42.96832" lon="0.30263">
        <ele>1522.3</ele>
        <time>2026-07-07T10:03:28Z</time>
      </trkpt>
      <trkpt lat="42.96832" lon="0.30263">
        <ele>1522.3</ele>
        <time>2026-07-07T10:03:28Z</time>
      </trkpt>
      <trkpt lat="42.96832" lon="0.30263">
        <ele>1522.3</ele>
        <time>2026-07-07T10:03:29Z</time>
      </trkpt>
      <trkpt lat="42.96832" lon="0.30263">
        <ele>1523.3</ele>
        <time>2026-07-07T10:03:30Z</time>
      </trkpt>
      <trkpt lat="42.96833" lon="0.30262">
        <ele>1523.3</ele>
        <time>2026-07-07T10:03:30Z</time>
      </trkpt>
      <trkpt lat="42.96833" lon="0.30262">
        <ele>1523.3</ele>
        <time>2026-07-07T10:03:31Z</time>
      </trkpt>
      <trkpt lat="42.96833" lon="0.30262">
        <ele>1522.3</ele>
        <time>2026-07-07T10:03:32Z</time>
      </trkpt>
      <trkpt lat="42.96833" lon="0.30262">
        <ele>1522.3</ele>
        <time>2026-07-07T10:03:33Z</time>
      </trkpt>
      <trkpt lat="42.96832" lon="0.30263">
        <ele>1522.3</ele>
        <time>2026-07-07T10:03:33Z</time>
      </trkpt>
      <trkpt lat="42.96832" lon="0.30263">
        <ele>1522.3</ele>
        <time>2026-07-07T10:03:34Z</time>
      </trkpt>
      <trkpt lat="42.96832" lon="0.30264">
        <ele>1522.3</ele>
        <time>2026-07-07T10:03:35Z</time>
      </trkpt>
      <trkpt lat="42.96832" lon="0.30264">
        <ele>1523.3</ele>
        <time>2026-07-07T10:03:36Z</time>
      </trkpt>
      <trkpt lat="42.96831" lon="0.30264">
        <ele>1523.3</ele>
        <time>2026-07-07T10:03:36Z</time>
      </trkpt>
      <trkpt lat="42.96831" lon="0.30264">
        <ele>1523.3</ele>
        <time>2026-07-07T10:03:37Z</time>
      </trkpt>
      <trkpt lat="42.96831" lon="0.30265">
        <ele>1523.3</ele>
        <time>2026-07-07T10:03:38Z</time>
      </trkpt>
      <trkpt lat="42.96831" lon="0.30265">
        <ele>1523.3</ele>
        <time>2026-07-07T10:03:39Z</time>
      </trkpt>
      <trkpt lat="42.96831" lon="0.30265">
        <ele>1523.3</ele>
        <time>2026-07-07T10:03:40Z</time>
      </trkpt>
      <trkpt lat="42.96832" lon="0.30265">
        <ele>1522.3</ele>
        <time>2026-07-07T10:03:41Z</time>
      </trkpt>
      <trkpt lat="42.96832" lon="0.30264">
        <ele>1522.3</ele>
        <time>2026-07-07T10:03:42Z</time>
      </trkpt>
      <trkpt lat="42.96832" lon="0.30264">
        <ele>1522.3</ele>
        <time>2026-07-07T10:03:43Z</time>
      </trkpt>
      <trkpt lat="42.96832" lon="0.30264">
        <ele>1521.3</ele>
        <time>2026-07-07T10:03:44Z</time>
      </trkpt>
      <trkpt lat="42.96832" lon="0.30264">
        <ele>1521.3</ele>
        <time>2026-07-07T10:03:45Z</time>
      </trkpt>
      <trkpt lat="42.96832" lon="0.30264">
        <ele>1520.3</ele>
        <time>2026-07-07T10:03:46Z</time>
      </trkpt>
      <trkpt lat="42.96832" lon="0.30264">
        <ele>1520.3</ele>
        <time>2026-07-07T10:03:47Z</time>
      </trkpt>
      <trkpt lat="42.96832" lon="0.30264">
        <ele>1519.3</ele>
        <time>2026-07-07T10:03:47Z</time>
      </trkpt>
      <trkpt lat="42.96832" lon="0.30264">
        <ele>1519.3</ele>
        <time>2026-07-07T10:03:48Z</time>
      </trkpt>
      <trkpt lat="42.96832" lon="0.30264">
        <ele>1519.3</ele>
        <time>2026-07-07T10:03:48Z</time>
      </trkpt>
      <trkpt lat="42.96832" lon="0.30264">
        <ele>1520.3</ele>
        <time>2026-07-07T10:03:49Z</time>
      </trkpt>
      <trkpt lat="42.96831" lon="0.30264">
        <ele>1522.3</ele>
        <time>2026-07-07T10:03:50Z</time>
      </trkpt>
      <trkpt lat="42.96831" lon="0.30264">
        <ele>1522.3</ele>
        <time>2026-07-07T10:03:51Z</time>
      </trkpt>
      <trkpt lat="42.96831" lon="0.30264">
        <ele>1522.3</ele>
        <time>2026-07-07T10:03:52Z</time>
      </trkpt>
      <trkpt lat="42.96831" lon="0.30264">
        <ele>1524.3</ele>
        <time>2026-07-07T10:03:53Z</time>
      </trkpt>
      <trkpt lat="42.96831" lon="0.30264">
        <ele>1523.3</ele>
        <time>2026-07-07T10:03:54Z</time>
      </trkpt>
      <trkpt lat="42.96831" lon="0.30264">
        <ele>1523.3</ele>
        <time>2026-07-07T10:03:55Z</time>
      </trkpt>
      <trkpt lat="42.96832" lon="0.30265">
        <ele>1524.3</ele>
        <time>2026-07-07T10:03:56Z</time>
      </trkpt>
      <trkpt lat="42.96832" lon="0.30265">
        <ele>1524.3</ele>
        <time>2026-07-07T10:03:57Z</time>
      </trkpt>
      <trkpt lat="42.96832" lon="0.30265">
        <ele>1524.3</ele>
        <time>2026-07-07T10:03:58Z</time>
      </trkpt>
      <trkpt lat="42.96832" lon="0.30265">
        <ele>1523.3</ele>
        <time>2026-07-07T10:03:58Z</time>
      </trkpt>
      <trkpt lat="42.96831" lon="0.30266">
        <ele>1523.3</ele>
        <time>2026-07-07T10:03:59Z</time>
      </trkpt>
      <trkpt lat="42.96831" lon="0.30266">
        <ele>1523.3</ele>
        <time>2026-07-07T10:03:59Z</time>
      </trkpt>
      <trkpt lat="42.96831" lon="0.30266">
        <ele>1523.3</ele>
        <time>2026-07-07T10:04:00Z</time>
      </trkpt>
      <trkpt lat="42.9683" lon="0.30266">
        <ele>1523.3</ele>
        <time>2026-07-07T10:04:01Z</time>
      </trkpt>
      <trkpt lat="42.9683" lon="0.30266">
        <ele>1523.3</ele>
        <time>2026-07-07T10:04:02Z</time>
      </trkpt>
      <trkpt lat="42.96829" lon="0.30267">
        <ele>1523.3</ele>
        <time>2026-07-07T10:04:03Z</time>
      </trkpt>
      <trkpt lat="42.96828" lon="0.30267">
        <ele>1523.3</ele>
        <time>2026-07-07T10:04:04Z</time>
      </trkpt>
      <trkpt lat="42.96828" lon="0.30268">
        <ele>1523.3</ele>
        <time>2026-07-07T10:04:05Z</time>
      </trkpt>
      <trkpt lat="42.96828" lon="0.30268">
        <ele>1523.3</ele>
        <time>2026-07-07T10:04:05Z</time>
      </trkpt>
      <trkpt lat="42.96827" lon="0.30269">
        <ele>1522.3</ele>
        <time>2026-07-07T10:04:06Z</time>
      </trkpt>
      <trkpt lat="42.96826" lon="0.3027">
        <ele>1522.3</ele>
        <time>2026-07-07T10:04:07Z</time>
      </trkpt>
      <trkpt lat="42.96826" lon="0.3027">
        <ele>1523.3</ele>
        <time>2026-07-07T10:04:07Z</time>
      </trkpt>
      <trkpt lat="42.96825" lon="0.30271">
        <ele>1523.3</ele>
        <time>2026-07-07T10:04:08Z</time>
      </trkpt>
      <trkpt lat="42.96825" lon="0.30272">
        <ele>1522.3</ele>
        <time>2026-07-07T10:04:08Z</time>
      </trkpt>
      <trkpt lat="42.96825" lon="0.30273">
        <ele>1522.3</ele>
        <time>2026-07-07T10:04:09Z</time>
      </trkpt>
      <trkpt lat="42.96824" lon="0.30273">
        <ele>1522.3</ele>
        <time>2026-07-07T10:04:10Z</time>
      </trkpt>
      <trkpt lat="42.96824" lon="0.30274">
        <ele>1522.3</ele>
        <time>2026-07-07T10:04:10Z</time>
      </trkpt>
      <trkpt lat="42.96823" lon="0.30275">
        <ele>1522.3</ele>
        <time>2026-07-07T10:04:11Z</time>
      </trkpt>
      <trkpt lat="42.96823" lon="0.30276">
        <ele>1522.3</ele>
        <time>2026-07-07T10:04:12Z</time>
      </trkpt>
      <trkpt lat="42.96823" lon="0.30277">
        <ele>1522.3</ele>
        <time>2026-07-07T10:04:13Z</time>
      </trkpt>
      <trkpt lat="42.96822" lon="0.30278">
        <ele>1522.3</ele>
        <time>2026-07-07T10:04:13Z</time>
      </trkpt>
      <trkpt lat="42.96822" lon="0.30279">
        <ele>1522.3</ele>
        <time>2026-07-07T10:04:14Z</time>
      </trkpt>
      <trkpt lat="42.96822" lon="0.3028">
        <ele>1522.3</ele>
        <time>2026-07-07T10:04:15Z</time>
      </trkpt>
      <trkpt lat="42.96821" lon="0.3028">
        <ele>1522.3</ele>
        <time>2026-07-07T10:04:15Z</time>
      </trkpt>
      <trkpt lat="42.96821" lon="0.30281">
        <ele>1522.3</ele>
        <time>2026-07-07T10:04:16Z</time>
      </trkpt>
      <trkpt lat="42.96821" lon="0.30281">
        <ele>1522.3</ele>
        <time>2026-07-07T10:04:16Z</time>
      </trkpt>
      <trkpt lat="42.96821" lon="0.30282">
        <ele>1522.3</ele>
        <time>2026-07-07T10:04:17Z</time>
      </trkpt>
      <trkpt lat="42.96821" lon="0.30283">
        <ele>1521.3</ele>
        <time>2026-07-07T10:04:18Z</time>
      </trkpt>
      <trkpt lat="42.96821" lon="0.30283">
        <ele>1521.3</ele>
        <time>2026-07-07T10:04:18Z</time>
      </trkpt>
      <trkpt lat="42.96821" lon="0.30284">
        <ele>1521.3</ele>
        <time>2026-07-07T10:04:19Z</time>
      </trkpt>
      <trkpt lat="42.96821" lon="0.30284">
        <ele>1521.3</ele>
        <time>2026-07-07T10:04:19Z</time>
      </trkpt>
      <trkpt lat="42.96821" lon="0.30285">
        <ele>1521.3</ele>
        <time>2026-07-07T10:04:20Z</time>
      </trkpt>
      <trkpt lat="42.96821" lon="0.30286">
        <ele>1520.3</ele>
        <time>2026-07-07T10:04:21Z</time>
      </trkpt>
      <trkpt lat="42.96824" lon="0.30281">
        <ele>1521.3</ele>
        <time>2026-07-07T10:04:21Z</time>
      </trkpt>
      <trkpt lat="42.96824" lon="0.30282">
        <ele>1520.3</ele>
        <time>2026-07-07T10:04:22Z</time>
      </trkpt>
      <trkpt lat="42.96824" lon="0.30283">
        <ele>1520.3</ele>
        <time>2026-07-07T10:04:23Z</time>
      </trkpt>
      <trkpt lat="42.96823" lon="0.30283">
        <ele>1521.3</ele>
        <time>2026-07-07T10:04:24Z</time>
      </trkpt>
      <trkpt lat="42.96823" lon="0.30283">
        <ele>1520.3</ele>
        <time>2026-07-07T10:04:25Z</time>
      </trkpt>
      <trkpt lat="42.96824" lon="0.30286">
        <ele>1520.3</ele>
        <time>2026-07-07T10:04:28Z</time>
      </trkpt>
      <trkpt lat="42.96823" lon="0.30287">
        <ele>1521.3</ele>
        <time>2026-07-07T10:04:29Z</time>
      </trkpt>
      <trkpt lat="42.96822" lon="0.30289">
        <ele>1521.3</ele>
        <time>2026-07-07T10:04:30Z</time>
      </trkpt>
      <trkpt lat="42.96822" lon="0.3029">
        <ele>1520.3</ele>
        <time>2026-07-07T10:04:31Z</time>
      </trkpt>
      <trkpt lat="42.96822" lon="0.3029">
        <ele>1520.3</ele>
        <time>2026-07-07T10:04:32Z</time>
      </trkpt>
      <trkpt lat="42.96821" lon="0.30289">
        <ele>1519.3</ele>
        <time>2026-07-07T10:04:33Z</time>
      </trkpt>
      <trkpt lat="42.96821" lon="0.30289">
        <ele>1517.3</ele>
        <time>2026-07-07T10:04:40Z</time>
      </trkpt>
      <trkpt lat="42.96822" lon="0.3029">
        <ele>1517.3</ele>
        <time>2026-07-07T10:04:41Z</time>
      </trkpt>
      <trkpt lat="42.96822" lon="0.30291">
        <ele>1516.3</ele>
        <time>2026-07-07T10:04:42Z</time>
      </trkpt>
      <trkpt lat="42.96822" lon="0.30292">
        <ele>1516.3</ele>
        <time>2026-07-07T10:04:43Z</time>
      </trkpt>
      <trkpt lat="42.96822" lon="0.30294">
        <ele>1516.3</ele>
        <time>2026-07-07T10:04:44Z</time>
      </trkpt>
      <trkpt lat="42.96821" lon="0.30295">
        <ele>1517.3</ele>
        <time>2026-07-07T10:04:45Z</time>
      </trkpt>
      <trkpt lat="42.96821" lon="0.30295">
        <ele>1516.3</ele>
        <time>2026-07-07T10:04:46Z</time>
      </trkpt>
      <trkpt lat="42.96821" lon="0.30295">
        <ele>1516.3</ele>
        <time>2026-07-07T10:04:47Z</time>
      </trkpt>
      <trkpt lat="42.96822" lon="0.30294">
        <ele>1515.3</ele>
        <time>2026-07-07T10:04:48Z</time>
      </trkpt>
      <trkpt lat="42.96822" lon="0.30294">
        <ele>1516.3</ele>
        <time>2026-07-07T10:04:49Z</time>
      </trkpt>
      <trkpt lat="42.96822" lon="0.30295">
        <ele>1516.3</ele>
        <time>2026-07-07T10:04:50Z</time>
      </trkpt>
      <trkpt lat="42.96822" lon="0.30296">
        <ele>1516.3</ele>
        <time>2026-07-07T10:04:51Z</time>
      </trkpt>
      <trkpt lat="42.96822" lon="0.30296">
        <ele>1517.3</ele>
        <time>2026-07-07T10:04:52Z</time>
      </trkpt>
      <trkpt lat="42.96822" lon="0.30297">
        <ele>1517.3</ele>
        <time>2026-07-07T10:04:53Z</time>
      </trkpt>
      <trkpt lat="42.96822" lon="0.30298">
        <ele>1517.3</ele>
        <time>2026-07-07T10:04:54Z</time>
      </trkpt>
      <trkpt lat="42.96822" lon="0.30297">
        <ele>1516.3</ele>
        <time>2026-07-07T10:04:55Z</time>
      </trkpt>
      <trkpt lat="42.96822" lon="0.30297">
        <ele>1516.3</ele>
        <time>2026-07-07T10:04:56Z</time>
      </trkpt>
      <trkpt lat="42.96821" lon="0.30298">
        <ele>1515.3</ele>
        <time>2026-07-07T10:04:57Z</time>
      </trkpt>
      <trkpt lat="42.96821" lon="0.30299">
        <ele>1515.3</ele>
        <time>2026-07-07T10:04:58Z</time>
      </trkpt>
      <trkpt lat="42.9682" lon="0.30299">
        <ele>1515.3</ele>
        <time>2026-07-07T10:04:59Z</time>
      </trkpt>
      <trkpt lat="42.96819" lon="0.30299">
        <ele>1514.3</ele>
        <time>2026-07-07T10:05:00Z</time>
      </trkpt>
      <trkpt lat="42.96818" lon="0.30299">
        <ele>1514.3</ele>
        <time>2026-07-07T10:05:01Z</time>
      </trkpt>
      <trkpt lat="42.96817" lon="0.30298">
        <ele>1514.3</ele>
        <time>2026-07-07T10:05:02Z</time>
      </trkpt>
      <trkpt lat="42.96817" lon="0.30299">
        <ele>1514.3</ele>
        <time>2026-07-07T10:05:03Z</time>
      </trkpt>
      <trkpt lat="42.96816" lon="0.30299">
        <ele>1514.3</ele>
        <time>2026-07-07T10:05:04Z</time>
      </trkpt>
      <trkpt lat="42.96816" lon="0.303">
        <ele>1514.3</ele>
        <time>2026-07-07T10:05:05Z</time>
      </trkpt>
      <trkpt lat="42.96816" lon="0.30302">
        <ele>1514.3</ele>
        <time>2026-07-07T10:05:06Z</time>
      </trkpt>
      <trkpt lat="42.96816" lon="0.30302">
        <ele>1513.3</ele>
        <time>2026-07-07T10:05:07Z</time>
      </trkpt>
      <trkpt lat="42.96815" lon="0.30302">
        <ele>1514.3</ele>
        <time>2026-07-07T10:05:08Z</time>
      </trkpt>
      <trkpt lat="42.96815" lon="0.30303">
        <ele>1513.3</ele>
        <time>2026-07-07T10:05:09Z</time>
      </trkpt>
      <trkpt lat="42.96814" lon="0.30304">
        <ele>1514.3</ele>
        <time>2026-07-07T10:05:10Z</time>
      </trkpt>
      <trkpt lat="42.96814" lon="0.30305">
        <ele>1515.3</ele>
        <time>2026-07-07T10:05:11Z</time>
      </trkpt>
      <trkpt lat="42.96813" lon="0.30306">
        <ele>1515.3</ele>
        <time>2026-07-07T10:05:12Z</time>
      </trkpt>
      <trkpt lat="42.96813" lon="0.30307">
        <ele>1514.3</ele>
        <time>2026-07-07T10:05:13Z</time>
      </trkpt>
      <trkpt lat="42.96813" lon="0.30307">
        <ele>1514.3</ele>
        <time>2026-07-07T10:05:14Z</time>
      </trkpt>
      <trkpt lat="42.96812" lon="0.30307">
        <ele>1513.3</ele>
        <time>2026-07-07T10:05:15Z</time>
      </trkpt>
      <trkpt lat="42.96811" lon="0.30308">
        <ele>1513.3</ele>
        <time>2026-07-07T10:05:16Z</time>
      </trkpt>
      <trkpt lat="42.9681" lon="0.30309">
        <ele>1513.3</ele>
        <time>2026-07-07T10:05:17Z</time>
      </trkpt>
      <trkpt lat="42.9681" lon="0.30309">
        <ele>1513.3</ele>
        <time>2026-07-07T10:05:18Z</time>
      </trkpt>
      <trkpt lat="42.96809" lon="0.30309">
        <ele>1513.3</ele>
        <time>2026-07-07T10:05:19Z</time>
      </trkpt>
      <trkpt lat="42.96809" lon="0.30309">
        <ele>1512.3</ele>
        <time>2026-07-07T10:05:20Z</time>
      </trkpt>
      <trkpt lat="42.96808" lon="0.30308">
        <ele>1512.3</ele>
        <time>2026-07-07T10:05:21Z</time>
      </trkpt>
      <trkpt lat="42.96808" lon="0.30309">
        <ele>1512.3</ele>
        <time>2026-07-07T10:05:22Z</time>
      </trkpt>
      <trkpt lat="42.96807" lon="0.30308">
        <ele>1512.3</ele>
        <time>2026-07-07T10:05:23Z</time>
      </trkpt>
      <trkpt lat="42.96807" lon="0.30308">
        <ele>1512.3</ele>
        <time>2026-07-07T10:05:24Z</time>
      </trkpt>
      <trkpt lat="42.96806" lon="0.30308">
        <ele>1512.3</ele>
        <time>2026-07-07T10:05:25Z</time>
      </trkpt>
      <trkpt lat="42.96805" lon="0.30307">
        <ele>1512.3</ele>
        <time>2026-07-07T10:05:26Z</time>
      </trkpt>
      <trkpt lat="42.96804" lon="0.30307">
        <ele>1512.3</ele>
        <time>2026-07-07T10:05:27Z</time>
      </trkpt>
      <trkpt lat="42.96803" lon="0.30307">
        <ele>1511.3</ele>
        <time>2026-07-07T10:05:28Z</time>
      </trkpt>
      <trkpt lat="42.96803" lon="0.30307">
        <ele>1511.3</ele>
        <time>2026-07-07T10:05:29Z</time>
      </trkpt>
      <trkpt lat="42.96802" lon="0.30307">
        <ele>1510.3</ele>
        <time>2026-07-07T10:05:30Z</time>
      </trkpt>
      <trkpt lat="42.96802" lon="0.30308">
        <ele>1510.3</ele>
        <time>2026-07-07T10:05:31Z</time>
      </trkpt>
      <trkpt lat="42.96803" lon="0.30309">
        <ele>1511.3</ele>
        <time>2026-07-07T10:05:32Z</time>
      </trkpt>
      <trkpt lat="42.96803" lon="0.30309">
        <ele>1510.3</ele>
        <time>2026-07-07T10:05:33Z</time>
      </trkpt>
      <trkpt lat="42.96803" lon="0.30309">
        <ele>1510.3</ele>
        <time>2026-07-07T10:05:34Z</time>
      </trkpt>
      <trkpt lat="42.96803" lon="0.30309">
        <ele>1510.3</ele>
        <time>2026-07-07T10:05:35Z</time>
      </trkpt>
      <trkpt lat="42.96803" lon="0.30309">
        <ele>1510.3</ele>
        <time>2026-07-07T10:05:36Z</time>
      </trkpt>
      <trkpt lat="42.96797" lon="0.30314">
        <ele>1510.3</ele>
        <time>2026-07-07T10:05:37Z</time>
      </trkpt>
      <trkpt lat="42.96795" lon="0.30315">
        <ele>1510.3</ele>
        <time>2026-07-07T10:05:37Z</time>
      </trkpt>
      <trkpt lat="42.96795" lon="0.30316">
        <ele>1510.3</ele>
        <time>2026-07-07T10:05:38Z</time>
      </trkpt>
      <trkpt lat="42.96794" lon="0.30316">
        <ele>1510.3</ele>
        <time>2026-07-07T10:05:39Z</time>
      </trkpt>
      <trkpt lat="42.96794" lon="0.30316">
        <ele>1510.3</ele>
        <time>2026-07-07T10:05:39Z</time>
      </trkpt>
      <trkpt lat="42.96793" lon="0.30317">
        <ele>1510.3</ele>
        <time>2026-07-07T10:05:40Z</time>
      </trkpt>
      <trkpt lat="42.96793" lon="0.30316">
        <ele>1510.3</ele>
        <time>2026-07-07T10:05:41Z</time>
      </trkpt>
      <trkpt lat="42.96792" lon="0.30316">
        <ele>1510.3</ele>
        <time>2026-07-07T10:05:41Z</time>
      </trkpt>
      <trkpt lat="42.96791" lon="0.30316">
        <ele>1510.3</ele>
        <time>2026-07-07T10:05:42Z</time>
      </trkpt>
      <trkpt lat="42.96791" lon="0.30316">
        <ele>1510.3</ele>
        <time>2026-07-07T10:05:43Z</time>
      </trkpt>
      <trkpt lat="42.9679" lon="0.30316">
        <ele>1510.3</ele>
        <time>2026-07-07T10:05:43Z</time>
      </trkpt>
      <trkpt lat="42.9679" lon="0.30316">
        <ele>1509.3</ele>
        <time>2026-07-07T10:05:44Z</time>
      </trkpt>
      <trkpt lat="42.9679" lon="0.30315">
        <ele>1509.3</ele>
        <time>2026-07-07T10:05:44Z</time>
      </trkpt>
      <trkpt lat="42.9679" lon="0.30315">
        <ele>1508.3</ele>
        <time>2026-07-07T10:05:45Z</time>
      </trkpt>
      <trkpt lat="42.96789" lon="0.30314">
        <ele>1508.3</ele>
        <time>2026-07-07T10:05:46Z</time>
      </trkpt>
      <trkpt lat="42.96788" lon="0.30313">
        <ele>1508.3</ele>
        <time>2026-07-07T10:05:47Z</time>
      </trkpt>
      <trkpt lat="42.96786" lon="0.30313">
        <ele>1507.3</ele>
        <time>2026-07-07T10:05:48Z</time>
      </trkpt>
      <trkpt lat="42.96786" lon="0.30314">
        <ele>1507.3</ele>
        <time>2026-07-07T10:05:49Z</time>
      </trkpt>
      <trkpt lat="42.96788" lon="0.30313">
        <ele>1506.3</ele>
        <time>2026-07-07T10:05:50Z</time>
      </trkpt>
      <trkpt lat="42.9679" lon="0.30313">
        <ele>1506.3</ele>
        <time>2026-07-07T10:05:51Z</time>
      </trkpt>
      <trkpt lat="42.9679" lon="0.30313">
        <ele>1506.3</ele>
        <time>2026-07-07T10:05:52Z</time>
      </trkpt>
      <trkpt lat="42.9679" lon="0.30312">
        <ele>1506.3</ele>
        <time>2026-07-07T10:05:53Z</time>
      </trkpt>
      <trkpt lat="42.96791" lon="0.30312">
        <ele>1505.3</ele>
        <time>2026-07-07T10:05:54Z</time>
      </trkpt>
      <trkpt lat="42.96791" lon="0.30312">
        <ele>1505.3</ele>
        <time>2026-07-07T10:05:54Z</time>
      </trkpt>
      <trkpt lat="42.96791" lon="0.30312">
        <ele>1505.3</ele>
        <time>2026-07-07T10:05:55Z</time>
      </trkpt>
      <trkpt lat="42.96791" lon="0.30311">
        <ele>1505.3</ele>
        <time>2026-07-07T10:05:56Z</time>
      </trkpt>
      <trkpt lat="42.96791" lon="0.30311">
        <ele>1505.3</ele>
        <time>2026-07-07T10:05:57Z</time>
      </trkpt>
      <trkpt lat="42.96791" lon="0.30311">
        <ele>1505.3</ele>
        <time>2026-07-07T10:05:57Z</time>
      </trkpt>
      <trkpt lat="42.96791" lon="0.30311">
        <ele>1505.3</ele>
        <time>2026-07-07T10:05:58Z</time>
      </trkpt>
      <trkpt lat="42.96791" lon="0.3031">
        <ele>1505.3</ele>
        <time>2026-07-07T10:05:58Z</time>
      </trkpt>
      <trkpt lat="42.9679" lon="0.30309">
        <ele>1505.3</ele>
        <time>2026-07-07T10:05:59Z</time>
      </trkpt>
      <trkpt lat="42.96789" lon="0.30308">
        <ele>1505.3</ele>
        <time>2026-07-07T10:06:00Z</time>
      </trkpt>
      <trkpt lat="42.96789" lon="0.30307">
        <ele>1506.3</ele>
        <time>2026-07-07T10:06:01Z</time>
      </trkpt>
      <trkpt lat="42.96789" lon="0.30307">
        <ele>1506.3</ele>
        <time>2026-07-07T10:06:01Z</time>
      </trkpt>
      <trkpt lat="42.96788" lon="0.30306">
        <ele>1506.3</ele>
        <time>2026-07-07T10:06:02Z</time>
      </trkpt>
      <trkpt lat="42.96788" lon="0.30306">
        <ele>1505.3</ele>
        <time>2026-07-07T10:06:02Z</time>
      </trkpt>
      <trkpt lat="42.96788" lon="0.30306">
        <ele>1505.3</ele>
        <time>2026-07-07T10:06:03Z</time>
      </trkpt>
      <trkpt lat="42.96788" lon="0.30306">
        <ele>1505.3</ele>
        <time>2026-07-07T10:06:04Z</time>
      </trkpt>
      <trkpt lat="42.96788" lon="0.30306">
        <ele>1505.3</ele>
        <time>2026-07-07T10:06:04Z</time>
      </trkpt>
      <trkpt lat="42.96788" lon="0.30305">
        <ele>1505.3</ele>
        <time>2026-07-07T10:06:05Z</time>
      </trkpt>
      <trkpt lat="42.96787" lon="0.30305">
        <ele>1505.3</ele>
        <time>2026-07-07T10:06:06Z</time>
      </trkpt>
      <trkpt lat="42.96788" lon="0.30305">
        <ele>1504.3</ele>
        <time>2026-07-07T10:06:07Z</time>
      </trkpt>
      <trkpt lat="42.96788" lon="0.30305">
        <ele>1504.3</ele>
        <time>2026-07-07T10:06:08Z</time>
      </trkpt>
      <trkpt lat="42.96789" lon="0.30306">
        <ele>1504.3</ele>
        <time>2026-07-07T10:06:09Z</time>
      </trkpt>
      <trkpt lat="42.96789" lon="0.30306">
        <ele>1504.3</ele>
        <time>2026-07-07T10:06:10Z</time>
      </trkpt>
      <trkpt lat="42.9679" lon="0.30307">
        <ele>1503.3</ele>
        <time>2026-07-07T10:06:11Z</time>
      </trkpt>
      <trkpt lat="42.9679" lon="0.30307">
        <ele>1503.3</ele>
        <time>2026-07-07T10:06:12Z</time>
      </trkpt>
      <trkpt lat="42.9679" lon="0.30307">
        <ele>1502.3</ele>
        <time>2026-07-07T10:06:12Z</time>
      </trkpt>
      <trkpt lat="42.9679" lon="0.30307">
        <ele>1502.3</ele>
        <time>2026-07-07T10:06:13Z</time>
      </trkpt>
      <trkpt lat="42.9679" lon="0.30307">
        <ele>1504.3</ele>
        <time>2026-07-07T10:06:14Z</time>
      </trkpt>
      <trkpt lat="42.96791" lon="0.30307">
        <ele>1504.3</ele>
        <time>2026-07-07T10:06:15Z</time>
      </trkpt>
      <trkpt lat="42.96791" lon="0.30307">
        <ele>1504.3</ele>
        <time>2026-07-07T10:06:16Z</time>
      </trkpt>
      <trkpt lat="42.96791" lon="0.30307">
        <ele>1504.3</ele>
        <time>2026-07-07T10:06:17Z</time>
      </trkpt>
      <trkpt lat="42.96791" lon="0.30306">
        <ele>1504.3</ele>
        <time>2026-07-07T10:06:18Z</time>
      </trkpt>
      <trkpt lat="42.96791" lon="0.30306">
        <ele>1504.3</ele>
        <time>2026-07-07T10:06:19Z</time>
      </trkpt>
      <trkpt lat="42.96791" lon="0.30306">
        <ele>1504.3</ele>
        <time>2026-07-07T10:06:20Z</time>
      </trkpt>
      <trkpt lat="42.96792" lon="0.30306">
        <ele>1504.3</ele>
        <time>2026-07-07T10:06:21Z</time>
      </trkpt>
      <trkpt lat="42.96792" lon="0.30306">
        <ele>1504.3</ele>
        <time>2026-07-07T10:06:22Z</time>
      </trkpt>
      <trkpt lat="42.96792" lon="0.30306">
        <ele>1504.3</ele>
        <time>2026-07-07T10:06:23Z</time>
      </trkpt>
      <trkpt lat="42.96792" lon="0.30305">
        <ele>1504.3</ele>
        <time>2026-07-07T10:06:24Z</time>
      </trkpt>
      <trkpt lat="42.96792" lon="0.30305">
        <ele>1504.3</ele>
        <time>2026-07-07T10:06:25Z</time>
      </trkpt>
      <trkpt lat="42.96793" lon="0.30305">
        <ele>1504.3</ele>
        <time>2026-07-07T10:06:26Z</time>
      </trkpt>
      <trkpt lat="42.96793" lon="0.30305">
        <ele>1504.3</ele>
        <time>2026-07-07T10:06:27Z</time>
      </trkpt>
      <trkpt lat="42.96793" lon="0.30305">
        <ele>1504.3</ele>
        <time>2026-07-07T10:06:28Z</time>
      </trkpt>
      <trkpt lat="42.96793" lon="0.30305">
        <ele>1504.3</ele>
        <time>2026-07-07T10:06:29Z</time>
      </trkpt>
      <trkpt lat="42.96793" lon="0.30305">
        <ele>1504.3</ele>
        <time>2026-07-07T10:06:30Z</time>
      </trkpt>
      <trkpt lat="42.96793" lon="0.30305">
        <ele>1504.3</ele>
        <time>2026-07-07T10:06:31Z</time>
      </trkpt>
      <trkpt lat="42.96793" lon="0.30305">
        <ele>1504.3</ele>
        <time>2026-07-07T10:06:32Z</time>
      </trkpt>
      <trkpt lat="42.96793" lon="0.30305">
        <ele>1505.3</ele>
        <time>2026-07-07T10:06:33Z</time>
      </trkpt>
      <trkpt lat="42.96793" lon="0.30305">
        <ele>1505.3</ele>
        <time>2026-07-07T10:06:34Z</time>
      </trkpt>
      <trkpt lat="42.96793" lon="0.30305">
        <ele>1505.3</ele>
        <time>2026-07-07T10:06:35Z</time>
      </trkpt>
      <trkpt lat="42.96793" lon="0.30305">
        <ele>1505.3</ele>
        <time>2026-07-07T10:06:36Z</time>
      </trkpt>
      <trkpt lat="42.96794" lon="0.30305">
        <ele>1505.3</ele>
        <time>2026-07-07T10:06:37Z</time>
      </trkpt>
      <trkpt lat="42.96794" lon="0.30305">
        <ele>1505.3</ele>
        <time>2026-07-07T10:06:38Z</time>
      </trkpt>
      <trkpt lat="42.96794" lon="0.30305">
        <ele>1505.3</ele>
        <time>2026-07-07T10:06:39Z</time>
      </trkpt>
      <trkpt lat="42.96794" lon="0.30305">
        <ele>1505.3</ele>
        <time>2026-07-07T10:06:40Z</time>
      </trkpt>
      <trkpt lat="42.96794" lon="0.30306">
        <ele>1504.3</ele>
        <time>2026-07-07T10:06:41Z</time>
      </trkpt>
      <trkpt lat="42.96794" lon="0.30306">
        <ele>1503.3</ele>
        <time>2026-07-07T10:06:42Z</time>
      </trkpt>
      <trkpt lat="42.96794" lon="0.30306">
        <ele>1503.3</ele>
        <time>2026-07-07T10:06:42Z</time>
      </trkpt>
      <trkpt lat="42.96794" lon="0.30306">
        <ele>1502.3</ele>
        <time>2026-07-07T10:06:43Z</time>
      </trkpt>
      <trkpt lat="42.96794" lon="0.30306">
        <ele>1502.3</ele>
        <time>2026-07-07T10:06:44Z</time>
      </trkpt>
      <trkpt lat="42.96794" lon="0.30306">
        <ele>1502.3</ele>
        <time>2026-07-07T10:06:45Z</time>
      </trkpt>
      <trkpt lat="42.96794" lon="0.30306">
        <ele>1502.3</ele>
        <time>2026-07-07T10:06:46Z</time>
      </trkpt>
      <trkpt lat="42.96793" lon="0.30306">
        <ele>1502.3</ele>
        <time>2026-07-07T10:06:47Z</time>
      </trkpt>
      <trkpt lat="42.96793" lon="0.30306">
        <ele>1502.3</ele>
        <time>2026-07-07T10:06:48Z</time>
      </trkpt>
      <trkpt lat="42.96793" lon="0.30306">
        <ele>1502.3</ele>
        <time>2026-07-07T10:06:48Z</time>
      </trkpt>
      <trkpt lat="42.96793" lon="0.30306">
        <ele>1502.3</ele>
        <time>2026-07-07T10:06:49Z</time>
      </trkpt>
      <trkpt lat="42.96793" lon="0.30306">
        <ele>1501.3</ele>
        <time>2026-07-07T10:06:50Z</time>
      </trkpt>
      <trkpt lat="42.96793" lon="0.30307">
        <ele>1501.3</ele>
        <time>2026-07-07T10:06:51Z</time>
      </trkpt>
      <trkpt lat="42.96792" lon="0.30307">
        <ele>1501.3</ele>
        <time>2026-07-07T10:06:52Z</time>
      </trkpt>
      <trkpt lat="42.96792" lon="0.30307">
        <ele>1500.3</ele>
        <time>2026-07-07T10:06:53Z</time>
      </trkpt>
      <trkpt lat="42.96792" lon="0.30308">
        <ele>1500.3</ele>
        <time>2026-07-07T10:06:53Z</time>
      </trkpt>
      <trkpt lat="42.96791" lon="0.30309">
        <ele>1500.3</ele>
        <time>2026-07-07T10:06:54Z</time>
      </trkpt>
      <trkpt lat="42.9679" lon="0.3031">
        <ele>1500.3</ele>
        <time>2026-07-07T10:06:54Z</time>
      </trkpt>
      <trkpt lat="42.96789" lon="0.3031">
        <ele>1500.3</ele>
        <time>2026-07-07T10:06:55Z</time>
      </trkpt>
      <trkpt lat="42.96788" lon="0.30311">
        <ele>1500.3</ele>
        <time>2026-07-07T10:06:56Z</time>
      </trkpt>
      <trkpt lat="42.96787" lon="0.30312">
        <ele>1499.3</ele>
        <time>2026-07-07T10:06:56Z</time>
      </trkpt>
      <trkpt lat="42.96786" lon="0.30313">
        <ele>1499.3</ele>
        <time>2026-07-07T10:06:57Z</time>
      </trkpt>
      <trkpt lat="42.96786" lon="0.30313">
        <ele>1499.3</ele>
        <time>2026-07-07T10:06:58Z</time>
      </trkpt>
      <trkpt lat="42.96784" lon="0.30313">
        <ele>1499.3</ele>
        <time>2026-07-07T10:06:59Z</time>
      </trkpt>
      <trkpt lat="42.96784" lon="0.30313">
        <ele>1499.3</ele>
        <time>2026-07-07T10:06:59Z</time>
      </trkpt>
      <trkpt lat="42.96783" lon="0.30314">
        <ele>1499.3</ele>
        <time>2026-07-07T10:07:00Z</time>
      </trkpt>
      <trkpt lat="42.96782" lon="0.30314">
        <ele>1499.3</ele>
        <time>2026-07-07T10:07:01Z</time>
      </trkpt>
      <trkpt lat="42.96781" lon="0.30314">
        <ele>1498.3</ele>
        <time>2026-07-07T10:07:02Z</time>
      </trkpt>
      <trkpt lat="42.9678" lon="0.30314">
        <ele>1498.3</ele>
        <time>2026-07-07T10:07:02Z</time>
      </trkpt>
      <trkpt lat="42.9678" lon="0.30315">
        <ele>1498.3</ele>
        <time>2026-07-07T10:07:03Z</time>
      </trkpt>
      <trkpt lat="42.9678" lon="0.30316">
        <ele>1498.3</ele>
        <time>2026-07-07T10:07:04Z</time>
      </trkpt>
      <trkpt lat="42.9678" lon="0.30317">
        <ele>1499.3</ele>
        <time>2026-07-07T10:07:04Z</time>
      </trkpt>
      <trkpt lat="42.9678" lon="0.30317">
        <ele>1499.3</ele>
        <time>2026-07-07T10:07:05Z</time>
      </trkpt>
      <trkpt lat="42.9678" lon="0.30318">
        <ele>1499.3</ele>
        <time>2026-07-07T10:07:06Z</time>
      </trkpt>
      <trkpt lat="42.9678" lon="0.30319">
        <ele>1499.3</ele>
        <time>2026-07-07T10:07:06Z</time>
      </trkpt>
      <trkpt lat="42.96779" lon="0.30319">
        <ele>1499.3</ele>
        <time>2026-07-07T10:07:07Z</time>
      </trkpt>
      <trkpt lat="42.96779" lon="0.3032">
        <ele>1499.3</ele>
        <time>2026-07-07T10:07:07Z</time>
      </trkpt>
      <trkpt lat="42.96779" lon="0.3032">
        <ele>1499.3</ele>
        <time>2026-07-07T10:07:08Z</time>
      </trkpt>
      <trkpt lat="42.96778" lon="0.3032">
        <ele>1498.3</ele>
        <time>2026-07-07T10:07:09Z</time>
      </trkpt>
      <trkpt lat="42.96777" lon="0.3032">
        <ele>1498.3</ele>
        <time>2026-07-07T10:07:10Z</time>
      </trkpt>
      <trkpt lat="42.96777" lon="0.30319">
        <ele>1498.3</ele>
        <time>2026-07-07T10:07:11Z</time>
      </trkpt>
      <trkpt lat="42.96777" lon="0.30319">
        <ele>1497.3</ele>
        <time>2026-07-07T10:07:12Z</time>
      </trkpt>
      <trkpt lat="42.96777" lon="0.30318">
        <ele>1497.3</ele>
        <time>2026-07-07T10:07:13Z</time>
      </trkpt>
      <trkpt lat="42.96778" lon="0.30318">
        <ele>1498.3</ele>
        <time>2026-07-07T10:07:14Z</time>
      </trkpt>
      <trkpt lat="42.96778" lon="0.30318">
        <ele>1498.3</ele>
        <time>2026-07-07T10:07:15Z</time>
      </trkpt>
      <trkpt lat="42.96778" lon="0.30318">
        <ele>1498.3</ele>
        <time>2026-07-07T10:07:16Z</time>
      </trkpt>
      <trkpt lat="42.96777" lon="0.30318">
        <ele>1498.3</ele>
        <time>2026-07-07T10:07:17Z</time>
      </trkpt>
      <trkpt lat="42.96777" lon="0.30318">
        <ele>1498.3</ele>
        <time>2026-07-07T10:07:18Z</time>
      </trkpt>
      <trkpt lat="42.96777" lon="0.30318">
        <ele>1498.3</ele>
        <time>2026-07-07T10:07:18Z</time>
      </trkpt>
      <trkpt lat="42.96777" lon="0.30318">
        <ele>1497.3</ele>
        <time>2026-07-07T10:07:19Z</time>
      </trkpt>
      <trkpt lat="42.96777" lon="0.30319">
        <ele>1496.3</ele>
        <time>2026-07-07T10:07:19Z</time>
      </trkpt>
      <trkpt lat="42.96777" lon="0.30319">
        <ele>1496.3</ele>
        <time>2026-07-07T10:07:20Z</time>
      </trkpt>
      <trkpt lat="42.96777" lon="0.30319">
        <ele>1496.3</ele>
        <time>2026-07-07T10:07:21Z</time>
      </trkpt>
      <trkpt lat="42.96777" lon="0.30319">
        <ele>1496.3</ele>
        <time>2026-07-07T10:07:21Z</time>
      </trkpt>
      <trkpt lat="42.96776" lon="0.30319">
        <ele>1496.3</ele>
        <time>2026-07-07T10:07:22Z</time>
      </trkpt>
      <trkpt lat="42.96776" lon="0.30318">
        <ele>1496.3</ele>
        <time>2026-07-07T10:07:23Z</time>
      </trkpt>
      <trkpt lat="42.96776" lon="0.30318">
        <ele>1496.3</ele>
        <time>2026-07-07T10:07:24Z</time>
      </trkpt>
      <trkpt lat="42.96776" lon="0.30318">
        <ele>1496.3</ele>
        <time>2026-07-07T10:07:25Z</time>
      </trkpt>
      <trkpt lat="42.96776" lon="0.30318">
        <ele>1496.3</ele>
        <time>2026-07-07T10:07:26Z</time>
      </trkpt>
      <trkpt lat="42.96776" lon="0.30318">
        <ele>1496.3</ele>
        <time>2026-07-07T10:07:26Z</time>
      </trkpt>
      <trkpt lat="42.96776" lon="0.30318">
        <ele>1496.3</ele>
        <time>2026-07-07T10:07:27Z</time>
      </trkpt>
      <trkpt lat="42.96776" lon="0.30318">
        <ele>1496.3</ele>
        <time>2026-07-07T10:07:28Z</time>
      </trkpt>
      <trkpt lat="42.96776" lon="0.30318">
        <ele>1496.3</ele>
        <time>2026-07-07T10:07:29Z</time>
      </trkpt>
      <trkpt lat="42.96776" lon="0.30318">
        <ele>1496.3</ele>
        <time>2026-07-07T10:07:30Z</time>
      </trkpt>
      <trkpt lat="42.96775" lon="0.30318">
        <ele>1496.3</ele>
        <time>2026-07-07T10:07:31Z</time>
      </trkpt>
      <trkpt lat="42.96775" lon="0.30318">
        <ele>1496.3</ele>
        <time>2026-07-07T10:07:32Z</time>
      </trkpt>
      <trkpt lat="42.96775" lon="0.30318">
        <ele>1496.3</ele>
        <time>2026-07-07T10:07:33Z</time>
      </trkpt>
      <trkpt lat="42.96775" lon="0.30318">
        <ele>1495.3</ele>
        <time>2026-07-07T10:07:33Z</time>
      </trkpt>
      <trkpt lat="42.96775" lon="0.30317">
        <ele>1495.3</ele>
        <time>2026-07-07T10:07:34Z</time>
      </trkpt>
      <trkpt lat="42.96775" lon="0.30317">
        <ele>1495.3</ele>
        <time>2026-07-07T10:07:35Z</time>
      </trkpt>
      <trkpt lat="42.96775" lon="0.30317">
        <ele>1495.3</ele>
        <time>2026-07-07T10:07:36Z</time>
      </trkpt>
      <trkpt lat="42.96775" lon="0.30317">
        <ele>1495.3</ele>
        <time>2026-07-07T10:07:37Z</time>
      </trkpt>
      <trkpt lat="42.96775" lon="0.30317">
        <ele>1495.3</ele>
        <time>2026-07-07T10:07:37Z</time>
      </trkpt>
      <trkpt lat="42.96775" lon="0.30317">
        <ele>1495.3</ele>
        <time>2026-07-07T10:07:38Z</time>
      </trkpt>
      <trkpt lat="42.96775" lon="0.30317">
        <ele>1495.3</ele>
        <time>2026-07-07T10:07:39Z</time>
      </trkpt>
      <trkpt lat="42.96775" lon="0.30317">
        <ele>1495.3</ele>
        <time>2026-07-07T10:07:40Z</time>
      </trkpt>
      <trkpt lat="42.96774" lon="0.30317">
        <ele>1495.3</ele>
        <time>2026-07-07T10:07:40Z</time>
      </trkpt>
      <trkpt lat="42.96774" lon="0.30317">
        <ele>1495.3</ele>
        <time>2026-07-07T10:07:41Z</time>
      </trkpt>
      <trkpt lat="42.96774" lon="0.30317">
        <ele>1493.3</ele>
        <time>2026-07-07T10:07:42Z</time>
      </trkpt>
      <trkpt lat="42.96774" lon="0.30317">
        <ele>1493.3</ele>
        <time>2026-07-07T10:07:43Z</time>
      </trkpt>
      <trkpt lat="42.96774" lon="0.30317">
        <ele>1494.3</ele>
        <time>2026-07-07T10:07:44Z</time>
      </trkpt>
      <trkpt lat="42.96774" lon="0.30317">
        <ele>1494.3</ele>
        <time>2026-07-07T10:07:44Z</time>
      </trkpt>
      <trkpt lat="42.96774" lon="0.30317">
        <ele>1494.3</ele>
        <time>2026-07-07T10:07:45Z</time>
      </trkpt>
      <trkpt lat="42.96774" lon="0.30317">
        <ele>1493.3</ele>
        <time>2026-07-07T10:07:45Z</time>
      </trkpt>
      <trkpt lat="42.96774" lon="0.30317">
        <ele>1493.3</ele>
        <time>2026-07-07T10:07:46Z</time>
      </trkpt>
      <trkpt lat="42.96773" lon="0.30317">
        <ele>1493.3</ele>
        <time>2026-07-07T10:07:47Z</time>
      </trkpt>
      <trkpt lat="42.96773" lon="0.30317">
        <ele>1493.3</ele>
        <time>2026-07-07T10:07:47Z</time>
      </trkpt>
      <trkpt lat="42.96773" lon="0.30317">
        <ele>1493.3</ele>
        <time>2026-07-07T10:07:48Z</time>
      </trkpt>
      <trkpt lat="42.96773" lon="0.30316">
        <ele>1492.3</ele>
        <time>2026-07-07T10:07:49Z</time>
      </trkpt>
      <trkpt lat="42.96773" lon="0.30316">
        <ele>1492.3</ele>
        <time>2026-07-07T10:07:50Z</time>
      </trkpt>
      <trkpt lat="42.96773" lon="0.30316">
        <ele>1492.3</ele>
        <time>2026-07-07T10:07:51Z</time>
      </trkpt>
      <trkpt lat="42.96772" lon="0.30315">
        <ele>1491.3</ele>
        <time>2026-07-07T10:07:52Z</time>
      </trkpt>
      <trkpt lat="42.9677" lon="0.30309">
        <ele>1491.3</ele>
        <time>2026-07-07T10:07:52Z</time>
      </trkpt>
      <trkpt lat="42.9677" lon="0.30309">
        <ele>1490.3</ele>
        <time>2026-07-07T10:07:53Z</time>
      </trkpt>
      <trkpt lat="42.9677" lon="0.30308">
        <ele>1490.3</ele>
        <time>2026-07-07T10:07:54Z</time>
      </trkpt>
      <trkpt lat="42.9677" lon="0.30309">
        <ele>1489.3</ele>
        <time>2026-07-07T10:07:55Z</time>
      </trkpt>
      <trkpt lat="42.96771" lon="0.30309">
        <ele>1489.3</ele>
        <time>2026-07-07T10:07:56Z</time>
      </trkpt>
      <trkpt lat="42.96771" lon="0.30309">
        <ele>1489.3</ele>
        <time>2026-07-07T10:07:57Z</time>
      </trkpt>
      <trkpt lat="42.9677" lon="0.30309">
        <ele>1488.3</ele>
        <time>2026-07-07T10:07:58Z</time>
      </trkpt>
      <trkpt lat="42.96771" lon="0.30308">
        <ele>1487.3</ele>
        <time>2026-07-07T10:07:59Z</time>
      </trkpt>
      <trkpt lat="42.96771" lon="0.30309">
        <ele>1487.3</ele>
        <time>2026-07-07T10:08:00Z</time>
      </trkpt>
      <trkpt lat="42.9677" lon="0.3031">
        <ele>1486.3</ele>
        <time>2026-07-07T10:08:01Z</time>
      </trkpt>
      <trkpt lat="42.96769" lon="0.3031">
        <ele>1486.3</ele>
        <time>2026-07-07T10:08:02Z</time>
      </trkpt>
      <trkpt lat="42.96769" lon="0.3031">
        <ele>1485.3</ele>
        <time>2026-07-07T10:08:03Z</time>
      </trkpt>
      <trkpt lat="42.96768" lon="0.3031">
        <ele>1485.3</ele>
        <time>2026-07-07T10:08:04Z</time>
      </trkpt>
      <trkpt lat="42.96768" lon="0.30309">
        <ele>1485.3</ele>
        <time>2026-07-07T10:08:05Z</time>
      </trkpt>
      <trkpt lat="42.96766" lon="0.30311">
        <ele>1485.3</ele>
        <time>2026-07-07T10:08:06Z</time>
      </trkpt>
      <trkpt lat="42.96765" lon="0.30312">
        <ele>1484.3</ele>
        <time>2026-07-07T10:08:07Z</time>
      </trkpt>
      <trkpt lat="42.96766" lon="0.30313">
        <ele>1483.3</ele>
        <time>2026-07-07T10:08:08Z</time>
      </trkpt>
      <trkpt lat="42.96766" lon="0.30314">
        <ele>1482.3</ele>
        <time>2026-07-07T10:08:09Z</time>
      </trkpt>
      <trkpt lat="42.96766" lon="0.30314">
        <ele>1482.3</ele>
        <time>2026-07-07T10:08:10Z</time>
      </trkpt>
      <trkpt lat="42.96765" lon="0.30315">
        <ele>1482.3</ele>
        <time>2026-07-07T10:08:11Z</time>
      </trkpt>
      <trkpt lat="42.96764" lon="0.30314">
        <ele>1482.3</ele>
        <time>2026-07-07T10:08:12Z</time>
      </trkpt>
      <trkpt lat="42.96763" lon="0.30314">
        <ele>1482.3</ele>
        <time>2026-07-07T10:08:13Z</time>
      </trkpt>
      <trkpt lat="42.96763" lon="0.30314">
        <ele>1482.3</ele>
        <time>2026-07-07T10:08:14Z</time>
      </trkpt>
      <trkpt lat="42.96762" lon="0.30313">
        <ele>1482.3</ele>
        <time>2026-07-07T10:08:15Z</time>
      </trkpt>
      <trkpt lat="42.96762" lon="0.30312">
        <ele>1482.3</ele>
        <time>2026-07-07T10:08:16Z</time>
      </trkpt>
      <trkpt lat="42.96761" lon="0.30311">
        <ele>1483.3</ele>
        <time>2026-07-07T10:08:17Z</time>
      </trkpt>
      <trkpt lat="42.96761" lon="0.30311">
        <ele>1484.3</ele>
        <time>2026-07-07T10:08:18Z</time>
      </trkpt>
      <trkpt lat="42.96761" lon="0.30311">
        <ele>1484.3</ele>
        <time>2026-07-07T10:08:19Z</time>
      </trkpt>
      <trkpt lat="42.96761" lon="0.30311">
        <ele>1484.3</ele>
        <time>2026-07-07T10:08:20Z</time>
      </trkpt>
      <trkpt lat="42.96761" lon="0.30311">
        <ele>1484.3</ele>
        <time>2026-07-07T10:08:21Z</time>
      </trkpt>
      <trkpt lat="42.9676" lon="0.3031">
        <ele>1483.3</ele>
        <time>2026-07-07T10:08:22Z</time>
      </trkpt>
      <trkpt lat="42.9676" lon="0.30311">
        <ele>1483.3</ele>
        <time>2026-07-07T10:08:23Z</time>
      </trkpt>
      <trkpt lat="42.9676" lon="0.30312">
        <ele>1484.3</ele>
        <time>2026-07-07T10:08:24Z</time>
      </trkpt>
      <trkpt lat="42.9676" lon="0.30312">
        <ele>1484.3</ele>
        <time>2026-07-07T10:08:25Z</time>
      </trkpt>
      <trkpt lat="42.9676" lon="0.30312">
        <ele>1483.3</ele>
        <time>2026-07-07T10:08:26Z</time>
      </trkpt>
      <trkpt lat="42.9676" lon="0.30312">
        <ele>1484.3</ele>
        <time>2026-07-07T10:08:27Z</time>
      </trkpt>
      <trkpt lat="42.9676" lon="0.30312">
        <ele>1484.3</ele>
        <time>2026-07-07T10:08:28Z</time>
      </trkpt>
      <trkpt lat="42.9676" lon="0.30311">
        <ele>1484.3</ele>
        <time>2026-07-07T10:08:29Z</time>
      </trkpt>
      <trkpt lat="42.9676" lon="0.30311">
        <ele>1484.3</ele>
        <time>2026-07-07T10:08:30Z</time>
      </trkpt>
      <trkpt lat="42.9676" lon="0.30311">
        <ele>1484.3</ele>
        <time>2026-07-07T10:08:31Z</time>
      </trkpt>
      <trkpt lat="42.9676" lon="0.30311">
        <ele>1484.3</ele>
        <time>2026-07-07T10:08:32Z</time>
      </trkpt>
      <trkpt lat="42.9676" lon="0.30308">
        <ele>1483.3</ele>
        <time>2026-07-07T10:08:33Z</time>
      </trkpt>
      <trkpt lat="42.96759" lon="0.30308">
        <ele>1483.3</ele>
        <time>2026-07-07T10:08:34Z</time>
      </trkpt>
      <trkpt lat="42.96757" lon="0.30307">
        <ele>1482.3</ele>
        <time>2026-07-07T10:08:35Z</time>
      </trkpt>
      <trkpt lat="42.96758" lon="0.30307">
        <ele>1481.3</ele>
        <time>2026-07-07T10:08:36Z</time>
      </trkpt>
      <trkpt lat="42.96757" lon="0.30307">
        <ele>1481.3</ele>
        <time>2026-07-07T10:08:37Z</time>
      </trkpt>
      <trkpt lat="42.96756" lon="0.30306">
        <ele>1480.3</ele>
        <time>2026-07-07T10:08:38Z</time>
      </trkpt>
      <trkpt lat="42.96755" lon="0.30306">
        <ele>1481.3</ele>
        <time>2026-07-07T10:08:39Z</time>
      </trkpt>
      <trkpt lat="42.96754" lon="0.30306">
        <ele>1481.3</ele>
        <time>2026-07-07T10:08:40Z</time>
      </trkpt>
      <trkpt lat="42.96754" lon="0.30306">
        <ele>1481.3</ele>
        <time>2026-07-07T10:08:41Z</time>
      </trkpt>
      <trkpt lat="42.96754" lon="0.30306">
        <ele>1480.3</ele>
        <time>2026-07-07T10:08:42Z</time>
      </trkpt>
      <trkpt lat="42.96754" lon="0.30306">
        <ele>1481.3</ele>
        <time>2026-07-07T10:08:43Z</time>
      </trkpt>
      <trkpt lat="42.96753" lon="0.30306">
        <ele>1479.3</ele>
        <time>2026-07-07T10:08:44Z</time>
      </trkpt>
      <trkpt lat="42.96753" lon="0.30306">
        <ele>1480.3</ele>
        <time>2026-07-07T10:08:45Z</time>
      </trkpt>
      <trkpt lat="42.96753" lon="0.30306">
        <ele>1480.3</ele>
        <time>2026-07-07T10:08:46Z</time>
      </trkpt>
      <trkpt lat="42.96752" lon="0.30306">
        <ele>1480.3</ele>
        <time>2026-07-07T10:08:47Z</time>
      </trkpt>
      <trkpt lat="42.96752" lon="0.30305">
        <ele>1481.3</ele>
        <time>2026-07-07T10:08:48Z</time>
      </trkpt>
      <trkpt lat="42.96751" lon="0.30304">
        <ele>1481.3</ele>
        <time>2026-07-07T10:08:49Z</time>
      </trkpt>
      <trkpt lat="42.96751" lon="0.30303">
        <ele>1482.3</ele>
        <time>2026-07-07T10:08:50Z</time>
      </trkpt>
      <trkpt lat="42.9675" lon="0.30303">
        <ele>1482.3</ele>
        <time>2026-07-07T10:08:51Z</time>
      </trkpt>
      <trkpt lat="42.9675" lon="0.30303">
        <ele>1482.3</ele>
        <time>2026-07-07T10:08:52Z</time>
      </trkpt>
      <trkpt lat="42.9675" lon="0.30303">
        <ele>1482.3</ele>
        <time>2026-07-07T10:08:53Z</time>
      </trkpt>
      <trkpt lat="42.9675" lon="0.30303">
        <ele>1482.3</ele>
        <time>2026-07-07T10:08:54Z</time>
      </trkpt>
      <trkpt lat="42.96749" lon="0.30303">
        <ele>1482.3</ele>
        <time>2026-07-07T10:08:55Z</time>
      </trkpt>
      <trkpt lat="42.96749" lon="0.30304">
        <ele>1482.3</ele>
        <time>2026-07-07T10:08:56Z</time>
      </trkpt>
      <trkpt lat="42.96749" lon="0.30304">
        <ele>1482.3</ele>
        <time>2026-07-07T10:08:57Z</time>
      </trkpt>
      <trkpt lat="42.96749" lon="0.30304">
        <ele>1482.3</ele>
        <time>2026-07-07T10:08:58Z</time>
      </trkpt>
      <trkpt lat="42.96747" lon="0.30304">
        <ele>1483.3</ele>
        <time>2026-07-07T10:08:59Z</time>
      </trkpt>
      <trkpt lat="42.96748" lon="0.30303">
        <ele>1483.3</ele>
        <time>2026-07-07T10:09:00Z</time>
      </trkpt>
      <trkpt lat="42.96748" lon="0.30303">
        <ele>1484.3</ele>
        <time>2026-07-07T10:09:01Z</time>
      </trkpt>
      <trkpt lat="42.96747" lon="0.30303">
        <ele>1483.3</ele>
        <time>2026-07-07T10:09:02Z</time>
      </trkpt>
      <trkpt lat="42.96747" lon="0.30303">
        <ele>1483.3</ele>
        <time>2026-07-07T10:09:03Z</time>
      </trkpt>
      <trkpt lat="42.96747" lon="0.30303">
        <ele>1483.3</ele>
        <time>2026-07-07T10:09:04Z</time>
      </trkpt>
      <trkpt lat="42.96747" lon="0.30303">
        <ele>1483.3</ele>
        <time>2026-07-07T10:09:05Z</time>
      </trkpt>
      <trkpt lat="42.96747" lon="0.30303">
        <ele>1483.3</ele>
        <time>2026-07-07T10:09:06Z</time>
      </trkpt>
      <trkpt lat="42.96747" lon="0.30303">
        <ele>1483.3</ele>
        <time>2026-07-07T10:09:07Z</time>
      </trkpt>
      <trkpt lat="42.96747" lon="0.30303">
        <ele>1483.3</ele>
        <time>2026-07-07T10:09:08Z</time>
      </trkpt>
      <trkpt lat="42.96747" lon="0.30303">
        <ele>1483.3</ele>
        <time>2026-07-07T10:09:09Z</time>
      </trkpt>
      <trkpt lat="42.96747" lon="0.30303">
        <ele>1483.3</ele>
        <time>2026-07-07T10:09:10Z</time>
      </trkpt>
      <trkpt lat="42.96747" lon="0.30303">
        <ele>1483.3</ele>
        <time>2026-07-07T10:09:11Z</time>
      </trkpt>
      <trkpt lat="42.96747" lon="0.30303">
        <ele>1483.3</ele>
        <time>2026-07-07T10:09:12Z</time>
      </trkpt>
      <trkpt lat="42.96747" lon="0.30303">
        <ele>1483.3</ele>
        <time>2026-07-07T10:09:13Z</time>
      </trkpt>
      <trkpt lat="42.96746" lon="0.30304">
        <ele>1484.3</ele>
        <time>2026-07-07T10:09:14Z</time>
      </trkpt>
      <trkpt lat="42.96746" lon="0.30304">
        <ele>1483.3</ele>
        <time>2026-07-07T10:09:15Z</time>
      </trkpt>
      <trkpt lat="42.96747" lon="0.30305">
        <ele>1482.3</ele>
        <time>2026-07-07T10:09:16Z</time>
      </trkpt>
      <trkpt lat="42.96747" lon="0.30306">
        <ele>1482.3</ele>
        <time>2026-07-07T10:09:17Z</time>
      </trkpt>
      <trkpt lat="42.96747" lon="0.30307">
        <ele>1482.3</ele>
        <time>2026-07-07T10:09:18Z</time>
      </trkpt>
      <trkpt lat="42.96747" lon="0.30306">
        <ele>1482.3</ele>
        <time>2026-07-07T10:09:19Z</time>
      </trkpt>
      <trkpt lat="42.96747" lon="0.30306">
        <ele>1482.3</ele>
        <time>2026-07-07T10:09:20Z</time>
      </trkpt>
      <trkpt lat="42.96746" lon="0.30307">
        <ele>1481.3</ele>
        <time>2026-07-07T10:09:21Z</time>
      </trkpt>
      <trkpt lat="42.96746" lon="0.30307">
        <ele>1481.3</ele>
        <time>2026-07-07T10:09:22Z</time>
      </trkpt>
      <trkpt lat="42.96746" lon="0.30308">
        <ele>1481.3</ele>
        <time>2026-07-07T10:09:23Z</time>
      </trkpt>
      <trkpt lat="42.96746" lon="0.30308">
        <ele>1481.3</ele>
        <time>2026-07-07T10:09:24Z</time>
      </trkpt>
      <trkpt lat="42.96746" lon="0.30308">
        <ele>1481.3</ele>
        <time>2026-07-07T10:09:25Z</time>
      </trkpt>
      <trkpt lat="42.96746" lon="0.30308">
        <ele>1481.3</ele>
        <time>2026-07-07T10:09:26Z</time>
      </trkpt>
      <trkpt lat="42.96746" lon="0.30308">
        <ele>1481.3</ele>
        <time>2026-07-07T10:09:27Z</time>
      </trkpt>
      <trkpt lat="42.96745" lon="0.30309">
        <ele>1481.3</ele>
        <time>2026-07-07T10:09:28Z</time>
      </trkpt>
      <trkpt lat="42.96745" lon="0.30309">
        <ele>1482.3</ele>
        <time>2026-07-07T10:09:29Z</time>
      </trkpt>
      <trkpt lat="42.96745" lon="0.3031">
        <ele>1481.3</ele>
        <time>2026-07-07T10:09:30Z</time>
      </trkpt>
      <trkpt lat="42.96744" lon="0.30311">
        <ele>1481.3</ele>
        <time>2026-07-07T10:09:31Z</time>
      </trkpt>
      <trkpt lat="42.96744" lon="0.30311">
        <ele>1481.3</ele>
        <time>2026-07-07T10:09:32Z</time>
      </trkpt>
      <trkpt lat="42.96744" lon="0.30311">
        <ele>1481.3</ele>
        <time>2026-07-07T10:09:33Z</time>
      </trkpt>
      <trkpt lat="42.96744" lon="0.30311">
        <ele>1481.3</ele>
        <time>2026-07-07T10:09:34Z</time>
      </trkpt>
      <trkpt lat="42.96743" lon="0.3031">
        <ele>1481.3</ele>
        <time>2026-07-07T10:09:35Z</time>
      </trkpt>
      <trkpt lat="42.96743" lon="0.3031">
        <ele>1481.3</ele>
        <time>2026-07-07T10:09:36Z</time>
      </trkpt>
      <trkpt lat="42.96743" lon="0.3031">
        <ele>1481.3</ele>
        <time>2026-07-07T10:09:37Z</time>
      </trkpt>
      <trkpt lat="42.96742" lon="0.3031">
        <ele>1481.3</ele>
        <time>2026-07-07T10:09:38Z</time>
      </trkpt>
      <trkpt lat="42.96742" lon="0.3031">
        <ele>1481.3</ele>
        <time>2026-07-07T10:09:39Z</time>
      </trkpt>
      <trkpt lat="42.96741" lon="0.3031">
        <ele>1481.3</ele>
        <time>2026-07-07T10:09:40Z</time>
      </trkpt>
      <trkpt lat="42.96741" lon="0.3031">
        <ele>1481.3</ele>
        <time>2026-07-07T10:09:41Z</time>
      </trkpt>
      <trkpt lat="42.96741" lon="0.30311">
        <ele>1481.3</ele>
        <time>2026-07-07T10:09:42Z</time>
      </trkpt>
      <trkpt lat="42.96741" lon="0.30311">
        <ele>1481.3</ele>
        <time>2026-07-07T10:09:43Z</time>
      </trkpt>
      <trkpt lat="42.9674" lon="0.30311">
        <ele>1481.3</ele>
        <time>2026-07-07T10:09:44Z</time>
      </trkpt>
      <trkpt lat="42.9674" lon="0.30312">
        <ele>1481.3</ele>
        <time>2026-07-07T10:09:45Z</time>
      </trkpt>
      <trkpt lat="42.9674" lon="0.30311">
        <ele>1481.3</ele>
        <time>2026-07-07T10:09:46Z</time>
      </trkpt>
      <trkpt lat="42.96739" lon="0.30312">
        <ele>1481.3</ele>
        <time>2026-07-07T10:09:47Z</time>
      </trkpt>
      <trkpt lat="42.96738" lon="0.30313">
        <ele>1481.3</ele>
        <time>2026-07-07T10:09:48Z</time>
      </trkpt>
      <trkpt lat="42.96738" lon="0.30313">
        <ele>1481.3</ele>
        <time>2026-07-07T10:09:49Z</time>
      </trkpt>
      <trkpt lat="42.96738" lon="0.30314">
        <ele>1482.3</ele>
        <time>2026-07-07T10:09:50Z</time>
      </trkpt>
      <trkpt lat="42.96738" lon="0.30314">
        <ele>1481.3</ele>
        <time>2026-07-07T10:09:51Z</time>
      </trkpt>
      <trkpt lat="42.96738" lon="0.30314">
        <ele>1481.3</ele>
        <time>2026-07-07T10:09:52Z</time>
      </trkpt>
      <trkpt lat="42.96738" lon="0.30314">
        <ele>1481.3</ele>
        <time>2026-07-07T10:09:53Z</time>
      </trkpt>
      <trkpt lat="42.96738" lon="0.30314">
        <ele>1482.3</ele>
        <time>2026-07-07T10:09:54Z</time>
      </trkpt>
      <trkpt lat="42.96737" lon="0.30314">
        <ele>1482.3</ele>
        <time>2026-07-07T10:09:55Z</time>
      </trkpt>
      <trkpt lat="42.96737" lon="0.30314">
        <ele>1482.3</ele>
        <time>2026-07-07T10:09:56Z</time>
      </trkpt>
      <trkpt lat="42.96736" lon="0.30314">
        <ele>1482.3</ele>
        <time>2026-07-07T10:09:57Z</time>
      </trkpt>
      <trkpt lat="42.96736" lon="0.30314">
        <ele>1482.3</ele>
        <time>2026-07-07T10:09:58Z</time>
      </trkpt>
      <trkpt lat="42.96736" lon="0.30314">
        <ele>1482.3</ele>
        <time>2026-07-07T10:09:59Z</time>
      </trkpt>
      <trkpt lat="42.96736" lon="0.30314">
        <ele>1482.3</ele>
        <time>2026-07-07T10:10:00Z</time>
      </trkpt>
      <trkpt lat="42.96736" lon="0.30315">
        <ele>1481.3</ele>
        <time>2026-07-07T10:10:01Z</time>
      </trkpt>
      <trkpt lat="42.96736" lon="0.30316">
        <ele>1481.3</ele>
        <time>2026-07-07T10:10:02Z</time>
      </trkpt>
      <trkpt lat="42.96735" lon="0.30317">
        <ele>1482.3</ele>
        <time>2026-07-07T10:10:03Z</time>
      </trkpt>
      <trkpt lat="42.96735" lon="0.30318">
        <ele>1482.3</ele>
        <time>2026-07-07T10:10:04Z</time>
      </trkpt>
      <trkpt lat="42.96735" lon="0.30317">
        <ele>1482.3</ele>
        <time>2026-07-07T10:10:05Z</time>
      </trkpt>
      <trkpt lat="42.96735" lon="0.30318">
        <ele>1483.3</ele>
        <time>2026-07-07T10:10:06Z</time>
      </trkpt>
      <trkpt lat="42.96735" lon="0.30318">
        <ele>1483.3</ele>
        <time>2026-07-07T10:10:07Z</time>
      </trkpt>
      <trkpt lat="42.96735" lon="0.30318">
        <ele>1483.3</ele>
        <time>2026-07-07T10:10:08Z</time>
      </trkpt>
      <trkpt lat="42.96735" lon="0.30318">
        <ele>1483.3</ele>
        <time>2026-07-07T10:10:09Z</time>
      </trkpt>
      <trkpt lat="42.96735" lon="0.30318">
        <ele>1482.3</ele>
        <time>2026-07-07T10:10:10Z</time>
      </trkpt>
      <trkpt lat="42.96736" lon="0.30318">
        <ele>1482.3</ele>
        <time>2026-07-07T10:10:11Z</time>
      </trkpt>
      <trkpt lat="42.96737" lon="0.30318">
        <ele>1481.3</ele>
        <time>2026-07-07T10:10:12Z</time>
      </trkpt>
      <trkpt lat="42.96737" lon="0.30319">
        <ele>1482.3</ele>
        <time>2026-07-07T10:10:13Z</time>
      </trkpt>
      <trkpt lat="42.96737" lon="0.30318">
        <ele>1482.3</ele>
        <time>2026-07-07T10:10:14Z</time>
      </trkpt>
      <trkpt lat="42.96737" lon="0.30318">
        <ele>1482.3</ele>
        <time>2026-07-07T10:10:15Z</time>
      </trkpt>
      <trkpt lat="42.96738" lon="0.30319">
        <ele>1481.3</ele>
        <time>2026-07-07T10:10:16Z</time>
      </trkpt>
      <trkpt lat="42.96738" lon="0.30319">
        <ele>1481.3</ele>
        <time>2026-07-07T10:10:17Z</time>
      </trkpt>
      <trkpt lat="42.96738" lon="0.30319">
        <ele>1480.3</ele>
        <time>2026-07-07T10:10:18Z</time>
      </trkpt>
      <trkpt lat="42.96739" lon="0.30319">
        <ele>1480.3</ele>
        <time>2026-07-07T10:10:19Z</time>
      </trkpt>
      <trkpt lat="42.96739" lon="0.30319">
        <ele>1479.3</ele>
        <time>2026-07-07T10:10:20Z</time>
      </trkpt>
      <trkpt lat="42.9674" lon="0.3032">
        <ele>1478.3</ele>
        <time>2026-07-07T10:10:21Z</time>
      </trkpt>
      <trkpt lat="42.9674" lon="0.3032">
        <ele>1479.3</ele>
        <time>2026-07-07T10:10:22Z</time>
      </trkpt>
      <trkpt lat="42.96741" lon="0.3032">
        <ele>1478.3</ele>
        <time>2026-07-07T10:10:23Z</time>
      </trkpt>
      <trkpt lat="42.96741" lon="0.30321">
        <ele>1477.3</ele>
        <time>2026-07-07T10:10:24Z</time>
      </trkpt>
      <trkpt lat="42.96741" lon="0.3032">
        <ele>1478.3</ele>
        <time>2026-07-07T10:10:25Z</time>
      </trkpt>
      <trkpt lat="42.96741" lon="0.30322">
        <ele>1478.3</ele>
        <time>2026-07-07T10:10:26Z</time>
      </trkpt>
      <trkpt lat="42.96741" lon="0.30322">
        <ele>1478.3</ele>
        <time>2026-07-07T10:10:27Z</time>
      </trkpt>
      <trkpt lat="42.96742" lon="0.30322">
        <ele>1479.3</ele>
        <time>2026-07-07T10:10:28Z</time>
      </trkpt>
      <trkpt lat="42.96742" lon="0.30322">
        <ele>1479.3</ele>
        <time>2026-07-07T10:10:29Z</time>
      </trkpt>
      <trkpt lat="42.96742" lon="0.30322">
        <ele>1478.3</ele>
        <time>2026-07-07T10:10:30Z</time>
      </trkpt>
      <trkpt lat="42.96742" lon="0.30324">
        <ele>1478.3</ele>
        <time>2026-07-07T10:10:31Z</time>
      </trkpt>
      <trkpt lat="42.96742" lon="0.30325">
        <ele>1478.3</ele>
        <time>2026-07-07T10:10:32Z</time>
      </trkpt>
      <trkpt lat="42.96742" lon="0.30324">
        <ele>1478.3</ele>
        <time>2026-07-07T10:10:33Z</time>
      </trkpt>
      <trkpt lat="42.96741" lon="0.30324">
        <ele>1477.3</ele>
        <time>2026-07-07T10:10:34Z</time>
      </trkpt>
      <trkpt lat="42.96741" lon="0.30325">
        <ele>1477.3</ele>
        <time>2026-07-07T10:10:35Z</time>
      </trkpt>
      <trkpt lat="42.96741" lon="0.30325">
        <ele>1476.3</ele>
        <time>2026-07-07T10:10:36Z</time>
      </trkpt>
      <trkpt lat="42.96741" lon="0.30326">
        <ele>1476.3</ele>
        <time>2026-07-07T10:10:37Z</time>
      </trkpt>
      <trkpt lat="42.9674" lon="0.30325">
        <ele>1476.3</ele>
        <time>2026-07-07T10:10:38Z</time>
      </trkpt>
      <trkpt lat="42.96739" lon="0.30325">
        <ele>1475.3</ele>
        <time>2026-07-07T10:10:39Z</time>
      </trkpt>
      <trkpt lat="42.96739" lon="0.30324">
        <ele>1475.3</ele>
        <time>2026-07-07T10:10:40Z</time>
      </trkpt>
      <trkpt lat="42.96739" lon="0.30324">
        <ele>1475.3</ele>
        <time>2026-07-07T10:10:41Z</time>
      </trkpt>
      <trkpt lat="42.96739" lon="0.30324">
        <ele>1475.3</ele>
        <time>2026-07-07T10:10:42Z</time>
      </trkpt>
      <trkpt lat="42.96739" lon="0.30324">
        <ele>1475.3</ele>
        <time>2026-07-07T10:10:43Z</time>
      </trkpt>
      <trkpt lat="42.96739" lon="0.30325">
        <ele>1475.3</ele>
        <time>2026-07-07T10:10:44Z</time>
      </trkpt>
      <trkpt lat="42.96738" lon="0.30324">
        <ele>1476.3</ele>
        <time>2026-07-07T10:10:45Z</time>
      </trkpt>
      <trkpt lat="42.96738" lon="0.30324">
        <ele>1476.3</ele>
        <time>2026-07-07T10:10:46Z</time>
      </trkpt>
      <trkpt lat="42.96738" lon="0.30325">
        <ele>1477.3</ele>
        <time>2026-07-07T10:10:47Z</time>
      </trkpt>
      <trkpt lat="42.96738" lon="0.30324">
        <ele>1477.3</ele>
        <time>2026-07-07T10:10:48Z</time>
      </trkpt>
      <trkpt lat="42.96738" lon="0.30324">
        <ele>1477.3</ele>
        <time>2026-07-07T10:10:49Z</time>
      </trkpt>
      <trkpt lat="42.96737" lon="0.30325">
        <ele>1477.3</ele>
        <time>2026-07-07T10:10:50Z</time>
      </trkpt>
      <trkpt lat="42.96737" lon="0.30325">
        <ele>1477.3</ele>
        <time>2026-07-07T10:10:51Z</time>
      </trkpt>
      <trkpt lat="42.96737" lon="0.30325">
        <ele>1477.3</ele>
        <time>2026-07-07T10:10:52Z</time>
      </trkpt>
      <trkpt lat="42.96737" lon="0.30325">
        <ele>1477.3</ele>
        <time>2026-07-07T10:10:53Z</time>
      </trkpt>
      <trkpt lat="42.96737" lon="0.30325">
        <ele>1477.3</ele>
        <time>2026-07-07T10:10:54Z</time>
      </trkpt>
      <trkpt lat="42.96737" lon="0.30325">
        <ele>1477.3</ele>
        <time>2026-07-07T10:10:55Z</time>
      </trkpt>
      <trkpt lat="42.96737" lon="0.30325">
        <ele>1477.3</ele>
        <time>2026-07-07T10:10:56Z</time>
      </trkpt>
      <trkpt lat="42.96737" lon="0.30325">
        <ele>1477.3</ele>
        <time>2026-07-07T10:10:57Z</time>
      </trkpt>
      <trkpt lat="42.96737" lon="0.30325">
        <ele>1477.3</ele>
        <time>2026-07-07T10:10:58Z</time>
      </trkpt>
      <trkpt lat="42.96738" lon="0.30324">
        <ele>1475.3</ele>
        <time>2026-07-07T10:10:59Z</time>
      </trkpt>
      <trkpt lat="42.96739" lon="0.30324">
        <ele>1475.3</ele>
        <time>2026-07-07T10:11:00Z</time>
      </trkpt>
      <trkpt lat="42.96739" lon="0.30325">
        <ele>1475.3</ele>
        <time>2026-07-07T10:11:01Z</time>
      </trkpt>
      <trkpt lat="42.96739" lon="0.30329">
        <ele>1474.3</ele>
        <time>2026-07-07T10:11:02Z</time>
      </trkpt>
      <trkpt lat="42.96739" lon="0.3033">
        <ele>1475.3</ele>
        <time>2026-07-07T10:11:03Z</time>
      </trkpt>
      <trkpt lat="42.96739" lon="0.30329">
        <ele>1474.3</ele>
        <time>2026-07-07T10:11:04Z</time>
      </trkpt>
      <trkpt lat="42.9674" lon="0.30329">
        <ele>1473.3</ele>
        <time>2026-07-07T10:11:05Z</time>
      </trkpt>
      <trkpt lat="42.96739" lon="0.30328">
        <ele>1472.3</ele>
        <time>2026-07-07T10:11:06Z</time>
      </trkpt>
      <trkpt lat="42.96738" lon="0.3033">
        <ele>1471.3</ele>
        <time>2026-07-07T10:11:07Z</time>
      </trkpt>
      <trkpt lat="42.96738" lon="0.30332">
        <ele>1470.3</ele>
        <time>2026-07-07T10:11:08Z</time>
      </trkpt>
      <trkpt lat="42.96737" lon="0.30334">
        <ele>1471.3</ele>
        <time>2026-07-07T10:11:09Z</time>
      </trkpt>
      <trkpt lat="42.96737" lon="0.30333">
        <ele>1472.3</ele>
        <time>2026-07-07T10:11:10Z</time>
      </trkpt>
      <trkpt lat="42.96737" lon="0.30331">
        <ele>1473.3</ele>
        <time>2026-07-07T10:11:11Z</time>
      </trkpt>
      <trkpt lat="42.96736" lon="0.3033">
        <ele>1472.3</ele>
        <time>2026-07-07T10:11:12Z</time>
      </trkpt>
      <trkpt lat="42.96735" lon="0.3033">
        <ele>1473.3</ele>
        <time>2026-07-07T10:11:13Z</time>
      </trkpt>
      <trkpt lat="42.96734" lon="0.30329">
        <ele>1473.3</ele>
        <time>2026-07-07T10:11:14Z</time>
      </trkpt>
      <trkpt lat="42.96734" lon="0.30328">
        <ele>1472.3</ele>
        <time>2026-07-07T10:11:15Z</time>
      </trkpt>
      <trkpt lat="42.96733" lon="0.30328">
        <ele>1472.3</ele>
        <time>2026-07-07T10:11:16Z</time>
      </trkpt>
      <trkpt lat="42.96732" lon="0.30327">
        <ele>1472.3</ele>
        <time>2026-07-07T10:11:17Z</time>
      </trkpt>
      <trkpt lat="42.96732" lon="0.30327">
        <ele>1472.3</ele>
        <time>2026-07-07T10:11:18Z</time>
      </trkpt>
      <trkpt lat="42.96731" lon="0.30326">
        <ele>1472.3</ele>
        <time>2026-07-07T10:11:19Z</time>
      </trkpt>
      <trkpt lat="42.9673" lon="0.30326">
        <ele>1472.3</ele>
        <time>2026-07-07T10:11:20Z</time>
      </trkpt>
      <trkpt lat="42.96729" lon="0.30325">
        <ele>1472.3</ele>
        <time>2026-07-07T10:11:21Z</time>
      </trkpt>
      <trkpt lat="42.96729" lon="0.30324">
        <ele>1471.3</ele>
        <time>2026-07-07T10:11:22Z</time>
      </trkpt>
      <trkpt lat="42.96728" lon="0.30323">
        <ele>1471.3</ele>
        <time>2026-07-07T10:11:23Z</time>
      </trkpt>
      <trkpt lat="42.96727" lon="0.30323">
        <ele>1472.3</ele>
        <time>2026-07-07T10:11:24Z</time>
      </trkpt>
      <trkpt lat="42.96727" lon="0.30322">
        <ele>1471.3</ele>
        <time>2026-07-07T10:11:25Z</time>
      </trkpt>
      <trkpt lat="42.96725" lon="0.30317">
        <ele>1471.3</ele>
        <time>2026-07-07T10:11:26Z</time>
      </trkpt>
      <trkpt lat="42.96724" lon="0.30317">
        <ele>1471.3</ele>
        <time>2026-07-07T10:11:27Z</time>
      </trkpt>
      <trkpt lat="42.96724" lon="0.30317">
        <ele>1471.3</ele>
        <time>2026-07-07T10:11:27Z</time>
      </trkpt>
      <trkpt lat="42.96723" lon="0.30316">
        <ele>1471.3</ele>
        <time>2026-07-07T10:11:28Z</time>
      </trkpt>
      <trkpt lat="42.96723" lon="0.30316">
        <ele>1470.3</ele>
        <time>2026-07-07T10:11:28Z</time>
      </trkpt>
      <trkpt lat="42.96722" lon="0.30316">
        <ele>1470.3</ele>
        <time>2026-07-07T10:11:29Z</time>
      </trkpt>
      <trkpt lat="42.96721" lon="0.30315">
        <ele>1470.3</ele>
        <time>2026-07-07T10:11:30Z</time>
      </trkpt>
      <trkpt lat="42.96721" lon="0.30315">
        <ele>1468.3</ele>
        <time>2026-07-07T10:11:30Z</time>
      </trkpt>
      <trkpt lat="42.9672" lon="0.30316">
        <ele>1469.3</ele>
        <time>2026-07-07T10:11:31Z</time>
      </trkpt>
      <trkpt lat="42.9672" lon="0.30317">
        <ele>1469.3</ele>
        <time>2026-07-07T10:11:32Z</time>
      </trkpt>
      <trkpt lat="42.96719" lon="0.30316">
        <ele>1469.3</ele>
        <time>2026-07-07T10:11:33Z</time>
      </trkpt>
      <trkpt lat="42.96718" lon="0.30315">
        <ele>1469.3</ele>
        <time>2026-07-07T10:11:34Z</time>
      </trkpt>
      <trkpt lat="42.96718" lon="0.30314">
        <ele>1469.3</ele>
        <time>2026-07-07T10:11:35Z</time>
      </trkpt>
      <trkpt lat="42.96717" lon="0.30313">
        <ele>1470.3</ele>
        <time>2026-07-07T10:11:35Z</time>
      </trkpt>
      <trkpt lat="42.96717" lon="0.30312">
        <ele>1470.3</ele>
        <time>2026-07-07T10:11:36Z</time>
      </trkpt>
      <trkpt lat="42.96716" lon="0.30311">
        <ele>1469.3</ele>
        <time>2026-07-07T10:11:36Z</time>
      </trkpt>
      <trkpt lat="42.96715" lon="0.3031">
        <ele>1469.3</ele>
        <time>2026-07-07T10:11:37Z</time>
      </trkpt>
      <trkpt lat="42.96715" lon="0.30309">
        <ele>1469.3</ele>
        <time>2026-07-07T10:11:37Z</time>
      </trkpt>
      <trkpt lat="42.96715" lon="0.30309">
        <ele>1469.3</ele>
        <time>2026-07-07T10:11:38Z</time>
      </trkpt>
      <trkpt lat="42.96714" lon="0.30308">
        <ele>1469.3</ele>
        <time>2026-07-07T10:11:39Z</time>
      </trkpt>
      <trkpt lat="42.96713" lon="0.30307">
        <ele>1469.3</ele>
        <time>2026-07-07T10:11:39Z</time>
      </trkpt>
      <trkpt lat="42.96713" lon="0.30307">
        <ele>1469.3</ele>
        <time>2026-07-07T10:11:40Z</time>
      </trkpt>
      <trkpt lat="42.96712" lon="0.30306">
        <ele>1469.3</ele>
        <time>2026-07-07T10:11:40Z</time>
      </trkpt>
      <trkpt lat="42.96712" lon="0.30305">
        <ele>1469.3</ele>
        <time>2026-07-07T10:11:41Z</time>
      </trkpt>
      <trkpt lat="42.96711" lon="0.30304">
        <ele>1470.3</ele>
        <time>2026-07-07T10:11:41Z</time>
      </trkpt>
      <trkpt lat="42.9671" lon="0.30303">
        <ele>1470.3</ele>
        <time>2026-07-07T10:11:42Z</time>
      </trkpt>
      <trkpt lat="42.9671" lon="0.30303">
        <ele>1471.3</ele>
        <time>2026-07-07T10:11:42Z</time>
      </trkpt>
      <trkpt lat="42.96709" lon="0.30302">
        <ele>1471.3</ele>
        <time>2026-07-07T10:11:43Z</time>
      </trkpt>
      <trkpt lat="42.96708" lon="0.30302">
        <ele>1471.3</ele>
        <time>2026-07-07T10:11:44Z</time>
      </trkpt>
      <trkpt lat="42.96708" lon="0.30301">
        <ele>1471.3</ele>
        <time>2026-07-07T10:11:44Z</time>
      </trkpt>
      <trkpt lat="42.96707" lon="0.30301">
        <ele>1472.3</ele>
        <time>2026-07-07T10:11:45Z</time>
      </trkpt>
      <trkpt lat="42.96707" lon="0.303">
        <ele>1472.3</ele>
        <time>2026-07-07T10:11:45Z</time>
      </trkpt>
      <trkpt lat="42.96706" lon="0.303">
        <ele>1471.3</ele>
        <time>2026-07-07T10:11:46Z</time>
      </trkpt>
      <trkpt lat="42.96706" lon="0.30299">
        <ele>1471.3</ele>
        <time>2026-07-07T10:11:46Z</time>
      </trkpt>
      <trkpt lat="42.96705" lon="0.30298">
        <ele>1471.3</ele>
        <time>2026-07-07T10:11:47Z</time>
      </trkpt>
      <trkpt lat="42.96705" lon="0.30297">
        <ele>1471.3</ele>
        <time>2026-07-07T10:11:48Z</time>
      </trkpt>
      <trkpt lat="42.96704" lon="0.30296">
        <ele>1470.3</ele>
        <time>2026-07-07T10:11:48Z</time>
      </trkpt>
      <trkpt lat="42.96704" lon="0.30295">
        <ele>1470.3</ele>
        <time>2026-07-07T10:11:49Z</time>
      </trkpt>
      <trkpt lat="42.96704" lon="0.30294">
        <ele>1470.3</ele>
        <time>2026-07-07T10:11:50Z</time>
      </trkpt>
      <trkpt lat="42.96705" lon="0.30293">
        <ele>1470.3</ele>
        <time>2026-07-07T10:11:50Z</time>
      </trkpt>
      <trkpt lat="42.96705" lon="0.30292">
        <ele>1470.3</ele>
        <time>2026-07-07T10:11:51Z</time>
      </trkpt>
      <trkpt lat="42.96705" lon="0.30292">
        <ele>1470.3</ele>
        <time>2026-07-07T10:11:51Z</time>
      </trkpt>
      <trkpt lat="42.96705" lon="0.30291">
        <ele>1470.3</ele>
        <time>2026-07-07T10:11:52Z</time>
      </trkpt>
      <trkpt lat="42.96705" lon="0.3029">
        <ele>1470.3</ele>
        <time>2026-07-07T10:11:52Z</time>
      </trkpt>
      <trkpt lat="42.96705" lon="0.30289">
        <ele>1470.3</ele>
        <time>2026-07-07T10:11:53Z</time>
      </trkpt>
      <trkpt lat="42.96705" lon="0.30288">
        <ele>1470.3</ele>
        <time>2026-07-07T10:11:53Z</time>
      </trkpt>
      <trkpt lat="42.96705" lon="0.30287">
        <ele>1470.3</ele>
        <time>2026-07-07T10:11:54Z</time>
      </trkpt>
      <trkpt lat="42.96704" lon="0.30286">
        <ele>1470.3</ele>
        <time>2026-07-07T10:11:54Z</time>
      </trkpt>
      <trkpt lat="42.96703" lon="0.30285">
        <ele>1470.3</ele>
        <time>2026-07-07T10:11:55Z</time>
      </trkpt>
      <trkpt lat="42.96702" lon="0.30283">
        <ele>1470.3</ele>
        <time>2026-07-07T10:11:56Z</time>
      </trkpt>
      <trkpt lat="42.96702" lon="0.30283">
        <ele>1469.3</ele>
        <time>2026-07-07T10:11:56Z</time>
      </trkpt>
      <trkpt lat="42.96701" lon="0.30282">
        <ele>1469.3</ele>
        <time>2026-07-07T10:11:57Z</time>
      </trkpt>
      <trkpt lat="42.967" lon="0.3028">
        <ele>1469.3</ele>
        <time>2026-07-07T10:11:58Z</time>
      </trkpt>
      <trkpt lat="42.967" lon="0.3028">
        <ele>1469.3</ele>
        <time>2026-07-07T10:11:59Z</time>
      </trkpt>
      <trkpt lat="42.96699" lon="0.30279">
        <ele>1469.3</ele>
        <time>2026-07-07T10:11:59Z</time>
      </trkpt>
      <trkpt lat="42.96698" lon="0.30279">
        <ele>1469.3</ele>
        <time>2026-07-07T10:12:00Z</time>
      </trkpt>
      <trkpt lat="42.96698" lon="0.30278">
        <ele>1469.3</ele>
        <time>2026-07-07T10:12:00Z</time>
      </trkpt>
      <trkpt lat="42.96697" lon="0.30278">
        <ele>1468.3</ele>
        <time>2026-07-07T10:12:01Z</time>
      </trkpt>
      <trkpt lat="42.96697" lon="0.30277">
        <ele>1468.3</ele>
        <time>2026-07-07T10:12:01Z</time>
      </trkpt>
      <trkpt lat="42.96696" lon="0.30277">
        <ele>1468.3</ele>
        <time>2026-07-07T10:12:02Z</time>
      </trkpt>
      <trkpt lat="42.96696" lon="0.30276">
        <ele>1467.3</ele>
        <time>2026-07-07T10:12:02Z</time>
      </trkpt>
      <trkpt lat="42.96695" lon="0.30275">
        <ele>1467.3</ele>
        <time>2026-07-07T10:12:03Z</time>
      </trkpt>
      <trkpt lat="42.96695" lon="0.30275">
        <ele>1467.3</ele>
        <time>2026-07-07T10:12:03Z</time>
      </trkpt>
      <trkpt lat="42.96694" lon="0.30274">
        <ele>1467.3</ele>
        <time>2026-07-07T10:12:04Z</time>
      </trkpt>
      <trkpt lat="42.96693" lon="0.30274">
        <ele>1467.3</ele>
        <time>2026-07-07T10:12:04Z</time>
      </trkpt>
      <trkpt lat="42.96693" lon="0.30273">
        <ele>1467.3</ele>
        <time>2026-07-07T10:12:05Z</time>
      </trkpt>
      <trkpt lat="42.96692" lon="0.30272">
        <ele>1467.3</ele>
        <time>2026-07-07T10:12:05Z</time>
      </trkpt>
      <trkpt lat="42.96691" lon="0.30272">
        <ele>1467.3</ele>
        <time>2026-07-07T10:12:06Z</time>
      </trkpt>
      <trkpt lat="42.9669" lon="0.30271">
        <ele>1467.3</ele>
        <time>2026-07-07T10:12:07Z</time>
      </trkpt>
      <trkpt lat="42.96689" lon="0.3027">
        <ele>1467.3</ele>
        <time>2026-07-07T10:12:08Z</time>
      </trkpt>
      <trkpt lat="42.96688" lon="0.30269">
        <ele>1467.3</ele>
        <time>2026-07-07T10:12:08Z</time>
      </trkpt>
      <trkpt lat="42.96688" lon="0.30269">
        <ele>1467.3</ele>
        <time>2026-07-07T10:12:09Z</time>
      </trkpt>
      <trkpt lat="42.96687" lon="0.30268">
        <ele>1468.3</ele>
        <time>2026-07-07T10:12:10Z</time>
      </trkpt>
      <trkpt lat="42.96686" lon="0.30268">
        <ele>1468.3</ele>
        <time>2026-07-07T10:12:10Z</time>
      </trkpt>
      <trkpt lat="42.96686" lon="0.30267">
        <ele>1467.3</ele>
        <time>2026-07-07T10:12:11Z</time>
      </trkpt>
      <trkpt lat="42.96685" lon="0.30267">
        <ele>1466.3</ele>
        <time>2026-07-07T10:12:11Z</time>
      </trkpt>
      <trkpt lat="42.96684" lon="0.30266">
        <ele>1466.3</ele>
        <time>2026-07-07T10:12:12Z</time>
      </trkpt>
      <trkpt lat="42.96684" lon="0.30266">
        <ele>1466.3</ele>
        <time>2026-07-07T10:12:12Z</time>
      </trkpt>
      <trkpt lat="42.96683" lon="0.30266">
        <ele>1466.3</ele>
        <time>2026-07-07T10:12:13Z</time>
      </trkpt>
      <trkpt lat="42.96682" lon="0.30266">
        <ele>1465.3</ele>
        <time>2026-07-07T10:12:13Z</time>
      </trkpt>
      <trkpt lat="42.96681" lon="0.30266">
        <ele>1465.3</ele>
        <time>2026-07-07T10:12:14Z</time>
      </trkpt>
      <trkpt lat="42.9668" lon="0.30265">
        <ele>1465.3</ele>
        <time>2026-07-07T10:12:15Z</time>
      </trkpt>
      <trkpt lat="42.9668" lon="0.30265">
        <ele>1464.3</ele>
        <time>2026-07-07T10:12:15Z</time>
      </trkpt>
      <trkpt lat="42.96679" lon="0.30264">
        <ele>1464.3</ele>
        <time>2026-07-07T10:12:16Z</time>
      </trkpt>
      <trkpt lat="42.96678" lon="0.30264">
        <ele>1464.3</ele>
        <time>2026-07-07T10:12:17Z</time>
      </trkpt>
      <trkpt lat="42.96677" lon="0.30264">
        <ele>1464.3</ele>
        <time>2026-07-07T10:12:17Z</time>
      </trkpt>
      <trkpt lat="42.96676" lon="0.30264">
        <ele>1464.3</ele>
        <time>2026-07-07T10:12:18Z</time>
      </trkpt>
      <trkpt lat="42.96675" lon="0.30264">
        <ele>1464.3</ele>
        <time>2026-07-07T10:12:18Z</time>
      </trkpt>
      <trkpt lat="42.96675" lon="0.30264">
        <ele>1464.3</ele>
        <time>2026-07-07T10:12:19Z</time>
      </trkpt>
      <trkpt lat="42.96673" lon="0.30264">
        <ele>1464.3</ele>
        <time>2026-07-07T10:12:20Z</time>
      </trkpt>
      <trkpt lat="42.96671" lon="0.30264">
        <ele>1464.3</ele>
        <time>2026-07-07T10:12:21Z</time>
      </trkpt>
      <trkpt lat="42.9667" lon="0.30265">
        <ele>1463.3</ele>
        <time>2026-07-07T10:12:22Z</time>
      </trkpt>
      <trkpt lat="42.96669" lon="0.30264">
        <ele>1463.3</ele>
        <time>2026-07-07T10:12:22Z</time>
      </trkpt>
      <trkpt lat="42.96668" lon="0.30264">
        <ele>1464.3</ele>
        <time>2026-07-07T10:12:23Z</time>
      </trkpt>
      <trkpt lat="42.96667" lon="0.30264">
        <ele>1464.3</ele>
        <time>2026-07-07T10:12:24Z</time>
      </trkpt>
      <trkpt lat="42.96666" lon="0.30264">
        <ele>1464.3</ele>
        <time>2026-07-07T10:12:24Z</time>
      </trkpt>
      <trkpt lat="42.96666" lon="0.30264">
        <ele>1464.3</ele>
        <time>2026-07-07T10:12:25Z</time>
      </trkpt>
      <trkpt lat="42.96665" lon="0.30264">
        <ele>1464.3</ele>
        <time>2026-07-07T10:12:25Z</time>
      </trkpt>
      <trkpt lat="42.96664" lon="0.30263">
        <ele>1464.3</ele>
        <time>2026-07-07T10:12:26Z</time>
      </trkpt>
      <trkpt lat="42.96664" lon="0.30263">
        <ele>1463.3</ele>
        <time>2026-07-07T10:12:26Z</time>
      </trkpt>
      <trkpt lat="42.96663" lon="0.30263">
        <ele>1463.3</ele>
        <time>2026-07-07T10:12:27Z</time>
      </trkpt>
      <trkpt lat="42.96663" lon="0.30263">
        <ele>1464.3</ele>
        <time>2026-07-07T10:12:28Z</time>
      </trkpt>
      <trkpt lat="42.96662" lon="0.30262">
        <ele>1464.3</ele>
        <time>2026-07-07T10:12:28Z</time>
      </trkpt>
      <trkpt lat="42.96662" lon="0.30262">
        <ele>1464.3</ele>
        <time>2026-07-07T10:12:29Z</time>
      </trkpt>
      <trkpt lat="42.96661" lon="0.30261">
        <ele>1464.3</ele>
        <time>2026-07-07T10:12:29Z</time>
      </trkpt>
      <trkpt lat="42.9666" lon="0.30261">
        <ele>1464.3</ele>
        <time>2026-07-07T10:12:30Z</time>
      </trkpt>
      <trkpt lat="42.9666" lon="0.30261">
        <ele>1464.3</ele>
        <time>2026-07-07T10:12:30Z</time>
      </trkpt>
      <trkpt lat="42.96659" lon="0.3026">
        <ele>1464.3</ele>
        <time>2026-07-07T10:12:31Z</time>
      </trkpt>
      <trkpt lat="42.96659" lon="0.3026">
        <ele>1464.3</ele>
        <time>2026-07-07T10:12:31Z</time>
      </trkpt>
      <trkpt lat="42.96658" lon="0.30259">
        <ele>1464.3</ele>
        <time>2026-07-07T10:12:32Z</time>
      </trkpt>
      <trkpt lat="42.96657" lon="0.30259">
        <ele>1463.3</ele>
        <time>2026-07-07T10:12:32Z</time>
      </trkpt>
      <trkpt lat="42.96657" lon="0.30259">
        <ele>1463.3</ele>
        <time>2026-07-07T10:12:33Z</time>
      </trkpt>
      <trkpt lat="42.96656" lon="0.30259">
        <ele>1462.3</ele>
        <time>2026-07-07T10:12:33Z</time>
      </trkpt>
      <trkpt lat="42.96655" lon="0.30258">
        <ele>1462.3</ele>
        <time>2026-07-07T10:12:34Z</time>
      </trkpt>
      <trkpt lat="42.96655" lon="0.30258">
        <ele>1462.3</ele>
        <time>2026-07-07T10:12:34Z</time>
      </trkpt>
      <trkpt lat="42.96654" lon="0.30258">
        <ele>1462.3</ele>
        <time>2026-07-07T10:12:35Z</time>
      </trkpt>
      <trkpt lat="42.96654" lon="0.30258">
        <ele>1462.3</ele>
        <time>2026-07-07T10:12:36Z</time>
      </trkpt>
      <trkpt lat="42.96653" lon="0.30258">
        <ele>1462.3</ele>
        <time>2026-07-07T10:12:36Z</time>
      </trkpt>
      <trkpt lat="42.96652" lon="0.30258">
        <ele>1462.3</ele>
        <time>2026-07-07T10:12:37Z</time>
      </trkpt>
      <trkpt lat="42.96652" lon="0.30258">
        <ele>1462.3</ele>
        <time>2026-07-07T10:12:37Z</time>
      </trkpt>
      <trkpt lat="42.96651" lon="0.30258">
        <ele>1462.3</ele>
        <time>2026-07-07T10:12:38Z</time>
      </trkpt>
      <trkpt lat="42.9665" lon="0.30258">
        <ele>1462.3</ele>
        <time>2026-07-07T10:12:38Z</time>
      </trkpt>
      <trkpt lat="42.9665" lon="0.30258">
        <ele>1462.3</ele>
        <time>2026-07-07T10:12:39Z</time>
      </trkpt>
      <trkpt lat="42.96649" lon="0.30258">
        <ele>1462.3</ele>
        <time>2026-07-07T10:12:39Z</time>
      </trkpt>
      <trkpt lat="42.96649" lon="0.30258">
        <ele>1462.3</ele>
        <time>2026-07-07T10:12:40Z</time>
      </trkpt>
      <trkpt lat="42.96648" lon="0.30258">
        <ele>1461.3</ele>
        <time>2026-07-07T10:12:40Z</time>
      </trkpt>
      <trkpt lat="42.96648" lon="0.30258">
        <ele>1461.3</ele>
        <time>2026-07-07T10:12:41Z</time>
      </trkpt>
      <trkpt lat="42.96647" lon="0.30257">
        <ele>1461.3</ele>
        <time>2026-07-07T10:12:41Z</time>
      </trkpt>
      <trkpt lat="42.96647" lon="0.30257">
        <ele>1461.3</ele>
        <time>2026-07-07T10:12:42Z</time>
      </trkpt>
      <trkpt lat="42.96646" lon="0.30257">
        <ele>1461.3</ele>
        <time>2026-07-07T10:12:42Z</time>
      </trkpt>
      <trkpt lat="42.96645" lon="0.30257">
        <ele>1461.3</ele>
        <time>2026-07-07T10:12:43Z</time>
      </trkpt>
      <trkpt lat="42.96645" lon="0.30256">
        <ele>1460.3</ele>
        <time>2026-07-07T10:12:43Z</time>
      </trkpt>
      <trkpt lat="42.96644" lon="0.30256">
        <ele>1460.3</ele>
        <time>2026-07-07T10:12:44Z</time>
      </trkpt>
      <trkpt lat="42.96643" lon="0.30255">
        <ele>1460.3</ele>
        <time>2026-07-07T10:12:45Z</time>
      </trkpt>
      <trkpt lat="42.96643" lon="0.30255">
        <ele>1460.3</ele>
        <time>2026-07-07T10:12:45Z</time>
      </trkpt>
      <trkpt lat="42.96643" lon="0.30254">
        <ele>1460.3</ele>
        <time>2026-07-07T10:12:46Z</time>
      </trkpt>
      <trkpt lat="42.96642" lon="0.30253">
        <ele>1460.3</ele>
        <time>2026-07-07T10:12:46Z</time>
      </trkpt>
      <trkpt lat="42.96642" lon="0.30253">
        <ele>1460.3</ele>
        <time>2026-07-07T10:12:47Z</time>
      </trkpt>
      <trkpt lat="42.96642" lon="0.30252">
        <ele>1460.3</ele>
        <time>2026-07-07T10:12:47Z</time>
      </trkpt>
      <trkpt lat="42.96641" lon="0.30251">
        <ele>1460.3</ele>
        <time>2026-07-07T10:12:48Z</time>
      </trkpt>
      <trkpt lat="42.9664" lon="0.3025">
        <ele>1460.3</ele>
        <time>2026-07-07T10:12:49Z</time>
      </trkpt>
      <trkpt lat="42.9664" lon="0.30249">
        <ele>1459.3</ele>
        <time>2026-07-07T10:12:50Z</time>
      </trkpt>
      <trkpt lat="42.96639" lon="0.30249">
        <ele>1459.3</ele>
        <time>2026-07-07T10:12:50Z</time>
      </trkpt>
      <trkpt lat="42.96638" lon="0.30249">
        <ele>1459.3</ele>
        <time>2026-07-07T10:12:51Z</time>
      </trkpt>
      <trkpt lat="42.96638" lon="0.30248">
        <ele>1459.3</ele>
        <time>2026-07-07T10:12:51Z</time>
      </trkpt>
      <trkpt lat="42.96637" lon="0.30248">
        <ele>1459.3</ele>
        <time>2026-07-07T10:12:52Z</time>
      </trkpt>
      <trkpt lat="42.96637" lon="0.30247">
        <ele>1459.3</ele>
        <time>2026-07-07T10:12:52Z</time>
      </trkpt>
      <trkpt lat="42.96636" lon="0.30246">
        <ele>1459.3</ele>
        <time>2026-07-07T10:12:53Z</time>
      </trkpt>
      <trkpt lat="42.96636" lon="0.30246">
        <ele>1458.3</ele>
        <time>2026-07-07T10:12:53Z</time>
      </trkpt>
      <trkpt lat="42.96635" lon="0.30245">
        <ele>1458.3</ele>
        <time>2026-07-07T10:12:54Z</time>
      </trkpt>
      <trkpt lat="42.96635" lon="0.30244">
        <ele>1458.3</ele>
        <time>2026-07-07T10:12:54Z</time>
      </trkpt>
      <trkpt lat="42.96634" lon="0.30244">
        <ele>1458.3</ele>
        <time>2026-07-07T10:12:55Z</time>
      </trkpt>
      <trkpt lat="42.96634" lon="0.30244">
        <ele>1458.3</ele>
        <time>2026-07-07T10:12:56Z</time>
      </trkpt>
      <trkpt lat="42.96633" lon="0.30243">
        <ele>1458.3</ele>
        <time>2026-07-07T10:12:56Z</time>
      </trkpt>
      <trkpt lat="42.96633" lon="0.30243">
        <ele>1458.3</ele>
        <time>2026-07-07T10:12:57Z</time>
      </trkpt>
      <trkpt lat="42.96632" lon="0.30242">
        <ele>1458.3</ele>
        <time>2026-07-07T10:12:57Z</time>
      </trkpt>
      <trkpt lat="42.96632" lon="0.30242">
        <ele>1457.3</ele>
        <time>2026-07-07T10:12:58Z</time>
      </trkpt>
      <trkpt lat="42.96631" lon="0.30241">
        <ele>1457.3</ele>
        <time>2026-07-07T10:12:58Z</time>
      </trkpt>
      <trkpt lat="42.96631" lon="0.3024">
        <ele>1457.3</ele>
        <time>2026-07-07T10:12:59Z</time>
      </trkpt>
      <trkpt lat="42.9663" lon="0.30239">
        <ele>1458.3</ele>
        <time>2026-07-07T10:12:59Z</time>
      </trkpt>
      <trkpt lat="42.9663" lon="0.30238">
        <ele>1458.3</ele>
        <time>2026-07-07T10:13:00Z</time>
      </trkpt>
      <trkpt lat="42.96629" lon="0.30236">
        <ele>1458.3</ele>
        <time>2026-07-07T10:13:01Z</time>
      </trkpt>
      <trkpt lat="42.96629" lon="0.30234">
        <ele>1458.3</ele>
        <time>2026-07-07T10:13:01Z</time>
      </trkpt>
      <trkpt lat="42.96628" lon="0.30233">
        <ele>1458.3</ele>
        <time>2026-07-07T10:13:02Z</time>
      </trkpt>
      <trkpt lat="42.96628" lon="0.30232">
        <ele>1458.3</ele>
        <time>2026-07-07T10:13:03Z</time>
      </trkpt>
      <trkpt lat="42.96628" lon="0.30232">
        <ele>1458.3</ele>
        <time>2026-07-07T10:13:03Z</time>
      </trkpt>
      <trkpt lat="42.96627" lon="0.30231">
        <ele>1458.3</ele>
        <time>2026-07-07T10:13:04Z</time>
      </trkpt>
      <trkpt lat="42.96626" lon="0.30229">
        <ele>1459.3</ele>
        <time>2026-07-07T10:13:05Z</time>
      </trkpt>
      <trkpt lat="42.96626" lon="0.30228">
        <ele>1458.3</ele>
        <time>2026-07-07T10:13:05Z</time>
      </trkpt>
      <trkpt lat="42.96626" lon="0.30227">
        <ele>1458.3</ele>
        <time>2026-07-07T10:13:06Z</time>
      </trkpt>
      <trkpt lat="42.96626" lon="0.30226">
        <ele>1458.3</ele>
        <time>2026-07-07T10:13:06Z</time>
      </trkpt>
      <trkpt lat="42.96626" lon="0.30225">
        <ele>1458.3</ele>
        <time>2026-07-07T10:13:07Z</time>
      </trkpt>
      <trkpt lat="42.96626" lon="0.30224">
        <ele>1458.3</ele>
        <time>2026-07-07T10:13:07Z</time>
      </trkpt>
      <trkpt lat="42.96625" lon="0.30223">
        <ele>1458.3</ele>
        <time>2026-07-07T10:13:08Z</time>
      </trkpt>
      <trkpt lat="42.96625" lon="0.30222">
        <ele>1457.3</ele>
        <time>2026-07-07T10:13:08Z</time>
      </trkpt>
      <trkpt lat="42.96625" lon="0.30221">
        <ele>1457.3</ele>
        <time>2026-07-07T10:13:09Z</time>
      </trkpt>
      <trkpt lat="42.96625" lon="0.3022">
        <ele>1457.3</ele>
        <time>2026-07-07T10:13:09Z</time>
      </trkpt>
      <trkpt lat="42.96624" lon="0.3022">
        <ele>1457.3</ele>
        <time>2026-07-07T10:13:10Z</time>
      </trkpt>
      <trkpt lat="42.96624" lon="0.30219">
        <ele>1457.3</ele>
        <time>2026-07-07T10:13:11Z</time>
      </trkpt>
      <trkpt lat="42.96624" lon="0.30218">
        <ele>1457.3</ele>
        <time>2026-07-07T10:13:11Z</time>
      </trkpt>
      <trkpt lat="42.96623" lon="0.30216">
        <ele>1457.3</ele>
        <time>2026-07-07T10:13:12Z</time>
      </trkpt>
      <trkpt lat="42.96623" lon="0.30215">
        <ele>1457.3</ele>
        <time>2026-07-07T10:13:13Z</time>
      </trkpt>
      <trkpt lat="42.96623" lon="0.30214">
        <ele>1456.3</ele>
        <time>2026-07-07T10:13:13Z</time>
      </trkpt>
      <trkpt lat="42.96622" lon="0.30213">
        <ele>1456.3</ele>
        <time>2026-07-07T10:13:14Z</time>
      </trkpt>
      <trkpt lat="42.96622" lon="0.30213">
        <ele>1455.3</ele>
        <time>2026-07-07T10:13:14Z</time>
      </trkpt>
      <trkpt lat="42.96622" lon="0.30212">
        <ele>1455.3</ele>
        <time>2026-07-07T10:13:15Z</time>
      </trkpt>
      <trkpt lat="42.96622" lon="0.30211">
        <ele>1455.3</ele>
        <time>2026-07-07T10:13:15Z</time>
      </trkpt>
      <trkpt lat="42.96622" lon="0.3021">
        <ele>1455.3</ele>
        <time>2026-07-07T10:13:16Z</time>
      </trkpt>
      <trkpt lat="42.96621" lon="0.30209">
        <ele>1455.3</ele>
        <time>2026-07-07T10:13:17Z</time>
      </trkpt>
      <trkpt lat="42.96621" lon="0.30208">
        <ele>1455.3</ele>
        <time>2026-07-07T10:13:17Z</time>
      </trkpt>
      <trkpt lat="42.9662" lon="0.30207">
        <ele>1455.3</ele>
        <time>2026-07-07T10:13:18Z</time>
      </trkpt>
      <trkpt lat="42.9662" lon="0.30206">
        <ele>1455.3</ele>
        <time>2026-07-07T10:13:19Z</time>
      </trkpt>
      <trkpt lat="42.9662" lon="0.30205">
        <ele>1455.3</ele>
        <time>2026-07-07T10:13:19Z</time>
      </trkpt>
      <trkpt lat="42.96619" lon="0.30204">
        <ele>1455.3</ele>
        <time>2026-07-07T10:13:20Z</time>
      </trkpt>
      <trkpt lat="42.96619" lon="0.30204">
        <ele>1455.3</ele>
        <time>2026-07-07T10:13:20Z</time>
      </trkpt>
      <trkpt lat="42.96619" lon="0.30203">
        <ele>1455.3</ele>
        <time>2026-07-07T10:13:21Z</time>
      </trkpt>
      <trkpt lat="42.96618" lon="0.30202">
        <ele>1455.3</ele>
        <time>2026-07-07T10:13:21Z</time>
      </trkpt>
      <trkpt lat="42.96618" lon="0.30201">
        <ele>1455.3</ele>
        <time>2026-07-07T10:13:22Z</time>
      </trkpt>
      <trkpt lat="42.96618" lon="0.30201">
        <ele>1455.3</ele>
        <time>2026-07-07T10:13:22Z</time>
      </trkpt>
      <trkpt lat="42.96618" lon="0.302">
        <ele>1455.3</ele>
        <time>2026-07-07T10:13:23Z</time>
      </trkpt>
      <trkpt lat="42.96617" lon="0.302">
        <ele>1455.3</ele>
        <time>2026-07-07T10:13:23Z</time>
      </trkpt>
      <trkpt lat="42.96617" lon="0.30199">
        <ele>1455.3</ele>
        <time>2026-07-07T10:13:24Z</time>
      </trkpt>
      <trkpt lat="42.96617" lon="0.30198">
        <ele>1455.3</ele>
        <time>2026-07-07T10:13:24Z</time>
      </trkpt>
      <trkpt lat="42.96617" lon="0.30197">
        <ele>1455.3</ele>
        <time>2026-07-07T10:13:25Z</time>
      </trkpt>
      <trkpt lat="42.96617" lon="0.30197">
        <ele>1455.3</ele>
        <time>2026-07-07T10:13:26Z</time>
      </trkpt>
      <trkpt lat="42.96617" lon="0.30196">
        <ele>1455.3</ele>
        <time>2026-07-07T10:13:26Z</time>
      </trkpt>
      <trkpt lat="42.96616" lon="0.30195">
        <ele>1455.3</ele>
        <time>2026-07-07T10:13:27Z</time>
      </trkpt>
      <trkpt lat="42.96616" lon="0.30194">
        <ele>1455.3</ele>
        <time>2026-07-07T10:13:27Z</time>
      </trkpt>
      <trkpt lat="42.96616" lon="0.30194">
        <ele>1454.3</ele>
        <time>2026-07-07T10:13:28Z</time>
      </trkpt>
      <trkpt lat="42.96615" lon="0.30193">
        <ele>1454.3</ele>
        <time>2026-07-07T10:13:28Z</time>
      </trkpt>
      <trkpt lat="42.96615" lon="0.30192">
        <ele>1454.3</ele>
        <time>2026-07-07T10:13:29Z</time>
      </trkpt>
      <trkpt lat="42.96614" lon="0.30192">
        <ele>1454.3</ele>
        <time>2026-07-07T10:13:29Z</time>
      </trkpt>
      <trkpt lat="42.96614" lon="0.30191">
        <ele>1454.3</ele>
        <time>2026-07-07T10:13:30Z</time>
      </trkpt>
      <trkpt lat="42.96614" lon="0.30191">
        <ele>1453.3</ele>
        <time>2026-07-07T10:13:30Z</time>
      </trkpt>
      <trkpt lat="42.96613" lon="0.3019">
        <ele>1453.3</ele>
        <time>2026-07-07T10:13:31Z</time>
      </trkpt>
      <trkpt lat="42.96613" lon="0.3019">
        <ele>1454.3</ele>
        <time>2026-07-07T10:13:31Z</time>
      </trkpt>
      <trkpt lat="42.96613" lon="0.30189">
        <ele>1454.3</ele>
        <time>2026-07-07T10:13:32Z</time>
      </trkpt>
      <trkpt lat="42.96612" lon="0.30188">
        <ele>1454.3</ele>
        <time>2026-07-07T10:13:32Z</time>
      </trkpt>
      <trkpt lat="42.96612" lon="0.30187">
        <ele>1454.3</ele>
        <time>2026-07-07T10:13:33Z</time>
      </trkpt>
      <trkpt lat="42.96612" lon="0.30186">
        <ele>1454.3</ele>
        <time>2026-07-07T10:13:34Z</time>
      </trkpt>
      <trkpt lat="42.96611" lon="0.30185">
        <ele>1454.3</ele>
        <time>2026-07-07T10:13:34Z</time>
      </trkpt>
      <trkpt lat="42.9661" lon="0.30184">
        <ele>1454.3</ele>
        <time>2026-07-07T10:13:35Z</time>
      </trkpt>
      <trkpt lat="42.9661" lon="0.30184">
        <ele>1454.3</ele>
        <time>2026-07-07T10:13:36Z</time>
      </trkpt>
      <trkpt lat="42.96609" lon="0.30183">
        <ele>1454.3</ele>
        <time>2026-07-07T10:13:36Z</time>
      </trkpt>
      <trkpt lat="42.96609" lon="0.30182">
        <ele>1454.3</ele>
        <time>2026-07-07T10:13:37Z</time>
      </trkpt>
      <trkpt lat="42.96608" lon="0.30182">
        <ele>1454.3</ele>
        <time>2026-07-07T10:13:37Z</time>
      </trkpt>
      <trkpt lat="42.96608" lon="0.30181">
        <ele>1454.3</ele>
        <time>2026-07-07T10:13:38Z</time>
      </trkpt>
      <trkpt lat="42.96607" lon="0.30181">
        <ele>1453.3</ele>
        <time>2026-07-07T10:13:38Z</time>
      </trkpt>
      <trkpt lat="42.96606" lon="0.3018">
        <ele>1453.3</ele>
        <time>2026-07-07T10:13:39Z</time>
      </trkpt>
      <trkpt lat="42.96606" lon="0.3018">
        <ele>1453.3</ele>
        <time>2026-07-07T10:13:39Z</time>
      </trkpt>
      <trkpt lat="42.96605" lon="0.3018">
        <ele>1453.3</ele>
        <time>2026-07-07T10:13:40Z</time>
      </trkpt>
      <trkpt lat="42.96605" lon="0.30179">
        <ele>1453.3</ele>
        <time>2026-07-07T10:13:40Z</time>
      </trkpt>
      <trkpt lat="42.96604" lon="0.30179">
        <ele>1453.3</ele>
        <time>2026-07-07T10:13:41Z</time>
      </trkpt>
      <trkpt lat="42.96604" lon="0.30179">
        <ele>1453.3</ele>
        <time>2026-07-07T10:13:41Z</time>
      </trkpt>
      <trkpt lat="42.96603" lon="0.30178">
        <ele>1452.3</ele>
        <time>2026-07-07T10:13:42Z</time>
      </trkpt>
      <trkpt lat="42.96603" lon="0.30177">
        <ele>1452.3</ele>
        <time>2026-07-07T10:13:43Z</time>
      </trkpt>
      <trkpt lat="42.96603" lon="0.30177">
        <ele>1452.3</ele>
        <time>2026-07-07T10:13:44Z</time>
      </trkpt>
      <trkpt lat="42.96602" lon="0.30176">
        <ele>1452.3</ele>
        <time>2026-07-07T10:13:44Z</time>
      </trkpt>
      <trkpt lat="42.96602" lon="0.30176">
        <ele>1452.3</ele>
        <time>2026-07-07T10:13:45Z</time>
      </trkpt>
      <trkpt lat="42.96602" lon="0.30175">
        <ele>1452.3</ele>
        <time>2026-07-07T10:13:45Z</time>
      </trkpt>
      <trkpt lat="42.96601" lon="0.30174">
        <ele>1451.3</ele>
        <time>2026-07-07T10:13:46Z</time>
      </trkpt>
      <trkpt lat="42.96601" lon="0.30174">
        <ele>1451.3</ele>
        <time>2026-07-07T10:13:46Z</time>
      </trkpt>
      <trkpt lat="42.96601" lon="0.30173">
        <ele>1451.3</ele>
        <time>2026-07-07T10:13:47Z</time>
      </trkpt>
      <trkpt lat="42.966" lon="0.30172">
        <ele>1450.3</ele>
        <time>2026-07-07T10:13:47Z</time>
      </trkpt>
      <trkpt lat="42.966" lon="0.30171">
        <ele>1450.3</ele>
        <time>2026-07-07T10:13:48Z</time>
      </trkpt>
      <trkpt lat="42.966" lon="0.30171">
        <ele>1450.3</ele>
        <time>2026-07-07T10:13:48Z</time>
      </trkpt>
      <trkpt lat="42.96599" lon="0.3017">
        <ele>1450.3</ele>
        <time>2026-07-07T10:13:49Z</time>
      </trkpt>
      <trkpt lat="42.96599" lon="0.30169">
        <ele>1450.3</ele>
        <time>2026-07-07T10:13:50Z</time>
      </trkpt>
      <trkpt lat="42.96598" lon="0.30169">
        <ele>1450.3</ele>
        <time>2026-07-07T10:13:50Z</time>
      </trkpt>
      <trkpt lat="42.96598" lon="0.30168">
        <ele>1450.3</ele>
        <time>2026-07-07T10:13:51Z</time>
      </trkpt>
      <trkpt lat="42.96597" lon="0.30167">
        <ele>1450.3</ele>
        <time>2026-07-07T10:13:51Z</time>
      </trkpt>
      <trkpt lat="42.96597" lon="0.30166">
        <ele>1449.3</ele>
        <time>2026-07-07T10:13:52Z</time>
      </trkpt>
      <trkpt lat="42.96596" lon="0.30165">
        <ele>1449.3</ele>
        <time>2026-07-07T10:13:53Z</time>
      </trkpt>
      <trkpt lat="42.96596" lon="0.30165">
        <ele>1449.3</ele>
        <time>2026-07-07T10:13:53Z</time>
      </trkpt>
      <trkpt lat="42.96595" lon="0.30164">
        <ele>1449.3</ele>
        <time>2026-07-07T10:13:54Z</time>
      </trkpt>
      <trkpt lat="42.96595" lon="0.30163">
        <ele>1449.3</ele>
        <time>2026-07-07T10:13:54Z</time>
      </trkpt>
      <trkpt lat="42.96594" lon="0.30163">
        <ele>1449.3</ele>
        <time>2026-07-07T10:13:55Z</time>
      </trkpt>
      <trkpt lat="42.96594" lon="0.30162">
        <ele>1449.3</ele>
        <time>2026-07-07T10:13:55Z</time>
      </trkpt>
      <trkpt lat="42.96593" lon="0.30161">
        <ele>1449.3</ele>
        <time>2026-07-07T10:13:56Z</time>
      </trkpt>
      <trkpt lat="42.96592" lon="0.30161">
        <ele>1449.3</ele>
        <time>2026-07-07T10:13:57Z</time>
      </trkpt>
      <trkpt lat="42.96591" lon="0.3016">
        <ele>1449.3</ele>
        <time>2026-07-07T10:13:57Z</time>
      </trkpt>
      <trkpt lat="42.96591" lon="0.30159">
        <ele>1449.3</ele>
        <time>2026-07-07T10:13:58Z</time>
      </trkpt>
      <trkpt lat="42.9659" lon="0.30159">
        <ele>1449.3</ele>
        <time>2026-07-07T10:13:58Z</time>
      </trkpt>
      <trkpt lat="42.9659" lon="0.30158">
        <ele>1449.3</ele>
        <time>2026-07-07T10:13:59Z</time>
      </trkpt>
      <trkpt lat="42.96589" lon="0.30157">
        <ele>1448.3</ele>
        <time>2026-07-07T10:14:00Z</time>
      </trkpt>
      <trkpt lat="42.96589" lon="0.30157">
        <ele>1448.3</ele>
        <time>2026-07-07T10:14:00Z</time>
      </trkpt>
      <trkpt lat="42.96588" lon="0.30156">
        <ele>1448.3</ele>
        <time>2026-07-07T10:14:01Z</time>
      </trkpt>
      <trkpt lat="42.96588" lon="0.30156">
        <ele>1448.3</ele>
        <time>2026-07-07T10:14:01Z</time>
      </trkpt>
      <trkpt lat="42.96587" lon="0.30156">
        <ele>1448.3</ele>
        <time>2026-07-07T10:14:02Z</time>
      </trkpt>
      <trkpt lat="42.96587" lon="0.30155">
        <ele>1448.3</ele>
        <time>2026-07-07T10:14:02Z</time>
      </trkpt>
      <trkpt lat="42.96587" lon="0.30155">
        <ele>1448.3</ele>
        <time>2026-07-07T10:14:03Z</time>
      </trkpt>
      <trkpt lat="42.96586" lon="0.30155">
        <ele>1448.3</ele>
        <time>2026-07-07T10:14:03Z</time>
      </trkpt>
      <trkpt lat="42.96586" lon="0.30154">
        <ele>1448.3</ele>
        <time>2026-07-07T10:14:04Z</time>
      </trkpt>
      <trkpt lat="42.96585" lon="0.30154">
        <ele>1447.3</ele>
        <time>2026-07-07T10:14:05Z</time>
      </trkpt>
      <trkpt lat="42.96585" lon="0.30153">
        <ele>1447.3</ele>
        <time>2026-07-07T10:14:05Z</time>
      </trkpt>
      <trkpt lat="42.96585" lon="0.30153">
        <ele>1447.3</ele>
        <time>2026-07-07T10:14:06Z</time>
      </trkpt>
      <trkpt lat="42.96584" lon="0.30152">
        <ele>1448.3</ele>
        <time>2026-07-07T10:14:06Z</time>
      </trkpt>
      <trkpt lat="42.96583" lon="0.30151">
        <ele>1448.3</ele>
        <time>2026-07-07T10:14:07Z</time>
      </trkpt>
      <trkpt lat="42.96583" lon="0.3015">
        <ele>1448.3</ele>
        <time>2026-07-07T10:14:08Z</time>
      </trkpt>
      <trkpt lat="42.96583" lon="0.3015">
        <ele>1448.3</ele>
        <time>2026-07-07T10:14:08Z</time>
      </trkpt>
      <trkpt lat="42.96583" lon="0.30149">
        <ele>1448.3</ele>
        <time>2026-07-07T10:14:09Z</time>
      </trkpt>
      <trkpt lat="42.96582" lon="0.30149">
        <ele>1448.3</ele>
        <time>2026-07-07T10:14:09Z</time>
      </trkpt>
      <trkpt lat="42.96582" lon="0.30149">
        <ele>1448.3</ele>
        <time>2026-07-07T10:14:10Z</time>
      </trkpt>
      <trkpt lat="42.96582" lon="0.30149">
        <ele>1448.3</ele>
        <time>2026-07-07T10:14:10Z</time>
      </trkpt>
      <trkpt lat="42.96581" lon="0.30148">
        <ele>1448.3</ele>
        <time>2026-07-07T10:14:11Z</time>
      </trkpt>
      <trkpt lat="42.96581" lon="0.30148">
        <ele>1448.3</ele>
        <time>2026-07-07T10:14:11Z</time>
      </trkpt>
      <trkpt lat="42.9658" lon="0.30147">
        <ele>1448.3</ele>
        <time>2026-07-07T10:14:12Z</time>
      </trkpt>
      <trkpt lat="42.9658" lon="0.30147">
        <ele>1447.3</ele>
        <time>2026-07-07T10:14:13Z</time>
      </trkpt>
      <trkpt lat="42.96579" lon="0.30146">
        <ele>1447.3</ele>
        <time>2026-07-07T10:14:13Z</time>
      </trkpt>
      <trkpt lat="42.96579" lon="0.30146">
        <ele>1447.3</ele>
        <time>2026-07-07T10:14:14Z</time>
      </trkpt>
      <trkpt lat="42.96578" lon="0.30146">
        <ele>1447.3</ele>
        <time>2026-07-07T10:14:14Z</time>
      </trkpt>
      <trkpt lat="42.96578" lon="0.30145">
        <ele>1447.3</ele>
        <time>2026-07-07T10:14:15Z</time>
      </trkpt>
      <trkpt lat="42.96577" lon="0.30145">
        <ele>1446.3</ele>
        <time>2026-07-07T10:14:15Z</time>
      </trkpt>
      <trkpt lat="42.96576" lon="0.30145">
        <ele>1446.3</ele>
        <time>2026-07-07T10:14:16Z</time>
      </trkpt>
      <trkpt lat="42.96576" lon="0.30145">
        <ele>1446.3</ele>
        <time>2026-07-07T10:14:16Z</time>
      </trkpt>
      <trkpt lat="42.96575" lon="0.30144">
        <ele>1446.3</ele>
        <time>2026-07-07T10:14:17Z</time>
      </trkpt>
      <trkpt lat="42.96575" lon="0.30144">
        <ele>1445.3</ele>
        <time>2026-07-07T10:14:17Z</time>
      </trkpt>
      <trkpt lat="42.96574" lon="0.30143">
        <ele>1445.3</ele>
        <time>2026-07-07T10:14:18Z</time>
      </trkpt>
      <trkpt lat="42.96574" lon="0.30143">
        <ele>1446.3</ele>
        <time>2026-07-07T10:14:18Z</time>
      </trkpt>
      <trkpt lat="42.96573" lon="0.30142">
        <ele>1446.3</ele>
        <time>2026-07-07T10:14:19Z</time>
      </trkpt>
      <trkpt lat="42.96573" lon="0.30142">
        <ele>1446.3</ele>
        <time>2026-07-07T10:14:20Z</time>
      </trkpt>
      <trkpt lat="42.96572" lon="0.30141">
        <ele>1446.3</ele>
        <time>2026-07-07T10:14:20Z</time>
      </trkpt>
      <trkpt lat="42.96572" lon="0.30141">
        <ele>1445.3</ele>
        <time>2026-07-07T10:14:21Z</time>
      </trkpt>
      <trkpt lat="42.96571" lon="0.30141">
        <ele>1445.3</ele>
        <time>2026-07-07T10:14:21Z</time>
      </trkpt>
      <trkpt lat="42.96571" lon="0.30141">
        <ele>1445.3</ele>
        <time>2026-07-07T10:14:22Z</time>
      </trkpt>
      <trkpt lat="42.9657" lon="0.3014">
        <ele>1445.3</ele>
        <time>2026-07-07T10:14:22Z</time>
      </trkpt>
      <trkpt lat="42.96569" lon="0.30139">
        <ele>1445.3</ele>
        <time>2026-07-07T10:14:23Z</time>
      </trkpt>
      <trkpt lat="42.96569" lon="0.30139">
        <ele>1445.3</ele>
        <time>2026-07-07T10:14:24Z</time>
      </trkpt>
      <trkpt lat="42.96568" lon="0.30138">
        <ele>1444.3</ele>
        <time>2026-07-07T10:14:24Z</time>
      </trkpt>
      <trkpt lat="42.96567" lon="0.30138">
        <ele>1444.3</ele>
        <time>2026-07-07T10:14:25Z</time>
      </trkpt>
      <trkpt lat="42.96567" lon="0.30137">
        <ele>1443.3</ele>
        <time>2026-07-07T10:14:25Z</time>
      </trkpt>
      <trkpt lat="42.96566" lon="0.30137">
        <ele>1443.3</ele>
        <time>2026-07-07T10:14:26Z</time>
      </trkpt>
      <trkpt lat="42.96565" lon="0.30136">
        <ele>1442.3</ele>
        <time>2026-07-07T10:14:27Z</time>
      </trkpt>
      <trkpt lat="42.96564" lon="0.30136">
        <ele>1442.3</ele>
        <time>2026-07-07T10:14:28Z</time>
      </trkpt>
      <trkpt lat="42.96564" lon="0.30135">
        <ele>1442.3</ele>
        <time>2026-07-07T10:14:28Z</time>
      </trkpt>
      <trkpt lat="42.96563" lon="0.30135">
        <ele>1442.3</ele>
        <time>2026-07-07T10:14:29Z</time>
      </trkpt>
      <trkpt lat="42.96563" lon="0.30134">
        <ele>1442.3</ele>
        <time>2026-07-07T10:14:30Z</time>
      </trkpt>
      <trkpt lat="42.96563" lon="0.30134">
        <ele>1442.3</ele>
        <time>2026-07-07T10:14:30Z</time>
      </trkpt>
      <trkpt lat="42.96563" lon="0.30133">
        <ele>1442.3</ele>
        <time>2026-07-07T10:14:31Z</time>
      </trkpt>
      <trkpt lat="42.96563" lon="0.30133">
        <ele>1441.3</ele>
        <time>2026-07-07T10:14:31Z</time>
      </trkpt>
      <trkpt lat="42.96562" lon="0.30133">
        <ele>1441.3</ele>
        <time>2026-07-07T10:14:32Z</time>
      </trkpt>
      <trkpt lat="42.96562" lon="0.30132">
        <ele>1442.3</ele>
        <time>2026-07-07T10:14:32Z</time>
      </trkpt>
      <trkpt lat="42.96562" lon="0.30131">
        <ele>1442.3</ele>
        <time>2026-07-07T10:14:33Z</time>
      </trkpt>
      <trkpt lat="42.96562" lon="0.3013">
        <ele>1442.3</ele>
        <time>2026-07-07T10:14:34Z</time>
      </trkpt>
      <trkpt lat="42.96561" lon="0.3013">
        <ele>1442.3</ele>
        <time>2026-07-07T10:14:34Z</time>
      </trkpt>
      <trkpt lat="42.96561" lon="0.30129">
        <ele>1441.3</ele>
        <time>2026-07-07T10:14:35Z</time>
      </trkpt>
      <trkpt lat="42.96561" lon="0.30128">
        <ele>1440.3</ele>
        <time>2026-07-07T10:14:35Z</time>
      </trkpt>
      <trkpt lat="42.9656" lon="0.30128">
        <ele>1440.3</ele>
        <time>2026-07-07T10:14:36Z</time>
      </trkpt>
      <trkpt lat="42.9656" lon="0.30127">
        <ele>1440.3</ele>
        <time>2026-07-07T10:14:36Z</time>
      </trkpt>
      <trkpt lat="42.96559" lon="0.30126">
        <ele>1440.3</ele>
        <time>2026-07-07T10:14:37Z</time>
      </trkpt>
      <trkpt lat="42.96559" lon="0.30126">
        <ele>1440.3</ele>
        <time>2026-07-07T10:14:37Z</time>
      </trkpt>
      <trkpt lat="42.96558" lon="0.30125">
        <ele>1440.3</ele>
        <time>2026-07-07T10:14:38Z</time>
      </trkpt>
      <trkpt lat="42.96558" lon="0.30125">
        <ele>1440.3</ele>
        <time>2026-07-07T10:14:38Z</time>
      </trkpt>
      <trkpt lat="42.96557" lon="0.30125">
        <ele>1440.3</ele>
        <time>2026-07-07T10:14:39Z</time>
      </trkpt>
      <trkpt lat="42.96557" lon="0.30124">
        <ele>1439.3</ele>
        <time>2026-07-07T10:14:39Z</time>
      </trkpt>
      <trkpt lat="42.96556" lon="0.30124">
        <ele>1439.3</ele>
        <time>2026-07-07T10:14:40Z</time>
      </trkpt>
      <trkpt lat="42.96556" lon="0.30123">
        <ele>1439.3</ele>
        <time>2026-07-07T10:14:40Z</time>
      </trkpt>
      <trkpt lat="42.96555" lon="0.30122">
        <ele>1439.3</ele>
        <time>2026-07-07T10:14:41Z</time>
      </trkpt>
      <trkpt lat="42.96555" lon="0.30121">
        <ele>1439.3</ele>
        <time>2026-07-07T10:14:41Z</time>
      </trkpt>
      <trkpt lat="42.96554" lon="0.30121">
        <ele>1439.3</ele>
        <time>2026-07-07T10:14:42Z</time>
      </trkpt>
      <trkpt lat="42.96554" lon="0.3012">
        <ele>1438.3</ele>
        <time>2026-07-07T10:14:43Z</time>
      </trkpt>
      <trkpt lat="42.96553" lon="0.30119">
        <ele>1438.3</ele>
        <time>2026-07-07T10:14:43Z</time>
      </trkpt>
      <trkpt lat="42.96552" lon="0.30119">
        <ele>1437.3</ele>
        <time>2026-07-07T10:14:44Z</time>
      </trkpt>
      <trkpt lat="42.96552" lon="0.30119">
        <ele>1437.3</ele>
        <time>2026-07-07T10:14:44Z</time>
      </trkpt>
      <trkpt lat="42.96551" lon="0.30118">
        <ele>1437.3</ele>
        <time>2026-07-07T10:14:45Z</time>
      </trkpt>
      <trkpt lat="42.9655" lon="0.30118">
        <ele>1437.3</ele>
        <time>2026-07-07T10:14:45Z</time>
      </trkpt>
      <trkpt lat="42.96549" lon="0.30118">
        <ele>1437.3</ele>
        <time>2026-07-07T10:14:46Z</time>
      </trkpt>
      <trkpt lat="42.96549" lon="0.30117">
        <ele>1437.3</ele>
        <time>2026-07-07T10:14:46Z</time>
      </trkpt>
      <trkpt lat="42.96548" lon="0.30116">
        <ele>1436.3</ele>
        <time>2026-07-07T10:14:47Z</time>
      </trkpt>
      <trkpt lat="42.96547" lon="0.30115">
        <ele>1436.3</ele>
        <time>2026-07-07T10:14:48Z</time>
      </trkpt>
      <trkpt lat="42.96546" lon="0.30115">
        <ele>1435.3</ele>
        <time>2026-07-07T10:14:48Z</time>
      </trkpt>
      <trkpt lat="42.96546" lon="0.30114">
        <ele>1435.3</ele>
        <time>2026-07-07T10:14:49Z</time>
      </trkpt>
      <trkpt lat="42.96545" lon="0.30114">
        <ele>1435.3</ele>
        <time>2026-07-07T10:14:49Z</time>
      </trkpt>
      <trkpt lat="42.96544" lon="0.30113">
        <ele>1435.3</ele>
        <time>2026-07-07T10:14:50Z</time>
      </trkpt>
      <trkpt lat="42.96544" lon="0.30113">
        <ele>1435.3</ele>
        <time>2026-07-07T10:14:50Z</time>
      </trkpt>
      <trkpt lat="42.96543" lon="0.30112">
        <ele>1435.3</ele>
        <time>2026-07-07T10:14:51Z</time>
      </trkpt>
      <trkpt lat="42.96542" lon="0.30112">
        <ele>1435.3</ele>
        <time>2026-07-07T10:14:51Z</time>
      </trkpt>
      <trkpt lat="42.96542" lon="0.30111">
        <ele>1435.3</ele>
        <time>2026-07-07T10:14:52Z</time>
      </trkpt>
      <trkpt lat="42.96541" lon="0.30111">
        <ele>1435.3</ele>
        <time>2026-07-07T10:14:52Z</time>
      </trkpt>
      <trkpt lat="42.9654" lon="0.3011">
        <ele>1435.3</ele>
        <time>2026-07-07T10:14:53Z</time>
      </trkpt>
      <trkpt lat="42.9654" lon="0.3011">
        <ele>1435.3</ele>
        <time>2026-07-07T10:14:54Z</time>
      </trkpt>
      <trkpt lat="42.96539" lon="0.30109">
        <ele>1435.3</ele>
        <time>2026-07-07T10:14:54Z</time>
      </trkpt>
      <trkpt lat="42.96539" lon="0.30108">
        <ele>1435.3</ele>
        <time>2026-07-07T10:14:55Z</time>
      </trkpt>
      <trkpt lat="42.96538" lon="0.30108">
        <ele>1435.3</ele>
        <time>2026-07-07T10:14:55Z</time>
      </trkpt>
      <trkpt lat="42.96538" lon="0.30107">
        <ele>1435.3</ele>
        <time>2026-07-07T10:14:56Z</time>
      </trkpt>
      <trkpt lat="42.96537" lon="0.30106">
        <ele>1435.3</ele>
        <time>2026-07-07T10:14:56Z</time>
      </trkpt>
      <trkpt lat="42.96537" lon="0.30106">
        <ele>1435.3</ele>
        <time>2026-07-07T10:14:57Z</time>
      </trkpt>
      <trkpt lat="42.96536" lon="0.30105">
        <ele>1435.3</ele>
        <time>2026-07-07T10:14:57Z</time>
      </trkpt>
      <trkpt lat="42.96536" lon="0.30105">
        <ele>1435.3</ele>
        <time>2026-07-07T10:14:58Z</time>
      </trkpt>
      <trkpt lat="42.96535" lon="0.30104">
        <ele>1435.3</ele>
        <time>2026-07-07T10:14:58Z</time>
      </trkpt>
      <trkpt lat="42.96534" lon="0.30103">
        <ele>1435.3</ele>
        <time>2026-07-07T10:14:59Z</time>
      </trkpt>
      <trkpt lat="42.96534" lon="0.30102">
        <ele>1435.3</ele>
        <time>2026-07-07T10:15:00Z</time>
      </trkpt>
      <trkpt lat="42.96534" lon="0.30102">
        <ele>1435.3</ele>
        <time>2026-07-07T10:15:00Z</time>
      </trkpt>
      <trkpt lat="42.96533" lon="0.30101">
        <ele>1435.3</ele>
        <time>2026-07-07T10:15:01Z</time>
      </trkpt>
      <trkpt lat="42.96533" lon="0.301">
        <ele>1435.3</ele>
        <time>2026-07-07T10:15:02Z</time>
      </trkpt>
      <trkpt lat="42.96532" lon="0.30099">
        <ele>1434.3</ele>
        <time>2026-07-07T10:15:02Z</time>
      </trkpt>
      <trkpt lat="42.96532" lon="0.30098">
        <ele>1434.3</ele>
        <time>2026-07-07T10:15:03Z</time>
      </trkpt>
      <trkpt lat="42.96531" lon="0.30098">
        <ele>1434.3</ele>
        <time>2026-07-07T10:15:04Z</time>
      </trkpt>
      <trkpt lat="42.96531" lon="0.30097">
        <ele>1434.3</ele>
        <time>2026-07-07T10:15:04Z</time>
      </trkpt>
      <trkpt lat="42.9653" lon="0.30096">
        <ele>1434.3</ele>
        <time>2026-07-07T10:15:05Z</time>
      </trkpt>
      <trkpt lat="42.9653" lon="0.30096">
        <ele>1434.3</ele>
        <time>2026-07-07T10:15:05Z</time>
      </trkpt>
      <trkpt lat="42.96529" lon="0.30095">
        <ele>1434.3</ele>
        <time>2026-07-07T10:15:06Z</time>
      </trkpt>
      <trkpt lat="42.96529" lon="0.30094">
        <ele>1434.3</ele>
        <time>2026-07-07T10:15:06Z</time>
      </trkpt>
      <trkpt lat="42.96528" lon="0.30094">
        <ele>1434.3</ele>
        <time>2026-07-07T10:15:07Z</time>
      </trkpt>
      <trkpt lat="42.96528" lon="0.30093">
        <ele>1434.3</ele>
        <time>2026-07-07T10:15:07Z</time>
      </trkpt>
      <trkpt lat="42.96527" lon="0.30092">
        <ele>1434.3</ele>
        <time>2026-07-07T10:15:08Z</time>
      </trkpt>
      <trkpt lat="42.96526" lon="0.3009">
        <ele>1435.3</ele>
        <time>2026-07-07T10:15:09Z</time>
      </trkpt>
      <trkpt lat="42.96526" lon="0.3009">
        <ele>1434.3</ele>
        <time>2026-07-07T10:15:09Z</time>
      </trkpt>
      <trkpt lat="42.96526" lon="0.30089">
        <ele>1434.3</ele>
        <time>2026-07-07T10:15:10Z</time>
      </trkpt>
      <trkpt lat="42.96525" lon="0.30088">
        <ele>1434.3</ele>
        <time>2026-07-07T10:15:10Z</time>
      </trkpt>
      <trkpt lat="42.96525" lon="0.30088">
        <ele>1434.3</ele>
        <time>2026-07-07T10:15:11Z</time>
      </trkpt>
      <trkpt lat="42.96525" lon="0.30087">
        <ele>1433.3</ele>
        <time>2026-07-07T10:15:12Z</time>
      </trkpt>
      <trkpt lat="42.96524" lon="0.30086">
        <ele>1433.3</ele>
        <time>2026-07-07T10:15:12Z</time>
      </trkpt>
      <trkpt lat="42.96523" lon="0.30084">
        <ele>1433.3</ele>
        <time>2026-07-07T10:15:13Z</time>
      </trkpt>
      <trkpt lat="42.96523" lon="0.30084">
        <ele>1433.3</ele>
        <time>2026-07-07T10:15:14Z</time>
      </trkpt>
      <trkpt lat="42.96523" lon="0.30083">
        <ele>1433.3</ele>
        <time>2026-07-07T10:15:14Z</time>
      </trkpt>
      <trkpt lat="42.96522" lon="0.30083">
        <ele>1433.3</ele>
        <time>2026-07-07T10:15:15Z</time>
      </trkpt>
      <trkpt lat="42.96522" lon="0.30082">
        <ele>1433.3</ele>
        <time>2026-07-07T10:15:15Z</time>
      </trkpt>
      <trkpt lat="42.96521" lon="0.30081">
        <ele>1433.3</ele>
        <time>2026-07-07T10:15:16Z</time>
      </trkpt>
      <trkpt lat="42.96521" lon="0.3008">
        <ele>1433.3</ele>
        <time>2026-07-07T10:15:16Z</time>
      </trkpt>
      <trkpt lat="42.96521" lon="0.3008">
        <ele>1433.3</ele>
        <time>2026-07-07T10:15:17Z</time>
      </trkpt>
      <trkpt lat="42.9652" lon="0.30079">
        <ele>1433.3</ele>
        <time>2026-07-07T10:15:17Z</time>
      </trkpt>
      <trkpt lat="42.9652" lon="0.30078">
        <ele>1433.3</ele>
        <time>2026-07-07T10:15:18Z</time>
      </trkpt>
      <trkpt lat="42.9652" lon="0.30078">
        <ele>1433.3</ele>
        <time>2026-07-07T10:15:18Z</time>
      </trkpt>
      <trkpt lat="42.96519" lon="0.30077">
        <ele>1433.3</ele>
        <time>2026-07-07T10:15:19Z</time>
      </trkpt>
      <trkpt lat="42.96519" lon="0.30077">
        <ele>1433.3</ele>
        <time>2026-07-07T10:15:19Z</time>
      </trkpt>
      <trkpt lat="42.96518" lon="0.30076">
        <ele>1433.3</ele>
        <time>2026-07-07T10:15:20Z</time>
      </trkpt>
      <trkpt lat="42.96518" lon="0.30075">
        <ele>1433.3</ele>
        <time>2026-07-07T10:15:21Z</time>
      </trkpt>
      <trkpt lat="42.96518" lon="0.30074">
        <ele>1433.3</ele>
        <time>2026-07-07T10:15:22Z</time>
      </trkpt>
      <trkpt lat="42.96517" lon="0.30074">
        <ele>1433.3</ele>
        <time>2026-07-07T10:15:22Z</time>
      </trkpt>
      <trkpt lat="42.96517" lon="0.30073">
        <ele>1433.3</ele>
        <time>2026-07-07T10:15:23Z</time>
      </trkpt>
      <trkpt lat="42.96516" lon="0.30072">
        <ele>1433.3</ele>
        <time>2026-07-07T10:15:23Z</time>
      </trkpt>
      <trkpt lat="42.96516" lon="0.30072">
        <ele>1433.3</ele>
        <time>2026-07-07T10:15:24Z</time>
      </trkpt>
      <trkpt lat="42.96516" lon="0.30071">
        <ele>1433.3</ele>
        <time>2026-07-07T10:15:24Z</time>
      </trkpt>
      <trkpt lat="42.96515" lon="0.30071">
        <ele>1432.3</ele>
        <time>2026-07-07T10:15:25Z</time>
      </trkpt>
      <trkpt lat="42.96515" lon="0.3007">
        <ele>1432.3</ele>
        <time>2026-07-07T10:15:25Z</time>
      </trkpt>
      <trkpt lat="42.96514" lon="0.30069">
        <ele>1432.3</ele>
        <time>2026-07-07T10:15:26Z</time>
      </trkpt>
      <trkpt lat="42.96514" lon="0.30069">
        <ele>1432.3</ele>
        <time>2026-07-07T10:15:26Z</time>
      </trkpt>
      <trkpt lat="42.96513" lon="0.30068">
        <ele>1432.3</ele>
        <time>2026-07-07T10:15:27Z</time>
      </trkpt>
      <trkpt lat="42.96513" lon="0.30068">
        <ele>1432.3</ele>
        <time>2026-07-07T10:15:27Z</time>
      </trkpt>
      <trkpt lat="42.96513" lon="0.30067">
        <ele>1432.3</ele>
        <time>2026-07-07T10:15:28Z</time>
      </trkpt>
      <trkpt lat="42.96512" lon="0.30067">
        <ele>1432.3</ele>
        <time>2026-07-07T10:15:28Z</time>
      </trkpt>
      <trkpt lat="42.96512" lon="0.30066">
        <ele>1432.3</ele>
        <time>2026-07-07T10:15:29Z</time>
      </trkpt>
      <trkpt lat="42.96511" lon="0.30065">
        <ele>1432.3</ele>
        <time>2026-07-07T10:15:30Z</time>
      </trkpt>
      <trkpt lat="42.9651" lon="0.30065">
        <ele>1431.3</ele>
        <time>2026-07-07T10:15:31Z</time>
      </trkpt>
      <trkpt lat="42.9651" lon="0.30064">
        <ele>1431.3</ele>
        <time>2026-07-07T10:15:31Z</time>
      </trkpt>
      <trkpt lat="42.96509" lon="0.30063">
        <ele>1432.3</ele>
        <time>2026-07-07T10:15:32Z</time>
      </trkpt>
      <trkpt lat="42.96509" lon="0.30063">
        <ele>1432.3</ele>
        <time>2026-07-07T10:15:32Z</time>
      </trkpt>
      <trkpt lat="42.96508" lon="0.30062">
        <ele>1431.3</ele>
        <time>2026-07-07T10:15:33Z</time>
      </trkpt>
      <trkpt lat="42.96508" lon="0.30062">
        <ele>1432.3</ele>
        <time>2026-07-07T10:15:33Z</time>
      </trkpt>
      <trkpt lat="42.96507" lon="0.30061">
        <ele>1432.3</ele>
        <time>2026-07-07T10:15:34Z</time>
      </trkpt>
      <trkpt lat="42.96507" lon="0.30061">
        <ele>1432.3</ele>
        <time>2026-07-07T10:15:34Z</time>
      </trkpt>
      <trkpt lat="42.96506" lon="0.3006">
        <ele>1432.3</ele>
        <time>2026-07-07T10:15:35Z</time>
      </trkpt>
      <trkpt lat="42.96505" lon="0.30059">
        <ele>1432.3</ele>
        <time>2026-07-07T10:15:36Z</time>
      </trkpt>
      <trkpt lat="42.96505" lon="0.30058">
        <ele>1432.3</ele>
        <time>2026-07-07T10:15:36Z</time>
      </trkpt>
      <trkpt lat="42.96504" lon="0.30057">
        <ele>1432.3</ele>
        <time>2026-07-07T10:15:37Z</time>
      </trkpt>
      <trkpt lat="42.96504" lon="0.30057">
        <ele>1432.3</ele>
        <time>2026-07-07T10:15:37Z</time>
      </trkpt>
      <trkpt lat="42.96503" lon="0.30056">
        <ele>1432.3</ele>
        <time>2026-07-07T10:15:38Z</time>
      </trkpt>
      <trkpt lat="42.96503" lon="0.30056">
        <ele>1432.3</ele>
        <time>2026-07-07T10:15:38Z</time>
      </trkpt>
      <trkpt lat="42.96502" lon="0.30055">
        <ele>1432.3</ele>
        <time>2026-07-07T10:15:39Z</time>
      </trkpt>
      <trkpt lat="42.96501" lon="0.30054">
        <ele>1432.3</ele>
        <time>2026-07-07T10:15:40Z</time>
      </trkpt>
      <trkpt lat="42.96501" lon="0.30054">
        <ele>1432.3</ele>
        <time>2026-07-07T10:15:40Z</time>
      </trkpt>
      <trkpt lat="42.965" lon="0.30052">
        <ele>1432.3</ele>
        <time>2026-07-07T10:15:41Z</time>
      </trkpt>
      <trkpt lat="42.965" lon="0.30052">
        <ele>1432.3</ele>
        <time>2026-07-07T10:15:42Z</time>
      </trkpt>
      <trkpt lat="42.96499" lon="0.30051">
        <ele>1432.3</ele>
        <time>2026-07-07T10:15:42Z</time>
      </trkpt>
      <trkpt lat="42.96499" lon="0.3005">
        <ele>1432.3</ele>
        <time>2026-07-07T10:15:43Z</time>
      </trkpt>
      <trkpt lat="42.96499" lon="0.30049">
        <ele>1431.3</ele>
        <time>2026-07-07T10:15:43Z</time>
      </trkpt>
      <trkpt lat="42.96498" lon="0.30048">
        <ele>1431.3</ele>
        <time>2026-07-07T10:15:44Z</time>
      </trkpt>
      <trkpt lat="42.96498" lon="0.30047">
        <ele>1430.3</ele>
        <time>2026-07-07T10:15:44Z</time>
      </trkpt>
      <trkpt lat="42.96498" lon="0.30045">
        <ele>1431.3</ele>
        <time>2026-07-07T10:15:45Z</time>
      </trkpt>
      <trkpt lat="42.96498" lon="0.30044">
        <ele>1431.3</ele>
        <time>2026-07-07T10:15:46Z</time>
      </trkpt>
      <trkpt lat="42.96498" lon="0.30043">
        <ele>1431.3</ele>
        <time>2026-07-07T10:15:46Z</time>
      </trkpt>
      <trkpt lat="42.96498" lon="0.30042">
        <ele>1431.3</ele>
        <time>2026-07-07T10:15:47Z</time>
      </trkpt>
      <trkpt lat="42.96498" lon="0.30041">
        <ele>1431.3</ele>
        <time>2026-07-07T10:15:47Z</time>
      </trkpt>
      <trkpt lat="42.96498" lon="0.3004">
        <ele>1431.3</ele>
        <time>2026-07-07T10:15:48Z</time>
      </trkpt>
      <trkpt lat="42.96498" lon="0.30039">
        <ele>1431.3</ele>
        <time>2026-07-07T10:15:48Z</time>
      </trkpt>
      <trkpt lat="42.96498" lon="0.30038">
        <ele>1431.3</ele>
        <time>2026-07-07T10:15:49Z</time>
      </trkpt>
      <trkpt lat="42.96498" lon="0.30037">
        <ele>1431.3</ele>
        <time>2026-07-07T10:15:49Z</time>
      </trkpt>
      <trkpt lat="42.96498" lon="0.30036">
        <ele>1431.3</ele>
        <time>2026-07-07T10:15:50Z</time>
      </trkpt>
      <trkpt lat="42.96497" lon="0.30034">
        <ele>1430.3</ele>
        <time>2026-07-07T10:15:51Z</time>
      </trkpt>
      <trkpt lat="42.96497" lon="0.30034">
        <ele>1430.3</ele>
        <time>2026-07-07T10:15:52Z</time>
      </trkpt>
      <trkpt lat="42.96497" lon="0.30033">
        <ele>1430.3</ele>
        <time>2026-07-07T10:15:52Z</time>
      </trkpt>
      <trkpt lat="42.96496" lon="0.30032">
        <ele>1430.3</ele>
        <time>2026-07-07T10:15:53Z</time>
      </trkpt>
      <trkpt lat="42.96496" lon="0.30032">
        <ele>1430.3</ele>
        <time>2026-07-07T10:15:53Z</time>
      </trkpt>
      <trkpt lat="42.96496" lon="0.30031">
        <ele>1430.3</ele>
        <time>2026-07-07T10:15:54Z</time>
      </trkpt>
      <trkpt lat="42.96496" lon="0.3003">
        <ele>1430.3</ele>
        <time>2026-07-07T10:15:54Z</time>
      </trkpt>
      <trkpt lat="42.96495" lon="0.30029">
        <ele>1430.3</ele>
        <time>2026-07-07T10:15:55Z</time>
      </trkpt>
      <trkpt lat="42.96495" lon="0.30028">
        <ele>1430.3</ele>
        <time>2026-07-07T10:15:55Z</time>
      </trkpt>
      <trkpt lat="42.96495" lon="0.30027">
        <ele>1430.3</ele>
        <time>2026-07-07T10:15:56Z</time>
      </trkpt>
      <trkpt lat="42.96495" lon="0.30027">
        <ele>1430.3</ele>
        <time>2026-07-07T10:15:56Z</time>
      </trkpt>
      <trkpt lat="42.96495" lon="0.30025">
        <ele>1430.3</ele>
        <time>2026-07-07T10:15:57Z</time>
      </trkpt>
      <trkpt lat="42.96494" lon="0.30025">
        <ele>1430.3</ele>
        <time>2026-07-07T10:15:57Z</time>
      </trkpt>
      <trkpt lat="42.96494" lon="0.30024">
        <ele>1430.3</ele>
        <time>2026-07-07T10:15:58Z</time>
      </trkpt>
      <trkpt lat="42.96494" lon="0.30023">
        <ele>1430.3</ele>
        <time>2026-07-07T10:15:58Z</time>
      </trkpt>
      <trkpt lat="42.96493" lon="0.30022">
        <ele>1430.3</ele>
        <time>2026-07-07T10:15:59Z</time>
      </trkpt>
      <trkpt lat="42.96493" lon="0.30021">
        <ele>1430.3</ele>
        <time>2026-07-07T10:15:59Z</time>
      </trkpt>
      <trkpt lat="42.96492" lon="0.3002">
        <ele>1430.3</ele>
        <time>2026-07-07T10:16:00Z</time>
      </trkpt>
      <trkpt lat="42.96492" lon="0.30018">
        <ele>1430.3</ele>
        <time>2026-07-07T10:16:01Z</time>
      </trkpt>
      <trkpt lat="42.96491" lon="0.30017">
        <ele>1430.3</ele>
        <time>2026-07-07T10:16:02Z</time>
      </trkpt>
      <trkpt lat="42.96491" lon="0.30017">
        <ele>1430.3</ele>
        <time>2026-07-07T10:16:02Z</time>
      </trkpt>
      <trkpt lat="42.9649" lon="0.30016">
        <ele>1430.3</ele>
        <time>2026-07-07T10:16:03Z</time>
      </trkpt>
      <trkpt lat="42.9649" lon="0.30015">
        <ele>1430.3</ele>
        <time>2026-07-07T10:16:03Z</time>
      </trkpt>
      <trkpt lat="42.96489" lon="0.30014">
        <ele>1430.3</ele>
        <time>2026-07-07T10:16:04Z</time>
      </trkpt>
      <trkpt lat="42.96488" lon="0.30014">
        <ele>1430.3</ele>
        <time>2026-07-07T10:16:04Z</time>
      </trkpt>
      <trkpt lat="42.96488" lon="0.30013">
        <ele>1430.3</ele>
        <time>2026-07-07T10:16:05Z</time>
      </trkpt>
      <trkpt lat="42.96487" lon="0.30012">
        <ele>1430.3</ele>
        <time>2026-07-07T10:16:05Z</time>
      </trkpt>
      <trkpt lat="42.96487" lon="0.30011">
        <ele>1430.3</ele>
        <time>2026-07-07T10:16:06Z</time>
      </trkpt>
      <trkpt lat="42.96487" lon="0.3001">
        <ele>1430.3</ele>
        <time>2026-07-07T10:16:06Z</time>
      </trkpt>
      <trkpt lat="42.96486" lon="0.30009">
        <ele>1430.3</ele>
        <time>2026-07-07T10:16:07Z</time>
      </trkpt>
      <trkpt lat="42.96486" lon="0.30008">
        <ele>1430.3</ele>
        <time>2026-07-07T10:16:07Z</time>
      </trkpt>
      <trkpt lat="42.96485" lon="0.30007">
        <ele>1430.3</ele>
        <time>2026-07-07T10:16:08Z</time>
      </trkpt>
      <trkpt lat="42.96484" lon="0.30006">
        <ele>1430.3</ele>
        <time>2026-07-07T10:16:09Z</time>
      </trkpt>
      <trkpt lat="42.96484" lon="0.30006">
        <ele>1430.3</ele>
        <time>2026-07-07T10:16:09Z</time>
      </trkpt>
      <trkpt lat="42.96483" lon="0.30005">
        <ele>1430.3</ele>
        <time>2026-07-07T10:16:10Z</time>
      </trkpt>
      <trkpt lat="42.96483" lon="0.30004">
        <ele>1430.3</ele>
        <time>2026-07-07T10:16:11Z</time>
      </trkpt>
      <trkpt lat="42.96482" lon="0.30003">
        <ele>1430.3</ele>
        <time>2026-07-07T10:16:11Z</time>
      </trkpt>
      <trkpt lat="42.96482" lon="0.30002">
        <ele>1429.3</ele>
        <time>2026-07-07T10:16:12Z</time>
      </trkpt>
      <trkpt lat="42.96481" lon="0.30001">
        <ele>1429.3</ele>
        <time>2026-07-07T10:16:12Z</time>
      </trkpt>
      <trkpt lat="42.96481" lon="0.30001">
        <ele>1429.3</ele>
        <time>2026-07-07T10:16:13Z</time>
      </trkpt>
      <trkpt lat="42.9648" lon="0.3">
        <ele>1429.3</ele>
        <time>2026-07-07T10:16:13Z</time>
      </trkpt>
      <trkpt lat="42.9648" lon="0.29999">
        <ele>1430.3</ele>
        <time>2026-07-07T10:16:14Z</time>
      </trkpt>
      <trkpt lat="42.96479" lon="0.29999">
        <ele>1429.3</ele>
        <time>2026-07-07T10:16:14Z</time>
      </trkpt>
      <trkpt lat="42.96479" lon="0.29998">
        <ele>1429.3</ele>
        <time>2026-07-07T10:16:15Z</time>
      </trkpt>
      <trkpt lat="42.96478" lon="0.29997">
        <ele>1430.3</ele>
        <time>2026-07-07T10:16:15Z</time>
      </trkpt>
      <trkpt lat="42.96478" lon="0.29996">
        <ele>1430.3</ele>
        <time>2026-07-07T10:16:16Z</time>
      </trkpt>
      <trkpt lat="42.96478" lon="0.29995">
        <ele>1430.3</ele>
        <time>2026-07-07T10:16:16Z</time>
      </trkpt>
      <trkpt lat="42.96477" lon="0.29995">
        <ele>1430.3</ele>
        <time>2026-07-07T10:16:17Z</time>
      </trkpt>
      <trkpt lat="42.96477" lon="0.29994">
        <ele>1430.3</ele>
        <time>2026-07-07T10:16:17Z</time>
      </trkpt>
      <trkpt lat="42.96476" lon="0.29993">
        <ele>1430.3</ele>
        <time>2026-07-07T10:16:18Z</time>
      </trkpt>
      <trkpt lat="42.96476" lon="0.29992">
        <ele>1429.3</ele>
        <time>2026-07-07T10:16:18Z</time>
      </trkpt>
      <trkpt lat="42.96475" lon="0.29991">
        <ele>1430.3</ele>
        <time>2026-07-07T10:16:19Z</time>
      </trkpt>
      <trkpt lat="42.96474" lon="0.2999">
        <ele>1430.3</ele>
        <time>2026-07-07T10:16:20Z</time>
      </trkpt>
      <trkpt lat="42.96474" lon="0.29989">
        <ele>1430.3</ele>
        <time>2026-07-07T10:16:21Z</time>
      </trkpt>
      <trkpt lat="42.96473" lon="0.29988">
        <ele>1430.3</ele>
        <time>2026-07-07T10:16:21Z</time>
      </trkpt>
      <trkpt lat="42.96473" lon="0.29987">
        <ele>1430.3</ele>
        <time>2026-07-07T10:16:22Z</time>
      </trkpt>
      <trkpt lat="42.96472" lon="0.29987">
        <ele>1430.3</ele>
        <time>2026-07-07T10:16:22Z</time>
      </trkpt>
      <trkpt lat="42.96471" lon="0.29986">
        <ele>1430.3</ele>
        <time>2026-07-07T10:16:23Z</time>
      </trkpt>
      <trkpt lat="42.96471" lon="0.29985">
        <ele>1430.3</ele>
        <time>2026-07-07T10:16:23Z</time>
      </trkpt>
      <trkpt lat="42.9647" lon="0.29985">
        <ele>1431.3</ele>
        <time>2026-07-07T10:16:24Z</time>
      </trkpt>
      <trkpt lat="42.96469" lon="0.29984">
        <ele>1430.3</ele>
        <time>2026-07-07T10:16:24Z</time>
      </trkpt>
      <trkpt lat="42.96469" lon="0.29984">
        <ele>1430.3</ele>
        <time>2026-07-07T10:16:25Z</time>
      </trkpt>
      <trkpt lat="42.96468" lon="0.29983">
        <ele>1430.3</ele>
        <time>2026-07-07T10:16:25Z</time>
      </trkpt>
      <trkpt lat="42.96468" lon="0.29983">
        <ele>1430.3</ele>
        <time>2026-07-07T10:16:26Z</time>
      </trkpt>
      <trkpt lat="42.96467" lon="0.29982">
        <ele>1430.3</ele>
        <time>2026-07-07T10:16:26Z</time>
      </trkpt>
      <trkpt lat="42.96467" lon="0.29981">
        <ele>1430.3</ele>
        <time>2026-07-07T10:16:27Z</time>
      </trkpt>
      <trkpt lat="42.96466" lon="0.29981">
        <ele>1430.3</ele>
        <time>2026-07-07T10:16:27Z</time>
      </trkpt>
      <trkpt lat="42.96466" lon="0.29981">
        <ele>1430.3</ele>
        <time>2026-07-07T10:16:28Z</time>
      </trkpt>
      <trkpt lat="42.96465" lon="0.29981">
        <ele>1430.3</ele>
        <time>2026-07-07T10:16:28Z</time>
      </trkpt>
      <trkpt lat="42.96465" lon="0.2998">
        <ele>1430.3</ele>
        <time>2026-07-07T10:16:29Z</time>
      </trkpt>
      <trkpt lat="42.96464" lon="0.2998">
        <ele>1430.3</ele>
        <time>2026-07-07T10:16:30Z</time>
      </trkpt>
      <trkpt lat="42.96464" lon="0.29979">
        <ele>1430.3</ele>
        <time>2026-07-07T10:16:30Z</time>
      </trkpt>
      <trkpt lat="42.96463" lon="0.29979">
        <ele>1429.3</ele>
        <time>2026-07-07T10:16:31Z</time>
      </trkpt>
      <trkpt lat="42.96462" lon="0.29978">
        <ele>1429.3</ele>
        <time>2026-07-07T10:16:31Z</time>
      </trkpt>
      <trkpt lat="42.96462" lon="0.29978">
        <ele>1429.3</ele>
        <time>2026-07-07T10:16:32Z</time>
      </trkpt>
      <trkpt lat="42.96461" lon="0.29977">
        <ele>1429.3</ele>
        <time>2026-07-07T10:16:32Z</time>
      </trkpt>
      <trkpt lat="42.96461" lon="0.29977">
        <ele>1429.3</ele>
        <time>2026-07-07T10:16:33Z</time>
      </trkpt>
      <trkpt lat="42.9646" lon="0.29976">
        <ele>1429.3</ele>
        <time>2026-07-07T10:16:33Z</time>
      </trkpt>
      <trkpt lat="42.9646" lon="0.29976">
        <ele>1429.3</ele>
        <time>2026-07-07T10:16:34Z</time>
      </trkpt>
      <trkpt lat="42.96459" lon="0.29975">
        <ele>1429.3</ele>
        <time>2026-07-07T10:16:34Z</time>
      </trkpt>
      <trkpt lat="42.96459" lon="0.29975">
        <ele>1429.3</ele>
        <time>2026-07-07T10:16:35Z</time>
      </trkpt>
      <trkpt lat="42.96458" lon="0.29974">
        <ele>1429.3</ele>
        <time>2026-07-07T10:16:35Z</time>
      </trkpt>
      <trkpt lat="42.96458" lon="0.29974">
        <ele>1429.3</ele>
        <time>2026-07-07T10:16:36Z</time>
      </trkpt>
      <trkpt lat="42.96457" lon="0.29973">
        <ele>1429.3</ele>
        <time>2026-07-07T10:16:36Z</time>
      </trkpt>
      <trkpt lat="42.96457" lon="0.29973">
        <ele>1429.3</ele>
        <time>2026-07-07T10:16:37Z</time>
      </trkpt>
      <trkpt lat="42.96456" lon="0.29972">
        <ele>1429.3</ele>
        <time>2026-07-07T10:16:37Z</time>
      </trkpt>
      <trkpt lat="42.96455" lon="0.29972">
        <ele>1429.3</ele>
        <time>2026-07-07T10:16:38Z</time>
      </trkpt>
      <trkpt lat="42.96455" lon="0.29972">
        <ele>1428.3</ele>
        <time>2026-07-07T10:16:39Z</time>
      </trkpt>
      <trkpt lat="42.96454" lon="0.29971">
        <ele>1428.3</ele>
        <time>2026-07-07T10:16:39Z</time>
      </trkpt>
      <trkpt lat="42.96454" lon="0.29971">
        <ele>1428.3</ele>
        <time>2026-07-07T10:16:40Z</time>
      </trkpt>
      <trkpt lat="42.96453" lon="0.2997">
        <ele>1428.3</ele>
        <time>2026-07-07T10:16:40Z</time>
      </trkpt>
      <trkpt lat="42.96452" lon="0.29969">
        <ele>1428.3</ele>
        <time>2026-07-07T10:16:41Z</time>
      </trkpt>
      <trkpt lat="42.96451" lon="0.29969">
        <ele>1427.3</ele>
        <time>2026-07-07T10:16:42Z</time>
      </trkpt>
      <trkpt lat="42.96451" lon="0.29968">
        <ele>1427.3</ele>
        <time>2026-07-07T10:16:42Z</time>
      </trkpt>
      <trkpt lat="42.9645" lon="0.29968">
        <ele>1427.3</ele>
        <time>2026-07-07T10:16:43Z</time>
      </trkpt>
      <trkpt lat="42.9645" lon="0.29968">
        <ele>1428.3</ele>
        <time>2026-07-07T10:16:43Z</time>
      </trkpt>
      <trkpt lat="42.9645" lon="0.29967">
        <ele>1428.3</ele>
        <time>2026-07-07T10:16:44Z</time>
      </trkpt>
      <trkpt lat="42.96449" lon="0.29966">
        <ele>1428.3</ele>
        <time>2026-07-07T10:16:44Z</time>
      </trkpt>
      <trkpt lat="42.96449" lon="0.29966">
        <ele>1428.3</ele>
        <time>2026-07-07T10:16:45Z</time>
      </trkpt>
      <trkpt lat="42.96449" lon="0.29965">
        <ele>1428.3</ele>
        <time>2026-07-07T10:16:45Z</time>
      </trkpt>
      <trkpt lat="42.96448" lon="0.29964">
        <ele>1428.3</ele>
        <time>2026-07-07T10:16:46Z</time>
      </trkpt>
      <trkpt lat="42.96448" lon="0.29964">
        <ele>1429.3</ele>
        <time>2026-07-07T10:16:46Z</time>
      </trkpt>
      <trkpt lat="42.96448" lon="0.29963">
        <ele>1429.3</ele>
        <time>2026-07-07T10:16:47Z</time>
      </trkpt>
      <trkpt lat="42.96447" lon="0.29962">
        <ele>1428.3</ele>
        <time>2026-07-07T10:16:47Z</time>
      </trkpt>
      <trkpt lat="42.96447" lon="0.29962">
        <ele>1428.3</ele>
        <time>2026-07-07T10:16:48Z</time>
      </trkpt>
      <trkpt lat="42.96446" lon="0.2996">
        <ele>1428.3</ele>
        <time>2026-07-07T10:16:49Z</time>
      </trkpt>
      <trkpt lat="42.96446" lon="0.2996">
        <ele>1428.3</ele>
        <time>2026-07-07T10:16:49Z</time>
      </trkpt>
      <trkpt lat="42.96445" lon="0.29959">
        <ele>1428.3</ele>
        <time>2026-07-07T10:16:50Z</time>
      </trkpt>
      <trkpt lat="42.96445" lon="0.29958">
        <ele>1428.3</ele>
        <time>2026-07-07T10:16:51Z</time>
      </trkpt>
      <trkpt lat="42.96445" lon="0.29958">
        <ele>1428.3</ele>
        <time>2026-07-07T10:16:51Z</time>
      </trkpt>
      <trkpt lat="42.96444" lon="0.29957">
        <ele>1427.3</ele>
        <time>2026-07-07T10:16:52Z</time>
      </trkpt>
      <trkpt lat="42.96444" lon="0.29956">
        <ele>1427.3</ele>
        <time>2026-07-07T10:16:52Z</time>
      </trkpt>
      <trkpt lat="42.96444" lon="0.29955">
        <ele>1426.3</ele>
        <time>2026-07-07T10:16:53Z</time>
      </trkpt>
      <trkpt lat="42.96443" lon="0.29954">
        <ele>1426.3</ele>
        <time>2026-07-07T10:16:53Z</time>
      </trkpt>
      <trkpt lat="42.96443" lon="0.29954">
        <ele>1426.3</ele>
        <time>2026-07-07T10:16:54Z</time>
      </trkpt>
      <trkpt lat="42.96442" lon="0.29953">
        <ele>1426.3</ele>
        <time>2026-07-07T10:16:54Z</time>
      </trkpt>
      <trkpt lat="42.96441" lon="0.29952">
        <ele>1426.3</ele>
        <time>2026-07-07T10:16:55Z</time>
      </trkpt>
      <trkpt lat="42.96441" lon="0.29951">
        <ele>1426.3</ele>
        <time>2026-07-07T10:16:56Z</time>
      </trkpt>
      <trkpt lat="42.96441" lon="0.29951">
        <ele>1425.3</ele>
        <time>2026-07-07T10:16:56Z</time>
      </trkpt>
      <trkpt lat="42.9644" lon="0.2995">
        <ele>1425.3</ele>
        <time>2026-07-07T10:16:57Z</time>
      </trkpt>
      <trkpt lat="42.9644" lon="0.29949">
        <ele>1426.3</ele>
        <time>2026-07-07T10:16:57Z</time>
      </trkpt>
      <trkpt lat="42.96439" lon="0.29948">
        <ele>1426.3</ele>
        <time>2026-07-07T10:16:58Z</time>
      </trkpt>
      <trkpt lat="42.96439" lon="0.29948">
        <ele>1426.3</ele>
        <time>2026-07-07T10:16:58Z</time>
      </trkpt>
      <trkpt lat="42.96439" lon="0.29947">
        <ele>1426.3</ele>
        <time>2026-07-07T10:16:59Z</time>
      </trkpt>
      <trkpt lat="42.96438" lon="0.29946">
        <ele>1426.3</ele>
        <time>2026-07-07T10:16:59Z</time>
      </trkpt>
      <trkpt lat="42.96438" lon="0.29946">
        <ele>1426.3</ele>
        <time>2026-07-07T10:17:00Z</time>
      </trkpt>
      <trkpt lat="42.96437" lon="0.29945">
        <ele>1426.3</ele>
        <time>2026-07-07T10:17:00Z</time>
      </trkpt>
      <trkpt lat="42.96437" lon="0.29944">
        <ele>1426.3</ele>
        <time>2026-07-07T10:17:01Z</time>
      </trkpt>
      <trkpt lat="42.96437" lon="0.29944">
        <ele>1426.3</ele>
        <time>2026-07-07T10:17:02Z</time>
      </trkpt>
      <trkpt lat="42.96436" lon="0.29943">
        <ele>1426.3</ele>
        <time>2026-07-07T10:17:02Z</time>
      </trkpt>
      <trkpt lat="42.96436" lon="0.29942">
        <ele>1426.3</ele>
        <time>2026-07-07T10:17:03Z</time>
      </trkpt>
      <trkpt lat="42.96435" lon="0.29942">
        <ele>1426.3</ele>
        <time>2026-07-07T10:17:03Z</time>
      </trkpt>
      <trkpt lat="42.96435" lon="0.29941">
        <ele>1426.3</ele>
        <time>2026-07-07T10:17:04Z</time>
      </trkpt>
      <trkpt lat="42.96435" lon="0.2994">
        <ele>1426.3</ele>
        <time>2026-07-07T10:17:04Z</time>
      </trkpt>
      <trkpt lat="42.96434" lon="0.2994">
        <ele>1426.3</ele>
        <time>2026-07-07T10:17:05Z</time>
      </trkpt>
      <trkpt lat="42.96434" lon="0.29939">
        <ele>1425.3</ele>
        <time>2026-07-07T10:17:05Z</time>
      </trkpt>
      <trkpt lat="42.96433" lon="0.29939">
        <ele>1425.3</ele>
        <time>2026-07-07T10:17:06Z</time>
      </trkpt>
      <trkpt lat="42.96433" lon="0.29938">
        <ele>1425.3</ele>
        <time>2026-07-07T10:17:06Z</time>
      </trkpt>
      <trkpt lat="42.96433" lon="0.29937">
        <ele>1425.3</ele>
        <time>2026-07-07T10:17:07Z</time>
      </trkpt>
      <trkpt lat="42.96432" lon="0.29936">
        <ele>1425.3</ele>
        <time>2026-07-07T10:17:07Z</time>
      </trkpt>
      <trkpt lat="42.96432" lon="0.29935">
        <ele>1425.3</ele>
        <time>2026-07-07T10:17:08Z</time>
      </trkpt>
      <trkpt lat="42.96432" lon="0.29935">
        <ele>1425.3</ele>
        <time>2026-07-07T10:17:09Z</time>
      </trkpt>
      <trkpt lat="42.96431" lon="0.29934">
        <ele>1425.3</ele>
        <time>2026-07-07T10:17:09Z</time>
      </trkpt>
      <trkpt lat="42.96431" lon="0.29933">
        <ele>1424.3</ele>
        <time>2026-07-07T10:17:10Z</time>
      </trkpt>
      <trkpt lat="42.96431" lon="0.29932">
        <ele>1424.3</ele>
        <time>2026-07-07T10:17:10Z</time>
      </trkpt>
      <trkpt lat="42.9643" lon="0.29932">
        <ele>1425.3</ele>
        <time>2026-07-07T10:17:11Z</time>
      </trkpt>
      <trkpt lat="42.9643" lon="0.29931">
        <ele>1425.3</ele>
        <time>2026-07-07T10:17:11Z</time>
      </trkpt>
      <trkpt lat="42.96429" lon="0.29931">
        <ele>1425.3</ele>
        <time>2026-07-07T10:17:12Z</time>
      </trkpt>
      <trkpt lat="42.96429" lon="0.2993">
        <ele>1425.3</ele>
        <time>2026-07-07T10:17:12Z</time>
      </trkpt>
      <trkpt lat="42.96428" lon="0.2993">
        <ele>1425.3</ele>
        <time>2026-07-07T10:17:13Z</time>
      </trkpt>
      <trkpt lat="42.96428" lon="0.29929">
        <ele>1423.3</ele>
        <time>2026-07-07T10:17:13Z</time>
      </trkpt>
      <trkpt lat="42.96427" lon="0.29929">
        <ele>1423.3</ele>
        <time>2026-07-07T10:17:14Z</time>
      </trkpt>
      <trkpt lat="42.96427" lon="0.29928">
        <ele>1423.3</ele>
        <time>2026-07-07T10:17:15Z</time>
      </trkpt>
      <trkpt lat="42.96426" lon="0.29927">
        <ele>1423.3</ele>
        <time>2026-07-07T10:17:15Z</time>
      </trkpt>
      <trkpt lat="42.96425" lon="0.29927">
        <ele>1423.3</ele>
        <time>2026-07-07T10:17:16Z</time>
      </trkpt>
      <trkpt lat="42.96424" lon="0.29927">
        <ele>1422.3</ele>
        <time>2026-07-07T10:17:17Z</time>
      </trkpt>
      <trkpt lat="42.96424" lon="0.29927">
        <ele>1422.3</ele>
        <time>2026-07-07T10:17:17Z</time>
      </trkpt>
      <trkpt lat="42.96423" lon="0.29926">
        <ele>1422.3</ele>
        <time>2026-07-07T10:17:18Z</time>
      </trkpt>
      <trkpt lat="42.96422" lon="0.29925">
        <ele>1421.3</ele>
        <time>2026-07-07T10:17:19Z</time>
      </trkpt>
      <trkpt lat="42.96422" lon="0.29925">
        <ele>1421.3</ele>
        <time>2026-07-07T10:17:20Z</time>
      </trkpt>
      <trkpt lat="42.96422" lon="0.29925">
        <ele>1421.3</ele>
        <time>2026-07-07T10:17:20Z</time>
      </trkpt>
      <trkpt lat="42.96422" lon="0.29924">
        <ele>1420.3</ele>
        <time>2026-07-07T10:17:21Z</time>
      </trkpt>
      <trkpt lat="42.96422" lon="0.29924">
        <ele>1420.3</ele>
        <time>2026-07-07T10:17:22Z</time>
      </trkpt>
      <trkpt lat="42.96422" lon="0.29923">
        <ele>1421.3</ele>
        <time>2026-07-07T10:17:23Z</time>
      </trkpt>
      <trkpt lat="42.96422" lon="0.29923">
        <ele>1421.3</ele>
        <time>2026-07-07T10:17:23Z</time>
      </trkpt>
      <trkpt lat="42.96422" lon="0.29923">
        <ele>1421.3</ele>
        <time>2026-07-07T10:17:24Z</time>
      </trkpt>
      <trkpt lat="42.96421" lon="0.29922">
        <ele>1421.3</ele>
        <time>2026-07-07T10:17:24Z</time>
      </trkpt>
      <trkpt lat="42.96421" lon="0.29921">
        <ele>1421.3</ele>
        <time>2026-07-07T10:17:25Z</time>
      </trkpt>
      <trkpt lat="42.9642" lon="0.2992">
        <ele>1421.3</ele>
        <time>2026-07-07T10:17:25Z</time>
      </trkpt>
      <trkpt lat="42.9642" lon="0.29919">
        <ele>1420.3</ele>
        <time>2026-07-07T10:17:26Z</time>
      </trkpt>
      <trkpt lat="42.96419" lon="0.29918">
        <ele>1420.3</ele>
        <time>2026-07-07T10:17:26Z</time>
      </trkpt>
      <trkpt lat="42.96419" lon="0.29917">
        <ele>1421.3</ele>
        <time>2026-07-07T10:17:27Z</time>
      </trkpt>
      <trkpt lat="42.96418" lon="0.29916">
        <ele>1421.3</ele>
        <time>2026-07-07T10:17:27Z</time>
      </trkpt>
      <trkpt lat="42.96418" lon="0.29915">
        <ele>1421.3</ele>
        <time>2026-07-07T10:17:28Z</time>
      </trkpt>
      <trkpt lat="42.96418" lon="0.29915">
        <ele>1421.3</ele>
        <time>2026-07-07T10:17:28Z</time>
      </trkpt>
      <trkpt lat="42.96417" lon="0.29914">
        <ele>1421.3</ele>
        <time>2026-07-07T10:17:29Z</time>
      </trkpt>
      <trkpt lat="42.96417" lon="0.29913">
        <ele>1421.3</ele>
        <time>2026-07-07T10:17:29Z</time>
      </trkpt>
      <trkpt lat="42.96417" lon="0.29912">
        <ele>1421.3</ele>
        <time>2026-07-07T10:17:30Z</time>
      </trkpt>
      <trkpt lat="42.96417" lon="0.29911">
        <ele>1421.3</ele>
        <time>2026-07-07T10:17:30Z</time>
      </trkpt>
      <trkpt lat="42.96416" lon="0.29911">
        <ele>1421.3</ele>
        <time>2026-07-07T10:17:31Z</time>
      </trkpt>
      <trkpt lat="42.96416" lon="0.2991">
        <ele>1421.3</ele>
        <time>2026-07-07T10:17:31Z</time>
      </trkpt>
      <trkpt lat="42.96416" lon="0.29909">
        <ele>1421.3</ele>
        <time>2026-07-07T10:17:32Z</time>
      </trkpt>
      <trkpt lat="42.96415" lon="0.29908">
        <ele>1420.3</ele>
        <time>2026-07-07T10:17:32Z</time>
      </trkpt>
      <trkpt lat="42.96415" lon="0.29907">
        <ele>1420.3</ele>
        <time>2026-07-07T10:17:33Z</time>
      </trkpt>
      <trkpt lat="42.96415" lon="0.29906">
        <ele>1420.3</ele>
        <time>2026-07-07T10:17:34Z</time>
      </trkpt>
      <trkpt lat="42.96415" lon="0.29905">
        <ele>1420.3</ele>
        <time>2026-07-07T10:17:34Z</time>
      </trkpt>
      <trkpt lat="42.96414" lon="0.29904">
        <ele>1420.3</ele>
        <time>2026-07-07T10:17:35Z</time>
      </trkpt>
      <trkpt lat="42.96414" lon="0.29904">
        <ele>1420.3</ele>
        <time>2026-07-07T10:17:35Z</time>
      </trkpt>
      <trkpt lat="42.96414" lon="0.29902">
        <ele>1419.3</ele>
        <time>2026-07-07T10:17:36Z</time>
      </trkpt>
      <trkpt lat="42.96414" lon="0.29902">
        <ele>1419.3</ele>
        <time>2026-07-07T10:17:36Z</time>
      </trkpt>
      <trkpt lat="42.96414" lon="0.29901">
        <ele>1420.3</ele>
        <time>2026-07-07T10:17:37Z</time>
      </trkpt>
      <trkpt lat="42.96414" lon="0.299">
        <ele>1420.3</ele>
        <time>2026-07-07T10:17:37Z</time>
      </trkpt>
      <trkpt lat="42.96414" lon="0.29899">
        <ele>1420.3</ele>
        <time>2026-07-07T10:17:38Z</time>
      </trkpt>
      <trkpt lat="42.96415" lon="0.29898">
        <ele>1419.3</ele>
        <time>2026-07-07T10:17:38Z</time>
      </trkpt>
      <trkpt lat="42.96414" lon="0.29897">
        <ele>1419.3</ele>
        <time>2026-07-07T10:17:39Z</time>
      </trkpt>
      <trkpt lat="42.96414" lon="0.29895">
        <ele>1419.3</ele>
        <time>2026-07-07T10:17:40Z</time>
      </trkpt>
      <trkpt lat="42.96414" lon="0.29894">
        <ele>1419.3</ele>
        <time>2026-07-07T10:17:40Z</time>
      </trkpt>
      <trkpt lat="42.96414" lon="0.29893">
        <ele>1419.3</ele>
        <time>2026-07-07T10:17:41Z</time>
      </trkpt>
      <trkpt lat="42.96414" lon="0.29891">
        <ele>1419.3</ele>
        <time>2026-07-07T10:17:41Z</time>
      </trkpt>
      <trkpt lat="42.96414" lon="0.2989">
        <ele>1419.3</ele>
        <time>2026-07-07T10:17:42Z</time>
      </trkpt>
      <trkpt lat="42.96414" lon="0.2989">
        <ele>1419.3</ele>
        <time>2026-07-07T10:17:43Z</time>
      </trkpt>
      <trkpt lat="42.96414" lon="0.29889">
        <ele>1419.3</ele>
        <time>2026-07-07T10:17:43Z</time>
      </trkpt>
      <trkpt lat="42.96413" lon="0.29887">
        <ele>1419.3</ele>
        <time>2026-07-07T10:17:44Z</time>
      </trkpt>
      <trkpt lat="42.96413" lon="0.29886">
        <ele>1419.3</ele>
        <time>2026-07-07T10:17:45Z</time>
      </trkpt>
      <trkpt lat="42.96413" lon="0.29885">
        <ele>1419.3</ele>
        <time>2026-07-07T10:17:45Z</time>
      </trkpt>
      <trkpt lat="42.96413" lon="0.29884">
        <ele>1419.3</ele>
        <time>2026-07-07T10:17:46Z</time>
      </trkpt>
      <trkpt lat="42.96413" lon="0.29883">
        <ele>1419.3</ele>
        <time>2026-07-07T10:17:46Z</time>
      </trkpt>
      <trkpt lat="42.96412" lon="0.29882">
        <ele>1419.3</ele>
        <time>2026-07-07T10:17:47Z</time>
      </trkpt>
      <trkpt lat="42.96412" lon="0.29881">
        <ele>1419.3</ele>
        <time>2026-07-07T10:17:47Z</time>
      </trkpt>
      <trkpt lat="42.96412" lon="0.2988">
        <ele>1419.3</ele>
        <time>2026-07-07T10:17:48Z</time>
      </trkpt>
      <trkpt lat="42.96412" lon="0.2988">
        <ele>1419.3</ele>
        <time>2026-07-07T10:17:48Z</time>
      </trkpt>
      <trkpt lat="42.96412" lon="0.29879">
        <ele>1419.3</ele>
        <time>2026-07-07T10:17:49Z</time>
      </trkpt>
      <trkpt lat="42.96411" lon="0.29878">
        <ele>1419.3</ele>
        <time>2026-07-07T10:17:49Z</time>
      </trkpt>
      <trkpt lat="42.96411" lon="0.29877">
        <ele>1419.3</ele>
        <time>2026-07-07T10:17:50Z</time>
      </trkpt>
      <trkpt lat="42.96411" lon="0.29876">
        <ele>1419.3</ele>
        <time>2026-07-07T10:17:50Z</time>
      </trkpt>
      <trkpt lat="42.96411" lon="0.29875">
        <ele>1419.3</ele>
        <time>2026-07-07T10:17:51Z</time>
      </trkpt>
      <trkpt lat="42.9641" lon="0.29875">
        <ele>1418.3</ele>
        <time>2026-07-07T10:17:51Z</time>
      </trkpt>
      <trkpt lat="42.9641" lon="0.29873">
        <ele>1418.3</ele>
        <time>2026-07-07T10:17:52Z</time>
      </trkpt>
      <trkpt lat="42.9641" lon="0.29873">
        <ele>1417.3</ele>
        <time>2026-07-07T10:17:53Z</time>
      </trkpt>
      <trkpt lat="42.9641" lon="0.29872">
        <ele>1417.3</ele>
        <time>2026-07-07T10:17:53Z</time>
      </trkpt>
      <trkpt lat="42.9641" lon="0.29871">
        <ele>1418.3</ele>
        <time>2026-07-07T10:17:54Z</time>
      </trkpt>
      <trkpt lat="42.96409" lon="0.2987">
        <ele>1418.3</ele>
        <time>2026-07-07T10:17:54Z</time>
      </trkpt>
      <trkpt lat="42.96409" lon="0.29869">
        <ele>1418.3</ele>
        <time>2026-07-07T10:17:55Z</time>
      </trkpt>
      <trkpt lat="42.96409" lon="0.29869">
        <ele>1418.3</ele>
        <time>2026-07-07T10:17:55Z</time>
      </trkpt>
      <trkpt lat="42.96409" lon="0.29868">
        <ele>1418.3</ele>
        <time>2026-07-07T10:17:56Z</time>
      </trkpt>
      <trkpt lat="42.96409" lon="0.29867">
        <ele>1418.3</ele>
        <time>2026-07-07T10:17:56Z</time>
      </trkpt>
      <trkpt lat="42.96409" lon="0.29866">
        <ele>1418.3</ele>
        <time>2026-07-07T10:17:57Z</time>
      </trkpt>
      <trkpt lat="42.96408" lon="0.29865">
        <ele>1418.3</ele>
        <time>2026-07-07T10:17:58Z</time>
      </trkpt>
      <trkpt lat="42.96408" lon="0.29864">
        <ele>1418.3</ele>
        <time>2026-07-07T10:17:58Z</time>
      </trkpt>
      <trkpt lat="42.96408" lon="0.29864">
        <ele>1418.3</ele>
        <time>2026-07-07T10:17:59Z</time>
      </trkpt>
      <trkpt lat="42.96408" lon="0.29863">
        <ele>1417.3</ele>
        <time>2026-07-07T10:17:59Z</time>
      </trkpt>
      <trkpt lat="42.96408" lon="0.29862">
        <ele>1417.3</ele>
        <time>2026-07-07T10:18:00Z</time>
      </trkpt>
      <trkpt lat="42.96407" lon="0.29861">
        <ele>1417.3</ele>
        <time>2026-07-07T10:18:01Z</time>
      </trkpt>
      <trkpt lat="42.96407" lon="0.29861">
        <ele>1417.3</ele>
        <time>2026-07-07T10:18:01Z</time>
      </trkpt>
      <trkpt lat="42.96407" lon="0.29859">
        <ele>1417.3</ele>
        <time>2026-07-07T10:18:02Z</time>
      </trkpt>
      <trkpt lat="42.96407" lon="0.29859">
        <ele>1417.3</ele>
        <time>2026-07-07T10:18:03Z</time>
      </trkpt>
      <trkpt lat="42.96407" lon="0.29858">
        <ele>1417.3</ele>
        <time>2026-07-07T10:18:03Z</time>
      </trkpt>
      <trkpt lat="42.96406" lon="0.29857">
        <ele>1417.3</ele>
        <time>2026-07-07T10:18:04Z</time>
      </trkpt>
      <trkpt lat="42.96406" lon="0.29856">
        <ele>1417.3</ele>
        <time>2026-07-07T10:18:04Z</time>
      </trkpt>
      <trkpt lat="42.96406" lon="0.29856">
        <ele>1416.3</ele>
        <time>2026-07-07T10:18:05Z</time>
      </trkpt>
      <trkpt lat="42.96406" lon="0.29855">
        <ele>1416.3</ele>
        <time>2026-07-07T10:18:05Z</time>
      </trkpt>
      <trkpt lat="42.96405" lon="0.29854">
        <ele>1416.3</ele>
        <time>2026-07-07T10:18:06Z</time>
      </trkpt>
      <trkpt lat="42.96405" lon="0.29854">
        <ele>1415.3</ele>
        <time>2026-07-07T10:18:06Z</time>
      </trkpt>
      <trkpt lat="42.96405" lon="0.29853">
        <ele>1415.3</ele>
        <time>2026-07-07T10:18:07Z</time>
      </trkpt>
      <trkpt lat="42.96405" lon="0.29852">
        <ele>1415.3</ele>
        <time>2026-07-07T10:18:08Z</time>
      </trkpt>
      <trkpt lat="42.96405" lon="0.29852">
        <ele>1415.3</ele>
        <time>2026-07-07T10:18:08Z</time>
      </trkpt>
      <trkpt lat="42.96405" lon="0.29851">
        <ele>1415.3</ele>
        <time>2026-07-07T10:18:09Z</time>
      </trkpt>
      <trkpt lat="42.96405" lon="0.2985">
        <ele>1415.3</ele>
        <time>2026-07-07T10:18:09Z</time>
      </trkpt>
      <trkpt lat="42.96405" lon="0.2985">
        <ele>1413.3</ele>
        <time>2026-07-07T10:18:10Z</time>
      </trkpt>
      <trkpt lat="42.96404" lon="0.2985">
        <ele>1413.3</ele>
        <time>2026-07-07T10:18:10Z</time>
      </trkpt>
      <trkpt lat="42.96403" lon="0.2985">
        <ele>1413.3</ele>
        <time>2026-07-07T10:18:11Z</time>
      </trkpt>
      <trkpt lat="42.96402" lon="0.29851">
        <ele>1413.3</ele>
        <time>2026-07-07T10:18:12Z</time>
      </trkpt>
      <trkpt lat="42.96402" lon="0.29852">
        <ele>1413.3</ele>
        <time>2026-07-07T10:18:12Z</time>
      </trkpt>
      <trkpt lat="42.96402" lon="0.29853">
        <ele>1413.3</ele>
        <time>2026-07-07T10:18:13Z</time>
      </trkpt>
      <trkpt lat="42.96401" lon="0.29855">
        <ele>1413.3</ele>
        <time>2026-07-07T10:18:13Z</time>
      </trkpt>
      <trkpt lat="42.96401" lon="0.29856">
        <ele>1414.3</ele>
        <time>2026-07-07T10:18:14Z</time>
      </trkpt>
      <trkpt lat="42.96401" lon="0.29857">
        <ele>1414.3</ele>
        <time>2026-07-07T10:18:14Z</time>
      </trkpt>
      <trkpt lat="42.96401" lon="0.29858">
        <ele>1414.3</ele>
        <time>2026-07-07T10:18:15Z</time>
      </trkpt>
      <trkpt lat="42.96401" lon="0.29859">
        <ele>1414.3</ele>
        <time>2026-07-07T10:18:15Z</time>
      </trkpt>
      <trkpt lat="42.96401" lon="0.2986">
        <ele>1414.3</ele>
        <time>2026-07-07T10:18:16Z</time>
      </trkpt>
      <trkpt lat="42.96401" lon="0.29861">
        <ele>1414.3</ele>
        <time>2026-07-07T10:18:16Z</time>
      </trkpt>
      <trkpt lat="42.96401" lon="0.29862">
        <ele>1415.3</ele>
        <time>2026-07-07T10:18:17Z</time>
      </trkpt>
      <trkpt lat="42.96401" lon="0.29863">
        <ele>1415.3</ele>
        <time>2026-07-07T10:18:17Z</time>
      </trkpt>
      <trkpt lat="42.96401" lon="0.29864">
        <ele>1415.3</ele>
        <time>2026-07-07T10:18:18Z</time>
      </trkpt>
      <trkpt lat="42.96401" lon="0.29864">
        <ele>1415.3</ele>
        <time>2026-07-07T10:18:18Z</time>
      </trkpt>
      <trkpt lat="42.964" lon="0.29865">
        <ele>1415.3</ele>
        <time>2026-07-07T10:18:19Z</time>
      </trkpt>
      <trkpt lat="42.964" lon="0.29865">
        <ele>1414.3</ele>
        <time>2026-07-07T10:18:19Z</time>
      </trkpt>
      <trkpt lat="42.964" lon="0.29866">
        <ele>1414.3</ele>
        <time>2026-07-07T10:18:20Z</time>
      </trkpt>
      <trkpt lat="42.964" lon="0.29867">
        <ele>1414.3</ele>
        <time>2026-07-07T10:18:20Z</time>
      </trkpt>
      <trkpt lat="42.964" lon="0.29867">
        <ele>1414.3</ele>
        <time>2026-07-07T10:18:21Z</time>
      </trkpt>
      <trkpt lat="42.964" lon="0.29868">
        <ele>1415.3</ele>
        <time>2026-07-07T10:18:21Z</time>
      </trkpt>
      <trkpt lat="42.964" lon="0.29869">
        <ele>1415.3</ele>
        <time>2026-07-07T10:18:22Z</time>
      </trkpt>
      <trkpt lat="42.964" lon="0.2987">
        <ele>1415.3</ele>
        <time>2026-07-07T10:18:22Z</time>
      </trkpt>
      <trkpt lat="42.96399" lon="0.2987">
        <ele>1415.3</ele>
        <time>2026-07-07T10:18:23Z</time>
      </trkpt>
      <trkpt lat="42.96399" lon="0.29871">
        <ele>1415.3</ele>
        <time>2026-07-07T10:18:23Z</time>
      </trkpt>
      <trkpt lat="42.96399" lon="0.29872">
        <ele>1415.3</ele>
        <time>2026-07-07T10:18:24Z</time>
      </trkpt>
      <trkpt lat="42.96398" lon="0.29873">
        <ele>1415.3</ele>
        <time>2026-07-07T10:18:25Z</time>
      </trkpt>
      <trkpt lat="42.96398" lon="0.29874">
        <ele>1415.3</ele>
        <time>2026-07-07T10:18:26Z</time>
      </trkpt>
      <trkpt lat="42.96397" lon="0.29874">
        <ele>1415.3</ele>
        <time>2026-07-07T10:18:26Z</time>
      </trkpt>
      <trkpt lat="42.96397" lon="0.29875">
        <ele>1415.3</ele>
        <time>2026-07-07T10:18:27Z</time>
      </trkpt>
      <trkpt lat="42.96397" lon="0.29875">
        <ele>1415.3</ele>
        <time>2026-07-07T10:18:27Z</time>
      </trkpt>
      <trkpt lat="42.96396" lon="0.29876">
        <ele>1416.3</ele>
        <time>2026-07-07T10:18:28Z</time>
      </trkpt>
      <trkpt lat="42.96395" lon="0.29876">
        <ele>1417.3</ele>
        <time>2026-07-07T10:18:29Z</time>
      </trkpt>
      <trkpt lat="42.96395" lon="0.29877">
        <ele>1417.3</ele>
        <time>2026-07-07T10:18:29Z</time>
      </trkpt>
      <trkpt lat="42.96394" lon="0.29877">
        <ele>1417.3</ele>
        <time>2026-07-07T10:18:30Z</time>
      </trkpt>
      <trkpt lat="42.96394" lon="0.29878">
        <ele>1417.3</ele>
        <time>2026-07-07T10:18:30Z</time>
      </trkpt>
      <trkpt lat="42.96393" lon="0.29878">
        <ele>1417.3</ele>
        <time>2026-07-07T10:18:31Z</time>
      </trkpt>
      <trkpt lat="42.96393" lon="0.29879">
        <ele>1417.3</ele>
        <time>2026-07-07T10:18:31Z</time>
      </trkpt>
      <trkpt lat="42.96392" lon="0.29879">
        <ele>1418.3</ele>
        <time>2026-07-07T10:18:32Z</time>
      </trkpt>
      <trkpt lat="42.96392" lon="0.29879">
        <ele>1418.3</ele>
        <time>2026-07-07T10:18:32Z</time>
      </trkpt>
      <trkpt lat="42.96392" lon="0.2988">
        <ele>1418.3</ele>
        <time>2026-07-07T10:18:33Z</time>
      </trkpt>
      <trkpt lat="42.96391" lon="0.2988">
        <ele>1417.3</ele>
        <time>2026-07-07T10:18:33Z</time>
      </trkpt>
      <trkpt lat="42.96391" lon="0.29881">
        <ele>1417.3</ele>
        <time>2026-07-07T10:18:34Z</time>
      </trkpt>
      <trkpt lat="42.96391" lon="0.29882">
        <ele>1418.3</ele>
        <time>2026-07-07T10:18:34Z</time>
      </trkpt>
      <trkpt lat="42.9639" lon="0.29883">
        <ele>1418.3</ele>
        <time>2026-07-07T10:18:35Z</time>
      </trkpt>
      <trkpt lat="42.9639" lon="0.29884">
        <ele>1417.3</ele>
        <time>2026-07-07T10:18:35Z</time>
      </trkpt>
      <trkpt lat="42.9639" lon="0.29885">
        <ele>1417.3</ele>
        <time>2026-07-07T10:18:36Z</time>
      </trkpt>
      <trkpt lat="42.9639" lon="0.29885">
        <ele>1417.3</ele>
        <time>2026-07-07T10:18:36Z</time>
      </trkpt>
      <trkpt lat="42.96389" lon="0.29886">
        <ele>1417.3</ele>
        <time>2026-07-07T10:18:37Z</time>
      </trkpt>
      <trkpt lat="42.96389" lon="0.29887">
        <ele>1417.3</ele>
        <time>2026-07-07T10:18:37Z</time>
      </trkpt>
      <trkpt lat="42.96389" lon="0.29888">
        <ele>1417.3</ele>
        <time>2026-07-07T10:18:38Z</time>
      </trkpt>
      <trkpt lat="42.96389" lon="0.29889">
        <ele>1416.3</ele>
        <time>2026-07-07T10:18:38Z</time>
      </trkpt>
      <trkpt lat="42.96389" lon="0.2989">
        <ele>1416.3</ele>
        <time>2026-07-07T10:18:39Z</time>
      </trkpt>
      <trkpt lat="42.96389" lon="0.29891">
        <ele>1416.3</ele>
        <time>2026-07-07T10:18:40Z</time>
      </trkpt>
      <trkpt lat="42.96389" lon="0.29892">
        <ele>1416.3</ele>
        <time>2026-07-07T10:18:40Z</time>
      </trkpt>
      <trkpt lat="42.96389" lon="0.29892">
        <ele>1416.3</ele>
        <time>2026-07-07T10:18:41Z</time>
      </trkpt>
      <trkpt lat="42.96388" lon="0.29893">
        <ele>1416.3</ele>
        <time>2026-07-07T10:18:41Z</time>
      </trkpt>
      <trkpt lat="42.96388" lon="0.29893">
        <ele>1416.3</ele>
        <time>2026-07-07T10:18:42Z</time>
      </trkpt>
      <trkpt lat="42.96388" lon="0.29894">
        <ele>1416.3</ele>
        <time>2026-07-07T10:18:42Z</time>
      </trkpt>
      <trkpt lat="42.96388" lon="0.29895">
        <ele>1416.3</ele>
        <time>2026-07-07T10:18:43Z</time>
      </trkpt>
      <trkpt lat="42.96388" lon="0.29896">
        <ele>1416.3</ele>
        <time>2026-07-07T10:18:43Z</time>
      </trkpt>
      <trkpt lat="42.96388" lon="0.29897">
        <ele>1416.3</ele>
        <time>2026-07-07T10:18:44Z</time>
      </trkpt>
      <trkpt lat="42.96387" lon="0.29897">
        <ele>1416.3</ele>
        <time>2026-07-07T10:18:44Z</time>
      </trkpt>
      <trkpt lat="42.96387" lon="0.29898">
        <ele>1416.3</ele>
        <time>2026-07-07T10:18:45Z</time>
      </trkpt>
      <trkpt lat="42.96387" lon="0.29899">
        <ele>1416.3</ele>
        <time>2026-07-07T10:18:45Z</time>
      </trkpt>
      <trkpt lat="42.96387" lon="0.29899">
        <ele>1416.3</ele>
        <time>2026-07-07T10:18:46Z</time>
      </trkpt>
      <trkpt lat="42.96387" lon="0.299">
        <ele>1416.3</ele>
        <time>2026-07-07T10:18:46Z</time>
      </trkpt>
      <trkpt lat="42.96387" lon="0.29901">
        <ele>1416.3</ele>
        <time>2026-07-07T10:18:47Z</time>
      </trkpt>
      <trkpt lat="42.96387" lon="0.29902">
        <ele>1416.3</ele>
        <time>2026-07-07T10:18:47Z</time>
      </trkpt>
      <trkpt lat="42.96387" lon="0.29903">
        <ele>1416.3</ele>
        <time>2026-07-07T10:18:48Z</time>
      </trkpt>
      <trkpt lat="42.96387" lon="0.29904">
        <ele>1416.3</ele>
        <time>2026-07-07T10:18:48Z</time>
      </trkpt>
      <trkpt lat="42.96387" lon="0.29905">
        <ele>1416.3</ele>
        <time>2026-07-07T10:18:49Z</time>
      </trkpt>
      <trkpt lat="42.96388" lon="0.29906">
        <ele>1415.3</ele>
        <time>2026-07-07T10:18:49Z</time>
      </trkpt>
      <trkpt lat="42.96388" lon="0.29907">
        <ele>1415.3</ele>
        <time>2026-07-07T10:18:50Z</time>
      </trkpt>
      <trkpt lat="42.96389" lon="0.29909">
        <ele>1415.3</ele>
        <time>2026-07-07T10:18:51Z</time>
      </trkpt>
      <trkpt lat="42.96389" lon="0.2991">
        <ele>1414.3</ele>
        <time>2026-07-07T10:18:51Z</time>
      </trkpt>
      <trkpt lat="42.96389" lon="0.29911">
        <ele>1414.3</ele>
        <time>2026-07-07T10:18:52Z</time>
      </trkpt>
      <trkpt lat="42.9639" lon="0.29912">
        <ele>1414.3</ele>
        <time>2026-07-07T10:18:52Z</time>
      </trkpt>
      <trkpt lat="42.9639" lon="0.29913">
        <ele>1414.3</ele>
        <time>2026-07-07T10:18:53Z</time>
      </trkpt>
      <trkpt lat="42.9639" lon="0.29914">
        <ele>1414.3</ele>
        <time>2026-07-07T10:18:53Z</time>
      </trkpt>
      <trkpt lat="42.9639" lon="0.29915">
        <ele>1414.3</ele>
        <time>2026-07-07T10:18:54Z</time>
      </trkpt>
      <trkpt lat="42.9639" lon="0.29916">
        <ele>1414.3</ele>
        <time>2026-07-07T10:18:55Z</time>
      </trkpt>
      <trkpt lat="42.9639" lon="0.29917">
        <ele>1415.3</ele>
        <time>2026-07-07T10:18:56Z</time>
      </trkpt>
      <trkpt lat="42.9639" lon="0.29918">
        <ele>1415.3</ele>
        <time>2026-07-07T10:18:56Z</time>
      </trkpt>
      <trkpt lat="42.9639" lon="0.29919">
        <ele>1415.3</ele>
        <time>2026-07-07T10:18:57Z</time>
      </trkpt>
      <trkpt lat="42.9639" lon="0.2992">
        <ele>1415.3</ele>
        <time>2026-07-07T10:18:57Z</time>
      </trkpt>
      <trkpt lat="42.96389" lon="0.2992">
        <ele>1415.3</ele>
        <time>2026-07-07T10:18:58Z</time>
      </trkpt>
      <trkpt lat="42.96389" lon="0.29921">
        <ele>1415.3</ele>
        <time>2026-07-07T10:18:58Z</time>
      </trkpt>
      <trkpt lat="42.96389" lon="0.29921">
        <ele>1416.3</ele>
        <time>2026-07-07T10:18:59Z</time>
      </trkpt>
      <trkpt lat="42.96389" lon="0.29922">
        <ele>1416.3</ele>
        <time>2026-07-07T10:18:59Z</time>
      </trkpt>
      <trkpt lat="42.96389" lon="0.29923">
        <ele>1416.3</ele>
        <time>2026-07-07T10:19:00Z</time>
      </trkpt>
      <trkpt lat="42.96389" lon="0.29924">
        <ele>1416.3</ele>
        <time>2026-07-07T10:19:00Z</time>
      </trkpt>
      <trkpt lat="42.96389" lon="0.29926">
        <ele>1416.3</ele>
        <time>2026-07-07T10:19:01Z</time>
      </trkpt>
      <trkpt lat="42.96389" lon="0.29926">
        <ele>1416.3</ele>
        <time>2026-07-07T10:19:02Z</time>
      </trkpt>
      <trkpt lat="42.96389" lon="0.29926">
        <ele>1416.3</ele>
        <time>2026-07-07T10:19:02Z</time>
      </trkpt>
      <trkpt lat="42.96389" lon="0.29927">
        <ele>1416.3</ele>
        <time>2026-07-07T10:19:03Z</time>
      </trkpt>
      <trkpt lat="42.9639" lon="0.29928">
        <ele>1416.3</ele>
        <time>2026-07-07T10:19:03Z</time>
      </trkpt>
      <trkpt lat="42.9639" lon="0.29929">
        <ele>1416.3</ele>
        <time>2026-07-07T10:19:04Z</time>
      </trkpt>
      <trkpt lat="42.9639" lon="0.2993">
        <ele>1416.3</ele>
        <time>2026-07-07T10:19:04Z</time>
      </trkpt>
      <trkpt lat="42.9639" lon="0.2993">
        <ele>1416.3</ele>
        <time>2026-07-07T10:19:05Z</time>
      </trkpt>
      <trkpt lat="42.9639" lon="0.29931">
        <ele>1416.3</ele>
        <time>2026-07-07T10:19:05Z</time>
      </trkpt>
      <trkpt lat="42.9639" lon="0.29932">
        <ele>1416.3</ele>
        <time>2026-07-07T10:19:06Z</time>
      </trkpt>
      <trkpt lat="42.9639" lon="0.29933">
        <ele>1416.3</ele>
        <time>2026-07-07T10:19:06Z</time>
      </trkpt>
      <trkpt lat="42.96391" lon="0.29934">
        <ele>1417.3</ele>
        <time>2026-07-07T10:19:07Z</time>
      </trkpt>
      <trkpt lat="42.96391" lon="0.29935">
        <ele>1417.3</ele>
        <time>2026-07-07T10:19:08Z</time>
      </trkpt>
      <trkpt lat="42.96391" lon="0.29936">
        <ele>1416.3</ele>
        <time>2026-07-07T10:19:08Z</time>
      </trkpt>
      <trkpt lat="42.96391" lon="0.29937">
        <ele>1416.3</ele>
        <time>2026-07-07T10:19:09Z</time>
      </trkpt>
      <trkpt lat="42.96391" lon="0.29937">
        <ele>1416.3</ele>
        <time>2026-07-07T10:19:09Z</time>
      </trkpt>
      <trkpt lat="42.96392" lon="0.29938">
        <ele>1416.3</ele>
        <time>2026-07-07T10:19:10Z</time>
      </trkpt>
      <trkpt lat="42.96392" lon="0.29939">
        <ele>1417.3</ele>
        <time>2026-07-07T10:19:11Z</time>
      </trkpt>
      <trkpt lat="42.96392" lon="0.2994">
        <ele>1417.3</ele>
        <time>2026-07-07T10:19:11Z</time>
      </trkpt>
      <trkpt lat="42.96392" lon="0.2994">
        <ele>1417.3</ele>
        <time>2026-07-07T10:19:12Z</time>
      </trkpt>
      <trkpt lat="42.96392" lon="0.29941">
        <ele>1417.3</ele>
        <time>2026-07-07T10:19:12Z</time>
      </trkpt>
      <trkpt lat="42.96392" lon="0.29942">
        <ele>1417.3</ele>
        <time>2026-07-07T10:19:13Z</time>
      </trkpt>
      <trkpt lat="42.96392" lon="0.29943">
        <ele>1417.3</ele>
        <time>2026-07-07T10:19:13Z</time>
      </trkpt>
      <trkpt lat="42.96392" lon="0.29944">
        <ele>1417.3</ele>
        <time>2026-07-07T10:19:14Z</time>
      </trkpt>
      <trkpt lat="42.96392" lon="0.29945">
        <ele>1417.3</ele>
        <time>2026-07-07T10:19:14Z</time>
      </trkpt>
      <trkpt lat="42.96393" lon="0.29945">
        <ele>1417.3</ele>
        <time>2026-07-07T10:19:15Z</time>
      </trkpt>
      <trkpt lat="42.96393" lon="0.29946">
        <ele>1417.3</ele>
        <time>2026-07-07T10:19:15Z</time>
      </trkpt>
      <trkpt lat="42.96393" lon="0.29947">
        <ele>1416.3</ele>
        <time>2026-07-07T10:19:16Z</time>
      </trkpt>
      <trkpt lat="42.96393" lon="0.29948">
        <ele>1416.3</ele>
        <time>2026-07-07T10:19:16Z</time>
      </trkpt>
      <trkpt lat="42.96394" lon="0.29948">
        <ele>1416.3</ele>
        <time>2026-07-07T10:19:17Z</time>
      </trkpt>
      <trkpt lat="42.96394" lon="0.29949">
        <ele>1416.3</ele>
        <time>2026-07-07T10:19:17Z</time>
      </trkpt>
      <trkpt lat="42.96394" lon="0.2995">
        <ele>1416.3</ele>
        <time>2026-07-07T10:19:18Z</time>
      </trkpt>
      <trkpt lat="42.96394" lon="0.29951">
        <ele>1415.3</ele>
        <time>2026-07-07T10:19:18Z</time>
      </trkpt>
      <trkpt lat="42.96394" lon="0.29952">
        <ele>1415.3</ele>
        <time>2026-07-07T10:19:19Z</time>
      </trkpt>
      <trkpt lat="42.96395" lon="0.29952">
        <ele>1415.3</ele>
        <time>2026-07-07T10:19:19Z</time>
      </trkpt>
      <trkpt lat="42.96395" lon="0.29953">
        <ele>1415.3</ele>
        <time>2026-07-07T10:19:20Z</time>
      </trkpt>
      <trkpt lat="42.96395" lon="0.29954">
        <ele>1415.3</ele>
        <time>2026-07-07T10:19:20Z</time>
      </trkpt>
      <trkpt lat="42.96395" lon="0.29955">
        <ele>1415.3</ele>
        <time>2026-07-07T10:19:21Z</time>
      </trkpt>
      <trkpt lat="42.96396" lon="0.29956">
        <ele>1415.3</ele>
        <time>2026-07-07T10:19:21Z</time>
      </trkpt>
      <trkpt lat="42.96396" lon="0.29957">
        <ele>1415.3</ele>
        <time>2026-07-07T10:19:22Z</time>
      </trkpt>
      <trkpt lat="42.96396" lon="0.29957">
        <ele>1415.3</ele>
        <time>2026-07-07T10:19:23Z</time>
      </trkpt>
      <trkpt lat="42.96397" lon="0.29958">
        <ele>1415.3</ele>
        <time>2026-07-07T10:19:23Z</time>
      </trkpt>
      <trkpt lat="42.96397" lon="0.29958">
        <ele>1415.3</ele>
        <time>2026-07-07T10:19:24Z</time>
      </trkpt>
      <trkpt lat="42.96397" lon="0.29958">
        <ele>1415.3</ele>
        <time>2026-07-07T10:19:24Z</time>
      </trkpt>
      <trkpt lat="42.96397" lon="0.29959">
        <ele>1415.3</ele>
        <time>2026-07-07T10:19:25Z</time>
      </trkpt>
      <trkpt lat="42.96398" lon="0.2996">
        <ele>1415.3</ele>
        <time>2026-07-07T10:19:25Z</time>
      </trkpt>
      <trkpt lat="42.96398" lon="0.2996">
        <ele>1414.3</ele>
        <time>2026-07-07T10:19:26Z</time>
      </trkpt>
      <trkpt lat="42.96398" lon="0.29961">
        <ele>1414.3</ele>
        <time>2026-07-07T10:19:26Z</time>
      </trkpt>
      <trkpt lat="42.96398" lon="0.29961">
        <ele>1414.3</ele>
        <time>2026-07-07T10:19:27Z</time>
      </trkpt>
      <trkpt lat="42.96399" lon="0.29962">
        <ele>1414.3</ele>
        <time>2026-07-07T10:19:27Z</time>
      </trkpt>
      <trkpt lat="42.96399" lon="0.29962">
        <ele>1413.3</ele>
        <time>2026-07-07T10:19:28Z</time>
      </trkpt>
      <trkpt lat="42.96399" lon="0.29963">
        <ele>1413.3</ele>
        <time>2026-07-07T10:19:28Z</time>
      </trkpt>
      <trkpt lat="42.96399" lon="0.29963">
        <ele>1413.3</ele>
        <time>2026-07-07T10:19:29Z</time>
      </trkpt>
      <trkpt lat="42.96399" lon="0.29964">
        <ele>1413.3</ele>
        <time>2026-07-07T10:19:29Z</time>
      </trkpt>
      <trkpt lat="42.96399" lon="0.29965">
        <ele>1412.3</ele>
        <time>2026-07-07T10:19:30Z</time>
      </trkpt>
      <trkpt lat="42.964" lon="0.29965">
        <ele>1411.3</ele>
        <time>2026-07-07T10:19:30Z</time>
      </trkpt>
      <trkpt lat="42.964" lon="0.29966">
        <ele>1411.3</ele>
        <time>2026-07-07T10:19:31Z</time>
      </trkpt>
      <trkpt lat="42.964" lon="0.29966">
        <ele>1411.3</ele>
        <time>2026-07-07T10:19:31Z</time>
      </trkpt>
      <trkpt lat="42.964" lon="0.29967">
        <ele>1411.3</ele>
        <time>2026-07-07T10:19:32Z</time>
      </trkpt>
      <trkpt lat="42.964" lon="0.29968">
        <ele>1411.3</ele>
        <time>2026-07-07T10:19:32Z</time>
      </trkpt>
      <trkpt lat="42.96401" lon="0.29969">
        <ele>1411.3</ele>
        <time>2026-07-07T10:19:33Z</time>
      </trkpt>
      <trkpt lat="42.96401" lon="0.29969">
        <ele>1411.3</ele>
        <time>2026-07-07T10:19:33Z</time>
      </trkpt>
      <trkpt lat="42.96401" lon="0.2997">
        <ele>1411.3</ele>
        <time>2026-07-07T10:19:34Z</time>
      </trkpt>
      <trkpt lat="42.96401" lon="0.2997">
        <ele>1410.3</ele>
        <time>2026-07-07T10:19:34Z</time>
      </trkpt>
      <trkpt lat="42.96402" lon="0.29971">
        <ele>1410.3</ele>
        <time>2026-07-07T10:19:35Z</time>
      </trkpt>
      <trkpt lat="42.96402" lon="0.29972">
        <ele>1410.3</ele>
        <time>2026-07-07T10:19:35Z</time>
      </trkpt>
      <trkpt lat="42.96402" lon="0.29973">
        <ele>1410.3</ele>
        <time>2026-07-07T10:19:36Z</time>
      </trkpt>
      <trkpt lat="42.96403" lon="0.29973">
        <ele>1409.3</ele>
        <time>2026-07-07T10:19:36Z</time>
      </trkpt>
      <trkpt lat="42.96403" lon="0.29974">
        <ele>1409.3</ele>
        <time>2026-07-07T10:19:37Z</time>
      </trkpt>
      <trkpt lat="42.96404" lon="0.29974">
        <ele>1409.3</ele>
        <time>2026-07-07T10:19:37Z</time>
      </trkpt>
      <trkpt lat="42.96404" lon="0.29975">
        <ele>1409.3</ele>
        <time>2026-07-07T10:19:38Z</time>
      </trkpt>
      <trkpt lat="42.96405" lon="0.29976">
        <ele>1408.3</ele>
        <time>2026-07-07T10:19:39Z</time>
      </trkpt>
      <trkpt lat="42.96406" lon="0.29976">
        <ele>1408.3</ele>
        <time>2026-07-07T10:19:39Z</time>
      </trkpt>
      <trkpt lat="42.96406" lon="0.29977">
        <ele>1408.3</ele>
        <time>2026-07-07T10:19:40Z</time>
      </trkpt>
      <trkpt lat="42.96407" lon="0.29977">
        <ele>1408.3</ele>
        <time>2026-07-07T10:19:41Z</time>
      </trkpt>
      <trkpt lat="42.96408" lon="0.29978">
        <ele>1408.3</ele>
        <time>2026-07-07T10:19:41Z</time>
      </trkpt>
      <trkpt lat="42.96408" lon="0.29978">
        <ele>1408.3</ele>
        <time>2026-07-07T10:19:42Z</time>
      </trkpt>
      <trkpt lat="42.96409" lon="0.29979">
        <ele>1408.3</ele>
        <time>2026-07-07T10:19:42Z</time>
      </trkpt>
      <trkpt lat="42.96409" lon="0.2998">
        <ele>1407.3</ele>
        <time>2026-07-07T10:19:43Z</time>
      </trkpt>
      <trkpt lat="42.9641" lon="0.2998">
        <ele>1407.3</ele>
        <time>2026-07-07T10:19:43Z</time>
      </trkpt>
      <trkpt lat="42.9641" lon="0.29981">
        <ele>1408.3</ele>
        <time>2026-07-07T10:19:44Z</time>
      </trkpt>
      <trkpt lat="42.96411" lon="0.29982">
        <ele>1408.3</ele>
        <time>2026-07-07T10:19:44Z</time>
      </trkpt>
      <trkpt lat="42.96411" lon="0.29983">
        <ele>1408.3</ele>
        <time>2026-07-07T10:19:45Z</time>
      </trkpt>
      <trkpt lat="42.96411" lon="0.29984">
        <ele>1408.3</ele>
        <time>2026-07-07T10:19:45Z</time>
      </trkpt>
      <trkpt lat="42.96412" lon="0.29985">
        <ele>1408.3</ele>
        <time>2026-07-07T10:19:46Z</time>
      </trkpt>
      <trkpt lat="42.96412" lon="0.29986">
        <ele>1407.3</ele>
        <time>2026-07-07T10:19:46Z</time>
      </trkpt>
      <trkpt lat="42.96412" lon="0.29987">
        <ele>1407.3</ele>
        <time>2026-07-07T10:19:47Z</time>
      </trkpt>
      <trkpt lat="42.96413" lon="0.29987">
        <ele>1407.3</ele>
        <time>2026-07-07T10:19:47Z</time>
      </trkpt>
      <trkpt lat="42.96413" lon="0.29988">
        <ele>1407.3</ele>
        <time>2026-07-07T10:19:48Z</time>
      </trkpt>
      <trkpt lat="42.96413" lon="0.29989">
        <ele>1406.3</ele>
        <time>2026-07-07T10:19:48Z</time>
      </trkpt>
      <trkpt lat="42.96413" lon="0.2999">
        <ele>1406.3</ele>
        <time>2026-07-07T10:19:49Z</time>
      </trkpt>
      <trkpt lat="42.96414" lon="0.29991">
        <ele>1406.3</ele>
        <time>2026-07-07T10:19:49Z</time>
      </trkpt>
      <trkpt lat="42.96414" lon="0.29992">
        <ele>1406.3</ele>
        <time>2026-07-07T10:19:50Z</time>
      </trkpt>
      <trkpt lat="42.96414" lon="0.29993">
        <ele>1405.3</ele>
        <time>2026-07-07T10:19:50Z</time>
      </trkpt>
      <trkpt lat="42.96414" lon="0.29994">
        <ele>1405.3</ele>
        <time>2026-07-07T10:19:51Z</time>
      </trkpt>
      <trkpt lat="42.96414" lon="0.29995">
        <ele>1405.3</ele>
        <time>2026-07-07T10:19:51Z</time>
      </trkpt>
      <trkpt lat="42.96414" lon="0.29996">
        <ele>1405.3</ele>
        <time>2026-07-07T10:19:52Z</time>
      </trkpt>
      <trkpt lat="42.96414" lon="0.29997">
        <ele>1405.3</ele>
        <time>2026-07-07T10:19:52Z</time>
      </trkpt>
      <trkpt lat="42.96414" lon="0.29998">
        <ele>1405.3</ele>
        <time>2026-07-07T10:19:53Z</time>
      </trkpt>
      <trkpt lat="42.96414" lon="0.29999">
        <ele>1404.3</ele>
        <time>2026-07-07T10:19:53Z</time>
      </trkpt>
      <trkpt lat="42.96414" lon="0.3">
        <ele>1404.3</ele>
        <time>2026-07-07T10:19:54Z</time>
      </trkpt>
      <trkpt lat="42.96414" lon="0.30001">
        <ele>1404.3</ele>
        <time>2026-07-07T10:19:54Z</time>
      </trkpt>
      <trkpt lat="42.96414" lon="0.30002">
        <ele>1404.3</ele>
        <time>2026-07-07T10:19:55Z</time>
      </trkpt>
      <trkpt lat="42.96414" lon="0.30003">
        <ele>1403.3</ele>
        <time>2026-07-07T10:19:55Z</time>
      </trkpt>
      <trkpt lat="42.96414" lon="0.30004">
        <ele>1403.3</ele>
        <time>2026-07-07T10:19:56Z</time>
      </trkpt>
      <trkpt lat="42.96414" lon="0.30006">
        <ele>1403.3</ele>
        <time>2026-07-07T10:19:57Z</time>
      </trkpt>
      <trkpt lat="42.96414" lon="0.30007">
        <ele>1403.3</ele>
        <time>2026-07-07T10:19:57Z</time>
      </trkpt>
      <trkpt lat="42.96414" lon="0.30008">
        <ele>1403.3</ele>
        <time>2026-07-07T10:19:58Z</time>
      </trkpt>
      <trkpt lat="42.96414" lon="0.30009">
        <ele>1403.3</ele>
        <time>2026-07-07T10:19:59Z</time>
      </trkpt>
      <trkpt lat="42.96414" lon="0.3001">
        <ele>1403.3</ele>
        <time>2026-07-07T10:19:59Z</time>
      </trkpt>
      <trkpt lat="42.96414" lon="0.30012">
        <ele>1403.3</ele>
        <time>2026-07-07T10:20:00Z</time>
      </trkpt>
      <trkpt lat="42.96414" lon="0.30013">
        <ele>1402.3</ele>
        <time>2026-07-07T10:20:01Z</time>
      </trkpt>
      <trkpt lat="42.96415" lon="0.30014">
        <ele>1402.3</ele>
        <time>2026-07-07T10:20:01Z</time>
      </trkpt>
      <trkpt lat="42.96415" lon="0.30015">
        <ele>1402.3</ele>
        <time>2026-07-07T10:20:02Z</time>
      </trkpt>
      <trkpt lat="42.96415" lon="0.30017">
        <ele>1402.3</ele>
        <time>2026-07-07T10:20:02Z</time>
      </trkpt>
      <trkpt lat="42.96415" lon="0.30018">
        <ele>1401.3</ele>
        <time>2026-07-07T10:20:03Z</time>
      </trkpt>
      <trkpt lat="42.96415" lon="0.30019">
        <ele>1401.3</ele>
        <time>2026-07-07T10:20:03Z</time>
      </trkpt>
      <trkpt lat="42.96415" lon="0.3002">
        <ele>1401.3</ele>
        <time>2026-07-07T10:20:04Z</time>
      </trkpt>
      <trkpt lat="42.96415" lon="0.30021">
        <ele>1402.3</ele>
        <time>2026-07-07T10:20:04Z</time>
      </trkpt>
      <trkpt lat="42.96415" lon="0.30022">
        <ele>1402.3</ele>
        <time>2026-07-07T10:20:05Z</time>
      </trkpt>
      <trkpt lat="42.96416" lon="0.30023">
        <ele>1402.3</ele>
        <time>2026-07-07T10:20:05Z</time>
      </trkpt>
      <trkpt lat="42.96416" lon="0.30024">
        <ele>1402.3</ele>
        <time>2026-07-07T10:20:06Z</time>
      </trkpt>
      <trkpt lat="42.96416" lon="0.30025">
        <ele>1402.3</ele>
        <time>2026-07-07T10:20:06Z</time>
      </trkpt>
      <trkpt lat="42.96416" lon="0.30026">
        <ele>1402.3</ele>
        <time>2026-07-07T10:20:07Z</time>
      </trkpt>
      <trkpt lat="42.96416" lon="0.30027">
        <ele>1402.3</ele>
        <time>2026-07-07T10:20:07Z</time>
      </trkpt>
      <trkpt lat="42.96417" lon="0.30028">
        <ele>1402.3</ele>
        <time>2026-07-07T10:20:08Z</time>
      </trkpt>
      <trkpt lat="42.96417" lon="0.30029">
        <ele>1401.3</ele>
        <time>2026-07-07T10:20:08Z</time>
      </trkpt>
      <trkpt lat="42.96417" lon="0.3003">
        <ele>1401.3</ele>
        <time>2026-07-07T10:20:09Z</time>
      </trkpt>
      <trkpt lat="42.96417" lon="0.30031">
        <ele>1401.3</ele>
        <time>2026-07-07T10:20:09Z</time>
      </trkpt>
      <trkpt lat="42.96417" lon="0.30031">
        <ele>1401.3</ele>
        <time>2026-07-07T10:20:10Z</time>
      </trkpt>
      <trkpt lat="42.96418" lon="0.30032">
        <ele>1401.3</ele>
        <time>2026-07-07T10:20:10Z</time>
      </trkpt>
      <trkpt lat="42.96418" lon="0.30033">
        <ele>1401.3</ele>
        <time>2026-07-07T10:20:11Z</time>
      </trkpt>
      <trkpt lat="42.96418" lon="0.30034">
        <ele>1401.3</ele>
        <time>2026-07-07T10:20:11Z</time>
      </trkpt>
      <trkpt lat="42.96418" lon="0.30034">
        <ele>1401.3</ele>
        <time>2026-07-07T10:20:12Z</time>
      </trkpt>
      <trkpt lat="42.96418" lon="0.30035">
        <ele>1401.3</ele>
        <time>2026-07-07T10:20:12Z</time>
      </trkpt>
      <trkpt lat="42.96418" lon="0.30036">
        <ele>1401.3</ele>
        <time>2026-07-07T10:20:13Z</time>
      </trkpt>
      <trkpt lat="42.96418" lon="0.30037">
        <ele>1401.3</ele>
        <time>2026-07-07T10:20:14Z</time>
      </trkpt>
      <trkpt lat="42.96418" lon="0.30038">
        <ele>1401.3</ele>
        <time>2026-07-07T10:20:14Z</time>
      </trkpt>
      <trkpt lat="42.96418" lon="0.30038">
        <ele>1402.3</ele>
        <time>2026-07-07T10:20:15Z</time>
      </trkpt>
      <trkpt lat="42.96418" lon="0.30039">
        <ele>1402.3</ele>
        <time>2026-07-07T10:20:15Z</time>
      </trkpt>
      <trkpt lat="42.96418" lon="0.3004">
        <ele>1402.3</ele>
        <time>2026-07-07T10:20:16Z</time>
      </trkpt>
      <trkpt lat="42.96418" lon="0.30041">
        <ele>1402.3</ele>
        <time>2026-07-07T10:20:16Z</time>
      </trkpt>
      <trkpt lat="42.96418" lon="0.30042">
        <ele>1402.3</ele>
        <time>2026-07-07T10:20:17Z</time>
      </trkpt>
      <trkpt lat="42.96418" lon="0.30043">
        <ele>1402.3</ele>
        <time>2026-07-07T10:20:17Z</time>
      </trkpt>
      <trkpt lat="42.96418" lon="0.30044">
        <ele>1402.3</ele>
        <time>2026-07-07T10:20:18Z</time>
      </trkpt>
      <trkpt lat="42.96418" lon="0.30045">
        <ele>1402.3</ele>
        <time>2026-07-07T10:20:18Z</time>
      </trkpt>
      <trkpt lat="42.96418" lon="0.30046">
        <ele>1402.3</ele>
        <time>2026-07-07T10:20:19Z</time>
      </trkpt>
      <trkpt lat="42.96418" lon="0.30046">
        <ele>1402.3</ele>
        <time>2026-07-07T10:20:19Z</time>
      </trkpt>
      <trkpt lat="42.96418" lon="0.30047">
        <ele>1402.3</ele>
        <time>2026-07-07T10:20:20Z</time>
      </trkpt>
      <trkpt lat="42.96417" lon="0.30048">
        <ele>1402.3</ele>
        <time>2026-07-07T10:20:20Z</time>
      </trkpt>
      <trkpt lat="42.96417" lon="0.30049">
        <ele>1402.3</ele>
        <time>2026-07-07T10:20:21Z</time>
      </trkpt>
      <trkpt lat="42.96417" lon="0.3005">
        <ele>1402.3</ele>
        <time>2026-07-07T10:20:21Z</time>
      </trkpt>
      <trkpt lat="42.96417" lon="0.30051">
        <ele>1402.3</ele>
        <time>2026-07-07T10:20:22Z</time>
      </trkpt>
      <trkpt lat="42.96417" lon="0.30052">
        <ele>1402.3</ele>
        <time>2026-07-07T10:20:22Z</time>
      </trkpt>
      <trkpt lat="42.96417" lon="0.30053">
        <ele>1402.3</ele>
        <time>2026-07-07T10:20:23Z</time>
      </trkpt>
      <trkpt lat="42.96417" lon="0.30053">
        <ele>1401.3</ele>
        <time>2026-07-07T10:20:23Z</time>
      </trkpt>
      <trkpt lat="42.96416" lon="0.30054">
        <ele>1401.3</ele>
        <time>2026-07-07T10:20:24Z</time>
      </trkpt>
      <trkpt lat="42.96416" lon="0.30055">
        <ele>1401.3</ele>
        <time>2026-07-07T10:20:24Z</time>
      </trkpt>
      <trkpt lat="42.96416" lon="0.30056">
        <ele>1401.3</ele>
        <time>2026-07-07T10:20:25Z</time>
      </trkpt>
      <trkpt lat="42.96416" lon="0.30058">
        <ele>1401.3</ele>
        <time>2026-07-07T10:20:26Z</time>
      </trkpt>
      <trkpt lat="42.96416" lon="0.30059">
        <ele>1401.3</ele>
        <time>2026-07-07T10:20:27Z</time>
      </trkpt>
      <trkpt lat="42.96416" lon="0.3006">
        <ele>1401.3</ele>
        <time>2026-07-07T10:20:27Z</time>
      </trkpt>
      <trkpt lat="42.96415" lon="0.3006">
        <ele>1402.3</ele>
        <time>2026-07-07T10:20:28Z</time>
      </trkpt>
      <trkpt lat="42.96415" lon="0.30061">
        <ele>1402.3</ele>
        <time>2026-07-07T10:20:28Z</time>
      </trkpt>
      <trkpt lat="42.96415" lon="0.30062">
        <ele>1402.3</ele>
        <time>2026-07-07T10:20:29Z</time>
      </trkpt>
      <trkpt lat="42.96415" lon="0.30063">
        <ele>1402.3</ele>
        <time>2026-07-07T10:20:29Z</time>
      </trkpt>
      <trkpt lat="42.96415" lon="0.30064">
        <ele>1403.3</ele>
        <time>2026-07-07T10:20:30Z</time>
      </trkpt>
      <trkpt lat="42.96415" lon="0.30065">
        <ele>1403.3</ele>
        <time>2026-07-07T10:20:30Z</time>
      </trkpt>
      <trkpt lat="42.96414" lon="0.30066">
        <ele>1403.3</ele>
        <time>2026-07-07T10:20:31Z</time>
      </trkpt>
      <trkpt lat="42.96414" lon="0.30067">
        <ele>1403.3</ele>
        <time>2026-07-07T10:20:31Z</time>
      </trkpt>
      <trkpt lat="42.96414" lon="0.30068">
        <ele>1403.3</ele>
        <time>2026-07-07T10:20:32Z</time>
      </trkpt>
      <trkpt lat="42.96414" lon="0.30069">
        <ele>1404.3</ele>
        <time>2026-07-07T10:20:32Z</time>
      </trkpt>
      <trkpt lat="42.96414" lon="0.3007">
        <ele>1404.3</ele>
        <time>2026-07-07T10:20:33Z</time>
      </trkpt>
      <trkpt lat="42.96414" lon="0.30071">
        <ele>1403.3</ele>
        <time>2026-07-07T10:20:33Z</time>
      </trkpt>
      <trkpt lat="42.96414" lon="0.30072">
        <ele>1403.3</ele>
        <time>2026-07-07T10:20:34Z</time>
      </trkpt>
      <trkpt lat="42.96414" lon="0.30073">
        <ele>1404.3</ele>
        <time>2026-07-07T10:20:34Z</time>
      </trkpt>
      <trkpt lat="42.96414" lon="0.30074">
        <ele>1404.3</ele>
        <time>2026-07-07T10:20:35Z</time>
      </trkpt>
      <trkpt lat="42.96414" lon="0.30076">
        <ele>1405.3</ele>
        <time>2026-07-07T10:20:36Z</time>
      </trkpt>
      <trkpt lat="42.96414" lon="0.30077">
        <ele>1405.3</ele>
        <time>2026-07-07T10:20:36Z</time>
      </trkpt>
      <trkpt lat="42.96414" lon="0.30078">
        <ele>1405.3</ele>
        <time>2026-07-07T10:20:37Z</time>
      </trkpt>
      <trkpt lat="42.96414" lon="0.30079">
        <ele>1405.3</ele>
        <time>2026-07-07T10:20:37Z</time>
      </trkpt>
      <trkpt lat="42.96414" lon="0.3008">
        <ele>1405.3</ele>
        <time>2026-07-07T10:20:38Z</time>
      </trkpt>
      <trkpt lat="42.96415" lon="0.30081">
        <ele>1405.3</ele>
        <time>2026-07-07T10:20:38Z</time>
      </trkpt>
      <trkpt lat="42.96415" lon="0.30082">
        <ele>1405.3</ele>
        <time>2026-07-07T10:20:39Z</time>
      </trkpt>
      <trkpt lat="42.96415" lon="0.30083">
        <ele>1405.3</ele>
        <time>2026-07-07T10:20:40Z</time>
      </trkpt>
      <trkpt lat="42.96415" lon="0.30084">
        <ele>1405.3</ele>
        <time>2026-07-07T10:20:40Z</time>
      </trkpt>
      <trkpt lat="42.96416" lon="0.30085">
        <ele>1406.3</ele>
        <time>2026-07-07T10:20:41Z</time>
      </trkpt>
      <trkpt lat="42.96415" lon="0.30086">
        <ele>1406.3</ele>
        <time>2026-07-07T10:20:41Z</time>
      </trkpt>
      <trkpt lat="42.96416" lon="0.30087">
        <ele>1406.3</ele>
        <time>2026-07-07T10:20:42Z</time>
      </trkpt>
      <trkpt lat="42.96416" lon="0.30089">
        <ele>1406.3</ele>
        <time>2026-07-07T10:20:42Z</time>
      </trkpt>
      <trkpt lat="42.96416" lon="0.3009">
        <ele>1405.3</ele>
        <time>2026-07-07T10:20:43Z</time>
      </trkpt>
      <trkpt lat="42.96416" lon="0.30091">
        <ele>1405.3</ele>
        <time>2026-07-07T10:20:43Z</time>
      </trkpt>
      <trkpt lat="42.96416" lon="0.30092">
        <ele>1405.3</ele>
        <time>2026-07-07T10:20:44Z</time>
      </trkpt>
      <trkpt lat="42.96416" lon="0.30093">
        <ele>1405.3</ele>
        <time>2026-07-07T10:20:44Z</time>
      </trkpt>
      <trkpt lat="42.96416" lon="0.30094">
        <ele>1405.3</ele>
        <time>2026-07-07T10:20:45Z</time>
      </trkpt>
      <trkpt lat="42.96416" lon="0.30095">
        <ele>1405.3</ele>
        <time>2026-07-07T10:20:45Z</time>
      </trkpt>
      <trkpt lat="42.96416" lon="0.30096">
        <ele>1405.3</ele>
        <time>2026-07-07T10:20:46Z</time>
      </trkpt>
      <trkpt lat="42.96417" lon="0.30097">
        <ele>1404.3</ele>
        <time>2026-07-07T10:20:46Z</time>
      </trkpt>
      <trkpt lat="42.96417" lon="0.30098">
        <ele>1404.3</ele>
        <time>2026-07-07T10:20:47Z</time>
      </trkpt>
      <trkpt lat="42.96417" lon="0.30099">
        <ele>1403.3</ele>
        <time>2026-07-07T10:20:47Z</time>
      </trkpt>
      <trkpt lat="42.96417" lon="0.301">
        <ele>1403.3</ele>
        <time>2026-07-07T10:20:48Z</time>
      </trkpt>
      <trkpt lat="42.96417" lon="0.30101">
        <ele>1403.3</ele>
        <time>2026-07-07T10:20:48Z</time>
      </trkpt>
      <trkpt lat="42.96418" lon="0.30102">
        <ele>1403.3</ele>
        <time>2026-07-07T10:20:49Z</time>
      </trkpt>
      <trkpt lat="42.96418" lon="0.30103">
        <ele>1402.3</ele>
        <time>2026-07-07T10:20:49Z</time>
      </trkpt>
      <trkpt lat="42.96418" lon="0.30104">
        <ele>1402.3</ele>
        <time>2026-07-07T10:20:50Z</time>
      </trkpt>
      <trkpt lat="42.96418" lon="0.30105">
        <ele>1402.3</ele>
        <time>2026-07-07T10:20:51Z</time>
      </trkpt>
      <trkpt lat="42.96418" lon="0.30105">
        <ele>1402.3</ele>
        <time>2026-07-07T10:20:51Z</time>
      </trkpt>
      <trkpt lat="42.96419" lon="0.30106">
        <ele>1401.3</ele>
        <time>2026-07-07T10:20:52Z</time>
      </trkpt>
      <trkpt lat="42.96419" lon="0.30107">
        <ele>1401.3</ele>
        <time>2026-07-07T10:20:52Z</time>
      </trkpt>
      <trkpt lat="42.96419" lon="0.30108">
        <ele>1401.3</ele>
        <time>2026-07-07T10:20:53Z</time>
      </trkpt>
      <trkpt lat="42.96419" lon="0.30109">
        <ele>1401.3</ele>
        <time>2026-07-07T10:20:53Z</time>
      </trkpt>
      <trkpt lat="42.96419" lon="0.3011">
        <ele>1401.3</ele>
        <time>2026-07-07T10:20:54Z</time>
      </trkpt>
      <trkpt lat="42.96419" lon="0.30111">
        <ele>1401.3</ele>
        <time>2026-07-07T10:20:54Z</time>
      </trkpt>
      <trkpt lat="42.96419" lon="0.30112">
        <ele>1401.3</ele>
        <time>2026-07-07T10:20:55Z</time>
      </trkpt>
      <trkpt lat="42.9642" lon="0.30114">
        <ele>1401.3</ele>
        <time>2026-07-07T10:20:55Z</time>
      </trkpt>
      <trkpt lat="42.9642" lon="0.30115">
        <ele>1401.3</ele>
        <time>2026-07-07T10:20:56Z</time>
      </trkpt>
      <trkpt lat="42.9642" lon="0.30116">
        <ele>1401.3</ele>
        <time>2026-07-07T10:20:56Z</time>
      </trkpt>
      <trkpt lat="42.9642" lon="0.30117">
        <ele>1401.3</ele>
        <time>2026-07-07T10:20:57Z</time>
      </trkpt>
      <trkpt lat="42.9642" lon="0.30118">
        <ele>1400.3</ele>
        <time>2026-07-07T10:20:57Z</time>
      </trkpt>
      <trkpt lat="42.9642" lon="0.30119">
        <ele>1400.3</ele>
        <time>2026-07-07T10:20:58Z</time>
      </trkpt>
      <trkpt lat="42.9642" lon="0.30121">
        <ele>1400.3</ele>
        <time>2026-07-07T10:20:59Z</time>
      </trkpt>
      <trkpt lat="42.96421" lon="0.30122">
        <ele>1400.3</ele>
        <time>2026-07-07T10:20:59Z</time>
      </trkpt>
      <trkpt lat="42.96421" lon="0.30123">
        <ele>1400.3</ele>
        <time>2026-07-07T10:21:00Z</time>
      </trkpt>
      <trkpt lat="42.96421" lon="0.30124">
        <ele>1399.3</ele>
        <time>2026-07-07T10:21:00Z</time>
      </trkpt>
      <trkpt lat="42.96421" lon="0.30125">
        <ele>1399.3</ele>
        <time>2026-07-07T10:21:01Z</time>
      </trkpt>
      <trkpt lat="42.96421" lon="0.30126">
        <ele>1400.3</ele>
        <time>2026-07-07T10:21:01Z</time>
      </trkpt>
      <trkpt lat="42.96421" lon="0.30127">
        <ele>1400.3</ele>
        <time>2026-07-07T10:21:02Z</time>
      </trkpt>
      <trkpt lat="42.96421" lon="0.30128">
        <ele>1401.3</ele>
        <time>2026-07-07T10:21:03Z</time>
      </trkpt>
      <trkpt lat="42.96421" lon="0.30128">
        <ele>1401.3</ele>
        <time>2026-07-07T10:21:03Z</time>
      </trkpt>
      <trkpt lat="42.96422" lon="0.30129">
        <ele>1401.3</ele>
        <time>2026-07-07T10:21:04Z</time>
      </trkpt>
      <trkpt lat="42.96422" lon="0.3013">
        <ele>1401.3</ele>
        <time>2026-07-07T10:21:04Z</time>
      </trkpt>
      <trkpt lat="42.96422" lon="0.30131">
        <ele>1401.3</ele>
        <time>2026-07-07T10:21:05Z</time>
      </trkpt>
      <trkpt lat="42.96422" lon="0.30132">
        <ele>1401.3</ele>
        <time>2026-07-07T10:21:05Z</time>
      </trkpt>
      <trkpt lat="42.96422" lon="0.30133">
        <ele>1401.3</ele>
        <time>2026-07-07T10:21:06Z</time>
      </trkpt>
      <trkpt lat="42.96422" lon="0.30134">
        <ele>1401.3</ele>
        <time>2026-07-07T10:21:06Z</time>
      </trkpt>
      <trkpt lat="42.96423" lon="0.30134">
        <ele>1400.3</ele>
        <time>2026-07-07T10:21:07Z</time>
      </trkpt>
      <trkpt lat="42.96423" lon="0.30135">
        <ele>1399.3</ele>
        <time>2026-07-07T10:21:07Z</time>
      </trkpt>
      <trkpt lat="42.96423" lon="0.30136">
        <ele>1399.3</ele>
        <time>2026-07-07T10:21:08Z</time>
      </trkpt>
      <trkpt lat="42.96423" lon="0.30137">
        <ele>1400.3</ele>
        <time>2026-07-07T10:21:08Z</time>
      </trkpt>
      <trkpt lat="42.96423" lon="0.30138">
        <ele>1400.3</ele>
        <time>2026-07-07T10:21:09Z</time>
      </trkpt>
      <trkpt lat="42.96423" lon="0.30138">
        <ele>1400.3</ele>
        <time>2026-07-07T10:21:09Z</time>
      </trkpt>
      <trkpt lat="42.96423" lon="0.30139">
        <ele>1400.3</ele>
        <time>2026-07-07T10:21:10Z</time>
      </trkpt>
      <trkpt lat="42.96423" lon="0.3014">
        <ele>1400.3</ele>
        <time>2026-07-07T10:21:10Z</time>
      </trkpt>
      <trkpt lat="42.96423" lon="0.30141">
        <ele>1400.3</ele>
        <time>2026-07-07T10:21:11Z</time>
      </trkpt>
      <trkpt lat="42.96423" lon="0.30142">
        <ele>1400.3</ele>
        <time>2026-07-07T10:21:11Z</time>
      </trkpt>
      <trkpt lat="42.96423" lon="0.30143">
        <ele>1400.3</ele>
        <time>2026-07-07T10:21:12Z</time>
      </trkpt>
      <trkpt lat="42.96423" lon="0.30143">
        <ele>1401.3</ele>
        <time>2026-07-07T10:21:12Z</time>
      </trkpt>
      <trkpt lat="42.96423" lon="0.30144">
        <ele>1401.3</ele>
        <time>2026-07-07T10:21:13Z</time>
      </trkpt>
      <trkpt lat="42.96423" lon="0.30145">
        <ele>1400.3</ele>
        <time>2026-07-07T10:21:13Z</time>
      </trkpt>
      <trkpt lat="42.96423" lon="0.30146">
        <ele>1400.3</ele>
        <time>2026-07-07T10:21:14Z</time>
      </trkpt>
      <trkpt lat="42.96423" lon="0.30146">
        <ele>1400.3</ele>
        <time>2026-07-07T10:21:15Z</time>
      </trkpt>
      <trkpt lat="42.96423" lon="0.30147">
        <ele>1400.3</ele>
        <time>2026-07-07T10:21:15Z</time>
      </trkpt>
      <trkpt lat="42.96423" lon="0.30148">
        <ele>1400.3</ele>
        <time>2026-07-07T10:21:16Z</time>
      </trkpt>
      <trkpt lat="42.96423" lon="0.30149">
        <ele>1400.3</ele>
        <time>2026-07-07T10:21:16Z</time>
      </trkpt>
      <trkpt lat="42.96423" lon="0.3015">
        <ele>1400.3</ele>
        <time>2026-07-07T10:21:17Z</time>
      </trkpt>
      <trkpt lat="42.96423" lon="0.30151">
        <ele>1400.3</ele>
        <time>2026-07-07T10:21:17Z</time>
      </trkpt>
      <trkpt lat="42.96423" lon="0.30152">
        <ele>1401.3</ele>
        <time>2026-07-07T10:21:18Z</time>
      </trkpt>
      <trkpt lat="42.96423" lon="0.30153">
        <ele>1401.3</ele>
        <time>2026-07-07T10:21:18Z</time>
      </trkpt>
      <trkpt lat="42.96423" lon="0.30154">
        <ele>1401.3</ele>
        <time>2026-07-07T10:21:19Z</time>
      </trkpt>
      <trkpt lat="42.96423" lon="0.30154">
        <ele>1400.3</ele>
        <time>2026-07-07T10:21:19Z</time>
      </trkpt>
      <trkpt lat="42.96424" lon="0.30156">
        <ele>1400.3</ele>
        <time>2026-07-07T10:21:20Z</time>
      </trkpt>
      <trkpt lat="42.96424" lon="0.30157">
        <ele>1400.3</ele>
        <time>2026-07-07T10:21:21Z</time>
      </trkpt>
      <trkpt lat="42.96424" lon="0.30158">
        <ele>1400.3</ele>
        <time>2026-07-07T10:21:21Z</time>
      </trkpt>
      <trkpt lat="42.96424" lon="0.30159">
        <ele>1400.3</ele>
        <time>2026-07-07T10:21:22Z</time>
      </trkpt>
      <trkpt lat="42.96424" lon="0.3016">
        <ele>1401.3</ele>
        <time>2026-07-07T10:21:23Z</time>
      </trkpt>
      <trkpt lat="42.96424" lon="0.30162">
        <ele>1401.3</ele>
        <time>2026-07-07T10:21:23Z</time>
      </trkpt>
      <trkpt lat="42.96425" lon="0.30163">
        <ele>1401.3</ele>
        <time>2026-07-07T10:21:24Z</time>
      </trkpt>
      <trkpt lat="42.96425" lon="0.30164">
        <ele>1400.3</ele>
        <time>2026-07-07T10:21:24Z</time>
      </trkpt>
      <trkpt lat="42.96425" lon="0.30165">
        <ele>1400.3</ele>
        <time>2026-07-07T10:21:25Z</time>
      </trkpt>
      <trkpt lat="42.96425" lon="0.30166">
        <ele>1401.3</ele>
        <time>2026-07-07T10:21:26Z</time>
      </trkpt>
      <trkpt lat="42.96426" lon="0.30167">
        <ele>1401.3</ele>
        <time>2026-07-07T10:21:26Z</time>
      </trkpt>
      <trkpt lat="42.96426" lon="0.30168">
        <ele>1401.3</ele>
        <time>2026-07-07T10:21:27Z</time>
      </trkpt>
      <trkpt lat="42.96426" lon="0.30169">
        <ele>1401.3</ele>
        <time>2026-07-07T10:21:27Z</time>
      </trkpt>
      <trkpt lat="42.96426" lon="0.3017">
        <ele>1401.3</ele>
        <time>2026-07-07T10:21:28Z</time>
      </trkpt>
      <trkpt lat="42.96426" lon="0.30171">
        <ele>1401.3</ele>
        <time>2026-07-07T10:21:28Z</time>
      </trkpt>
      <trkpt lat="42.96427" lon="0.30172">
        <ele>1400.3</ele>
        <time>2026-07-07T10:21:29Z</time>
      </trkpt>
      <trkpt lat="42.96427" lon="0.30173">
        <ele>1400.3</ele>
        <time>2026-07-07T10:21:29Z</time>
      </trkpt>
      <trkpt lat="42.96427" lon="0.30174">
        <ele>1400.3</ele>
        <time>2026-07-07T10:21:30Z</time>
      </trkpt>
      <trkpt lat="42.96427" lon="0.30175">
        <ele>1400.3</ele>
        <time>2026-07-07T10:21:30Z</time>
      </trkpt>
      <trkpt lat="42.96427" lon="0.30176">
        <ele>1400.3</ele>
        <time>2026-07-07T10:21:31Z</time>
      </trkpt>
      <trkpt lat="42.96428" lon="0.30176">
        <ele>1400.3</ele>
        <time>2026-07-07T10:21:31Z</time>
      </trkpt>
      <trkpt lat="42.96428" lon="0.30177">
        <ele>1400.3</ele>
        <time>2026-07-07T10:21:32Z</time>
      </trkpt>
      <trkpt lat="42.96428" lon="0.30178">
        <ele>1400.3</ele>
        <time>2026-07-07T10:21:32Z</time>
      </trkpt>
      <trkpt lat="42.96428" lon="0.30179">
        <ele>1400.3</ele>
        <time>2026-07-07T10:21:33Z</time>
      </trkpt>
      <trkpt lat="42.96429" lon="0.3018">
        <ele>1399.3</ele>
        <time>2026-07-07T10:21:33Z</time>
      </trkpt>
      <trkpt lat="42.96429" lon="0.30181">
        <ele>1399.3</ele>
        <time>2026-07-07T10:21:34Z</time>
      </trkpt>
      <trkpt lat="42.96429" lon="0.30181">
        <ele>1399.3</ele>
        <time>2026-07-07T10:21:34Z</time>
      </trkpt>
      <trkpt lat="42.9643" lon="0.30182">
        <ele>1399.3</ele>
        <time>2026-07-07T10:21:35Z</time>
      </trkpt>
      <trkpt lat="42.9643" lon="0.30183">
        <ele>1399.3</ele>
        <time>2026-07-07T10:21:35Z</time>
      </trkpt>
      <trkpt lat="42.9643" lon="0.30184">
        <ele>1399.3</ele>
        <time>2026-07-07T10:21:36Z</time>
      </trkpt>
      <trkpt lat="42.96431" lon="0.30185">
        <ele>1400.3</ele>
        <time>2026-07-07T10:21:37Z</time>
      </trkpt>
      <trkpt lat="42.96431" lon="0.30186">
        <ele>1400.3</ele>
        <time>2026-07-07T10:21:37Z</time>
      </trkpt>
      <trkpt lat="42.96431" lon="0.30186">
        <ele>1399.3</ele>
        <time>2026-07-07T10:21:38Z</time>
      </trkpt>
      <trkpt lat="42.96432" lon="0.30187">
        <ele>1399.3</ele>
        <time>2026-07-07T10:21:38Z</time>
      </trkpt>
      <trkpt lat="42.96432" lon="0.30188">
        <ele>1399.3</ele>
        <time>2026-07-07T10:21:39Z</time>
      </trkpt>
      <trkpt lat="42.96432" lon="0.30189">
        <ele>1399.3</ele>
        <time>2026-07-07T10:21:39Z</time>
      </trkpt>
      <trkpt lat="42.96432" lon="0.3019">
        <ele>1398.3</ele>
        <time>2026-07-07T10:21:40Z</time>
      </trkpt>
      <trkpt lat="42.96432" lon="0.30191">
        <ele>1398.3</ele>
        <time>2026-07-07T10:21:40Z</time>
      </trkpt>
      <trkpt lat="42.96433" lon="0.30192">
        <ele>1398.3</ele>
        <time>2026-07-07T10:21:41Z</time>
      </trkpt>
      <trkpt lat="42.96433" lon="0.30193">
        <ele>1397.3</ele>
        <time>2026-07-07T10:21:41Z</time>
      </trkpt>
      <trkpt lat="42.96433" lon="0.30194">
        <ele>1397.3</ele>
        <time>2026-07-07T10:21:42Z</time>
      </trkpt>
      <trkpt lat="42.96433" lon="0.30194">
        <ele>1397.3</ele>
        <time>2026-07-07T10:21:42Z</time>
      </trkpt>
      <trkpt lat="42.96433" lon="0.30195">
        <ele>1397.3</ele>
        <time>2026-07-07T10:21:43Z</time>
      </trkpt>
      <trkpt lat="42.96434" lon="0.30196">
        <ele>1397.3</ele>
        <time>2026-07-07T10:21:43Z</time>
      </trkpt>
      <trkpt lat="42.96434" lon="0.30197">
        <ele>1397.3</ele>
        <time>2026-07-07T10:21:44Z</time>
      </trkpt>
      <trkpt lat="42.96434" lon="0.30198">
        <ele>1396.3</ele>
        <time>2026-07-07T10:21:44Z</time>
      </trkpt>
      <trkpt lat="42.96434" lon="0.30199">
        <ele>1396.3</ele>
        <time>2026-07-07T10:21:45Z</time>
      </trkpt>
      <trkpt lat="42.96435" lon="0.302">
        <ele>1396.3</ele>
        <time>2026-07-07T10:21:45Z</time>
      </trkpt>
      <trkpt lat="42.96435" lon="0.30201">
        <ele>1396.3</ele>
        <time>2026-07-07T10:21:46Z</time>
      </trkpt>
      <trkpt lat="42.96435" lon="0.30202">
        <ele>1396.3</ele>
        <time>2026-07-07T10:21:46Z</time>
      </trkpt>
      <trkpt lat="42.96435" lon="0.30203">
        <ele>1396.3</ele>
        <time>2026-07-07T10:21:47Z</time>
      </trkpt>
      <trkpt lat="42.96435" lon="0.30204">
        <ele>1396.3</ele>
        <time>2026-07-07T10:21:48Z</time>
      </trkpt>
      <trkpt lat="42.96436" lon="0.30205">
        <ele>1396.3</ele>
        <time>2026-07-07T10:21:48Z</time>
      </trkpt>
      <trkpt lat="42.96436" lon="0.30206">
        <ele>1397.3</ele>
        <time>2026-07-07T10:21:49Z</time>
      </trkpt>
      <trkpt lat="42.96436" lon="0.30207">
        <ele>1397.3</ele>
        <time>2026-07-07T10:21:49Z</time>
      </trkpt>
      <trkpt lat="42.96436" lon="0.30208">
        <ele>1398.3</ele>
        <time>2026-07-07T10:21:50Z</time>
      </trkpt>
      <trkpt lat="42.96436" lon="0.30209">
        <ele>1398.3</ele>
        <time>2026-07-07T10:21:50Z</time>
      </trkpt>
      <trkpt lat="42.96436" lon="0.3021">
        <ele>1397.3</ele>
        <time>2026-07-07T10:21:51Z</time>
      </trkpt>
      <trkpt lat="42.96437" lon="0.30211">
        <ele>1397.3</ele>
        <time>2026-07-07T10:21:51Z</time>
      </trkpt>
      <trkpt lat="42.96437" lon="0.30212">
        <ele>1397.3</ele>
        <time>2026-07-07T10:21:52Z</time>
      </trkpt>
      <trkpt lat="42.96437" lon="0.30213">
        <ele>1397.3</ele>
        <time>2026-07-07T10:21:52Z</time>
      </trkpt>
      <trkpt lat="42.96437" lon="0.30214">
        <ele>1397.3</ele>
        <time>2026-07-07T10:21:53Z</time>
      </trkpt>
      <trkpt lat="42.96437" lon="0.30215">
        <ele>1397.3</ele>
        <time>2026-07-07T10:21:53Z</time>
      </trkpt>
      <trkpt lat="42.96438" lon="0.30216">
        <ele>1397.3</ele>
        <time>2026-07-07T10:21:54Z</time>
      </trkpt>
      <trkpt lat="42.96438" lon="0.30217">
        <ele>1397.3</ele>
        <time>2026-07-07T10:21:54Z</time>
      </trkpt>
      <trkpt lat="42.96438" lon="0.30218">
        <ele>1397.3</ele>
        <time>2026-07-07T10:21:55Z</time>
      </trkpt>
      <trkpt lat="42.96438" lon="0.30219">
        <ele>1396.3</ele>
        <time>2026-07-07T10:21:55Z</time>
      </trkpt>
      <trkpt lat="42.96438" lon="0.3022">
        <ele>1396.3</ele>
        <time>2026-07-07T10:21:56Z</time>
      </trkpt>
      <trkpt lat="42.96438" lon="0.30221">
        <ele>1397.3</ele>
        <time>2026-07-07T10:21:56Z</time>
      </trkpt>
      <trkpt lat="42.96438" lon="0.30222">
        <ele>1397.3</ele>
        <time>2026-07-07T10:21:57Z</time>
      </trkpt>
      <trkpt lat="42.96438" lon="0.30223">
        <ele>1397.3</ele>
        <time>2026-07-07T10:21:57Z</time>
      </trkpt>
      <trkpt lat="42.96438" lon="0.30224">
        <ele>1397.3</ele>
        <time>2026-07-07T10:21:58Z</time>
      </trkpt>
      <trkpt lat="42.96438" lon="0.30225">
        <ele>1397.3</ele>
        <time>2026-07-07T10:21:59Z</time>
      </trkpt>
      <trkpt lat="42.96438" lon="0.30226">
        <ele>1397.3</ele>
        <time>2026-07-07T10:21:59Z</time>
      </trkpt>
      <trkpt lat="42.96438" lon="0.30227">
        <ele>1397.3</ele>
        <time>2026-07-07T10:22:00Z</time>
      </trkpt>
      <trkpt lat="42.96438" lon="0.30228">
        <ele>1397.3</ele>
        <time>2026-07-07T10:22:00Z</time>
      </trkpt>
      <trkpt lat="42.96438" lon="0.30229">
        <ele>1397.3</ele>
        <time>2026-07-07T10:22:01Z</time>
      </trkpt>
      <trkpt lat="42.96438" lon="0.3023">
        <ele>1397.3</ele>
        <time>2026-07-07T10:22:01Z</time>
      </trkpt>
      <trkpt lat="42.96438" lon="0.30231">
        <ele>1397.3</ele>
        <time>2026-07-07T10:22:02Z</time>
      </trkpt>
      <trkpt lat="42.96438" lon="0.30232">
        <ele>1397.3</ele>
        <time>2026-07-07T10:22:02Z</time>
      </trkpt>
      <trkpt lat="42.96438" lon="0.30233">
        <ele>1396.3</ele>
        <time>2026-07-07T10:22:03Z</time>
      </trkpt>
      <trkpt lat="42.96439" lon="0.30234">
        <ele>1396.3</ele>
        <time>2026-07-07T10:22:03Z</time>
      </trkpt>
      <trkpt lat="42.96439" lon="0.30235">
        <ele>1396.3</ele>
        <time>2026-07-07T10:22:04Z</time>
      </trkpt>
      <trkpt lat="42.96439" lon="0.30235">
        <ele>1397.3</ele>
        <time>2026-07-07T10:22:04Z</time>
      </trkpt>
      <trkpt lat="42.96439" lon="0.30236">
        <ele>1397.3</ele>
        <time>2026-07-07T10:22:05Z</time>
      </trkpt>
      <trkpt lat="42.9644" lon="0.30237">
        <ele>1397.3</ele>
        <time>2026-07-07T10:22:05Z</time>
      </trkpt>
      <trkpt lat="42.9644" lon="0.30238">
        <ele>1397.3</ele>
        <time>2026-07-07T10:22:06Z</time>
      </trkpt>
      <trkpt lat="42.96441" lon="0.30238">
        <ele>1396.3</ele>
        <time>2026-07-07T10:22:06Z</time>
      </trkpt>
      <trkpt lat="42.96441" lon="0.30239">
        <ele>1396.3</ele>
        <time>2026-07-07T10:22:07Z</time>
      </trkpt>
      <trkpt lat="42.96441" lon="0.30239">
        <ele>1396.3</ele>
        <time>2026-07-07T10:22:07Z</time>
      </trkpt>
      <trkpt lat="42.96442" lon="0.3024">
        <ele>1396.3</ele>
        <time>2026-07-07T10:22:08Z</time>
      </trkpt>
      <trkpt lat="42.96442" lon="0.3024">
        <ele>1396.3</ele>
        <time>2026-07-07T10:22:08Z</time>
      </trkpt>
      <trkpt lat="42.96442" lon="0.30241">
        <ele>1396.3</ele>
        <time>2026-07-07T10:22:09Z</time>
      </trkpt>
      <trkpt lat="42.96442" lon="0.30242">
        <ele>1396.3</ele>
        <time>2026-07-07T10:22:09Z</time>
      </trkpt>
      <trkpt lat="42.96442" lon="0.30242">
        <ele>1396.3</ele>
        <time>2026-07-07T10:22:10Z</time>
      </trkpt>
      <trkpt lat="42.96443" lon="0.30243">
        <ele>1395.3</ele>
        <time>2026-07-07T10:22:11Z</time>
      </trkpt>
      <trkpt lat="42.96443" lon="0.30244">
        <ele>1396.3</ele>
        <time>2026-07-07T10:22:11Z</time>
      </trkpt>
      <trkpt lat="42.96443" lon="0.30245">
        <ele>1396.3</ele>
        <time>2026-07-07T10:22:12Z</time>
      </trkpt>
      <trkpt lat="42.96443" lon="0.30246">
        <ele>1395.3</ele>
        <time>2026-07-07T10:22:13Z</time>
      </trkpt>
      <trkpt lat="42.96443" lon="0.30247">
        <ele>1395.3</ele>
        <time>2026-07-07T10:22:13Z</time>
      </trkpt>
      <trkpt lat="42.96444" lon="0.30247">
        <ele>1395.3</ele>
        <time>2026-07-07T10:22:14Z</time>
      </trkpt>
      <trkpt lat="42.96444" lon="0.30248">
        <ele>1395.3</ele>
        <time>2026-07-07T10:22:14Z</time>
      </trkpt>
      <trkpt lat="42.96444" lon="0.30249">
        <ele>1395.3</ele>
        <time>2026-07-07T10:22:15Z</time>
      </trkpt>
      <trkpt lat="42.96444" lon="0.3025">
        <ele>1395.3</ele>
        <time>2026-07-07T10:22:15Z</time>
      </trkpt>
      <trkpt lat="42.96444" lon="0.3025">
        <ele>1395.3</ele>
        <time>2026-07-07T10:22:16Z</time>
      </trkpt>
      <trkpt lat="42.96444" lon="0.30251">
        <ele>1395.3</ele>
        <time>2026-07-07T10:22:17Z</time>
      </trkpt>
      <trkpt lat="42.96444" lon="0.30252">
        <ele>1394.3</ele>
        <time>2026-07-07T10:22:17Z</time>
      </trkpt>
      <trkpt lat="42.96444" lon="0.30253">
        <ele>1394.3</ele>
        <time>2026-07-07T10:22:18Z</time>
      </trkpt>
      <trkpt lat="42.96444" lon="0.30253">
        <ele>1395.3</ele>
        <time>2026-07-07T10:22:18Z</time>
      </trkpt>
      <trkpt lat="42.96443" lon="0.30254">
        <ele>1395.3</ele>
        <time>2026-07-07T10:22:19Z</time>
      </trkpt>
      <trkpt lat="42.96443" lon="0.30255">
        <ele>1394.3</ele>
        <time>2026-07-07T10:22:19Z</time>
      </trkpt>
      <trkpt lat="42.96443" lon="0.30256">
        <ele>1394.3</ele>
        <time>2026-07-07T10:22:20Z</time>
      </trkpt>
      <trkpt lat="42.96443" lon="0.30257">
        <ele>1394.3</ele>
        <time>2026-07-07T10:22:21Z</time>
      </trkpt>
      <trkpt lat="42.96443" lon="0.30258">
        <ele>1394.3</ele>
        <time>2026-07-07T10:22:21Z</time>
      </trkpt>
      <trkpt lat="42.96443" lon="0.30259">
        <ele>1394.3</ele>
        <time>2026-07-07T10:22:22Z</time>
      </trkpt>
      <trkpt lat="42.96443" lon="0.3026">
        <ele>1394.3</ele>
        <time>2026-07-07T10:22:22Z</time>
      </trkpt>
      <trkpt lat="42.96443" lon="0.3026">
        <ele>1394.3</ele>
        <time>2026-07-07T10:22:23Z</time>
      </trkpt>
      <trkpt lat="42.96443" lon="0.30261">
        <ele>1394.3</ele>
        <time>2026-07-07T10:22:23Z</time>
      </trkpt>
      <trkpt lat="42.96443" lon="0.30261">
        <ele>1393.3</ele>
        <time>2026-07-07T10:22:24Z</time>
      </trkpt>
      <trkpt lat="42.96443" lon="0.30262">
        <ele>1393.3</ele>
        <time>2026-07-07T10:22:24Z</time>
      </trkpt>
      <trkpt lat="42.96444" lon="0.30263">
        <ele>1393.3</ele>
        <time>2026-07-07T10:22:25Z</time>
      </trkpt>
      <trkpt lat="42.96443" lon="0.30264">
        <ele>1393.3</ele>
        <time>2026-07-07T10:22:25Z</time>
      </trkpt>
      <trkpt lat="42.96443" lon="0.30265">
        <ele>1393.3</ele>
        <time>2026-07-07T10:22:26Z</time>
      </trkpt>
      <trkpt lat="42.96443" lon="0.30266">
        <ele>1392.3</ele>
        <time>2026-07-07T10:22:26Z</time>
      </trkpt>
      <trkpt lat="42.96443" lon="0.30267">
        <ele>1392.3</ele>
        <time>2026-07-07T10:22:27Z</time>
      </trkpt>
      <trkpt lat="42.96443" lon="0.30267">
        <ele>1392.3</ele>
        <time>2026-07-07T10:22:27Z</time>
      </trkpt>
      <trkpt lat="42.96443" lon="0.30268">
        <ele>1392.3</ele>
        <time>2026-07-07T10:22:28Z</time>
      </trkpt>
      <trkpt lat="42.96443" lon="0.30269">
        <ele>1392.3</ele>
        <time>2026-07-07T10:22:28Z</time>
      </trkpt>
      <trkpt lat="42.96443" lon="0.3027">
        <ele>1392.3</ele>
        <time>2026-07-07T10:22:29Z</time>
      </trkpt>
      <trkpt lat="42.96443" lon="0.30271">
        <ele>1392.3</ele>
        <time>2026-07-07T10:22:29Z</time>
      </trkpt>
      <trkpt lat="42.96443" lon="0.30272">
        <ele>1392.3</ele>
        <time>2026-07-07T10:22:30Z</time>
      </trkpt>
      <trkpt lat="42.96443" lon="0.30273">
        <ele>1392.3</ele>
        <time>2026-07-07T10:22:31Z</time>
      </trkpt>
      <trkpt lat="42.96442" lon="0.30273">
        <ele>1392.3</ele>
        <time>2026-07-07T10:22:31Z</time>
      </trkpt>
      <trkpt lat="42.96442" lon="0.30274">
        <ele>1392.3</ele>
        <time>2026-07-07T10:22:32Z</time>
      </trkpt>
      <trkpt lat="42.96442" lon="0.30275">
        <ele>1392.3</ele>
        <time>2026-07-07T10:22:32Z</time>
      </trkpt>
      <trkpt lat="42.96442" lon="0.30276">
        <ele>1392.3</ele>
        <time>2026-07-07T10:22:33Z</time>
      </trkpt>
      <trkpt lat="42.96442" lon="0.30277">
        <ele>1392.3</ele>
        <time>2026-07-07T10:22:33Z</time>
      </trkpt>
      <trkpt lat="42.96441" lon="0.30278">
        <ele>1392.3</ele>
        <time>2026-07-07T10:22:34Z</time>
      </trkpt>
      <trkpt lat="42.96441" lon="0.30279">
        <ele>1392.3</ele>
        <time>2026-07-07T10:22:34Z</time>
      </trkpt>
      <trkpt lat="42.96441" lon="0.3028">
        <ele>1392.3</ele>
        <time>2026-07-07T10:22:35Z</time>
      </trkpt>
      <trkpt lat="42.96441" lon="0.30281">
        <ele>1392.3</ele>
        <time>2026-07-07T10:22:35Z</time>
      </trkpt>
      <trkpt lat="42.96441" lon="0.30282">
        <ele>1392.3</ele>
        <time>2026-07-07T10:22:36Z</time>
      </trkpt>
      <trkpt lat="42.96441" lon="0.30283">
        <ele>1392.3</ele>
        <time>2026-07-07T10:22:36Z</time>
      </trkpt>
      <trkpt lat="42.96441" lon="0.30284">
        <ele>1392.3</ele>
        <time>2026-07-07T10:22:37Z</time>
      </trkpt>
      <trkpt lat="42.96441" lon="0.30285">
        <ele>1392.3</ele>
        <time>2026-07-07T10:22:37Z</time>
      </trkpt>
      <trkpt lat="42.9644" lon="0.30286">
        <ele>1392.3</ele>
        <time>2026-07-07T10:22:38Z</time>
      </trkpt>
      <trkpt lat="42.9644" lon="0.30287">
        <ele>1392.3</ele>
        <time>2026-07-07T10:22:38Z</time>
      </trkpt>
      <trkpt lat="42.9644" lon="0.30287">
        <ele>1392.3</ele>
        <time>2026-07-07T10:22:39Z</time>
      </trkpt>
      <trkpt lat="42.9644" lon="0.30288">
        <ele>1392.3</ele>
        <time>2026-07-07T10:22:40Z</time>
      </trkpt>
      <trkpt lat="42.9644" lon="0.30289">
        <ele>1392.3</ele>
        <time>2026-07-07T10:22:40Z</time>
      </trkpt>
      <trkpt lat="42.9644" lon="0.3029">
        <ele>1392.3</ele>
        <time>2026-07-07T10:22:41Z</time>
      </trkpt>
      <trkpt lat="42.9644" lon="0.30291">
        <ele>1392.3</ele>
        <time>2026-07-07T10:22:41Z</time>
      </trkpt>
      <trkpt lat="42.9644" lon="0.30291">
        <ele>1391.3</ele>
        <time>2026-07-07T10:22:42Z</time>
      </trkpt>
      <trkpt lat="42.9644" lon="0.30292">
        <ele>1391.3</ele>
        <time>2026-07-07T10:22:42Z</time>
      </trkpt>
      <trkpt lat="42.9644" lon="0.30293">
        <ele>1391.3</ele>
        <time>2026-07-07T10:22:43Z</time>
      </trkpt>
      <trkpt lat="42.9644" lon="0.30294">
        <ele>1391.3</ele>
        <time>2026-07-07T10:22:43Z</time>
      </trkpt>
      <trkpt lat="42.9644" lon="0.30295">
        <ele>1390.3</ele>
        <time>2026-07-07T10:22:44Z</time>
      </trkpt>
      <trkpt lat="42.9644" lon="0.30295">
        <ele>1390.3</ele>
        <time>2026-07-07T10:22:44Z</time>
      </trkpt>
      <trkpt lat="42.96439" lon="0.30296">
        <ele>1390.3</ele>
        <time>2026-07-07T10:22:45Z</time>
      </trkpt>
      <trkpt lat="42.96439" lon="0.30297">
        <ele>1391.3</ele>
        <time>2026-07-07T10:22:45Z</time>
      </trkpt>
      <trkpt lat="42.96439" lon="0.30298">
        <ele>1391.3</ele>
        <time>2026-07-07T10:22:46Z</time>
      </trkpt>
      <trkpt lat="42.96439" lon="0.30299">
        <ele>1391.3</ele>
        <time>2026-07-07T10:22:46Z</time>
      </trkpt>
      <trkpt lat="42.96439" lon="0.303">
        <ele>1391.3</ele>
        <time>2026-07-07T10:22:47Z</time>
      </trkpt>
      <trkpt lat="42.96438" lon="0.30301">
        <ele>1390.3</ele>
        <time>2026-07-07T10:22:48Z</time>
      </trkpt>
      <trkpt lat="42.96438" lon="0.30302">
        <ele>1390.3</ele>
        <time>2026-07-07T10:22:48Z</time>
      </trkpt>
      <trkpt lat="42.96438" lon="0.30302">
        <ele>1391.3</ele>
        <time>2026-07-07T10:22:49Z</time>
      </trkpt>
      <trkpt lat="42.96438" lon="0.30303">
        <ele>1391.3</ele>
        <time>2026-07-07T10:22:49Z</time>
      </trkpt>
      <trkpt lat="42.96438" lon="0.30304">
        <ele>1390.3</ele>
        <time>2026-07-07T10:22:50Z</time>
      </trkpt>
      <trkpt lat="42.96438" lon="0.30305">
        <ele>1390.3</ele>
        <time>2026-07-07T10:22:50Z</time>
      </trkpt>
      <trkpt lat="42.96438" lon="0.30306">
        <ele>1390.3</ele>
        <time>2026-07-07T10:22:51Z</time>
      </trkpt>
      <trkpt lat="42.96438" lon="0.30307">
        <ele>1391.3</ele>
        <time>2026-07-07T10:22:51Z</time>
      </trkpt>
      <trkpt lat="42.96438" lon="0.30308">
        <ele>1391.3</ele>
        <time>2026-07-07T10:22:52Z</time>
      </trkpt>
      <trkpt lat="42.96438" lon="0.30309">
        <ele>1391.3</ele>
        <time>2026-07-07T10:22:52Z</time>
      </trkpt>
      <trkpt lat="42.96438" lon="0.3031">
        <ele>1391.3</ele>
        <time>2026-07-07T10:22:53Z</time>
      </trkpt>
      <trkpt lat="42.96438" lon="0.30311">
        <ele>1391.3</ele>
        <time>2026-07-07T10:22:53Z</time>
      </trkpt>
      <trkpt lat="42.96437" lon="0.30312">
        <ele>1391.3</ele>
        <time>2026-07-07T10:22:54Z</time>
      </trkpt>
      <trkpt lat="42.96437" lon="0.30313">
        <ele>1390.3</ele>
        <time>2026-07-07T10:22:54Z</time>
      </trkpt>
      <trkpt lat="42.96437" lon="0.30314">
        <ele>1390.3</ele>
        <time>2026-07-07T10:22:55Z</time>
      </trkpt>
      <trkpt lat="42.96437" lon="0.30315">
        <ele>1390.3</ele>
        <time>2026-07-07T10:22:56Z</time>
      </trkpt>
      <trkpt lat="42.96437" lon="0.30316">
        <ele>1390.3</ele>
        <time>2026-07-07T10:22:56Z</time>
      </trkpt>
      <trkpt lat="42.96437" lon="0.30317">
        <ele>1389.3</ele>
        <time>2026-07-07T10:22:57Z</time>
      </trkpt>
      <trkpt lat="42.96437" lon="0.30318">
        <ele>1389.3</ele>
        <time>2026-07-07T10:22:57Z</time>
      </trkpt>
      <trkpt lat="42.96437" lon="0.30319">
        <ele>1389.3</ele>
        <time>2026-07-07T10:22:58Z</time>
      </trkpt>
      <trkpt lat="42.96437" lon="0.30319">
        <ele>1389.3</ele>
        <time>2026-07-07T10:22:58Z</time>
      </trkpt>
      <trkpt lat="42.96437" lon="0.3032">
        <ele>1389.3</ele>
        <time>2026-07-07T10:22:59Z</time>
      </trkpt>
      <trkpt lat="42.96436" lon="0.30321">
        <ele>1389.3</ele>
        <time>2026-07-07T10:22:59Z</time>
      </trkpt>
      <trkpt lat="42.96436" lon="0.30322">
        <ele>1389.3</ele>
        <time>2026-07-07T10:23:00Z</time>
      </trkpt>
      <trkpt lat="42.96436" lon="0.30323">
        <ele>1388.3</ele>
        <time>2026-07-07T10:23:00Z</time>
      </trkpt>
      <trkpt lat="42.96436" lon="0.30324">
        <ele>1388.3</ele>
        <time>2026-07-07T10:23:01Z</time>
      </trkpt>
      <trkpt lat="42.96436" lon="0.30325">
        <ele>1388.3</ele>
        <time>2026-07-07T10:23:01Z</time>
      </trkpt>
      <trkpt lat="42.96436" lon="0.30326">
        <ele>1388.3</ele>
        <time>2026-07-07T10:23:02Z</time>
      </trkpt>
      <trkpt lat="42.96435" lon="0.30326">
        <ele>1388.3</ele>
        <time>2026-07-07T10:23:02Z</time>
      </trkpt>
      <trkpt lat="42.96435" lon="0.30327">
        <ele>1388.3</ele>
        <time>2026-07-07T10:23:03Z</time>
      </trkpt>
      <trkpt lat="42.96435" lon="0.30328">
        <ele>1388.3</ele>
        <time>2026-07-07T10:23:03Z</time>
      </trkpt>
      <trkpt lat="42.96434" lon="0.30329">
        <ele>1388.3</ele>
        <time>2026-07-07T10:23:04Z</time>
      </trkpt>
      <trkpt lat="42.96434" lon="0.30329">
        <ele>1388.3</ele>
        <time>2026-07-07T10:23:05Z</time>
      </trkpt>
      <trkpt lat="42.96434" lon="0.3033">
        <ele>1388.3</ele>
        <time>2026-07-07T10:23:05Z</time>
      </trkpt>
      <trkpt lat="42.96434" lon="0.30331">
        <ele>1388.3</ele>
        <time>2026-07-07T10:23:06Z</time>
      </trkpt>
      <trkpt lat="42.96433" lon="0.30332">
        <ele>1388.3</ele>
        <time>2026-07-07T10:23:06Z</time>
      </trkpt>
      <trkpt lat="42.96433" lon="0.30333">
        <ele>1388.3</ele>
        <time>2026-07-07T10:23:07Z</time>
      </trkpt>
      <trkpt lat="42.96433" lon="0.30333">
        <ele>1388.3</ele>
        <time>2026-07-07T10:23:07Z</time>
      </trkpt>
      <trkpt lat="42.96433" lon="0.30334">
        <ele>1388.3</ele>
        <time>2026-07-07T10:23:08Z</time>
      </trkpt>
      <trkpt lat="42.96432" lon="0.30335">
        <ele>1388.3</ele>
        <time>2026-07-07T10:23:08Z</time>
      </trkpt>
      <trkpt lat="42.96432" lon="0.30336">
        <ele>1388.3</ele>
        <time>2026-07-07T10:23:09Z</time>
      </trkpt>
      <trkpt lat="42.96432" lon="0.30337">
        <ele>1388.3</ele>
        <time>2026-07-07T10:23:09Z</time>
      </trkpt>
      <trkpt lat="42.96431" lon="0.30338">
        <ele>1388.3</ele>
        <time>2026-07-07T10:23:10Z</time>
      </trkpt>
      <trkpt lat="42.96431" lon="0.30339">
        <ele>1388.3</ele>
        <time>2026-07-07T10:23:11Z</time>
      </trkpt>
      <trkpt lat="42.96431" lon="0.3034">
        <ele>1388.3</ele>
        <time>2026-07-07T10:23:12Z</time>
      </trkpt>
      <trkpt lat="42.96431" lon="0.30341">
        <ele>1388.3</ele>
        <time>2026-07-07T10:23:12Z</time>
      </trkpt>
      <trkpt lat="42.96431" lon="0.30342">
        <ele>1388.3</ele>
        <time>2026-07-07T10:23:13Z</time>
      </trkpt>
      <trkpt lat="42.96431" lon="0.30343">
        <ele>1388.3</ele>
        <time>2026-07-07T10:23:13Z</time>
      </trkpt>
      <trkpt lat="42.96431" lon="0.30344">
        <ele>1388.3</ele>
        <time>2026-07-07T10:23:14Z</time>
      </trkpt>
      <trkpt lat="42.96431" lon="0.30345">
        <ele>1388.3</ele>
        <time>2026-07-07T10:23:14Z</time>
      </trkpt>
      <trkpt lat="42.9643" lon="0.30346">
        <ele>1388.3</ele>
        <time>2026-07-07T10:23:15Z</time>
      </trkpt>
      <trkpt lat="42.9643" lon="0.30347">
        <ele>1387.3</ele>
        <time>2026-07-07T10:23:15Z</time>
      </trkpt>
      <trkpt lat="42.9643" lon="0.30348">
        <ele>1387.3</ele>
        <time>2026-07-07T10:23:16Z</time>
      </trkpt>
      <trkpt lat="42.9643" lon="0.30349">
        <ele>1387.3</ele>
        <time>2026-07-07T10:23:16Z</time>
      </trkpt>
      <trkpt lat="42.9643" lon="0.3035">
        <ele>1387.3</ele>
        <time>2026-07-07T10:23:17Z</time>
      </trkpt>
      <trkpt lat="42.9643" lon="0.30351">
        <ele>1387.3</ele>
        <time>2026-07-07T10:23:18Z</time>
      </trkpt>
      <trkpt lat="42.9643" lon="0.30352">
        <ele>1387.3</ele>
        <time>2026-07-07T10:23:18Z</time>
      </trkpt>
      <trkpt lat="42.9643" lon="0.30352">
        <ele>1387.3</ele>
        <time>2026-07-07T10:23:19Z</time>
      </trkpt>
      <trkpt lat="42.9643" lon="0.30353">
        <ele>1387.3</ele>
        <time>2026-07-07T10:23:19Z</time>
      </trkpt>
      <trkpt lat="42.9643" lon="0.30354">
        <ele>1387.3</ele>
        <time>2026-07-07T10:23:20Z</time>
      </trkpt>
      <trkpt lat="42.9643" lon="0.30356">
        <ele>1388.3</ele>
        <time>2026-07-07T10:23:21Z</time>
      </trkpt>
      <trkpt lat="42.96429" lon="0.30357">
        <ele>1388.3</ele>
        <time>2026-07-07T10:23:21Z</time>
      </trkpt>
      <trkpt lat="42.96429" lon="0.30358">
        <ele>1388.3</ele>
        <time>2026-07-07T10:23:22Z</time>
      </trkpt>
      <trkpt lat="42.96429" lon="0.30359">
        <ele>1388.3</ele>
        <time>2026-07-07T10:23:23Z</time>
      </trkpt>
      <trkpt lat="42.96429" lon="0.3036">
        <ele>1388.3</ele>
        <time>2026-07-07T10:23:23Z</time>
      </trkpt>
      <trkpt lat="42.96429" lon="0.3036">
        <ele>1388.3</ele>
        <time>2026-07-07T10:23:24Z</time>
      </trkpt>
      <trkpt lat="42.96428" lon="0.30361">
        <ele>1388.3</ele>
        <time>2026-07-07T10:23:24Z</time>
      </trkpt>
      <trkpt lat="42.96428" lon="0.30362">
        <ele>1388.3</ele>
        <time>2026-07-07T10:23:25Z</time>
      </trkpt>
      <trkpt lat="42.96428" lon="0.30363">
        <ele>1388.3</ele>
        <time>2026-07-07T10:23:25Z</time>
      </trkpt>
      <trkpt lat="42.96427" lon="0.30363">
        <ele>1388.3</ele>
        <time>2026-07-07T10:23:26Z</time>
      </trkpt>
      <trkpt lat="42.96427" lon="0.30364">
        <ele>1388.3</ele>
        <time>2026-07-07T10:23:27Z</time>
      </trkpt>
      <trkpt lat="42.96427" lon="0.30365">
        <ele>1388.3</ele>
        <time>2026-07-07T10:23:27Z</time>
      </trkpt>
      <trkpt lat="42.96426" lon="0.30366">
        <ele>1388.3</ele>
        <time>2026-07-07T10:23:28Z</time>
      </trkpt>
      <trkpt lat="42.96426" lon="0.30366">
        <ele>1388.3</ele>
        <time>2026-07-07T10:23:28Z</time>
      </trkpt>
      <trkpt lat="42.96426" lon="0.30367">
        <ele>1388.3</ele>
        <time>2026-07-07T10:23:29Z</time>
      </trkpt>
      <trkpt lat="42.96426" lon="0.30368">
        <ele>1388.3</ele>
        <time>2026-07-07T10:23:29Z</time>
      </trkpt>
      <trkpt lat="42.96426" lon="0.30369">
        <ele>1388.3</ele>
        <time>2026-07-07T10:23:30Z</time>
      </trkpt>
      <trkpt lat="42.96426" lon="0.3037">
        <ele>1388.3</ele>
        <time>2026-07-07T10:23:31Z</time>
      </trkpt>
      <trkpt lat="42.96426" lon="0.30371">
        <ele>1388.3</ele>
        <time>2026-07-07T10:23:31Z</time>
      </trkpt>
      <trkpt lat="42.96425" lon="0.30372">
        <ele>1389.3</ele>
        <time>2026-07-07T10:23:32Z</time>
      </trkpt>
      <trkpt lat="42.96425" lon="0.30373">
        <ele>1388.3</ele>
        <time>2026-07-07T10:23:33Z</time>
      </trkpt>
      <trkpt lat="42.96424" lon="0.30373">
        <ele>1388.3</ele>
        <time>2026-07-07T10:23:33Z</time>
      </trkpt>
      <trkpt lat="42.96424" lon="0.30374">
        <ele>1388.3</ele>
        <time>2026-07-07T10:23:34Z</time>
      </trkpt>
      <trkpt lat="42.96424" lon="0.30375">
        <ele>1389.3</ele>
        <time>2026-07-07T10:23:34Z</time>
      </trkpt>
      <trkpt lat="42.96424" lon="0.30376">
        <ele>1389.3</ele>
        <time>2026-07-07T10:23:35Z</time>
      </trkpt>
      <trkpt lat="42.96424" lon="0.30377">
        <ele>1389.3</ele>
        <time>2026-07-07T10:23:36Z</time>
      </trkpt>
      <trkpt lat="42.96425" lon="0.30377">
        <ele>1389.3</ele>
        <time>2026-07-07T10:23:36Z</time>
      </trkpt>
      <trkpt lat="42.96425" lon="0.30378">
        <ele>1389.3</ele>
        <time>2026-07-07T10:23:37Z</time>
      </trkpt>
      <trkpt lat="42.96425" lon="0.30379">
        <ele>1389.3</ele>
        <time>2026-07-07T10:23:37Z</time>
      </trkpt>
      <trkpt lat="42.96425" lon="0.3038">
        <ele>1389.3</ele>
        <time>2026-07-07T10:23:38Z</time>
      </trkpt>
      <trkpt lat="42.96425" lon="0.30381">
        <ele>1389.3</ele>
        <time>2026-07-07T10:23:38Z</time>
      </trkpt>
      <trkpt lat="42.96425" lon="0.30381">
        <ele>1389.3</ele>
        <time>2026-07-07T10:23:39Z</time>
      </trkpt>
      <trkpt lat="42.96425" lon="0.30382">
        <ele>1389.3</ele>
        <time>2026-07-07T10:23:40Z</time>
      </trkpt>
      <trkpt lat="42.96424" lon="0.30383">
        <ele>1389.3</ele>
        <time>2026-07-07T10:23:40Z</time>
      </trkpt>
      <trkpt lat="42.96424" lon="0.30384">
        <ele>1389.3</ele>
        <time>2026-07-07T10:23:41Z</time>
      </trkpt>
      <trkpt lat="42.96424" lon="0.30385">
        <ele>1389.3</ele>
        <time>2026-07-07T10:23:42Z</time>
      </trkpt>
      <trkpt lat="42.96423" lon="0.30386">
        <ele>1389.3</ele>
        <time>2026-07-07T10:23:42Z</time>
      </trkpt>
      <trkpt lat="42.96423" lon="0.30386">
        <ele>1388.3</ele>
        <time>2026-07-07T10:23:43Z</time>
      </trkpt>
      <trkpt lat="42.96422" lon="0.30387">
        <ele>1388.3</ele>
        <time>2026-07-07T10:23:43Z</time>
      </trkpt>
      <trkpt lat="42.96422" lon="0.30388">
        <ele>1388.3</ele>
        <time>2026-07-07T10:23:44Z</time>
      </trkpt>
      <trkpt lat="42.96422" lon="0.30388">
        <ele>1389.3</ele>
        <time>2026-07-07T10:23:45Z</time>
      </trkpt>
      <trkpt lat="42.96421" lon="0.30389">
        <ele>1389.3</ele>
        <time>2026-07-07T10:23:45Z</time>
      </trkpt>
      <trkpt lat="42.96421" lon="0.3039">
        <ele>1389.3</ele>
        <time>2026-07-07T10:23:46Z</time>
      </trkpt>
      <trkpt lat="42.9642" lon="0.3039">
        <ele>1389.3</ele>
        <time>2026-07-07T10:23:46Z</time>
      </trkpt>
      <trkpt lat="42.9642" lon="0.30391">
        <ele>1389.3</ele>
        <time>2026-07-07T10:23:47Z</time>
      </trkpt>
      <trkpt lat="42.9642" lon="0.30392">
        <ele>1389.3</ele>
        <time>2026-07-07T10:23:48Z</time>
      </trkpt>
      <trkpt lat="42.96419" lon="0.30393">
        <ele>1389.3</ele>
        <time>2026-07-07T10:23:48Z</time>
      </trkpt>
      <trkpt lat="42.96419" lon="0.30394">
        <ele>1389.3</ele>
        <time>2026-07-07T10:23:49Z</time>
      </trkpt>
      <trkpt lat="42.96419" lon="0.30394">
        <ele>1389.3</ele>
        <time>2026-07-07T10:23:49Z</time>
      </trkpt>
      <trkpt lat="42.96418" lon="0.30395">
        <ele>1389.3</ele>
        <time>2026-07-07T10:23:50Z</time>
      </trkpt>
      <trkpt lat="42.96418" lon="0.30396">
        <ele>1389.3</ele>
        <time>2026-07-07T10:23:51Z</time>
      </trkpt>
      <trkpt lat="42.96418" lon="0.30396">
        <ele>1389.3</ele>
        <time>2026-07-07T10:23:51Z</time>
      </trkpt>
      <trkpt lat="42.96417" lon="0.30397">
        <ele>1389.3</ele>
        <time>2026-07-07T10:23:52Z</time>
      </trkpt>
      <trkpt lat="42.96417" lon="0.30398">
        <ele>1389.3</ele>
        <time>2026-07-07T10:23:53Z</time>
      </trkpt>
      <trkpt lat="42.96416" lon="0.30398">
        <ele>1389.3</ele>
        <time>2026-07-07T10:23:53Z</time>
      </trkpt>
      <trkpt lat="42.96416" lon="0.30399">
        <ele>1389.3</ele>
        <time>2026-07-07T10:23:54Z</time>
      </trkpt>
      <trkpt lat="42.96415" lon="0.304">
        <ele>1390.3</ele>
        <time>2026-07-07T10:23:55Z</time>
      </trkpt>
      <trkpt lat="42.96415" lon="0.30401">
        <ele>1390.3</ele>
        <time>2026-07-07T10:23:55Z</time>
      </trkpt>
      <trkpt lat="42.96415" lon="0.30402">
        <ele>1390.3</ele>
        <time>2026-07-07T10:23:56Z</time>
      </trkpt>
      <trkpt lat="42.96414" lon="0.30402">
        <ele>1390.3</ele>
        <time>2026-07-07T10:23:56Z</time>
      </trkpt>
      <trkpt lat="42.96414" lon="0.30403">
        <ele>1390.3</ele>
        <time>2026-07-07T10:23:57Z</time>
      </trkpt>
      <trkpt lat="42.96413" lon="0.30404">
        <ele>1390.3</ele>
        <time>2026-07-07T10:23:58Z</time>
      </trkpt>
      <trkpt lat="42.96413" lon="0.30405">
        <ele>1390.3</ele>
        <time>2026-07-07T10:23:58Z</time>
      </trkpt>
      <trkpt lat="42.96413" lon="0.30406">
        <ele>1390.3</ele>
        <time>2026-07-07T10:23:59Z</time>
      </trkpt>
      <trkpt lat="42.96412" lon="0.30406">
        <ele>1390.3</ele>
        <time>2026-07-07T10:24:00Z</time>
      </trkpt>
      <trkpt lat="42.96412" lon="0.30407">
        <ele>1390.3</ele>
        <time>2026-07-07T10:24:00Z</time>
      </trkpt>
      <trkpt lat="42.96412" lon="0.30408">
        <ele>1390.3</ele>
        <time>2026-07-07T10:24:01Z</time>
      </trkpt>
      <trkpt lat="42.96412" lon="0.30409">
        <ele>1390.3</ele>
        <time>2026-07-07T10:24:02Z</time>
      </trkpt>
      <trkpt lat="42.96412" lon="0.3041">
        <ele>1390.3</ele>
        <time>2026-07-07T10:24:02Z</time>
      </trkpt>
      <trkpt lat="42.96412" lon="0.30411">
        <ele>1390.3</ele>
        <time>2026-07-07T10:24:03Z</time>
      </trkpt>
      <trkpt lat="42.96412" lon="0.30412">
        <ele>1390.3</ele>
        <time>2026-07-07T10:24:04Z</time>
      </trkpt>
      <trkpt lat="42.96412" lon="0.30413">
        <ele>1390.3</ele>
        <time>2026-07-07T10:24:04Z</time>
      </trkpt>
      <trkpt lat="42.96412" lon="0.30414">
        <ele>1390.3</ele>
        <time>2026-07-07T10:24:05Z</time>
      </trkpt>
      <trkpt lat="42.96412" lon="0.30415">
        <ele>1390.3</ele>
        <time>2026-07-07T10:24:06Z</time>
      </trkpt>
      <trkpt lat="42.96412" lon="0.30416">
        <ele>1390.3</ele>
        <time>2026-07-07T10:24:06Z</time>
      </trkpt>
      <trkpt lat="42.96412" lon="0.30417">
        <ele>1390.3</ele>
        <time>2026-07-07T10:24:07Z</time>
      </trkpt>
      <trkpt lat="42.96412" lon="0.30418">
        <ele>1391.3</ele>
        <time>2026-07-07T10:24:08Z</time>
      </trkpt>
      <trkpt lat="42.96412" lon="0.30419">
        <ele>1390.3</ele>
        <time>2026-07-07T10:24:08Z</time>
      </trkpt>
      <trkpt lat="42.96411" lon="0.3042">
        <ele>1390.3</ele>
        <time>2026-07-07T10:24:09Z</time>
      </trkpt>
      <trkpt lat="42.96411" lon="0.30421">
        <ele>1391.3</ele>
        <time>2026-07-07T10:24:10Z</time>
      </trkpt>
      <trkpt lat="42.9641" lon="0.30422">
        <ele>1390.3</ele>
        <time>2026-07-07T10:24:10Z</time>
      </trkpt>
      <trkpt lat="42.9641" lon="0.30423">
        <ele>1390.3</ele>
        <time>2026-07-07T10:24:11Z</time>
      </trkpt>
      <trkpt lat="42.9641" lon="0.30424">
        <ele>1390.3</ele>
        <time>2026-07-07T10:24:12Z</time>
      </trkpt>
      <trkpt lat="42.96409" lon="0.30425">
        <ele>1390.3</ele>
        <time>2026-07-07T10:24:12Z</time>
      </trkpt>
      <trkpt lat="42.96409" lon="0.30426">
        <ele>1391.3</ele>
        <time>2026-07-07T10:24:13Z</time>
      </trkpt>
      <trkpt lat="42.96409" lon="0.30426">
        <ele>1390.3</ele>
        <time>2026-07-07T10:24:13Z</time>
      </trkpt>
      <trkpt lat="42.96409" lon="0.30427">
        <ele>1390.3</ele>
        <time>2026-07-07T10:24:14Z</time>
      </trkpt>
      <trkpt lat="42.96409" lon="0.30428">
        <ele>1391.3</ele>
        <time>2026-07-07T10:24:15Z</time>
      </trkpt>
      <trkpt lat="42.9641" lon="0.30429">
        <ele>1390.3</ele>
        <time>2026-07-07T10:24:15Z</time>
      </trkpt>
      <trkpt lat="42.9641" lon="0.30429">
        <ele>1390.3</ele>
        <time>2026-07-07T10:24:16Z</time>
      </trkpt>
      <trkpt lat="42.96411" lon="0.30429">
        <ele>1389.3</ele>
        <time>2026-07-07T10:24:17Z</time>
      </trkpt>
      <trkpt lat="42.96412" lon="0.30429">
        <ele>1389.3</ele>
        <time>2026-07-07T10:24:17Z</time>
      </trkpt>
      <trkpt lat="42.96412" lon="0.30429">
        <ele>1389.3</ele>
        <time>2026-07-07T10:24:18Z</time>
      </trkpt>
      <trkpt lat="42.96413" lon="0.30429">
        <ele>1390.3</ele>
        <time>2026-07-07T10:24:19Z</time>
      </trkpt>
      <trkpt lat="42.96414" lon="0.30428">
        <ele>1390.3</ele>
        <time>2026-07-07T10:24:19Z</time>
      </trkpt>
      <trkpt lat="42.96414" lon="0.30427">
        <ele>1390.3</ele>
        <time>2026-07-07T10:24:20Z</time>
      </trkpt>
      <trkpt lat="42.96415" lon="0.30426">
        <ele>1390.3</ele>
        <time>2026-07-07T10:24:20Z</time>
      </trkpt>
      <trkpt lat="42.96415" lon="0.30426">
        <ele>1390.3</ele>
        <time>2026-07-07T10:24:21Z</time>
      </trkpt>
      <trkpt lat="42.96416" lon="0.30425">
        <ele>1390.3</ele>
        <time>2026-07-07T10:24:22Z</time>
      </trkpt>
      <trkpt lat="42.96416" lon="0.30424">
        <ele>1390.3</ele>
        <time>2026-07-07T10:24:22Z</time>
      </trkpt>
      <trkpt lat="42.96416" lon="0.30424">
        <ele>1390.3</ele>
        <time>2026-07-07T10:24:23Z</time>
      </trkpt>
      <trkpt lat="42.96417" lon="0.30423">
        <ele>1391.3</ele>
        <time>2026-07-07T10:24:23Z</time>
      </trkpt>
      <trkpt lat="42.96417" lon="0.30422">
        <ele>1391.3</ele>
        <time>2026-07-07T10:24:24Z</time>
      </trkpt>
      <trkpt lat="42.96417" lon="0.30421">
        <ele>1391.3</ele>
        <time>2026-07-07T10:24:25Z</time>
      </trkpt>
      <trkpt lat="42.96418" lon="0.3042">
        <ele>1391.3</ele>
        <time>2026-07-07T10:24:25Z</time>
      </trkpt>
      <trkpt lat="42.96418" lon="0.30419">
        <ele>1391.3</ele>
        <time>2026-07-07T10:24:26Z</time>
      </trkpt>
      <trkpt lat="42.96418" lon="0.30419">
        <ele>1391.3</ele>
        <time>2026-07-07T10:24:26Z</time>
      </trkpt>
      <trkpt lat="42.96418" lon="0.30418">
        <ele>1391.3</ele>
        <time>2026-07-07T10:24:27Z</time>
      </trkpt>
      <trkpt lat="42.96419" lon="0.30417">
        <ele>1391.3</ele>
        <time>2026-07-07T10:24:27Z</time>
      </trkpt>
      <trkpt lat="42.96419" lon="0.30416">
        <ele>1391.3</ele>
        <time>2026-07-07T10:24:28Z</time>
      </trkpt>
      <trkpt lat="42.96419" lon="0.30416">
        <ele>1392.3</ele>
        <time>2026-07-07T10:24:29Z</time>
      </trkpt>
      <trkpt lat="42.96419" lon="0.30415">
        <ele>1392.3</ele>
        <time>2026-07-07T10:24:29Z</time>
      </trkpt>
      <trkpt lat="42.9642" lon="0.30414">
        <ele>1392.3</ele>
        <time>2026-07-07T10:24:30Z</time>
      </trkpt>
      <trkpt lat="42.9642" lon="0.30413">
        <ele>1392.3</ele>
        <time>2026-07-07T10:24:30Z</time>
      </trkpt>
      <trkpt lat="42.9642" lon="0.30413">
        <ele>1392.3</ele>
        <time>2026-07-07T10:24:31Z</time>
      </trkpt>
      <trkpt lat="42.9642" lon="0.30412">
        <ele>1392.3</ele>
        <time>2026-07-07T10:24:31Z</time>
      </trkpt>
      <trkpt lat="42.96421" lon="0.30411">
        <ele>1392.3</ele>
        <time>2026-07-07T10:24:32Z</time>
      </trkpt>
      <trkpt lat="42.96421" lon="0.30411">
        <ele>1392.3</ele>
        <time>2026-07-07T10:24:33Z</time>
      </trkpt>
      <trkpt lat="42.96422" lon="0.3041">
        <ele>1392.3</ele>
        <time>2026-07-07T10:24:33Z</time>
      </trkpt>
      <trkpt lat="42.96422" lon="0.3041">
        <ele>1393.3</ele>
        <time>2026-07-07T10:24:34Z</time>
      </trkpt>
      <trkpt lat="42.96422" lon="0.30409">
        <ele>1393.3</ele>
        <time>2026-07-07T10:24:34Z</time>
      </trkpt>
      <trkpt lat="42.96423" lon="0.30408">
        <ele>1393.3</ele>
        <time>2026-07-07T10:24:35Z</time>
      </trkpt>
      <trkpt lat="42.96423" lon="0.30408">
        <ele>1393.3</ele>
        <time>2026-07-07T10:24:35Z</time>
      </trkpt>
      <trkpt lat="42.96423" lon="0.30407">
        <ele>1393.3</ele>
        <time>2026-07-07T10:24:36Z</time>
      </trkpt>
      <trkpt lat="42.96424" lon="0.30407">
        <ele>1393.3</ele>
        <time>2026-07-07T10:24:37Z</time>
      </trkpt>
      <trkpt lat="42.96424" lon="0.30406">
        <ele>1393.3</ele>
        <time>2026-07-07T10:24:37Z</time>
      </trkpt>
      <trkpt lat="42.96424" lon="0.30405">
        <ele>1393.3</ele>
        <time>2026-07-07T10:24:38Z</time>
      </trkpt>
      <trkpt lat="42.96425" lon="0.30405">
        <ele>1393.3</ele>
        <time>2026-07-07T10:24:38Z</time>
      </trkpt>
      <trkpt lat="42.96425" lon="0.30404">
        <ele>1393.3</ele>
        <time>2026-07-07T10:24:39Z</time>
      </trkpt>
      <trkpt lat="42.96425" lon="0.30404">
        <ele>1393.3</ele>
        <time>2026-07-07T10:24:40Z</time>
      </trkpt>
      <trkpt lat="42.96426" lon="0.30403">
        <ele>1393.3</ele>
        <time>2026-07-07T10:24:40Z</time>
      </trkpt>
      <trkpt lat="42.96426" lon="0.30402">
        <ele>1393.3</ele>
        <time>2026-07-07T10:24:41Z</time>
      </trkpt>
      <trkpt lat="42.96426" lon="0.30402">
        <ele>1392.3</ele>
        <time>2026-07-07T10:24:41Z</time>
      </trkpt>
      <trkpt lat="42.96426" lon="0.30401">
        <ele>1392.3</ele>
        <time>2026-07-07T10:24:42Z</time>
      </trkpt>
      <trkpt lat="42.96427" lon="0.30401">
        <ele>1392.3</ele>
        <time>2026-07-07T10:24:42Z</time>
      </trkpt>
      <trkpt lat="42.96427" lon="0.304">
        <ele>1392.3</ele>
        <time>2026-07-07T10:24:43Z</time>
      </trkpt>
      <trkpt lat="42.96427" lon="0.304">
        <ele>1391.3</ele>
        <time>2026-07-07T10:24:43Z</time>
      </trkpt>
      <trkpt lat="42.96428" lon="0.30399">
        <ele>1391.3</ele>
        <time>2026-07-07T10:24:44Z</time>
      </trkpt>
      <trkpt lat="42.96428" lon="0.30398">
        <ele>1391.3</ele>
        <time>2026-07-07T10:24:45Z</time>
      </trkpt>
      <trkpt lat="42.96429" lon="0.30398">
        <ele>1391.3</ele>
        <time>2026-07-07T10:24:45Z</time>
      </trkpt>
      <trkpt lat="42.9643" lon="0.30398">
        <ele>1391.3</ele>
        <time>2026-07-07T10:24:46Z</time>
      </trkpt>
      <trkpt lat="42.9643" lon="0.30398">
        <ele>1391.3</ele>
        <time>2026-07-07T10:24:46Z</time>
      </trkpt>
      <trkpt lat="42.96431" lon="0.30397">
        <ele>1391.3</ele>
        <time>2026-07-07T10:24:47Z</time>
      </trkpt>
      <trkpt lat="42.96432" lon="0.30397">
        <ele>1391.3</ele>
        <time>2026-07-07T10:24:48Z</time>
      </trkpt>
      <trkpt lat="42.96432" lon="0.30397">
        <ele>1391.3</ele>
        <time>2026-07-07T10:24:48Z</time>
      </trkpt>
      <trkpt lat="42.96433" lon="0.30397">
        <ele>1391.3</ele>
        <time>2026-07-07T10:24:49Z</time>
      </trkpt>
      <trkpt lat="42.96434" lon="0.30397">
        <ele>1392.3</ele>
        <time>2026-07-07T10:24:49Z</time>
      </trkpt>
      <trkpt lat="42.96434" lon="0.30397">
        <ele>1392.3</ele>
        <time>2026-07-07T10:24:50Z</time>
      </trkpt>
      <trkpt lat="42.96435" lon="0.30397">
        <ele>1392.3</ele>
        <time>2026-07-07T10:24:51Z</time>
      </trkpt>
      <trkpt lat="42.96436" lon="0.30397">
        <ele>1392.3</ele>
        <time>2026-07-07T10:24:51Z</time>
      </trkpt>
      <trkpt lat="42.96436" lon="0.30397">
        <ele>1392.3</ele>
        <time>2026-07-07T10:24:52Z</time>
      </trkpt>
      <trkpt lat="42.96437" lon="0.30397">
        <ele>1392.3</ele>
        <time>2026-07-07T10:24:52Z</time>
      </trkpt>
      <trkpt lat="42.96437" lon="0.30396">
        <ele>1392.3</ele>
        <time>2026-07-07T10:24:53Z</time>
      </trkpt>
      <trkpt lat="42.96438" lon="0.30396">
        <ele>1392.3</ele>
        <time>2026-07-07T10:24:54Z</time>
      </trkpt>
      <trkpt lat="42.96438" lon="0.30396">
        <ele>1392.3</ele>
        <time>2026-07-07T10:24:54Z</time>
      </trkpt>
      <trkpt lat="42.96439" lon="0.30395">
        <ele>1392.3</ele>
        <time>2026-07-07T10:24:55Z</time>
      </trkpt>
      <trkpt lat="42.96439" lon="0.30395">
        <ele>1392.3</ele>
        <time>2026-07-07T10:24:55Z</time>
      </trkpt>
      <trkpt lat="42.96439" lon="0.30394">
        <ele>1392.3</ele>
        <time>2026-07-07T10:24:56Z</time>
      </trkpt>
      <trkpt lat="42.96439" lon="0.30394">
        <ele>1390.3</ele>
        <time>2026-07-07T10:24:57Z</time>
      </trkpt>
      <trkpt lat="42.96438" lon="0.30393">
        <ele>1390.3</ele>
        <time>2026-07-07T10:24:57Z</time>
      </trkpt>
      <trkpt lat="42.96438" lon="0.30393">
        <ele>1390.3</ele>
        <time>2026-07-07T10:24:58Z</time>
      </trkpt>
      <trkpt lat="42.96437" lon="0.30392">
        <ele>1390.3</ele>
        <time>2026-07-07T10:24:58Z</time>
      </trkpt>
      <trkpt lat="42.96437" lon="0.30391">
        <ele>1390.3</ele>
        <time>2026-07-07T10:24:59Z</time>
      </trkpt>
      <trkpt lat="42.96436" lon="0.30391">
        <ele>1391.3</ele>
        <time>2026-07-07T10:25:00Z</time>
      </trkpt>
      <trkpt lat="42.96436" lon="0.3039">
        <ele>1391.3</ele>
        <time>2026-07-07T10:25:00Z</time>
      </trkpt>
      <trkpt lat="42.96435" lon="0.30389">
        <ele>1391.3</ele>
        <time>2026-07-07T10:25:01Z</time>
      </trkpt>
      <trkpt lat="42.96435" lon="0.30388">
        <ele>1390.3</ele>
        <time>2026-07-07T10:25:02Z</time>
      </trkpt>
      <trkpt lat="42.96434" lon="0.30388">
        <ele>1390.3</ele>
        <time>2026-07-07T10:25:02Z</time>
      </trkpt>
      <trkpt lat="42.96434" lon="0.30387">
        <ele>1390.3</ele>
        <time>2026-07-07T10:25:03Z</time>
      </trkpt>
      <trkpt lat="42.96435" lon="0.30387">
        <ele>1391.3</ele>
        <time>2026-07-07T10:25:03Z</time>
      </trkpt>
      <trkpt lat="42.96435" lon="0.30387">
        <ele>1391.3</ele>
        <time>2026-07-07T10:25:04Z</time>
      </trkpt>
      <trkpt lat="42.96435" lon="0.30388">
        <ele>1391.3</ele>
        <time>2026-07-07T10:25:05Z</time>
      </trkpt>
      <trkpt lat="42.96434" lon="0.30388">
        <ele>1391.3</ele>
        <time>2026-07-07T10:25:06Z</time>
      </trkpt>
      <trkpt lat="42.96434" lon="0.30388">
        <ele>1392.3</ele>
        <time>2026-07-07T10:25:07Z</time>
      </trkpt>
      <trkpt lat="42.96434" lon="0.30388">
        <ele>1392.3</ele>
        <time>2026-07-07T10:25:08Z</time>
      </trkpt>
      <trkpt lat="42.96434" lon="0.30388">
        <ele>1392.3</ele>
        <time>2026-07-07T10:25:09Z</time>
      </trkpt>
      <trkpt lat="42.96434" lon="0.30388">
        <ele>1392.3</ele>
        <time>2026-07-07T10:25:10Z</time>
      </trkpt>
      <trkpt lat="42.96434" lon="0.30388">
        <ele>1391.3</ele>
        <time>2026-07-07T10:25:11Z</time>
      </trkpt>
      <trkpt lat="42.96433" lon="0.30387">
        <ele>1391.3</ele>
        <time>2026-07-07T10:25:12Z</time>
      </trkpt>
      <trkpt lat="42.96433" lon="0.30387">
        <ele>1391.3</ele>
        <time>2026-07-07T10:25:13Z</time>
      </trkpt>
      <trkpt lat="42.96433" lon="0.30387">
        <ele>1391.3</ele>
        <time>2026-07-07T10:25:14Z</time>
      </trkpt>
      <trkpt lat="42.96432" lon="0.30387">
        <ele>1391.3</ele>
        <time>2026-07-07T10:25:15Z</time>
      </trkpt>
      <trkpt lat="42.96432" lon="0.30387">
        <ele>1391.3</ele>
        <time>2026-07-07T10:25:16Z</time>
      </trkpt>
      <trkpt lat="42.96432" lon="0.30387">
        <ele>1391.3</ele>
        <time>2026-07-07T10:25:17Z</time>
      </trkpt>
      <trkpt lat="42.96432" lon="0.30387">
        <ele>1391.3</ele>
        <time>2026-07-07T10:25:18Z</time>
      </trkpt>
      <trkpt lat="42.96432" lon="0.30387">
        <ele>1391.3</ele>
        <time>2026-07-07T10:25:19Z</time>
      </trkpt>
      <trkpt lat="42.96432" lon="0.30387">
        <ele>1391.3</ele>
        <time>2026-07-07T10:25:20Z</time>
      </trkpt>
      <trkpt lat="42.96432" lon="0.30387">
        <ele>1391.3</ele>
        <time>2026-07-07T10:25:21Z</time>
      </trkpt>
      <trkpt lat="42.96432" lon="0.30387">
        <ele>1391.3</ele>
        <time>2026-07-07T10:25:22Z</time>
      </trkpt>
      <trkpt lat="42.96431" lon="0.30387">
        <ele>1391.3</ele>
        <time>2026-07-07T10:25:23Z</time>
      </trkpt>
      <trkpt lat="42.96431" lon="0.30387">
        <ele>1391.3</ele>
        <time>2026-07-07T10:25:24Z</time>
      </trkpt>
    </trkseg>
  </trk>
</gpx>